<?xml version='1.0' encoding='UTF-8'?><gpx version="1.1" creator="JPX - https://github.com/jenetics/jpx" xmlns="http://www.topografix.com/GPX/1/1"><trk><trkseg><trkpt lat="44.8172791993246" lon="8.068109993902068"><ele>213.0</ele><time>2026-04-19T07:02:09Z</time></trkpt><trkpt lat="44.817217903328164" lon="8.068177104129921"><ele>213.0</ele><time>2026-04-19T07:02:10Z</time></trkpt><trkpt lat="44.81714946403695" lon="8.068285244843038"><ele>213.0</ele><time>2026-04-19T07:02:12Z</time></trkpt><trkpt lat="44.817105544748486" lon="8.068358455955966"><ele>213.0</ele><time>2026-04-19T07:02:13Z</time></trkpt><trkpt lat="44.81703883743416" lon="8.06842662055643"><ele>213.0</ele><time>2026-04-19T07:02:14Z</time></trkpt><trkpt lat="44.81696849642462" lon="8.068512639040968"><ele>213.0</ele><time>2026-04-19T07:02:15Z</time></trkpt><trkpt lat="44.81688383111799" lon="8.068631373172176"><ele>214.75</ele><time>2026-04-19T07:02:16Z</time></trkpt><trkpt lat="44.81677591696626" lon="8.068764599002918"><ele>216.5</ele><time>2026-04-19T07:02:17Z</time></trkpt><trkpt lat="44.816670112649675" lon="8.068892987847267"><ele>218.25</ele><time>2026-04-19T07:02:18Z</time></trkpt><trkpt lat="44.816583027117275" lon="8.069011939616699"><ele>220.0</ele><time>2026-04-19T07:02:19Z</time></trkpt><trkpt lat="44.81650313668059" lon="8.06913476786777"><ele>220.75</ele><time>2026-04-19T07:02:20Z</time></trkpt><trkpt lat="44.81643387556916" lon="8.069262171618085"><ele>221.5</ele><time>2026-04-19T07:02:21Z</time></trkpt><trkpt lat="44.81636631740944" lon="8.069395408967711"><ele>222.25</ele><time>2026-04-19T07:02:21.999Z</time></trkpt><trkpt lat="44.8163050304395" lon="8.069532530441462"><ele>223.0</ele><time>2026-04-19T07:02:22.999Z</time></trkpt><trkpt lat="44.81624370890838" lon="8.069685868433739"><ele>223.0</ele><time>2026-04-19T07:02:23.999Z</time></trkpt><trkpt lat="44.81618599793758" lon="8.06984011005666"><ele>223.0</ele><time>2026-04-19T07:02:24.999Z</time></trkpt><trkpt lat="44.81613790339314" lon="8.07001595963352"><ele>223.0</ele><time>2026-04-19T07:02:25.999Z</time></trkpt><trkpt lat="44.81609205348584" lon="8.070189836066222"><ele>223.0</ele><time>2026-04-19T07:02:26.999Z</time></trkpt><trkpt lat="44.81605351628264" lon="8.070334005288057"><ele>223.0</ele><time>2026-04-19T07:02:27.999Z</time></trkpt><trkpt lat="44.815999465493725" lon="8.070454724514317"><ele>223.0</ele><time>2026-04-19T07:02:28.999Z</time></trkpt><trkpt lat="44.81591932436545" lon="8.070574108775713"><ele>223.0</ele><time>2026-04-19T07:02:29.999Z</time></trkpt><trkpt lat="44.81583564937458" lon="8.070668086519023"><ele>223.0</ele><time>2026-04-19T07:02:30.999Z</time></trkpt><trkpt lat="44.8157510102536" lon="8.070766412571258"><ele>223.0</ele><time>2026-04-19T07:02:31.999Z</time></trkpt><trkpt lat="44.81568358493436" lon="8.07086446114338"><ele>226.60000000000002</ele><time>2026-04-19T07:02:32.999Z</time></trkpt><trkpt lat="44.81562083670833" lon="8.070965552912009"><ele>230.20000000000002</ele><time>2026-04-19T07:02:33.999Z</time></trkpt><trkpt lat="44.815571997016974" lon="8.071085089145745"><ele>233.8</ele><time>2026-04-19T07:02:34.999Z</time></trkpt><trkpt lat="44.8155182147694" lon="8.07121911347723"><ele>237.4</ele><time>2026-04-19T07:02:35.999Z</time></trkpt><trkpt lat="44.81546078104473" lon="8.071372554081664"><ele>241.0</ele><time>2026-04-19T07:02:36.999Z</time></trkpt><trkpt lat="44.81541039506897" lon="8.071487545439377"><ele>241.0</ele><time>2026-04-19T07:02:37.999Z</time></trkpt><trkpt lat="44.815362436747456" lon="8.071590623712686"><ele>241.00000000000003</ele><time>2026-04-19T07:02:38.999Z</time></trkpt><trkpt lat="44.8153067484182" lon="8.071685286161792"><ele>241.00000000000003</ele><time>2026-04-19T07:02:39.999Z</time></trkpt><trkpt lat="44.81523929245524" lon="8.071783469799357"><ele>241.0</ele><time>2026-04-19T07:02:40.999Z</time></trkpt><trkpt lat="44.81516314139892" lon="8.071879643818235"><ele>241.0</ele><time>2026-04-19T07:02:41.999Z</time></trkpt><trkpt lat="44.815069618651776" lon="8.071951138308826"><ele>240.20000000000002</ele><time>2026-04-19T07:02:42.999Z</time></trkpt><trkpt lat="44.81496719666646" lon="8.071994829457976"><ele>239.40000000000003</ele><time>2026-04-19T07:02:43.999Z</time></trkpt><trkpt lat="44.81486265773966" lon="8.072048097497975"><ele>238.6</ele><time>2026-04-19T07:02:44.999Z</time></trkpt><trkpt lat="44.8147696805984" lon="8.072113226789533"><ele>237.8</ele><time>2026-04-19T07:02:45.999Z</time></trkpt><trkpt lat="44.814676791903885" lon="8.072188040280954"><ele>237.0</ele><time>2026-04-19T07:02:46.999Z</time></trkpt><trkpt lat="44.81457962161092" lon="8.072287856346168"><ele>237.0</ele><time>2026-04-19T07:02:47.999Z</time></trkpt><trkpt lat="44.814492757043915" lon="8.07238760771378"><ele>237.0</ele><time>2026-04-19T07:02:48.999Z</time></trkpt><trkpt lat="44.814414122678244" lon="8.072473092406378"><ele>237.0</ele><time>2026-04-19T07:02:49.999Z</time></trkpt><trkpt lat="44.81434134012024" lon="8.072554825970013"><ele>237.0</ele><time>2026-04-19T07:02:50.999Z</time></trkpt><trkpt lat="44.81427180586352" lon="8.072630127396524"><ele>237.0</ele><time>2026-04-19T07:02:51.999Z</time></trkpt><trkpt lat="44.81420376968581" lon="8.072695570593124"><ele>236.6</ele><time>2026-04-19T07:02:52.999Z</time></trkpt><trkpt lat="44.81412858869332" lon="8.07276429856935"><ele>236.2</ele><time>2026-04-19T07:02:53.999Z</time></trkpt><trkpt lat="44.814039281286405" lon="8.0728398315757"><ele>235.8</ele><time>2026-04-19T07:02:54.999Z</time></trkpt><trkpt lat="44.81392622680165" lon="8.072907347800701"><ele>235.4</ele><time>2026-04-19T07:02:55.999Z</time></trkpt><trkpt lat="44.81381105533171" lon="8.072969456187291"><ele>235.0</ele><time>2026-04-19T07:02:56.999Z</time></trkpt><trkpt lat="44.81371331391058" lon="8.073021677024926"><ele>235.0</ele><time>2026-04-19T07:02:57.999Z</time></trkpt><trkpt lat="44.81359773204023" lon="8.07307472620478"><ele>235.0</ele><time>2026-04-19T07:02:58.999Z</time></trkpt><trkpt lat="44.813484172650156" lon="8.07313547315067"><ele>235.0</ele><time>2026-04-19T07:02:59.999Z</time></trkpt><trkpt lat="44.81337347134418" lon="8.073191532570245"><ele>235.0</ele><time>2026-04-19T07:03:00.999Z</time></trkpt><trkpt lat="44.81324947057557" lon="8.073228662487443"><ele>233.25</ele><time>2026-04-19T07:03:01.999Z</time></trkpt><trkpt lat="44.8131024689775" lon="8.073271681852834"><ele>231.5</ele><time>2026-04-19T07:03:02.999Z</time></trkpt><trkpt lat="44.812957414779454" lon="8.07330895640327"><ele>229.75</ele><time>2026-04-19T07:03:03.999Z</time></trkpt><trkpt lat="44.81282513043472" lon="8.073373679541401"><ele>228.0</ele><time>2026-04-19T07:03:04.999Z</time></trkpt><trkpt lat="44.8127064097895" lon="8.07345442932531"><ele>228.0</ele><time>2026-04-19T07:03:05.999Z</time></trkpt><trkpt lat="44.812593225965394" lon="8.073531318125704"><ele>228.0</ele><time>2026-04-19T07:03:06.999Z</time></trkpt><trkpt lat="44.81248723528088" lon="8.073587996923386"><ele>228.0</ele><time>2026-04-19T07:03:07.999Z</time></trkpt><trkpt lat="44.812378235459406" lon="8.073616633045987"><ele>228.0</ele><time>2026-04-19T07:03:08.999Z</time></trkpt><trkpt lat="44.812264002198766" lon="8.07360654223605"><ele>228.0</ele><time>2026-04-19T07:03:09.999Z</time></trkpt><trkpt lat="44.81217627441828" lon="8.0735757935011"><ele>228.0</ele><time>2026-04-19T07:03:10.999Z</time></trkpt><trkpt lat="44.81210363811348" lon="8.07356043921995"><ele>228.0</ele><time>2026-04-19T07:03:11.999Z</time></trkpt><trkpt lat="44.812034529794836" lon="8.073551636973734"><ele>228.0</ele><time>2026-04-19T07:03:12.999Z</time></trkpt><trkpt lat="44.81196461370956" lon="8.073539527824673"><ele>228.0</ele><time>2026-04-19T07:03:13.999Z</time></trkpt><trkpt lat="44.811899607790124" lon="8.07354059736773"><ele>228.0</ele><time>2026-04-19T07:03:14.999Z</time></trkpt><trkpt lat="44.8118043694329" lon="8.073553958290297"><ele>229.25</ele><time>2026-04-19T07:03:15.999Z</time></trkpt><trkpt lat="44.8116785876754" lon="8.073562914377133"><ele>230.5</ele><time>2026-04-19T07:03:17Z</time></trkpt><trkpt lat="44.81152303312939" lon="8.073568623179327"><ele>231.75</ele><time>2026-04-19T07:03:18Z</time></trkpt><trkpt lat="44.81138559757962" lon="8.073599272809597"><ele>233.0</ele><time>2026-04-19T07:03:19Z</time></trkpt><trkpt lat="44.81126717527196" lon="8.07363977919111"><ele>233.0</ele><time>2026-04-19T07:03:20Z</time></trkpt><trkpt lat="44.81113270907052" lon="8.0737123900345"><ele>233.0</ele><time>2026-04-19T07:03:21Z</time></trkpt><trkpt lat="44.81097953635583" lon="8.073804892276668"><ele>233.0</ele><time>2026-04-19T07:03:22Z</time></trkpt><trkpt lat="44.81083935947249" lon="8.073887518215848"><ele>234.75</ele><time>2026-04-19T07:03:23Z</time></trkpt><trkpt lat="44.81071672115945" lon="8.073941401876324"><ele>236.5</ele><time>2026-04-19T07:03:24Z</time></trkpt><trkpt lat="44.81058738537092" lon="8.073980121626368"><ele>238.25</ele><time>2026-04-19T07:03:25Z</time></trkpt><trkpt lat="44.81046374923483" lon="8.074020276128325"><ele>240.0</ele><time>2026-04-19T07:03:26Z</time></trkpt><trkpt lat="44.810348071396966" lon="8.07405598753727"><ele>240.0</ele><time>2026-04-19T07:03:27Z</time></trkpt><trkpt lat="44.81024071079585" lon="8.074081511838784"><ele>240.0</ele><time>2026-04-19T07:03:28Z</time></trkpt><trkpt lat="44.810123726395254" lon="8.07409210169199"><ele>240.0</ele><time>2026-04-19T07:03:29Z</time></trkpt><trkpt lat="44.81000473039655" lon="8.074085739801985"><ele>240.0</ele><time>2026-04-19T07:03:30Z</time></trkpt><trkpt lat="44.80988443630213" lon="8.074078031119257"><ele>240.75</ele><time>2026-04-19T07:03:31Z</time></trkpt><trkpt lat="44.809765790819114" lon="8.074040109700238"><ele>241.5</ele><time>2026-04-19T07:03:32Z</time></trkpt><trkpt lat="44.80964351204558" lon="8.073993828109227"><ele>242.25</ele><time>2026-04-19T07:03:33Z</time></trkpt><trkpt lat="44.80953476170514" lon="8.073969084644988"><ele>243.0</ele><time>2026-04-19T07:03:34Z</time></trkpt><trkpt lat="44.80943510701273" lon="8.073968604169131"><ele>243.0</ele><time>2026-04-19T07:03:35Z</time></trkpt><trkpt lat="44.809364499414286" lon="8.074007258151394"><ele>243.0</ele><time>2026-04-19T07:03:36Z</time></trkpt><trkpt lat="44.8092897370242" lon="8.074060503303508"><ele>243.0</ele><time>2026-04-19T07:03:37Z</time></trkpt><trkpt lat="44.80920933658253" lon="8.074154950455878"><ele>243.0</ele><time>2026-04-19T07:03:38Z</time></trkpt><trkpt lat="44.80910823480018" lon="8.07429715200423"><ele>243.0</ele><time>2026-04-19T07:03:39Z</time></trkpt><trkpt lat="44.80900337497364" lon="8.074433663904289"><ele>243.0</ele><time>2026-04-19T07:03:40Z</time></trkpt><trkpt lat="44.808923611534595" lon="8.074559391494265"><ele>243.0</ele><time>2026-04-19T07:03:41Z</time></trkpt><trkpt lat="44.80886380480422" lon="8.07467497365636"><ele>243.0</ele><time>2026-04-19T07:03:42Z</time></trkpt><trkpt lat="44.80881143295078" lon="8.074785107040563"><ele>243.0</ele><time>2026-04-19T07:03:43Z</time></trkpt><trkpt lat="44.808752029929195" lon="8.074929279290837"><ele>243.0</ele><time>2026-04-19T07:03:44Z</time></trkpt><trkpt lat="44.80868234934735" lon="8.075081184571086"><ele>243.4</ele><time>2026-04-19T07:03:45Z</time></trkpt><trkpt lat="44.80862364163762" lon="8.075217456305301"><ele>243.8</ele><time>2026-04-19T07:03:46Z</time></trkpt><trkpt lat="44.80857301318022" lon="8.075358756898474"><ele>244.2</ele><time>2026-04-19T07:03:47Z</time></trkpt><trkpt lat="44.80852635368869" lon="8.075465023597946"><ele>244.6</ele><time>2026-04-19T07:03:48Z</time></trkpt><trkpt lat="44.808469788264766" lon="8.075538217231477"><ele>245.0</ele><time>2026-04-19T07:03:49Z</time></trkpt><trkpt lat="44.80837907313853" lon="8.075658386747373"><ele>245.75</ele><time>2026-04-19T07:03:50Z</time></trkpt><trkpt lat="44.80829932001115" lon="8.075792785032242"><ele>246.5</ele><time>2026-04-19T07:03:51Z</time></trkpt><trkpt lat="44.80824119447772" lon="8.075940828112124"><ele>247.25</ele><time>2026-04-19T07:03:52Z</time></trkpt><trkpt lat="44.8081772500426" lon="8.07613116130846"><ele>248.0</ele><time>2026-04-19T07:03:53Z</time></trkpt><trkpt lat="44.80810816958748" lon="8.076331066490532"><ele>248.0</ele><time>2026-04-19T07:03:54Z</time></trkpt><trkpt lat="44.808047134805406" lon="8.07651944179146"><ele>248.0</ele><time>2026-04-19T07:03:55Z</time></trkpt><trkpt lat="44.80798197652787" lon="8.076699861665773"><ele>248.0</ele><time>2026-04-19T07:03:56Z</time></trkpt><trkpt lat="44.807910052195844" lon="8.076875308357755"><ele>248.0</ele><time>2026-04-19T07:03:57Z</time></trkpt><trkpt lat="44.80782446831732" lon="8.077061212814963"><ele>248.0</ele><time>2026-04-19T07:03:58Z</time></trkpt><trkpt lat="44.807730608057085" lon="8.077259545104463"><ele>248.0</ele><time>2026-04-19T07:03:59Z</time></trkpt><trkpt lat="44.807648221966176" lon="8.077439492767896"><ele>248.0</ele><time>2026-04-19T07:04:00Z</time></trkpt><trkpt lat="44.807577596194776" lon="8.077614712213748"><ele>250.0</ele><time>2026-04-19T07:04:01Z</time></trkpt><trkpt lat="44.80751748232719" lon="8.07779878416257"><ele>252.0</ele><time>2026-04-19T07:04:02Z</time></trkpt><trkpt lat="44.80746725258101" lon="8.077981234047064"><ele>254.0</ele><time>2026-04-19T07:04:03Z</time></trkpt><trkpt lat="44.80742421418616" lon="8.078134706612614"><ele>256.0</ele><time>2026-04-19T07:04:04Z</time></trkpt><trkpt lat="44.80738311244693" lon="8.07827614840418"><ele>256.16666666666663</ele><time>2026-04-19T07:04:05Z</time></trkpt><trkpt lat="44.80735128870757" lon="8.078410187579788"><ele>256.3333333333333</ele><time>2026-04-19T07:04:06Z</time></trkpt><trkpt lat="44.80733151196852" lon="8.078525847952433"><ele>256.5</ele><time>2026-04-19T07:04:07Z</time></trkpt><trkpt lat="44.80731608413877" lon="8.078623738536713"><ele>256.6666666666667</ele><time>2026-04-19T07:04:08Z</time></trkpt><trkpt lat="44.807322737846434" lon="8.07875625636284"><ele>256.83333333333337</ele><time>2026-04-19T07:04:10Z</time></trkpt><trkpt lat="44.807387704924906" lon="8.07874317252654"><ele>257.0</ele><time>2026-04-19T07:04:13Z</time></trkpt><trkpt lat="44.80748625664518" lon="8.078730138346955"><ele>257.0</ele><time>2026-04-19T07:04:16Z</time></trkpt><trkpt lat="44.80759381381679" lon="8.078729849075783"><ele>257.0</ele><time>2026-04-19T07:04:18Z</time></trkpt><trkpt lat="44.80769628903669" lon="8.078724034433083"><ele>257.0</ele><time>2026-04-19T07:04:19Z</time></trkpt><trkpt lat="44.80782472542014" lon="8.078717250966779"><ele>257.0</ele><time>2026-04-19T07:04:20Z</time></trkpt><trkpt lat="44.80794082531961" lon="8.07871421525552"><ele>254.8</ele><time>2026-04-19T07:04:21Z</time></trkpt><trkpt lat="44.80804726025428" lon="8.078708386060743"><ele>252.6</ele><time>2026-04-19T07:04:22Z</time></trkpt><trkpt lat="44.80814948791189" lon="8.078699095992572"><ele>250.40000000000003</ele><time>2026-04-19T07:04:22.999Z</time></trkpt><trkpt lat="44.80825067297598" lon="8.078687452982136"><ele>248.20000000000002</ele><time>2026-04-19T07:04:23.999Z</time></trkpt><trkpt lat="44.808349662087906" lon="8.078679897906254"><ele>246.0</ele><time>2026-04-19T07:04:24.999Z</time></trkpt><trkpt lat="44.80844259805417" lon="8.078671298158332"><ele>246.4</ele><time>2026-04-19T07:04:25.999Z</time></trkpt><trkpt lat="44.80853430492932" lon="8.07867119939441"><ele>246.8</ele><time>2026-04-19T07:04:26.999Z</time></trkpt><trkpt lat="44.80862970813392" lon="8.078703003549604"><ele>247.20000000000002</ele><time>2026-04-19T07:04:27.999Z</time></trkpt><trkpt lat="44.808729348779345" lon="8.078761532729931"><ele>247.60000000000002</ele><time>2026-04-19T07:04:28.999Z</time></trkpt><trkpt lat="44.80881630139819" lon="8.078832508024659"><ele>248.0</ele><time>2026-04-19T07:04:29.999Z</time></trkpt><trkpt lat="44.80890339702105" lon="8.078915206243455"><ele>248.0</ele><time>2026-04-19T07:04:30.999Z</time></trkpt><trkpt lat="44.808973756349054" lon="8.079001638225922"><ele>248.0</ele><time>2026-04-19T07:04:31.999Z</time></trkpt><trkpt lat="44.8090369363346" lon="8.079083653382902"><ele>248.0</ele><time>2026-04-19T07:04:32.999Z</time></trkpt><trkpt lat="44.80911314130291" lon="8.0791654853282"><ele>248.0</ele><time>2026-04-19T07:04:33.999Z</time></trkpt><trkpt lat="44.809210638705245" lon="8.079248665158822"><ele>248.0</ele><time>2026-04-19T07:04:34.999Z</time></trkpt><trkpt lat="44.809311593573895" lon="8.079322260301383"><ele>246.8</ele><time>2026-04-19T07:04:35.999Z</time></trkpt><trkpt lat="44.80940372775786" lon="8.07938825920959"><ele>245.60000000000002</ele><time>2026-04-19T07:04:36.999Z</time></trkpt><trkpt lat="44.80949644381018" lon="8.079456275246526"><ele>244.39999999999998</ele><time>2026-04-19T07:04:37.999Z</time></trkpt><trkpt lat="44.80958670500598" lon="8.079518103192553"><ele>243.2</ele><time>2026-04-19T07:04:38.999Z</time></trkpt><trkpt lat="44.809677565983385" lon="8.079566840877751"><ele>242.0</ele><time>2026-04-19T07:04:39.999Z</time></trkpt><trkpt lat="44.80980483102361" lon="8.079612874836158"><ele>242.0</ele><time>2026-04-19T07:04:40.999Z</time></trkpt><trkpt lat="44.80992967973082" lon="8.079650695967576"><ele>242.0</ele><time>2026-04-19T07:04:41.999Z</time></trkpt><trkpt lat="44.810043571270995" lon="8.079693602314459"><ele>242.0</ele><time>2026-04-19T07:04:42.999Z</time></trkpt><trkpt lat="44.81014270449616" lon="8.079750595802855"><ele>242.0</ele><time>2026-04-19T07:04:43.999Z</time></trkpt><trkpt lat="44.810224779541876" lon="8.079820589546811"><ele>242.0</ele><time>2026-04-19T07:04:44.999Z</time></trkpt><trkpt lat="44.810286930735096" lon="8.079882486370503"><ele>238.39999999999998</ele><time>2026-04-19T07:04:45.999Z</time></trkpt><trkpt lat="44.81035388001487" lon="8.079791988675117"><ele>234.79999999999998</ele><time>2026-04-19T07:04:49.999Z</time></trkpt><trkpt lat="44.8103489813989" lon="8.07965964389215"><ele>231.2</ele><time>2026-04-19T07:04:50.999Z</time></trkpt><trkpt lat="44.810350652875556" lon="8.079521382631707"><ele>227.6</ele><time>2026-04-19T07:04:51.999Z</time></trkpt><trkpt lat="44.810357127130935" lon="8.079368692396878"><ele>224.0</ele><time>2026-04-19T07:04:52.999Z</time></trkpt><trkpt lat="44.81035990205784" lon="8.079197442135477"><ele>226.0</ele><time>2026-04-19T07:04:53.999Z</time></trkpt><trkpt lat="44.81036973341732" lon="8.079017705469953"><ele>228.0</ele><time>2026-04-19T07:04:54.999Z</time></trkpt><trkpt lat="44.81039886617859" lon="8.078848700086969"><ele>230.0</ele><time>2026-04-19T07:04:55.999Z</time></trkpt><trkpt lat="44.81045540271119" lon="8.078700151909521"><ele>232.0</ele><time>2026-04-19T07:04:56.999Z</time></trkpt><trkpt lat="44.81054031800788" lon="8.078554069389867"><ele>232.0</ele><time>2026-04-19T07:04:57.999Z</time></trkpt><trkpt lat="44.81065155557811" lon="8.078405395727863"><ele>232.0</ele><time>2026-04-19T07:04:58.999Z</time></trkpt><trkpt lat="44.810767977277365" lon="8.07824377927109"><ele>232.0</ele><time>2026-04-19T07:04:59.999Z</time></trkpt><trkpt lat="44.81084830169319" lon="8.07810202174317"><ele>232.0</ele><time>2026-04-19T07:05:00.999Z</time></trkpt><trkpt lat="44.810918102785784" lon="8.077998850604608"><ele>231.0</ele><time>2026-04-19T07:05:01.999Z</time></trkpt><trkpt lat="44.81097732989941" lon="8.07792085898945"><ele>230.0</ele><time>2026-04-19T07:05:02.999Z</time></trkpt><trkpt lat="44.811055325624665" lon="8.077864949055607"><ele>229.0</ele><time>2026-04-19T07:05:03.999Z</time></trkpt><trkpt lat="44.811158700655916" lon="8.077845863946685"><ele>228.0</ele><time>2026-04-19T07:05:04.999Z</time></trkpt><trkpt lat="44.81129944095888" lon="8.077837983623017"><ele>227.0</ele><time>2026-04-19T07:05:05.999Z</time></trkpt><trkpt lat="44.81145958778235" lon="8.077816076236877"><ele>226.5</ele><time>2026-04-19T07:05:06.999Z</time></trkpt><trkpt lat="44.811603081333764" lon="8.077804853887073"><ele>226.0</ele><time>2026-04-19T07:05:07.999Z</time></trkpt><trkpt lat="44.81175044408392" lon="8.077806989797724"><ele>225.5</ele><time>2026-04-19T07:05:08.999Z</time></trkpt><trkpt lat="44.81190330558152" lon="8.077833912142633"><ele>225.0</ele><time>2026-04-19T07:05:09.999Z</time></trkpt><trkpt lat="44.81207907151554" lon="8.077887955162698"><ele>223.66666666666669</ele><time>2026-04-19T07:05:10.999Z</time></trkpt><trkpt lat="44.8122700227799" lon="8.077940317190153"><ele>222.33333333333334</ele><time>2026-04-19T07:05:11.999Z</time></trkpt><trkpt lat="44.81243829324343" lon="8.077979088639985"><ele>221.0</ele><time>2026-04-19T07:05:12.999Z</time></trkpt><trkpt lat="44.81259198780803" lon="8.078002628585624"><ele>221.0</ele><time>2026-04-19T07:05:13.999Z</time></trkpt><trkpt lat="44.812750448503145" lon="8.078020566638013"><ele>221.0</ele><time>2026-04-19T07:05:14.999Z</time></trkpt><trkpt lat="44.81290776482551" lon="8.078041490138638"><ele>221.0</ele><time>2026-04-19T07:05:15.999Z</time></trkpt><trkpt lat="44.81307481934848" lon="8.078080217008829"><ele>221.0</ele><time>2026-04-19T07:05:16.999Z</time></trkpt><trkpt lat="44.813244920603154" lon="8.078119825529374"><ele>221.0</ele><time>2026-04-19T07:05:17.999Z</time></trkpt><trkpt lat="44.81341886319461" lon="8.078150194524094"><ele>221.0</ele><time>2026-04-19T07:05:18.999Z</time></trkpt><trkpt lat="44.813597590671975" lon="8.078177426698934"><ele>220.66666666666669</ele><time>2026-04-19T07:05:19.999Z</time></trkpt><trkpt lat="44.813773404002305" lon="8.078199933680517"><ele>220.33333333333331</ele><time>2026-04-19T07:05:20.999Z</time></trkpt><trkpt lat="44.8139264566509" lon="8.078219823333502"><ele>220.0</ele><time>2026-04-19T07:05:21.999Z</time></trkpt><trkpt lat="44.8140585603835" lon="8.078246954726401"><ele>221.99999999999997</ele><time>2026-04-19T07:05:23Z</time></trkpt><trkpt lat="44.814155155468924" lon="8.078287023754692"><ele>224.0</ele><time>2026-04-19T07:05:24Z</time></trkpt><trkpt lat="44.8142454319166" lon="8.078342758576657"><ele>226.0</ele><time>2026-04-19T07:05:25Z</time></trkpt><trkpt lat="44.814329504284096" lon="8.0783972643888"><ele>228.0</ele><time>2026-04-19T07:05:26Z</time></trkpt><trkpt lat="44.81439860750936" lon="8.07846079238754"><ele>229.99999999999997</ele><time>2026-04-19T07:05:27Z</time></trkpt><trkpt lat="44.81445739049718" lon="8.078524669143718"><ele>232.0</ele><time>2026-04-19T07:05:28Z</time></trkpt><trkpt lat="44.814536980750226" lon="8.078629540761938"><ele>233.39999999999998</ele><time>2026-04-19T07:05:30Z</time></trkpt><trkpt lat="44.81461483325093" lon="8.078716490952901"><ele>234.79999999999998</ele><time>2026-04-19T07:05:32Z</time></trkpt><trkpt lat="44.81469442464961" lon="8.078790832271823"><ele>236.2</ele><time>2026-04-19T07:05:34Z</time></trkpt><trkpt lat="44.81475433041073" lon="8.078853758237228"><ele>237.6</ele><time>2026-04-19T07:05:35Z</time></trkpt><trkpt lat="44.81483068551672" lon="8.078929545092604"><ele>239.0</ele><time>2026-04-19T07:05:36Z</time></trkpt><trkpt lat="44.81490937722945" lon="8.079009858380088"><ele>239.0</ele><time>2026-04-19T07:05:37Z</time></trkpt><trkpt lat="44.81498792555806" lon="8.07908771984699"><ele>238.99999999999997</ele><time>2026-04-19T07:05:38Z</time></trkpt><trkpt lat="44.815067359111005" lon="8.079157924926964"><ele>238.99999999999997</ele><time>2026-04-19T07:05:39Z</time></trkpt><trkpt lat="44.815148093670295" lon="8.079221802401007"><ele>239.0</ele><time>2026-04-19T07:05:40Z</time></trkpt><trkpt lat="44.81523367384874" lon="8.079269540829577"><ele>239.0</ele><time>2026-04-19T07:05:41Z</time></trkpt><trkpt lat="44.81532141457205" lon="8.079305989756714"><ele>237.0</ele><time>2026-04-19T07:05:42Z</time></trkpt><trkpt lat="44.815405291889775" lon="8.07934542161749"><ele>234.99999999999997</ele><time>2026-04-19T07:05:43Z</time></trkpt><trkpt lat="44.8154875248685" lon="8.079390013628595"><ele>232.99999999999997</ele><time>2026-04-19T07:05:44Z</time></trkpt><trkpt lat="44.81556103554342" lon="8.079430415627428"><ele>231.0</ele><time>2026-04-19T07:05:45Z</time></trkpt><trkpt lat="44.815625293602785" lon="8.079476851365358"><ele>229.0</ele><time>2026-04-19T07:05:46Z</time></trkpt><trkpt lat="44.815725309597575" lon="8.079595429777527"><ele>228.99999999999997</ele><time>2026-04-19T07:05:48Z</time></trkpt><trkpt lat="44.81578577340146" lon="8.079641407289742"><ele>229.0</ele><time>2026-04-19T07:05:49Z</time></trkpt><trkpt lat="44.81579836792264" lon="8.079732433935924"><ele>229.0</ele><time>2026-04-19T07:05:50Z</time></trkpt><trkpt lat="44.81583013478828" lon="8.079811236261714"><ele>229.0</ele><time>2026-04-19T07:05:52Z</time></trkpt><trkpt lat="44.815782431815265" lon="8.079687816661885"><ele>228.99999999999997</ele><time>2026-04-19T07:05:58Z</time></trkpt><trkpt lat="44.81573735987282" lon="8.079624381007335"><ele>229.0</ele><time>2026-04-19T07:06:00Z</time></trkpt><trkpt lat="44.81567465925775" lon="8.079538271992725"><ele>229.0</ele><time>2026-04-19T07:06:03Z</time></trkpt><trkpt lat="44.81573252953989" lon="8.079680593012903"><ele>228.99999999999997</ele><time>2026-04-19T07:06:07Z</time></trkpt><trkpt lat="44.81580088086361" lon="8.079749729564632"><ele>228.99999999999997</ele><time>2026-04-19T07:06:08Z</time></trkpt><trkpt lat="44.81586241593035" lon="8.079849834727046"><ele>229.0</ele><time>2026-04-19T07:06:09Z</time></trkpt><trkpt lat="44.81592517110742" lon="8.079956595385267"><ele>229.0</ele><time>2026-04-19T07:06:10Z</time></trkpt><trkpt lat="44.81598259894297" lon="8.080052686754282"><ele>227.79999999999998</ele><time>2026-04-19T07:06:11Z</time></trkpt><trkpt lat="44.81603441509181" lon="8.080133252323169"><ele>226.59999999999997</ele><time>2026-04-19T07:06:12Z</time></trkpt><trkpt lat="44.81608896859026" lon="8.08020122476033"><ele>225.4</ele><time>2026-04-19T07:06:13Z</time></trkpt><trkpt lat="44.81615596149373" lon="8.080284042031202"><ele>224.2</ele><time>2026-04-19T07:06:14Z</time></trkpt><trkpt lat="44.816242951107476" lon="8.080375811504409"><ele>223.0</ele><time>2026-04-19T07:06:15Z</time></trkpt><trkpt lat="44.816342385732916" lon="8.080453268661293"><ele>223.0</ele><time>2026-04-19T07:06:16Z</time></trkpt><trkpt lat="44.81645591888865" lon="8.080507553417807"><ele>223.0</ele><time>2026-04-19T07:06:17Z</time></trkpt><trkpt lat="44.81656000920119" lon="8.080530359452197"><ele>223.0</ele><time>2026-04-19T07:06:18Z</time></trkpt><trkpt lat="44.81668408331677" lon="8.080535147425755"><ele>223.0</ele><time>2026-04-19T07:06:19Z</time></trkpt><trkpt lat="44.81681747536134" lon="8.080562714285463"><ele>221.2</ele><time>2026-04-19T07:06:20Z</time></trkpt><trkpt lat="44.81695422201933" lon="8.080587838253923"><ele>219.4</ele><time>2026-04-19T07:06:21Z</time></trkpt><trkpt lat="44.81706855883771" lon="8.080600259364841"><ele>217.59999999999997</ele><time>2026-04-19T07:06:22Z</time></trkpt><trkpt lat="44.817167391562194" lon="8.08060633484204"><ele>215.79999999999998</ele><time>2026-04-19T07:06:23Z</time></trkpt><trkpt lat="44.81725270271337" lon="8.080610255334875"><ele>214.0</ele><time>2026-04-19T07:06:24Z</time></trkpt><trkpt lat="44.8173322816887" lon="8.080607242367858"><ele>214.0</ele><time>2026-04-19T07:06:25Z</time></trkpt><trkpt lat="44.81740135398843" lon="8.080642345655932"><ele>213.99999999999997</ele><time>2026-04-19T07:06:26Z</time></trkpt><trkpt lat="44.81749267437634" lon="8.080681978879317"><ele>213.99999999999997</ele><time>2026-04-19T07:06:27Z</time></trkpt><trkpt lat="44.81759841160228" lon="8.080742681685736"><ele>214.0</ele><time>2026-04-19T07:06:28Z</time></trkpt><trkpt lat="44.81771887833126" lon="8.08076664122411"><ele>214.0</ele><time>2026-04-19T07:06:29Z</time></trkpt><trkpt lat="44.81784652522611" lon="8.080761712111395"><ele>215.5</ele><time>2026-04-19T07:06:30Z</time></trkpt><trkpt lat="44.81798601366817" lon="8.080722648663025"><ele>217.0</ele><time>2026-04-19T07:06:31Z</time></trkpt><trkpt lat="44.8181307977406" lon="8.08066481445514"><ele>218.5</ele><time>2026-04-19T07:06:32Z</time></trkpt><trkpt lat="44.81825730394191" lon="8.08060713093285"><ele>220.0</ele><time>2026-04-19T07:06:33Z</time></trkpt><trkpt lat="44.81837801529617" lon="8.080546247503083"><ele>220.0</ele><time>2026-04-19T07:06:34Z</time></trkpt><trkpt lat="44.81848318463284" lon="8.080462021138343"><ele>220.0</ele><time>2026-04-19T07:06:35Z</time></trkpt><trkpt lat="44.818590190026434" lon="8.080341148329481"><ele>220.0</ele><time>2026-04-19T07:06:36Z</time></trkpt><trkpt lat="44.81869585019214" lon="8.080202255261584"><ele>220.0</ele><time>2026-04-19T07:06:37Z</time></trkpt><trkpt lat="44.81879810253582" lon="8.080083490844626"><ele>220.75</ele><time>2026-04-19T07:06:38Z</time></trkpt><trkpt lat="44.81889450338971" lon="8.079980376791111"><ele>221.5</ele><time>2026-04-19T07:06:39Z</time></trkpt><trkpt lat="44.81898909096245" lon="8.07989330746825"><ele>222.25</ele><time>2026-04-19T07:06:39.999Z</time></trkpt><trkpt lat="44.81909130517055" lon="8.079814017593044"><ele>223.0</ele><time>2026-04-19T07:06:40.999Z</time></trkpt><trkpt lat="44.81918733267878" lon="8.079748461527926"><ele>222.99999999999997</ele><time>2026-04-19T07:06:41.999Z</time></trkpt><trkpt lat="44.819266850694014" lon="8.079700925942307"><ele>223.0</ele><time>2026-04-19T07:06:42.999Z</time></trkpt><trkpt lat="44.819333780230345" lon="8.079675591931498"><ele>223.0</ele><time>2026-04-19T07:06:43.999Z</time></trkpt><trkpt lat="44.819408696824006" lon="8.07967953014804"><ele>223.0</ele><time>2026-04-19T07:06:44.999Z</time></trkpt><trkpt lat="44.8195084071547" lon="8.079703767243025"><ele>222.99999999999997</ele><time>2026-04-19T07:06:45.999Z</time></trkpt><trkpt lat="44.819597864957196" lon="8.079716859374475"><ele>223.0</ele><time>2026-04-19T07:06:46.999Z</time></trkpt><trkpt lat="44.8196855075414" lon="8.079682914182857"><ele>225.0</ele><time>2026-04-19T07:06:47.999Z</time></trkpt><trkpt lat="44.81979141063552" lon="8.079587784536436"><ele>227.0</ele><time>2026-04-19T07:06:48.999Z</time></trkpt><trkpt lat="44.81989464584959" lon="8.079490034286492"><ele>229.0</ele><time>2026-04-19T07:06:49.999Z</time></trkpt><trkpt lat="44.81998977388254" lon="8.07940763304678"><ele>231.0</ele><time>2026-04-19T07:06:50.999Z</time></trkpt><trkpt lat="44.82007366232615" lon="8.079337167378155"><ele>229.8</ele><time>2026-04-19T07:06:51.999Z</time></trkpt><trkpt lat="44.82016434204781" lon="8.079278539425006"><ele>228.60000000000002</ele><time>2026-04-19T07:06:52.999Z</time></trkpt><trkpt lat="44.820258662570886" lon="8.079229033579946"><ele>227.4</ele><time>2026-04-19T07:06:53.999Z</time></trkpt><trkpt lat="44.82035899274086" lon="8.079196191168522"><ele>226.2</ele><time>2026-04-19T07:06:54.999Z</time></trkpt><trkpt lat="44.82046251713219" lon="8.079183247413884"><ele>225.0</ele><time>2026-04-19T07:06:55.999Z</time></trkpt><trkpt lat="44.82056898845971" lon="8.079201717220124"><ele>225.0</ele><time>2026-04-19T07:06:56.999Z</time></trkpt><trkpt lat="44.82067237742617" lon="8.079239929387573"><ele>225.0</ele><time>2026-04-19T07:06:57.999Z</time></trkpt><trkpt lat="44.82076928520044" lon="8.079280980085512"><ele>225.0</ele><time>2026-04-19T07:06:58.999Z</time></trkpt><trkpt lat="44.82088019806164" lon="8.079328022070479"><ele>225.0</ele><time>2026-04-19T07:06:59.999Z</time></trkpt><trkpt lat="44.82099923274141" lon="8.079350807887598"><ele>225.0</ele><time>2026-04-19T07:07:00.999Z</time></trkpt><trkpt lat="44.82113894779485" lon="8.079386653211262"><ele>224.25</ele><time>2026-04-19T07:07:01.999Z</time></trkpt><trkpt lat="44.821261566483614" lon="8.079397566331915"><ele>223.5</ele><time>2026-04-19T07:07:02.999Z</time></trkpt><trkpt lat="44.821386975562376" lon="8.079391295830456"><ele>222.75</ele><time>2026-04-19T07:07:03.999Z</time></trkpt><trkpt lat="44.82151902565457" lon="8.0793749570085"><ele>222.0</ele><time>2026-04-19T07:07:04.999Z</time></trkpt><trkpt lat="44.82163579824071" lon="8.079366304482292"><ele>222.0</ele><time>2026-04-19T07:07:05.999Z</time></trkpt><trkpt lat="44.82174711802763" lon="8.079355229727328"><ele>222.0</ele><time>2026-04-19T07:07:06.999Z</time></trkpt><trkpt lat="44.82186715885257" lon="8.079341047560684"><ele>222.0</ele><time>2026-04-19T07:07:07.999Z</time></trkpt><trkpt lat="44.82198889578809" lon="8.079307226217628"><ele>222.0</ele><time>2026-04-19T07:07:08.999Z</time></trkpt><trkpt lat="44.82209783904374" lon="8.079243810233738"><ele>222.25</ele><time>2026-04-19T07:07:09.999Z</time></trkpt><trkpt lat="44.822210589412286" lon="8.07917546933706"><ele>222.5</ele><time>2026-04-19T07:07:10.999Z</time></trkpt><trkpt lat="44.82233336926886" lon="8.079095339901869"><ele>222.75</ele><time>2026-04-19T07:07:11.999Z</time></trkpt><trkpt lat="44.822454747865486" lon="8.079024023670247"><ele>223.0</ele><time>2026-04-19T07:07:12.999Z</time></trkpt><trkpt lat="44.82258161305947" lon="8.078955170574844"><ele>223.0</ele><time>2026-04-19T07:07:13.999Z</time></trkpt><trkpt lat="44.82269378380082" lon="8.078902359118338"><ele>223.0</ele><time>2026-04-19T07:07:14.999Z</time></trkpt><trkpt lat="44.82280737742825" lon="8.078850313358155"><ele>223.0</ele><time>2026-04-19T07:07:15.999Z</time></trkpt><trkpt lat="44.82292281937738" lon="8.078811407814763"><ele>223.0</ele><time>2026-04-19T07:07:16.999Z</time></trkpt><trkpt lat="44.823056566587006" lon="8.078774484977979"><ele>223.0</ele><time>2026-04-19T07:07:17.999Z</time></trkpt><trkpt lat="44.823199318001706" lon="8.078736759154486"><ele>223.0</ele><time>2026-04-19T07:07:18.999Z</time></trkpt><trkpt lat="44.82333429603649" lon="8.078709555207965"><ele>223.0</ele><time>2026-04-19T07:07:19.999Z</time></trkpt><trkpt lat="44.82346232846642" lon="8.078685747805256"><ele>223.0</ele><time>2026-04-19T07:07:20.999Z</time></trkpt><trkpt lat="44.823574468664646" lon="8.078645546941038"><ele>222.16666666666666</ele><time>2026-04-19T07:07:21.999Z</time></trkpt><trkpt lat="44.82367080070518" lon="8.07859394873483"><ele>221.33333333333331</ele><time>2026-04-19T07:07:22.999Z</time></trkpt><trkpt lat="44.82375223906487" lon="8.078535314370846"><ele>220.5</ele><time>2026-04-19T07:07:23.999Z</time></trkpt><trkpt lat="44.82381119307112" lon="8.078468707838258"><ele>219.66666666666669</ele><time>2026-04-19T07:07:24.999Z</time></trkpt><trkpt lat="44.82385305203762" lon="8.078375145973459"><ele>218.83333333333334</ele><time>2026-04-19T07:07:25.999Z</time></trkpt><trkpt lat="44.82387715055984" lon="8.078263517631672"><ele>218.0</ele><time>2026-04-19T07:07:26.999Z</time></trkpt><trkpt lat="44.82388985149184" lon="8.078140592214245"><ele>216.8</ele><time>2026-04-19T07:07:27.999Z</time></trkpt><trkpt lat="44.82389620490421" lon="8.077993730577159"><ele>215.60000000000002</ele><time>2026-04-19T07:07:29Z</time></trkpt><trkpt lat="44.823906019103745" lon="8.077850446297386"><ele>214.39999999999998</ele><time>2026-04-19T07:07:30Z</time></trkpt><trkpt lat="44.8239201609501" lon="8.077719585541688"><ele>213.2</ele><time>2026-04-19T07:07:31Z</time></trkpt><trkpt lat="44.823972273844845" lon="8.077590306694667"><ele>212.0</ele><time>2026-04-19T07:07:33Z</time></trkpt><trkpt lat="44.82409499664354" lon="8.077667218023656"><ele>212.0</ele><time>2026-04-19T07:07:35Z</time></trkpt><trkpt lat="44.824205967936436" lon="8.077749043762863"><ele>212.0</ele><time>2026-04-19T07:07:36Z</time></trkpt><trkpt lat="44.82431495106452" lon="8.077800643116587"><ele>212.0</ele><time>2026-04-19T07:07:37Z</time></trkpt><trkpt lat="44.82441780597172" lon="8.077835513084095"><ele>212.0</ele><time>2026-04-19T07:07:38Z</time></trkpt><trkpt lat="44.82452145400619" lon="8.077868576713884"><ele>209.39999999999998</ele><time>2026-04-19T07:07:39Z</time></trkpt><trkpt lat="44.824619282562274" lon="8.077893375530056"><ele>206.79999999999998</ele><time>2026-04-19T07:07:40Z</time></trkpt><trkpt lat="44.824718979898385" lon="8.077910307737332"><ele>204.2</ele><time>2026-04-19T07:07:41Z</time></trkpt><trkpt lat="44.82480576656822" lon="8.077901127585895"><ele>201.6</ele><time>2026-04-19T07:07:42Z</time></trkpt><trkpt lat="44.824882635418845" lon="8.077854589027394"><ele>199.0</ele><time>2026-04-19T07:07:43Z</time></trkpt><trkpt lat="44.82495911684315" lon="8.077786277899028"><ele>199.0</ele><time>2026-04-19T07:07:44Z</time></trkpt><trkpt lat="44.82503546604404" lon="8.0776972510147"><ele>199.0</ele><time>2026-04-19T07:07:45Z</time></trkpt><trkpt lat="44.825115435446826" lon="8.077601799802713"><ele>199.0</ele><time>2026-04-19T07:07:46Z</time></trkpt><trkpt lat="44.82519897792334" lon="8.07750868865287"><ele>199.0</ele><time>2026-04-19T07:07:47Z</time></trkpt><trkpt lat="44.82528521138464" lon="8.07742322454114"><ele>199.0</ele><time>2026-04-19T07:07:48Z</time></trkpt><trkpt lat="44.825365542567425" lon="8.077339321731541"><ele>195.39999999999998</ele><time>2026-04-19T07:07:49Z</time></trkpt><trkpt lat="44.82544235622934" lon="8.077279770035311"><ele>191.8</ele><time>2026-04-19T07:07:50Z</time></trkpt><trkpt lat="44.82552346232825" lon="8.077227080296487"><ele>188.2</ele><time>2026-04-19T07:07:51Z</time></trkpt><trkpt lat="44.82560547242765" lon="8.077175613977953"><ele>184.60000000000002</ele><time>2026-04-19T07:07:52Z</time></trkpt><trkpt lat="44.82569939384656" lon="8.077136352500334"><ele>181.0</ele><time>2026-04-19T07:07:53Z</time></trkpt><trkpt lat="44.825801774924855" lon="8.077111893474255"><ele>181.0</ele><time>2026-04-19T07:07:54Z</time></trkpt><trkpt lat="44.82590316624245" lon="8.077097194693287"><ele>181.0</ele><time>2026-04-19T07:07:55Z</time></trkpt><trkpt lat="44.8260120974526" lon="8.077084663940857"><ele>181.0</ele><time>2026-04-19T07:07:56Z</time></trkpt><trkpt lat="44.82612185152225" lon="8.077063500421044"><ele>181.0</ele><time>2026-04-19T07:07:57Z</time></trkpt><trkpt lat="44.82623451990713" lon="8.077045821470577"><ele>181.0</ele><time>2026-04-19T07:07:58Z</time></trkpt><trkpt lat="44.82635081548507" lon="8.077029215253859"><ele>178.0</ele><time>2026-04-19T07:07:59Z</time></trkpt><trkpt lat="44.82646891212564" lon="8.077007647620594"><ele>175.0</ele><time>2026-04-19T07:08:00Z</time></trkpt><trkpt lat="44.826585394530255" lon="8.076981478082246"><ele>172.0</ele><time>2026-04-19T07:08:01Z</time></trkpt><trkpt lat="44.82669419282489" lon="8.076951858231368"><ele>169.0</ele><time>2026-04-19T07:08:02Z</time></trkpt><trkpt lat="44.82680231075195" lon="8.07694239680192"><ele>168.2</ele><time>2026-04-19T07:08:03Z</time></trkpt><trkpt lat="44.826910382351166" lon="8.076957402432484"><ele>167.39999999999998</ele><time>2026-04-19T07:08:04Z</time></trkpt><trkpt lat="44.827015038574345" lon="8.076973616020396"><ele>166.6</ele><time>2026-04-19T07:08:05Z</time></trkpt><trkpt lat="44.827118216508495" lon="8.076971591616516"><ele>165.8</ele><time>2026-04-19T07:08:06Z</time></trkpt><trkpt lat="44.827227923401665" lon="8.076937323362905"><ele>165.0</ele><time>2026-04-19T07:08:07Z</time></trkpt><trkpt lat="44.827353404231545" lon="8.076893743511869"><ele>165.0</ele><time>2026-04-19T07:08:08Z</time></trkpt><trkpt lat="44.827461396162974" lon="8.076871464544665"><ele>165.0</ele><time>2026-04-19T07:08:09Z</time></trkpt><trkpt lat="44.82754435535111" lon="8.076873900770169"><ele>165.0</ele><time>2026-04-19T07:08:10Z</time></trkpt><trkpt lat="44.82760793599424" lon="8.076883363301688"><ele>165.0</ele><time>2026-04-19T07:08:11Z</time></trkpt><trkpt lat="44.827702647602386" lon="8.076914942966694"><ele>165.0</ele><time>2026-04-19T07:08:13Z</time></trkpt><trkpt lat="44.827774167453995" lon="8.077075418630901"><ele>164.57142857142858</ele><time>2026-04-19T07:08:15Z</time></trkpt><trkpt lat="44.82780494622942" lon="8.07717231654807"><ele>164.14285714285714</ele><time>2026-04-19T07:08:16Z</time></trkpt><trkpt lat="44.82784029835098" lon="8.077261434938904"><ele>163.71428571428572</ele><time>2026-04-19T07:08:17Z</time></trkpt><trkpt lat="44.827876064873514" lon="8.077350347953553"><ele>163.28571428571428</ele><time>2026-04-19T07:08:18Z</time></trkpt><trkpt lat="44.8279158576959" lon="8.077431594038993"><ele>162.85714285714286</ele><time>2026-04-19T07:08:19Z</time></trkpt><trkpt lat="44.82795876688378" lon="8.077509286287853"><ele>162.42857142857144</ele><time>2026-04-19T07:08:21Z</time></trkpt><trkpt lat="44.828023847636146" lon="8.077456845124436"><ele>162.0</ele><time>2026-04-19T07:08:23Z</time></trkpt><trkpt lat="44.82811989708471" lon="8.077321303383556"><ele>161.0</ele><time>2026-04-19T07:08:25Z</time></trkpt><trkpt lat="44.8281843036194" lon="8.07722209944257"><ele>160.0</ele><time>2026-04-19T07:08:26Z</time></trkpt><trkpt lat="44.828258449704165" lon="8.07711654444559"><ele>159.0</ele><time>2026-04-19T07:08:27Z</time></trkpt><trkpt lat="44.828352010779" lon="8.077023548740206"><ele>158.0</ele><time>2026-04-19T07:08:28Z</time></trkpt><trkpt lat="44.82845596995385" lon="8.076946333248529"><ele>157.0</ele><time>2026-04-19T07:08:29Z</time></trkpt><trkpt lat="44.82856012525796" lon="8.076886286915126"><ele>156.25</ele><time>2026-04-19T07:08:30Z</time></trkpt><trkpt lat="44.82866427367947" lon="8.076824927937892"><ele>155.5</ele><time>2026-04-19T07:08:31Z</time></trkpt><trkpt lat="44.82878287368917" lon="8.076756294721905"><ele>154.75</ele><time>2026-04-19T07:08:32Z</time></trkpt><trkpt lat="44.82891737020053" lon="8.076677068096988"><ele>154.0</ele><time>2026-04-19T07:08:33Z</time></trkpt><trkpt lat="44.82906131244228" lon="8.076586670363131"><ele>153.66666666666669</ele><time>2026-04-19T07:08:34Z</time></trkpt><trkpt lat="44.82919180352236" lon="8.07651505361586"><ele>153.33333333333334</ele><time>2026-04-19T07:08:35Z</time></trkpt><trkpt lat="44.82934170410402" lon="8.076427719764583"><ele>153.0</ele><time>2026-04-19T07:08:36Z</time></trkpt><trkpt lat="44.829496704086395" lon="8.076336354774897"><ele>152.66666666666666</ele><time>2026-04-19T07:08:37Z</time></trkpt><trkpt lat="44.829656381521424" lon="8.076237532980558"><ele>152.33333333333331</ele><time>2026-04-19T07:08:38Z</time></trkpt><trkpt lat="44.82981217825717" lon="8.076145705404672"><ele>152.0</ele><time>2026-04-19T07:08:39Z</time></trkpt><trkpt lat="44.82996398945993" lon="8.076057302356254"><ele>152.0</ele><time>2026-04-19T07:08:40Z</time></trkpt><trkpt lat="44.83011594295506" lon="8.075968661648623"><ele>152.0</ele><time>2026-04-19T07:08:41Z</time></trkpt><trkpt lat="44.830267227967425" lon="8.075875275845316"><ele>152.0</ele><time>2026-04-19T07:08:42Z</time></trkpt><trkpt lat="44.830418962354706" lon="8.07578199991056"><ele>152.33333333333331</ele><time>2026-04-19T07:08:43Z</time></trkpt><trkpt lat="44.83057623673149" lon="8.07569190415258"><ele>152.66666666666666</ele><time>2026-04-19T07:08:44Z</time></trkpt><trkpt lat="44.830735150637175" lon="8.075595198302498"><ele>153.0</ele><time>2026-04-19T07:08:45Z</time></trkpt><trkpt lat="44.830893538899446" lon="8.07550217421268"><ele>153.0</ele><time>2026-04-19T07:08:46Z</time></trkpt><trkpt lat="44.83104781730524" lon="8.07540890057378"><ele>153.0</ele><time>2026-04-19T07:08:47Z</time></trkpt><trkpt lat="44.83118965845914" lon="8.075325022139992"><ele>153.0</ele><time>2026-04-19T07:08:48Z</time></trkpt><trkpt lat="44.83131506203839" lon="8.075248019005013"><ele>153.0</ele><time>2026-04-19T07:08:49Z</time></trkpt><trkpt lat="44.83143075532716" lon="8.075183176516362"><ele>153.0</ele><time>2026-04-19T07:08:50Z</time></trkpt><trkpt lat="44.83153768891424" lon="8.075123842130353"><ele>153.0</ele><time>2026-04-19T07:08:51Z</time></trkpt><trkpt lat="44.83162991871768" lon="8.075073362892034"><ele>153.0</ele><time>2026-04-19T07:08:52Z</time></trkpt><trkpt lat="44.83170611318028" lon="8.075020690794108"><ele>153.0</ele><time>2026-04-19T07:08:53Z</time></trkpt><trkpt lat="44.83178999033879" lon="8.074977693420315"><ele>153.0</ele><time>2026-04-19T07:08:54.999Z</time></trkpt><trkpt lat="44.83175252964053" lon="8.075092006705594"><ele>153.0</ele><time>2026-04-19T07:08:57.999Z</time></trkpt><trkpt lat="44.83166528565886" lon="8.075163821148864"><ele>153.0</ele><time>2026-04-19T07:08:58.999Z</time></trkpt><trkpt lat="44.83162950536839" lon="8.075258484248591"><ele>153.0</ele><time>2026-04-19T07:08:59.999Z</time></trkpt><trkpt lat="44.83161175651616" lon="8.075366596947095"><ele>153.0</ele><time>2026-04-19T07:09:00.999Z</time></trkpt><trkpt lat="44.831621751329656" lon="8.075482565209315"><ele>153.0</ele><time>2026-04-19T07:09:01.999Z</time></trkpt><trkpt lat="44.8316527584465" lon="8.075605326141414"><ele>153.0</ele><time>2026-04-19T07:09:02.999Z</time></trkpt><trkpt lat="44.83170414637487" lon="8.075668095791558"><ele>153.0</ele><time>2026-04-19T07:09:03.999Z</time></trkpt><trkpt lat="44.83181182320296" lon="8.075733383464003"><ele>153.0</ele><time>2026-04-19T07:09:04.999Z</time></trkpt><trkpt lat="44.831927583519565" lon="8.075817638033548"><ele>153.0</ele><time>2026-04-19T07:09:05.999Z</time></trkpt><trkpt lat="44.832069984049106" lon="8.075938076976158"><ele>153.5</ele><time>2026-04-19T07:09:06.999Z</time></trkpt><trkpt lat="44.83220951446692" lon="8.07605411140198"><ele>154.0</ele><time>2026-04-19T07:09:07.999Z</time></trkpt><trkpt lat="44.83232276129164" lon="8.076151941643769"><ele>154.5</ele><time>2026-04-19T07:09:08.999Z</time></trkpt><trkpt lat="44.832428449892426" lon="8.076231641393624"><ele>155.0</ele><time>2026-04-19T07:09:09.999Z</time></trkpt><trkpt lat="44.83252873654032" lon="8.076320419657142"><ele>155.0</ele><time>2026-04-19T07:09:10.999Z</time></trkpt><trkpt lat="44.83262598188928" lon="8.076423068841018"><ele>155.0</ele><time>2026-04-19T07:09:11.999Z</time></trkpt><trkpt lat="44.83270261165676" lon="8.076521352475638"><ele>155.0</ele><time>2026-04-19T07:09:12.999Z</time></trkpt><trkpt lat="44.83277837371044" lon="8.076610408520828"><ele>155.0</ele><time>2026-04-19T07:09:13.999Z</time></trkpt><trkpt lat="44.83287530438262" lon="8.076689621354465"><ele>155.0</ele><time>2026-04-19T07:09:14.999Z</time></trkpt><trkpt lat="44.83299513070999" lon="8.076763277065302"><ele>154.25</ele><time>2026-04-19T07:09:15.999Z</time></trkpt><trkpt lat="44.833121148591864" lon="8.076838856295524"><ele>153.5</ele><time>2026-04-19T07:09:16.999Z</time></trkpt><trkpt lat="44.83323550842752" lon="8.076911473951284"><ele>152.75</ele><time>2026-04-19T07:09:17.999Z</time></trkpt><trkpt lat="44.8333346968898" lon="8.07697520306862"><ele>152.0</ele><time>2026-04-19T07:09:18.999Z</time></trkpt><trkpt lat="44.833433170382754" lon="8.07703268870985"><ele>151.66666666666666</ele><time>2026-04-19T07:09:19.999Z</time></trkpt><trkpt lat="44.83352346126942" lon="8.077067718111335"><ele>151.33333333333331</ele><time>2026-04-19T07:09:20.999Z</time></trkpt><trkpt lat="44.83361392039335" lon="8.077077754502728"><ele>151.0</ele><time>2026-04-19T07:09:21.999Z</time></trkpt><trkpt lat="44.83368862433609" lon="8.077074554996642"><ele>150.66666666666666</ele><time>2026-04-19T07:09:22.999Z</time></trkpt><trkpt lat="44.83377193258188" lon="8.077071177554036"><ele>150.33333333333334</ele><time>2026-04-19T07:09:24.999Z</time></trkpt><trkpt lat="44.83384718776152" lon="8.077061185508333"><ele>150.0</ele><time>2026-04-19T07:09:27.999Z</time></trkpt><trkpt lat="44.83390534656656" lon="8.077022661047625"><ele>150.0</ele><time>2026-04-19T07:09:39Z</time></trkpt><trkpt lat="44.83397808393426" lon="8.077027298987492"><ele>150.0</ele><time>2026-04-19T07:10:27Z</time></trkpt><trkpt lat="44.834052167607595" lon="8.0770648353527"><ele>150.0</ele><time>2026-04-19T07:10:49.999Z</time></trkpt><trkpt lat="44.834109450409805" lon="8.077104542279313"><ele>150.0</ele><time>2026-04-19T07:10:53.999Z</time></trkpt><trkpt lat="44.834188291358174" lon="8.077151529425393"><ele>150.0</ele><time>2026-04-19T07:10:55.999Z</time></trkpt><trkpt lat="44.83428909497204" lon="8.077138882127981"><ele>150.0</ele><time>2026-04-19T07:10:57.999Z</time></trkpt><trkpt lat="44.83435346600478" lon="8.07704359859872"><ele>150.5</ele><time>2026-04-19T07:10:58.999Z</time></trkpt><trkpt lat="44.83443639908313" lon="8.07692577075158"><ele>151.0</ele><time>2026-04-19T07:10:59.999Z</time></trkpt><trkpt lat="44.834517044157344" lon="8.076828924874011"><ele>151.5</ele><time>2026-04-19T07:11:00.999Z</time></trkpt><trkpt lat="44.834611453140575" lon="8.076750525441064"><ele>152.0</ele><time>2026-04-19T07:11:01.999Z</time></trkpt><trkpt lat="44.83473268493723" lon="8.076667333898632"><ele>152.0</ele><time>2026-04-19T07:11:02.999Z</time></trkpt><trkpt lat="44.83484093873021" lon="8.076600551469088"><ele>152.0</ele><time>2026-04-19T07:11:03.999Z</time></trkpt><trkpt lat="44.83492757834179" lon="8.076579137570508"><ele>152.0</ele><time>2026-04-19T07:11:04.999Z</time></trkpt><trkpt lat="44.83501550390656" lon="8.07657097670847"><ele>152.0</ele><time>2026-04-19T07:11:05.999Z</time></trkpt><trkpt lat="44.83508902510629" lon="8.076560447587102"><ele>152.0</ele><time>2026-04-19T07:11:06.999Z</time></trkpt><trkpt lat="44.83520397167094" lon="8.076535416505173"><ele>151.83333333333331</ele><time>2026-04-19T07:11:08.999Z</time></trkpt><trkpt lat="44.835282036598684" lon="8.07652727133293"><ele>151.66666666666666</ele><time>2026-04-19T07:11:10.999Z</time></trkpt><trkpt lat="44.83535985475505" lon="8.076506452533348"><ele>151.5</ele><time>2026-04-19T07:11:13.999Z</time></trkpt><trkpt lat="44.83545205951371" lon="8.076503115671475"><ele>151.33333333333334</ele><time>2026-04-19T07:11:34.999Z</time></trkpt><trkpt lat="44.835520012816886" lon="8.076495761400981"><ele>151.16666666666669</ele><time>2026-04-19T07:11:35.999Z</time></trkpt><trkpt lat="44.83559187604373" lon="8.076504317655775"><ele>151.0</ele><time>2026-04-19T07:11:36.999Z</time></trkpt><trkpt lat="44.835662147821594" lon="8.076528005683517"><ele>151.0</ele><time>2026-04-19T07:11:37.999Z</time></trkpt><trkpt lat="44.835775817674744" lon="8.076507649980973"><ele>151.0</ele><time>2026-04-19T07:11:39.999Z</time></trkpt><trkpt lat="44.8358686458601" lon="8.07646786820106"><ele>151.0</ele><time>2026-04-19T07:11:41Z</time></trkpt><trkpt lat="44.83597953630406" lon="8.076430686470056"><ele>151.0</ele><time>2026-04-19T07:11:42Z</time></trkpt><trkpt lat="44.83608836108124" lon="8.07641664397732"><ele>151.0</ele><time>2026-04-19T07:11:43Z</time></trkpt><trkpt lat="44.83618790293778" lon="8.076444262892235"><ele>150.75</ele><time>2026-04-19T07:11:44Z</time></trkpt><trkpt lat="44.83627537436697" lon="8.07650082787583"><ele>150.5</ele><time>2026-04-19T07:11:45Z</time></trkpt><trkpt lat="44.836391973543385" lon="8.076563987028951"><ele>150.25</ele><time>2026-04-19T07:11:46Z</time></trkpt><trkpt lat="44.83652257154077" lon="8.076613267954928"><ele>150.0</ele><time>2026-04-19T07:11:47Z</time></trkpt><trkpt lat="44.836660244005806" lon="8.07665498039492"><ele>149.75</ele><time>2026-04-19T07:11:48Z</time></trkpt><trkpt lat="44.8367850027796" lon="8.076699938831633"><ele>149.5</ele><time>2026-04-19T07:11:49Z</time></trkpt><trkpt lat="44.83691360993775" lon="8.076758781240425"><ele>149.25</ele><time>2026-04-19T07:11:50Z</time></trkpt><trkpt lat="44.83703300909713" lon="8.076820787694649"><ele>149.0</ele><time>2026-04-19T07:11:51Z</time></trkpt><trkpt lat="44.83715116109308" lon="8.076867673745223"><ele>148.5</ele><time>2026-04-19T07:11:52Z</time></trkpt><trkpt lat="44.83726058700758" lon="8.076902266318259"><ele>148.0</ele><time>2026-04-19T07:11:53Z</time></trkpt><trkpt lat="44.83737184454722" lon="8.076922424269766"><ele>147.5</ele><time>2026-04-19T07:11:54Z</time></trkpt><trkpt lat="44.83748723989772" lon="8.076928824181426"><ele>147.0</ele><time>2026-04-19T07:11:55Z</time></trkpt><trkpt lat="44.83761216951073" lon="8.07693511101418"><ele>147.5</ele><time>2026-04-19T07:11:56Z</time></trkpt><trkpt lat="44.83774208152442" lon="8.076935841034045"><ele>148.0</ele><time>2026-04-19T07:11:57Z</time></trkpt><trkpt lat="44.83786346216669" lon="8.076944457305476"><ele>148.5</ele><time>2026-04-19T07:11:58Z</time></trkpt><trkpt lat="44.837986108840376" lon="8.076971104667125"><ele>149.0</ele><time>2026-04-19T07:11:59Z</time></trkpt><trkpt lat="44.838105991255226" lon="8.077020222574143"><ele>149.0</ele><time>2026-04-19T07:12:00Z</time></trkpt><trkpt lat="44.838227616858475" lon="8.077090307295528"><ele>149.0</ele><time>2026-04-19T07:12:01Z</time></trkpt><trkpt lat="44.838368718279234" lon="8.077177501825961"><ele>149.0</ele><time>2026-04-19T07:12:02Z</time></trkpt><trkpt lat="44.838513588023" lon="8.07726144457354"><ele>149.0</ele><time>2026-04-19T07:12:03Z</time></trkpt><trkpt lat="44.83864475980155" lon="8.077332499685449"><ele>149.0</ele><time>2026-04-19T07:12:04Z</time></trkpt><trkpt lat="44.83877245167989" lon="8.077396443624027"><ele>149.0</ele><time>2026-04-19T07:12:05Z</time></trkpt><trkpt lat="44.838910349944584" lon="8.077451221235942"><ele>149.0</ele><time>2026-04-19T07:12:06Z</time></trkpt><trkpt lat="44.83905786147776" lon="8.077511625140133"><ele>149.0</ele><time>2026-04-19T07:12:07Z</time></trkpt><trkpt lat="44.83919143094827" lon="8.077590197762897"><ele>148.25</ele><time>2026-04-19T07:12:08Z</time></trkpt><trkpt lat="44.839322652870926" lon="8.07767123068757"><ele>147.5</ele><time>2026-04-19T07:12:09Z</time></trkpt><trkpt lat="44.83944736808225" lon="8.07774812691991"><ele>146.75</ele><time>2026-04-19T07:12:10Z</time></trkpt><trkpt lat="44.839561246651975" lon="8.077838533968738"><ele>146.0</ele><time>2026-04-19T07:12:11Z</time></trkpt><trkpt lat="44.83966643335745" lon="8.077939887437813"><ele>146.0</ele><time>2026-04-19T07:12:12Z</time></trkpt><trkpt lat="44.839777948180654" lon="8.078034446633666"><ele>146.0</ele><time>2026-04-19T07:12:13Z</time></trkpt><trkpt lat="44.8398912585058" lon="8.078143663809804"><ele>146.0</ele><time>2026-04-19T07:12:14Z</time></trkpt><trkpt lat="44.839998033257864" lon="8.078247679033748"><ele>146.0</ele><time>2026-04-19T07:12:15Z</time></trkpt><trkpt lat="44.84010815525466" lon="8.078366642438832"><ele>147.0</ele><time>2026-04-19T07:12:16Z</time></trkpt><trkpt lat="44.84022081974955" lon="8.07849546112017"><ele>148.0</ele><time>2026-04-19T07:12:17Z</time></trkpt><trkpt lat="44.8403254269911" lon="8.078599042387811"><ele>149.0</ele><time>2026-04-19T07:12:18Z</time></trkpt><trkpt lat="44.84042738565578" lon="8.078707360408012"><ele>150.0</ele><time>2026-04-19T07:12:19Z</time></trkpt><trkpt lat="44.84052056632017" lon="8.078810743638085"><ele>150.0</ele><time>2026-04-19T07:12:20Z</time></trkpt><trkpt lat="44.84060756063657" lon="8.078892225843614"><ele>150.0</ele><time>2026-04-19T07:12:21Z</time></trkpt><trkpt lat="44.840685880965985" lon="8.07897555655789"><ele>150.0</ele><time>2026-04-19T07:12:22Z</time></trkpt><trkpt lat="44.84074638065255" lon="8.079077101010887"><ele>150.0</ele><time>2026-04-19T07:12:23Z</time></trkpt><trkpt lat="44.84080394879545" lon="8.079186306530469"><ele>150.0</ele><time>2026-04-19T07:12:24Z</time></trkpt><trkpt lat="44.84086133038961" lon="8.079306462961512"><ele>150.2</ele><time>2026-04-19T07:12:25Z</time></trkpt><trkpt lat="44.84093388175756" lon="8.079428355569254"><ele>150.4</ele><time>2026-04-19T07:12:26Z</time></trkpt><trkpt lat="44.84102446983879" lon="8.079536381696327"><ele>150.6</ele><time>2026-04-19T07:12:27Z</time></trkpt><trkpt lat="44.8411062085276" lon="8.079628082708476"><ele>150.8</ele><time>2026-04-19T07:12:28Z</time></trkpt><trkpt lat="44.841175985714436" lon="8.079718711105171"><ele>151.0</ele><time>2026-04-19T07:12:29Z</time></trkpt><trkpt lat="44.841226535872224" lon="8.07978453180577"><ele>151.2</ele><time>2026-04-19T07:12:30Z</time></trkpt><trkpt lat="44.841273418559666" lon="8.079886231476541"><ele>151.39999999999998</ele><time>2026-04-19T07:12:32Z</time></trkpt><trkpt lat="44.84133475996732" lon="8.080055065956136"><ele>151.6</ele><time>2026-04-19T07:12:34Z</time></trkpt><trkpt lat="44.84138025838858" lon="8.08019501981504"><ele>151.79999999999998</ele><time>2026-04-19T07:12:35Z</time></trkpt><trkpt lat="44.841442151811734" lon="8.080338115699751"><ele>152.0</ele><time>2026-04-19T07:12:36Z</time></trkpt><trkpt lat="44.841515388263815" lon="8.080467231517256"><ele>152.0</ele><time>2026-04-19T07:12:37Z</time></trkpt><trkpt lat="44.841588498255646" lon="8.080600126614868"><ele>152.0</ele><time>2026-04-19T07:12:38Z</time></trkpt><trkpt lat="44.841654909469995" lon="8.080726967633913"><ele>152.0</ele><time>2026-04-19T07:12:39Z</time></trkpt><trkpt lat="44.84172310182643" lon="8.080863712172128"><ele>152.0</ele><time>2026-04-19T07:12:40Z</time></trkpt><trkpt lat="44.841786782082444" lon="8.0809859501409"><ele>152.0</ele><time>2026-04-19T07:12:41Z</time></trkpt><trkpt lat="44.841842814611795" lon="8.0810721454996"><ele>152.0</ele><time>2026-04-19T07:12:42Z</time></trkpt><trkpt lat="44.84190264814206" lon="8.081194130194818"><ele>152.0</ele><time>2026-04-19T07:12:44Z</time></trkpt><trkpt lat="44.84190615137647" lon="8.081312464618575"><ele>152.0</ele><time>2026-04-19T07:12:46Z</time></trkpt><trkpt lat="44.84183284297236" lon="8.08145294843426"><ele>152.0</ele><time>2026-04-19T07:12:49Z</time></trkpt><trkpt lat="44.84174599141152" lon="8.081531526592276"><ele>152.2</ele><time>2026-04-19T07:12:50Z</time></trkpt><trkpt lat="44.84166180474448" lon="8.081652181800953"><ele>152.39999999999998</ele><time>2026-04-19T07:12:50.999Z</time></trkpt><trkpt lat="44.84161288468361" lon="8.081805540926984"><ele>152.60000000000002</ele><time>2026-04-19T07:12:51.999Z</time></trkpt><trkpt lat="44.841611083394206" lon="8.081942730708233"><ele>152.8</ele><time>2026-04-19T07:12:52.999Z</time></trkpt><trkpt lat="44.841634869401254" lon="8.082028764508209"><ele>153.0</ele><time>2026-04-19T07:12:53.999Z</time></trkpt><trkpt lat="44.84169617729178" lon="8.081965067774131"><ele>153.0</ele><time>2026-04-19T07:12:56.999Z</time></trkpt><trkpt lat="44.84172868364621" lon="8.081845506664813"><ele>153.0</ele><time>2026-04-19T07:12:57.999Z</time></trkpt><trkpt lat="44.84177473970518" lon="8.08171523600866"><ele>153.0</ele><time>2026-04-19T07:12:58.999Z</time></trkpt><trkpt lat="44.84184124680381" lon="8.08158873534008"><ele>153.0</ele><time>2026-04-19T07:12:59.999Z</time></trkpt><trkpt lat="44.841933768985086" lon="8.081471044928309"><ele>153.0</ele><time>2026-04-19T07:13:00.999Z</time></trkpt><trkpt lat="44.84205096183307" lon="8.081377762056258"><ele>151.75</ele><time>2026-04-19T07:13:01.999Z</time></trkpt><trkpt lat="44.84216861056507" lon="8.08127565153037"><ele>150.5</ele><time>2026-04-19T07:13:02.999Z</time></trkpt><trkpt lat="44.84229569991626" lon="8.081162527560865"><ele>149.25</ele><time>2026-04-19T07:13:03.999Z</time></trkpt><trkpt lat="44.842423383249134" lon="8.0810552030765"><ele>148.0</ele><time>2026-04-19T07:13:04.999Z</time></trkpt><trkpt lat="44.84254764850988" lon="8.080952299741089"><ele>147.66666666666669</ele><time>2026-04-19T07:13:05.999Z</time></trkpt><trkpt lat="44.84266638715422" lon="8.080830938880469"><ele>147.33333333333334</ele><time>2026-04-19T07:13:06.999Z</time></trkpt><trkpt lat="44.84278478158075" lon="8.080670568404372"><ele>147.0</ele><time>2026-04-19T07:13:07.999Z</time></trkpt><trkpt lat="44.84286850078675" lon="8.080489887376984"><ele>147.0</ele><time>2026-04-19T07:13:08.999Z</time></trkpt><trkpt lat="44.842939509029996" lon="8.080288814181786"><ele>147.0</ele><time>2026-04-19T07:13:09.999Z</time></trkpt><trkpt lat="44.843006500424025" lon="8.080082916605969"><ele>147.0</ele><time>2026-04-19T07:13:10.999Z</time></trkpt><trkpt lat="44.84307481494159" lon="8.079887493650745"><ele>148.33333333333334</ele><time>2026-04-19T07:13:11.999Z</time></trkpt><trkpt lat="44.843144383448724" lon="8.079686701598503"><ele>149.66666666666669</ele><time>2026-04-19T07:13:12.999Z</time></trkpt><trkpt lat="44.843212054019354" lon="8.079483027912984"><ele>151.0</ele><time>2026-04-19T07:13:13.999Z</time></trkpt><trkpt lat="44.84327599142682" lon="8.079282754664563"><ele>151.66666666666669</ele><time>2026-04-19T07:13:14.999Z</time></trkpt><trkpt lat="44.84334256960148" lon="8.079086854319335"><ele>152.33333333333334</ele><time>2026-04-19T07:13:15.999Z</time></trkpt><trkpt lat="44.84341278893804" lon="8.078879100587562"><ele>153.0</ele><time>2026-04-19T07:13:16.999Z</time></trkpt><trkpt lat="44.84347468494862" lon="8.078684029189835"><ele>152.75</ele><time>2026-04-19T07:13:17.999Z</time></trkpt><trkpt lat="44.84353273366935" lon="8.078506246145835"><ele>152.5</ele><time>2026-04-19T07:13:18.999Z</time></trkpt><trkpt lat="44.84358665485353" lon="8.078340535376682"><ele>152.25</ele><time>2026-04-19T07:13:19.999Z</time></trkpt><trkpt lat="44.843632593067575" lon="8.078183651318582"><ele>152.0</ele><time>2026-04-19T07:13:20.999Z</time></trkpt><trkpt lat="44.843654256606044" lon="8.078040834335717"><ele>152.0</ele><time>2026-04-19T07:13:21.999Z</time></trkpt><trkpt lat="44.843646808166135" lon="8.077904039393763"><ele>152.0</ele><time>2026-04-19T07:13:22.999Z</time></trkpt><trkpt lat="44.8436001372217" lon="8.077773531281293"><ele>152.0</ele><time>2026-04-19T07:13:23.999Z</time></trkpt><trkpt lat="44.84355859739068" lon="8.077646315621863"><ele>152.0</ele><time>2026-04-19T07:13:24.999Z</time></trkpt><trkpt lat="44.84355189468097" lon="8.077534031485364"><ele>152.0</ele><time>2026-04-19T07:13:25.999Z</time></trkpt><trkpt lat="44.843585197398276" lon="8.077450923390733"><ele>152.0</ele><time>2026-04-19T07:13:26.999Z</time></trkpt><trkpt lat="44.84364779254329" lon="8.077397011438824"><ele>152.0</ele><time>2026-04-19T07:13:27.999Z</time></trkpt><trkpt lat="44.84372483020554" lon="8.077380849448685"><ele>152.0</ele><time>2026-04-19T07:13:28.999Z</time></trkpt><trkpt lat="44.84381321381571" lon="8.077401441104788"><ele>152.0</ele><time>2026-04-19T07:13:29.999Z</time></trkpt><trkpt lat="44.84390417086175" lon="8.077436768092875"><ele>152.0</ele><time>2026-04-19T07:13:30.999Z</time></trkpt><trkpt lat="44.844008813667905" lon="8.077515074278887"><ele>152.0</ele><time>2026-04-19T07:13:31.999Z</time></trkpt><trkpt lat="44.844121160228454" lon="8.07763859571563"><ele>152.0</ele><time>2026-04-19T07:13:32.999Z</time></trkpt><trkpt lat="44.84424505051092" lon="8.077789610183551"><ele>152.0</ele><time>2026-04-19T07:13:33.999Z</time></trkpt><trkpt lat="44.844357384493804" lon="8.077929324900197"><ele>152.0</ele><time>2026-04-19T07:13:34.999Z</time></trkpt><trkpt lat="44.84446716859946" lon="8.078059851304582"><ele>151.33333333333331</ele><time>2026-04-19T07:13:35.999Z</time></trkpt><trkpt lat="44.84458629558911" lon="8.078200184695822"><ele>150.66666666666666</ele><time>2026-04-19T07:13:36.999Z</time></trkpt><trkpt lat="44.844710775922955" lon="8.07833815608036"><ele>150.0</ele><time>2026-04-19T07:13:37.999Z</time></trkpt><trkpt lat="44.84484366427389" lon="8.078486679412459"><ele>150.0</ele><time>2026-04-19T07:13:38.999Z</time></trkpt><trkpt lat="44.84499765167081" lon="8.07866129151662"><ele>150.0</ele><time>2026-04-19T07:13:39.999Z</time></trkpt><trkpt lat="44.84516688180089" lon="8.078842516450225"><ele>150.0</ele><time>2026-04-19T07:13:40.999Z</time></trkpt><trkpt lat="44.84533446233445" lon="8.079032924972593"><ele>150.5</ele><time>2026-04-19T07:13:41.999Z</time></trkpt><trkpt lat="44.84550946914513" lon="8.079249464742635"><ele>151.0</ele><time>2026-04-19T07:13:42.999Z</time></trkpt><trkpt lat="44.845679288131336" lon="8.079468715082156"><ele>151.0</ele><time>2026-04-19T07:13:43.999Z</time></trkpt><trkpt lat="44.845849614487264" lon="8.079678767652611"><ele>151.0</ele><time>2026-04-19T07:13:44.999Z</time></trkpt><trkpt lat="44.84601300497256" lon="8.079871212651135"><ele>151.0</ele><time>2026-04-19T07:13:45.999Z</time></trkpt><trkpt lat="44.846173819087014" lon="8.080057900059694"><ele>151.0</ele><time>2026-04-19T07:13:47Z</time></trkpt><trkpt lat="44.846331878948675" lon="8.080240715836265"><ele>151.0</ele><time>2026-04-19T07:13:48Z</time></trkpt><trkpt lat="44.8464881700827" lon="8.08042583527518"><ele>151.0</ele><time>2026-04-19T07:13:49Z</time></trkpt><trkpt lat="44.84664319909255" lon="8.080610144915115"><ele>150.33333333333334</ele><time>2026-04-19T07:13:50Z</time></trkpt><trkpt lat="44.846792562791215" lon="8.080792770035032"><ele>149.66666666666666</ele><time>2026-04-19T07:13:51Z</time></trkpt><trkpt lat="44.84694139391984" lon="8.080981438139661"><ele>149.0</ele><time>2026-04-19T07:13:52Z</time></trkpt><trkpt lat="44.847090046353074" lon="8.081177895138577"><ele>149.0</ele><time>2026-04-19T07:13:53Z</time></trkpt><trkpt lat="44.84722737871061" lon="8.081369588527183"><ele>149.0</ele><time>2026-04-19T07:13:54Z</time></trkpt><trkpt lat="44.84736679657845" lon="8.081571513805777"><ele>149.0</ele><time>2026-04-19T07:13:55Z</time></trkpt><trkpt lat="44.84750495518965" lon="8.08177719644701"><ele>150.0</ele><time>2026-04-19T07:13:56Z</time></trkpt><trkpt lat="44.847640865996944" lon="8.082003117941085"><ele>151.0</ele><time>2026-04-19T07:13:57Z</time></trkpt><trkpt lat="44.84777601811464" lon="8.082234934734066"><ele>152.0</ele><time>2026-04-19T07:13:58Z</time></trkpt><trkpt lat="44.84790688198741" lon="8.08247011619234"><ele>152.0</ele><time>2026-04-19T07:13:59Z</time></trkpt><trkpt lat="44.848034098046064" lon="8.082712302431942"><ele>152.0</ele><time>2026-04-19T07:14:00Z</time></trkpt><trkpt lat="44.84814866746796" lon="8.082944176553102"><ele>152.0</ele><time>2026-04-19T07:14:01Z</time></trkpt><trkpt lat="44.848253634653624" lon="8.083175763815733"><ele>151.66666666666666</ele><time>2026-04-19T07:14:02Z</time></trkpt><trkpt lat="44.848358121552025" lon="8.083415255184565"><ele>151.33333333333334</ele><time>2026-04-19T07:14:03Z</time></trkpt><trkpt lat="44.84845949513541" lon="8.083664006459959"><ele>151.0</ele><time>2026-04-19T07:14:04Z</time></trkpt><trkpt lat="44.848554944864574" lon="8.08391633385334"><ele>151.66666666666669</ele><time>2026-04-19T07:14:05Z</time></trkpt><trkpt lat="44.84865109853116" lon="8.084175265795924"><ele>152.33333333333334</ele><time>2026-04-19T07:14:06Z</time></trkpt><trkpt lat="44.848746439055546" lon="8.084436976227972"><ele>153.0</ele><time>2026-04-19T07:14:07Z</time></trkpt><trkpt lat="44.848843178030044" lon="8.084692061880588"><ele>152.33333333333334</ele><time>2026-04-19T07:14:08Z</time></trkpt><trkpt lat="44.8489394496576" lon="8.084950400768374"><ele>151.66666666666669</ele><time>2026-04-19T07:14:09Z</time></trkpt><trkpt lat="44.84903578100891" lon="8.085211949081316"><ele>151.0</ele><time>2026-04-19T07:14:10Z</time></trkpt><trkpt lat="44.84913182982942" lon="8.085471414057851"><ele>151.0</ele><time>2026-04-19T07:14:11Z</time></trkpt><trkpt lat="44.84922283733402" lon="8.0857159559241"><ele>151.0</ele><time>2026-04-19T07:14:12Z</time></trkpt><trkpt lat="44.849309418789126" lon="8.08594768873418"><ele>151.0</ele><time>2026-04-19T07:14:13Z</time></trkpt><trkpt lat="44.84939495900679" lon="8.086175502157287"><ele>152.66666666666669</ele><time>2026-04-19T07:14:14Z</time></trkpt><trkpt lat="44.84948230971422" lon="8.086403413427696"><ele>154.33333333333334</ele><time>2026-04-19T07:14:15Z</time></trkpt><trkpt lat="44.84956871200252" lon="8.086631035501986"><ele>156.0</ele><time>2026-04-19T07:14:16Z</time></trkpt><trkpt lat="44.84965755398532" lon="8.086858516777097"><ele>156.0</ele><time>2026-04-19T07:14:17Z</time></trkpt><trkpt lat="44.849746427370064" lon="8.087093546492218"><ele>156.0</ele><time>2026-04-19T07:14:18Z</time></trkpt><trkpt lat="44.84983727700967" lon="8.0873292384065"><ele>156.0</ele><time>2026-04-19T07:14:19Z</time></trkpt><trkpt lat="44.84992471725473" lon="8.087561314483285"><ele>157.33333333333334</ele><time>2026-04-19T07:14:20Z</time></trkpt><trkpt lat="44.85001297309006" lon="8.087787130006971"><ele>158.66666666666669</ele><time>2026-04-19T07:14:21Z</time></trkpt><trkpt lat="44.85009882751836" lon="8.08800407475368"><ele>160.0</ele><time>2026-04-19T07:14:22Z</time></trkpt><trkpt lat="44.85017847288681" lon="8.088214228781062"><ele>157.66666666666669</ele><time>2026-04-19T07:14:23Z</time></trkpt><trkpt lat="44.850255376474315" lon="8.088419318696932"><ele>155.33333333333334</ele><time>2026-04-19T07:14:24Z</time></trkpt><trkpt lat="44.85033281182126" lon="8.088620759443137"><ele>153.0</ele><time>2026-04-19T07:14:25Z</time></trkpt><trkpt lat="44.850409516699905" lon="8.088828768423319"><ele>153.0</ele><time>2026-04-19T07:14:26Z</time></trkpt><trkpt lat="44.850484582626535" lon="8.089037937649097"><ele>153.0</ele><time>2026-04-19T07:14:27Z</time></trkpt><trkpt lat="44.85055545166829" lon="8.089221495666603"><ele>153.0</ele><time>2026-04-19T07:14:28Z</time></trkpt><trkpt lat="44.850618194255034" lon="8.089396162827192"><ele>151.75</ele><time>2026-04-19T07:14:29Z</time></trkpt><trkpt lat="44.85068281956077" lon="8.08955520547885"><ele>150.5</ele><time>2026-04-19T07:14:30Z</time></trkpt><trkpt lat="44.85074389437454" lon="8.089706223740837"><ele>149.25</ele><time>2026-04-19T07:14:31Z</time></trkpt><trkpt lat="44.850801879323605" lon="8.08984448073779"><ele>148.0</ele><time>2026-04-19T07:14:32Z</time></trkpt><trkpt lat="44.85085358403271" lon="8.089979460162482"><ele>147.8</ele><time>2026-04-19T07:14:33Z</time></trkpt><trkpt lat="44.85090330503502" lon="8.090096478693784"><ele>147.60000000000002</ele><time>2026-04-19T07:14:34Z</time></trkpt><trkpt lat="44.8509455426922" lon="8.090199236375572"><ele>147.39999999999998</ele><time>2026-04-19T07:14:35Z</time></trkpt><trkpt lat="44.85101227556478" lon="8.090286029351923"><ele>147.2</ele><time>2026-04-19T07:14:37Z</time></trkpt><trkpt lat="44.85109961535348" lon="8.090201197116421"><ele>147.0</ele><time>2026-04-19T07:14:39Z</time></trkpt><trkpt lat="44.851162429387735" lon="8.09009437515766"><ele>147.75</ele><time>2026-04-19T07:14:40Z</time></trkpt><trkpt lat="44.851227954575265" lon="8.089974459658846"><ele>148.5</ele><time>2026-04-19T07:14:41Z</time></trkpt><trkpt lat="44.85130117892592" lon="8.08982765543114"><ele>149.25</ele><time>2026-04-19T07:14:42Z</time></trkpt><trkpt lat="44.85135992375502" lon="8.089697007436712"><ele>150.0</ele><time>2026-04-19T07:14:43Z</time></trkpt><trkpt lat="44.851410304756904" lon="8.08956085131672"><ele>150.4</ele><time>2026-04-19T07:14:44Z</time></trkpt><trkpt lat="44.851447476451845" lon="8.089431615227063"><ele>150.8</ele><time>2026-04-19T07:14:45Z</time></trkpt><trkpt lat="44.85146171397931" lon="8.089308881305241"><ele>151.2</ele><time>2026-04-19T07:14:46Z</time></trkpt><trkpt lat="44.85146328903223" lon="8.089171589613633"><ele>151.6</ele><time>2026-04-19T07:14:47Z</time></trkpt><trkpt lat="44.85146817682666" lon="8.08902387626299"><ele>152.0</ele><time>2026-04-19T07:14:48Z</time></trkpt><trkpt lat="44.851472729849895" lon="8.088877513082762"><ele>152.6</ele><time>2026-04-19T07:14:49Z</time></trkpt><trkpt lat="44.851469667646334" lon="8.08871196398157"><ele>153.2</ele><time>2026-04-19T07:14:50Z</time></trkpt><trkpt lat="44.851462820556435" lon="8.0885404174222"><ele>153.8</ele><time>2026-04-19T07:14:51Z</time></trkpt><trkpt lat="44.85144941514082" lon="8.088386257199328"><ele>154.4</ele><time>2026-04-19T07:14:52Z</time></trkpt><trkpt lat="44.85144104504395" lon="8.088245804766823"><ele>155.0</ele><time>2026-04-19T07:14:53Z</time></trkpt><trkpt lat="44.85143103816434" lon="8.088112341225957"><ele>155.75</ele><time>2026-04-19T07:14:53.999Z</time></trkpt><trkpt lat="44.85141878981167" lon="8.087967188653602"><ele>156.5</ele><time>2026-04-19T07:14:54.999Z</time></trkpt><trkpt lat="44.85140809999229" lon="8.087802022384574"><ele>157.25</ele><time>2026-04-19T07:14:55.999Z</time></trkpt><trkpt lat="44.85139366975877" lon="8.087628930236317"><ele>158.0</ele><time>2026-04-19T07:14:56.999Z</time></trkpt><trkpt lat="44.85137527505517" lon="8.087447303849853"><ele>158.25</ele><time>2026-04-19T07:14:57.999Z</time></trkpt><trkpt lat="44.85135297522658" lon="8.087286624129286"><ele>158.5</ele><time>2026-04-19T07:14:58.999Z</time></trkpt><trkpt lat="44.85131916111292" lon="8.087134087747483"><ele>158.75</ele><time>2026-04-19T07:14:59.999Z</time></trkpt><trkpt lat="44.85127852860642" lon="8.086978793583462"><ele>159.0</ele><time>2026-04-19T07:15:00.999Z</time></trkpt><trkpt lat="44.851226817393965" lon="8.08682908135457"><ele>159.0</ele><time>2026-04-19T07:15:01.999Z</time></trkpt><trkpt lat="44.851175133482904" lon="8.086686396956361"><ele>159.0</ele><time>2026-04-19T07:15:02.999Z</time></trkpt><trkpt lat="44.85112852928084" lon="8.08654561071862"><ele>159.0</ele><time>2026-04-19T07:15:03.999Z</time></trkpt><trkpt lat="44.851086356964" lon="8.086406889832885"><ele>159.0</ele><time>2026-04-19T07:15:04.999Z</time></trkpt><trkpt lat="44.85105308090318" lon="8.086280106466875"><ele>159.0</ele><time>2026-04-19T07:15:05.999Z</time></trkpt><trkpt lat="44.851015576518" lon="8.086157658158939"><ele>158.6</ele><time>2026-04-19T07:15:06.999Z</time></trkpt><trkpt lat="44.85096244886988" lon="8.086037366379497"><ele>158.2</ele><time>2026-04-19T07:15:07.999Z</time></trkpt><trkpt lat="44.85090612694198" lon="8.085909598549929"><ele>157.79999999999998</ele><time>2026-04-19T07:15:08.999Z</time></trkpt><trkpt lat="44.850847279466784" lon="8.085784391561079"><ele>157.4</ele><time>2026-04-19T07:15:09.999Z</time></trkpt><trkpt lat="44.850788731584665" lon="8.085661166665261"><ele>157.0</ele><time>2026-04-19T07:15:10.999Z</time></trkpt><trkpt lat="44.85072593064582" lon="8.0855380067056"><ele>158.75</ele><time>2026-04-19T07:15:11.999Z</time></trkpt><trkpt lat="44.85065873162813" lon="8.08541057143667"><ele>160.5</ele><time>2026-04-19T07:15:12.999Z</time></trkpt><trkpt lat="44.850594623215315" lon="8.085271436873922"><ele>162.25</ele><time>2026-04-19T07:15:13.999Z</time></trkpt><trkpt lat="44.85053984210866" lon="8.085125407763627"><ele>164.0</ele><time>2026-04-19T07:15:14.999Z</time></trkpt><trkpt lat="44.850491919156745" lon="8.084978039396148"><ele>163.75</ele><time>2026-04-19T07:15:15.999Z</time></trkpt><trkpt lat="44.85043222317861" lon="8.08482903980266"><ele>163.5</ele><time>2026-04-19T07:15:16.999Z</time></trkpt><trkpt lat="44.85035943161117" lon="8.084683570378512"><ele>163.25</ele><time>2026-04-19T07:15:17.999Z</time></trkpt><trkpt lat="44.85028440350428" lon="8.08455695860972"><ele>163.0</ele><time>2026-04-19T07:15:18.999Z</time></trkpt><trkpt lat="44.85021984793372" lon="8.084428720687216"><ele>163.0</ele><time>2026-04-19T07:15:19.999Z</time></trkpt><trkpt lat="44.850160185897145" lon="8.084285751177354"><ele>163.0</ele><time>2026-04-19T07:15:20.999Z</time></trkpt><trkpt lat="44.85009672344119" lon="8.084137776189229"><ele>163.0</ele><time>2026-04-19T07:15:21.999Z</time></trkpt><trkpt lat="44.850036506781215" lon="8.083985923477634"><ele>163.0</ele><time>2026-04-19T07:15:22.999Z</time></trkpt><trkpt lat="44.84997720919806" lon="8.0838268483042"><ele>163.5</ele><time>2026-04-19T07:15:23.999Z</time></trkpt><trkpt lat="44.84991878527565" lon="8.083651864266328"><ele>164.0</ele><time>2026-04-19T07:15:24.999Z</time></trkpt><trkpt lat="44.849864940119126" lon="8.08345361849935"><ele>164.5</ele><time>2026-04-19T07:15:25.999Z</time></trkpt><trkpt lat="44.84983891851297" lon="8.0832815429376"><ele>165.0</ele><time>2026-04-19T07:15:26.999Z</time></trkpt><trkpt lat="44.849837372979906" lon="8.083102291806814"><ele>165.75</ele><time>2026-04-19T07:15:27.999Z</time></trkpt><trkpt lat="44.849834264513646" lon="8.082902949628192"><ele>166.5</ele><time>2026-04-19T07:15:28.999Z</time></trkpt><trkpt lat="44.84982577106067" lon="8.082705730573254"><ele>167.25</ele><time>2026-04-19T07:15:29.999Z</time></trkpt><trkpt lat="44.84981643745341" lon="8.08251112377959"><ele>168.0</ele><time>2026-04-19T07:15:30.999Z</time></trkpt><trkpt lat="44.84980593232143" lon="8.082310449313196"><ele>168.25</ele><time>2026-04-19T07:15:31.999Z</time></trkpt><trkpt lat="44.849788571647075" lon="8.082109540017955"><ele>168.5</ele><time>2026-04-19T07:15:32.999Z</time></trkpt><trkpt lat="44.84976666783471" lon="8.081916781610573"><ele>168.75</ele><time>2026-04-19T07:15:33.999Z</time></trkpt><trkpt lat="44.849745270648405" lon="8.081735401480675"><ele>169.0</ele><time>2026-04-19T07:15:34.999Z</time></trkpt><trkpt lat="44.84972475344174" lon="8.08157581000767"><ele>169.2</ele><time>2026-04-19T07:15:35.999Z</time></trkpt><trkpt lat="44.849686926502386" lon="8.08143646799172"><ele>169.39999999999998</ele><time>2026-04-19T07:15:36.999Z</time></trkpt><trkpt lat="44.84961846272865" lon="8.081320201191579"><ele>169.6</ele><time>2026-04-19T07:15:37.999Z</time></trkpt><trkpt lat="44.84954482361419" lon="8.081195157193669"><ele>169.8</ele><time>2026-04-19T07:15:38.999Z</time></trkpt><trkpt lat="44.849470525623694" lon="8.081070360996172"><ele>170.0</ele><time>2026-04-19T07:15:39.999Z</time></trkpt><trkpt lat="44.84939503710829" lon="8.08092610770119"><ele>170.0</ele><time>2026-04-19T07:15:40.999Z</time></trkpt><trkpt lat="44.84931938421314" lon="8.080779741218413"><ele>170.0</ele><time>2026-04-19T07:15:41.999Z</time></trkpt><trkpt lat="44.84924775439337" lon="8.08064050604044"><ele>170.0</ele><time>2026-04-19T07:15:42.999Z</time></trkpt><trkpt lat="44.84918270806642" lon="8.080505461236003"><ele>170.0</ele><time>2026-04-19T07:15:43.999Z</time></trkpt><trkpt lat="44.84911914843469" lon="8.080372832882556"><ele>170.5</ele><time>2026-04-19T07:15:44.999Z</time></trkpt><trkpt lat="44.84903964007448" lon="8.080228234875273"><ele>171.0</ele><time>2026-04-19T07:15:45.999Z</time></trkpt><trkpt lat="44.84896688990365" lon="8.080089507767662"><ele>171.5</ele><time>2026-04-19T07:15:46.999Z</time></trkpt><trkpt lat="44.84890617869462" lon="8.079919140639845"><ele>172.0</ele><time>2026-04-19T07:15:47.999Z</time></trkpt><trkpt lat="44.84884213500311" lon="8.079760514706098"><ele>172.0</ele><time>2026-04-19T07:15:48.999Z</time></trkpt><trkpt lat="44.84876871551498" lon="8.079610500083806"><ele>172.0</ele><time>2026-04-19T07:15:49.999Z</time></trkpt><trkpt lat="44.84869835939882" lon="8.079471642924902"><ele>172.0</ele><time>2026-04-19T07:15:50.999Z</time></trkpt><trkpt lat="44.84861827764083" lon="8.079336794510233"><ele>172.0</ele><time>2026-04-19T07:15:51.999Z</time></trkpt><trkpt lat="44.84852729622266" lon="8.079200520953789"><ele>171.6</ele><time>2026-04-19T07:15:53Z</time></trkpt><trkpt lat="44.848448187307426" lon="8.079073033501796"><ele>171.2</ele><time>2026-04-19T07:15:54Z</time></trkpt><trkpt lat="44.84838742529154" lon="8.07895845773592"><ele>170.8</ele><time>2026-04-19T07:15:55Z</time></trkpt><trkpt lat="44.84835169414129" lon="8.07883757916894"><ele>170.4</ele><time>2026-04-19T07:15:56Z</time></trkpt><trkpt lat="44.84834078588901" lon="8.078712104406199"><ele>170.0</ele><time>2026-04-19T07:15:57Z</time></trkpt><trkpt lat="44.84835260182746" lon="8.078571389854716"><ele>170.0</ele><time>2026-04-19T07:15:58Z</time></trkpt><trkpt lat="44.84840773479917" lon="8.078421511000679"><ele>170.0</ele><time>2026-04-19T07:15:59Z</time></trkpt><trkpt lat="44.84847966339795" lon="8.07826410525683"><ele>170.0</ele><time>2026-04-19T07:16:00Z</time></trkpt><trkpt lat="44.84856251465353" lon="8.078090559682014"><ele>170.0</ele><time>2026-04-19T07:16:01Z</time></trkpt><trkpt lat="44.84864950120816" lon="8.07791630730167"><ele>170.66666666666666</ele><time>2026-04-19T07:16:02Z</time></trkpt><trkpt lat="44.84872360607825" lon="8.077720273793872"><ele>171.33333333333334</ele><time>2026-04-19T07:16:03Z</time></trkpt><trkpt lat="44.84879546929334" lon="8.07750158570407"><ele>172.0</ele><time>2026-04-19T07:16:04Z</time></trkpt><trkpt lat="44.84885997217939" lon="8.077311245080315"><ele>172.75</ele><time>2026-04-19T07:16:05Z</time></trkpt><trkpt lat="44.84891923257627" lon="8.077146505611482"><ele>173.5</ele><time>2026-04-19T07:16:06Z</time></trkpt><trkpt lat="44.84896504424959" lon="8.076981540331737"><ele>174.25</ele><time>2026-04-19T07:16:07Z</time></trkpt><trkpt lat="44.84899124944667" lon="8.076812620730193"><ele>175.0</ele><time>2026-04-19T07:16:08Z</time></trkpt><trkpt lat="44.84899646316728" lon="8.07665067764248"><ele>175.75</ele><time>2026-04-19T07:16:09Z</time></trkpt><trkpt lat="44.84897994019629" lon="8.076480240324901"><ele>176.5</ele><time>2026-04-19T07:16:10Z</time></trkpt><trkpt lat="44.84895081748171" lon="8.076301150267039"><ele>177.25</ele><time>2026-04-19T07:16:11Z</time></trkpt><trkpt lat="44.848912379830956" lon="8.076105315644678"><ele>178.0</ele><time>2026-04-19T07:16:12Z</time></trkpt><trkpt lat="44.848877661598515" lon="8.075899286105539"><ele>178.0</ele><time>2026-04-19T07:16:13Z</time></trkpt><trkpt lat="44.84884486751476" lon="8.075695402501271"><ele>178.0</ele><time>2026-04-19T07:16:14Z</time></trkpt><trkpt lat="44.84881591526819" lon="8.075508787842507"><ele>178.0</ele><time>2026-04-19T07:16:15Z</time></trkpt><trkpt lat="44.848788783931916" lon="8.075340917609381"><ele>178.0</ele><time>2026-04-19T07:16:16Z</time></trkpt><trkpt lat="44.848765825158665" lon="8.075170354931279"><ele>178.0</ele><time>2026-04-19T07:16:17Z</time></trkpt><trkpt lat="44.84875405750714" lon="8.07499378002297"><ele>178.0</ele><time>2026-04-19T07:16:18Z</time></trkpt><trkpt lat="44.848756109114795" lon="8.074810569051953"><ele>178.0</ele><time>2026-04-19T07:16:19Z</time></trkpt><trkpt lat="44.84877197116691" lon="8.074619454600823"><ele>178.0</ele><time>2026-04-19T07:16:20Z</time></trkpt><trkpt lat="44.848801120895956" lon="8.074414852137075"><ele>177.5</ele><time>2026-04-19T07:16:21Z</time></trkpt><trkpt lat="44.848829135532114" lon="8.074213164966222"><ele>177.0</ele><time>2026-04-19T07:16:22Z</time></trkpt><trkpt lat="44.8488548438451" lon="8.074042215318533"><ele>176.5</ele><time>2026-04-19T07:16:23Z</time></trkpt><trkpt lat="44.848899621479546" lon="8.073905514944666"><ele>176.0</ele><time>2026-04-19T07:16:24Z</time></trkpt><trkpt lat="44.84897030641696" lon="8.073761950330276"><ele>176.0</ele><time>2026-04-19T07:16:25Z</time></trkpt><trkpt lat="44.849060233244096" lon="8.073602318867284"><ele>176.0</ele><time>2026-04-19T07:16:26Z</time></trkpt><trkpt lat="44.84915121459688" lon="8.07342471814155"><ele>176.0</ele><time>2026-04-19T07:16:27Z</time></trkpt><trkpt lat="44.84923668033219" lon="8.07325802408739"><ele>176.0</ele><time>2026-04-19T07:16:28Z</time></trkpt><trkpt lat="44.84930428839339" lon="8.07313496424253"><ele>175.83333333333331</ele><time>2026-04-19T07:16:29Z</time></trkpt><trkpt lat="44.84935024261248" lon="8.073030978502736"><ele>175.66666666666666</ele><time>2026-04-19T07:16:30Z</time></trkpt><trkpt lat="44.84937685662673" lon="8.072940397645196"><ele>175.5</ele><time>2026-04-19T07:16:31Z</time></trkpt><trkpt lat="44.84940623593246" lon="8.072812437597447"><ele>175.33333333333334</ele><time>2026-04-19T07:16:33Z</time></trkpt><trkpt lat="44.84940214843385" lon="8.072710108930016"><ele>175.16666666666669</ele><time>2026-04-19T07:16:36Z</time></trkpt><trkpt lat="44.84950049628777" lon="8.07269014164419"><ele>175.0</ele><time>2026-04-19T07:16:39Z</time></trkpt><trkpt lat="44.849558557730646" lon="8.07272561906441"><ele>175.0</ele><time>2026-04-19T07:16:40Z</time></trkpt><trkpt lat="44.84962217996551" lon="8.072759145478443"><ele>175.0</ele><time>2026-04-19T07:16:41Z</time></trkpt><trkpt lat="44.8496872264997" lon="8.072791701533825"><ele>175.0</ele><time>2026-04-19T07:16:42Z</time></trkpt><trkpt lat="44.84980750303898" lon="8.072859556471368"><ele>175.0</ele><time>2026-04-19T07:16:44Z</time></trkpt><trkpt lat="44.849875201913875" lon="8.072891654646321"><ele>175.0</ele><time>2026-04-19T07:16:45Z</time></trkpt><trkpt lat="44.84994279867819" lon="8.072924474222631"><ele>175.0</ele><time>2026-04-19T07:16:46Z</time></trkpt><trkpt lat="44.850016646986866" lon="8.072960367789682"><ele>175.0</ele><time>2026-04-19T07:16:47Z</time></trkpt><trkpt lat="44.85009482879186" lon="8.073005572577616"><ele>175.0</ele><time>2026-04-19T07:16:48Z</time></trkpt><trkpt lat="44.85017660280873" lon="8.073052161543773"><ele>175.0</ele><time>2026-04-19T07:16:49Z</time></trkpt><trkpt lat="44.850257879191126" lon="8.073097957933884"><ele>175.0</ele><time>2026-04-19T07:16:50Z</time></trkpt><trkpt lat="44.850344434741125" lon="8.073149439856646"><ele>175.0</ele><time>2026-04-19T07:16:51Z</time></trkpt><trkpt lat="44.85042590913668" lon="8.0732045715166"><ele>175.0</ele><time>2026-04-19T07:16:51.999Z</time></trkpt><trkpt lat="44.85051001249982" lon="8.073253654837355"><ele>175.5</ele><time>2026-04-19T07:16:52.999Z</time></trkpt><trkpt lat="44.850608406774654" lon="8.073305602349535"><ele>176.0</ele><time>2026-04-19T07:16:53.999Z</time></trkpt><trkpt lat="44.85070948294102" lon="8.073360978914474"><ele>176.5</ele><time>2026-04-19T07:16:54.999Z</time></trkpt><trkpt lat="44.85082006730346" lon="8.073422943158846"><ele>177.0</ele><time>2026-04-19T07:16:55.999Z</time></trkpt><trkpt lat="44.85093460823841" lon="8.073476839901387"><ele>177.0</ele><time>2026-04-19T07:16:56.999Z</time></trkpt><trkpt lat="44.85105256884394" lon="8.07352533580979"><ele>177.0</ele><time>2026-04-19T07:16:57.999Z</time></trkpt><trkpt lat="44.85117603647499" lon="8.07355977817052"><ele>177.0</ele><time>2026-04-19T07:16:58.999Z</time></trkpt><trkpt lat="44.85130564871059" lon="8.073573015951236"><ele>177.0</ele><time>2026-04-19T07:16:59.999Z</time></trkpt><trkpt lat="44.85143754434562" lon="8.07357091288006"><ele>177.0</ele><time>2026-04-19T07:17:00.999Z</time></trkpt><trkpt lat="44.851565453304794" lon="8.073572623997656"><ele>177.0</ele><time>2026-04-19T07:17:01.999Z</time></trkpt><trkpt lat="44.851690005311625" lon="8.07357335808393"><ele>177.0</ele><time>2026-04-19T07:17:02.999Z</time></trkpt><trkpt lat="44.851822575605354" lon="8.07356662778122"><ele>177.0</ele><time>2026-04-19T07:17:03.999Z</time></trkpt><trkpt lat="44.851967688716094" lon="8.073560133560411"><ele>177.5</ele><time>2026-04-19T07:17:04.999Z</time></trkpt><trkpt lat="44.852105144145234" lon="8.07356180099825"><ele>178.0</ele><time>2026-04-19T07:17:05.999Z</time></trkpt><trkpt lat="44.85224295605943" lon="8.073571922738973"><ele>178.5</ele><time>2026-04-19T07:17:06.999Z</time></trkpt><trkpt lat="44.852386241472345" lon="8.073580964506625"><ele>179.0</ele><time>2026-04-19T07:17:07.999Z</time></trkpt><trkpt lat="44.852526065318" lon="8.073586558808168"><ele>179.25</ele><time>2026-04-19T07:17:08.999Z</time></trkpt><trkpt lat="44.85267232543751" lon="8.07359227464694"><ele>179.5</ele><time>2026-04-19T07:17:09.999Z</time></trkpt><trkpt lat="44.85282244618329" lon="8.07360171871716"><ele>179.75</ele><time>2026-04-19T07:17:10.999Z</time></trkpt><trkpt lat="44.85297017980298" lon="8.073609868983715"><ele>180.0</ele><time>2026-04-19T07:17:11.999Z</time></trkpt><trkpt lat="44.85312001374349" lon="8.073614223720222"><ele>180.0</ele><time>2026-04-19T07:17:12.999Z</time></trkpt><trkpt lat="44.85327089085031" lon="8.073617880494071"><ele>180.0</ele><time>2026-04-19T07:17:13.999Z</time></trkpt><trkpt lat="44.85341228338803" lon="8.073627305686218"><ele>180.0</ele><time>2026-04-19T07:17:14.999Z</time></trkpt><trkpt lat="44.853559468852495" lon="8.073635507480548"><ele>180.0</ele><time>2026-04-19T07:17:15.999Z</time></trkpt><trkpt lat="44.85370527600083" lon="8.073643862959278"><ele>181.25</ele><time>2026-04-19T07:17:16.999Z</time></trkpt><trkpt lat="44.85384203117918" lon="8.07366628648663"><ele>182.5</ele><time>2026-04-19T07:17:17.999Z</time></trkpt><trkpt lat="44.85397066715" lon="8.073713290262129"><ele>183.75</ele><time>2026-04-19T07:17:18.999Z</time></trkpt><trkpt lat="44.85409157855571" lon="8.07378145516935"><ele>185.0</ele><time>2026-04-19T07:17:19.999Z</time></trkpt><trkpt lat="44.85420710811588" lon="8.073862692151577"><ele>185.8</ele><time>2026-04-19T07:17:20.999Z</time></trkpt><trkpt lat="44.85431996691539" lon="8.073945742245996"><ele>186.6</ele><time>2026-04-19T07:17:21.999Z</time></trkpt><trkpt lat="44.85443477587232" lon="8.074011425306388"><ele>187.39999999999998</ele><time>2026-04-19T07:17:22.999Z</time></trkpt><trkpt lat="44.85452180983867" lon="8.074056858598126"><ele>188.2</ele><time>2026-04-19T07:17:23.999Z</time></trkpt><trkpt lat="44.85462075191642" lon="8.074089662122239"><ele>189.0</ele><time>2026-04-19T07:17:24.999Z</time></trkpt><trkpt lat="44.85472563422212" lon="8.074088818409344"><ele>189.0</ele><time>2026-04-19T07:17:25.999Z</time></trkpt><trkpt lat="44.85483356189959" lon="8.074041968172121"><ele>189.0</ele><time>2026-04-19T07:17:26.999Z</time></trkpt><trkpt lat="44.854942760483624" lon="8.073946069128203"><ele>189.0</ele><time>2026-04-19T07:17:27.999Z</time></trkpt><trkpt lat="44.85504879173347" lon="8.073798325418029"><ele>189.0</ele><time>2026-04-19T07:17:28.999Z</time></trkpt><trkpt lat="44.85516203869077" lon="8.073643582089652"><ele>189.25</ele><time>2026-04-19T07:17:29.999Z</time></trkpt><trkpt lat="44.855273651844534" lon="8.073509317295253"><ele>189.5</ele><time>2026-04-19T07:17:30.999Z</time></trkpt><trkpt lat="44.85538278708717" lon="8.073377422859483"><ele>189.75</ele><time>2026-04-19T07:17:31.999Z</time></trkpt><trkpt lat="44.85549368893803" lon="8.073272900812482"><ele>190.0</ele><time>2026-04-19T07:17:32.999Z</time></trkpt><trkpt lat="44.855599672012445" lon="8.073188345303878"><ele>190.5</ele><time>2026-04-19T07:17:33.999Z</time></trkpt><trkpt lat="44.8557070943456" lon="8.073121601991431"><ele>191.0</ele><time>2026-04-19T07:17:34.999Z</time></trkpt><trkpt lat="44.85581453600868" lon="8.073103742671558"><ele>191.5</ele><time>2026-04-19T07:17:35.999Z</time></trkpt><trkpt lat="44.85593452041452" lon="8.073118451506685"><ele>192.0</ele><time>2026-04-19T07:17:36.999Z</time></trkpt><trkpt lat="44.85605477949221" lon="8.073177965085193"><ele>192.25</ele><time>2026-04-19T07:17:37.999Z</time></trkpt><trkpt lat="44.856170957220094" lon="8.073251641314437"><ele>192.5</ele><time>2026-04-19T07:17:38.999Z</time></trkpt><trkpt lat="44.856290406462094" lon="8.073322716521577"><ele>192.75</ele><time>2026-04-19T07:17:39.999Z</time></trkpt><trkpt lat="44.85640703391916" lon="8.073407983912182"><ele>193.0</ele><time>2026-04-19T07:17:40.999Z</time></trkpt><trkpt lat="44.85651571602884" lon="8.073517177687904"><ele>192.25</ele><time>2026-04-19T07:17:41.999Z</time></trkpt><trkpt lat="44.856617586539244" lon="8.07364121914423"><ele>191.5</ele><time>2026-04-19T07:17:42.999Z</time></trkpt><trkpt lat="44.856723550099666" lon="8.073769420082124"><ele>190.75</ele><time>2026-04-19T07:17:43.999Z</time></trkpt><trkpt lat="44.856843437900054" lon="8.073875880635992"><ele>190.0</ele><time>2026-04-19T07:17:44.999Z</time></trkpt><trkpt lat="44.85698281525309" lon="8.073975661862951"><ele>190.0</ele><time>2026-04-19T07:17:45.999Z</time></trkpt><trkpt lat="44.857126571966944" lon="8.074067631504102"><ele>190.0</ele><time>2026-04-19T07:17:46.999Z</time></trkpt><trkpt lat="44.857263686320366" lon="8.07415268530314"><ele>190.0</ele><time>2026-04-19T07:17:47.999Z</time></trkpt><trkpt lat="44.85740909114235" lon="8.074243191053444"><ele>188.33333333333334</ele><time>2026-04-19T07:17:48.999Z</time></trkpt><trkpt lat="44.85755468564128" lon="8.074335822094401"><ele>186.66666666666666</ele><time>2026-04-19T07:17:49.999Z</time></trkpt><trkpt lat="44.85770232216298" lon="8.074424965561798"><ele>185.0</ele><time>2026-04-19T07:17:50.999Z</time></trkpt><trkpt lat="44.8578468489142" lon="8.074511014109765"><ele>183.66666666666666</ele><time>2026-04-19T07:17:51.999Z</time></trkpt><trkpt lat="44.85798731402923" lon="8.074601524552145"><ele>182.33333333333334</ele><time>2026-04-19T07:17:52.999Z</time></trkpt><trkpt lat="44.85812776128312" lon="8.074704805705684"><ele>181.0</ele><time>2026-04-19T07:17:53.999Z</time></trkpt><trkpt lat="44.858259962741535" lon="8.074785998787805"><ele>181.0</ele><time>2026-04-19T07:17:54.999Z</time></trkpt><trkpt lat="44.858394165086686" lon="8.074852771698989"><ele>181.0</ele><time>2026-04-19T07:17:55.999Z</time></trkpt><trkpt lat="44.85854150610928" lon="8.074916636550943"><ele>181.0</ele><time>2026-04-19T07:17:56.999Z</time></trkpt><trkpt lat="44.858692140593796" lon="8.074967856040535"><ele>178.33333333333334</ele><time>2026-04-19T07:17:57.999Z</time></trkpt><trkpt lat="44.85885961391446" lon="8.074998976448002"><ele>175.66666666666666</ele><time>2026-04-19T07:17:59Z</time></trkpt><trkpt lat="44.85904490452819" lon="8.075020633121838"><ele>173.0</ele><time>2026-04-19T07:18:00Z</time></trkpt><trkpt lat="44.859210057862946" lon="8.075041712826211"><ele>172.0</ele><time>2026-04-19T07:18:01Z</time></trkpt><trkpt lat="44.859372275339396" lon="8.075068902076266"><ele>171.0</ele><time>2026-04-19T07:18:02Z</time></trkpt><trkpt lat="44.85951819631544" lon="8.075093255215146"><ele>170.0</ele><time>2026-04-19T07:18:03Z</time></trkpt><trkpt lat="44.85966041188338" lon="8.075112372346783"><ele>170.0</ele><time>2026-04-19T07:18:04Z</time></trkpt><trkpt lat="44.85979417275682" lon="8.075127145405414"><ele>170.0</ele><time>2026-04-19T07:18:05Z</time></trkpt><trkpt lat="44.85992889701651" lon="8.075148047743117"><ele>170.0</ele><time>2026-04-19T07:18:06Z</time></trkpt><trkpt lat="44.860066068171506" lon="8.075167915306062"><ele>170.0</ele><time>2026-04-19T07:18:07Z</time></trkpt><trkpt lat="44.86020096064994" lon="8.07518766309518"><ele>170.33333333333331</ele><time>2026-04-19T07:18:08Z</time></trkpt><trkpt lat="44.86034741084778" lon="8.07519681595795"><ele>170.66666666666666</ele><time>2026-04-19T07:18:09Z</time></trkpt><trkpt lat="44.86049274018318" lon="8.075193175083504"><ele>171.0</ele><time>2026-04-19T07:18:10Z</time></trkpt><trkpt lat="44.86065009307499" lon="8.075170081564597"><ele>171.0</ele><time>2026-04-19T07:18:11Z</time></trkpt><trkpt lat="44.86082044963859" lon="8.075127175792716"><ele>171.0</ele><time>2026-04-19T07:18:12Z</time></trkpt><trkpt lat="44.860983241332264" lon="8.075068059289158"><ele>171.0</ele><time>2026-04-19T07:18:13Z</time></trkpt><trkpt lat="44.86113114851663" lon="8.075009358534949"><ele>172.5</ele><time>2026-04-19T07:18:14Z</time></trkpt><trkpt lat="44.86126336921632" lon="8.074952545942011"><ele>174.0</ele><time>2026-04-19T07:18:15Z</time></trkpt><trkpt lat="44.86138148564207" lon="8.074894359972678"><ele>175.5</ele><time>2026-04-19T07:18:16Z</time></trkpt><trkpt lat="44.8614828255668" lon="8.074838009245942"><ele>177.0</ele><time>2026-04-19T07:18:17Z</time></trkpt><trkpt lat="44.86157756259463" lon="8.074782512715002"><ele>177.0</ele><time>2026-04-19T07:18:18Z</time></trkpt><trkpt lat="44.861665844406964" lon="8.074718761017687"><ele>177.0</ele><time>2026-04-19T07:18:19Z</time></trkpt><trkpt lat="44.8617343864828" lon="8.074653249858404"><ele>177.0</ele><time>2026-04-19T07:18:20Z</time></trkpt><trkpt lat="44.86180667329616" lon="8.074553985165275"><ele>177.0</ele><time>2026-04-19T07:18:22Z</time></trkpt><trkpt lat="44.86189609976589" lon="8.07459544932768"><ele>177.0</ele><time>2026-04-19T07:18:26Z</time></trkpt><trkpt lat="44.861953969126915" lon="8.074685812823773"><ele>178.33333333333334</ele><time>2026-04-19T07:18:27Z</time></trkpt><trkpt lat="44.862024569093784" lon="8.074777699765155"><ele>179.66666666666666</ele><time>2026-04-19T07:18:29Z</time></trkpt><trkpt lat="44.86207072222577" lon="8.074920434176684"><ele>181.0</ele><time>2026-04-19T07:18:31Z</time></trkpt><trkpt lat="44.862129979610536" lon="8.07499136896834"><ele>182.33333333333331</ele><time>2026-04-19T07:18:33Z</time></trkpt><trkpt lat="44.862199994237834" lon="8.075017660230232"><ele>183.66666666666666</ele><time>2026-04-19T07:18:35Z</time></trkpt><trkpt lat="44.86226356714529" lon="8.075006518003965"><ele>185.0</ele><time>2026-04-19T07:18:45Z</time></trkpt><trkpt lat="44.86235452012255" lon="8.074999222112059"><ele>186.2</ele><time>2026-04-19T07:19:11.999Z</time></trkpt><trkpt lat="44.862426973762695" lon="8.074977247304886"><ele>187.4</ele><time>2026-04-19T07:19:13.999Z</time></trkpt><trkpt lat="44.862413005967866" lon="8.075089075063707"><ele>188.60000000000002</ele><time>2026-04-19T07:19:19.999Z</time></trkpt><trkpt lat="44.86231510017788" lon="8.07516725236395"><ele>189.8</ele><time>2026-04-19T07:19:20.999Z</time></trkpt><trkpt lat="44.86221925306937" lon="8.075244454985244"><ele>191.0</ele><time>2026-04-19T07:19:21.999Z</time></trkpt><trkpt lat="44.8621453766752" lon="8.07532078770011"><ele>191.0</ele><time>2026-04-19T07:19:22.999Z</time></trkpt><trkpt lat="44.862100630338155" lon="8.075398352008287"><ele>191.0</ele><time>2026-04-19T07:19:23.999Z</time></trkpt><trkpt lat="44.86206103677924" lon="8.075477189104333"><ele>191.0</ele><time>2026-04-19T07:19:24.999Z</time></trkpt><trkpt lat="44.862010856223215" lon="8.075643221816739"><ele>191.0</ele><time>2026-04-19T07:19:26.999Z</time></trkpt><trkpt lat="44.86198246932194" lon="8.075731812756842"><ele>191.0</ele><time>2026-04-19T07:19:27.999Z</time></trkpt><trkpt lat="44.86194722493078" lon="8.075821584363279"><ele>191.0</ele><time>2026-04-19T07:19:28.999Z</time></trkpt><trkpt lat="44.861916333981085" lon="8.075901339888054"><ele>191.33333333333331</ele><time>2026-04-19T07:19:29.999Z</time></trkpt><trkpt lat="44.86188397483292" lon="8.076031941207825"><ele>191.66666666666666</ele><time>2026-04-19T07:19:31.999Z</time></trkpt><trkpt lat="44.861904032265116" lon="8.076117639807972"><ele>192.0</ele><time>2026-04-19T07:19:33.999Z</time></trkpt><trkpt lat="44.86200623497446" lon="8.076189713301572"><ele>192.33333333333331</ele><time>2026-04-19T07:19:35.999Z</time></trkpt><trkpt lat="44.86208665966699" lon="8.076231976787524"><ele>192.66666666666666</ele><time>2026-04-19T07:19:36.999Z</time></trkpt><trkpt lat="44.86216030757942" lon="8.076272026584716"><ele>193.0</ele><time>2026-04-19T07:19:37.999Z</time></trkpt><trkpt lat="44.86223110909049" lon="8.076311814105349"><ele>192.99999999999997</ele><time>2026-04-19T07:19:38.999Z</time></trkpt><trkpt lat="44.86229957273684" lon="8.076349922046958"><ele>193.0</ele><time>2026-04-19T07:19:39.999Z</time></trkpt><trkpt lat="44.86236617558374" lon="8.076389684977556"><ele>193.0</ele><time>2026-04-19T07:19:40.999Z</time></trkpt><trkpt lat="44.862445588589516" lon="8.076482241011005"><ele>193.0</ele><time>2026-04-19T07:19:42.999Z</time></trkpt><trkpt lat="44.86243948100921" lon="8.076582843688493"><ele>192.99999999999997</ele><time>2026-04-19T07:19:43.999Z</time></trkpt><trkpt lat="44.86240278981958" lon="8.076735294182921"><ele>193.0</ele><time>2026-04-19T07:19:44.999Z</time></trkpt><trkpt lat="44.86233723780956" lon="8.076911732424836"><ele>192.83333333333331</ele><time>2026-04-19T07:19:45.999Z</time></trkpt><trkpt lat="44.8622987078946" lon="8.077063871133605"><ele>192.66666666666666</ele><time>2026-04-19T07:19:46.999Z</time></trkpt><trkpt lat="44.86227898765137" lon="8.077194439533905"><ele>192.5</ele><time>2026-04-19T07:19:47.999Z</time></trkpt><trkpt lat="44.862265751665255" lon="8.077312540122836"><ele>192.33333333333331</ele><time>2026-04-19T07:19:48.999Z</time></trkpt><trkpt lat="44.86227033357423" lon="8.077423741142907"><ele>192.16666666666666</ele><time>2026-04-19T07:19:49.999Z</time></trkpt><trkpt lat="44.862297004579325" lon="8.077513878628137"><ele>192.0</ele><time>2026-04-19T07:19:50.999Z</time></trkpt><trkpt lat="44.8623485175539" lon="8.077611409290366"><ele>192.0</ele><time>2026-04-19T07:19:51.999Z</time></trkpt><trkpt lat="44.86239291178791" lon="8.077708539897932"><ele>192.0</ele><time>2026-04-19T07:19:52.999Z</time></trkpt><trkpt lat="44.86240442603541" lon="8.077817749513182"><ele>192.0</ele><time>2026-04-19T07:19:53.999Z</time></trkpt><trkpt lat="44.86239608050983" lon="8.077935812971994"><ele>192.0</ele><time>2026-04-19T07:19:54.999Z</time></trkpt><trkpt lat="44.86236769820733" lon="8.07806753309993"><ele>192.0</ele><time>2026-04-19T07:19:55.999Z</time></trkpt><trkpt lat="44.86233638553559" lon="8.078211199448234"><ele>192.0</ele><time>2026-04-19T07:19:56.999Z</time></trkpt><trkpt lat="44.86230685506396" lon="8.078361732690349"><ele>192.0</ele><time>2026-04-19T07:19:57.999Z</time></trkpt><trkpt lat="44.86228378782942" lon="8.078496033086806"><ele>192.0</ele><time>2026-04-19T07:19:58.999Z</time></trkpt><trkpt lat="44.86225686256911" lon="8.078623903980619"><ele>192.0</ele><time>2026-04-19T07:19:59.999Z</time></trkpt><trkpt lat="44.86222566866879" lon="8.078758639938346"><ele>192.0</ele><time>2026-04-19T07:20:00.999Z</time></trkpt><trkpt lat="44.86219442243191" lon="8.078886004017665"><ele>192.0</ele><time>2026-04-19T07:20:01.999Z</time></trkpt><trkpt lat="44.86216450694704" lon="8.07901533789393"><ele>191.6</ele><time>2026-04-19T07:20:02.999Z</time></trkpt><trkpt lat="44.862136219986546" lon="8.079155719352269"><ele>191.2</ele><time>2026-04-19T07:20:03.999Z</time></trkpt><trkpt lat="44.86210831222515" lon="8.079292087330629"><ele>190.8</ele><time>2026-04-19T07:20:05Z</time></trkpt><trkpt lat="44.86207895797166" lon="8.079429011491795"><ele>190.4</ele><time>2026-04-19T07:20:06Z</time></trkpt><trkpt lat="44.86205026236291" lon="8.079565931201092"><ele>190.0</ele><time>2026-04-19T07:20:07Z</time></trkpt><trkpt lat="44.862021143365524" lon="8.079705715847531"><ele>190.0</ele><time>2026-04-19T07:20:08Z</time></trkpt><trkpt lat="44.861989773188654" lon="8.079846176684486"><ele>190.0</ele><time>2026-04-19T07:20:09Z</time></trkpt><trkpt lat="44.8619520417364" lon="8.079993161108007"><ele>190.0</ele><time>2026-04-19T07:20:10Z</time></trkpt><trkpt lat="44.861914238465026" lon="8.080151355176513"><ele>190.0</ele><time>2026-04-19T07:20:11Z</time></trkpt><trkpt lat="44.861880358022965" lon="8.080313469401469"><ele>189.75</ele><time>2026-04-19T07:20:12Z</time></trkpt><trkpt lat="44.86184152714199" lon="8.080512267152708"><ele>189.5</ele><time>2026-04-19T07:20:13Z</time></trkpt><trkpt lat="44.861803150683755" lon="8.08069678611909"><ele>189.25</ele><time>2026-04-19T07:20:14Z</time></trkpt><trkpt lat="44.86177379061426" lon="8.080868921672842"><ele>189.0</ele><time>2026-04-19T07:20:15Z</time></trkpt><trkpt lat="44.86175430818735" lon="8.081042503270993"><ele>189.5</ele><time>2026-04-19T07:20:16Z</time></trkpt><trkpt lat="44.861746708397845" lon="8.081222062641046"><ele>190.0</ele><time>2026-04-19T07:20:17Z</time></trkpt><trkpt lat="44.8617465335025" lon="8.081388786241325"><ele>190.5</ele><time>2026-04-19T07:20:18Z</time></trkpt><trkpt lat="44.861743097361625" lon="8.081566417357726"><ele>191.0</ele><time>2026-04-19T07:20:19Z</time></trkpt><trkpt lat="44.861740048098774" lon="8.081731320805678"><ele>191.0</ele><time>2026-04-19T07:20:20Z</time></trkpt><trkpt lat="44.86173697738928" lon="8.081882827748274"><ele>191.0</ele><time>2026-04-19T07:20:21Z</time></trkpt><trkpt lat="44.86172803773379" lon="8.082021860152944"><ele>191.0</ele><time>2026-04-19T07:20:22Z</time></trkpt><trkpt lat="44.8617243577864" lon="8.08215718851192"><ele>191.0</ele><time>2026-04-19T07:20:23Z</time></trkpt><trkpt lat="44.861725030612966" lon="8.082281218959253"><ele>191.0</ele><time>2026-04-19T07:20:24Z</time></trkpt><trkpt lat="44.86171849285047" lon="8.082396813264419"><ele>191.0</ele><time>2026-04-19T07:20:25Z</time></trkpt><trkpt lat="44.86171638076944" lon="8.082489695882915"><ele>191.0</ele><time>2026-04-19T07:20:26Z</time></trkpt><trkpt lat="44.861711964106966" lon="8.082606271039673"><ele>191.0</ele><time>2026-04-19T07:20:28Z</time></trkpt><trkpt lat="44.86175294779551" lon="8.082725284358974"><ele>191.0</ele><time>2026-04-19T07:20:31Z</time></trkpt><trkpt lat="44.86185988482496" lon="8.082788241069922"><ele>191.0</ele><time>2026-04-19T07:20:33Z</time></trkpt><trkpt lat="44.86192814727637" lon="8.08282742149459"><ele>191.0</ele><time>2026-04-19T07:20:34Z</time></trkpt><trkpt lat="44.86199528864058" lon="8.082891300570322"><ele>191.0</ele><time>2026-04-19T07:20:35Z</time></trkpt><trkpt lat="44.86205980661382" lon="8.082983544592931"><ele>191.0</ele><time>2026-04-19T07:20:36Z</time></trkpt><trkpt lat="44.86211904124593" lon="8.083122386667617"><ele>191.0</ele><time>2026-04-19T07:20:37Z</time></trkpt><trkpt lat="44.862172204048434" lon="8.0832692599286"><ele>191.0</ele><time>2026-04-19T07:20:38Z</time></trkpt><trkpt lat="44.86223441795222" lon="8.083408385632362"><ele>191.0</ele><time>2026-04-19T07:20:39Z</time></trkpt><trkpt lat="44.862308060324075" lon="8.083513163664458"><ele>190.66666666666666</ele><time>2026-04-19T07:20:40Z</time></trkpt><trkpt lat="44.86239109526676" lon="8.083600021319722"><ele>190.33333333333331</ele><time>2026-04-19T07:20:41Z</time></trkpt><trkpt lat="44.86246456835267" lon="8.083684472689253"><ele>190.0</ele><time>2026-04-19T07:20:42Z</time></trkpt><trkpt lat="44.86251449030478" lon="8.083759174302354"><ele>189.66666666666666</ele><time>2026-04-19T07:20:43Z</time></trkpt><trkpt lat="44.86254760396935" lon="8.083895811185211"><ele>189.33333333333334</ele><time>2026-04-19T07:20:45Z</time></trkpt><trkpt lat="44.86253728052993" lon="8.083986775554305"><ele>189.0</ele><time>2026-04-19T07:20:46Z</time></trkpt><trkpt lat="44.86248648071339" lon="8.084102925955943"><ele>188.39999999999998</ele><time>2026-04-19T07:20:47Z</time></trkpt><trkpt lat="44.86243342371499" lon="8.084220319023267"><ele>187.8</ele><time>2026-04-19T07:20:48Z</time></trkpt><trkpt lat="44.862350252014664" lon="8.084331993546831"><ele>187.2</ele><time>2026-04-19T07:20:49Z</time></trkpt><trkpt lat="44.8622709837971" lon="8.084436409582361"><ele>186.60000000000002</ele><time>2026-04-19T07:20:50Z</time></trkpt><trkpt lat="44.8621824245139" lon="8.084529588872861"><ele>186.0</ele><time>2026-04-19T07:20:51Z</time></trkpt><trkpt lat="44.86208125094974" lon="8.084596386594809"><ele>186.0</ele><time>2026-04-19T07:20:52Z</time></trkpt><trkpt lat="44.86198261444678" lon="8.08467075699341"><ele>186.0</ele><time>2026-04-19T07:20:53Z</time></trkpt><trkpt lat="44.86191051529504" lon="8.084790235969491"><ele>186.0</ele><time>2026-04-19T07:20:54Z</time></trkpt><trkpt lat="44.86184630287696" lon="8.08493396021938"><ele>186.0</ele><time>2026-04-19T07:20:55Z</time></trkpt><trkpt lat="44.861783393943675" lon="8.085085909218554"><ele>184.20000000000002</ele><time>2026-04-19T07:20:56Z</time></trkpt><trkpt lat="44.86171863049834" lon="8.085218407685634"><ele>182.4</ele><time>2026-04-19T07:20:57Z</time></trkpt><trkpt lat="44.86165925651724" lon="8.08534096252184"><ele>180.6</ele><time>2026-04-19T07:20:58Z</time></trkpt><trkpt lat="44.86159999001722" lon="8.085451767827625"><ele>178.8</ele><time>2026-04-19T07:20:59Z</time></trkpt><trkpt lat="44.86154612540554" lon="8.085554730332474"><ele>177.0</ele><time>2026-04-19T07:21:00Z</time></trkpt><trkpt lat="44.86149943438926" lon="8.085644989624054"><ele>177.0</ele><time>2026-04-19T07:21:01Z</time></trkpt><trkpt lat="44.86145215554014" lon="8.085731785534035"><ele>177.0</ele><time>2026-04-19T07:21:02Z</time></trkpt><trkpt lat="44.861401463182666" lon="8.085821485225226"><ele>177.0</ele><time>2026-04-19T07:21:03Z</time></trkpt><trkpt lat="44.861350094268964" lon="8.08592566489242"><ele>177.0</ele><time>2026-04-19T07:21:04Z</time></trkpt><trkpt lat="44.86129793863948" lon="8.086034735906564"><ele>177.0</ele><time>2026-04-19T07:21:05Z</time></trkpt><trkpt lat="44.86124221485117" lon="8.08612348865217"><ele>177.0</ele><time>2026-04-19T07:21:06Z</time></trkpt><trkpt lat="44.861189056904614" lon="8.086224165183735"><ele>176.6</ele><time>2026-04-19T07:21:07Z</time></trkpt><trkpt lat="44.861137656884054" lon="8.086326528826024"><ele>176.2</ele><time>2026-04-19T07:21:08Z</time></trkpt><trkpt lat="44.86107797052748" lon="8.086435584836059"><ele>175.8</ele><time>2026-04-19T07:21:09Z</time></trkpt><trkpt lat="44.861020519072596" lon="8.086543059965619"><ele>175.4</ele><time>2026-04-19T07:21:10Z</time></trkpt><trkpt lat="44.86096995367191" lon="8.086652329699564"><ele>175.0</ele><time>2026-04-19T07:21:11Z</time></trkpt><trkpt lat="44.86091282752073" lon="8.086757525940556"><ele>174.71428571428572</ele><time>2026-04-19T07:21:12Z</time></trkpt><trkpt lat="44.860863279227" lon="8.086840634644886"><ele>174.42857142857144</ele><time>2026-04-19T07:21:13Z</time></trkpt><trkpt lat="44.860825047197814" lon="8.086912904415936"><ele>174.14285714285714</ele><time>2026-04-19T07:21:13.999Z</time></trkpt><trkpt lat="44.86079594736617" lon="8.08701148771831"><ele>173.85714285714286</ele><time>2026-04-19T07:21:15.999Z</time></trkpt><trkpt lat="44.860860157288336" lon="8.087073506392953"><ele>173.57142857142858</ele><time>2026-04-19T07:21:18.999Z</time></trkpt><trkpt lat="44.86092379277862" lon="8.087064993504466"><ele>173.28571428571428</ele><time>2026-04-19T07:21:19.999Z</time></trkpt><trkpt lat="44.86100068137427" lon="8.087058031411376"><ele>173.0</ele><time>2026-04-19T07:21:20.999Z</time></trkpt><trkpt lat="44.86109338981708" lon="8.087054036737365"><ele>172.75</ele><time>2026-04-19T07:21:21.999Z</time></trkpt><trkpt lat="44.8612002723695" lon="8.08705770529493"><ele>172.5</ele><time>2026-04-19T07:21:22.999Z</time></trkpt><trkpt lat="44.861316333024085" lon="8.087071371007948"><ele>172.25</ele><time>2026-04-19T07:21:23.999Z</time></trkpt><trkpt lat="44.861442605315965" lon="8.08709810882534"><ele>172.0</ele><time>2026-04-19T07:21:24.999Z</time></trkpt><trkpt lat="44.861563086134176" lon="8.087140114380398"><ele>172.0</ele><time>2026-04-19T07:21:25.999Z</time></trkpt><trkpt lat="44.861690073964" lon="8.087196847450494"><ele>172.0</ele><time>2026-04-19T07:21:26.999Z</time></trkpt><trkpt lat="44.86183178512641" lon="8.087269116006732"><ele>172.0</ele><time>2026-04-19T07:21:27.999Z</time></trkpt><trkpt lat="44.86198014338768" lon="8.087345604046256"><ele>172.0</ele><time>2026-04-19T07:21:28.999Z</time></trkpt><trkpt lat="44.86212107733008" lon="8.087420521365082"><ele>171.66666666666669</ele><time>2026-04-19T07:21:29.999Z</time></trkpt><trkpt lat="44.8622776400221" lon="8.087495621814703"><ele>171.33333333333334</ele><time>2026-04-19T07:21:30.999Z</time></trkpt><trkpt lat="44.86244691622725" lon="8.087564964861045"><ele>171.0</ele><time>2026-04-19T07:21:31.999Z</time></trkpt><trkpt lat="44.86263010336877" lon="8.08763202106833"><ele>172.33333333333334</ele><time>2026-04-19T07:21:32.999Z</time></trkpt><trkpt lat="44.8628116553128" lon="8.087692710293716"><ele>173.66666666666669</ele><time>2026-04-19T07:21:33.999Z</time></trkpt><trkpt lat="44.86297430039245" lon="8.08774659377735"><ele>175.0</ele><time>2026-04-19T07:21:34.999Z</time></trkpt><trkpt lat="44.863122618088674" lon="8.087796055725688"><ele>175.0</ele><time>2026-04-19T07:21:35.999Z</time></trkpt><trkpt lat="44.863278563486354" lon="8.087841767906006"><ele>175.0</ele><time>2026-04-19T07:21:36.999Z</time></trkpt><trkpt lat="44.86342516732252" lon="8.0878715644996"><ele>175.0</ele><time>2026-04-19T07:21:37.999Z</time></trkpt><trkpt lat="44.86356005359077" lon="8.087886718090532"><ele>175.0</ele><time>2026-04-19T07:21:38.999Z</time></trkpt><trkpt lat="44.86367427217833" lon="8.087898878951128"><ele>175.0</ele><time>2026-04-19T07:21:39.999Z</time></trkpt><trkpt lat="44.863764889828715" lon="8.087911684124444"><ele>175.0</ele><time>2026-04-19T07:21:40.999Z</time></trkpt><trkpt lat="44.86384823803033" lon="8.087923932364804"><ele>175.0</ele><time>2026-04-19T07:21:41.999Z</time></trkpt><trkpt lat="44.86391826526275" lon="8.087938297510213"><ele>175.0</ele><time>2026-04-19T07:21:42.999Z</time></trkpt><trkpt lat="44.864003102104505" lon="8.08798338570621"><ele>175.0</ele><time>2026-04-19T07:21:44.999Z</time></trkpt><trkpt lat="44.864001942331036" lon="8.088188487250479"><ele>174.8</ele><time>2026-04-19T07:21:46.999Z</time></trkpt><trkpt lat="44.863985366717344" lon="8.088353411443343"><ele>174.6</ele><time>2026-04-19T07:21:47.999Z</time></trkpt><trkpt lat="44.86397534365453" lon="8.088491478036634"><ele>174.39999999999998</ele><time>2026-04-19T07:21:48.999Z</time></trkpt><trkpt lat="44.863963408992824" lon="8.088604000294009"><ele>174.2</ele><time>2026-04-19T07:21:49.999Z</time></trkpt><trkpt lat="44.86394835485365" lon="8.088714103017763"><ele>174.0</ele><time>2026-04-19T07:21:50.999Z</time></trkpt><trkpt lat="44.863936348188446" lon="8.088844525739038"><ele>174.0</ele><time>2026-04-19T07:21:51.999Z</time></trkpt><trkpt lat="44.86392945390277" lon="8.088979414006834"><ele>174.0</ele><time>2026-04-19T07:21:52.999Z</time></trkpt><trkpt lat="44.86392244211598" lon="8.08908991552209"><ele>174.0</ele><time>2026-04-19T07:21:53.999Z</time></trkpt><trkpt lat="44.86392815922228" lon="8.089233051190337"><ele>174.0</ele><time>2026-04-19T07:21:55.999Z</time></trkpt><trkpt lat="44.86400459094907" lon="8.089231153622222"><ele>174.0</ele><time>2026-04-19T07:21:57.999Z</time></trkpt><trkpt lat="44.864066202871335" lon="8.089184625521211"><ele>174.0</ele><time>2026-04-19T07:21:58.999Z</time></trkpt><trkpt lat="44.864140530730765" lon="8.089083013337186"><ele>174.0</ele><time>2026-04-19T07:21:59.999Z</time></trkpt><trkpt lat="44.86421844348061" lon="8.088981156906032"><ele>174.0</ele><time>2026-04-19T07:22:00.999Z</time></trkpt><trkpt lat="44.864307686848306" lon="8.088879125153401"><ele>174.0</ele><time>2026-04-19T07:22:01.999Z</time></trkpt><trkpt lat="44.86438471427409" lon="8.08880415026063"><ele>174.0</ele><time>2026-04-19T07:22:02.999Z</time></trkpt><trkpt lat="44.86445628813709" lon="8.088752836966094"><ele>174.0</ele><time>2026-04-19T07:22:03.999Z</time></trkpt><trkpt lat="44.864530251879984" lon="8.088729686767948"><ele>174.0</ele><time>2026-04-19T07:22:04.999Z</time></trkpt><trkpt lat="44.864604063142245" lon="8.088779120269098"><ele>174.0</ele><time>2026-04-19T07:22:05.999Z</time></trkpt><trkpt lat="44.86469442337463" lon="8.088884985394797"><ele>174.0</ele><time>2026-04-19T07:22:06.999Z</time></trkpt><trkpt lat="44.8647863643015" lon="8.089028089205746"><ele>174.0</ele><time>2026-04-19T07:22:07.999Z</time></trkpt><trkpt lat="44.864899144237135" lon="8.08915244859065"><ele>173.75</ele><time>2026-04-19T07:22:08.999Z</time></trkpt><trkpt lat="44.865006621024676" lon="8.089275763900975"><ele>173.5</ele><time>2026-04-19T07:22:09.999Z</time></trkpt><trkpt lat="44.8650970424628" lon="8.089386027691626"><ele>173.25</ele><time>2026-04-19T07:22:11Z</time></trkpt><trkpt lat="44.8651946437237" lon="8.08948881516717"><ele>173.0</ele><time>2026-04-19T07:22:12Z</time></trkpt><trkpt lat="44.86532440142898" lon="8.089616587264477"><ele>173.0</ele><time>2026-04-19T07:22:13Z</time></trkpt><trkpt lat="44.86544583983367" lon="8.089735830173204"><ele>173.0</ele><time>2026-04-19T07:22:14Z</time></trkpt><trkpt lat="44.8655556945758" lon="8.089846196420867"><ele>173.0</ele><time>2026-04-19T07:22:15Z</time></trkpt><trkpt lat="44.865667111324456" lon="8.089956802954854"><ele>173.0</ele><time>2026-04-19T07:22:16Z</time></trkpt><trkpt lat="44.865764635018834" lon="8.0900506004648"><ele>173.0</ele><time>2026-04-19T07:22:17Z</time></trkpt><trkpt lat="44.86583248120821" lon="8.090117526746694"><ele>173.0</ele><time>2026-04-19T07:22:18Z</time></trkpt><trkpt lat="44.865905354834965" lon="8.090197290234563"><ele>173.0</ele><time>2026-04-19T07:22:19Z</time></trkpt><trkpt lat="44.86598720621073" lon="8.09029252870654"><ele>173.0</ele><time>2026-04-19T07:22:20Z</time></trkpt><trkpt lat="44.86609278391826" lon="8.090413499639174"><ele>173.0</ele><time>2026-04-19T07:22:21Z</time></trkpt><trkpt lat="44.86620278888927" lon="8.09052316047646"><ele>173.0</ele><time>2026-04-19T07:22:22Z</time></trkpt><trkpt lat="44.86630870149768" lon="8.090631962358685"><ele>173.0</ele><time>2026-04-19T07:22:23Z</time></trkpt><trkpt lat="44.86641465227323" lon="8.090736389039062"><ele>173.0</ele><time>2026-04-19T07:22:24Z</time></trkpt><trkpt lat="44.866514493729234" lon="8.090810956930314"><ele>173.0</ele><time>2026-04-19T07:22:25Z</time></trkpt><trkpt lat="44.86662975170454" lon="8.090844397391027"><ele>172.5</ele><time>2026-04-19T07:22:26Z</time></trkpt><trkpt lat="44.86676780444959" lon="8.090882157204254"><ele>172.0</ele><time>2026-04-19T07:22:27Z</time></trkpt><trkpt lat="44.86690053980093" lon="8.090928542233044"><ele>171.5</ele><time>2026-04-19T07:22:28Z</time></trkpt><trkpt lat="44.867032050259226" lon="8.090980546713709"><ele>171.0</ele><time>2026-04-19T07:22:29Z</time></trkpt><trkpt lat="44.867159712007506" lon="8.091025405875047"><ele>170.4</ele><time>2026-04-19T07:22:30Z</time></trkpt><trkpt lat="44.86727776503041" lon="8.091067453129405"><ele>169.8</ele><time>2026-04-19T07:22:31Z</time></trkpt><trkpt lat="44.867400036154365" lon="8.091095762559178"><ele>169.20000000000002</ele><time>2026-04-19T07:22:32Z</time></trkpt><trkpt lat="44.867521161171254" lon="8.09111150341683"><ele>168.60000000000002</ele><time>2026-04-19T07:22:33Z</time></trkpt><trkpt lat="44.86758636803194" lon="8.091114817069231"><ele>168.0</ele><time>2026-04-19T07:22:34Z</time></trkpt><trkpt lat="44.867671867657855" lon="8.091102776890567"><ele>168.0</ele><time>2026-04-19T07:22:36Z</time></trkpt><trkpt lat="44.86774805998568" lon="8.09115975289207"><ele>168.0</ele><time>2026-04-19T07:22:38Z</time></trkpt><trkpt lat="44.86776795642229" lon="8.09131192395468"><ele>168.0</ele><time>2026-04-19T07:22:40Z</time></trkpt><trkpt lat="44.867805687469655" lon="8.091432924379127"><ele>168.0</ele><time>2026-04-19T07:22:42Z</time></trkpt><trkpt lat="44.867853130142095" lon="8.091550606894605"><ele>168.0</ele><time>2026-04-19T07:22:43Z</time></trkpt><trkpt lat="44.86790265155801" lon="8.091649959850116"><ele>168.0</ele><time>2026-04-19T07:22:44Z</time></trkpt><trkpt lat="44.867964712700655" lon="8.091743531415203"><ele>168.0</ele><time>2026-04-19T07:22:45Z</time></trkpt><trkpt lat="44.86803026497086" lon="8.091817480090171"><ele>168.0</ele><time>2026-04-19T07:22:46Z</time></trkpt><trkpt lat="44.86809008886957" lon="8.091884565658214"><ele>168.0</ele><time>2026-04-19T07:22:47Z</time></trkpt><trkpt lat="44.868180601209275" lon="8.091923630019753"><ele>168.0</ele><time>2026-04-19T07:22:48Z</time></trkpt><trkpt lat="44.86827082971508" lon="8.091951432781014"><ele>168.0</ele><time>2026-04-19T07:22:49Z</time></trkpt><trkpt lat="44.868359015525826" lon="8.091979793350045"><ele>166.5</ele><time>2026-04-19T07:22:50Z</time></trkpt><trkpt lat="44.868445213603366" lon="8.09202875092468"><ele>165.0</ele><time>2026-04-19T07:22:51Z</time></trkpt><trkpt lat="44.868532389307184" lon="8.092068765337098"><ele>163.5</ele><time>2026-04-19T07:22:52Z</time></trkpt><trkpt lat="44.86861877377754" lon="8.092096554227343"><ele>162.0</ele><time>2026-04-19T07:22:53Z</time></trkpt><trkpt lat="44.86869380234842" lon="8.09215172727003"><ele>160.5</ele><time>2026-04-19T07:22:54Z</time></trkpt><trkpt lat="44.868754985130074" lon="8.092213230668149"><ele>159.0</ele><time>2026-04-19T07:22:55Z</time></trkpt><trkpt lat="44.86883547060132" lon="8.092313455454581"><ele>159.0</ele><time>2026-04-19T07:22:57Z</time></trkpt><trkpt lat="44.868933644519906" lon="8.092383598184393"><ele>159.0</ele><time>2026-04-19T07:22:59Z</time></trkpt><trkpt lat="44.86905125898779" lon="8.092380006631869"><ele>159.0</ele><time>2026-04-19T07:23:01Z</time></trkpt><trkpt lat="44.869120606583664" lon="8.092329774405249"><ele>159.0</ele><time>2026-04-19T07:23:02Z</time></trkpt><trkpt lat="44.8691971685679" lon="8.092257834089018"><ele>159.0</ele><time>2026-04-19T07:23:03Z</time></trkpt><trkpt lat="44.86928597111737" lon="8.09219487286109"><ele>159.0</ele><time>2026-04-19T07:23:04Z</time></trkpt><trkpt lat="44.86937344584118" lon="8.09214225947052"><ele>159.0</ele><time>2026-04-19T07:23:05Z</time></trkpt><trkpt lat="44.86947565666976" lon="8.09209760510003"><ele>159.0</ele><time>2026-04-19T07:23:06Z</time></trkpt><trkpt lat="44.869573785018964" lon="8.092051029630923"><ele>159.0</ele><time>2026-04-19T07:23:07Z</time></trkpt><trkpt lat="44.86967042506616" lon="8.092027061814674"><ele>159.0</ele><time>2026-04-19T07:23:08Z</time></trkpt><trkpt lat="44.869793855099445" lon="8.0919737008714"><ele>159.0</ele><time>2026-04-19T07:23:09Z</time></trkpt><trkpt lat="44.86992555737383" lon="8.091912231738862"><ele>159.0</ele><time>2026-04-19T07:23:10Z</time></trkpt><trkpt lat="44.87006228174858" lon="8.091845415244713"><ele>159.0</ele><time>2026-04-19T07:23:11Z</time></trkpt><trkpt lat="44.87020820298325" lon="8.091772631447679"><ele>159.0</ele><time>2026-04-19T07:23:12Z</time></trkpt><trkpt lat="44.87034215200087" lon="8.09171632287416"><ele>160.5</ele><time>2026-04-19T07:23:13Z</time></trkpt><trkpt lat="44.870486419573126" lon="8.09166468534083"><ele>162.0</ele><time>2026-04-19T07:23:14Z</time></trkpt><trkpt lat="44.87062359219619" lon="8.09162159463175"><ele>163.5</ele><time>2026-04-19T07:23:14.999Z</time></trkpt><trkpt lat="44.87075532985434" lon="8.091579367258742"><ele>165.0</ele><time>2026-04-19T07:23:15.999Z</time></trkpt><trkpt lat="44.87087348159318" lon="8.091536288759839"><ele>165.5</ele><time>2026-04-19T07:23:16.999Z</time></trkpt><trkpt lat="44.87097330390166" lon="8.091503684755608"><ele>166.0</ele><time>2026-04-19T07:23:17.999Z</time></trkpt><trkpt lat="44.8710608335497" lon="8.09148778223895"><ele>166.5</ele><time>2026-04-19T07:23:18.999Z</time></trkpt><trkpt lat="44.87113654339429" lon="8.091503715591816"><ele>167.0</ele><time>2026-04-19T07:23:19.999Z</time></trkpt><trkpt lat="44.87122047333667" lon="8.0915343175377"><ele>167.5</ele><time>2026-04-19T07:23:20.999Z</time></trkpt><trkpt lat="44.8713141174534" lon="8.091537779118594"><ele>168.0</ele><time>2026-04-19T07:23:21.999Z</time></trkpt><trkpt lat="44.87141196797701" lon="8.091514486681119"><ele>168.0</ele><time>2026-04-19T07:23:22.999Z</time></trkpt><trkpt lat="44.87149007373562" lon="8.091504372041342"><ele>168.0</ele><time>2026-04-19T07:23:23.999Z</time></trkpt><trkpt lat="44.87160225895695" lon="8.091541412419705"><ele>168.0</ele><time>2026-04-19T07:23:25.999Z</time></trkpt><trkpt lat="44.87165555866904" lon="8.091653683869792"><ele>168.0</ele><time>2026-04-19T07:23:26.999Z</time></trkpt><trkpt lat="44.871710634011826" lon="8.09176470648637"><ele>168.0</ele><time>2026-04-19T07:23:27.999Z</time></trkpt><trkpt lat="44.87177119331432" lon="8.091896272428533"><ele>167.8</ele><time>2026-04-19T07:23:28.999Z</time></trkpt><trkpt lat="44.87183173119382" lon="8.09202724742008"><ele>167.60000000000002</ele><time>2026-04-19T07:23:29.999Z</time></trkpt><trkpt lat="44.87189371486819" lon="8.092132639417608"><ele>167.39999999999998</ele><time>2026-04-19T07:23:30.999Z</time></trkpt><trkpt lat="44.87196177435622" lon="8.092204355958586"><ele>167.2</ele><time>2026-04-19T07:23:31.999Z</time></trkpt><trkpt lat="44.87204325811261" lon="8.092245210428416"><ele>167.0</ele><time>2026-04-19T07:23:32.999Z</time></trkpt><trkpt lat="44.87213836473855" lon="8.092262932499839"><ele>167.0</ele><time>2026-04-19T07:23:33.999Z</time></trkpt><trkpt lat="44.872245659350654" lon="8.092259970128685"><ele>167.0</ele><time>2026-04-19T07:23:34.999Z</time></trkpt><trkpt lat="44.87235236907514" lon="8.092227124542488"><ele>167.0</ele><time>2026-04-19T07:23:35.999Z</time></trkpt><trkpt lat="44.87246462975895" lon="8.092185963826699"><ele>167.0</ele><time>2026-04-19T07:23:36.999Z</time></trkpt><trkpt lat="44.87259042020976" lon="8.092148073956507"><ele>166.75</ele><time>2026-04-19T07:23:37.999Z</time></trkpt><trkpt lat="44.87272619900249" lon="8.092121771326493"><ele>166.5</ele><time>2026-04-19T07:23:38.999Z</time></trkpt><trkpt lat="44.872867131265025" lon="8.092104989744852"><ele>166.25</ele><time>2026-04-19T07:23:39.999Z</time></trkpt><trkpt lat="44.873019339489794" lon="8.092091608471254"><ele>166.0</ele><time>2026-04-19T07:23:40.999Z</time></trkpt><trkpt lat="44.87317079010159" lon="8.092073007420854"><ele>166.0</ele><time>2026-04-19T07:23:41.999Z</time></trkpt><trkpt lat="44.87330535020701" lon="8.092046948722674"><ele>166.0</ele><time>2026-04-19T07:23:42.999Z</time></trkpt><trkpt lat="44.873434816613084" lon="8.092019274885219"><ele>166.0</ele><time>2026-04-19T07:23:43.999Z</time></trkpt><trkpt lat="44.87355026771049" lon="8.091999171326963"><ele>166.0</ele><time>2026-04-19T07:23:44.999Z</time></trkpt><trkpt lat="44.87366387216695" lon="8.091982549662735"><ele>166.0</ele><time>2026-04-19T07:23:45.999Z</time></trkpt><trkpt lat="44.87379322652675" lon="8.091956246382042"><ele>166.0</ele><time>2026-04-19T07:23:46.999Z</time></trkpt><trkpt lat="44.873910389552265" lon="8.09194203351745"><ele>166.0</ele><time>2026-04-19T07:23:47.999Z</time></trkpt><trkpt lat="44.87402988225282" lon="8.091927957857111"><ele>166.0</ele><time>2026-04-19T07:23:48.999Z</time></trkpt><trkpt lat="44.87413624074653" lon="8.091914014902512"><ele>166.0</ele><time>2026-04-19T07:23:49.999Z</time></trkpt><trkpt lat="44.874237522294145" lon="8.091900296035579"><ele>166.0</ele><time>2026-04-19T07:23:50.999Z</time></trkpt><trkpt lat="44.87433864778138" lon="8.091877562703061"><ele>166.0</ele><time>2026-04-19T07:23:51.999Z</time></trkpt><trkpt lat="44.874435041421314" lon="8.091858792669013"><ele>166.0</ele><time>2026-04-19T07:23:52.999Z</time></trkpt><trkpt lat="44.874517296669154" lon="8.091842361034486"><ele>166.0</ele><time>2026-04-19T07:23:53.999Z</time></trkpt><trkpt lat="44.87459299414243" lon="8.091821522382787"><ele>166.16666666666669</ele><time>2026-04-19T07:23:54.999Z</time></trkpt><trkpt lat="44.87466030014862" lon="8.09181573303644"><ele>166.33333333333334</ele><time>2026-04-19T07:23:55.999Z</time></trkpt><trkpt lat="44.8747369086024" lon="8.091790905742348"><ele>166.5</ele><time>2026-04-19T07:23:56.999Z</time></trkpt><trkpt lat="44.874817703817286" lon="8.091772158139621"><ele>166.66666666666666</ele><time>2026-04-19T07:23:57.999Z</time></trkpt><trkpt lat="44.87490901095306" lon="8.091756027699079"><ele>166.83333333333331</ele><time>2026-04-19T07:23:58.999Z</time></trkpt><trkpt lat="44.87499397642847" lon="8.091746373125396"><ele>167.0</ele><time>2026-04-19T07:23:59.999Z</time></trkpt><trkpt lat="44.8750765403676" lon="8.091725962563155"><ele>166.8</ele><time>2026-04-19T07:24:00.999Z</time></trkpt><trkpt lat="44.87515915132309" lon="8.091671939835104"><ele>166.6</ele><time>2026-04-19T07:24:01.999Z</time></trkpt><trkpt lat="44.87524269985924" lon="8.09158766478891"><ele>166.4</ele><time>2026-04-19T07:24:02.999Z</time></trkpt><trkpt lat="44.875334654455145" lon="8.091479653614883"><ele>166.20000000000002</ele><time>2026-04-19T07:24:03.999Z</time></trkpt><trkpt lat="44.875412516615285" lon="8.091379158691277"><ele>166.0</ele><time>2026-04-19T07:24:04.999Z</time></trkpt><trkpt lat="44.87547538711396" lon="8.09129159937359"><ele>165.60000000000002</ele><time>2026-04-19T07:24:05.999Z</time></trkpt><trkpt lat="44.87554397143249" lon="8.091180900101264"><ele>165.2</ele><time>2026-04-19T07:24:07.999Z</time></trkpt><trkpt lat="44.87563774480684" lon="8.091150022784843"><ele>164.8</ele><time>2026-04-19T07:24:10.999Z</time></trkpt><trkpt lat="44.875726066420526" lon="8.09109837926449"><ele>164.39999999999998</ele><time>2026-04-19T07:24:12.999Z</time></trkpt><trkpt lat="44.87577223614112" lon="8.091008962563173"><ele>164.0</ele><time>2026-04-19T07:24:13.999Z</time></trkpt><trkpt lat="44.87581193846686" lon="8.090875917636506"><ele>163.79999999999998</ele><time>2026-04-19T07:24:14.999Z</time></trkpt><trkpt lat="44.875840804519456" lon="8.090743806522664"><ele>163.6</ele><time>2026-04-19T07:24:15.999Z</time></trkpt><trkpt lat="44.875867559132686" lon="8.090603084160314"><ele>163.4</ele><time>2026-04-19T07:24:17Z</time></trkpt><trkpt lat="44.87589030615887" lon="8.090460189567331"><ele>163.2</ele><time>2026-04-19T07:24:18Z</time></trkpt><trkpt lat="44.87591038217176" lon="8.090321162881308"><ele>163.0</ele><time>2026-04-19T07:24:19Z</time></trkpt><trkpt lat="44.8759181856813" lon="8.090192951116693"><ele>163.0</ele><time>2026-04-19T07:24:20Z</time></trkpt><trkpt lat="44.875923951193364" lon="8.090069846981018"><ele>163.0</ele><time>2026-04-19T07:24:21Z</time></trkpt><trkpt lat="44.87594333799049" lon="8.089944264824863"><ele>163.0</ele><time>2026-04-19T07:24:22Z</time></trkpt><trkpt lat="44.8759746111608" lon="8.089816532052689"><ele>163.0</ele><time>2026-04-19T07:24:23Z</time></trkpt><trkpt lat="44.876014502768754" lon="8.089682039903675"><ele>163.0</ele><time>2026-04-19T07:24:24Z</time></trkpt><trkpt lat="44.87604962531911" lon="8.08955070733679"><ele>164.4</ele><time>2026-04-19T07:24:25Z</time></trkpt><trkpt lat="44.8760803024561" lon="8.089420408384717"><ele>165.8</ele><time>2026-04-19T07:24:26Z</time></trkpt><trkpt lat="44.87611286469785" lon="8.089289932332395"><ele>167.2</ele><time>2026-04-19T07:24:27Z</time></trkpt><trkpt lat="44.87615009656045" lon="8.089177184446665"><ele>168.6</ele><time>2026-04-19T07:24:28Z</time></trkpt><trkpt lat="44.87618209465763" lon="8.089049097733419"><ele>170.0</ele><time>2026-04-19T07:24:29Z</time></trkpt><trkpt lat="44.876211121942696" lon="8.088916013522256"><ele>170.0</ele><time>2026-04-19T07:24:30Z</time></trkpt><trkpt lat="44.876240524015174" lon="8.088780734295495"><ele>170.0</ele><time>2026-04-19T07:24:31Z</time></trkpt><trkpt lat="44.87627058934017" lon="8.088647811201492"><ele>170.0</ele><time>2026-04-19T07:24:32Z</time></trkpt><trkpt lat="44.87629731656659" lon="8.088508901582964"><ele>170.0</ele><time>2026-04-19T07:24:33Z</time></trkpt><trkpt lat="44.87631692291654" lon="8.088369220638883"><ele>170.0</ele><time>2026-04-19T07:24:34Z</time></trkpt><trkpt lat="44.876322515100505" lon="8.088216656740542"><ele>170.0</ele><time>2026-04-19T07:24:35Z</time></trkpt><trkpt lat="44.87632430654396" lon="8.088066937606428"><ele>170.0</ele><time>2026-04-19T07:24:36Z</time></trkpt><trkpt lat="44.876323314129415" lon="8.087924318931682"><ele>170.0</ele><time>2026-04-19T07:24:37Z</time></trkpt><trkpt lat="44.876334014310835" lon="8.087779176743927"><ele>170.0</ele><time>2026-04-19T07:24:38Z</time></trkpt><trkpt lat="44.87633283843492" lon="8.087649261857598"><ele>170.0</ele><time>2026-04-19T07:24:39Z</time></trkpt><trkpt lat="44.87633393635681" lon="8.087510397287874"><ele>170.75</ele><time>2026-04-19T07:24:40Z</time></trkpt><trkpt lat="44.87633563000451" lon="8.087355544493054"><ele>171.5</ele><time>2026-04-19T07:24:41Z</time></trkpt><trkpt lat="44.87633772351502" lon="8.087194772672916"><ele>172.25</ele><time>2026-04-19T07:24:42Z</time></trkpt><trkpt lat="44.876335517007405" lon="8.087028783857043"><ele>173.0</ele><time>2026-04-19T07:24:43Z</time></trkpt><trkpt lat="44.87633279560881" lon="8.086855165320303"><ele>173.0</ele><time>2026-04-19T07:24:44Z</time></trkpt><trkpt lat="44.876329898022355" lon="8.086684413430014"><ele>173.0</ele><time>2026-04-19T07:24:45Z</time></trkpt><trkpt lat="44.87632757021141" lon="8.086529979931004"><ele>173.0</ele><time>2026-04-19T07:24:46Z</time></trkpt><trkpt lat="44.876324402718964" lon="8.086379241754013"><ele>173.0</ele><time>2026-04-19T07:24:47Z</time></trkpt><trkpt lat="44.87632047832885" lon="8.086242249379477"><ele>173.0</ele><time>2026-04-19T07:24:48Z</time></trkpt><trkpt lat="44.87632623077523" lon="8.086105333727113"><ele>172.83333333333331</ele><time>2026-04-19T07:24:49Z</time></trkpt><trkpt lat="44.87632885158979" lon="8.085978621972444"><ele>172.66666666666666</ele><time>2026-04-19T07:24:50Z</time></trkpt><trkpt lat="44.87632596468615" lon="8.085851668819972"><ele>172.5</ele><time>2026-04-19T07:24:51Z</time></trkpt><trkpt lat="44.876327521120146" lon="8.085728384406622"><ele>172.33333333333334</ele><time>2026-04-19T07:24:52Z</time></trkpt><trkpt lat="44.87632603148875" lon="8.085605817162511"><ele>172.16666666666669</ele><time>2026-04-19T07:24:53Z</time></trkpt><trkpt lat="44.87632550306149" lon="8.085486669535314"><ele>172.0</ele><time>2026-04-19T07:24:54Z</time></trkpt><trkpt lat="44.876312513525065" lon="8.08535963556011"><ele>172.0</ele><time>2026-04-19T07:24:55Z</time></trkpt><trkpt lat="44.8762938688089" lon="8.08519933766773"><ele>172.0</ele><time>2026-04-19T07:24:56Z</time></trkpt><trkpt lat="44.87627716504954" lon="8.085011889743361"><ele>172.0</ele><time>2026-04-19T07:24:57Z</time></trkpt><trkpt lat="44.87627008691719" lon="8.08478266447138"><ele>172.0</ele><time>2026-04-19T07:24:58Z</time></trkpt><trkpt lat="44.87627945903265" lon="8.08458582651302"><ele>172.0</ele><time>2026-04-19T07:24:59Z</time></trkpt><trkpt lat="44.87632104584907" lon="8.08437619676997"><ele>172.0</ele><time>2026-04-19T07:25:00Z</time></trkpt><trkpt lat="44.87638692307109" lon="8.084144740113086"><ele>172.0</ele><time>2026-04-19T07:25:01Z</time></trkpt><trkpt lat="44.876439595784305" lon="8.083930813939066"><ele>172.25</ele><time>2026-04-19T07:25:02Z</time></trkpt><trkpt lat="44.8764754134875" lon="8.083748512818467"><ele>172.5</ele><time>2026-04-19T07:25:03Z</time></trkpt><trkpt lat="44.87651721247265" lon="8.083589213484016"><ele>172.75</ele><time>2026-04-19T07:25:04Z</time></trkpt><trkpt lat="44.87657282085978" lon="8.083432093516976"><ele>173.0</ele><time>2026-04-19T07:25:05Z</time></trkpt><trkpt lat="44.876625209539846" lon="8.083283113615133"><ele>173.75</ele><time>2026-04-19T07:25:06Z</time></trkpt><trkpt lat="44.876642271337445" lon="8.083132499426455"><ele>174.5</ele><time>2026-04-19T07:25:07Z</time></trkpt><trkpt lat="44.876642426143846" lon="8.082944146775063"><ele>175.25</ele><time>2026-04-19T07:25:08Z</time></trkpt><trkpt lat="44.87664977149115" lon="8.082758784516084"><ele>176.0</ele><time>2026-04-19T07:25:09Z</time></trkpt><trkpt lat="44.87666484640812" lon="8.082590438805093"><ele>176.0</ele><time>2026-04-19T07:25:10Z</time></trkpt><trkpt lat="44.87668835634099" lon="8.082437256204031"><ele>176.0</ele><time>2026-04-19T07:25:11Z</time></trkpt><trkpt lat="44.87670761521689" lon="8.082284141695656"><ele>176.0</ele><time>2026-04-19T07:25:12Z</time></trkpt><trkpt lat="44.8767247830172" lon="8.082139940420072"><ele>176.0</ele><time>2026-04-19T07:25:13Z</time></trkpt><trkpt lat="44.87674150887521" lon="8.08203586711005"><ele>176.0</ele><time>2026-04-19T07:25:14Z</time></trkpt><trkpt lat="44.876687265598356" lon="8.08194094375079"><ele>177.4</ele><time>2026-04-19T07:25:16Z</time></trkpt><trkpt lat="44.87659528088676" lon="8.081905282307831"><ele>178.8</ele><time>2026-04-19T07:25:17Z</time></trkpt><trkpt lat="44.876462804727005" lon="8.081833202871058"><ele>180.20000000000002</ele><time>2026-04-19T07:25:18Z</time></trkpt><trkpt lat="44.8763658276993" lon="8.081753116364819"><ele>181.60000000000002</ele><time>2026-04-19T07:25:19Z</time></trkpt><trkpt lat="44.876312264463664" lon="8.081648384675612"><ele>183.0</ele><time>2026-04-19T07:25:20Z</time></trkpt><trkpt lat="44.87625646402132" lon="8.081542203875015"><ele>183.5</ele><time>2026-04-19T07:25:21Z</time></trkpt><trkpt lat="44.87620196423271" lon="8.08145370748576"><ele>184.0</ele><time>2026-04-19T07:25:22Z</time></trkpt><trkpt lat="44.87617058539407" lon="8.081372109192738"><ele>184.5</ele><time>2026-04-19T07:25:23Z</time></trkpt><trkpt lat="44.87614233833385" lon="8.081228327696813"><ele>185.0</ele><time>2026-04-19T07:25:24.999Z</time></trkpt><trkpt lat="44.87612012677328" lon="8.081105926311592"><ele>185.5</ele><time>2026-04-19T07:25:26.999Z</time></trkpt><trkpt lat="44.876094464519774" lon="8.080971989173507"><ele>186.0</ele><time>2026-04-19T07:25:28.999Z</time></trkpt><trkpt lat="44.87606572237871" lon="8.080835760755294"><ele>186.25</ele><time>2026-04-19T07:25:30.999Z</time></trkpt><trkpt lat="44.876033007934986" lon="8.080717800638944"><ele>186.5</ele><time>2026-04-19T07:25:32.999Z</time></trkpt><trkpt lat="44.875998026541396" lon="8.080559373097106"><ele>186.75</ele><time>2026-04-19T07:25:34.999Z</time></trkpt><trkpt lat="44.875969786821265" lon="8.080413366455671"><ele>187.0</ele><time>2026-04-19T07:25:36.999Z</time></trkpt><trkpt lat="44.875932846527846" lon="8.080226528532448"><ele>188.83333333333334</ele><time>2026-04-19T07:25:38.999Z</time></trkpt><trkpt lat="44.875927228528504" lon="8.08013611470556"><ele>190.66666666666669</ele><time>2026-04-19T07:25:39.999Z</time></trkpt><trkpt lat="44.87593248189215" lon="8.079992326362142"><ele>192.5</ele><time>2026-04-19T07:25:41.999Z</time></trkpt><trkpt lat="44.87592043961292" lon="8.079826597969829"><ele>194.33333333333334</ele><time>2026-04-19T07:25:43.999Z</time></trkpt><trkpt lat="44.875917749489865" lon="8.079713893320877"><ele>196.16666666666666</ele><time>2026-04-19T07:25:44.999Z</time></trkpt><trkpt lat="44.87591489987586" lon="8.0796243606512"><ele>198.0</ele><time>2026-04-19T07:25:45.999Z</time></trkpt><trkpt lat="44.87591515416398" lon="8.079472583211354"><ele>199.0</ele><time>2026-04-19T07:25:47.999Z</time></trkpt><trkpt lat="44.87589296223221" lon="8.079314061054049"><ele>200.0</ele><time>2026-04-19T07:25:49.999Z</time></trkpt><trkpt lat="44.87588574338219" lon="8.079156039148282"><ele>201.0</ele><time>2026-04-19T07:25:51.999Z</time></trkpt><trkpt lat="44.87588235737224" lon="8.079010177285834"><ele>202.0</ele><time>2026-04-19T07:25:53.999Z</time></trkpt><trkpt lat="44.87588572709819" lon="8.078850263760694"><ele>203.0</ele><time>2026-04-19T07:25:55.999Z</time></trkpt><trkpt lat="44.8758868265995" lon="8.078754594113876"><ele>204.00000000000003</ele><time>2026-04-19T07:25:56.999Z</time></trkpt><trkpt lat="44.875895109906466" lon="8.07863294926667"><ele>205.0</ele><time>2026-04-19T07:25:57.999Z</time></trkpt><trkpt lat="44.87590439621586" lon="8.078510243587152"><ele>206.0</ele><time>2026-04-19T07:25:58.999Z</time></trkpt><trkpt lat="44.8759117133922" lon="8.078392716850542"><ele>207.0</ele><time>2026-04-19T07:25:59.999Z</time></trkpt><trkpt lat="44.875916569180916" lon="8.078265280874628"><ele>208.00000000000003</ele><time>2026-04-19T07:26:00.999Z</time></trkpt><trkpt lat="44.87591502464466" lon="8.078152801426889"><ele>209.0</ele><time>2026-04-19T07:26:01.999Z</time></trkpt><trkpt lat="44.875909178107484" lon="8.078043061659722"><ele>210.00000000000003</ele><time>2026-04-19T07:26:02.999Z</time></trkpt><trkpt lat="44.875896512635975" lon="8.077936116852772"><ele>211.0</ele><time>2026-04-19T07:26:03.999Z</time></trkpt><trkpt lat="44.87587085412665" lon="8.077836659465078"><ele>212.0</ele><time>2026-04-19T07:26:04.999Z</time></trkpt><trkpt lat="44.87582435102135" lon="8.077735683327344"><ele>213.0</ele><time>2026-04-19T07:26:05.999Z</time></trkpt><trkpt lat="44.87576931922398" lon="8.077645911197914"><ele>214.00000000000003</ele><time>2026-04-19T07:26:06.999Z</time></trkpt><trkpt lat="44.875716051015615" lon="8.077587692626384"><ele>215.0</ele><time>2026-04-19T07:26:07.999Z</time></trkpt><trkpt lat="44.87562821477227" lon="8.077520863958018"><ele>215.8</ele><time>2026-04-19T07:26:09.999Z</time></trkpt><trkpt lat="44.87561401462605" lon="8.07739483817296"><ele>216.6</ele><time>2026-04-19T07:26:12.999Z</time></trkpt><trkpt lat="44.87567139243166" lon="8.077263102388072"><ele>217.39999999999998</ele><time>2026-04-19T07:26:14.999Z</time></trkpt><trkpt lat="44.87570793829174" lon="8.077149642861421"><ele>218.2</ele><time>2026-04-19T07:26:16.999Z</time></trkpt><trkpt lat="44.87562759510251" lon="8.077114934149083"><ele>219.0</ele><time>2026-04-19T07:26:30Z</time></trkpt><trkpt lat="44.87558837481179" lon="8.077220890781241"><ele>219.0</ele><time>2026-04-19T07:26:33Z</time></trkpt><trkpt lat="44.875542820941476" lon="8.077301546843197"><ele>219.0</ele><time>2026-04-19T07:26:37Z</time></trkpt><trkpt lat="44.87547243717937" lon="8.07732767968889"><ele>219.0</ele><time>2026-04-19T07:26:43Z</time></trkpt><trkpt lat="44.8753956874732" lon="8.077286617112954"><ele>219.0</ele><time>2026-04-19T07:26:47Z</time></trkpt><trkpt lat="44.87532006362341" lon="8.077192323493106"><ele>219.0</ele><time>2026-04-19T07:26:50Z</time></trkpt><trkpt lat="44.87525293078145" lon="8.077137355589521"><ele>219.0</ele><time>2026-04-19T07:26:53Z</time></trkpt><trkpt lat="44.87519176264495" lon="8.077094120661455"><ele>219.0</ele><time>2026-04-19T07:26:56Z</time></trkpt><trkpt lat="44.87512207830876" lon="8.077036310796206"><ele>218.99999999999997</ele><time>2026-04-19T07:26:58Z</time></trkpt><trkpt lat="44.87504729091889" lon="8.076949104811534"><ele>218.99999999999997</ele><time>2026-04-19T07:27:00Z</time></trkpt><trkpt lat="44.87500471032459" lon="8.076855850428647"><ele>219.0</ele><time>2026-04-19T07:27:03Z</time></trkpt><trkpt lat="44.8749690644038" lon="8.076750411697848"><ele>219.0</ele><time>2026-04-19T07:27:05Z</time></trkpt><trkpt lat="44.87491480874691" lon="8.076614120595151"><ele>216.39999999999998</ele><time>2026-04-19T07:27:07Z</time></trkpt><trkpt lat="44.87487123625672" lon="8.076497712101103"><ele>213.79999999999998</ele><time>2026-04-19T07:27:09Z</time></trkpt><trkpt lat="44.87482592232708" lon="8.076397701366906"><ele>211.2</ele><time>2026-04-19T07:27:11Z</time></trkpt><trkpt lat="44.87477616370462" lon="8.076281107032921"><ele>208.60000000000002</ele><time>2026-04-19T07:27:13Z</time></trkpt><trkpt lat="44.87473038765187" lon="8.076137811321658"><ele>206.0</ele><time>2026-04-19T07:27:15Z</time></trkpt><trkpt lat="44.874700520259374" lon="8.075989334145165"><ele>206.0</ele><time>2026-04-19T07:27:17Z</time></trkpt><trkpt lat="44.87467152356588" lon="8.075852592404164"><ele>206.0</ele><time>2026-04-19T07:27:19Z</time></trkpt><trkpt lat="44.87465051698652" lon="8.075701857979382"><ele>206.0</ele><time>2026-04-19T07:27:21Z</time></trkpt><trkpt lat="44.87461878697812" lon="8.075538202450586"><ele>206.0</ele><time>2026-04-19T07:27:23Z</time></trkpt><trkpt lat="44.874598370535494" lon="8.075443216499727"><ele>206.0</ele><time>2026-04-19T07:27:24Z</time></trkpt><trkpt lat="44.87458381074061" lon="8.075352282992599"><ele>204.60000000000002</ele><time>2026-04-19T07:27:25Z</time></trkpt><trkpt lat="44.87457012111603" lon="8.075263739672689"><ele>203.2</ele><time>2026-04-19T07:27:26Z</time></trkpt><trkpt lat="44.87455096348338" lon="8.075159720512717"><ele>201.8</ele><time>2026-04-19T07:27:27Z</time></trkpt><trkpt lat="44.8745138613547" lon="8.075010616477401"><ele>200.39999999999998</ele><time>2026-04-19T07:27:28.999Z</time></trkpt><trkpt lat="44.87441739153515" lon="8.075056810296841"><ele>199.0</ele><time>2026-04-19T07:27:31.999Z</time></trkpt><trkpt lat="44.87437594725469" lon="8.075181229549615"><ele>198.99999999999997</ele><time>2026-04-19T07:27:32.999Z</time></trkpt><trkpt lat="44.87434063009174" lon="8.075289629770024"><ele>199.0</ele><time>2026-04-19T07:27:33.999Z</time></trkpt><trkpt lat="44.87428918553852" lon="8.075391323346752"><ele>199.0</ele><time>2026-04-19T07:27:34.999Z</time></trkpt><trkpt lat="44.87422871802394" lon="8.075484868853815"><ele>199.0</ele><time>2026-04-19T07:27:35.999Z</time></trkpt><trkpt lat="44.874172947764706" lon="8.075567919276194"><ele>198.99999999999997</ele><time>2026-04-19T07:27:36.999Z</time></trkpt><trkpt lat="44.87410599420677" lon="8.075646229635167"><ele>199.0</ele><time>2026-04-19T07:27:37.999Z</time></trkpt><trkpt lat="44.87404636239034" lon="8.075723071686946"><ele>199.0</ele><time>2026-04-19T07:27:38.999Z</time></trkpt><trkpt lat="44.873997021894574" lon="8.075819708294375"><ele>199.0</ele><time>2026-04-19T07:27:39.999Z</time></trkpt><trkpt lat="44.87394160604923" lon="8.07593420009077"><ele>199.0</ele><time>2026-04-19T07:27:40.999Z</time></trkpt><trkpt lat="44.873884702259396" lon="8.07604115937698"><ele>199.0</ele><time>2026-04-19T07:27:41.999Z</time></trkpt><trkpt lat="44.873803350019664" lon="8.07614907319603"><ele>199.0</ele><time>2026-04-19T07:27:42.999Z</time></trkpt><trkpt lat="44.873729633141785" lon="8.076235278796565"><ele>199.0</ele><time>2026-04-19T07:27:43.999Z</time></trkpt><trkpt lat="44.87364449423379" lon="8.076290525231082"><ele>199.0</ele><time>2026-04-19T07:27:44.999Z</time></trkpt><trkpt lat="44.87355338550877" lon="8.076358418291079"><ele>199.0</ele><time>2026-04-19T07:27:45.999Z</time></trkpt><trkpt lat="44.873443917619305" lon="8.076429232662019"><ele>199.0</ele><time>2026-04-19T07:27:46.999Z</time></trkpt><trkpt lat="44.87334028712041" lon="8.076493390273246"><ele>199.0</ele><time>2026-04-19T07:27:47.999Z</time></trkpt><trkpt lat="44.873238500525986" lon="8.076545912978569"><ele>198.39999999999998</ele><time>2026-04-19T07:27:48.999Z</time></trkpt><trkpt lat="44.87313718268084" lon="8.07659180433481"><ele>197.8</ele><time>2026-04-19T07:27:49.999Z</time></trkpt><trkpt lat="44.87304147416735" lon="8.076612707322653"><ele>197.2</ele><time>2026-04-19T07:27:50.999Z</time></trkpt><trkpt lat="44.87294652340528" lon="8.07662351912738"><ele>196.60000000000002</ele><time>2026-04-19T07:27:51.999Z</time></trkpt><trkpt lat="44.87285878110677" lon="8.076648051003732"><ele>196.0</ele><time>2026-04-19T07:27:52.999Z</time></trkpt><trkpt lat="44.872786863381094" lon="8.076683740589035"><ele>196.0</ele><time>2026-04-19T07:27:53.999Z</time></trkpt><trkpt lat="44.87264161394369" lon="8.07664846656437"><ele>196.0</ele><time>2026-04-19T07:27:55.999Z</time></trkpt><trkpt lat="44.87252131539179" lon="8.076554426109512"><ele>196.0</ele><time>2026-04-19T07:27:56.999Z</time></trkpt><trkpt lat="44.87240568204259" lon="8.076529824485057"><ele>196.0</ele><time>2026-04-19T07:27:57.999Z</time></trkpt><trkpt lat="44.8722837471861" lon="8.07652914821103"><ele>196.8</ele><time>2026-04-19T07:27:58.999Z</time></trkpt><trkpt lat="44.872168010416104" lon="8.076517661365587"><ele>197.60000000000002</ele><time>2026-04-19T07:27:59.999Z</time></trkpt><trkpt lat="44.87205492416196" lon="8.076501565116136"><ele>198.4</ele><time>2026-04-19T07:28:00.999Z</time></trkpt><trkpt lat="44.87194705702248" lon="8.076476888443826"><ele>199.2</ele><time>2026-04-19T07:28:01.999Z</time></trkpt><trkpt lat="44.87184181738245" lon="8.076478448861996"><ele>200.0</ele><time>2026-04-19T07:28:02.999Z</time></trkpt><trkpt lat="44.871750475751845" lon="8.076503154849544"><ele>200.00000000000003</ele><time>2026-04-19T07:28:03.999Z</time></trkpt><trkpt lat="44.87166794632698" lon="8.076548812811279"><ele>200.0</ele><time>2026-04-19T07:28:04.999Z</time></trkpt><trkpt lat="44.871587073608644" lon="8.076603033051104"><ele>200.0</ele><time>2026-04-19T07:28:05.999Z</time></trkpt><trkpt lat="44.87150582633399" lon="8.076640703160061"><ele>200.0</ele><time>2026-04-19T07:28:06.999Z</time></trkpt><trkpt lat="44.87142083528195" lon="8.076659362362795"><ele>200.00000000000003</ele><time>2026-04-19T07:28:07.999Z</time></trkpt><trkpt lat="44.871332961778776" lon="8.076664685571359"><ele>200.0</ele><time>2026-04-19T07:28:08.999Z</time></trkpt><trkpt lat="44.87124209185745" lon="8.076661785534805"><ele>200.0</ele><time>2026-04-19T07:28:09.999Z</time></trkpt><trkpt lat="44.871151664908254" lon="8.076645823149438"><ele>200.0</ele><time>2026-04-19T07:28:10.999Z</time></trkpt><trkpt lat="44.87105775896038" lon="8.07661524523434"><ele>200.0</ele><time>2026-04-19T07:28:11.999Z</time></trkpt><trkpt lat="44.87095957985026" lon="8.076584840779278"><ele>200.0</ele><time>2026-04-19T07:28:12.999Z</time></trkpt><trkpt lat="44.87085918885845" lon="8.076565700855022"><ele>200.0</ele><time>2026-04-19T07:28:13.999Z</time></trkpt><trkpt lat="44.87075713688618" lon="8.076553150035389"><ele>199.4</ele><time>2026-04-19T07:28:14.999Z</time></trkpt><trkpt lat="44.870653516343566" lon="8.0765458943146"><ele>198.8</ele><time>2026-04-19T07:28:15.999Z</time></trkpt><trkpt lat="44.870552729816694" lon="8.076551461196711"><ele>198.2</ele><time>2026-04-19T07:28:16.999Z</time></trkpt><trkpt lat="44.870452154424484" lon="8.076564811521253"><ele>197.6</ele><time>2026-04-19T07:28:17.999Z</time></trkpt><trkpt lat="44.87035880066523" lon="8.076581421929165"><ele>197.0</ele><time>2026-04-19T07:28:18.999Z</time></trkpt><trkpt lat="44.87028231155231" lon="8.07660349960989"><ele>197.00000000000003</ele><time>2026-04-19T07:28:19.999Z</time></trkpt><trkpt lat="44.870204081059974" lon="8.076611370620288"><ele>197.0</ele><time>2026-04-19T07:28:21.999Z</time></trkpt><trkpt lat="44.870173433577804" lon="8.076520175437985"><ele>197.0</ele><time>2026-04-19T07:28:23.999Z</time></trkpt><trkpt lat="44.87016697266432" lon="8.076345167292173"><ele>197.0</ele><time>2026-04-19T07:28:25.999Z</time></trkpt><trkpt lat="44.87016912846299" lon="8.076254362127058"><ele>197.00000000000003</ele><time>2026-04-19T07:28:26.999Z</time></trkpt><trkpt lat="44.870159721146415" lon="8.076152241971368"><ele>197.0</ele><time>2026-04-19T07:28:27.999Z</time></trkpt><trkpt lat="44.87014459929685" lon="8.07605241408129"><ele>197.00000000000003</ele><time>2026-04-19T07:28:29Z</time></trkpt><trkpt lat="44.870133064866664" lon="8.075948354757475"><ele>197.0</ele><time>2026-04-19T07:28:30Z</time></trkpt><trkpt lat="44.87013050577333" lon="8.075849614554949"><ele>197.0</ele><time>2026-04-19T07:28:31Z</time></trkpt><trkpt lat="44.87012678530324" lon="8.075689931406178"><ele>197.0</ele><time>2026-04-19T07:28:33Z</time></trkpt><trkpt lat="44.870188780837076" lon="8.0756181835301"><ele>197.00000000000003</ele><time>2026-04-19T07:28:36Z</time></trkpt><trkpt lat="44.87024516001493" lon="8.07557706875273"><ele>197.0</ele><time>2026-04-19T07:28:38Z</time></trkpt><trkpt lat="44.870331628030826" lon="8.075487398326073"><ele>197.39999999999998</ele><time>2026-04-19T07:28:40Z</time></trkpt><trkpt lat="44.87039633060176" lon="8.075491231542207"><ele>197.79999999999998</ele><time>2026-04-19T07:28:41Z</time></trkpt><trkpt lat="44.87051190131558" lon="8.075506849363482"><ele>198.2</ele><time>2026-04-19T07:28:42Z</time></trkpt><trkpt lat="44.8706149864792" lon="8.075509820383798"><ele>198.6</ele><time>2026-04-19T07:28:43Z</time></trkpt><trkpt lat="44.870724285109674" lon="8.075496368209839"><ele>199.0</ele><time>2026-04-19T07:28:44Z</time></trkpt><trkpt lat="44.870838357182166" lon="8.075489733958408"><ele>198.99999999999997</ele><time>2026-04-19T07:28:45Z</time></trkpt><trkpt lat="44.870923598319024" lon="8.075489474632514"><ele>199.0</ele><time>2026-04-19T07:28:46Z</time></trkpt><trkpt lat="44.87099533545856" lon="8.075523810651402"><ele>199.0</ele><time>2026-04-19T07:28:47Z</time></trkpt><trkpt lat="44.87108149191991" lon="8.075541073963365"><ele>199.0</ele><time>2026-04-19T07:28:48Z</time></trkpt><trkpt lat="44.8711672526828" lon="8.07554880356675"><ele>198.99999999999997</ele><time>2026-04-19T07:28:49Z</time></trkpt><trkpt lat="44.871236857428684" lon="8.075505723932151"><ele>199.0</ele><time>2026-04-19T07:28:50Z</time></trkpt><trkpt lat="44.87132711829042" lon="8.075459373173857"><ele>200.79999999999998</ele><time>2026-04-19T07:28:51Z</time></trkpt><trkpt lat="44.871403564768165" lon="8.075428595414245"><ele>202.6</ele><time>2026-04-19T07:28:52Z</time></trkpt><trkpt lat="44.87148786350012" lon="8.075404103350362"><ele>204.4</ele><time>2026-04-19T07:28:53Z</time></trkpt><trkpt lat="44.87159966974965" lon="8.075385106397208"><ele>206.2</ele><time>2026-04-19T07:28:54Z</time></trkpt><trkpt lat="44.87168159549547" lon="8.075324694720242"><ele>208.0</ele><time>2026-04-19T07:28:55Z</time></trkpt><trkpt lat="44.87175792119946" lon="8.075271053232598"><ele>208.4</ele><time>2026-04-19T07:28:56Z</time></trkpt><trkpt lat="44.87182330016624" lon="8.075180146209366"><ele>208.8</ele><time>2026-04-19T07:28:57Z</time></trkpt><trkpt lat="44.87189581639241" lon="8.07506040143275"><ele>209.2</ele><time>2026-04-19T07:28:58Z</time></trkpt><trkpt lat="44.87196487778916" lon="8.074975985150251"><ele>209.6</ele><time>2026-04-19T07:28:59Z</time></trkpt><trkpt lat="44.87201709452122" lon="8.074880266025952"><ele>210.0</ele><time>2026-04-19T07:29:00Z</time></trkpt><trkpt lat="44.87207756766702" lon="8.074821227515695"><ele>210.6</ele><time>2026-04-19T07:29:01Z</time></trkpt><trkpt lat="44.87215721482141" lon="8.074734665831931"><ele>211.2</ele><time>2026-04-19T07:29:02Z</time></trkpt><trkpt lat="44.87223784264547" lon="8.074693365974554"><ele>211.8</ele><time>2026-04-19T07:29:03Z</time></trkpt><trkpt lat="44.87233585541416" lon="8.074647852896993"><ele>212.4</ele><time>2026-04-19T07:29:04Z</time></trkpt><trkpt lat="44.87242465567995" lon="8.07461016434032"><ele>213.0</ele><time>2026-04-19T07:29:05Z</time></trkpt><trkpt lat="44.87249561060152" lon="8.074555125425004"><ele>213.0</ele><time>2026-04-19T07:29:06Z</time></trkpt><trkpt lat="44.87256156411886" lon="8.074483302317976"><ele>213.0</ele><time>2026-04-19T07:29:07Z</time></trkpt><trkpt lat="44.87264314888513" lon="8.074391523748355"><ele>213.0</ele><time>2026-04-19T07:29:08Z</time></trkpt><trkpt lat="44.87271107128279" lon="8.074293333982578"><ele>213.0</ele><time>2026-04-19T07:29:09Z</time></trkpt><trkpt lat="44.87278109579616" lon="8.074191022102738"><ele>213.0</ele><time>2026-04-19T07:29:10Z</time></trkpt><trkpt lat="44.87284806939841" lon="8.074110166846202"><ele>214.5</ele><time>2026-04-19T07:29:11Z</time></trkpt><trkpt lat="44.8729016981511" lon="8.074024963605455"><ele>216.0</ele><time>2026-04-19T07:29:12Z</time></trkpt><trkpt lat="44.872954816252154" lon="8.07392410964357"><ele>217.5</ele><time>2026-04-19T07:29:13Z</time></trkpt><trkpt lat="44.873011368627324" lon="8.073813192887314"><ele>219.0</ele><time>2026-04-19T07:29:14Z</time></trkpt><trkpt lat="44.87305656354083" lon="8.073710615236232"><ele>220.5</ele><time>2026-04-19T07:29:15Z</time></trkpt><trkpt lat="44.87309680324" lon="8.0736011095695"><ele>222.0</ele><time>2026-04-19T07:29:16Z</time></trkpt><trkpt lat="44.87312890959862" lon="8.073494746240964"><ele>222.0</ele><time>2026-04-19T07:29:17Z</time></trkpt><trkpt lat="44.87317552220211" lon="8.073403122049939"><ele>222.0</ele><time>2026-04-19T07:29:18Z</time></trkpt><trkpt lat="44.873225277443204" lon="8.073328494795762"><ele>222.0</ele><time>2026-04-19T07:29:19Z</time></trkpt><trkpt lat="44.87327989371301" lon="8.073270242214328"><ele>222.0</ele><time>2026-04-19T07:29:20Z</time></trkpt><trkpt lat="44.87339991377599" lon="8.07321134942482"><ele>222.0</ele><time>2026-04-19T07:29:22Z</time></trkpt><trkpt lat="44.87346613989138" lon="8.07317026682805"><ele>222.0</ele><time>2026-04-19T07:29:23Z</time></trkpt><trkpt lat="44.873528036372775" lon="8.073152205915077"><ele>223.0</ele><time>2026-04-19T07:29:24Z</time></trkpt><trkpt lat="44.87362143700176" lon="8.073113288879172"><ele>224.0</ele><time>2026-04-19T07:29:26Z</time></trkpt><trkpt lat="44.87373318964348" lon="8.07305883819092"><ele>225.0</ele><time>2026-04-19T07:29:28Z</time></trkpt><trkpt lat="44.87384446819124" lon="8.072977689218682"><ele>226.0</ele><time>2026-04-19T07:29:30Z</time></trkpt><trkpt lat="44.873905759837974" lon="8.072923871450298"><ele>227.0</ele><time>2026-04-19T07:29:31Z</time></trkpt><trkpt lat="44.8739595738135" lon="8.072855262863541"><ele>227.0</ele><time>2026-04-19T07:29:32Z</time></trkpt><trkpt lat="44.87400840483757" lon="8.072789901573431"><ele>227.00000000000003</ele><time>2026-04-19T07:29:33Z</time></trkpt><trkpt lat="44.87406378257767" lon="8.072726040274565"><ele>227.0</ele><time>2026-04-19T07:29:34Z</time></trkpt><trkpt lat="44.87413852656434" lon="8.072663013755804"><ele>227.0</ele><time>2026-04-19T07:29:34.999Z</time></trkpt><trkpt lat="44.87419579244421" lon="8.072591648420577"><ele>227.00000000000003</ele><time>2026-04-19T07:29:35.999Z</time></trkpt><trkpt lat="44.874250085089265" lon="8.07251980613336"><ele>227.0</ele><time>2026-04-19T07:29:36.999Z</time></trkpt><trkpt lat="44.87430147080369" lon="8.072466573884428"><ele>227.0</ele><time>2026-04-19T07:29:37.999Z</time></trkpt><trkpt lat="44.87436212888892" lon="8.072407551897028"><ele>226.85714285714286</ele><time>2026-04-19T07:29:38.999Z</time></trkpt><trkpt lat="44.8744263838217" lon="8.072367073497272"><ele>226.71428571428572</ele><time>2026-04-19T07:29:39.999Z</time></trkpt><trkpt lat="44.87450422157277" lon="8.07233581671524"><ele>226.57142857142858</ele><time>2026-04-19T07:29:40.999Z</time></trkpt><trkpt lat="44.874573625049685" lon="8.072332337163003"><ele>226.42857142857144</ele><time>2026-04-19T07:29:41.999Z</time></trkpt><trkpt lat="44.87464859610136" lon="8.072347066120026"><ele>226.28571428571428</ele><time>2026-04-19T07:29:42.999Z</time></trkpt><trkpt lat="44.87471816881443" lon="8.072363112417793"><ele>226.14285714285717</ele><time>2026-04-19T07:29:43.999Z</time></trkpt><trkpt lat="44.874794134016085" lon="8.072364705144432"><ele>226.0</ele><time>2026-04-19T07:29:44.999Z</time></trkpt><trkpt lat="44.87486581624023" lon="8.07232952709248"><ele>226.0</ele><time>2026-04-19T07:29:45.999Z</time></trkpt><trkpt lat="44.87492768601559" lon="8.072264490944988"><ele>226.0</ele><time>2026-04-19T07:29:46.999Z</time></trkpt><trkpt lat="44.874983358778906" lon="8.072177101892297"><ele>226.0</ele><time>2026-04-19T07:29:47.999Z</time></trkpt><trkpt lat="44.87503205573205" lon="8.072099510877994"><ele>226.0</ele><time>2026-04-19T07:29:48.999Z</time></trkpt><trkpt lat="44.875078274541636" lon="8.072025854136967"><ele>226.0</ele><time>2026-04-19T07:29:49.999Z</time></trkpt><trkpt lat="44.87512981994332" lon="8.071956034333006"><ele>226.0</ele><time>2026-04-19T07:29:50.999Z</time></trkpt><trkpt lat="44.87518256863737" lon="8.071903468816894"><ele>226.0</ele><time>2026-04-19T07:29:51.999Z</time></trkpt><trkpt lat="44.8752348917529" lon="8.071846211952158"><ele>225.33333333333331</ele><time>2026-04-19T07:29:52.999Z</time></trkpt><trkpt lat="44.875282684667084" lon="8.07178262485904"><ele>224.66666666666666</ele><time>2026-04-19T07:29:53.999Z</time></trkpt><trkpt lat="44.875331547149756" lon="8.071714644934868"><ele>224.0</ele><time>2026-04-19T07:29:54.999Z</time></trkpt><trkpt lat="44.87541175947338" lon="8.071600196889428"><ele>223.33333333333331</ele><time>2026-04-19T07:29:56.999Z</time></trkpt><trkpt lat="44.875486784434386" lon="8.071536150510742"><ele>222.66666666666666</ele><time>2026-04-19T07:29:58.999Z</time></trkpt><trkpt lat="44.875546235378856" lon="8.071491314315479"><ele>222.0</ele><time>2026-04-19T07:29:59.999Z</time></trkpt><trkpt lat="44.87564109929878" lon="8.071371203827638"><ele>221.5</ele><time>2026-04-19T07:30:01.999Z</time></trkpt><trkpt lat="44.87568049145902" lon="8.071277125229468"><ele>221.0</ele><time>2026-04-19T07:30:02.999Z</time></trkpt><trkpt lat="44.875751315062296" lon="8.071130609080951"><ele>220.5</ele><time>2026-04-19T07:30:04.999Z</time></trkpt><trkpt lat="44.87578539101699" lon="8.071043316197011"><ele>220.0</ele><time>2026-04-19T07:30:05.999Z</time></trkpt><trkpt lat="44.87584190192346" lon="8.070957046785548"><ele>219.5</ele><time>2026-04-19T07:30:06.999Z</time></trkpt><trkpt lat="44.87590048552134" lon="8.070875132771613"><ele>219.0</ele><time>2026-04-19T07:30:07.999Z</time></trkpt><trkpt lat="44.875946329868015" lon="8.070792652243437"><ele>220.5</ele><time>2026-04-19T07:30:08.999Z</time></trkpt><trkpt lat="44.87599136928631" lon="8.070704402215183"><ele>222.0</ele><time>2026-04-19T07:30:09.999Z</time></trkpt><trkpt lat="44.876036123683974" lon="8.070617225531"><ele>223.5</ele><time>2026-04-19T07:30:10.999Z</time></trkpt><trkpt lat="44.87608222387263" lon="8.070540570956643"><ele>225.0</ele><time>2026-04-19T07:30:11.999Z</time></trkpt><trkpt lat="44.87613531215147" lon="8.070448380461922"><ele>226.5</ele><time>2026-04-19T07:30:12.999Z</time></trkpt><trkpt lat="44.87618519957501" lon="8.070372011434996"><ele>228.0</ele><time>2026-04-19T07:30:13.999Z</time></trkpt><trkpt lat="44.87624009208807" lon="8.070293558802186"><ele>228.0</ele><time>2026-04-19T07:30:14.999Z</time></trkpt><trkpt lat="44.87629457842788" lon="8.070205936465388"><ele>228.0</ele><time>2026-04-19T07:30:15.999Z</time></trkpt><trkpt lat="44.87634258967619" lon="8.07010460666732"><ele>228.0</ele><time>2026-04-19T07:30:16.999Z</time></trkpt><trkpt lat="44.87638558106187" lon="8.070007521440276"><ele>228.0</ele><time>2026-04-19T07:30:17.999Z</time></trkpt><trkpt lat="44.8764321830535" lon="8.069901837209361"><ele>228.0</ele><time>2026-04-19T07:30:18.999Z</time></trkpt><trkpt lat="44.8764627558116" lon="8.06977990722925"><ele>228.0</ele><time>2026-04-19T07:30:19.999Z</time></trkpt><trkpt lat="44.876508905928155" lon="8.069662248385361"><ele>229.0</ele><time>2026-04-19T07:30:20.999Z</time></trkpt><trkpt lat="44.8765716422948" lon="8.069543837468958"><ele>230.0</ele><time>2026-04-19T07:30:21.999Z</time></trkpt><trkpt lat="44.87663799715103" lon="8.069430452581685"><ele>231.0</ele><time>2026-04-19T07:30:22.999Z</time></trkpt><trkpt lat="44.87668597218972" lon="8.069334357709621"><ele>232.0</ele><time>2026-04-19T07:30:23.999Z</time></trkpt><trkpt lat="44.876724005904286" lon="8.069226324563243"><ele>233.0</ele><time>2026-04-19T07:30:24.999Z</time></trkpt><trkpt lat="44.87675664780461" lon="8.069119318832453"><ele>232.00000000000003</ele><time>2026-04-19T07:30:25.999Z</time></trkpt><trkpt lat="44.8767853790951" lon="8.06902172982025"><ele>231.0</ele><time>2026-04-19T07:30:26.999Z</time></trkpt><trkpt lat="44.87682736631828" lon="8.068866983203218"><ele>230.0</ele><time>2026-04-19T07:30:28.999Z</time></trkpt><trkpt lat="44.876859512041996" lon="8.06878041374753"><ele>229.0</ele><time>2026-04-19T07:30:29.999Z</time></trkpt><trkpt lat="44.876889486434784" lon="8.0686879397877"><ele>228.00000000000003</ele><time>2026-04-19T07:30:30.999Z</time></trkpt><trkpt lat="44.8769184789527" lon="8.068603169775585"><ele>227.0</ele><time>2026-04-19T07:30:31.999Z</time></trkpt><trkpt lat="44.87693723836584" lon="8.068505605222065"><ele>227.00000000000003</ele><time>2026-04-19T07:30:32.999Z</time></trkpt><trkpt lat="44.87697675489425" lon="8.068358336540003"><ele>227.0</ele><time>2026-04-19T07:30:35Z</time></trkpt><trkpt lat="44.877020481129705" lon="8.068197812740383"><ele>227.0</ele><time>2026-04-19T07:30:37Z</time></trkpt><trkpt lat="44.87704867617461" lon="8.068113883193877"><ele>227.0</ele><time>2026-04-19T07:30:38Z</time></trkpt><trkpt lat="44.87707332810161" lon="8.068024052139725"><ele>227.00000000000003</ele><time>2026-04-19T07:30:39Z</time></trkpt><trkpt lat="44.87709570824219" lon="8.067935900406104"><ele>227.0</ele><time>2026-04-19T07:30:40Z</time></trkpt><trkpt lat="44.87711420288193" lon="8.067844816198216"><ele>228.50000000000003</ele><time>2026-04-19T07:30:41Z</time></trkpt><trkpt lat="44.87713564242933" lon="8.067758744272066"><ele>230.0</ele><time>2026-04-19T07:30:42Z</time></trkpt><trkpt lat="44.87716574027513" lon="8.06767516281925"><ele>231.5</ele><time>2026-04-19T07:30:43Z</time></trkpt><trkpt lat="44.8771939262621" lon="8.067563531129538"><ele>233.0</ele><time>2026-04-19T07:30:44Z</time></trkpt><trkpt lat="44.87722107432109" lon="8.06744843636605"><ele>234.50000000000003</ele><time>2026-04-19T07:30:45Z</time></trkpt><trkpt lat="44.877248226351206" lon="8.067356344014184"><ele>236.0</ele><time>2026-04-19T07:30:46Z</time></trkpt><trkpt lat="44.87726270752634" lon="8.067244721428729"><ele>237.66666666666669</ele><time>2026-04-19T07:30:47Z</time></trkpt><trkpt lat="44.87726877539086" lon="8.067133668502263"><ele>239.33333333333334</ele><time>2026-04-19T07:30:48Z</time></trkpt><trkpt lat="44.8772832235455" lon="8.067029112086153"><ele>241.0</ele><time>2026-04-19T07:30:49Z</time></trkpt><trkpt lat="44.87729612393066" lon="8.066930364565849"><ele>242.66666666666669</ele><time>2026-04-19T07:30:50Z</time></trkpt><trkpt lat="44.87730137763238" lon="8.066811559959369"><ele>244.33333333333334</ele><time>2026-04-19T07:30:51Z</time></trkpt><trkpt lat="44.87729612384035" lon="8.066679735961669"><ele>246.0</ele><time>2026-04-19T07:30:52Z</time></trkpt><trkpt lat="44.87728637992936" lon="8.066579566085752"><ele>248.0</ele><time>2026-04-19T07:30:53Z</time></trkpt><trkpt lat="44.877264957792356" lon="8.066464786733123"><ele>250.0</ele><time>2026-04-19T07:30:54Z</time></trkpt><trkpt lat="44.8772459616945" lon="8.06636533413207"><ele>252.0</ele><time>2026-04-19T07:30:55Z</time></trkpt><trkpt lat="44.8772367369131" lon="8.06624425457837"><ele>254.0</ele><time>2026-04-19T07:30:56Z</time></trkpt><trkpt lat="44.87720980033609" lon="8.066141907029262"><ele>256.0</ele><time>2026-04-19T07:30:57Z</time></trkpt><trkpt lat="44.87718959752907" lon="8.066053211132703"><ele>258.0</ele><time>2026-04-19T07:30:58Z</time></trkpt><trkpt lat="44.87719928185935" lon="8.065949438268431"><ele>258.0</ele><time>2026-04-19T07:30:59Z</time></trkpt><trkpt lat="44.87723046546745" lon="8.06583661610059"><ele>258.0</ele><time>2026-04-19T07:31:00Z</time></trkpt><trkpt lat="44.87727645588266" lon="8.065739114037676"><ele>258.0</ele><time>2026-04-19T07:31:01Z</time></trkpt><trkpt lat="44.87730901977289" lon="8.06564591780748"><ele>258.0</ele><time>2026-04-19T07:31:02Z</time></trkpt><trkpt lat="44.87733145236291" lon="8.065542590088885"><ele>258.0</ele><time>2026-04-19T07:31:03Z</time></trkpt><trkpt lat="44.87735540896102" lon="8.065417048581935"><ele>258.0</ele><time>2026-04-19T07:31:04Z</time></trkpt><trkpt lat="44.877377948233075" lon="8.065286381799627"><ele>258.6666666666667</ele><time>2026-04-19T07:31:05Z</time></trkpt><trkpt lat="44.87741963819057" lon="8.065153340694529"><ele>259.3333333333333</ele><time>2026-04-19T07:31:06Z</time></trkpt><trkpt lat="44.87745960354471" lon="8.065049694839212"><ele>260.0</ele><time>2026-04-19T07:31:07Z</time></trkpt><trkpt lat="44.87749471693655" lon="8.064944929755704"><ele>260.66666666666663</ele><time>2026-04-19T07:31:08Z</time></trkpt><trkpt lat="44.877508587507066" lon="8.06483595844598"><ele>261.3333333333333</ele><time>2026-04-19T07:31:09Z</time></trkpt><trkpt lat="44.87752314282254" lon="8.06470944386229"><ele>262.0</ele><time>2026-04-19T07:31:10Z</time></trkpt><trkpt lat="44.877555382226284" lon="8.064601305981434"><ele>260.66666666666663</ele><time>2026-04-19T07:31:11Z</time></trkpt><trkpt lat="44.87760180325315" lon="8.064510829256825"><ele>259.3333333333333</ele><time>2026-04-19T07:31:12Z</time></trkpt><trkpt lat="44.87766010376648" lon="8.064427705649866"><ele>258.0</ele><time>2026-04-19T07:31:13Z</time></trkpt><trkpt lat="44.877717325153434" lon="8.064349062698563"><ele>256.6666666666667</ele><time>2026-04-19T07:31:14Z</time></trkpt><trkpt lat="44.87775859123431" lon="8.064281858484144"><ele>255.33333333333334</ele><time>2026-04-19T07:31:15Z</time></trkpt><trkpt lat="44.87784705875011" lon="8.064154275245786"><ele>254.0</ele><time>2026-04-19T07:31:17Z</time></trkpt><trkpt lat="44.87788283381163" lon="8.064003536112669"><ele>252.39999999999998</ele><time>2026-04-19T07:31:19Z</time></trkpt><trkpt lat="44.87787836719545" lon="8.06383293020118"><ele>250.79999999999998</ele><time>2026-04-19T07:31:21Z</time></trkpt><trkpt lat="44.877874601472975" lon="8.063674225593271"><ele>249.20000000000002</ele><time>2026-04-19T07:31:23Z</time></trkpt><trkpt lat="44.8778834078715" lon="8.063507957450744"><ele>247.60000000000002</ele><time>2026-04-19T07:31:25Z</time></trkpt><trkpt lat="44.877899423354364" lon="8.063407550138729"><ele>246.0</ele><time>2026-04-19T07:31:26Z</time></trkpt><trkpt lat="44.87791250442536" lon="8.063314057273955"><ele>244.60000000000002</ele><time>2026-04-19T07:31:27Z</time></trkpt><trkpt lat="44.87790966621548" lon="8.063203895011448"><ele>243.20000000000002</ele><time>2026-04-19T07:31:28Z</time></trkpt><trkpt lat="44.877899154807274" lon="8.063096546396807"><ele>241.79999999999998</ele><time>2026-04-19T07:31:29Z</time></trkpt><trkpt lat="44.87788326145434" lon="8.062998948560843"><ele>240.39999999999998</ele><time>2026-04-19T07:31:30Z</time></trkpt><trkpt lat="44.87786456738551" lon="8.062841172578036"><ele>239.0</ele><time>2026-04-19T07:31:32Z</time></trkpt><trkpt lat="44.87782524602148" lon="8.062675147368166"><ele>239.0</ele><time>2026-04-19T07:31:34Z</time></trkpt><trkpt lat="44.87779694934005" lon="8.062568381783088"><ele>238.99999999999997</ele><time>2026-04-19T07:31:35Z</time></trkpt><trkpt lat="44.877768726199854" lon="8.062443439722268"><ele>238.99999999999997</ele><time>2026-04-19T07:31:36Z</time></trkpt><trkpt lat="44.87773464909655" lon="8.06232018887042"><ele>239.0</ele><time>2026-04-19T07:31:37Z</time></trkpt><trkpt lat="44.87769142005668" lon="8.062184525306986"><ele>239.0</ele><time>2026-04-19T07:31:38Z</time></trkpt><trkpt lat="44.87764157126232" lon="8.06206258436958"><ele>242.6</ele><time>2026-04-19T07:31:39Z</time></trkpt><trkpt lat="44.87758473245039" lon="8.061946117886915"><ele>246.2</ele><time>2026-04-19T07:31:40Z</time></trkpt><trkpt lat="44.877523182704515" lon="8.061819158052163"><ele>249.79999999999998</ele><time>2026-04-19T07:31:41Z</time></trkpt><trkpt lat="44.87746318206755" lon="8.061693586229014"><ele>253.39999999999998</ele><time>2026-04-19T07:31:42Z</time></trkpt><trkpt lat="44.877409476680704" lon="8.061572271066028"><ele>257.0</ele><time>2026-04-19T07:31:43Z</time></trkpt><trkpt lat="44.87736339338133" lon="8.061447966471572"><ele>257.0</ele><time>2026-04-19T07:31:44Z</time></trkpt><trkpt lat="44.877351501731226" lon="8.061309254413723"><ele>257.0</ele><time>2026-04-19T07:31:45Z</time></trkpt><trkpt lat="44.87737443345632" lon="8.061098176018351"><ele>257.0</ele><time>2026-04-19T07:31:46Z</time></trkpt><trkpt lat="44.87737564671206" lon="8.060931035853505"><ele>257.0</ele><time>2026-04-19T07:31:47Z</time></trkpt><trkpt lat="44.87736525461343" lon="8.060772471249804"><ele>256.6666666666667</ele><time>2026-04-19T07:31:48Z</time></trkpt><trkpt lat="44.87735981763707" lon="8.060639972214796"><ele>256.33333333333337</ele><time>2026-04-19T07:31:48.999Z</time></trkpt><trkpt lat="44.87735874299401" lon="8.060529255811996"><ele>256.0</ele><time>2026-04-19T07:31:49.999Z</time></trkpt><trkpt lat="44.877363449420685" lon="8.060422513609842"><ele>255.66666666666669</ele><time>2026-04-19T07:31:50.999Z</time></trkpt><trkpt lat="44.87736506363662" lon="8.06032967810322"><ele>255.33333333333334</ele><time>2026-04-19T07:31:51.999Z</time></trkpt><trkpt lat="44.87737196645779" lon="8.06022243433933"><ele>255.0</ele><time>2026-04-19T07:31:52.999Z</time></trkpt><trkpt lat="44.87739021848332" lon="8.060124068602166"><ele>255.0</ele><time>2026-04-19T07:31:53.999Z</time></trkpt><trkpt lat="44.877407917869895" lon="8.060016103136784"><ele>255.0</ele><time>2026-04-19T07:31:54.999Z</time></trkpt><trkpt lat="44.87744907294789" lon="8.059929634833663"><ele>255.0</ele><time>2026-04-19T07:31:55.999Z</time></trkpt><trkpt lat="44.87749344701839" lon="8.0598128296172"><ele>255.0</ele><time>2026-04-19T07:31:56.999Z</time></trkpt><trkpt lat="44.87755502700728" lon="8.059716709800488"><ele>255.0</ele><time>2026-04-19T07:31:57.999Z</time></trkpt><trkpt lat="44.87762330380221" lon="8.059628508290167"><ele>255.0</ele><time>2026-04-19T07:31:58.999Z</time></trkpt><trkpt lat="44.8776869790616" lon="8.059549383818387"><ele>254.66666666666666</ele><time>2026-04-19T07:31:59.999Z</time></trkpt><trkpt lat="44.87773836316539" lon="8.059450698154551"><ele>254.33333333333331</ele><time>2026-04-19T07:32:00.999Z</time></trkpt><trkpt lat="44.877780628440625" lon="8.059346737925088"><ele>254.0</ele><time>2026-04-19T07:32:01.999Z</time></trkpt><trkpt lat="44.87780963039414" lon="8.059238538200097"><ele>253.66666666666666</ele><time>2026-04-19T07:32:02.999Z</time></trkpt><trkpt lat="44.87783360537877" lon="8.059128810585907"><ele>253.33333333333331</ele><time>2026-04-19T07:32:03.999Z</time></trkpt><trkpt lat="44.87784932404915" lon="8.059007017902141"><ele>253.0</ele><time>2026-04-19T07:32:04.999Z</time></trkpt><trkpt lat="44.877869852987764" lon="8.05888173317522"><ele>253.0</ele><time>2026-04-19T07:32:05.999Z</time></trkpt><trkpt lat="44.877894673382976" lon="8.058752126833799"><ele>253.0</ele><time>2026-04-19T07:32:06.999Z</time></trkpt><trkpt lat="44.87791503467951" lon="8.05861962750595"><ele>253.0</ele><time>2026-04-19T07:32:07.999Z</time></trkpt><trkpt lat="44.87794027629522" lon="8.058523383110714"><ele>253.0</ele><time>2026-04-19T07:32:08.999Z</time></trkpt><trkpt lat="44.87795025346977" lon="8.058367461850203"><ele>253.0</ele><time>2026-04-19T07:32:09.999Z</time></trkpt><trkpt lat="44.87796345567805" lon="8.058238399644532"><ele>254.33333333333331</ele><time>2026-04-19T07:32:10.999Z</time></trkpt><trkpt lat="44.87797779972587" lon="8.058117160213714"><ele>255.66666666666666</ele><time>2026-04-19T07:32:11.999Z</time></trkpt><trkpt lat="44.87800156170029" lon="8.057996177504961"><ele>257.0</ele><time>2026-04-19T07:32:12.999Z</time></trkpt><trkpt lat="44.878037614166665" lon="8.057882519291443"><ele>258.3333333333333</ele><time>2026-04-19T07:32:13.999Z</time></trkpt><trkpt lat="44.87807810618833" lon="8.057771708367856"><ele>259.6666666666667</ele><time>2026-04-19T07:32:14.999Z</time></trkpt><trkpt lat="44.87811386530729" lon="8.057678643642658"><ele>261.0</ele><time>2026-04-19T07:32:15.999Z</time></trkpt><trkpt lat="44.878148250828616" lon="8.05758538189519"><ele>261.0</ele><time>2026-04-19T07:32:16.999Z</time></trkpt><trkpt lat="44.878193908645265" lon="8.057486797594098"><ele>261.0</ele><time>2026-04-19T07:32:17.999Z</time></trkpt><trkpt lat="44.87823287417144" lon="8.057395830404701"><ele>261.0</ele><time>2026-04-19T07:32:18.999Z</time></trkpt><trkpt lat="44.878270509693905" lon="8.057307077275933"><ele>261.0</ele><time>2026-04-19T07:32:19.999Z</time></trkpt><trkpt lat="44.87830602510642" lon="8.057213801162675"><ele>261.0</ele><time>2026-04-19T07:32:20.999Z</time></trkpt><trkpt lat="44.87834442485518" lon="8.057119782844252"><ele>261.0</ele><time>2026-04-19T07:32:21.999Z</time></trkpt><trkpt lat="44.87837637613831" lon="8.057019263332743"><ele>261.0</ele><time>2026-04-19T07:32:22.999Z</time></trkpt><trkpt lat="44.87840531465804" lon="8.05690722172031"><ele>261.0</ele><time>2026-04-19T07:32:23.999Z</time></trkpt><trkpt lat="44.87843509244447" lon="8.056785852854317"><ele>261.0</ele><time>2026-04-19T07:32:24.999Z</time></trkpt><trkpt lat="44.87846610082787" lon="8.05666980300897"><ele>261.0</ele><time>2026-04-19T07:32:25.999Z</time></trkpt><trkpt lat="44.87849753451309" lon="8.056546155536441"><ele>261.0</ele><time>2026-04-19T07:32:26.999Z</time></trkpt><trkpt lat="44.87853413733408" lon="8.056420805026566"><ele>261.0</ele><time>2026-04-19T07:32:27.999Z</time></trkpt><trkpt lat="44.878565939276804" lon="8.056307106712692"><ele>261.0</ele><time>2026-04-19T07:32:28.999Z</time></trkpt><trkpt lat="44.878609493580065" lon="8.056187225178132"><ele>261.0</ele><time>2026-04-19T07:32:29.999Z</time></trkpt><trkpt lat="44.87865424803376" lon="8.056060673172844"><ele>261.0</ele><time>2026-04-19T07:32:30.999Z</time></trkpt><trkpt lat="44.87870710008062" lon="8.05592296238338"><ele>261.0</ele><time>2026-04-19T07:32:31.999Z</time></trkpt><trkpt lat="44.878762125801636" lon="8.055810687775667"><ele>262.0</ele><time>2026-04-19T07:32:32.999Z</time></trkpt><trkpt lat="44.87881004428296" lon="8.055712443922841"><ele>263.0</ele><time>2026-04-19T07:32:33.999Z</time></trkpt><trkpt lat="44.87886162085608" lon="8.055623856368264"><ele>264.0</ele><time>2026-04-19T07:32:34.999Z</time></trkpt><trkpt lat="44.878924470466885" lon="8.05553203602496"><ele>265.0</ele><time>2026-04-19T07:32:35.999Z</time></trkpt><trkpt lat="44.87899009716705" lon="8.055435842291434"><ele>266.0</ele><time>2026-04-19T07:32:36.999Z</time></trkpt><trkpt lat="44.87905341790265" lon="8.055335242866184"><ele>267.0</ele><time>2026-04-19T07:32:37.999Z</time></trkpt><trkpt lat="44.87912054893756" lon="8.055237317445348"><ele>267.0</ele><time>2026-04-19T07:32:38.999Z</time></trkpt><trkpt lat="44.879190556927995" lon="8.055135466292299"><ele>267.0</ele><time>2026-04-19T07:32:39.999Z</time></trkpt><trkpt lat="44.879252190942495" lon="8.055045917649394"><ele>267.0</ele><time>2026-04-19T07:32:41Z</time></trkpt><trkpt lat="44.87930940828661" lon="8.054966511451566"><ele>267.0</ele><time>2026-04-19T07:32:42Z</time></trkpt><trkpt lat="44.87936421549982" lon="8.054884450641111"><ele>267.0</ele><time>2026-04-19T07:32:43Z</time></trkpt><trkpt lat="44.8794142929701" lon="8.05480385486092"><ele>267.0</ele><time>2026-04-19T07:32:44Z</time></trkpt><trkpt lat="44.879460999198415" lon="8.054729508190961"><ele>267.8</ele><time>2026-04-19T07:32:45Z</time></trkpt><trkpt lat="44.87954810963753" lon="8.054636530425325"><ele>268.6</ele><time>2026-04-19T07:32:47Z</time></trkpt><trkpt lat="44.87962536266294" lon="8.054638928795582"><ele>269.40000000000003</ele><time>2026-04-19T07:32:49Z</time></trkpt><trkpt lat="44.87971768688247" lon="8.054622562081423"><ele>270.2</ele><time>2026-04-19T07:34:55Z</time></trkpt><trkpt lat="44.879814387503416" lon="8.05457138573174"><ele>271.0</ele><time>2026-04-19T07:34:57Z</time></trkpt><trkpt lat="44.87990266885216" lon="8.054565600553197"><ele>271.0</ele><time>2026-04-19T07:34:58Z</time></trkpt><trkpt lat="44.88000025844178" lon="8.054556623533987"><ele>271.0</ele><time>2026-04-19T07:34:59Z</time></trkpt><trkpt lat="44.88008662814827" lon="8.054533344560573"><ele>271.0</ele><time>2026-04-19T07:35:00Z</time></trkpt><trkpt lat="44.88015621283295" lon="8.05448830239691"><ele>271.0</ele><time>2026-04-19T07:35:01Z</time></trkpt><trkpt lat="44.880219469770864" lon="8.054462550950078"><ele>271.0</ele><time>2026-04-19T07:35:02Z</time></trkpt><trkpt lat="44.88029201546564" lon="8.054485091441592"><ele>271.0</ele><time>2026-04-19T07:35:03Z</time></trkpt><trkpt lat="44.88036812682838" lon="8.054549333010492"><ele>270.0</ele><time>2026-04-19T07:35:04Z</time></trkpt><trkpt lat="44.88042976011714" lon="8.054642223527587"><ele>269.0</ele><time>2026-04-19T07:35:05Z</time></trkpt><trkpt lat="44.88047597123204" lon="8.054743001239453"><ele>268.0</ele><time>2026-04-19T07:35:06Z</time></trkpt><trkpt lat="44.88051230831714" lon="8.054855142303497"><ele>267.0</ele><time>2026-04-19T07:35:07Z</time></trkpt><trkpt lat="44.880540537065464" lon="8.054999167827189"><ele>266.0</ele><time>2026-04-19T07:35:08Z</time></trkpt><trkpt lat="44.880556584940436" lon="8.055171074337665"><ele>266.0</ele><time>2026-04-19T07:35:09Z</time></trkpt><trkpt lat="44.8805732714303" lon="8.05535153609023"><ele>266.0</ele><time>2026-04-19T07:35:10Z</time></trkpt><trkpt lat="44.88058214438106" lon="8.055514962409184"><ele>266.0</ele><time>2026-04-19T07:35:11Z</time></trkpt><trkpt lat="44.88059130676199" lon="8.055696470561875"><ele>266.0</ele><time>2026-04-19T07:35:12Z</time></trkpt><trkpt lat="44.88059938085111" lon="8.055875021241159"><ele>267.5</ele><time>2026-04-19T07:35:13Z</time></trkpt><trkpt lat="44.880608081741315" lon="8.056044932518244"><ele>269.0</ele><time>2026-04-19T07:35:14Z</time></trkpt><trkpt lat="44.88061938601899" lon="8.056211849960604"><ele>270.5</ele><time>2026-04-19T07:35:15Z</time></trkpt><trkpt lat="44.88063582275405" lon="8.056379137146743"><ele>272.0</ele><time>2026-04-19T07:35:16Z</time></trkpt><trkpt lat="44.88065730827534" lon="8.0565397959893"><ele>272.0</ele><time>2026-04-19T07:35:17Z</time></trkpt><trkpt lat="44.88068908857249" lon="8.056670816206509"><ele>272.0</ele><time>2026-04-19T07:35:18Z</time></trkpt><trkpt lat="44.880728525689726" lon="8.056778022730782"><ele>272.0</ele><time>2026-04-19T07:35:19Z</time></trkpt><trkpt lat="44.8807668369893" lon="8.056869663536826"><ele>272.0</ele><time>2026-04-19T07:35:20Z</time></trkpt><trkpt lat="44.88078003557515" lon="8.05698066468925"><ele>272.0</ele><time>2026-04-19T07:35:21Z</time></trkpt><trkpt lat="44.880774268641666" lon="8.057121102823867"><ele>272.0</ele><time>2026-04-19T07:35:22Z</time></trkpt><trkpt lat="44.88074494469469" lon="8.057302534027354"><ele>271.0</ele><time>2026-04-19T07:35:23Z</time></trkpt><trkpt lat="44.880714906975754" lon="8.057519680899567"><ele>270.0</ele><time>2026-04-19T07:35:24Z</time></trkpt><trkpt lat="44.880698449114035" lon="8.057718802395918"><ele>269.0</ele><time>2026-04-19T07:35:25Z</time></trkpt><trkpt lat="44.88068591684394" lon="8.057916755171501"><ele>268.0</ele><time>2026-04-19T07:35:26Z</time></trkpt><trkpt lat="44.880678034456956" lon="8.058105472576367"><ele>268.0</ele><time>2026-04-19T07:35:27Z</time></trkpt><trkpt lat="44.880674886821616" lon="8.058281436058854"><ele>268.0</ele><time>2026-04-19T07:35:28Z</time></trkpt><trkpt lat="44.88067171793962" lon="8.058400503967626"><ele>268.0</ele><time>2026-04-19T07:35:29Z</time></trkpt><trkpt lat="44.88063980338491" lon="8.058479969897123"><ele>268.0</ele><time>2026-04-19T07:35:31Z</time></trkpt><trkpt lat="44.88057410808804" lon="8.058380113271696"><ele>268.0</ele><time>2026-04-19T07:35:33Z</time></trkpt><trkpt lat="44.88054037245807" lon="8.058291960657384"><ele>268.0</ele><time>2026-04-19T07:35:34Z</time></trkpt><trkpt lat="44.880492414440475" lon="8.05821727162357"><ele>268.0</ele><time>2026-04-19T07:35:35Z</time></trkpt><trkpt lat="44.88043301131085" lon="8.058177378892555"><ele>268.0</ele><time>2026-04-19T07:35:36Z</time></trkpt><trkpt lat="44.88035608069179" lon="8.058179460007302"><ele>268.0</ele><time>2026-04-19T07:35:38Z</time></trkpt><trkpt lat="44.88022178396386" lon="8.058202186988545"><ele>268.0</ele><time>2026-04-19T07:35:40Z</time></trkpt><trkpt lat="44.88015036421819" lon="8.05823303977277"><ele>268.0</ele><time>2026-04-19T07:35:41Z</time></trkpt><trkpt lat="44.880086152045884" lon="8.058262470609675"><ele>268.0</ele><time>2026-04-19T07:35:42Z</time></trkpt><trkpt lat="44.880024904325886" lon="8.058285699644554"><ele>265.3333333333333</ele><time>2026-04-19T07:35:43Z</time></trkpt><trkpt lat="44.879959707879365" lon="8.058322024770778"><ele>262.66666666666663</ele><time>2026-04-19T07:35:44Z</time></trkpt><trkpt lat="44.87989466237449" lon="8.058383657184661"><ele>260.0</ele><time>2026-04-19T07:35:45Z</time></trkpt><trkpt lat="44.87982912602807" lon="8.058444797557847"><ele>257.3333333333333</ele><time>2026-04-19T07:35:46Z</time></trkpt><trkpt lat="44.87976739091031" lon="8.05850137688104"><ele>254.66666666666666</ele><time>2026-04-19T07:35:47Z</time></trkpt><trkpt lat="44.87967431762735" lon="8.058589020171988"><ele>252.0</ele><time>2026-04-19T07:35:49Z</time></trkpt><trkpt lat="44.87960749487766" lon="8.058649534074844"><ele>252.0</ele><time>2026-04-19T07:35:50Z</time></trkpt><trkpt lat="44.879550486148524" lon="8.058743253090423"><ele>252.0</ele><time>2026-04-19T07:35:51Z</time></trkpt><trkpt lat="44.87948984826421" lon="8.05881473473712"><ele>252.0</ele><time>2026-04-19T07:35:52Z</time></trkpt><trkpt lat="44.87943524312915" lon="8.058876591158477"><ele>252.0</ele><time>2026-04-19T07:35:52.999Z</time></trkpt><trkpt lat="44.879377448010935" lon="8.058934276158578"><ele>252.0</ele><time>2026-04-19T07:35:53.999Z</time></trkpt><trkpt lat="44.87928423256021" lon="8.058982437988892"><ele>252.0</ele><time>2026-04-19T07:35:55.999Z</time></trkpt><trkpt lat="44.87922389518091" lon="8.058879596802377"><ele>249.85714285714286</ele><time>2026-04-19T07:35:57.999Z</time></trkpt><trkpt lat="44.87920970201448" lon="8.058784602126584"><ele>247.71428571428572</ele><time>2026-04-19T07:35:58.999Z</time></trkpt><trkpt lat="44.87921157211805" lon="8.058674880648312"><ele>245.57142857142856</ele><time>2026-04-19T07:35:59.999Z</time></trkpt><trkpt lat="44.879220269836644" lon="8.05856585155592"><ele>243.42857142857142</ele><time>2026-04-19T07:36:00.999Z</time></trkpt><trkpt lat="44.87922768651701" lon="8.058465868305962"><ele>241.28571428571428</ele><time>2026-04-19T07:36:01.999Z</time></trkpt><trkpt lat="44.879231960175105" lon="8.058366798170793"><ele>239.1428571428571</ele><time>2026-04-19T07:36:02.999Z</time></trkpt><trkpt lat="44.87924317056177" lon="8.058263096620852"><ele>236.99999999999997</ele><time>2026-04-19T07:36:03.999Z</time></trkpt><trkpt lat="44.87925477461877" lon="8.058170643024274"><ele>237.0</ele><time>2026-04-19T07:36:04.999Z</time></trkpt><trkpt lat="44.87925265705149" lon="8.058063658710852"><ele>237.0</ele><time>2026-04-19T07:36:05.999Z</time></trkpt><trkpt lat="44.87923008771642" lon="8.057975379759341"><ele>237.0</ele><time>2026-04-19T07:36:06.999Z</time></trkpt><trkpt lat="44.87917963714415" lon="8.057920406753661"><ele>237.0</ele><time>2026-04-19T07:36:07.999Z</time></trkpt><trkpt lat="44.87910820397346" lon="8.057906458396564"><ele>237.0</ele><time>2026-04-19T07:36:08.999Z</time></trkpt><trkpt lat="44.879040616547925" lon="8.057928792683912"><ele>237.0</ele><time>2026-04-19T07:36:09.999Z</time></trkpt><trkpt lat="44.87898126659398" lon="8.058051982806855"><ele>237.0</ele><time>2026-04-19T07:36:11.999Z</time></trkpt><trkpt lat="44.87893439262044" lon="8.0581592310669"><ele>237.0</ele><time>2026-04-19T07:36:12.999Z</time></trkpt><trkpt lat="44.878886581365805" lon="8.058303620621524"><ele>237.0</ele><time>2026-04-19T07:36:13.999Z</time></trkpt><trkpt lat="44.878855042832704" lon="8.058428362426968"><ele>237.0</ele><time>2026-04-19T07:36:14.999Z</time></trkpt><trkpt lat="44.878828016648534" lon="8.058520252786534"><ele>237.0</ele><time>2026-04-19T07:36:15.999Z</time></trkpt><trkpt lat="44.87881183543654" lon="8.058622083054416"><ele>237.0</ele><time>2026-04-19T07:36:16.999Z</time></trkpt><trkpt lat="44.87880830530962" lon="8.058737137955712"><ele>236.5</ele><time>2026-04-19T07:36:17.999Z</time></trkpt><trkpt lat="44.87882050756094" lon="8.058849231192514"><ele>236.0</ele><time>2026-04-19T07:36:18.999Z</time></trkpt><trkpt lat="44.878835192998885" lon="8.058992084650516"><ele>235.5</ele><time>2026-04-19T07:36:19.999Z</time></trkpt><trkpt lat="44.87884718188426" lon="8.059107937652618"><ele>235.0</ele><time>2026-04-19T07:36:20.999Z</time></trkpt><trkpt lat="44.8788132613885" lon="8.059213465112844"><ele>234.5</ele><time>2026-04-19T07:36:21.999Z</time></trkpt><trkpt lat="44.87875264377678" lon="8.059327917393617"><ele>234.0</ele><time>2026-04-19T07:36:22.999Z</time></trkpt><trkpt lat="44.87872978581334" lon="8.05944514940609"><ele>233.0</ele><time>2026-04-19T07:36:23.999Z</time></trkpt><trkpt lat="44.878733415402195" lon="8.05956628130862"><ele>231.99999999999997</ele><time>2026-04-19T07:36:24.999Z</time></trkpt><trkpt lat="44.87873185610022" lon="8.059695292735778"><ele>230.99999999999997</ele><time>2026-04-19T07:36:25.999Z</time></trkpt><trkpt lat="44.87870857570898" lon="8.059840225085305"><ele>230.0</ele><time>2026-04-19T07:36:26.999Z</time></trkpt><trkpt lat="44.87865722045416" lon="8.06000453880147"><ele>229.0</ele><time>2026-04-19T07:36:27.999Z</time></trkpt><trkpt lat="44.87860209370896" lon="8.060150009116935"><ele>229.0</ele><time>2026-04-19T07:36:28.999Z</time></trkpt><trkpt lat="44.878565165548295" lon="8.060282598941045"><ele>228.99999999999997</ele><time>2026-04-19T07:36:29.999Z</time></trkpt><trkpt lat="44.87853668900556" lon="8.060408417614177"><ele>228.99999999999997</ele><time>2026-04-19T07:36:30.999Z</time></trkpt><trkpt lat="44.87850563694113" lon="8.060531393941265"><ele>229.0</ele><time>2026-04-19T07:36:31.999Z</time></trkpt><trkpt lat="44.87846815781031" lon="8.060652415345128"><ele>229.0</ele><time>2026-04-19T07:36:32.999Z</time></trkpt><trkpt lat="44.87843005055889" lon="8.06076798253041"><ele>229.33333333333331</ele><time>2026-04-19T07:36:33.999Z</time></trkpt><trkpt lat="44.87841759917159" lon="8.060872169838385"><ele>229.66666666666666</ele><time>2026-04-19T07:36:34.999Z</time></trkpt><trkpt lat="44.87843896915456" lon="8.060968742896463"><ele>230.0</ele><time>2026-04-19T07:36:35.999Z</time></trkpt><trkpt lat="44.87849927468524" lon="8.061072192277598"><ele>230.33333333333331</ele><time>2026-04-19T07:36:36.999Z</time></trkpt><trkpt lat="44.87855396572745" lon="8.061177720018941"><ele>230.66666666666666</ele><time>2026-04-19T07:36:37.999Z</time></trkpt><trkpt lat="44.878598672058764" lon="8.061293757258643"><ele>231.0</ele><time>2026-04-19T07:36:38.999Z</time></trkpt><trkpt lat="44.878621957540744" lon="8.061469915196975"><ele>230.0</ele><time>2026-04-19T07:36:39.999Z</time></trkpt><trkpt lat="44.87863919254873" lon="8.061662707421341"><ele>229.0</ele><time>2026-04-19T07:36:40.999Z</time></trkpt><trkpt lat="44.878679380671414" lon="8.0617914652464"><ele>228.0</ele><time>2026-04-19T07:36:41.999Z</time></trkpt><trkpt lat="44.8787335481289" lon="8.0619192547206"><ele>227.0</ele><time>2026-04-19T07:36:42.999Z</time></trkpt><trkpt lat="44.878796924821735" lon="8.062050321821465"><ele>227.0</ele><time>2026-04-19T07:36:43.999Z</time></trkpt><trkpt lat="44.87884808377034" lon="8.062184926676602"><ele>227.0</ele><time>2026-04-19T07:36:44.999Z</time></trkpt><trkpt lat="44.87888138226364" lon="8.062324936499712"><ele>227.0</ele><time>2026-04-19T07:36:45.999Z</time></trkpt><trkpt lat="44.878896411371045" lon="8.062473045890467"><ele>227.0</ele><time>2026-04-19T07:36:46.999Z</time></trkpt><trkpt lat="44.87889734057742" lon="8.06260193663841"><ele>227.0</ele><time>2026-04-19T07:36:47.999Z</time></trkpt><trkpt lat="44.87889282160944" lon="8.0627156383388"><ele>226.6</ele><time>2026-04-19T07:36:48.999Z</time></trkpt><trkpt lat="44.878888937184115" lon="8.062817909193779"><ele>226.2</ele><time>2026-04-19T07:36:49.999Z</time></trkpt><trkpt lat="44.87891074173824" lon="8.06291530826714"><ele>225.8</ele><time>2026-04-19T07:36:50.999Z</time></trkpt><trkpt lat="44.87896605502168" lon="8.06303448127649"><ele>225.4</ele><time>2026-04-19T07:36:51.999Z</time></trkpt><trkpt lat="44.879051896239034" lon="8.063188293397209"><ele>225.0</ele><time>2026-04-19T07:36:53Z</time></trkpt><trkpt lat="44.87911934172519" lon="8.063295542796196"><ele>225.0</ele><time>2026-04-19T07:36:54Z</time></trkpt><trkpt lat="44.879170023129284" lon="8.063376984199124"><ele>225.0</ele><time>2026-04-19T07:36:55Z</time></trkpt><trkpt lat="44.87920649974642" lon="8.063476926240803"><ele>225.0</ele><time>2026-04-19T07:36:56Z</time></trkpt><trkpt lat="44.879228837550144" lon="8.063588832922022"><ele>225.0</ele><time>2026-04-19T07:36:57Z</time></trkpt><trkpt lat="44.87921920505295" lon="8.063709608958291"><ele>225.0</ele><time>2026-04-19T07:36:58Z</time></trkpt><trkpt lat="44.87919224114552" lon="8.063810754687834"><ele>225.0</ele><time>2026-04-19T07:36:59Z</time></trkpt><trkpt lat="44.879137386090534" lon="8.063901007356385"><ele>225.0</ele><time>2026-04-19T07:37:00Z</time></trkpt><trkpt lat="44.879089391901935" lon="8.063993529118811"><ele>225.0</ele><time>2026-04-19T07:37:01Z</time></trkpt><trkpt lat="44.87911608754756" lon="8.064181625434646"><ele>225.0</ele><time>2026-04-19T07:37:03Z</time></trkpt><trkpt lat="44.87917555680609" lon="8.064308453876151"><ele>225.0</ele><time>2026-04-19T07:37:04Z</time></trkpt><trkpt lat="44.87922399263286" lon="8.064445705868533"><ele>225.0</ele><time>2026-04-19T07:37:05Z</time></trkpt><trkpt lat="44.8792433952147" lon="8.064568291625989"><ele>224.6</ele><time>2026-04-19T07:37:06Z</time></trkpt><trkpt lat="44.87924576134384" lon="8.064703591294398"><ele>224.2</ele><time>2026-04-19T07:37:07Z</time></trkpt><trkpt lat="44.879238390908576" lon="8.064870000385946"><ele>223.8</ele><time>2026-04-19T07:37:08Z</time></trkpt><trkpt lat="44.87922934171742" lon="8.065033921760813"><ele>223.4</ele><time>2026-04-19T07:37:09Z</time></trkpt><trkpt lat="44.87922349190976" lon="8.065146369613199"><ele>223.0</ele><time>2026-04-19T07:37:10Z</time></trkpt><trkpt lat="44.87919184404232" lon="8.065233554324267"><ele>223.0</ele><time>2026-04-19T07:37:11Z</time></trkpt><trkpt lat="44.879123262613454" lon="8.065320941754392"><ele>223.0</ele><time>2026-04-19T07:37:12Z</time></trkpt><trkpt lat="44.87902676737399" lon="8.065424021757018"><ele>223.0</ele><time>2026-04-19T07:37:13Z</time></trkpt><trkpt lat="44.87897882898828" lon="8.065515150736472"><ele>223.0</ele><time>2026-04-19T07:37:14Z</time></trkpt><trkpt lat="44.8789591521437" lon="8.065623230206505"><ele>223.0</ele><time>2026-04-19T07:37:15Z</time></trkpt><trkpt lat="44.878942611873185" lon="8.065747180441722"><ele>222.2</ele><time>2026-04-19T07:37:16Z</time></trkpt><trkpt lat="44.878915957285926" lon="8.06587247406351"><ele>221.4</ele><time>2026-04-19T07:37:17Z</time></trkpt><trkpt lat="44.87887864381509" lon="8.066008265134352"><ele>220.59999999999997</ele><time>2026-04-19T07:37:18Z</time></trkpt><trkpt lat="44.878839836235926" lon="8.066168918737203"><ele>219.79999999999998</ele><time>2026-04-19T07:37:19Z</time></trkpt><trkpt lat="44.87880989160067" lon="8.066306603630249"><ele>219.0</ele><time>2026-04-19T07:37:20Z</time></trkpt><trkpt lat="44.87878746990974" lon="8.066423911912683"><ele>219.0</ele><time>2026-04-19T07:37:21Z</time></trkpt><trkpt lat="44.87880095235106" lon="8.066545548494208"><ele>219.0</ele><time>2026-04-19T07:37:23Z</time></trkpt><trkpt lat="44.87888662308065" lon="8.066575813855483"><ele>219.0</ele><time>2026-04-19T07:37:25Z</time></trkpt><trkpt lat="44.87895414388155" lon="8.06658293912095"><ele>219.0</ele><time>2026-04-19T07:37:26Z</time></trkpt><trkpt lat="44.87905380789608" lon="8.066621022847347"><ele>219.0</ele><time>2026-04-19T07:37:27Z</time></trkpt><trkpt lat="44.87914740645683" lon="8.066658755874874"><ele>219.0</ele><time>2026-04-19T07:37:28Z</time></trkpt><trkpt lat="44.879233066646876" lon="8.066695505856297"><ele>221.0</ele><time>2026-04-19T07:37:29Z</time></trkpt><trkpt lat="44.87932033229069" lon="8.066725114610179"><ele>222.99999999999997</ele><time>2026-04-19T07:37:30Z</time></trkpt><trkpt lat="44.87939863361215" lon="8.066754674228006"><ele>224.99999999999997</ele><time>2026-04-19T07:37:31Z</time></trkpt><trkpt lat="44.8794670975157" lon="8.066817156634672"><ele>227.0</ele><time>2026-04-19T07:37:32Z</time></trkpt><trkpt lat="44.87955295922883" lon="8.06691460275766"><ele>229.0</ele><time>2026-04-19T07:37:33Z</time></trkpt><trkpt lat="44.87963536350668" lon="8.067018527464365"><ele>228.99999999999997</ele><time>2026-04-19T07:37:34Z</time></trkpt><trkpt lat="44.879703205292195" lon="8.067085631666089"><ele>229.0</ele><time>2026-04-19T07:37:35Z</time></trkpt><trkpt lat="44.879779489252044" lon="8.067132100349117"><ele>229.0</ele><time>2026-04-19T07:37:36Z</time></trkpt><trkpt lat="44.87986320612069" lon="8.067157102448192"><ele>229.0</ele><time>2026-04-19T07:37:37Z</time></trkpt><trkpt lat="44.879952622704074" lon="8.06718337614899"><ele>228.99999999999997</ele><time>2026-04-19T07:37:38Z</time></trkpt><trkpt lat="44.88003949406507" lon="8.067213433731435"><ele>229.0</ele><time>2026-04-19T07:37:39Z</time></trkpt><trkpt lat="44.880129018001156" lon="8.067240139111234"><ele>229.2</ele><time>2026-04-19T07:37:40Z</time></trkpt><trkpt lat="44.88024598021066" lon="8.067267197181497"><ele>229.39999999999998</ele><time>2026-04-19T07:37:41Z</time></trkpt><trkpt lat="44.8803527501165" lon="8.067281924898118"><ele>229.6</ele><time>2026-04-19T07:37:42Z</time></trkpt><trkpt lat="44.88042534453071" lon="8.067277579827437"><ele>229.8</ele><time>2026-04-19T07:37:43Z</time></trkpt><trkpt lat="44.880547005846964" lon="8.067189601786659"><ele>230.0</ele><time>2026-04-19T07:37:45Z</time></trkpt><trkpt lat="44.88061550158999" lon="8.067128582818698"><ele>230.00000000000003</ele><time>2026-04-19T07:37:46Z</time></trkpt><trkpt lat="44.88068251093554" lon="8.06705457116561"><ele>230.0</ele><time>2026-04-19T07:37:47Z</time></trkpt><trkpt lat="44.88076404599954" lon="8.066958218920476"><ele>230.0</ele><time>2026-04-19T07:37:48Z</time></trkpt><trkpt lat="44.88081920380908" lon="8.066889550511235"><ele>230.0</ele><time>2026-04-19T07:37:49Z</time></trkpt><trkpt lat="44.88085299084696" lon="8.06681014713505"><ele>230.00000000000003</ele><time>2026-04-19T07:37:50Z</time></trkpt><trkpt lat="44.880904372021504" lon="8.06669309765427"><ele>230.0</ele><time>2026-04-19T07:37:51Z</time></trkpt><trkpt lat="44.88096859637465" lon="8.06652698091172"><ele>232.83333333333334</ele><time>2026-04-19T07:37:52Z</time></trkpt><trkpt lat="44.88101160754668" lon="8.066403721541135"><ele>235.66666666666669</ele><time>2026-04-19T07:37:53Z</time></trkpt><trkpt lat="44.88102354909541" lon="8.066300334854393"><ele>238.5</ele><time>2026-04-19T07:37:54Z</time></trkpt><trkpt lat="44.88101886219973" lon="8.066182800579377"><ele>241.33333333333331</ele><time>2026-04-19T07:37:55Z</time></trkpt><trkpt lat="44.88101568252136" lon="8.06607666974109"><ele>244.16666666666666</ele><time>2026-04-19T07:37:56Z</time></trkpt><trkpt lat="44.88097402502963" lon="8.065944748993317"><ele>247.0</ele><time>2026-04-19T07:37:57Z</time></trkpt><trkpt lat="44.88094829192749" lon="8.065829765399403"><ele>247.0</ele><time>2026-04-19T07:37:58Z</time></trkpt><trkpt lat="44.88096900392252" lon="8.065730818152716"><ele>247.0</ele><time>2026-04-19T07:38:00Z</time></trkpt><trkpt lat="44.881137997834394" lon="8.065794864095315"><ele>247.0</ele><time>2026-04-19T07:38:02Z</time></trkpt><trkpt lat="44.881222756994795" lon="8.065935443299466"><ele>247.0</ele><time>2026-04-19T07:38:02.999Z</time></trkpt><trkpt lat="44.88127946652559" lon="8.066052588759426"><ele>247.0</ele><time>2026-04-19T07:38:03.999Z</time></trkpt><trkpt lat="44.881328518820666" lon="8.066119395929972"><ele>247.0</ele><time>2026-04-19T07:38:04.999Z</time></trkpt><trkpt lat="44.8813878220696" lon="8.066194369854845"><ele>247.0</ele><time>2026-04-19T07:38:05.999Z</time></trkpt><trkpt lat="44.881472467377975" lon="8.066288748647533"><ele>247.0</ele><time>2026-04-19T07:38:07.999Z</time></trkpt><trkpt lat="44.88155387470147" lon="8.066419593117264"><ele>247.0</ele><time>2026-04-19T07:38:09.999Z</time></trkpt><trkpt lat="44.88158050335562" lon="8.06662767490005"><ele>246.33333333333331</ele><time>2026-04-19T07:38:11.999Z</time></trkpt><trkpt lat="44.88162845942525" lon="8.066710922257428"><ele>245.66666666666666</ele><time>2026-04-19T07:38:13.999Z</time></trkpt><trkpt lat="44.88171393720249" lon="8.066686957536415"><ele>245.0</ele><time>2026-04-19T07:38:14.999Z</time></trkpt><trkpt lat="44.88179623820914" lon="8.066688918783742"><ele>244.33333333333331</ele><time>2026-04-19T07:38:15.999Z</time></trkpt><trkpt lat="44.881829515765716" lon="8.066786927489163"><ele>243.66666666666666</ele><time>2026-04-19T07:38:18.999Z</time></trkpt><trkpt lat="44.88182894982657" lon="8.06690599693821"><ele>243.0</ele><time>2026-04-19T07:38:19.999Z</time></trkpt><trkpt lat="44.881833878434186" lon="8.067026676396843"><ele>242.71428571428572</ele><time>2026-04-19T07:38:20.999Z</time></trkpt><trkpt lat="44.881854151296224" lon="8.06712727130871"><ele>242.42857142857144</ele><time>2026-04-19T07:38:21.999Z</time></trkpt><trkpt lat="44.8818720413213" lon="8.067222925432834"><ele>242.14285714285717</ele><time>2026-04-19T07:38:22.999Z</time></trkpt><trkpt lat="44.881885450672996" lon="8.067322347602957"><ele>241.85714285714286</ele><time>2026-04-19T07:38:23.999Z</time></trkpt><trkpt lat="44.88189883190093" lon="8.067421206298064"><ele>241.5714285714286</ele><time>2026-04-19T07:38:24.999Z</time></trkpt><trkpt lat="44.88192572547601" lon="8.06750947215056"><ele>241.2857142857143</ele><time>2026-04-19T07:38:25.999Z</time></trkpt><trkpt lat="44.881961273228455" lon="8.06758421867767"><ele>241.0</ele><time>2026-04-19T07:38:26.999Z</time></trkpt><trkpt lat="44.8820151019269" lon="8.067653922092891"><ele>239.0</ele><time>2026-04-19T07:38:27.999Z</time></trkpt><trkpt lat="44.882090733210816" lon="8.067740385731808"><ele>237.00000000000003</ele><time>2026-04-19T07:38:28.999Z</time></trkpt><trkpt lat="44.8821695155714" lon="8.067843963577262"><ele>235.00000000000003</ele><time>2026-04-19T07:38:29.999Z</time></trkpt><trkpt lat="44.88223249219804" lon="8.067942476840265"><ele>233.0</ele><time>2026-04-19T07:38:30.999Z</time></trkpt><trkpt lat="44.8822962296573" lon="8.068027904586433"><ele>231.0</ele><time>2026-04-19T07:38:31.999Z</time></trkpt><trkpt lat="44.88234823563532" lon="8.068108744553099"><ele>231.0</ele><time>2026-04-19T07:38:32.999Z</time></trkpt><trkpt lat="44.88238225868778" lon="8.068206152755625"><ele>231.0</ele><time>2026-04-19T07:38:33.999Z</time></trkpt><trkpt lat="44.88240688301691" lon="8.06830769761155"><ele>231.0</ele><time>2026-04-19T07:38:34.999Z</time></trkpt><trkpt lat="44.88243032520628" lon="8.06843116761003"><ele>231.0</ele><time>2026-04-19T07:38:35.999Z</time></trkpt><trkpt lat="44.88244568372694" lon="8.068566041763814"><ele>231.0</ele><time>2026-04-19T07:38:36.999Z</time></trkpt><trkpt lat="44.88245763827635" lon="8.068686459433643"><ele>231.0</ele><time>2026-04-19T07:38:37.999Z</time></trkpt><trkpt lat="44.88246875279196" lon="8.068792724951445"><ele>231.5</ele><time>2026-04-19T07:38:38.999Z</time></trkpt><trkpt lat="44.882490106382114" lon="8.06889142772886"><ele>232.0</ele><time>2026-04-19T07:38:39.999Z</time></trkpt><trkpt lat="44.8825171034159" lon="8.068992195274365"><ele>232.5</ele><time>2026-04-19T07:38:40.999Z</time></trkpt><trkpt lat="44.88255049961699" lon="8.069096023957817"><ele>233.0</ele><time>2026-04-19T07:38:41.999Z</time></trkpt><trkpt lat="44.882575166261894" lon="8.069205245198676"><ele>233.5</ele><time>2026-04-19T07:38:42.999Z</time></trkpt><trkpt lat="44.882591164210034" lon="8.069308220768844"><ele>234.0</ele><time>2026-04-19T07:38:43.999Z</time></trkpt><trkpt lat="44.88258515789137" lon="8.069423258329978"><ele>234.0</ele><time>2026-04-19T07:38:44.999Z</time></trkpt><trkpt lat="44.88257236394292" lon="8.069544504164318"><ele>234.0</ele><time>2026-04-19T07:38:45.999Z</time></trkpt><trkpt lat="44.88254901093786" lon="8.069656394103047"><ele>234.0</ele><time>2026-04-19T07:38:46.999Z</time></trkpt><trkpt lat="44.88252194069052" lon="8.069755476131677"><ele>234.0</ele><time>2026-04-19T07:38:47.999Z</time></trkpt><trkpt lat="44.88247744723762" lon="8.069834884163347"><ele>234.0</ele><time>2026-04-19T07:38:48.999Z</time></trkpt><trkpt lat="44.88241154114837" lon="8.069919626100896"><ele>234.0</ele><time>2026-04-19T07:38:49.999Z</time></trkpt><trkpt lat="44.882342587243684" lon="8.069994932271433"><ele>233.83333333333334</ele><time>2026-04-19T07:38:50.999Z</time></trkpt><trkpt lat="44.88232418186166" lon="8.070120878980852"><ele>233.66666666666669</ele><time>2026-04-19T07:38:52.999Z</time></trkpt><trkpt lat="44.88236621801215" lon="8.07021398365836"><ele>233.5</ele><time>2026-04-19T07:38:53.999Z</time></trkpt><trkpt lat="44.88243182825607" lon="8.070292044601612"><ele>233.33333333333334</ele><time>2026-04-19T07:38:54.999Z</time></trkpt><trkpt lat="44.882508079424255" lon="8.070358047908718"><ele>233.16666666666669</ele><time>2026-04-19T07:38:55.999Z</time></trkpt><trkpt lat="44.88258225046251" lon="8.070398208286163"><ele>233.0</ele><time>2026-04-19T07:38:56.999Z</time></trkpt><trkpt lat="44.88265970903354" lon="8.070412000968126"><ele>228.60000000000002</ele><time>2026-04-19T07:38:57.999Z</time></trkpt><trkpt lat="44.88273265978827" lon="8.070395887186068"><ele>224.20000000000002</ele><time>2026-04-19T07:38:59Z</time></trkpt><trkpt lat="44.88280886599313" lon="8.070335324531879"><ele>219.8</ele><time>2026-04-19T07:39:00Z</time></trkpt><trkpt lat="44.88291313143162" lon="8.070251613153927"><ele>215.4</ele><time>2026-04-19T07:39:01Z</time></trkpt><trkpt lat="44.883048982248425" lon="8.070183294842659"><ele>211.0</ele><time>2026-04-19T07:39:02Z</time></trkpt><trkpt lat="44.883174184947976" lon="8.070150233208011"><ele>211.0</ele><time>2026-04-19T07:39:03Z</time></trkpt><trkpt lat="44.883270251432336" lon="8.070136913742672"><ele>211.0</ele><time>2026-04-19T07:39:04Z</time></trkpt><trkpt lat="44.88335549555091" lon="8.07014194792504"><ele>211.0</ele><time>2026-04-19T07:39:05Z</time></trkpt><trkpt lat="44.88343132652925" lon="8.070206202320685"><ele>211.0</ele><time>2026-04-19T07:39:06Z</time></trkpt><trkpt lat="44.883520203109924" lon="8.070318227622112"><ele>211.0</ele><time>2026-04-19T07:39:07Z</time></trkpt><trkpt lat="44.88361139610044" lon="8.070430280734701"><ele>211.4</ele><time>2026-04-19T07:39:08Z</time></trkpt><trkpt lat="44.88369544975735" lon="8.07051646871648"><ele>211.8</ele><time>2026-04-19T07:39:09Z</time></trkpt><trkpt lat="44.88377736847793" lon="8.0705991363761"><ele>212.20000000000002</ele><time>2026-04-19T07:39:10Z</time></trkpt><trkpt lat="44.88385867774187" lon="8.070679708605796"><ele>212.60000000000002</ele><time>2026-04-19T07:39:11Z</time></trkpt><trkpt lat="44.88393130911541" lon="8.07076321598869"><ele>213.0</ele><time>2026-04-19T07:39:12Z</time></trkpt><trkpt lat="44.883993120895774" lon="8.070865910057208"><ele>211.8</ele><time>2026-04-19T07:39:13Z</time></trkpt><trkpt lat="44.88406031396589" lon="8.070986685625792"><ele>210.60000000000002</ele><time>2026-04-19T07:39:14Z</time></trkpt><trkpt lat="44.88411251446975" lon="8.07110191122754"><ele>209.39999999999998</ele><time>2026-04-19T07:39:15Z</time></trkpt><trkpt lat="44.88416848450601" lon="8.071213747458875"><ele>208.2</ele><time>2026-04-19T07:39:16Z</time></trkpt><trkpt lat="44.8842271491552" lon="8.07132015247433"><ele>207.0</ele><time>2026-04-19T07:39:17Z</time></trkpt><trkpt lat="44.884276180517105" lon="8.071427413794432"><ele>208.6</ele><time>2026-04-19T07:39:18Z</time></trkpt><trkpt lat="44.88432191188674" lon="8.071529065518678"><ele>210.2</ele><time>2026-04-19T07:39:19Z</time></trkpt><trkpt lat="44.88438041671752" lon="8.07164930344359"><ele>211.8</ele><time>2026-04-19T07:39:20Z</time></trkpt><trkpt lat="44.88445085314356" lon="8.071776927924727"><ele>213.4</ele><time>2026-04-19T07:39:21Z</time></trkpt><trkpt lat="44.8845224315074" lon="8.071891735345917"><ele>215.0</ele><time>2026-04-19T07:39:22Z</time></trkpt><trkpt lat="44.884612512387214" lon="8.071989194780302"><ele>215.0</ele><time>2026-04-19T07:39:23Z</time></trkpt><trkpt lat="44.884702134878566" lon="8.072080729687267"><ele>215.0</ele><time>2026-04-19T07:39:24Z</time></trkpt><trkpt lat="44.88477843335049" lon="8.072182537234577"><ele>215.0</ele><time>2026-04-19T07:39:25Z</time></trkpt><trkpt lat="44.884848844441514" lon="8.072307559657784"><ele>215.0</ele><time>2026-04-19T07:39:26Z</time></trkpt><trkpt lat="44.88490839493111" lon="8.072420995813381"><ele>215.0</ele><time>2026-04-19T07:39:27Z</time></trkpt><trkpt lat="44.88496802196855" lon="8.072515313775044"><ele>217.25</ele><time>2026-04-19T07:39:28Z</time></trkpt><trkpt lat="44.88501986231603" lon="8.072575118527707"><ele>219.5</ele><time>2026-04-19T07:39:29Z</time></trkpt><trkpt lat="44.88506171925662" lon="8.072649983841812"><ele>221.75</ele><time>2026-04-19T07:39:31Z</time></trkpt><trkpt lat="44.88513338178935" lon="8.072967488658366"><ele>224.0</ele><time>2026-04-19T07:39:44Z</time></trkpt><trkpt lat="44.88518655635458" lon="8.073103032659871"><ele>224.00000000000003</ele><time>2026-04-19T07:39:45Z</time></trkpt><trkpt lat="44.88522828803857" lon="8.073226626009475"><ele>224.0</ele><time>2026-04-19T07:39:46Z</time></trkpt><trkpt lat="44.88526086399195" lon="8.07332897181674"><ele>224.0</ele><time>2026-04-19T07:39:47Z</time></trkpt><trkpt lat="44.885266897607615" lon="8.073424169264184"><ele>224.0</ele><time>2026-04-19T07:39:49Z</time></trkpt><trkpt lat="44.88520587284511" lon="8.07355726747152"><ele>224.00000000000003</ele><time>2026-04-19T07:39:51Z</time></trkpt><trkpt lat="44.88519834779405" lon="8.073666165935366"><ele>224.0</ele><time>2026-04-19T07:39:53Z</time></trkpt><trkpt lat="44.88520982066443" lon="8.073812530937774"><ele>221.25</ele><time>2026-04-19T07:39:55Z</time></trkpt><trkpt lat="44.88516002694818" lon="8.073919045920729"><ele>218.5</ele><time>2026-04-19T07:39:58Z</time></trkpt><trkpt lat="44.88516572352993" lon="8.073642996063487"><ele>215.75</ele><time>2026-04-19T07:40:02.999Z</time></trkpt><trkpt lat="44.88516652629333" lon="8.07348374668543"><ele>213.0</ele><time>2026-04-19T07:40:06.999Z</time></trkpt><trkpt lat="44.88511305630223" lon="8.073373583328452"><ele>211.0</ele><time>2026-04-19T07:40:08.999Z</time></trkpt><trkpt lat="44.88507911197122" lon="8.07320192293524"><ele>209.0</ele><time>2026-04-19T07:40:11.999Z</time></trkpt><trkpt lat="44.88505052719925" lon="8.073108454982506"><ele>207.0</ele><time>2026-04-19T07:40:12.999Z</time></trkpt><trkpt lat="44.88497573284758" lon="8.072980017636462"><ele>205.0</ele><time>2026-04-19T07:40:14.999Z</time></trkpt><trkpt lat="44.88493876101365" lon="8.072854632762418"><ele>203.0</ele><time>2026-04-19T07:40:16.999Z</time></trkpt><trkpt lat="44.88490607214021" lon="8.07276771051149"><ele>203.00000000000003</ele><time>2026-04-19T07:40:20.999Z</time></trkpt><trkpt lat="44.884812358070235" lon="8.072817562799973"><ele>203.0</ele><time>2026-04-19T07:40:56.999Z</time></trkpt><trkpt lat="44.88475271247842" lon="8.072907145562631"><ele>203.0</ele><time>2026-04-19T07:40:57.999Z</time></trkpt><trkpt lat="44.88470236309482" lon="8.072975539133305"><ele>203.0</ele><time>2026-04-19T07:40:59.999Z</time></trkpt><trkpt lat="44.88472644309403" lon="8.073060234353678"><ele>203.00000000000003</ele><time>2026-04-19T07:41:01.999Z</time></trkpt><trkpt lat="44.884776411953396" lon="8.07320226360113"><ele>203.0</ele><time>2026-04-19T07:41:03.999Z</time></trkpt><trkpt lat="44.88480247896126" lon="8.073332162369985"><ele>202.25</ele><time>2026-04-19T07:41:07Z</time></trkpt><trkpt lat="44.884936916775075" lon="8.073642093713728"><ele>201.5</ele><time>2026-04-19T07:41:15Z</time></trkpt><trkpt lat="44.884955112044686" lon="8.073734502874204"><ele>200.75</ele><time>2026-04-19T07:41:17Z</time></trkpt><trkpt lat="44.88498938733164" lon="8.073821350177344"><ele>200.0</ele><time>2026-04-19T07:41:19Z</time></trkpt><trkpt lat="44.88505227368303" lon="8.073896869548202"><ele>201.6</ele><time>2026-04-19T07:41:21Z</time></trkpt><trkpt lat="44.88512342447468" lon="8.074047344305013"><ele>203.2</ele><time>2026-04-19T07:41:23Z</time></trkpt><trkpt lat="44.88518878561955" lon="8.074157241809917"><ele>204.8</ele><time>2026-04-19T07:41:25Z</time></trkpt><trkpt lat="44.885253712247305" lon="8.074223024495899"><ele>206.4</ele><time>2026-04-19T07:41:27Z</time></trkpt><trkpt lat="44.88529838874916" lon="8.074309919396482"><ele>208.0</ele><time>2026-04-19T07:41:29Z</time></trkpt><trkpt lat="44.885293772156146" lon="8.074425806848131"><ele>207.99999999999997</ele><time>2026-04-19T07:41:31Z</time></trkpt><trkpt lat="44.88525634143933" lon="8.074512296584846"><ele>208.0</ele><time>2026-04-19T07:41:34Z</time></trkpt><trkpt lat="44.88519318092966" lon="8.074546091668768"><ele>208.0</ele><time>2026-04-19T07:41:44Z</time></trkpt><trkpt lat="44.885096322284795" lon="8.074592900101731"><ele>208.0</ele><time>2026-04-19T07:41:46Z</time></trkpt><trkpt lat="44.88505093926665" lon="8.07448143691011"><ele>207.99999999999997</ele><time>2026-04-19T07:41:48Z</time></trkpt><trkpt lat="44.88503352190171" lon="8.074372946498453"><ele>208.0</ele><time>2026-04-19T07:41:49Z</time></trkpt><trkpt lat="44.885005947700954" lon="8.074290900463625"><ele>206.0</ele><time>2026-04-19T07:41:50Z</time></trkpt><trkpt lat="44.884922311590536" lon="8.074146272801814"><ele>204.0</ele><time>2026-04-19T07:41:52Z</time></trkpt><trkpt lat="44.8848593308493" lon="8.07400208272052"><ele>202.0</ele><time>2026-04-19T07:41:54Z</time></trkpt><trkpt lat="44.884792773502916" lon="8.073841374486301"><ele>200.0</ele><time>2026-04-19T07:41:56Z</time></trkpt><trkpt lat="44.88475874446279" lon="8.0737571795678"><ele>200.00000000000003</ele><time>2026-04-19T07:41:57Z</time></trkpt><trkpt lat="44.884719171158004" lon="8.073683763883388"><ele>200.0</ele><time>2026-04-19T07:41:58Z</time></trkpt><trkpt lat="44.884667172704106" lon="8.073578338395045"><ele>200.0</ele><time>2026-04-19T07:42:00Z</time></trkpt><trkpt lat="44.88465234360579" lon="8.073665446530795"><ele>200.0</ele><time>2026-04-19T07:42:08Z</time></trkpt><trkpt lat="44.884628555046376" lon="8.073789400035041"><ele>200.00000000000003</ele><time>2026-04-19T07:42:11Z</time></trkpt><trkpt lat="44.884592133286866" lon="8.073880593339531"><ele>200.0</ele><time>2026-04-19T07:42:13Z</time></trkpt><trkpt lat="44.8845472465372" lon="8.07402402479358"><ele>200.0</ele><time>2026-04-19T07:42:15Z</time></trkpt><trkpt lat="44.8844983083272" lon="8.074169178598275"><ele>200.0</ele><time>2026-04-19T07:42:17Z</time></trkpt><trkpt lat="44.88442287166431" lon="8.074206616326594"><ele>200.0</ele><time>2026-04-19T07:42:19.999Z</time></trkpt><trkpt lat="44.884317108060706" lon="8.074087410837388"><ele>200.0</ele><time>2026-04-19T07:42:21.999Z</time></trkpt><trkpt lat="44.884231074042816" lon="8.074019469240126"><ele>200.0</ele><time>2026-04-19T07:42:22.999Z</time></trkpt><trkpt lat="44.88416493540945" lon="8.073975621581383"><ele>204.33333333333334</ele><time>2026-04-19T07:42:23.999Z</time></trkpt><trkpt lat="44.88411690868576" lon="8.073909650786218"><ele>208.66666666666669</ele><time>2026-04-19T07:42:25.999Z</time></trkpt><trkpt lat="44.8840741290718" lon="8.073986662170567"><ele>213.0</ele><time>2026-04-19T07:42:51.999Z</time></trkpt><trkpt lat="44.88400688870752" lon="8.074016584624559"><ele>217.33333333333331</ele><time>2026-04-19T07:42:54.999Z</time></trkpt><trkpt lat="44.88390706799017" lon="8.074017659435341"><ele>221.66666666666666</ele><time>2026-04-19T07:42:56.999Z</time></trkpt><trkpt lat="44.883828876506605" lon="8.073963906071574"><ele>226.0</ele><time>2026-04-19T07:42:58.999Z</time></trkpt><trkpt lat="44.88374183208352" lon="8.073917950849655"><ele>225.99999999999997</ele><time>2026-04-19T07:43:00.999Z</time></trkpt><trkpt lat="44.88366684931215" lon="8.073930125568264"><ele>226.0</ele><time>2026-04-19T07:43:05.999Z</time></trkpt><trkpt lat="44.8836237891316" lon="8.073860587179084"><ele>226.0</ele><time>2026-04-19T07:43:08.999Z</time></trkpt><trkpt lat="44.88352579774882" lon="8.073847865379612"><ele>226.0</ele><time>2026-04-19T07:43:13Z</time></trkpt><trkpt lat="44.8834465346406" lon="8.07383052418975"><ele>225.99999999999997</ele><time>2026-04-19T07:43:16Z</time></trkpt><trkpt lat="44.8833611839402" lon="8.073843626640514"><ele>226.0</ele><time>2026-04-19T07:43:18Z</time></trkpt><trkpt lat="44.88328971781979" lon="8.073872977157158"><ele>225.33333333333331</ele><time>2026-04-19T07:43:20Z</time></trkpt><trkpt lat="44.88322064714218" lon="8.073922373677958"><ele>224.66666666666666</ele><time>2026-04-19T07:43:23Z</time></trkpt><trkpt lat="44.883235064301196" lon="8.074022362477805"><ele>224.0</ele><time>2026-04-19T07:43:28Z</time></trkpt><trkpt lat="44.88325266589141" lon="8.074120157904058"><ele>223.33333333333331</ele><time>2026-04-19T07:43:37Z</time></trkpt><trkpt lat="44.88325038439485" lon="8.074209865261246"><ele>222.66666666666666</ele><time>2026-04-19T07:43:44Z</time></trkpt><trkpt lat="44.88316355028046" lon="8.074231326137653"><ele>222.0</ele><time>2026-04-19T07:43:48Z</time></trkpt><trkpt lat="44.88308540290406" lon="8.074277107391483"><ele>219.83333333333334</ele><time>2026-04-19T07:43:51Z</time></trkpt><trkpt lat="44.883044261211865" lon="8.074348765591283"><ele>217.66666666666669</ele><time>2026-04-19T07:43:53Z</time></trkpt><trkpt lat="44.8830457168629" lon="8.074437637261312"><ele>215.5</ele><time>2026-04-19T07:43:55Z</time></trkpt><trkpt lat="44.88311844002866" lon="8.074518499370967"><ele>213.33333333333334</ele><time>2026-04-19T07:43:57Z</time></trkpt><trkpt lat="44.883193675047266" lon="8.074610881043059"><ele>211.16666666666669</ele><time>2026-04-19T07:44:00Z</time></trkpt><trkpt lat="44.88324071504286" lon="8.074709671022188"><ele>209.0</ele><time>2026-04-19T07:44:02Z</time></trkpt><trkpt lat="44.883324666247624" lon="8.074787859817448"><ele>209.00000000000003</ele><time>2026-04-19T07:44:04Z</time></trkpt><trkpt lat="44.883415289667404" lon="8.074810016049172"><ele>209.0</ele><time>2026-04-19T07:44:06Z</time></trkpt><trkpt lat="44.88348299579391" lon="8.074787601334025"><ele>209.0</ele><time>2026-04-19T07:44:08Z</time></trkpt><trkpt lat="44.883509111000976" lon="8.07490180541878"><ele>209.0</ele><time>2026-04-19T07:44:11Z</time></trkpt><trkpt lat="44.88356665258217" lon="8.074946268950042"><ele>209.00000000000003</ele><time>2026-04-19T07:44:13Z</time></trkpt><trkpt lat="44.883657327381194" lon="8.074993904361452"><ele>209.0</ele><time>2026-04-19T07:44:15Z</time></trkpt><trkpt lat="44.88373199361287" lon="8.07497744498439"><ele>206.39999999999998</ele><time>2026-04-19T07:44:16Z</time></trkpt><trkpt lat="44.88384332912734" lon="8.074966636020548"><ele>203.8</ele><time>2026-04-19T07:44:18Z</time></trkpt><trkpt lat="44.88392740421541" lon="8.074994937129523"><ele>201.2</ele><time>2026-04-19T07:44:19.999Z</time></trkpt><trkpt lat="44.88399061342783" lon="8.075056716774684"><ele>198.60000000000002</ele><time>2026-04-19T07:44:21.999Z</time></trkpt><trkpt lat="44.88408909212848" lon="8.075008784306762"><ele>196.0</ele><time>2026-04-19T07:44:23.999Z</time></trkpt><trkpt lat="44.8843159622006" lon="8.075070584090899"><ele>194.66666666666666</ele><time>2026-04-19T07:44:29.999Z</time></trkpt><trkpt lat="44.884387148328884" lon="8.075090189203895"><ele>193.33333333333331</ele><time>2026-04-19T07:44:30.999Z</time></trkpt><trkpt lat="44.88445911120764" lon="8.07510261761999"><ele>192.0</ele><time>2026-04-19T07:44:31.999Z</time></trkpt><trkpt lat="44.88457781957988" lon="8.075103837173952"><ele>190.66666666666666</ele><time>2026-04-19T07:44:33.999Z</time></trkpt><trkpt lat="44.88466733146458" lon="8.07510441421939"><ele>189.33333333333331</ele><time>2026-04-19T07:44:34.999Z</time></trkpt><trkpt lat="44.88474259607411" lon="8.0751057437284"><ele>188.0</ele><time>2026-04-19T07:44:35.999Z</time></trkpt><trkpt lat="44.88482437128604" lon="8.075147455512054"><ele>188.0</ele><time>2026-04-19T07:44:37.999Z</time></trkpt><trkpt lat="44.88483813384173" lon="8.075297583695976"><ele>188.0</ele><time>2026-04-19T07:44:40.999Z</time></trkpt><trkpt lat="44.88482528438295" lon="8.075429153617401"><ele>188.0</ele><time>2026-04-19T07:44:41.999Z</time></trkpt><trkpt lat="44.8848281074787" lon="8.075581181482423"><ele>188.0</ele><time>2026-04-19T07:44:42.999Z</time></trkpt><trkpt lat="44.884840180828554" lon="8.07568965719957"><ele>188.0</ele><time>2026-04-19T07:44:43.999Z</time></trkpt><trkpt lat="44.88488951937838" lon="8.075784748511943"><ele>187.60000000000002</ele><time>2026-04-19T07:44:45.999Z</time></trkpt><trkpt lat="44.884946477661835" lon="8.075903548260042"><ele>187.20000000000002</ele><time>2026-04-19T07:44:47.999Z</time></trkpt><trkpt lat="44.88496418626554" lon="8.075991412659459"><ele>186.8</ele><time>2026-04-19T07:44:48.999Z</time></trkpt><trkpt lat="44.885004216104306" lon="8.076170239491406"><ele>186.4</ele><time>2026-04-19T07:44:50.999Z</time></trkpt><trkpt lat="44.88502484427387" lon="8.076286507636945"><ele>186.0</ele><time>2026-04-19T07:44:51.999Z</time></trkpt><trkpt lat="44.88504190653745" lon="8.076394220454976"><ele>186.0</ele><time>2026-04-19T07:44:52.999Z</time></trkpt><trkpt lat="44.885049156759806" lon="8.076507848111316"><ele>186.0</ele><time>2026-04-19T07:44:53.999Z</time></trkpt><trkpt lat="44.88505855445492" lon="8.07665682735118"><ele>186.0</ele><time>2026-04-19T07:44:54.999Z</time></trkpt><trkpt lat="44.8850797174358" lon="8.076803441688837"><ele>186.0</ele><time>2026-04-19T07:44:55.999Z</time></trkpt><trkpt lat="44.88509939940035" lon="8.07692067514235"><ele>186.0</ele><time>2026-04-19T07:44:56.999Z</time></trkpt><trkpt lat="44.88515541616411" lon="8.077033783206783"><ele>187.16666666666666</ele><time>2026-04-19T07:44:58.999Z</time></trkpt><trkpt lat="44.88523340143392" lon="8.077080489777433"><ele>188.33333333333331</ele><time>2026-04-19T07:45:00.999Z</time></trkpt><trkpt lat="44.88518449702334" lon="8.077188763533824"><ele>189.5</ele><time>2026-04-19T07:45:03.999Z</time></trkpt><trkpt lat="44.88521149221045" lon="8.077335568092197"><ele>190.66666666666666</ele><time>2026-04-19T07:45:05.999Z</time></trkpt><trkpt lat="44.88524370549399" lon="8.07743609127821"><ele>191.83333333333331</ele><time>2026-04-19T07:45:06.999Z</time></trkpt><trkpt lat="44.88525732335251" lon="8.077527978373862"><ele>193.0</ele><time>2026-04-19T07:45:07.999Z</time></trkpt><trkpt lat="44.88526909691065" lon="8.077625857595335"><ele>192.99999999999997</ele><time>2026-04-19T07:45:08.999Z</time></trkpt><trkpt lat="44.88528493095234" lon="8.077726719452263"><ele>193.0</ele><time>2026-04-19T07:45:09.999Z</time></trkpt><trkpt lat="44.885311675717524" lon="8.077830929884795"><ele>193.0</ele><time>2026-04-19T07:45:10.999Z</time></trkpt><trkpt lat="44.885345985383246" lon="8.07793532713197"><ele>193.0</ele><time>2026-04-19T07:45:11.999Z</time></trkpt><trkpt lat="44.88537911883579" lon="8.078037455407502"><ele>192.99999999999997</ele><time>2026-04-19T07:45:12.999Z</time></trkpt><trkpt lat="44.88541349469755" lon="8.078143619357814"><ele>193.0</ele><time>2026-04-19T07:45:13.999Z</time></trkpt><trkpt lat="44.88544581618806" lon="8.078247927956648"><ele>191.83333333333331</ele><time>2026-04-19T07:45:14.999Z</time></trkpt><trkpt lat="44.885467141098566" lon="8.078362123643032"><ele>190.66666666666666</ele><time>2026-04-19T07:45:15.999Z</time></trkpt><trkpt lat="44.885468500036836" lon="8.078451651814426"><ele>189.5</ele><time>2026-04-19T07:45:17Z</time></trkpt><trkpt lat="44.88548865108329" lon="8.078553214875793"><ele>188.33333333333331</ele><time>2026-04-19T07:45:19Z</time></trkpt><trkpt lat="44.88555358640741" lon="8.078532795228906"><ele>187.16666666666666</ele><time>2026-04-19T07:45:30Z</time></trkpt><trkpt lat="44.885616170977755" lon="8.078496973748548"><ele>186.0</ele><time>2026-04-19T07:45:32Z</time></trkpt><trkpt lat="44.88575688380889" lon="8.078432077537174"><ele>186.0</ele><time>2026-04-19T07:45:34Z</time></trkpt><trkpt lat="44.88583190336222" lon="8.078394185781155"><ele>186.0</ele><time>2026-04-19T07:45:35Z</time></trkpt><trkpt lat="44.88589500578202" lon="8.078377270333164"><ele>186.0</ele><time>2026-04-19T07:45:36Z</time></trkpt><trkpt lat="44.88597865474314" lon="8.078366514599525"><ele>186.0</ele><time>2026-04-19T07:45:38Z</time></trkpt><trkpt lat="44.885996637035895" lon="8.078463912019851"><ele>186.0</ele><time>2026-04-19T07:45:40Z</time></trkpt><trkpt lat="44.88600819974162" lon="8.078617684011814"><ele>186.0</ele><time>2026-04-19T07:45:42Z</time></trkpt><trkpt lat="44.88603296029011" lon="8.078720621493796"><ele>188.60000000000002</ele><time>2026-04-19T07:45:43Z</time></trkpt><trkpt lat="44.8860479470594" lon="8.078825640381199"><ele>191.2</ele><time>2026-04-19T07:45:45Z</time></trkpt><trkpt lat="44.88611274320237" lon="8.078968542239954"><ele>193.8</ele><time>2026-04-19T07:45:50Z</time></trkpt><trkpt lat="44.886133630200845" lon="8.079080845753458"><ele>196.39999999999998</ele><time>2026-04-19T07:45:51Z</time></trkpt><trkpt lat="44.88615934972412" lon="8.079203412077272"><ele>199.0</ele><time>2026-04-19T07:45:52Z</time></trkpt><trkpt lat="44.886200506191756" lon="8.079347421645632"><ele>199.0</ele><time>2026-04-19T07:45:53Z</time></trkpt><trkpt lat="44.886243863802335" lon="8.07952122388773"><ele>199.0</ele><time>2026-04-19T07:45:54Z</time></trkpt><trkpt lat="44.88627068233121" lon="8.079649079312002"><ele>199.0</ele><time>2026-04-19T07:45:55Z</time></trkpt><trkpt lat="44.886288925480805" lon="8.079785505462578"><ele>199.0</ele><time>2026-04-19T07:45:56Z</time></trkpt><trkpt lat="44.886307286315024" lon="8.079946207305113"><ele>199.0</ele><time>2026-04-19T07:45:57Z</time></trkpt><trkpt lat="44.88632938199369" lon="8.080084254652196"><ele>198.7142857142857</ele><time>2026-04-19T07:45:58Z</time></trkpt><trkpt lat="44.88635486212536" lon="8.080192730152994"><ele>198.42857142857142</ele><time>2026-04-19T07:45:59Z</time></trkpt><trkpt lat="44.886387454878054" lon="8.0802730297538"><ele>198.14285714285714</ele><time>2026-04-19T07:46:00Z</time></trkpt><trkpt lat="44.886438554507954" lon="8.08034760727757"><ele>197.85714285714283</ele><time>2026-04-19T07:46:01Z</time></trkpt><trkpt lat="44.886485526525476" lon="8.08043989112439"><ele>197.57142857142858</ele><time>2026-04-19T07:46:02Z</time></trkpt><trkpt lat="44.886519666984974" lon="8.080540082295299"><ele>197.28571428571428</ele><time>2026-04-19T07:46:03Z</time></trkpt><trkpt lat="44.88654429352091" lon="8.080626516672387"><ele>197.0</ele><time>2026-04-19T07:46:04Z</time></trkpt><trkpt lat="44.886635147335134" lon="8.080725385244225"><ele>197.0</ele><time>2026-04-19T07:46:06Z</time></trkpt><trkpt lat="44.886704608212725" lon="8.080742449648302"><ele>197.0</ele><time>2026-04-19T07:46:07Z</time></trkpt><trkpt lat="44.88677140049815" lon="8.080741313590142"><ele>197.0</ele><time>2026-04-19T07:46:08Z</time></trkpt><trkpt lat="44.88673514518364" lon="8.08097329357527"><ele>197.0</ele><time>2026-04-19T07:46:14Z</time></trkpt><trkpt lat="44.886719839596104" lon="8.081081144968266"><ele>197.0</ele><time>2026-04-19T07:46:15Z</time></trkpt><trkpt lat="44.88669947195783" lon="8.081201213085068"><ele>196.6</ele><time>2026-04-19T07:46:16Z</time></trkpt><trkpt lat="44.88668245983685" lon="8.081338829227988"><ele>196.2</ele><time>2026-04-19T07:46:16.999Z</time></trkpt><trkpt lat="44.88665093090809" lon="8.081480999412296"><ele>195.8</ele><time>2026-04-19T07:46:17.999Z</time></trkpt><trkpt lat="44.88662941839388" lon="8.0816390779512"><ele>195.4</ele><time>2026-04-19T07:46:18.999Z</time></trkpt><trkpt lat="44.88660357100746" lon="8.081801754433846"><ele>195.0</ele><time>2026-04-19T07:46:19.999Z</time></trkpt><trkpt lat="44.88658639275732" lon="8.081914787705918"><ele>194.6</ele><time>2026-04-19T07:46:20.999Z</time></trkpt><trkpt lat="44.88665867519972" lon="8.081946328553254"><ele>194.2</ele><time>2026-04-19T07:46:26.999Z</time></trkpt><trkpt lat="44.88672485552685" lon="8.082005804363801"><ele>193.8</ele><time>2026-04-19T07:46:28.999Z</time></trkpt><trkpt lat="44.88674208327753" lon="8.082168053223807"><ele>193.4</ele><time>2026-04-19T07:46:30.999Z</time></trkpt><trkpt lat="44.8867190825327" lon="8.082251646810388"><ele>193.0</ele><time>2026-04-19T07:46:31.999Z</time></trkpt><trkpt lat="44.886669199219405" lon="8.082409128664816"><ele>192.8</ele><time>2026-04-19T07:46:33.999Z</time></trkpt><trkpt lat="44.886628583125905" lon="8.082559470857086"><ele>192.60000000000002</ele><time>2026-04-19T07:46:35.999Z</time></trkpt><trkpt lat="44.886619357374826" lon="8.082714691380408"><ele>192.39999999999998</ele><time>2026-04-19T07:46:37.999Z</time></trkpt><trkpt lat="44.88662944561047" lon="8.082875345541861"><ele>192.2</ele><time>2026-04-19T07:46:39.999Z</time></trkpt><trkpt lat="44.886646396513044" lon="8.082964744474708"><ele>192.0</ele><time>2026-04-19T07:46:40.999Z</time></trkpt><trkpt lat="44.886669432638456" lon="8.083137291260996"><ele>192.0</ele><time>2026-04-19T07:46:42.999Z</time></trkpt><trkpt lat="44.88669874575987" lon="8.08322724973987"><ele>192.0</ele><time>2026-04-19T07:46:43.999Z</time></trkpt><trkpt lat="44.88674651237099" lon="8.083360245546537"><ele>192.0</ele><time>2026-04-19T07:46:44.999Z</time></trkpt><trkpt lat="44.886804488672496" lon="8.083510192006127"><ele>192.0</ele><time>2026-04-19T07:46:45.999Z</time></trkpt><trkpt lat="44.88685129334823" lon="8.083647934371758"><ele>192.0</ele><time>2026-04-19T07:46:46.999Z</time></trkpt><trkpt lat="44.88689723818037" lon="8.08376859532686"><ele>186.6</ele><time>2026-04-19T07:46:47.999Z</time></trkpt><trkpt lat="44.88693686396043" lon="8.08389034550888"><ele>181.2</ele><time>2026-04-19T07:46:48.999Z</time></trkpt><trkpt lat="44.886969331692626" lon="8.084012818150581"><ele>175.8</ele><time>2026-04-19T07:46:49.999Z</time></trkpt><trkpt lat="44.88700226275426" lon="8.0841358176167"><ele>170.4</ele><time>2026-04-19T07:46:50.999Z</time></trkpt><trkpt lat="44.88700471219822" lon="8.084263343066485"><ele>165.0</ele><time>2026-04-19T07:46:51.999Z</time></trkpt><trkpt lat="44.88702948971817" lon="8.084391990199808"><ele>165.2</ele><time>2026-04-19T07:46:52.999Z</time></trkpt><trkpt lat="44.887037356502006" lon="8.084506317134451"><ele>165.4</ele><time>2026-04-19T07:46:53.999Z</time></trkpt><trkpt lat="44.88703826308046" lon="8.084638138393048"><ele>165.60000000000002</ele><time>2026-04-19T07:46:54.999Z</time></trkpt><trkpt lat="44.887021353727164" lon="8.084767540698943"><ele>165.8</ele><time>2026-04-19T07:46:55.999Z</time></trkpt><trkpt lat="44.88699130112859" lon="8.084906236237126"><ele>166.0</ele><time>2026-04-19T07:46:56.999Z</time></trkpt><trkpt lat="44.886945648261225" lon="8.085054808219718"><ele>166.0</ele><time>2026-04-19T07:46:57.999Z</time></trkpt><trkpt lat="44.886903521340706" lon="8.085192322243905"><ele>166.0</ele><time>2026-04-19T07:46:58.999Z</time></trkpt><trkpt lat="44.886886797903806" lon="8.085313692155774"><ele>166.0</ele><time>2026-04-19T07:46:59.999Z</time></trkpt><trkpt lat="44.88690641977603" lon="8.085436376873307"><ele>166.0</ele><time>2026-04-19T07:47:00.999Z</time></trkpt><trkpt lat="44.88695810388182" lon="8.085602365202678"><ele>166.0</ele><time>2026-04-19T07:47:01.999Z</time></trkpt><trkpt lat="44.88699537898345" lon="8.085754035742205"><ele>166.0</ele><time>2026-04-19T07:47:02.999Z</time></trkpt><trkpt lat="44.887013994685354" lon="8.085901392140796"><ele>166.0</ele><time>2026-04-19T07:47:03.999Z</time></trkpt><trkpt lat="44.88703053473757" lon="8.086042153128941"><ele>166.0</ele><time>2026-04-19T07:47:04.999Z</time></trkpt><trkpt lat="44.88706793183637" lon="8.08617597749814"><ele>166.0</ele><time>2026-04-19T07:47:05.999Z</time></trkpt><trkpt lat="44.88712591900583" lon="8.086292942522705"><ele>166.0</ele><time>2026-04-19T07:47:06.999Z</time></trkpt><trkpt lat="44.887185585935484" lon="8.086394655617767"><ele>166.0</ele><time>2026-04-19T07:47:07.999Z</time></trkpt><trkpt lat="44.88723106855866" lon="8.086478735081267"><ele>166.0</ele><time>2026-04-19T07:47:08.999Z</time></trkpt><trkpt lat="44.88727603626543" lon="8.08654177519962"><ele>166.0</ele><time>2026-04-19T07:47:09.999Z</time></trkpt><trkpt lat="44.88733747348385" lon="8.086578700470358"><ele>166.0</ele><time>2026-04-19T07:47:10.999Z</time></trkpt><trkpt lat="44.88740674803423" lon="8.086597880716472"><ele>166.0</ele><time>2026-04-19T07:47:11.999Z</time></trkpt><trkpt lat="44.88751013206612" lon="8.086639969804988"><ele>166.0</ele><time>2026-04-19T07:47:13.999Z</time></trkpt><trkpt lat="44.887595649806975" lon="8.086706188972745"><ele>167.0</ele><time>2026-04-19T07:47:14.999Z</time></trkpt><trkpt lat="44.887680408158005" lon="8.086796892945951"><ele>168.0</ele><time>2026-04-19T07:47:15.999Z</time></trkpt><trkpt lat="44.88774698897005" lon="8.086926695149078"><ele>169.0</ele><time>2026-04-19T07:47:16.999Z</time></trkpt><trkpt lat="44.88779802015524" lon="8.087060448622191"><ele>170.0</ele><time>2026-04-19T07:47:17.999Z</time></trkpt><trkpt lat="44.887814699468976" lon="8.087204736024868"><ele>171.0</ele><time>2026-04-19T07:47:18.999Z</time></trkpt><trkpt lat="44.88780361911458" lon="8.087367946839152"><ele>170.66666666666666</ele><time>2026-04-19T07:47:19.999Z</time></trkpt><trkpt lat="44.88781471134072" lon="8.087511887729748"><ele>170.33333333333334</ele><time>2026-04-19T07:47:20.999Z</time></trkpt><trkpt lat="44.88784740271596" lon="8.087636681614104"><ele>170.0</ele><time>2026-04-19T07:47:21.999Z</time></trkpt><trkpt lat="44.88788711040772" lon="8.08773174293645"><ele>169.66666666666669</ele><time>2026-04-19T07:47:23Z</time></trkpt><trkpt lat="44.88794245464338" lon="8.087792714264987"><ele>169.33333333333334</ele><time>2026-04-19T07:47:24Z</time></trkpt><trkpt lat="44.888017141289815" lon="8.087816293656388"><ele>169.0</ele><time>2026-04-19T07:47:25Z</time></trkpt><trkpt lat="44.88811098967657" lon="8.087817329020643"><ele>169.0</ele><time>2026-04-19T07:47:26Z</time></trkpt><trkpt lat="44.888246626257036" lon="8.087813680802974"><ele>169.0</ele><time>2026-04-19T07:47:27Z</time></trkpt><trkpt lat="44.88837763316621" lon="8.087842473326212"><ele>169.0</ele><time>2026-04-19T07:47:28Z</time></trkpt><trkpt lat="44.888489042488764" lon="8.087871509905986"><ele>169.0</ele><time>2026-04-19T07:47:29Z</time></trkpt><trkpt lat="44.8886005136119" lon="8.08792735365584"><ele>171.66666666666669</ele><time>2026-04-19T07:47:30Z</time></trkpt><trkpt lat="44.888704849062485" lon="8.087982362383551"><ele>174.33333333333334</ele><time>2026-04-19T07:47:31Z</time></trkpt><trkpt lat="44.888785303446" lon="8.08800031827516"><ele>177.0</ele><time>2026-04-19T07:47:32Z</time></trkpt><trkpt lat="44.888854350793665" lon="8.087993821394992"><ele>179.66666666666666</ele><time>2026-04-19T07:47:33Z</time></trkpt><trkpt lat="44.88893429029316" lon="8.087995221164917"><ele>182.33333333333331</ele><time>2026-04-19T07:47:34Z</time></trkpt><trkpt lat="44.889035826129906" lon="8.087999658498035"><ele>185.0</ele><time>2026-04-19T07:47:35Z</time></trkpt><trkpt lat="44.88913565060248" lon="8.08799728468107"><ele>185.0</ele><time>2026-04-19T07:47:36Z</time></trkpt><trkpt lat="44.889232021976206" lon="8.088016424041626"><ele>185.0</ele><time>2026-04-19T07:47:37Z</time></trkpt><trkpt lat="44.889339304511786" lon="8.088015974321632"><ele>185.0</ele><time>2026-04-19T07:47:38Z</time></trkpt><trkpt lat="44.88945294227708" lon="8.088026034521459"><ele>185.0</ele><time>2026-04-19T07:47:39Z</time></trkpt><trkpt lat="44.88955939384454" lon="8.088030054785161"><ele>185.0</ele><time>2026-04-19T07:47:40Z</time></trkpt><trkpt lat="44.88966104424004" lon="8.088023989399009"><ele>188.8</ele><time>2026-04-19T07:47:41Z</time></trkpt><trkpt lat="44.88976678850928" lon="8.087997303636573"><ele>192.6</ele><time>2026-04-19T07:47:42Z</time></trkpt><trkpt lat="44.88986420540041" lon="8.087969110979879"><ele>196.39999999999998</ele><time>2026-04-19T07:47:43Z</time></trkpt><trkpt lat="44.889957352036305" lon="8.087927933607334"><ele>200.2</ele><time>2026-04-19T07:47:44Z</time></trkpt><trkpt lat="44.89004318723367" lon="8.087954268231226"><ele>204.0</ele><time>2026-04-19T07:47:45Z</time></trkpt><trkpt lat="44.890139718169436" lon="8.088013713801692"><ele>206.5</ele><time>2026-04-19T07:47:46Z</time></trkpt><trkpt lat="44.89022053120717" lon="8.088074078567283"><ele>209.0</ele><time>2026-04-19T07:47:47Z</time></trkpt><trkpt lat="44.89029784534807" lon="8.088097038804642"><ele>211.5</ele><time>2026-04-19T07:47:48Z</time></trkpt><trkpt lat="44.89037050727526" lon="8.088093076181817"><ele>214.0</ele><time>2026-04-19T07:47:49Z</time></trkpt><trkpt lat="44.89045842384085" lon="8.088071492588949"><ele>216.5</ele><time>2026-04-19T07:47:50Z</time></trkpt><trkpt lat="44.890565314062414" lon="8.088045290417574"><ele>219.0</ele><time>2026-04-19T07:47:51Z</time></trkpt><trkpt lat="44.89064943974768" lon="8.08805192323747"><ele>219.0</ele><time>2026-04-19T07:47:52Z</time></trkpt><trkpt lat="44.89072714513939" lon="8.088075700342719"><ele>219.0</ele><time>2026-04-19T07:47:53Z</time></trkpt><trkpt lat="44.89079194034721" lon="8.088137868314366"><ele>219.0</ele><time>2026-04-19T07:47:54Z</time></trkpt><trkpt lat="44.89087054934811" lon="8.08819770413248"><ele>219.0</ele><time>2026-04-19T07:47:55Z</time></trkpt><trkpt lat="44.89095179512719" lon="8.088280840022202"><ele>219.0</ele><time>2026-04-19T07:47:56Z</time></trkpt><trkpt lat="44.8910264556265" lon="8.088352758834754"><ele>219.0</ele><time>2026-04-19T07:47:57Z</time></trkpt><trkpt lat="44.89109626616188" lon="8.08839140232875"><ele>218.2</ele><time>2026-04-19T07:47:58Z</time></trkpt><trkpt lat="44.89117161511886" lon="8.088363815164639"><ele>217.39999999999998</ele><time>2026-04-19T07:47:59Z</time></trkpt><trkpt lat="44.891248898849945" lon="8.08828203137721"><ele>216.6</ele><time>2026-04-19T07:48:00Z</time></trkpt><trkpt lat="44.89130818513688" lon="8.088248748992235"><ele>215.8</ele><time>2026-04-19T07:48:01Z</time></trkpt><trkpt lat="44.89147524581543" lon="8.088233488028793"><ele>215.0</ele><time>2026-04-19T07:48:05Z</time></trkpt><trkpt lat="44.8915367860039" lon="8.088163199147708"><ele>215.0</ele><time>2026-04-19T07:48:06Z</time></trkpt><trkpt lat="44.8915832556085" lon="8.088081233743836"><ele>215.0</ele><time>2026-04-19T07:48:07Z</time></trkpt><trkpt lat="44.89163396055035" lon="8.088024372895834"><ele>215.0</ele><time>2026-04-19T07:48:08Z</time></trkpt><trkpt lat="44.891700326339674" lon="8.088023447296596"><ele>215.0</ele><time>2026-04-19T07:48:09Z</time></trkpt><trkpt lat="44.89174776688595" lon="8.088089098507869"><ele>215.0</ele><time>2026-04-19T07:48:10Z</time></trkpt><trkpt lat="44.8917599430853" lon="8.088188914861737"><ele>215.0</ele><time>2026-04-19T07:48:11Z</time></trkpt><trkpt lat="44.891728973559715" lon="8.088286836116053"><ele>215.0</ele><time>2026-04-19T07:48:12Z</time></trkpt><trkpt lat="44.891664138576914" lon="8.088387757701552"><ele>214.66666666666669</ele><time>2026-04-19T07:48:13Z</time></trkpt><trkpt lat="44.891588374582824" lon="8.08849169043103"><ele>214.33333333333334</ele><time>2026-04-19T07:48:14Z</time></trkpt><trkpt lat="44.891523620632135" lon="8.088597517412547"><ele>214.0</ele><time>2026-04-19T07:48:15Z</time></trkpt><trkpt lat="44.89147792013822" lon="8.088708949981543"><ele>213.66666666666669</ele><time>2026-04-19T07:48:16Z</time></trkpt><trkpt lat="44.89143672878335" lon="8.088815706700428"><ele>213.33333333333334</ele><time>2026-04-19T07:48:17Z</time></trkpt><trkpt lat="44.891413034973624" lon="8.088901045934925"><ele>213.0</ele><time>2026-04-19T07:48:18Z</time></trkpt><trkpt lat="44.89139283218039" lon="8.089032183771074"><ele>213.0</ele><time>2026-04-19T07:48:20Z</time></trkpt><trkpt lat="44.891480278930864" lon="8.088999527471218"><ele>213.0</ele><time>2026-04-19T07:48:25Z</time></trkpt><trkpt lat="44.89152457904204" lon="8.088929370069426"><ele>213.0</ele><time>2026-04-19T07:48:26Z</time></trkpt><trkpt lat="44.891589173294875" lon="8.088845970252407"><ele>213.0</ele><time>2026-04-19T07:48:27.999Z</time></trkpt><trkpt lat="44.891691931447085" lon="8.088783634702846"><ele>213.0</ele><time>2026-04-19T07:48:29.999Z</time></trkpt><trkpt lat="44.891761072141776" lon="8.088727317442434"><ele>213.0</ele><time>2026-04-19T07:48:30.999Z</time></trkpt><trkpt lat="44.89184122255375" lon="8.088631945365458"><ele>210.5</ele><time>2026-04-19T07:48:31.999Z</time></trkpt><trkpt lat="44.89191169729564" lon="8.088554329836525"><ele>208.0</ele><time>2026-04-19T07:48:32.999Z</time></trkpt><trkpt lat="44.89199079957088" lon="8.088493209253677"><ele>205.5</ele><time>2026-04-19T07:48:33.999Z</time></trkpt><trkpt lat="44.89206998389149" lon="8.088460958720598"><ele>203.0</ele><time>2026-04-19T07:48:34.999Z</time></trkpt><trkpt lat="44.89215134760066" lon="8.088457641487453"><ele>200.5</ele><time>2026-04-19T07:48:35.999Z</time></trkpt><trkpt lat="44.892236332328515" lon="8.088470748352727"><ele>198.0</ele><time>2026-04-19T07:48:36.999Z</time></trkpt><trkpt lat="44.892324883908" lon="8.088482645091123"><ele>198.0</ele><time>2026-04-19T07:48:37.999Z</time></trkpt><trkpt lat="44.89240689707121" lon="8.088495724316777"><ele>198.0</ele><time>2026-04-19T07:48:38.999Z</time></trkpt><trkpt lat="44.89249300388199" lon="8.088507468954369"><ele>198.0</ele><time>2026-04-19T07:48:39.999Z</time></trkpt><trkpt lat="44.89257743786387" lon="8.088517834936068"><ele>198.0</ele><time>2026-04-19T07:48:40.999Z</time></trkpt><trkpt lat="44.89267232741294" lon="8.088539532237721"><ele>198.0</ele><time>2026-04-19T07:48:41.999Z</time></trkpt><trkpt lat="44.89277210210061" lon="8.088586151059811"><ele>195.4</ele><time>2026-04-19T07:48:42.999Z</time></trkpt><trkpt lat="44.89285428970391" lon="8.088658292127468"><ele>192.8</ele><time>2026-04-19T07:48:43.999Z</time></trkpt><trkpt lat="44.89293590964336" lon="8.088733229381498"><ele>190.2</ele><time>2026-04-19T07:48:44.999Z</time></trkpt><trkpt lat="44.893015922315264" lon="8.088797819616836"><ele>187.6</ele><time>2026-04-19T07:48:45.999Z</time></trkpt><trkpt lat="44.893097496319314" lon="8.088860894632782"><ele>185.0</ele><time>2026-04-19T07:48:46.999Z</time></trkpt><trkpt lat="44.89318209935357" lon="8.088916928483679"><ele>185.0</ele><time>2026-04-19T07:48:47.999Z</time></trkpt><trkpt lat="44.89327445441051" lon="8.088931395000017"><ele>185.0</ele><time>2026-04-19T07:48:48.999Z</time></trkpt><trkpt lat="44.89336684797952" lon="8.08892082390969"><ele>185.0</ele><time>2026-04-19T07:48:49.999Z</time></trkpt><trkpt lat="44.893459568681564" lon="8.088875270311748"><ele>185.0</ele><time>2026-04-19T07:48:50.999Z</time></trkpt><trkpt lat="44.89353662123894" lon="8.088799663314694"><ele>185.0</ele><time>2026-04-19T07:48:51.999Z</time></trkpt><trkpt lat="44.893603121283626" lon="8.088707071565343"><ele>182.4</ele><time>2026-04-19T07:48:52.999Z</time></trkpt><trkpt lat="44.893673151221414" lon="8.088628708773998"><ele>179.8</ele><time>2026-04-19T07:48:53.999Z</time></trkpt><trkpt lat="44.893762009941526" lon="8.08858894123955"><ele>177.2</ele><time>2026-04-19T07:48:54.999Z</time></trkpt><trkpt lat="44.89387725172389" lon="8.088561540558374"><ele>174.6</ele><time>2026-04-19T07:48:55.999Z</time></trkpt><trkpt lat="44.89398637365486" lon="8.088545028782999"><ele>172.0</ele><time>2026-04-19T07:48:56.999Z</time></trkpt><trkpt lat="44.894097803639475" lon="8.088543353790767"><ele>172.0</ele><time>2026-04-19T07:48:57.999Z</time></trkpt><trkpt lat="44.89420045845005" lon="8.088551441753852"><ele>172.0</ele><time>2026-04-19T07:48:58.999Z</time></trkpt><trkpt lat="44.8942939129454" lon="8.08859093184321"><ele>172.0</ele><time>2026-04-19T07:48:59.999Z</time></trkpt><trkpt lat="44.8943855934199" lon="8.088655018568566"><ele>172.0</ele><time>2026-04-19T07:49:00.999Z</time></trkpt><trkpt lat="44.89446368027283" lon="8.08869153504613"><ele>172.0</ele><time>2026-04-19T07:49:01.999Z</time></trkpt><trkpt lat="44.89453866620799" lon="8.088664152432928"><ele>172.0</ele><time>2026-04-19T07:49:02.999Z</time></trkpt><trkpt lat="44.89460815282842" lon="8.088598810792238"><ele>172.0</ele><time>2026-04-19T07:49:03.999Z</time></trkpt><trkpt lat="44.89467291234024" lon="8.08852897295625"><ele>172.0</ele><time>2026-04-19T07:49:04.999Z</time></trkpt><trkpt lat="44.89473700426476" lon="8.088462861637307"><ele>172.0</ele><time>2026-04-19T07:49:05.999Z</time></trkpt><trkpt lat="44.89480702476569" lon="8.0884134478079"><ele>172.0</ele><time>2026-04-19T07:49:06.999Z</time></trkpt><trkpt lat="44.89488693947453" lon="8.088377138291552"><ele>172.0</ele><time>2026-04-19T07:49:07.999Z</time></trkpt><trkpt lat="44.894963165830944" lon="8.08835950549721"><ele>172.0</ele><time>2026-04-19T07:49:08.999Z</time></trkpt><trkpt lat="44.89502612840166" lon="8.088361850645594"><ele>172.0</ele><time>2026-04-19T07:49:09.999Z</time></trkpt><trkpt lat="44.89512204467235" lon="8.088373956465414"><ele>172.0</ele><time>2026-04-19T07:49:11.999Z</time></trkpt><trkpt lat="44.895171258068785" lon="8.088308853411212"><ele>172.0</ele><time>2026-04-19T07:49:12.999Z</time></trkpt><trkpt lat="44.89524257442403" lon="8.088170428457799"><ele>172.0</ele><time>2026-04-19T07:49:13.999Z</time></trkpt><trkpt lat="44.895322713904065" lon="8.08801259061408"><ele>173.0</ele><time>2026-04-19T07:49:14.999Z</time></trkpt><trkpt lat="44.89540373561881" lon="8.087868692753343"><ele>174.0</ele><time>2026-04-19T07:49:15.999Z</time></trkpt><trkpt lat="44.895484119262164" lon="8.087757090458032"><ele>175.0</ele><time>2026-04-19T07:49:16.999Z</time></trkpt><trkpt lat="44.895569386379215" lon="8.087637611116198"><ele>176.0</ele><time>2026-04-19T07:49:17.999Z</time></trkpt><trkpt lat="44.89564586246862" lon="8.087497502238751"><ele>176.0</ele><time>2026-04-19T07:49:18.999Z</time></trkpt><trkpt lat="44.895721712393524" lon="8.087335294817478"><ele>176.0</ele><time>2026-04-19T07:49:19.999Z</time></trkpt><trkpt lat="44.89578865961608" lon="8.087177907067213"><ele>176.0</ele><time>2026-04-19T07:49:20.999Z</time></trkpt><trkpt lat="44.89584305780079" lon="8.08701931658061"><ele>176.0</ele><time>2026-04-19T07:49:21.999Z</time></trkpt><trkpt lat="44.89589371298989" lon="8.08684314230949"><ele>178.5</ele><time>2026-04-19T07:49:22.999Z</time></trkpt><trkpt lat="44.89595757839547" lon="8.086667247425497"><ele>181.0</ele><time>2026-04-19T07:49:23.999Z</time></trkpt><trkpt lat="44.8960309817273" lon="8.086517972209517"><ele>183.5</ele><time>2026-04-19T07:49:24.999Z</time></trkpt><trkpt lat="44.89611441062374" lon="8.086358019321446"><ele>186.0</ele><time>2026-04-19T07:49:25.999Z</time></trkpt><trkpt lat="44.896190688691604" lon="8.086195215069191"><ele>186.0</ele><time>2026-04-19T07:49:26.999Z</time></trkpt><trkpt lat="44.896257796006935" lon="8.086027172788206"><ele>186.0</ele><time>2026-04-19T07:49:27.999Z</time></trkpt><trkpt lat="44.89629380573525" lon="8.085884137353382"><ele>186.0</ele><time>2026-04-19T07:49:29Z</time></trkpt><trkpt lat="44.896288568234986" lon="8.085719360237313"><ele>186.0</ele><time>2026-04-19T07:49:30Z</time></trkpt><trkpt lat="44.896276566738415" lon="8.085511185451614"><ele>186.33333333333334</ele><time>2026-04-19T07:49:31Z</time></trkpt><trkpt lat="44.896265164827035" lon="8.085298862708573"><ele>186.66666666666669</ele><time>2026-04-19T07:49:32Z</time></trkpt><trkpt lat="44.89625247592556" lon="8.08506252764615"><ele>187.0</ele><time>2026-04-19T07:49:33Z</time></trkpt><trkpt lat="44.89623521000839" lon="8.084826782906477"><ele>185.75</ele><time>2026-04-19T07:49:34Z</time></trkpt><trkpt lat="44.896250094145316" lon="8.084622031745596"><ele>184.5</ele><time>2026-04-19T07:49:35Z</time></trkpt><trkpt lat="44.89624276171812" lon="8.084428909307212"><ele>183.25</ele><time>2026-04-19T07:49:36Z</time></trkpt><trkpt lat="44.896234165464506" lon="8.084257041266156"><ele>182.0</ele><time>2026-04-19T07:49:37Z</time></trkpt><trkpt lat="44.89622846356736" lon="8.084115039418709"><ele>182.5</ele><time>2026-04-19T07:49:38Z</time></trkpt><trkpt lat="44.896234123622875" lon="8.08401826710349"><ele>183.0</ele><time>2026-04-19T07:49:39Z</time></trkpt><trkpt lat="44.89630176343431" lon="8.083868853119224"><ele>183.5</ele><time>2026-04-19T07:49:41Z</time></trkpt><trkpt lat="44.8964087854401" lon="8.083764779535503"><ele>184.0</ele><time>2026-04-19T07:49:42Z</time></trkpt><trkpt lat="44.89651839625677" lon="8.083675652159263"><ele>184.0</ele><time>2026-04-19T07:49:43Z</time></trkpt><trkpt lat="44.89657243559856" lon="8.083618244851936"><ele>184.0</ele><time>2026-04-19T07:49:44Z</time></trkpt><trkpt lat="44.896659483857874" lon="8.083586500726172"><ele>184.0</ele><time>2026-04-19T07:49:46Z</time></trkpt><trkpt lat="44.896738715587254" lon="8.0836241172982"><ele>184.0</ele><time>2026-04-19T07:49:47Z</time></trkpt><trkpt lat="44.89684141604194" lon="8.083702585288327"><ele>184.0</ele><time>2026-04-19T07:49:48Z</time></trkpt><trkpt lat="44.89694528890783" lon="8.083735665622452"><ele>179.6</ele><time>2026-04-19T07:49:49Z</time></trkpt><trkpt lat="44.89703766140181" lon="8.083763038488453"><ele>175.2</ele><time>2026-04-19T07:49:50Z</time></trkpt><trkpt lat="44.89713352852966" lon="8.083795508107535"><ele>170.79999999999998</ele><time>2026-04-19T07:49:51Z</time></trkpt><trkpt lat="44.89723202158327" lon="8.083845035855466"><ele>166.39999999999998</ele><time>2026-04-19T07:49:52Z</time></trkpt><trkpt lat="44.89733672745957" lon="8.083920078090701"><ele>162.0</ele><time>2026-04-19T07:49:53Z</time></trkpt><trkpt lat="44.89742988026245" lon="8.083997791818708"><ele>162.0</ele><time>2026-04-19T07:49:54Z</time></trkpt><trkpt lat="44.89752488655883" lon="8.084072355136131"><ele>162.0</ele><time>2026-04-19T07:49:55Z</time></trkpt><trkpt lat="44.89759865115314" lon="8.08417060613568"><ele>162.0</ele><time>2026-04-19T07:49:56Z</time></trkpt><trkpt lat="44.89765764374372" lon="8.084285843794888"><ele>162.0</ele><time>2026-04-19T07:49:57Z</time></trkpt><trkpt lat="44.89771546379114" lon="8.08440869240953"><ele>162.0</ele><time>2026-04-19T07:49:58Z</time></trkpt><trkpt lat="44.89777467059741" lon="8.0845310783232"><ele>160.0</ele><time>2026-04-19T07:49:59Z</time></trkpt><trkpt lat="44.89783833171834" lon="8.084619596614813"><ele>158.0</ele><time>2026-04-19T07:50:00Z</time></trkpt><trkpt lat="44.89790005357541" lon="8.084702680946714"><ele>156.0</ele><time>2026-04-19T07:50:01Z</time></trkpt><trkpt lat="44.89798849903827" lon="8.084717324483917"><ele>154.0</ele><time>2026-04-19T07:50:02Z</time></trkpt><trkpt lat="44.89806805543913" lon="8.084730155200837"><ele>152.0</ele><time>2026-04-19T07:50:03Z</time></trkpt><trkpt lat="44.898202812195855" lon="8.084648191786377"><ele>152.0</ele><time>2026-04-19T07:50:05Z</time></trkpt><trkpt lat="44.898314967689515" lon="8.084542177437605"><ele>152.0</ele><time>2026-04-19T07:50:06Z</time></trkpt><trkpt lat="44.89846835207403" lon="8.084432196422043"><ele>152.0</ele><time>2026-04-19T07:50:07Z</time></trkpt><trkpt lat="44.89863299677025" lon="8.084313006742441"><ele>151.2</ele><time>2026-04-19T07:50:08Z</time></trkpt><trkpt lat="44.89875396244859" lon="8.084204346112355"><ele>150.39999999999998</ele><time>2026-04-19T07:50:09Z</time></trkpt><trkpt lat="44.89885213176111" lon="8.08410622217731"><ele>149.60000000000002</ele><time>2026-04-19T07:50:10Z</time></trkpt><trkpt lat="44.89893272861369" lon="8.08402126025531"><ele>148.8</ele><time>2026-04-19T07:50:11Z</time></trkpt><trkpt lat="44.898981915056815" lon="8.083928689546134"><ele>148.0</ele><time>2026-04-19T07:50:12Z</time></trkpt><trkpt lat="44.898997350847544" lon="8.08380774446788"><ele>148.0</ele><time>2026-04-19T07:50:13Z</time></trkpt><trkpt lat="44.89896566307609" lon="8.083658032364433"><ele>148.0</ele><time>2026-04-19T07:50:14Z</time></trkpt><trkpt lat="44.89889493093768" lon="8.083445229688872"><ele>148.0</ele><time>2026-04-19T07:50:15Z</time></trkpt><trkpt lat="44.898854017187915" lon="8.08322311967663"><ele>148.0</ele><time>2026-04-19T07:50:16Z</time></trkpt><trkpt lat="44.8988180594629" lon="8.083031503959221"><ele>147.75</ele><time>2026-04-19T07:50:17Z</time></trkpt><trkpt lat="44.89878130292937" lon="8.082839087494921"><ele>147.5</ele><time>2026-04-19T07:50:18Z</time></trkpt><trkpt lat="44.89873692660399" lon="8.082648809246663"><ele>147.25</ele><time>2026-04-19T07:50:19Z</time></trkpt><trkpt lat="44.898673491363795" lon="8.082486711161238"><ele>147.0</ele><time>2026-04-19T07:50:20Z</time></trkpt><trkpt lat="44.898594240569324" lon="8.082335485849647"><ele>146.79999999999998</ele><time>2026-04-19T07:50:21Z</time></trkpt><trkpt lat="44.898516340103036" lon="8.082196235614793"><ele>146.6</ele><time>2026-04-19T07:50:22Z</time></trkpt><trkpt lat="44.898447397311074" lon="8.082105959987054"><ele>146.39999999999998</ele><time>2026-04-19T07:50:23Z</time></trkpt><trkpt lat="44.89830670851897" lon="8.082086939235895"><ele>146.2</ele><time>2026-04-19T07:50:25Z</time></trkpt><trkpt lat="44.89822555448224" lon="8.082112266112077"><ele>146.0</ele><time>2026-04-19T07:50:26Z</time></trkpt><trkpt lat="44.89812728189711" lon="8.082094657110282"><ele>146.5</ele><time>2026-04-19T07:50:27Z</time></trkpt><trkpt lat="44.89804712786525" lon="8.082023278852512"><ele>147.0</ele><time>2026-04-19T07:50:28Z</time></trkpt><trkpt lat="44.89799151225368" lon="8.08190092608979"><ele>147.5</ele><time>2026-04-19T07:50:29Z</time></trkpt><trkpt lat="44.897951171539404" lon="8.081722274094105"><ele>148.0</ele><time>2026-04-19T07:50:30Z</time></trkpt><trkpt lat="44.89790766891557" lon="8.08152719093533"><ele>148.0</ele><time>2026-04-19T07:50:31Z</time></trkpt><trkpt lat="44.89787103863415" lon="8.081373868556343"><ele>148.0</ele><time>2026-04-19T07:50:31.999Z</time></trkpt><trkpt lat="44.89783008931753" lon="8.081235728076528"><ele>148.0</ele><time>2026-04-19T07:50:32.999Z</time></trkpt><trkpt lat="44.8977979789895" lon="8.081066113780318"><ele>148.0</ele><time>2026-04-19T07:50:33.999Z</time></trkpt><trkpt lat="44.897787248205375" lon="8.08087688969495"><ele>148.5</ele><time>2026-04-19T07:50:34.999Z</time></trkpt><trkpt lat="44.897777865456746" lon="8.080687467446904"><ele>149.0</ele><time>2026-04-19T07:50:35.999Z</time></trkpt><trkpt lat="44.89776326786832" lon="8.080521338526731"><ele>149.5</ele><time>2026-04-19T07:50:36.999Z</time></trkpt><trkpt lat="44.89774546393081" lon="8.080339890476987"><ele>150.0</ele><time>2026-04-19T07:50:37.999Z</time></trkpt><trkpt lat="44.897732984094574" lon="8.08016391784286"><ele>150.0</ele><time>2026-04-19T07:50:38.999Z</time></trkpt><trkpt lat="44.897713493481774" lon="8.080018237586188"><ele>150.0</ele><time>2026-04-19T07:50:39.999Z</time></trkpt><trkpt lat="44.8976881422738" lon="8.079883686725346"><ele>150.0</ele><time>2026-04-19T07:50:40.999Z</time></trkpt><trkpt lat="44.89767861663274" lon="8.079729563952275"><ele>150.0</ele><time>2026-04-19T07:50:41.999Z</time></trkpt><trkpt lat="44.89769046486059" lon="8.079554239866786"><ele>150.0</ele><time>2026-04-19T07:50:42.999Z</time></trkpt><trkpt lat="44.8977305729087" lon="8.079383936610995"><ele>150.0</ele><time>2026-04-19T07:50:43.999Z</time></trkpt><trkpt lat="44.8977832646318" lon="8.079230198013342"><ele>150.0</ele><time>2026-04-19T07:50:44.999Z</time></trkpt><trkpt lat="44.89782326803887" lon="8.079075238796534"><ele>150.0</ele><time>2026-04-19T07:50:45.999Z</time></trkpt><trkpt lat="44.89783518470886" lon="8.078903359747414"><ele>150.0</ele><time>2026-04-19T07:50:46.999Z</time></trkpt><trkpt lat="44.897847852133175" lon="8.078719077168493"><ele>150.33333333333334</ele><time>2026-04-19T07:50:47.999Z</time></trkpt><trkpt lat="44.89787578237921" lon="8.078521195385374"><ele>150.66666666666669</ele><time>2026-04-19T07:50:48.999Z</time></trkpt><trkpt lat="44.89791785815007" lon="8.078301569485127"><ele>151.0</ele><time>2026-04-19T07:50:49.999Z</time></trkpt><trkpt lat="44.897965588885086" lon="8.078090804068362"><ele>151.0</ele><time>2026-04-19T07:50:50.999Z</time></trkpt><trkpt lat="44.89801080672062" lon="8.077895489567679"><ele>151.0</ele><time>2026-04-19T07:50:51.999Z</time></trkpt><trkpt lat="44.89803540910546" lon="8.077706526757954"><ele>151.0</ele><time>2026-04-19T07:50:52.999Z</time></trkpt><trkpt lat="44.89803281296607" lon="8.077523964128257"><ele>151.0</ele><time>2026-04-19T07:50:53.999Z</time></trkpt><trkpt lat="44.89801682080666" lon="8.077321510764746"><ele>151.0</ele><time>2026-04-19T07:50:54.999Z</time></trkpt><trkpt lat="44.89799605647331" lon="8.077079716470054"><ele>151.0</ele><time>2026-04-19T07:50:55.999Z</time></trkpt><trkpt lat="44.897980389784436" lon="8.076799358761354"><ele>151.0</ele><time>2026-04-19T07:50:56.999Z</time></trkpt><trkpt lat="44.89796823924698" lon="8.076523313144499"><ele>151.0</ele><time>2026-04-19T07:50:57.999Z</time></trkpt><trkpt lat="44.89795787643175" lon="8.076296976690685"><ele>151.0</ele><time>2026-04-19T07:50:58.999Z</time></trkpt><trkpt lat="44.897958160826484" lon="8.0760931381314"><ele>151.0</ele><time>2026-04-19T07:50:59.999Z</time></trkpt><trkpt lat="44.89797250127811" lon="8.075903703535769"><ele>151.0</ele><time>2026-04-19T07:51:00.999Z</time></trkpt><trkpt lat="44.898007120018846" lon="8.075715431212814"><ele>151.0</ele><time>2026-04-19T07:51:01.999Z</time></trkpt><trkpt lat="44.898042855867615" lon="8.075545339389494"><ele>151.0</ele><time>2026-04-19T07:51:02.999Z</time></trkpt><trkpt lat="44.89805619129559" lon="8.075408514290078"><ele>151.0</ele><time>2026-04-19T07:51:03.999Z</time></trkpt><trkpt lat="44.898034158134514" lon="8.07530749080643"><ele>151.0</ele><time>2026-04-19T07:51:04.999Z</time></trkpt><trkpt lat="44.897961387253325" lon="8.075234452797552"><ele>151.0</ele><time>2026-04-19T07:51:05.999Z</time></trkpt><trkpt lat="44.8978441594025" lon="8.075151969207488"><ele>151.0</ele><time>2026-04-19T07:51:06.999Z</time></trkpt><trkpt lat="44.897694779708324" lon="8.075048800104303"><ele>151.0</ele><time>2026-04-19T07:51:07.999Z</time></trkpt><trkpt lat="44.89753819260073" lon="8.074943360049579"><ele>151.0</ele><time>2026-04-19T07:51:08.999Z</time></trkpt><trkpt lat="44.897417868082776" lon="8.074859567978665"><ele>152.2</ele><time>2026-04-19T07:51:09.999Z</time></trkpt><trkpt lat="44.897333590158134" lon="8.074804133621647"><ele>153.39999999999998</ele><time>2026-04-19T07:51:10.999Z</time></trkpt><trkpt lat="44.89728176459076" lon="8.074744510079608"><ele>154.6</ele><time>2026-04-19T07:51:11.999Z</time></trkpt><trkpt lat="44.89726548678883" lon="8.074639292991968"><ele>155.79999999999998</ele><time>2026-04-19T07:51:12.999Z</time></trkpt><trkpt lat="44.8972724972676" lon="8.074482184931053"><ele>157.0</ele><time>2026-04-19T07:51:13.999Z</time></trkpt><trkpt lat="44.8973128658285" lon="8.074300340725754"><ele>156.66666666666669</ele><time>2026-04-19T07:51:14.999Z</time></trkpt><trkpt lat="44.89734554267429" lon="8.074094507894"><ele>156.33333333333334</ele><time>2026-04-19T07:51:15.999Z</time></trkpt><trkpt lat="44.89736456009634" lon="8.073846445947297"><ele>156.0</ele><time>2026-04-19T07:51:16.999Z</time></trkpt><trkpt lat="44.8973743478749" lon="8.073592006696234"><ele>156.0</ele><time>2026-04-19T07:51:17.999Z</time></trkpt><trkpt lat="44.89739424987211" lon="8.0733796427893"><ele>156.0</ele><time>2026-04-19T07:51:18.999Z</time></trkpt><trkpt lat="44.897411462306586" lon="8.07318529280105"><ele>156.0</ele><time>2026-04-19T07:51:19.999Z</time></trkpt><trkpt lat="44.89742891611863" lon="8.07301585191644"><ele>156.0</ele><time>2026-04-19T07:51:20.999Z</time></trkpt><trkpt lat="44.89745812570172" lon="8.072850029061682"><ele>157.75</ele><time>2026-04-19T07:51:21.999Z</time></trkpt><trkpt lat="44.89750472261945" lon="8.072680134654416"><ele>159.5</ele><time>2026-04-19T07:51:22.999Z</time></trkpt><trkpt lat="44.89755044464475" lon="8.072525455206291"><ele>161.25</ele><time>2026-04-19T07:51:23.999Z</time></trkpt><trkpt lat="44.89762163464397" lon="8.072371539311984"><ele>163.0</ele><time>2026-04-19T07:51:24.999Z</time></trkpt><trkpt lat="44.89773072693599" lon="8.072216344379486"><ele>159.75</ele><time>2026-04-19T07:51:25.999Z</time></trkpt><trkpt lat="44.89783539837376" lon="8.072071579438136"><ele>156.5</ele><time>2026-04-19T07:51:26.999Z</time></trkpt><trkpt lat="44.897920603133265" lon="8.071915919402661"><ele>153.25</ele><time>2026-04-19T07:51:27.999Z</time></trkpt><trkpt lat="44.89799413105386" lon="8.071734290262357"><ele>150.0</ele><time>2026-04-19T07:51:28.999Z</time></trkpt><trkpt lat="44.89805366477388" lon="8.071539062966563"><ele>150.0</ele><time>2026-04-19T07:51:29.999Z</time></trkpt><trkpt lat="44.89809318025335" lon="8.071353635868986"><ele>150.0</ele><time>2026-04-19T07:51:30.999Z</time></trkpt><trkpt lat="44.898107551096935" lon="8.071186110605414"><ele>150.0</ele><time>2026-04-19T07:51:31.999Z</time></trkpt><trkpt lat="44.89810025712565" lon="8.071011698566267"><ele>150.0</ele><time>2026-04-19T07:51:32.999Z</time></trkpt><trkpt lat="44.898080311187634" lon="8.070834522400489"><ele>149.75</ele><time>2026-04-19T07:51:33.999Z</time></trkpt><trkpt lat="44.89805166090297" lon="8.070651641700831"><ele>149.5</ele><time>2026-04-19T07:51:35Z</time></trkpt><trkpt lat="44.89801228098725" lon="8.070456668288077"><ele>149.25</ele><time>2026-04-19T07:51:36Z</time></trkpt><trkpt lat="44.897959803827455" lon="8.070256470638512"><ele>149.0</ele><time>2026-04-19T07:51:37Z</time></trkpt><trkpt lat="44.89791291647858" lon="8.070056696327415"><ele>149.75</ele><time>2026-04-19T07:51:38Z</time></trkpt><trkpt lat="44.89787309508464" lon="8.069866905000262"><ele>150.5</ele><time>2026-04-19T07:51:39Z</time></trkpt><trkpt lat="44.89784274011911" lon="8.0696731293978"><ele>151.25</ele><time>2026-04-19T07:51:40Z</time></trkpt><trkpt lat="44.89781572527893" lon="8.069472630394436"><ele>152.0</ele><time>2026-04-19T07:51:41Z</time></trkpt><trkpt lat="44.89777521719765" lon="8.06925402803884"><ele>152.25</ele><time>2026-04-19T07:51:42Z</time></trkpt><trkpt lat="44.89772626690343" lon="8.069025756792007"><ele>152.5</ele><time>2026-04-19T07:51:43Z</time></trkpt><trkpt lat="44.897683015555096" lon="8.068833136667218"><ele>152.75</ele><time>2026-04-19T07:51:44Z</time></trkpt><trkpt lat="44.89764155408499" lon="8.068666115546318"><ele>153.0</ele><time>2026-04-19T07:51:45Z</time></trkpt><trkpt lat="44.89760178279063" lon="8.068513858650114"><ele>153.8</ele><time>2026-04-19T07:51:46Z</time></trkpt><trkpt lat="44.89757287859486" lon="8.068377635135308"><ele>154.60000000000002</ele><time>2026-04-19T07:51:47Z</time></trkpt><trkpt lat="44.897556297014575" lon="8.068272615386867"><ele>155.39999999999998</ele><time>2026-04-19T07:51:48Z</time></trkpt><trkpt lat="44.89752505757286" lon="8.068194363524038"><ele>156.2</ele><time>2026-04-19T07:51:50Z</time></trkpt><trkpt lat="44.897401534915275" lon="8.068234988520281"><ele>157.0</ele><time>2026-04-19T07:51:52Z</time></trkpt><trkpt lat="44.89728391457911" lon="8.068284151250865"><ele>157.0</ele><time>2026-04-19T07:51:53Z</time></trkpt><trkpt lat="44.89715900186053" lon="8.068317297772838"><ele>157.0</ele><time>2026-04-19T07:51:54Z</time></trkpt><trkpt lat="44.89704426160581" lon="8.068330609625155"><ele>157.0</ele><time>2026-04-19T07:51:55Z</time></trkpt><trkpt lat="44.896936774920285" lon="8.068327570364728"><ele>157.0</ele><time>2026-04-19T07:51:56Z</time></trkpt><trkpt lat="44.896851286067054" lon="8.068275050153828"><ele>157.0</ele><time>2026-04-19T07:51:57Z</time></trkpt><trkpt lat="44.896779583345946" lon="8.068201325057789"><ele>162.39999999999998</ele><time>2026-04-19T07:51:58Z</time></trkpt><trkpt lat="44.89671759856049" lon="8.068151478613323"><ele>167.79999999999998</ele><time>2026-04-19T07:51:59Z</time></trkpt><trkpt lat="44.896690408484524" lon="8.06797325908067"><ele>173.2</ele><time>2026-04-19T07:52:01Z</time></trkpt><trkpt lat="44.89668727631898" lon="8.06781083343006"><ele>178.6</ele><time>2026-04-19T07:52:02Z</time></trkpt><trkpt lat="44.89669750168372" lon="8.067642170622642"><ele>184.0</ele><time>2026-04-19T07:52:03Z</time></trkpt><trkpt lat="44.89671724230496" lon="8.067501561179938"><ele>184.6</ele><time>2026-04-19T07:52:04Z</time></trkpt><trkpt lat="44.89673798414609" lon="8.067388727247561"><ele>185.2</ele><time>2026-04-19T07:52:05Z</time></trkpt><trkpt lat="44.89676136059035" lon="8.067239287917525"><ele>185.79999999999998</ele><time>2026-04-19T07:52:06Z</time></trkpt><trkpt lat="44.896774221022156" lon="8.067098824077577"><ele>186.39999999999998</ele><time>2026-04-19T07:52:07Z</time></trkpt><trkpt lat="44.89676262725309" lon="8.066972381271524"><ele>187.0</ele><time>2026-04-19T07:52:08Z</time></trkpt><trkpt lat="44.896727540132694" lon="8.066824487058351"><ele>187.0</ele><time>2026-04-19T07:52:09Z</time></trkpt><trkpt lat="44.89668716984247" lon="8.066676676335849"><ele>187.0</ele><time>2026-04-19T07:52:10Z</time></trkpt><trkpt lat="44.896655557981774" lon="8.066555301348394"><ele>187.0</ele><time>2026-04-19T07:52:11Z</time></trkpt><trkpt lat="44.89662190346042" lon="8.066443734298314"><ele>187.0</ele><time>2026-04-19T07:52:12Z</time></trkpt><trkpt lat="44.896584991843234" lon="8.066342097136983"><ele>187.0</ele><time>2026-04-19T07:52:13Z</time></trkpt><trkpt lat="44.896530289248766" lon="8.066288963643036"><ele>187.0</ele><time>2026-04-19T07:52:14Z</time></trkpt><trkpt lat="44.89646542100368" lon="8.06628483118759"><ele>187.0</ele><time>2026-04-19T07:52:15Z</time></trkpt><trkpt lat="44.89640952174539" lon="8.066332747443939"><ele>187.0</ele><time>2026-04-19T07:52:16Z</time></trkpt><trkpt lat="44.8963917224985" lon="8.066535471025343"><ele>187.0</ele><time>2026-04-19T07:52:18Z</time></trkpt><trkpt lat="44.89638403111889" lon="8.066681441504707"><ele>187.0</ele><time>2026-04-19T07:52:19Z</time></trkpt><trkpt lat="44.89635938587125" lon="8.06682328012813"><ele>187.0</ele><time>2026-04-19T07:52:20Z</time></trkpt><trkpt lat="44.89632922641947" lon="8.066940374813436"><ele>187.0</ele><time>2026-04-19T07:52:21Z</time></trkpt><trkpt lat="44.8962965915319" lon="8.067061482645542"><ele>187.0</ele><time>2026-04-19T07:52:22Z</time></trkpt><trkpt lat="44.896246803524264" lon="8.067173433435956"><ele>187.0</ele><time>2026-04-19T07:52:23Z</time></trkpt><trkpt lat="44.89619190765711" lon="8.067269194180662"><ele>187.0</ele><time>2026-04-19T07:52:24Z</time></trkpt><trkpt lat="44.89612147064595" lon="8.067354194307136"><ele>187.0</ele><time>2026-04-19T07:52:25Z</time></trkpt><trkpt lat="44.896033127407854" lon="8.067405490955075"><ele>187.0</ele><time>2026-04-19T07:52:26Z</time></trkpt><trkpt lat="44.895923950230056" lon="8.067434285325982"><ele>187.0</ele><time>2026-04-19T07:52:27Z</time></trkpt><trkpt lat="44.89580839305424" lon="8.067453244923595"><ele>187.0</ele><time>2026-04-19T07:52:28Z</time></trkpt><trkpt lat="44.895664914308426" lon="8.067470187170429"><ele>187.0</ele><time>2026-04-19T07:52:29Z</time></trkpt><trkpt lat="44.89554784554321" lon="8.067500710369341"><ele>190.8</ele><time>2026-04-19T07:52:30Z</time></trkpt><trkpt lat="44.89547035204321" lon="8.067540305833125"><ele>194.6</ele><time>2026-04-19T07:52:31Z</time></trkpt><trkpt lat="44.89541228203714" lon="8.06759968327068"><ele>198.4</ele><time>2026-04-19T07:52:32Z</time></trkpt><trkpt lat="44.89534556834331" lon="8.06768949228259"><ele>202.20000000000002</ele><time>2026-04-19T07:52:33Z</time></trkpt><trkpt lat="44.895275214216035" lon="8.067794447457619"><ele>206.0</ele><time>2026-04-19T07:52:34Z</time></trkpt><trkpt lat="44.89520435800581" lon="8.067916415118006"><ele>206.0</ele><time>2026-04-19T07:52:35Z</time></trkpt><trkpt lat="44.895136079348326" lon="8.068017603895187"><ele>206.0</ele><time>2026-04-19T07:52:36Z</time></trkpt><trkpt lat="44.89508389406713" lon="8.068126747964191"><ele>206.0</ele><time>2026-04-19T07:52:37Z</time></trkpt><trkpt lat="44.89503166763351" lon="8.068260862773966"><ele>206.0</ele><time>2026-04-19T07:52:38Z</time></trkpt><trkpt lat="44.89497581717517" lon="8.068390762104613"><ele>206.0</ele><time>2026-04-19T07:52:39Z</time></trkpt><trkpt lat="44.89493644544783" lon="8.068498290887371"><ele>207.60000000000002</ele><time>2026-04-19T07:52:39.999Z</time></trkpt><trkpt lat="44.89489696382728" lon="8.068596435978266"><ele>209.2</ele><time>2026-04-19T07:52:40.999Z</time></trkpt><trkpt lat="44.89483991023906" lon="8.06867643309374"><ele>210.79999999999998</ele><time>2026-04-19T07:52:41.999Z</time></trkpt><trkpt lat="44.894743156991325" lon="8.068738318091254"><ele>212.39999999999998</ele><time>2026-04-19T07:52:42.999Z</time></trkpt><trkpt lat="44.89461827567359" lon="8.06878730356954"><ele>214.0</ele><time>2026-04-19T07:52:43.999Z</time></trkpt><trkpt lat="44.894500960339975" lon="8.068825753603747"><ele>214.0</ele><time>2026-04-19T07:52:44.999Z</time></trkpt><trkpt lat="44.894400119516625" lon="8.068884060006543"><ele>213.99999999999997</ele><time>2026-04-19T07:52:45.999Z</time></trkpt><trkpt lat="44.89430627406849" lon="8.068942079598052"><ele>213.99999999999997</ele><time>2026-04-19T07:52:46.999Z</time></trkpt><trkpt lat="44.89422721784072" lon="8.06899164245999"><ele>214.0</ele><time>2026-04-19T07:52:47.999Z</time></trkpt><trkpt lat="44.894153265005095" lon="8.068945699384097"><ele>214.0</ele><time>2026-04-19T07:52:49.999Z</time></trkpt><trkpt lat="44.894114176181375" lon="8.068835094885337"><ele>214.0</ele><time>2026-04-19T07:52:50.999Z</time></trkpt><trkpt lat="44.8940654832173" lon="8.06871242767581"><ele>214.0</ele><time>2026-04-19T07:52:51.999Z</time></trkpt><trkpt lat="44.89398222611877" lon="8.06857535298431"><ele>214.0</ele><time>2026-04-19T07:52:52.999Z</time></trkpt><trkpt lat="44.893890336301055" lon="8.068437635710488"><ele>214.0</ele><time>2026-04-19T07:52:53.999Z</time></trkpt><trkpt lat="44.89383244021908" lon="8.068312968222466"><ele>213.0</ele><time>2026-04-19T07:52:54.999Z</time></trkpt><trkpt lat="44.89380533289007" lon="8.068179397421728"><ele>212.0</ele><time>2026-04-19T07:52:55.999Z</time></trkpt><trkpt lat="44.89379005713822" lon="8.067996735224854"><ele>211.0</ele><time>2026-04-19T07:52:56.999Z</time></trkpt><trkpt lat="44.89376332996198" lon="8.067779795934214"><ele>210.0</ele><time>2026-04-19T07:52:57.999Z</time></trkpt><trkpt lat="44.89372433835584" lon="8.067584927850419"><ele>210.0</ele><time>2026-04-19T07:52:58.999Z</time></trkpt><trkpt lat="44.89368832054992" lon="8.067431187979627"><ele>210.0</ele><time>2026-04-19T07:52:59.999Z</time></trkpt><trkpt lat="44.89366505893416" lon="8.06731171154046"><ele>210.0</ele><time>2026-04-19T07:53:00.999Z</time></trkpt><trkpt lat="44.89363635453173" lon="8.067183683747706"><ele>210.0</ele><time>2026-04-19T07:53:02.999Z</time></trkpt><trkpt lat="44.893585954948215" lon="8.067300846396384"><ele>210.0</ele><time>2026-04-19T07:53:06.999Z</time></trkpt><trkpt lat="44.89362571310617" lon="8.067465615924492"><ele>210.0</ele><time>2026-04-19T07:53:07.999Z</time></trkpt><trkpt lat="44.89366572123409" lon="8.067619169497044"><ele>210.0</ele><time>2026-04-19T07:53:08.999Z</time></trkpt><trkpt lat="44.893691006190686" lon="8.067754846663071"><ele>210.0</ele><time>2026-04-19T07:53:09.999Z</time></trkpt><trkpt lat="44.893710331561365" lon="8.067895905755845"><ele>210.0</ele><time>2026-04-19T07:53:10.999Z</time></trkpt><trkpt lat="44.89372979806157" lon="8.068039358595652"><ele>210.0</ele><time>2026-04-19T07:53:11.999Z</time></trkpt><trkpt lat="44.8937533539577" lon="8.068185629201558"><ele>210.8</ele><time>2026-04-19T07:53:12.999Z</time></trkpt><trkpt lat="44.89377228209532" lon="8.068323630251067"><ele>211.6</ele><time>2026-04-19T07:53:13.999Z</time></trkpt><trkpt lat="44.89379478914988" lon="8.068446164390556"><ele>212.39999999999998</ele><time>2026-04-19T07:53:14.999Z</time></trkpt><trkpt lat="44.893832054559816" lon="8.068556130699056"><ele>213.2</ele><time>2026-04-19T07:53:15.999Z</time></trkpt><trkpt lat="44.893884619984085" lon="8.068657399743088"><ele>214.0</ele><time>2026-04-19T07:53:16.999Z</time></trkpt><trkpt lat="44.89395701506132" lon="8.068754530243204"><ele>213.99999999999997</ele><time>2026-04-19T07:53:17.999Z</time></trkpt><trkpt lat="44.89401015344998" lon="8.068846841432576"><ele>214.0</ele><time>2026-04-19T07:53:18.999Z</time></trkpt><trkpt lat="44.89404109601768" lon="8.06893449307181"><ele>214.0</ele><time>2026-04-19T07:53:19.999Z</time></trkpt><trkpt lat="44.89403351466821" lon="8.069033217997237"><ele>214.0</ele><time>2026-04-19T07:53:20.999Z</time></trkpt><trkpt lat="44.893982659294856" lon="8.069141068054167"><ele>213.99999999999997</ele><time>2026-04-19T07:53:21.999Z</time></trkpt><trkpt lat="44.89390207528529" lon="8.069241595558163"><ele>214.0</ele><time>2026-04-19T07:53:22.999Z</time></trkpt><trkpt lat="44.893823450684046" lon="8.069313347315894"><ele>214.2</ele><time>2026-04-19T07:53:23.999Z</time></trkpt><trkpt lat="44.893735940555494" lon="8.069371906083388"><ele>214.39999999999998</ele><time>2026-04-19T07:53:24.999Z</time></trkpt><trkpt lat="44.893650139881615" lon="8.069408768337759"><ele>214.6</ele><time>2026-04-19T07:53:25.999Z</time></trkpt><trkpt lat="44.89358651328941" lon="8.069430521887096"><ele>214.8</ele><time>2026-04-19T07:53:26.999Z</time></trkpt><trkpt lat="44.893501940891504" lon="8.06957092989431"><ele>215.0</ele><time>2026-04-19T07:53:28.999Z</time></trkpt><trkpt lat="44.89347917359368" lon="8.069710987090218"><ele>215.0</ele><time>2026-04-19T07:53:29.999Z</time></trkpt><trkpt lat="44.89346786673922" lon="8.069874874276946"><ele>215.0</ele><time>2026-04-19T07:53:30.999Z</time></trkpt><trkpt lat="44.89346350927239" lon="8.070013984542523"><ele>215.0</ele><time>2026-04-19T07:53:31.999Z</time></trkpt><trkpt lat="44.89345318857216" lon="8.070124419973984"><ele>215.0</ele><time>2026-04-19T07:53:32.999Z</time></trkpt><trkpt lat="44.89348137012789" lon="8.070249782356118"><ele>215.0</ele><time>2026-04-19T07:53:34.999Z</time></trkpt><trkpt lat="44.89359100894987" lon="8.070272204317329"><ele>214.6</ele><time>2026-04-19T07:53:36.999Z</time></trkpt><trkpt lat="44.89365424227254" lon="8.070230879950275"><ele>214.2</ele><time>2026-04-19T07:53:37.999Z</time></trkpt><trkpt lat="44.893725813065686" lon="8.070205368206548"><ele>213.8</ele><time>2026-04-19T07:53:39.999Z</time></trkpt><trkpt lat="44.89369795663255" lon="8.07037910368933"><ele>213.4</ele><time>2026-04-19T07:53:42Z</time></trkpt><trkpt lat="44.89362596206371" lon="8.070503574797327"><ele>213.0</ele><time>2026-04-19T07:53:43Z</time></trkpt><trkpt lat="44.89354799447321" lon="8.070622786532756"><ele>213.0</ele><time>2026-04-19T07:53:44Z</time></trkpt><trkpt lat="44.893487264609796" lon="8.070698127889495"><ele>213.0</ele><time>2026-04-19T07:53:45Z</time></trkpt><trkpt lat="44.89345102642269" lon="8.070772317778447"><ele>213.0</ele><time>2026-04-19T07:53:46Z</time></trkpt><trkpt lat="44.89341672381456" lon="8.07085385512561"><ele>213.0</ele><time>2026-04-19T07:53:47Z</time></trkpt><trkpt lat="44.8933449476598" lon="8.07092509078217"><ele>213.0</ele><time>2026-04-19T07:53:49Z</time></trkpt><trkpt lat="44.89323736953228" lon="8.070819377093896"><ele>213.0</ele><time>2026-04-19T07:53:51Z</time></trkpt><trkpt lat="44.893189946582154" lon="8.070731493633735"><ele>210.16666666666666</ele><time>2026-04-19T07:53:52Z</time></trkpt><trkpt lat="44.89313938242441" lon="8.070612762418833"><ele>207.33333333333331</ele><time>2026-04-19T07:53:53Z</time></trkpt><trkpt lat="44.8931024183468" lon="8.070525340532376"><ele>204.5</ele><time>2026-04-19T07:53:54Z</time></trkpt><trkpt lat="44.893057957533635" lon="8.070430122725789"><ele>201.66666666666666</ele><time>2026-04-19T07:53:56Z</time></trkpt><trkpt lat="44.89299283476307" lon="8.070313517772789"><ele>198.83333333333331</ele><time>2026-04-19T07:53:58Z</time></trkpt><trkpt lat="44.892913555689844" lon="8.070293694379629"><ele>196.0</ele><time>2026-04-19T07:53:59Z</time></trkpt><trkpt lat="44.8928346738335" lon="8.070172286697968"><ele>196.0</ele><time>2026-04-19T07:54:01Z</time></trkpt><trkpt lat="44.89284777853527" lon="8.070053377970712"><ele>196.0</ele><time>2026-04-19T07:54:02Z</time></trkpt><trkpt lat="44.89289526992601" lon="8.069857554408062"><ele>196.0</ele><time>2026-04-19T07:54:03Z</time></trkpt><trkpt lat="44.8929219505353" lon="8.069764426384383"><ele>196.0</ele><time>2026-04-19T07:54:04Z</time></trkpt><trkpt lat="44.892939672204726" lon="8.069611591085318"><ele>196.0</ele><time>2026-04-19T07:54:06Z</time></trkpt><trkpt lat="44.892931130944895" lon="8.06949017778203"><ele>195.5</ele><time>2026-04-19T07:54:07Z</time></trkpt><trkpt lat="44.89287864694569" lon="8.06933395152096"><ele>195.0</ele><time>2026-04-19T07:54:09Z</time></trkpt><trkpt lat="44.892823735229065" lon="8.06923866474412"><ele>194.5</ele><time>2026-04-19T07:54:10Z</time></trkpt><trkpt lat="44.8928203953946" lon="8.069097299916566"><ele>194.0</ele><time>2026-04-19T07:54:12Z</time></trkpt><trkpt lat="44.89280396294045" lon="8.068889662574374"><ele>195.0</ele><time>2026-04-19T07:54:14Z</time></trkpt><trkpt lat="44.89281107104701" lon="8.068752599121833"><ele>196.0</ele><time>2026-04-19T07:54:15Z</time></trkpt><trkpt lat="44.892721630002754" lon="8.06857175405783"><ele>197.0</ele><time>2026-04-19T07:54:17Z</time></trkpt><trkpt lat="44.89264200428775" lon="8.068471340787031"><ele>198.0</ele><time>2026-04-19T07:54:18Z</time></trkpt><trkpt lat="44.89257673510771" lon="8.068394039696027"><ele>199.0</ele><time>2026-04-19T07:54:19Z</time></trkpt><trkpt lat="44.89248389827276" lon="8.068329484244332"><ele>199.79999999999998</ele><time>2026-04-19T07:54:21Z</time></trkpt><trkpt lat="44.89250718877643" lon="8.06823668676908"><ele>200.6</ele><time>2026-04-19T07:54:23Z</time></trkpt><trkpt lat="44.89256702053328" lon="8.068162957527212"><ele>201.4</ele><time>2026-04-19T07:54:24Z</time></trkpt><trkpt lat="44.89264994378963" lon="8.068088830259107"><ele>202.2</ele><time>2026-04-19T07:54:26Z</time></trkpt><trkpt lat="44.89266065973841" lon="8.067901803396502"><ele>203.0</ele><time>2026-04-19T07:54:28Z</time></trkpt><trkpt lat="44.89265418868161" lon="8.067802362149694"><ele>203.0</ele><time>2026-04-19T07:54:29Z</time></trkpt><trkpt lat="44.89262370660348" lon="8.067604035789781"><ele>203.0</ele><time>2026-04-19T07:54:31Z</time></trkpt><trkpt lat="44.89257715456457" lon="8.067464247994906"><ele>203.0</ele><time>2026-04-19T07:54:32Z</time></trkpt><trkpt lat="44.89255372073504" lon="8.067328786863897"><ele>203.0</ele><time>2026-04-19T07:54:33Z</time></trkpt><trkpt lat="44.89254241533774" lon="8.067165081387682"><ele>202.4</ele><time>2026-04-19T07:54:34Z</time></trkpt><trkpt lat="44.892526946197066" lon="8.06704848546112"><ele>201.8</ele><time>2026-04-19T07:54:35Z</time></trkpt><trkpt lat="44.89250420119302" lon="8.066948364752827"><ele>201.2</ele><time>2026-04-19T07:54:36Z</time></trkpt><trkpt lat="44.89247504191617" lon="8.066827159313869"><ele>200.6</ele><time>2026-04-19T07:54:38Z</time></trkpt><trkpt lat="44.89237782111266" lon="8.06673030302008"><ele>200.0</ele><time>2026-04-19T07:54:40Z</time></trkpt><trkpt lat="44.89230987058766" lon="8.066638537638203"><ele>200.4</ele><time>2026-04-19T07:54:41Z</time></trkpt><trkpt lat="44.89224704023835" lon="8.066523087439338"><ele>200.8</ele><time>2026-04-19T07:54:42Z</time></trkpt><trkpt lat="44.892248212190104" lon="8.066419885511378"><ele>201.2</ele><time>2026-04-19T07:54:43Z</time></trkpt><trkpt lat="44.89222432316606" lon="8.066266173609623"><ele>201.6</ele><time>2026-04-19T07:54:44Z</time></trkpt><trkpt lat="44.89219203271607" lon="8.066113955560043"><ele>202.0</ele><time>2026-04-19T07:54:45Z</time></trkpt><trkpt lat="44.89216411166579" lon="8.06595316912901"><ele>202.0</ele><time>2026-04-19T07:54:46Z</time></trkpt><trkpt lat="44.89214110872538" lon="8.065827286189144"><ele>202.0</ele><time>2026-04-19T07:54:46.999Z</time></trkpt><trkpt lat="44.89207904200802" lon="8.065718238714396"><ele>202.0</ele><time>2026-04-19T07:54:48.999Z</time></trkpt><trkpt lat="44.891923266986154" lon="8.065711706630289"><ele>202.0</ele><time>2026-04-19T07:54:50.999Z</time></trkpt><trkpt lat="44.891847367088836" lon="8.0657733695948"><ele>202.0</ele><time>2026-04-19T07:54:51.999Z</time></trkpt><trkpt lat="44.89178310363004" lon="8.065705312453828"><ele>203.6</ele><time>2026-04-19T07:54:53.999Z</time></trkpt><trkpt lat="44.89178827994208" lon="8.065597031601275"><ele>205.2</ele><time>2026-04-19T07:54:54.999Z</time></trkpt><trkpt lat="44.8918539850148" lon="8.065477656522113"><ele>206.8</ele><time>2026-04-19T07:54:55.999Z</time></trkpt><trkpt lat="44.89192328774913" lon="8.06539504890224"><ele>208.4</ele><time>2026-04-19T07:54:56.999Z</time></trkpt><trkpt lat="44.8919391039955" lon="8.065210910270393"><ele>210.0</ele><time>2026-04-19T07:54:58.999Z</time></trkpt><trkpt lat="44.89190342968063" lon="8.06510138226458"><ele>210.0</ele><time>2026-04-19T07:54:59.999Z</time></trkpt><trkpt lat="44.89186765083819" lon="8.064975900230683"><ele>210.0</ele><time>2026-04-19T07:55:00.999Z</time></trkpt><trkpt lat="44.89185705552528" lon="8.064853569366987"><ele>210.0</ele><time>2026-04-19T07:55:01.999Z</time></trkpt><trkpt lat="44.89186473776287" lon="8.064707371977674"><ele>210.0</ele><time>2026-04-19T07:55:02.999Z</time></trkpt><trkpt lat="44.89188276990461" lon="8.064585135394317"><ele>210.0</ele><time>2026-04-19T07:55:03.999Z</time></trkpt><trkpt lat="44.89189888768913" lon="8.064452558103618"><ele>210.2</ele><time>2026-04-19T07:55:04.999Z</time></trkpt><trkpt lat="44.891884218838904" lon="8.06428808980185"><ele>210.4</ele><time>2026-04-19T07:55:05.999Z</time></trkpt><trkpt lat="44.89187786639011" lon="8.064102782289845"><ele>210.60000000000002</ele><time>2026-04-19T07:55:06.999Z</time></trkpt><trkpt lat="44.89186860283505" lon="8.063960641482744"><ele>210.8</ele><time>2026-04-19T07:55:07.999Z</time></trkpt><trkpt lat="44.89187448275318" lon="8.063837238556411"><ele>211.0</ele><time>2026-04-19T07:55:08.999Z</time></trkpt><trkpt lat="44.89189080575319" lon="8.063718680396722"><ele>210.99999999999997</ele><time>2026-04-19T07:55:09.999Z</time></trkpt><trkpt lat="44.89190859134415" lon="8.063601192335874"><ele>211.0</ele><time>2026-04-19T07:55:10.999Z</time></trkpt><trkpt lat="44.89188428638845" lon="8.063476588835371"><ele>211.0</ele><time>2026-04-19T07:55:11.999Z</time></trkpt><trkpt lat="44.89185423217496" lon="8.063357711619258"><ele>211.0</ele><time>2026-04-19T07:55:12.999Z</time></trkpt><trkpt lat="44.89180347266432" lon="8.063241475083299"><ele>210.99999999999997</ele><time>2026-04-19T07:55:13.999Z</time></trkpt><trkpt lat="44.89176905287372" lon="8.063148109789111"><ele>211.0</ele><time>2026-04-19T07:55:14.999Z</time></trkpt><trkpt lat="44.89174493938564" lon="8.063038003609087"><ele>210.49999999999997</ele><time>2026-04-19T07:55:15.999Z</time></trkpt><trkpt lat="44.891704379880665" lon="8.062926571066853"><ele>210.0</ele><time>2026-04-19T07:55:16.999Z</time></trkpt><trkpt lat="44.89166158810309" lon="8.062829996873074"><ele>209.5</ele><time>2026-04-19T07:55:17.999Z</time></trkpt><trkpt lat="44.89161832143902" lon="8.062736021633413"><ele>209.0</ele><time>2026-04-19T07:55:18.999Z</time></trkpt><trkpt lat="44.89158106121323" lon="8.06264619156254"><ele>208.49999999999997</ele><time>2026-04-19T07:55:19.999Z</time></trkpt><trkpt lat="44.8915429132732" lon="8.062557601263128"><ele>208.0</ele><time>2026-04-19T07:55:20.999Z</time></trkpt><trkpt lat="44.89149420936414" lon="8.062475622322399"><ele>209.0</ele><time>2026-04-19T07:55:21.999Z</time></trkpt><trkpt lat="44.89143824882243" lon="8.062412284273925"><ele>210.0</ele><time>2026-04-19T07:55:22.999Z</time></trkpt><trkpt lat="44.89139141612115" lon="8.062293483578427"><ele>211.0</ele><time>2026-04-19T07:55:23.999Z</time></trkpt><trkpt lat="44.891357807443555" lon="8.0621422010259"><ele>212.0</ele><time>2026-04-19T07:55:24.999Z</time></trkpt><trkpt lat="44.891328834733386" lon="8.061995924159012"><ele>213.0</ele><time>2026-04-19T07:55:25.999Z</time></trkpt><trkpt lat="44.89131474274899" lon="8.061856697811814"><ele>213.0</ele><time>2026-04-19T07:55:26.999Z</time></trkpt><trkpt lat="44.89128600466791" lon="8.061731492788589"><ele>213.0</ele><time>2026-04-19T07:55:27.999Z</time></trkpt><trkpt lat="44.89124928525511" lon="8.061610583146816"><ele>213.0</ele><time>2026-04-19T07:55:28.999Z</time></trkpt><trkpt lat="44.891224683047895" lon="8.061493601068761"><ele>213.0</ele><time>2026-04-19T07:55:29.999Z</time></trkpt><trkpt lat="44.89121956402083" lon="8.061389050168772"><ele>213.0</ele><time>2026-04-19T07:55:30.999Z</time></trkpt><trkpt lat="44.89119506035208" lon="8.061302719365125"><ele>213.0</ele><time>2026-04-19T07:55:31.999Z</time></trkpt><trkpt lat="44.891151181013115" lon="8.061206095402111"><ele>213.0</ele><time>2026-04-19T07:55:32.999Z</time></trkpt><trkpt lat="44.891111538741086" lon="8.061120025332118"><ele>213.0</ele><time>2026-04-19T07:55:33.999Z</time></trkpt><trkpt lat="44.89104821563506" lon="8.061046384924536"><ele>213.0</ele><time>2026-04-19T07:55:34.999Z</time></trkpt><trkpt lat="44.89100233385247" lon="8.060935046020704"><ele>213.0</ele><time>2026-04-19T07:55:35.999Z</time></trkpt><trkpt lat="44.890979108912994" lon="8.06078325474939"><ele>213.0</ele><time>2026-04-19T07:55:36.999Z</time></trkpt><trkpt lat="44.89096248801874" lon="8.060659478188677"><ele>213.0</ele><time>2026-04-19T07:55:37.999Z</time></trkpt><trkpt lat="44.890912144164254" lon="8.060560026795656"><ele>213.0</ele><time>2026-04-19T07:55:38.999Z</time></trkpt><trkpt lat="44.89084438272395" lon="8.060469359896677"><ele>213.0</ele><time>2026-04-19T07:55:39.999Z</time></trkpt><trkpt lat="44.89079261313508" lon="8.060394980041394"><ele>213.0</ele><time>2026-04-19T07:55:40.999Z</time></trkpt><trkpt lat="44.890739357533235" lon="8.060324932337032"><ele>213.0</ele><time>2026-04-19T07:55:41.999Z</time></trkpt><trkpt lat="44.890687962995905" lon="8.060245109815162"><ele>213.0</ele><time>2026-04-19T07:55:42.999Z</time></trkpt><trkpt lat="44.89064112047937" lon="8.060153573898624"><ele>213.0</ele><time>2026-04-19T07:55:43.999Z</time></trkpt><trkpt lat="44.89059551545327" lon="8.060080539393336"><ele>213.0</ele><time>2026-04-19T07:55:44.999Z</time></trkpt><trkpt lat="44.89056689534992" lon="8.059983875986777"><ele>213.0</ele><time>2026-04-19T07:55:45.999Z</time></trkpt><trkpt lat="44.89055631567022" lon="8.059860701933944"><ele>213.0</ele><time>2026-04-19T07:55:47Z</time></trkpt><trkpt lat="44.890526019768046" lon="8.059677120194548"><ele>213.0</ele><time>2026-04-19T07:55:49Z</time></trkpt><trkpt lat="44.89049369442446" lon="8.059599191949617"><ele>213.0</ele><time>2026-04-19T07:55:50Z</time></trkpt><trkpt lat="44.890448820353775" lon="8.059514042364002"><ele>213.0</ele><time>2026-04-19T07:55:51Z</time></trkpt><trkpt lat="44.89039519209058" lon="8.059369466491008"><ele>213.33333333333334</ele><time>2026-04-19T07:55:52Z</time></trkpt><trkpt lat="44.890344345379525" lon="8.059238397020076"><ele>213.66666666666669</ele><time>2026-04-19T07:55:53Z</time></trkpt><trkpt lat="44.89029707856541" lon="8.059139474047504"><ele>214.0</ele><time>2026-04-19T07:55:54Z</time></trkpt><trkpt lat="44.89023985440409" lon="8.059052384956066"><ele>214.33333333333334</ele><time>2026-04-19T07:55:55Z</time></trkpt><trkpt lat="44.89018385105827" lon="8.0589686607902"><ele>214.66666666666669</ele><time>2026-04-19T07:55:56Z</time></trkpt><trkpt lat="44.89013742365273" lon="8.058877251460856"><ele>215.0</ele><time>2026-04-19T07:55:57Z</time></trkpt><trkpt lat="44.89009039940937" lon="8.058803713320069"><ele>215.0</ele><time>2026-04-19T07:55:58Z</time></trkpt><trkpt lat="44.890035534615365" lon="8.058704859183285"><ele>215.0</ele><time>2026-04-19T07:55:59Z</time></trkpt><trkpt lat="44.88997162039862" lon="8.058585902602275"><ele>215.0</ele><time>2026-04-19T07:56:00Z</time></trkpt><trkpt lat="44.88989624993144" lon="8.058461015099484"><ele>215.0</ele><time>2026-04-19T07:56:01Z</time></trkpt><trkpt lat="44.88982474363743" lon="8.058344224911062"><ele>215.0</ele><time>2026-04-19T07:56:02Z</time></trkpt><trkpt lat="44.88976054414146" lon="8.058228589447218"><ele>216.50000000000003</ele><time>2026-04-19T07:56:03Z</time></trkpt><trkpt lat="44.88970041475676" lon="8.058136660397686"><ele>218.0</ele><time>2026-04-19T07:56:04Z</time></trkpt><trkpt lat="44.88961286095146" lon="8.05807176758902"><ele>219.5</ele><time>2026-04-19T07:56:06Z</time></trkpt><trkpt lat="44.889553016750156" lon="8.058105950247707"><ele>221.0</ele><time>2026-04-19T07:56:07Z</time></trkpt><trkpt lat="44.88946282814083" lon="8.058014490561158"><ele>222.50000000000003</ele><time>2026-04-19T07:56:09Z</time></trkpt><trkpt lat="44.889434251516846" lon="8.057908956774952"><ele>224.0</ele><time>2026-04-19T07:56:10Z</time></trkpt><trkpt lat="44.8894256648925" lon="8.05774878057208"><ele>224.0</ele><time>2026-04-19T07:56:11Z</time></trkpt><trkpt lat="44.8893791040814" lon="8.057636626469694"><ele>223.99999999999997</ele><time>2026-04-19T07:56:12Z</time></trkpt><trkpt lat="44.88931367552031" lon="8.057521898926543"><ele>223.99999999999997</ele><time>2026-04-19T07:56:13Z</time></trkpt><trkpt lat="44.889238118220774" lon="8.057429037083956"><ele>224.0</ele><time>2026-04-19T07:56:14Z</time></trkpt><trkpt lat="44.88916472978822" lon="8.057339467300494"><ele>224.0</ele><time>2026-04-19T07:56:15Z</time></trkpt><trkpt lat="44.88908797144922" lon="8.057255799669035"><ele>224.25</ele><time>2026-04-19T07:56:16Z</time></trkpt><trkpt lat="44.88899708129466" lon="8.05717431929959"><ele>224.5</ele><time>2026-04-19T07:56:17Z</time></trkpt><trkpt lat="44.88888961865181" lon="8.05707923494786"><ele>224.75</ele><time>2026-04-19T07:56:18Z</time></trkpt><trkpt lat="44.888790343640565" lon="8.056983390664445"><ele>225.0</ele><time>2026-04-19T07:56:19Z</time></trkpt><trkpt lat="44.88871186732097" lon="8.056883749952474"><ele>225.0</ele><time>2026-04-19T07:56:20Z</time></trkpt><trkpt lat="44.88862382092455" lon="8.056804720725875"><ele>225.0</ele><time>2026-04-19T07:56:21Z</time></trkpt><trkpt lat="44.88854008936108" lon="8.056718168457278"><ele>225.0</ele><time>2026-04-19T07:56:22Z</time></trkpt><trkpt lat="44.88845800216193" lon="8.056627922245498"><ele>225.0</ele><time>2026-04-19T07:56:23Z</time></trkpt><trkpt lat="44.88840766577808" lon="8.056524855361143"><ele>225.0</ele><time>2026-04-19T07:56:24Z</time></trkpt><trkpt lat="44.88836562692339" lon="8.05642316052368"><ele>224.83333333333334</ele><time>2026-04-19T07:56:25Z</time></trkpt><trkpt lat="44.88832758752822" lon="8.056326824245222"><ele>224.66666666666669</ele><time>2026-04-19T07:56:26Z</time></trkpt><trkpt lat="44.88824993184859" lon="8.05623841028761"><ele>224.5</ele><time>2026-04-19T07:56:28Z</time></trkpt><trkpt lat="44.88818154479436" lon="8.056260242825022"><ele>224.33333333333334</ele><time>2026-04-19T07:56:29Z</time></trkpt><trkpt lat="44.88809906062026" lon="8.056283047699065"><ele>224.16666666666669</ele><time>2026-04-19T07:56:30Z</time></trkpt><trkpt lat="44.888027631126896" lon="8.056246917856562"><ele>224.0</ele><time>2026-04-19T07:56:31Z</time></trkpt><trkpt lat="44.8879465692049" lon="8.056158240035618"><ele>224.00000000000003</ele><time>2026-04-19T07:56:32Z</time></trkpt><trkpt lat="44.88791315932564" lon="8.056043724379537"><ele>224.0</ele><time>2026-04-19T07:56:33Z</time></trkpt><trkpt lat="44.887877482394536" lon="8.055905729688835"><ele>224.0</ele><time>2026-04-19T07:56:34Z</time></trkpt><trkpt lat="44.88784264558754" lon="8.055779759058511"><ele>224.0</ele><time>2026-04-19T07:56:35Z</time></trkpt><trkpt lat="44.88781715486626" lon="8.055686217333458"><ele>224.00000000000003</ele><time>2026-04-19T07:56:36Z</time></trkpt><trkpt lat="44.887782081246826" lon="8.055603978009298"><ele>224.0</ele><time>2026-04-19T07:56:37Z</time></trkpt><trkpt lat="44.8877331992527" lon="8.055521871015946"><ele>224.00000000000003</ele><time>2026-04-19T07:56:38Z</time></trkpt><trkpt lat="44.88768950679148" lon="8.055425967526606"><ele>224.0</ele><time>2026-04-19T07:56:39Z</time></trkpt><trkpt lat="44.887646750014866" lon="8.055330306722501"><ele>224.0</ele><time>2026-04-19T07:56:40Z</time></trkpt><trkpt lat="44.887597715064494" lon="8.055240500248333"><ele>224.0</ele><time>2026-04-19T07:56:41Z</time></trkpt><trkpt lat="44.88753973860109" lon="8.055163639295872"><ele>224.00000000000003</ele><time>2026-04-19T07:56:42Z</time></trkpt><trkpt lat="44.88746284332167" lon="8.055092822284973"><ele>224.0</ele><time>2026-04-19T07:56:43Z</time></trkpt><trkpt lat="44.88737722291662" lon="8.055015495202575"><ele>228.0</ele><time>2026-04-19T07:56:44Z</time></trkpt><trkpt lat="44.88728383686056" lon="8.054919471269356"><ele>232.0</ele><time>2026-04-19T07:56:45Z</time></trkpt><trkpt lat="44.88719629220431" lon="8.054814980981627"><ele>236.0</ele><time>2026-04-19T07:56:46Z</time></trkpt><trkpt lat="44.887118102360155" lon="8.054717630590034"><ele>240.0</ele><time>2026-04-19T07:56:47Z</time></trkpt><trkpt lat="44.88704055894986" lon="8.054588099031573"><ele>240.0</ele><time>2026-04-19T07:56:48Z</time></trkpt><trkpt lat="44.886975300749256" lon="8.054463696309345"><ele>240.0</ele><time>2026-04-19T07:56:49Z</time></trkpt><trkpt lat="44.88689964202507" lon="8.054386471346216"><ele>240.0</ele><time>2026-04-19T07:56:50Z</time></trkpt><trkpt lat="44.8868115867922" lon="8.054347375004069"><ele>240.0</ele><time>2026-04-19T07:56:51Z</time></trkpt><trkpt lat="44.886751422777735" lon="8.054276248381406"><ele>240.0</ele><time>2026-04-19T07:56:52Z</time></trkpt><trkpt lat="44.88668678363804" lon="8.054188429547883"><ele>240.0</ele><time>2026-04-19T07:56:53Z</time></trkpt><trkpt lat="44.88664742694108" lon="8.054066964996164"><ele>240.0</ele><time>2026-04-19T07:56:54Z</time></trkpt><trkpt lat="44.88662912399974" lon="8.05389623505532"><ele>240.0</ele><time>2026-04-19T07:56:54.999Z</time></trkpt><trkpt lat="44.88661495115538" lon="8.05379255263993"><ele>240.0</ele><time>2026-04-19T07:56:55.999Z</time></trkpt><trkpt lat="44.8866225631693" lon="8.053667542055488"><ele>240.0</ele><time>2026-04-19T07:56:56.999Z</time></trkpt><trkpt lat="44.88660845009252" lon="8.053564226537056"><ele>240.0</ele><time>2026-04-19T07:56:57.999Z</time></trkpt><trkpt lat="44.88657790021175" lon="8.053473933665558"><ele>240.0</ele><time>2026-04-19T07:56:58.999Z</time></trkpt><trkpt lat="44.886508837163404" lon="8.053414552411386"><ele>240.0</ele><time>2026-04-19T07:56:59.999Z</time></trkpt><trkpt lat="44.886421040163626" lon="8.05333139775457"><ele>240.0</ele><time>2026-04-19T07:57:00.999Z</time></trkpt><trkpt lat="44.88637306862764" lon="8.053256002577331"><ele>240.0</ele><time>2026-04-19T07:57:01.999Z</time></trkpt><trkpt lat="44.88634639668637" lon="8.053163113132868"><ele>240.0</ele><time>2026-04-19T07:57:04.999Z</time></trkpt><trkpt lat="44.88640938291893" lon="8.053157405410582"><ele>240.16666666666666</ele><time>2026-04-19T07:57:19.999Z</time></trkpt><trkpt lat="44.88648516128523" lon="8.053256404653258"><ele>240.33333333333331</ele><time>2026-04-19T07:57:21.999Z</time></trkpt><trkpt lat="44.886592616310175" lon="8.05327045009689"><ele>240.5</ele><time>2026-04-19T07:57:23.999Z</time></trkpt><trkpt lat="44.886656116671574" lon="8.053247371563108"><ele>240.66666666666666</ele><time>2026-04-19T07:57:24.999Z</time></trkpt><trkpt lat="44.88671312168938" lon="8.053192801271463"><ele>240.83333333333331</ele><time>2026-04-19T07:57:25.999Z</time></trkpt><trkpt lat="44.88676410268493" lon="8.053120660596852"><ele>241.0</ele><time>2026-04-19T07:57:26.999Z</time></trkpt><trkpt lat="44.88681007769712" lon="8.053054571039018"><ele>240.99999999999997</ele><time>2026-04-19T07:57:27.999Z</time></trkpt><trkpt lat="44.88685084930761" lon="8.052986563593153"><ele>241.0</ele><time>2026-04-19T07:57:28.999Z</time></trkpt><trkpt lat="44.88688576276656" lon="8.05290862496553"><ele>241.0</ele><time>2026-04-19T07:57:29.999Z</time></trkpt><trkpt lat="44.886931535417226" lon="8.052814608414733"><ele>241.0</ele><time>2026-04-19T07:57:30.999Z</time></trkpt><trkpt lat="44.886979511136474" lon="8.05270652976847"><ele>240.99999999999997</ele><time>2026-04-19T07:57:31.999Z</time></trkpt><trkpt lat="44.88701883581481" lon="8.052610772304813"><ele>241.0</ele><time>2026-04-19T07:57:32.999Z</time></trkpt><trkpt lat="44.88704936432744" lon="8.05251782667491"><ele>239.33333333333331</ele><time>2026-04-19T07:57:33.999Z</time></trkpt><trkpt lat="44.88708046690592" lon="8.052413098323099"><ele>237.66666666666666</ele><time>2026-04-19T07:57:34.999Z</time></trkpt><trkpt lat="44.887110465311665" lon="8.052301190025807"><ele>236.0</ele><time>2026-04-19T07:57:35.999Z</time></trkpt><trkpt lat="44.88715306422693" lon="8.052195980526557"><ele>234.33333333333331</ele><time>2026-04-19T07:57:36.999Z</time></trkpt><trkpt lat="44.887207849227536" lon="8.05209502568122"><ele>232.66666666666666</ele><time>2026-04-19T07:57:37.999Z</time></trkpt><trkpt lat="44.8872499134925" lon="8.05200338592134"><ele>231.0</ele><time>2026-04-19T07:57:38.999Z</time></trkpt><trkpt lat="44.88728105296746" lon="8.051854673635738"><ele>231.0</ele><time>2026-04-19T07:57:39.999Z</time></trkpt><trkpt lat="44.88729440226271" lon="8.051707268859667"><ele>231.00000000000003</ele><time>2026-04-19T07:57:40.999Z</time></trkpt><trkpt lat="44.88729950012804" lon="8.05158508303487"><ele>231.00000000000003</ele><time>2026-04-19T07:57:41.999Z</time></trkpt><trkpt lat="44.88729651066714" lon="8.051449370542535"><ele>231.0</ele><time>2026-04-19T07:57:42.999Z</time></trkpt><trkpt lat="44.88729827786875" lon="8.05131047864979"><ele>231.0</ele><time>2026-04-19T07:57:43.999Z</time></trkpt><trkpt lat="44.88731237814534" lon="8.051191747997963"><ele>228.0</ele><time>2026-04-19T07:57:44.999Z</time></trkpt><trkpt lat="44.88739956568457" lon="8.050992826609294"><ele>225.0</ele><time>2026-04-19T07:57:46.999Z</time></trkpt><trkpt lat="44.88745619928606" lon="8.05084623709861"><ele>222.0</ele><time>2026-04-19T07:57:47.999Z</time></trkpt><trkpt lat="44.88749946167979" lon="8.050708584240652"><ele>219.0</ele><time>2026-04-19T07:57:48.999Z</time></trkpt><trkpt lat="44.887533013288575" lon="8.050590709134097"><ele>218.2</ele><time>2026-04-19T07:57:49.999Z</time></trkpt><trkpt lat="44.88757441586644" lon="8.050480688971842"><ele>217.39999999999998</ele><time>2026-04-19T07:57:50.999Z</time></trkpt><trkpt lat="44.88763628641448" lon="8.050373919847072"><ele>216.6</ele><time>2026-04-19T07:57:51.999Z</time></trkpt><trkpt lat="44.887710689739066" lon="8.050255569238054"><ele>215.8</ele><time>2026-04-19T07:57:53Z</time></trkpt><trkpt lat="44.88779037789015" lon="8.050139775055477"><ele>215.0</ele><time>2026-04-19T07:57:54Z</time></trkpt><trkpt lat="44.88786164003494" lon="8.050019113608558"><ele>214.4</ele><time>2026-04-19T07:57:55Z</time></trkpt><trkpt lat="44.887938638217534" lon="8.049910922088271"><ele>213.8</ele><time>2026-04-19T07:57:56Z</time></trkpt><trkpt lat="44.887997729075764" lon="8.049797165696793"><ele>213.2</ele><time>2026-04-19T07:57:57Z</time></trkpt><trkpt lat="44.888038639051594" lon="8.04968392914401"><ele>212.6</ele><time>2026-04-19T07:57:58Z</time></trkpt><trkpt lat="44.8880708495477" lon="8.049564283030138"><ele>212.0</ele><time>2026-04-19T07:57:59Z</time></trkpt><trkpt lat="44.888094861486096" lon="8.049387061985376"><ele>212.0</ele><time>2026-04-19T07:58:00Z</time></trkpt><trkpt lat="44.88812882695246" lon="8.049174648976386"><ele>212.0</ele><time>2026-04-19T07:58:01Z</time></trkpt><trkpt lat="44.888168956640655" lon="8.04899129042054"><ele>212.0</ele><time>2026-04-19T07:58:02Z</time></trkpt><trkpt lat="44.88821914424761" lon="8.048846426306875"><ele>212.0</ele><time>2026-04-19T07:58:03Z</time></trkpt><trkpt lat="44.888263435306406" lon="8.048714085870573"><ele>210.2</ele><time>2026-04-19T07:58:04Z</time></trkpt><trkpt lat="44.88829175927786" lon="8.04859091362256"><ele>208.39999999999998</ele><time>2026-04-19T07:58:05Z</time></trkpt><trkpt lat="44.88831984989222" lon="8.048489175040624"><ele>206.60000000000002</ele><time>2026-04-19T07:58:06Z</time></trkpt><trkpt lat="44.88835965135892" lon="8.048372306660355"><ele>204.8</ele><time>2026-04-19T07:58:07Z</time></trkpt><trkpt lat="44.88842693794088" lon="8.048240955740754"><ele>203.0</ele><time>2026-04-19T07:58:08Z</time></trkpt><trkpt lat="44.888520198985226" lon="8.04811630156425"><ele>200.60000000000002</ele><time>2026-04-19T07:58:09Z</time></trkpt><trkpt lat="44.888593741149634" lon="8.048023898794693"><ele>198.20000000000002</ele><time>2026-04-19T07:58:10Z</time></trkpt><trkpt lat="44.88864987231192" lon="8.047938692381008"><ele>195.8</ele><time>2026-04-19T07:58:11Z</time></trkpt><trkpt lat="44.88870110845744" lon="8.047823877419441"><ele>193.4</ele><time>2026-04-19T07:58:12Z</time></trkpt><trkpt lat="44.88874794899374" lon="8.047695682089547"><ele>191.0</ele><time>2026-04-19T07:58:13Z</time></trkpt><trkpt lat="44.88878268887738" lon="8.047596011619056"><ele>191.0</ele><time>2026-04-19T07:58:14Z</time></trkpt><trkpt lat="44.88878748154567" lon="8.047486136032555"><ele>191.0</ele><time>2026-04-19T07:58:17Z</time></trkpt><trkpt lat="44.888727629140206" lon="8.047383764832333"><ele>191.0</ele><time>2026-04-19T07:58:19Z</time></trkpt><trkpt lat="44.888672605489326" lon="8.04731864368774"><ele>191.0</ele><time>2026-04-19T07:58:20Z</time></trkpt><trkpt lat="44.8885939263396" lon="8.04727766942878"><ele>191.0</ele><time>2026-04-19T07:58:21Z</time></trkpt><trkpt lat="44.88852569473504" lon="8.047236207695363"><ele>191.0</ele><time>2026-04-19T07:58:22Z</time></trkpt><trkpt lat="44.88844491392635" lon="8.047063019742797"><ele>192.14285714285714</ele><time>2026-04-19T07:58:24Z</time></trkpt><trkpt lat="44.888406763042724" lon="8.046973833721918"><ele>193.28571428571428</ele><time>2026-04-19T07:58:25Z</time></trkpt><trkpt lat="44.88838723110891" lon="8.046875097481923"><ele>194.42857142857142</ele><time>2026-04-19T07:58:26Z</time></trkpt><trkpt lat="44.88836389537166" lon="8.046775135547296"><ele>195.57142857142856</ele><time>2026-04-19T07:58:27Z</time></trkpt><trkpt lat="44.88833969862329" lon="8.046687548166089"><ele>196.71428571428572</ele><time>2026-04-19T07:58:28Z</time></trkpt><trkpt lat="44.88831266294577" lon="8.046600026827372"><ele>197.85714285714283</ele><time>2026-04-19T07:58:29Z</time></trkpt><trkpt lat="44.888277886488275" lon="8.046511404397068"><ele>199.0</ele><time>2026-04-19T07:58:30Z</time></trkpt><trkpt lat="44.888239202177346" lon="8.046438433455926"><ele>201.49999999999997</ele><time>2026-04-19T07:58:31Z</time></trkpt><trkpt lat="44.88818484980961" lon="8.046384536645913"><ele>204.0</ele><time>2026-04-19T07:58:32Z</time></trkpt><trkpt lat="44.88810470516693" lon="8.04632281486949"><ele>206.5</ele><time>2026-04-19T07:58:33Z</time></trkpt><trkpt lat="44.88804028751471" lon="8.04623756237625"><ele>209.0</ele><time>2026-04-19T07:58:34Z</time></trkpt><trkpt lat="44.887970099375224" lon="8.046135568639274"><ele>211.49999999999997</ele><time>2026-04-19T07:58:35Z</time></trkpt><trkpt lat="44.887900070126626" lon="8.04606386756203"><ele>214.0</ele><time>2026-04-19T07:58:36Z</time></trkpt><trkpt lat="44.88782125505168" lon="8.046010193374865"><ele>214.0</ele><time>2026-04-19T07:58:37Z</time></trkpt><trkpt lat="44.887742779712106" lon="8.04597072257757"><ele>213.99999999999997</ele><time>2026-04-19T07:58:38Z</time></trkpt><trkpt lat="44.8876631707227" lon="8.04595014512313"><ele>213.99999999999997</ele><time>2026-04-19T07:58:39Z</time></trkpt><trkpt lat="44.88756530097696" lon="8.045928779042534"><ele>214.0</ele><time>2026-04-19T07:58:40Z</time></trkpt><trkpt lat="44.8874678531852" lon="8.045883353293632"><ele>214.0</ele><time>2026-04-19T07:58:41Z</time></trkpt><trkpt lat="44.887383021098096" lon="8.045830337038113"><ele>215.33333333333331</ele><time>2026-04-19T07:58:42Z</time></trkpt><trkpt lat="44.88729775236243" lon="8.045763457789924"><ele>216.66666666666666</ele><time>2026-04-19T07:58:43Z</time></trkpt><trkpt lat="44.88721520938415" lon="8.045689886046757"><ele>218.0</ele><time>2026-04-19T07:58:44Z</time></trkpt><trkpt lat="44.8871573742262" lon="8.045622174873397"><ele>219.33333333333331</ele><time>2026-04-19T07:58:45Z</time></trkpt><trkpt lat="44.88710333567935" lon="8.045543648379098"><ele>220.66666666666666</ele><time>2026-04-19T07:58:46Z</time></trkpt><trkpt lat="44.8870313617268" lon="8.045443474576421"><ele>222.0</ele><time>2026-04-19T07:58:47Z</time></trkpt><trkpt lat="44.88693348053496" lon="8.045340571968357"><ele>222.0</ele><time>2026-04-19T07:58:48Z</time></trkpt><trkpt lat="44.88686558474746" lon="8.045246996473818"><ele>222.0</ele><time>2026-04-19T07:58:49Z</time></trkpt><trkpt lat="44.886815884122576" lon="8.045151641895316"><ele>222.0</ele><time>2026-04-19T07:58:50Z</time></trkpt><trkpt lat="44.88677282502363" lon="8.04507930313446"><ele>222.0</ele><time>2026-04-19T07:58:51Z</time></trkpt><trkpt lat="44.88666081352915" lon="8.04500721182554"><ele>222.0</ele><time>2026-04-19T07:58:53Z</time></trkpt><trkpt lat="44.886599005455125" lon="8.044979065581648"><ele>222.0</ele><time>2026-04-19T07:58:54Z</time></trkpt><trkpt lat="44.88653409350923" lon="8.044869791732655"><ele>220.39999999999998</ele><time>2026-04-19T07:58:55.999Z</time></trkpt><trkpt lat="44.886485901449056" lon="8.044680249139219"><ele>218.79999999999998</ele><time>2026-04-19T07:58:57.999Z</time></trkpt><trkpt lat="44.886456966990046" lon="8.044541655650812"><ele>217.2</ele><time>2026-04-19T07:58:58.999Z</time></trkpt><trkpt lat="44.886417479558936" lon="8.044455162697368"><ele>215.6</ele><time>2026-04-19T07:58:59.999Z</time></trkpt><trkpt lat="44.88635082640722" lon="8.044406308380564"><ele>214.0</ele><time>2026-04-19T07:59:00.999Z</time></trkpt><trkpt lat="44.88626524805648" lon="8.044362716804013"><ele>214.0</ele><time>2026-04-19T07:59:01.999Z</time></trkpt><trkpt lat="44.88616434001357" lon="8.044333333268352"><ele>214.0</ele><time>2026-04-19T07:59:02.999Z</time></trkpt><trkpt lat="44.886058728513476" lon="8.044297197621557"><ele>214.0</ele><time>2026-04-19T07:59:03.999Z</time></trkpt><trkpt lat="44.88595804500937" lon="8.044256454571306"><ele>214.0</ele><time>2026-04-19T07:59:04.999Z</time></trkpt><trkpt lat="44.88580744891995" lon="8.044215639021226"><ele>213.99999999999997</ele><time>2026-04-19T07:59:06.999Z</time></trkpt><trkpt lat="44.885723944534945" lon="8.04417293618376"><ele>214.0</ele><time>2026-04-19T07:59:07.999Z</time></trkpt><trkpt lat="44.885662470926015" lon="8.04410555553298"><ele>214.0</ele><time>2026-04-19T07:59:08.999Z</time></trkpt><trkpt lat="44.88561071473484" lon="8.044026747868038"><ele>214.0</ele><time>2026-04-19T07:59:10.999Z</time></trkpt><trkpt lat="44.885581780415414" lon="8.04390559200403"><ele>213.99999999999997</ele><time>2026-04-19T07:59:39.999Z</time></trkpt><trkpt lat="44.88553117344981" lon="8.043813201228609"><ele>214.0</ele><time>2026-04-19T07:59:41.999Z</time></trkpt><trkpt lat="44.885461042169354" lon="8.043810373491588"><ele>214.0</ele><time>2026-04-19T07:59:42.999Z</time></trkpt><trkpt lat="44.88538702545705" lon="8.043760029214408"><ele>213.99999999999997</ele><time>2026-04-19T07:59:43.999Z</time></trkpt><trkpt lat="44.885298215935286" lon="8.043696185728278"><ele>213.99999999999997</ele><time>2026-04-19T07:59:44.999Z</time></trkpt><trkpt lat="44.88523244053105" lon="8.043673869347366"><ele>214.0</ele><time>2026-04-19T07:59:45.999Z</time></trkpt><trkpt lat="44.88518487428675" lon="8.04360194926351"><ele>214.0</ele><time>2026-04-19T07:59:47.999Z</time></trkpt><trkpt lat="44.88531666072331" lon="8.043703068734665"><ele>213.99999999999997</ele><time>2026-04-19T08:00:36Z</time></trkpt><trkpt lat="44.88538968075343" lon="8.043691880183836"><ele>214.0</ele><time>2026-04-19T08:00:39Z</time></trkpt><trkpt lat="44.88549924260105" lon="8.043743138905457"><ele>214.0</ele><time>2026-04-19T08:00:41Z</time></trkpt><trkpt lat="44.88555591215518" lon="8.043784230892355"><ele>214.0</ele><time>2026-04-19T08:00:43Z</time></trkpt><trkpt lat="44.88558462060902" lon="8.043880222679988"><ele>213.99999999999997</ele><time>2026-04-19T08:00:46Z</time></trkpt><trkpt lat="44.885604194677164" lon="8.043989097725593"><ele>214.0</ele><time>2026-04-19T08:01:00Z</time></trkpt><trkpt lat="44.885551297685396" lon="8.04406162355518"><ele>212.33333333333331</ele><time>2026-04-19T08:01:04Z</time></trkpt><trkpt lat="44.88552121715155" lon="8.044198712143663"><ele>210.66666666666666</ele><time>2026-04-19T08:01:05.999Z</time></trkpt><trkpt lat="44.88547595107635" lon="8.044265083240267"><ele>209.0</ele><time>2026-04-19T08:01:41.999Z</time></trkpt><trkpt lat="44.88544849491124" lon="8.044365451354297"><ele>207.33333333333331</ele><time>2026-04-19T08:01:43.999Z</time></trkpt><trkpt lat="44.88549617381985" lon="8.044471108076028"><ele>205.66666666666666</ele><time>2026-04-19T08:01:45.999Z</time></trkpt><trkpt lat="44.88557867621103" lon="8.044516520867495"><ele>204.0</ele><time>2026-04-19T08:01:48.999Z</time></trkpt><trkpt lat="44.88563033474488" lon="8.044582092464411"><ele>204.0</ele><time>2026-04-19T08:01:50.999Z</time></trkpt><trkpt lat="44.88568520724891" lon="8.044656908106294"><ele>204.0</ele><time>2026-04-19T08:01:51.999Z</time></trkpt><trkpt lat="44.885767810005554" lon="8.044795983094792"><ele>204.0</ele><time>2026-04-19T08:01:53.999Z</time></trkpt><trkpt lat="44.88585361984116" lon="8.044884019859236"><ele>204.0</ele><time>2026-04-19T08:01:55.999Z</time></trkpt><trkpt lat="44.88591134530915" lon="8.044991506164736"><ele>204.0</ele><time>2026-04-19T08:01:57.999Z</time></trkpt><trkpt lat="44.88593216254502" lon="8.045128056562456"><ele>203.6</ele><time>2026-04-19T08:01:59.999Z</time></trkpt><trkpt lat="44.885938958638974" lon="8.04523874785455"><ele>203.2</ele><time>2026-04-19T08:02:02.999Z</time></trkpt><trkpt lat="44.88591976983588" lon="8.045356531945506"><ele>202.79999999999998</ele><time>2026-04-19T08:02:06Z</time></trkpt><trkpt lat="44.88584487366807" lon="8.045490198541314"><ele>202.39999999999998</ele><time>2026-04-19T08:02:08Z</time></trkpt><trkpt lat="44.885809149815444" lon="8.045621027579468"><ele>202.0</ele><time>2026-04-19T08:02:09Z</time></trkpt><trkpt lat="44.8857522503769" lon="8.04570614429505"><ele>203.99999999999997</ele><time>2026-04-19T08:02:10Z</time></trkpt><trkpt lat="44.88570253991273" lon="8.045767375350945"><ele>206.0</ele><time>2026-04-19T08:02:11Z</time></trkpt><trkpt lat="44.88566062115972" lon="8.04584972272653"><ele>208.0</ele><time>2026-04-19T08:02:12Z</time></trkpt><trkpt lat="44.8855909494922" lon="8.04589267447834"><ele>210.0</ele><time>2026-04-19T08:02:13Z</time></trkpt><trkpt lat="44.885519991558176" lon="8.045933959293157"><ele>211.99999999999997</ele><time>2026-04-19T08:02:14Z</time></trkpt><trkpt lat="44.8854587155827" lon="8.045964492575974"><ele>214.0</ele><time>2026-04-19T08:02:15Z</time></trkpt><trkpt lat="44.88537680766577" lon="8.04608947814169"><ele>214.0</ele><time>2026-04-19T08:02:17Z</time></trkpt><trkpt lat="44.885265643526154" lon="8.046150658037254"><ele>213.99999999999997</ele><time>2026-04-19T08:02:19Z</time></trkpt><trkpt lat="44.88515160374825" lon="8.046167004308279"><ele>213.99999999999997</ele><time>2026-04-19T08:02:21Z</time></trkpt><trkpt lat="44.885075389141235" lon="8.046230364980971"><ele>214.0</ele><time>2026-04-19T08:02:23Z</time></trkpt><trkpt lat="44.88501274633347" lon="8.046320458214163"><ele>214.0</ele><time>2026-04-19T08:02:26Z</time></trkpt><trkpt lat="44.88494364133416" lon="8.046386812714816"><ele>217.33333333333331</ele><time>2026-04-19T08:02:28Z</time></trkpt><trkpt lat="44.8849472783523" lon="8.04621881214778"><ele>220.66666666666666</ele><time>2026-04-19T08:02:33Z</time></trkpt><trkpt lat="44.884961886199584" lon="8.046129598727633"><ele>224.0</ele><time>2026-04-19T08:02:34Z</time></trkpt><trkpt lat="44.88500314779501" lon="8.046060423951651"><ele>227.33333333333331</ele><time>2026-04-19T08:02:35Z</time></trkpt><trkpt lat="44.88504489479267" lon="8.045948150965032"><ele>230.66666666666666</ele><time>2026-04-19T08:02:43Z</time></trkpt><trkpt lat="44.8850050822927" lon="8.0458710227833"><ele>234.0</ele><time>2026-04-19T08:02:46Z</time></trkpt><trkpt lat="44.88489352172028" lon="8.045915150488778"><ele>234.0</ele><time>2026-04-19T08:02:49Z</time></trkpt><trkpt lat="44.88481453609487" lon="8.045940876899005"><ele>233.99999999999997</ele><time>2026-04-19T08:02:51Z</time></trkpt><trkpt lat="44.88475151516745" lon="8.046067116752406"><ele>233.99999999999997</ele><time>2026-04-19T08:02:55Z</time></trkpt><trkpt lat="44.88466417891488" lon="8.04605193633203"><ele>234.0</ele><time>2026-04-19T08:02:58Z</time></trkpt><trkpt lat="44.88459106509331" lon="8.046148464303597"><ele>234.0</ele><time>2026-04-19T08:03:01Z</time></trkpt><trkpt lat="44.88456024489059" lon="8.046275383743474"><ele>234.0</ele><time>2026-04-19T08:03:03Z</time></trkpt><trkpt lat="44.88449304087205" lon="8.046320313334718"><ele>234.0</ele><time>2026-04-19T08:03:06Z</time></trkpt><trkpt lat="44.884419963437" lon="8.046340167834645"><ele>234.0</ele><time>2026-04-19T08:03:08Z</time></trkpt><trkpt lat="44.88435257716883" lon="8.046388279890111"><ele>234.0</ele><time>2026-04-19T08:03:10Z</time></trkpt><trkpt lat="44.884277004659914" lon="8.046419848176408"><ele>234.0</ele><time>2026-04-19T08:03:11.999Z</time></trkpt><trkpt lat="44.88422774488121" lon="8.046501622200699"><ele>234.0</ele><time>2026-04-19T08:03:12.999Z</time></trkpt><trkpt lat="44.88411788642089" lon="8.046546802775646"><ele>238.16666666666666</ele><time>2026-04-19T08:03:14.999Z</time></trkpt><trkpt lat="44.88401332574699" lon="8.046629037170009"><ele>242.33333333333331</ele><time>2026-04-19T08:03:16.999Z</time></trkpt><trkpt lat="44.8839919937201" lon="8.046714408968013"><ele>246.5</ele><time>2026-04-19T08:03:17.999Z</time></trkpt><trkpt lat="44.883951855033885" lon="8.046797029356403"><ele>250.66666666666666</ele><time>2026-04-19T08:03:18.999Z</time></trkpt><trkpt lat="44.88390765299063" lon="8.04687911499797"><ele>254.83333333333331</ele><time>2026-04-19T08:03:19.999Z</time></trkpt><trkpt lat="44.88383130813687" lon="8.046968140483482"><ele>259.0</ele><time>2026-04-19T08:03:20.999Z</time></trkpt><trkpt lat="44.883778315524424" lon="8.047030048472676"><ele>259.0</ele><time>2026-04-19T08:03:21.999Z</time></trkpt><trkpt lat="44.88371664566141" lon="8.047072278677351"><ele>259.0</ele><time>2026-04-19T08:03:26.999Z</time></trkpt><trkpt lat="44.88368205058045" lon="8.046988051961785"><ele>259.0</ele><time>2026-04-19T08:03:32.999Z</time></trkpt><trkpt lat="44.88368593509218" lon="8.046864274874956"><ele>259.0</ele><time>2026-04-19T08:03:34.999Z</time></trkpt><trkpt lat="44.88364345535113" lon="8.046753789602736"><ele>259.0</ele><time>2026-04-19T08:03:36.999Z</time></trkpt><trkpt lat="44.88354712561755" lon="8.046661021261134"><ele>259.0</ele><time>2026-04-19T08:03:38.999Z</time></trkpt><trkpt lat="44.88349644394918" lon="8.046602124153905"><ele>260.16666666666663</ele><time>2026-04-19T08:03:39.999Z</time></trkpt><trkpt lat="44.88343544948033" lon="8.046535359437755"><ele>261.3333333333333</ele><time>2026-04-19T08:03:40.999Z</time></trkpt><trkpt lat="44.883378708587784" lon="8.046453484154087"><ele>262.5</ele><time>2026-04-19T08:03:41.999Z</time></trkpt><trkpt lat="44.8833208930262" lon="8.046369957420515"><ele>263.6666666666667</ele><time>2026-04-19T08:03:42.999Z</time></trkpt><trkpt lat="44.88327404033935" lon="8.046273577444005"><ele>264.83333333333337</ele><time>2026-04-19T08:03:43.999Z</time></trkpt><trkpt lat="44.88323330157114" lon="8.0461663068085"><ele>266.0</ele><time>2026-04-19T08:03:44.999Z</time></trkpt><trkpt lat="44.88319780277431" lon="8.046067456520262"><ele>266.0</ele><time>2026-04-19T08:03:45.999Z</time></trkpt><trkpt lat="44.883151846167216" lon="8.045989223916687"><ele>266.0</ele><time>2026-04-19T08:03:46.999Z</time></trkpt><trkpt lat="44.883102003717276" lon="8.04593452139563"><ele>266.0</ele><time>2026-04-19T08:03:47.999Z</time></trkpt><trkpt lat="44.88304362319374" lon="8.045884320491627"><ele>266.0</ele><time>2026-04-19T08:03:48.999Z</time></trkpt><trkpt lat="44.88299203699106" lon="8.045818164231768"><ele>266.0</ele><time>2026-04-19T08:03:49.999Z</time></trkpt><trkpt lat="44.8829360384229" lon="8.04567496995718"><ele>266.0</ele><time>2026-04-19T08:03:51.999Z</time></trkpt><trkpt lat="44.88285958818276" lon="8.045610993263661"><ele>264.6</ele><time>2026-04-19T08:03:53.999Z</time></trkpt><trkpt lat="44.88278965785018" lon="8.045501369973206"><ele>263.20000000000005</ele><time>2026-04-19T08:03:55.999Z</time></trkpt><trkpt lat="44.88275966785306" lon="8.045399311939594"><ele>261.79999999999995</ele><time>2026-04-19T08:03:56.999Z</time></trkpt><trkpt lat="44.88273098272533" lon="8.045289381934333"><ele>260.4</ele><time>2026-04-19T08:03:57.999Z</time></trkpt><trkpt lat="44.88270015860729" lon="8.04514670382476"><ele>259.0</ele><time>2026-04-19T08:03:59.999Z</time></trkpt><trkpt lat="44.882659581334394" lon="8.045047040056378"><ele>258.8</ele><time>2026-04-19T08:04:01.999Z</time></trkpt><trkpt lat="44.882574623422876" lon="8.044956179473093"><ele>258.59999999999997</ele><time>2026-04-19T08:04:03.999Z</time></trkpt><trkpt lat="44.882528523584774" lon="8.044806376228752"><ele>258.4</ele><time>2026-04-19T08:04:05.999Z</time></trkpt><trkpt lat="44.8824918129202" lon="8.044696680937129"><ele>258.2</ele><time>2026-04-19T08:04:07.999Z</time></trkpt><trkpt lat="44.882419189667004" lon="8.044668624850482"><ele>258.0</ele><time>2026-04-19T08:04:09.999Z</time></trkpt><trkpt lat="44.882325995594954" lon="8.044750055805862"><ele>258.0</ele><time>2026-04-19T08:04:12Z</time></trkpt><trkpt lat="44.88225315311551" lon="8.044858811210025"><ele>258.0</ele><time>2026-04-19T08:04:13Z</time></trkpt><trkpt lat="44.88217530730716" lon="8.044965079264072"><ele>258.0</ele><time>2026-04-19T08:04:14Z</time></trkpt><trkpt lat="44.882107348820156" lon="8.045040640243641"><ele>258.0</ele><time>2026-04-19T08:04:15Z</time></trkpt><trkpt lat="44.8820217911023" lon="8.045085062132772"><ele>258.0</ele><time>2026-04-19T08:04:17Z</time></trkpt><trkpt lat="44.88202086159199" lon="8.045193931820451"><ele>259.8333333333333</ele><time>2026-04-19T08:04:20Z</time></trkpt><trkpt lat="44.882035159758765" lon="8.045281488698208"><ele>261.6666666666667</ele><time>2026-04-19T08:04:21Z</time></trkpt><trkpt lat="44.882052228569606" lon="8.045378162949362"><ele>263.5</ele><time>2026-04-19T08:04:22Z</time></trkpt><trkpt lat="44.88207498014192" lon="8.045483388183538"><ele>265.33333333333337</ele><time>2026-04-19T08:04:23Z</time></trkpt><trkpt lat="44.88209812863187" lon="8.045594827496455"><ele>267.1666666666667</ele><time>2026-04-19T08:04:24Z</time></trkpt><trkpt lat="44.882125286296684" lon="8.045719042749818"><ele>269.0</ele><time>2026-04-19T08:04:25Z</time></trkpt><trkpt lat="44.88216609347292" lon="8.04586434574714"><ele>270.75</ele><time>2026-04-19T08:04:26Z</time></trkpt><trkpt lat="44.882203581287584" lon="8.046030824714393"><ele>272.5</ele><time>2026-04-19T08:04:27Z</time></trkpt><trkpt lat="44.882257328987" lon="8.04620015904855"><ele>274.25</ele><time>2026-04-19T08:04:28Z</time></trkpt><trkpt lat="44.88231786825425" lon="8.046358442117379"><ele>276.0</ele><time>2026-04-19T08:04:29Z</time></trkpt><trkpt lat="44.88236452045509" lon="8.046505364766187"><ele>276.0</ele><time>2026-04-19T08:04:30Z</time></trkpt><trkpt lat="44.882398250106995" lon="8.046595700675118"><ele>276.0</ele><time>2026-04-19T08:04:31Z</time></trkpt><trkpt lat="44.88243469132132" lon="8.046687086941548"><ele>276.0</ele><time>2026-04-19T08:04:32Z</time></trkpt><trkpt lat="44.882461606240895" lon="8.046767654997934"><ele>276.0</ele><time>2026-04-19T08:04:33Z</time></trkpt><trkpt lat="44.882486279085484" lon="8.046865378798582"><ele>276.0</ele><time>2026-04-19T08:04:34Z</time></trkpt><trkpt lat="44.882514261840186" lon="8.046981015043231"><ele>276.0</ele><time>2026-04-19T08:04:35Z</time></trkpt><trkpt lat="44.882543003313046" lon="8.047124288086794"><ele>276.8</ele><time>2026-04-19T08:04:36Z</time></trkpt><trkpt lat="44.88257058052015" lon="8.047279911345651"><ele>277.6</ele><time>2026-04-19T08:04:37Z</time></trkpt><trkpt lat="44.88258325858929" lon="8.047419423484818"><ele>278.4</ele><time>2026-04-19T08:04:38Z</time></trkpt><trkpt lat="44.882580207810456" lon="8.047545776110384"><ele>279.2</ele><time>2026-04-19T08:04:39Z</time></trkpt><trkpt lat="44.88254951126041" lon="8.047664947792116"><ele>280.0</ele><time>2026-04-19T08:04:40Z</time></trkpt><trkpt lat="44.88248789294051" lon="8.047776348324458"><ele>280.6</ele><time>2026-04-19T08:04:41Z</time></trkpt><trkpt lat="44.88240889095634" lon="8.047863954977606"><ele>281.2</ele><time>2026-04-19T08:04:42Z</time></trkpt><trkpt lat="44.882330390251205" lon="8.047931044839833"><ele>281.8</ele><time>2026-04-19T08:04:43Z</time></trkpt><trkpt lat="44.882256048675764" lon="8.04800371628383"><ele>282.4</ele><time>2026-04-19T08:04:44Z</time></trkpt><trkpt lat="44.88217828080709" lon="8.048069202818393"><ele>283.0</ele><time>2026-04-19T08:04:45Z</time></trkpt><trkpt lat="44.882099885152556" lon="8.04813441908556"><ele>283.0</ele><time>2026-04-19T08:04:46Z</time></trkpt><trkpt lat="44.88200245921786" lon="8.048216946793284"><ele>283.0</ele><time>2026-04-19T08:04:47Z</time></trkpt><trkpt lat="44.881901091176545" lon="8.048324775583948"><ele>283.0</ele><time>2026-04-19T08:04:48Z</time></trkpt><trkpt lat="44.88177872478942" lon="8.048450110320765"><ele>283.0</ele><time>2026-04-19T08:04:49Z</time></trkpt><trkpt lat="44.88164956164807" lon="8.048568650587258"><ele>283.5</ele><time>2026-04-19T08:04:50Z</time></trkpt><trkpt lat="44.88153412566227" lon="8.048664513158881"><ele>284.0</ele><time>2026-04-19T08:04:51Z</time></trkpt><trkpt lat="44.88143242696906" lon="8.048744551057835"><ele>284.5</ele><time>2026-04-19T08:04:52Z</time></trkpt><trkpt lat="44.88133878019192" lon="8.048838218092259"><ele>285.0</ele><time>2026-04-19T08:04:53Z</time></trkpt><trkpt lat="44.881249384921" lon="8.048952259003247"><ele>285.0</ele><time>2026-04-19T08:04:54Z</time></trkpt><trkpt lat="44.881181749069476" lon="8.049059809391451"><ele>285.0</ele><time>2026-04-19T08:04:55Z</time></trkpt><trkpt lat="44.88112871545512" lon="8.049152473922453"><ele>285.0</ele><time>2026-04-19T08:04:56Z</time></trkpt><trkpt lat="44.88107796808139" lon="8.049238281609178"><ele>285.0</ele><time>2026-04-19T08:04:57Z</time></trkpt><trkpt lat="44.88110291208892" lon="8.049107422216759"><ele>285.0</ele><time>2026-04-19T08:05:03Z</time></trkpt><trkpt lat="44.88101640688755" lon="8.048984906339111"><ele>285.0</ele><time>2026-04-19T08:05:05Z</time></trkpt><trkpt lat="44.88093820910262" lon="8.048926621629905"><ele>285.0</ele><time>2026-04-19T08:05:06Z</time></trkpt><trkpt lat="44.880866820503165" lon="8.048858092990784"><ele>285.0</ele><time>2026-04-19T08:05:07Z</time></trkpt><trkpt lat="44.88079534337875" lon="8.048781704274964"><ele>285.0</ele><time>2026-04-19T08:05:08Z</time></trkpt><trkpt lat="44.8807237428052" lon="8.048717795125725"><ele>285.0</ele><time>2026-04-19T08:05:09Z</time></trkpt><trkpt lat="44.88063454594836" lon="8.048638495187854"><ele>283.2</ele><time>2026-04-19T08:05:10Z</time></trkpt><trkpt lat="44.88055337569369" lon="8.04855112300551"><ele>281.4</ele><time>2026-04-19T08:05:11Z</time></trkpt><trkpt lat="44.88047094813059" lon="8.04845854761303"><ele>279.6</ele><time>2026-04-19T08:05:12Z</time></trkpt><trkpt lat="44.880384009036916" lon="8.04836838717164"><ele>277.8</ele><time>2026-04-19T08:05:13Z</time></trkpt><trkpt lat="44.88029444375171" lon="8.048282320678464"><ele>276.0</ele><time>2026-04-19T08:05:14Z</time></trkpt><trkpt lat="44.88019732090117" lon="8.048196703017863"><ele>273.2</ele><time>2026-04-19T08:05:15Z</time></trkpt><trkpt lat="44.880104112080005" lon="8.048105547706413"><ele>270.40000000000003</ele><time>2026-04-19T08:05:16Z</time></trkpt><trkpt lat="44.8800158555474" lon="8.048020944483094"><ele>267.6</ele><time>2026-04-19T08:05:17Z</time></trkpt><trkpt lat="44.87992737983624" lon="8.047937580792548"><ele>264.8</ele><time>2026-04-19T08:05:17.999Z</time></trkpt><trkpt lat="44.879853550135806" lon="8.047864052813544"><ele>262.0</ele><time>2026-04-19T08:05:18.999Z</time></trkpt><trkpt lat="44.87977780685549" lon="8.047793883317192"><ele>262.0</ele><time>2026-04-19T08:05:20.999Z</time></trkpt><trkpt lat="44.87972289927893" lon="8.047889202366612"><ele>262.0</ele><time>2026-04-19T08:05:22.999Z</time></trkpt><trkpt lat="44.87969462296826" lon="8.047996913415982"><ele>262.0</ele><time>2026-04-19T08:05:23.999Z</time></trkpt><trkpt lat="44.879626642945084" lon="8.048145538225219"><ele>262.0</ele><time>2026-04-19T08:05:24.999Z</time></trkpt><trkpt lat="44.87956953216078" lon="8.04825932790136"><ele>262.0</ele><time>2026-04-19T08:05:25.999Z</time></trkpt><trkpt lat="44.879448625534856" lon="8.048318326904287"><ele>262.0</ele><time>2026-04-19T08:05:27.999Z</time></trkpt><trkpt lat="44.879368707510956" lon="8.048297466697367"><ele>262.0</ele><time>2026-04-19T08:05:28.999Z</time></trkpt><trkpt lat="44.879267776337926" lon="8.048284828820167"><ele>262.0</ele><time>2026-04-19T08:05:29.999Z</time></trkpt><trkpt lat="44.87917039598723" lon="8.048323821194925"><ele>262.0</ele><time>2026-04-19T08:05:30.999Z</time></trkpt><trkpt lat="44.87911070967725" lon="8.048355662489756"><ele>262.0</ele><time>2026-04-19T08:05:31.999Z</time></trkpt><trkpt lat="44.879040004783725" lon="8.048334928314805"><ele>262.0</ele><time>2026-04-19T08:05:32.999Z</time></trkpt><trkpt lat="44.878972195699106" lon="8.048283279475076"><ele>262.5</ele><time>2026-04-19T08:05:33.999Z</time></trkpt><trkpt lat="44.87892684371358" lon="8.048194698301465"><ele>263.0</ele><time>2026-04-19T08:05:34.999Z</time></trkpt><trkpt lat="44.8788662768383" lon="8.048114613960616"><ele>263.5</ele><time>2026-04-19T08:05:35.999Z</time></trkpt><trkpt lat="44.878791121524806" lon="8.048056998315845"><ele>264.0</ele><time>2026-04-19T08:05:36.999Z</time></trkpt><trkpt lat="44.878715739385086" lon="8.048004634209612"><ele>264.5</ele><time>2026-04-19T08:05:37.999Z</time></trkpt><trkpt lat="44.87864464985814" lon="8.047940931900198"><ele>265.0</ele><time>2026-04-19T08:05:38.999Z</time></trkpt><trkpt lat="44.87857243368136" lon="8.047878249107441"><ele>265.0</ele><time>2026-04-19T08:05:39.999Z</time></trkpt><trkpt lat="44.87849756139904" lon="8.04781042309024"><ele>265.0</ele><time>2026-04-19T08:05:40.999Z</time></trkpt><trkpt lat="44.87842722539135" lon="8.047750469347049"><ele>265.0</ele><time>2026-04-19T08:05:41.999Z</time></trkpt><trkpt lat="44.87836830568906" lon="8.047684585119502"><ele>265.0</ele><time>2026-04-19T08:05:42.999Z</time></trkpt><trkpt lat="44.878310486898435" lon="8.047619505494398"><ele>265.0</ele><time>2026-04-19T08:05:43.999Z</time></trkpt><trkpt lat="44.87825281809861" lon="8.047565819780596"><ele>265.0</ele><time>2026-04-19T08:05:44.999Z</time></trkpt><trkpt lat="44.87818935825209" lon="8.047539674305236"><ele>263.16666666666663</ele><time>2026-04-19T08:05:45.999Z</time></trkpt><trkpt lat="44.87811123216705" lon="8.047524569181181"><ele>261.3333333333333</ele><time>2026-04-19T08:05:46.999Z</time></trkpt><trkpt lat="44.878038073859166" lon="8.047505824408738"><ele>259.5</ele><time>2026-04-19T08:05:47.999Z</time></trkpt><trkpt lat="44.87798054033869" lon="8.047450639763134"><ele>257.6666666666667</ele><time>2026-04-19T08:05:48.999Z</time></trkpt><trkpt lat="44.877967128997184" lon="8.047343700617654"><ele>255.83333333333334</ele><time>2026-04-19T08:05:50.999Z</time></trkpt><trkpt lat="44.8779612775271" lon="8.047219260746456"><ele>254.0</ele><time>2026-04-19T08:05:53.999Z</time></trkpt><trkpt lat="44.87794534609958" lon="8.04708074036379"><ele>252.0</ele><time>2026-04-19T08:05:55.999Z</time></trkpt><trkpt lat="44.87791361577505" lon="8.046958881247765"><ele>249.99999999999997</ele><time>2026-04-19T08:05:57.999Z</time></trkpt><trkpt lat="44.877886536189976" lon="8.046818735111918"><ele>247.99999999999997</ele><time>2026-04-19T08:05:59.999Z</time></trkpt><trkpt lat="44.877794749991025" lon="8.046741259982975"><ele>246.0</ele><time>2026-04-19T08:06:01.999Z</time></trkpt><trkpt lat="44.877737772122344" lon="8.046627313872762"><ele>244.0</ele><time>2026-04-19T08:06:03.999Z</time></trkpt><trkpt lat="44.87775712632414" lon="8.046492071605876"><ele>241.33333333333331</ele><time>2026-04-19T08:06:05.999Z</time></trkpt><trkpt lat="44.87782546834567" lon="8.046376954576012"><ele>238.66666666666666</ele><time>2026-04-19T08:06:07.999Z</time></trkpt><trkpt lat="44.877786419886654" lon="8.046306188693455"><ele>236.0</ele><time>2026-04-19T08:06:09.999Z</time></trkpt><trkpt lat="44.87771662047568" lon="8.046276735358369"><ele>233.33333333333331</ele><time>2026-04-19T08:06:11.999Z</time></trkpt><trkpt lat="44.87764126804825" lon="8.046291811823098"><ele>230.66666666666666</ele><time>2026-04-19T08:06:13.999Z</time></trkpt><trkpt lat="44.877575059423634" lon="8.04628205011526"><ele>228.0</ele><time>2026-04-19T08:06:15.999Z</time></trkpt><trkpt lat="44.877484604481545" lon="8.046283255572677"><ele>228.33333333333334</ele><time>2026-04-19T08:06:19Z</time></trkpt><trkpt lat="44.87739110469125" lon="8.046268138716266"><ele>228.66666666666669</ele><time>2026-04-19T08:06:21Z</time></trkpt><trkpt lat="44.87731346656867" lon="8.046337236912521"><ele>229.0</ele><time>2026-04-19T08:06:23Z</time></trkpt><trkpt lat="44.877263253748886" lon="8.046436559578304"><ele>229.33333333333334</ele><time>2026-04-19T08:06:26Z</time></trkpt><trkpt lat="44.87721328731525" lon="8.046512957862737"><ele>229.66666666666669</ele><time>2026-04-19T08:06:28Z</time></trkpt><trkpt lat="44.8771711520593" lon="8.046598891648241"><ele>230.0</ele><time>2026-04-19T08:06:30Z</time></trkpt><trkpt lat="44.87713324134871" lon="8.046696583108519"><ele>230.0</ele><time>2026-04-19T08:06:32Z</time></trkpt><trkpt lat="44.877121263581245" lon="8.046865730464498"><ele>230.0</ele><time>2026-04-19T08:06:34Z</time></trkpt><trkpt lat="44.87705904450522" lon="8.046976682155101"><ele>230.0</ele><time>2026-04-19T08:06:36Z</time></trkpt><trkpt lat="44.877017857593124" lon="8.047099017880823"><ele>230.0</ele><time>2026-04-19T08:06:38Z</time></trkpt><trkpt lat="44.876987039774754" lon="8.047238302964603"><ele>230.0</ele><time>2026-04-19T08:06:40Z</time></trkpt><trkpt lat="44.87693834417335" lon="8.047358592171781"><ele>230.6</ele><time>2026-04-19T08:06:42Z</time></trkpt><trkpt lat="44.876910832487496" lon="8.047511749884054"><ele>231.2</ele><time>2026-04-19T08:06:44Z</time></trkpt><trkpt lat="44.87687425563505" lon="8.047657028073246"><ele>231.8</ele><time>2026-04-19T08:06:46Z</time></trkpt><trkpt lat="44.876830123139484" lon="8.047769262050888"><ele>232.4</ele><time>2026-04-19T08:06:48Z</time></trkpt><trkpt lat="44.87678744466976" lon="8.04767282276996"><ele>233.0</ele><time>2026-04-19T08:06:52Z</time></trkpt><trkpt lat="44.87674842086666" lon="8.047538280577164"><ele>229.0</ele><time>2026-04-19T08:06:54Z</time></trkpt><trkpt lat="44.87666181476916" lon="8.047521025176488"><ele>225.0</ele><time>2026-04-19T08:06:56Z</time></trkpt><trkpt lat="44.87656361057982" lon="8.047504743273588"><ele>221.0</ele><time>2026-04-19T08:06:58Z</time></trkpt><trkpt lat="44.87646021247904" lon="8.047493235627321"><ele>217.0</ele><time>2026-04-19T08:07:00Z</time></trkpt><trkpt lat="44.87638124254782" lon="8.04744412159114"><ele>213.0</ele><time>2026-04-19T08:07:02Z</time></trkpt><trkpt lat="44.876345304820724" lon="8.047340715428367"><ele>213.0</ele><time>2026-04-19T08:07:04Z</time></trkpt><trkpt lat="44.876362958295935" lon="8.047175180586805"><ele>213.0</ele><time>2026-04-19T08:07:06Z</time></trkpt><trkpt lat="44.87640146075514" lon="8.047048217819823"><ele>213.0</ele><time>2026-04-19T08:07:07Z</time></trkpt><trkpt lat="44.87644784302952" lon="8.04691487289887"><ele>213.0</ele><time>2026-04-19T08:07:08Z</time></trkpt><trkpt lat="44.876482523788155" lon="8.046788927921376"><ele>213.0</ele><time>2026-04-19T08:07:09Z</time></trkpt><trkpt lat="44.87653403507994" lon="8.046613088803335"><ele>214.33333333333331</ele><time>2026-04-19T08:07:10Z</time></trkpt><trkpt lat="44.876604793543365" lon="8.046411738204586"><ele>215.66666666666666</ele><time>2026-04-19T08:07:11Z</time></trkpt><trkpt lat="44.87669562894332" lon="8.04618394233678"><ele>217.0</ele><time>2026-04-19T08:07:12Z</time></trkpt><trkpt lat="44.876784493053655" lon="8.046004048932694"><ele>217.25</ele><time>2026-04-19T08:07:13Z</time></trkpt><trkpt lat="44.87687340609994" lon="8.045865339011687"><ele>217.5</ele><time>2026-04-19T08:07:14Z</time></trkpt><trkpt lat="44.8769436195823" lon="8.045725356492074"><ele>217.75</ele><time>2026-04-19T08:07:15Z</time></trkpt><trkpt lat="44.876992605140224" lon="8.045553126668413"><ele>218.0</ele><time>2026-04-19T08:07:16Z</time></trkpt><trkpt lat="44.87702739679404" lon="8.045356555030898"><ele>218.0</ele><time>2026-04-19T08:07:17Z</time></trkpt><trkpt lat="44.877058500193435" lon="8.045188211613507"><ele>218.0</ele><time>2026-04-19T08:07:18Z</time></trkpt><trkpt lat="44.87705651321901" lon="8.04505389866036"><ele>218.0</ele><time>2026-04-19T08:07:19Z</time></trkpt><trkpt lat="44.87702871392163" lon="8.044915859076072"><ele>218.0</ele><time>2026-04-19T08:07:20Z</time></trkpt><trkpt lat="44.87699452746715" lon="8.044741545687469"><ele>218.0</ele><time>2026-04-19T08:07:21Z</time></trkpt><trkpt lat="44.87699660338479" lon="8.044575695330645"><ele>218.0</ele><time>2026-04-19T08:07:22Z</time></trkpt><trkpt lat="44.87703160189843" lon="8.04439641486926"><ele>218.0</ele><time>2026-04-19T08:07:23Z</time></trkpt><trkpt lat="44.877072287750934" lon="8.04418830749423"><ele>218.0</ele><time>2026-04-19T08:07:24Z</time></trkpt><trkpt lat="44.87709065220045" lon="8.044012974927282"><ele>218.0</ele><time>2026-04-19T08:07:25Z</time></trkpt><trkpt lat="44.87712612046609" lon="8.043887818467496"><ele>218.0</ele><time>2026-04-19T08:07:26Z</time></trkpt><trkpt lat="44.8771878589463" lon="8.043736150077587"><ele>218.0</ele><time>2026-04-19T08:07:27Z</time></trkpt><trkpt lat="44.877258750631334" lon="8.04355060751706"><ele>218.0</ele><time>2026-04-19T08:07:28Z</time></trkpt><trkpt lat="44.87730423149623" lon="8.043392404962066"><ele>218.0</ele><time>2026-04-19T08:07:29Z</time></trkpt><trkpt lat="44.87732653188868" lon="8.043226392920566"><ele>218.25</ele><time>2026-04-19T08:07:30Z</time></trkpt><trkpt lat="44.877343209788904" lon="8.043011453741114"><ele>218.5</ele><time>2026-04-19T08:07:31Z</time></trkpt><trkpt lat="44.87737621527404" lon="8.042832250202352"><ele>218.75</ele><time>2026-04-19T08:07:31.999Z</time></trkpt><trkpt lat="44.87740634300778" lon="8.042685854404722"><ele>219.0</ele><time>2026-04-19T08:07:32.999Z</time></trkpt><trkpt lat="44.877437202552706" lon="8.042541133814018"><ele>220.0</ele><time>2026-04-19T08:07:33.999Z</time></trkpt><trkpt lat="44.87747734926059" lon="8.042373387946327"><ele>221.0</ele><time>2026-04-19T08:07:34.999Z</time></trkpt><trkpt lat="44.87748720232241" lon="8.042178113787223"><ele>222.0</ele><time>2026-04-19T08:07:35.999Z</time></trkpt><trkpt lat="44.877500536131386" lon="8.041983023493641"><ele>223.0</ele><time>2026-04-19T08:07:36.999Z</time></trkpt><trkpt lat="44.87752009289051" lon="8.04181768274912"><ele>222.99999999999997</ele><time>2026-04-19T08:07:37.999Z</time></trkpt><trkpt lat="44.87753460069414" lon="8.041698216294554"><ele>223.0</ele><time>2026-04-19T08:07:38.999Z</time></trkpt><trkpt lat="44.87753634222189" lon="8.041590973427791"><ele>223.0</ele><time>2026-04-19T08:07:39.999Z</time></trkpt><trkpt lat="44.877523671934966" lon="8.04146703995257"><ele>223.0</ele><time>2026-04-19T08:07:40.999Z</time></trkpt><trkpt lat="44.8775142552685" lon="8.041343583891884"><ele>222.99999999999997</ele><time>2026-04-19T08:07:41.999Z</time></trkpt><trkpt lat="44.87752692932388" lon="8.04122954901359"><ele>223.0</ele><time>2026-04-19T08:07:42.999Z</time></trkpt><trkpt lat="44.87756131671679" lon="8.041075857892716"><ele>224.2</ele><time>2026-04-19T08:07:43.999Z</time></trkpt><trkpt lat="44.87759780972904" lon="8.04093911864175"><ele>225.4</ele><time>2026-04-19T08:07:44.999Z</time></trkpt><trkpt lat="44.87761085637346" lon="8.040834962009773"><ele>226.59999999999997</ele><time>2026-04-19T08:07:45.999Z</time></trkpt><trkpt lat="44.87760854176152" lon="8.040697916104252"><ele>227.79999999999998</ele><time>2026-04-19T08:07:46.999Z</time></trkpt><trkpt lat="44.87760211116948" lon="8.040519337899092"><ele>229.0</ele><time>2026-04-19T08:07:47.999Z</time></trkpt><trkpt lat="44.87761790345702" lon="8.040328694114995"><ele>229.25</ele><time>2026-04-19T08:07:48.999Z</time></trkpt><trkpt lat="44.8776388198128" lon="8.040124804898971"><ele>229.5</ele><time>2026-04-19T08:07:49.999Z</time></trkpt><trkpt lat="44.87765209853943" lon="8.039953230351653"><ele>229.75</ele><time>2026-04-19T08:07:50.999Z</time></trkpt><trkpt lat="44.87766247033014" lon="8.039796034786479"><ele>230.0</ele><time>2026-04-19T08:07:51.999Z</time></trkpt><trkpt lat="44.87763144656511" lon="8.039687300177373"><ele>229.8</ele><time>2026-04-19T08:07:52.999Z</time></trkpt><trkpt lat="44.877584260728824" lon="8.039577344243165"><ele>229.6</ele><time>2026-04-19T08:07:53.999Z</time></trkpt><trkpt lat="44.877504203843415" lon="8.039465463143257"><ele>229.39999999999998</ele><time>2026-04-19T08:07:54.999Z</time></trkpt><trkpt lat="44.87741684012449" lon="8.039363986807404"><ele>229.2</ele><time>2026-04-19T08:07:55.999Z</time></trkpt><trkpt lat="44.87733756079028" lon="8.039291780278734"><ele>229.0</ele><time>2026-04-19T08:07:56.999Z</time></trkpt><trkpt lat="44.87726190340957" lon="8.039227645897581"><ele>229.0</ele><time>2026-04-19T08:07:57.999Z</time></trkpt><trkpt lat="44.877202831785645" lon="8.039141494642838"><ele>229.0</ele><time>2026-04-19T08:07:58.999Z</time></trkpt><trkpt lat="44.87715890725989" lon="8.038994480144146"><ele>229.0</ele><time>2026-04-19T08:07:59.999Z</time></trkpt><trkpt lat="44.877101312925014" lon="8.038810646917305"><ele>229.0</ele><time>2026-04-19T08:08:00.999Z</time></trkpt><trkpt lat="44.87703110758591" lon="8.038642694986242"><ele>231.2</ele><time>2026-04-19T08:08:01.999Z</time></trkpt><trkpt lat="44.87696667714147" lon="8.038552674742728"><ele>233.39999999999998</ele><time>2026-04-19T08:08:02.999Z</time></trkpt><trkpt lat="44.87687450951662" lon="8.038472512092698"><ele>235.6</ele><time>2026-04-19T08:08:03.999Z</time></trkpt><trkpt lat="44.876792495619334" lon="8.038381685109654"><ele>237.8</ele><time>2026-04-19T08:08:04.999Z</time></trkpt><trkpt lat="44.87672837139996" lon="8.038274329445308"><ele>240.0</ele><time>2026-04-19T08:08:05.999Z</time></trkpt><trkpt lat="44.87666859118909" lon="8.03814454753065"><ele>240.0</ele><time>2026-04-19T08:08:06.999Z</time></trkpt><trkpt lat="44.87661001230569" lon="8.038029866151918"><ele>240.0</ele><time>2026-04-19T08:08:07.999Z</time></trkpt><trkpt lat="44.87655332246405" lon="8.037945828490995"><ele>240.0</ele><time>2026-04-19T08:08:08.999Z</time></trkpt><trkpt lat="44.876488093817265" lon="8.037890047698614"><ele>240.0</ele><time>2026-04-19T08:08:09.999Z</time></trkpt><trkpt lat="44.8764198225828" lon="8.037846840116782"><ele>240.0</ele><time>2026-04-19T08:08:10.999Z</time></trkpt><trkpt lat="44.87636030422845" lon="8.037776225591921"><ele>240.0</ele><time>2026-04-19T08:08:11.999Z</time></trkpt><trkpt lat="44.87631675171566" lon="8.0376449183527"><ele>240.0</ele><time>2026-04-19T08:08:12.999Z</time></trkpt><trkpt lat="44.87630039148211" lon="8.03749781720891"><ele>240.0</ele><time>2026-04-19T08:08:13.999Z</time></trkpt><trkpt lat="44.876288865592144" lon="8.03732422025492"><ele>240.0</ele><time>2026-04-19T08:08:14.999Z</time></trkpt><trkpt lat="44.876240147766744" lon="8.037204291926571"><ele>240.0</ele><time>2026-04-19T08:08:15.999Z</time></trkpt><trkpt lat="44.87616981416211" lon="8.037013431191024"><ele>239.0</ele><time>2026-04-19T08:08:16.999Z</time></trkpt><trkpt lat="44.876115372044126" lon="8.036887313872526"><ele>238.0</ele><time>2026-04-19T08:08:17.999Z</time></trkpt><trkpt lat="44.87605749418562" lon="8.036813743478778"><ele>237.0</ele><time>2026-04-19T08:08:18.999Z</time></trkpt><trkpt lat="44.87598962439106" lon="8.036741136728638"><ele>236.0</ele><time>2026-04-19T08:08:19.999Z</time></trkpt><trkpt lat="44.87594610808325" lon="8.036663243929382"><ele>235.0</ele><time>2026-04-19T08:08:20.999Z</time></trkpt><trkpt lat="44.87593457886084" lon="8.036442987665353"><ele>234.99999999999997</ele><time>2026-04-19T08:08:23Z</time></trkpt><trkpt lat="44.8759149050164" lon="8.036341154163976"><ele>235.0</ele><time>2026-04-19T08:08:24Z</time></trkpt><trkpt lat="44.87588347785383" lon="8.036240780791047"><ele>235.0</ele><time>2026-04-19T08:08:25Z</time></trkpt><trkpt lat="44.875868868191795" lon="8.036139565266298"><ele>235.0</ele><time>2026-04-19T08:08:26Z</time></trkpt><trkpt lat="44.875869059539696" lon="8.036016382521408"><ele>234.99999999999997</ele><time>2026-04-19T08:08:27Z</time></trkpt><trkpt lat="44.875869974564154" lon="8.035894712606218"><ele>235.0</ele><time>2026-04-19T08:08:28Z</time></trkpt><trkpt lat="44.8758458583484" lon="8.035806611735854"><ele>236.28571428571428</ele><time>2026-04-19T08:08:29Z</time></trkpt><trkpt lat="44.875796120479976" lon="8.035723169244182"><ele>237.57142857142856</ele><time>2026-04-19T08:08:30Z</time></trkpt><trkpt lat="44.87574718838059" lon="8.035648048192144"><ele>238.85714285714283</ele><time>2026-04-19T08:08:31Z</time></trkpt><trkpt lat="44.87571047554312" lon="8.035569904608545"><ele>240.1428571428571</ele><time>2026-04-19T08:08:32Z</time></trkpt><trkpt lat="44.875675555625946" lon="8.035494620610608"><ele>241.42857142857142</ele><time>2026-04-19T08:08:33Z</time></trkpt><trkpt lat="44.87561894141831" lon="8.035442284554783"><ele>242.71428571428567</ele><time>2026-04-19T08:08:34Z</time></trkpt><trkpt lat="44.87554356161963" lon="8.035385569060729"><ele>243.99999999999997</ele><time>2026-04-19T08:08:35Z</time></trkpt><trkpt lat="44.8754427142194" lon="8.035311646605356"><ele>243.99999999999997</ele><time>2026-04-19T08:08:36Z</time></trkpt><trkpt lat="44.875372656832326" lon="8.035239336579695"><ele>244.0</ele><time>2026-04-19T08:08:37Z</time></trkpt><trkpt lat="44.87530757319733" lon="8.035086991831415"><ele>244.0</ele><time>2026-04-19T08:08:39Z</time></trkpt><trkpt lat="44.87529248115451" lon="8.034992640259953"><ele>244.0</ele><time>2026-04-19T08:08:40Z</time></trkpt><trkpt lat="44.87528007799028" lon="8.03490199044236"><ele>243.99999999999997</ele><time>2026-04-19T08:08:41Z</time></trkpt><trkpt lat="44.875237045132906" lon="8.034817856920684"><ele>244.0</ele><time>2026-04-19T08:08:42Z</time></trkpt><trkpt lat="44.875162810875764" lon="8.034737066335083"><ele>245.39999999999998</ele><time>2026-04-19T08:08:43Z</time></trkpt><trkpt lat="44.8750789521844" lon="8.034678756968125"><ele>246.79999999999998</ele><time>2026-04-19T08:08:44Z</time></trkpt><trkpt lat="44.874996160669504" lon="8.034623281920616"><ele>248.20000000000002</ele><time>2026-04-19T08:08:45Z</time></trkpt><trkpt lat="44.874879276564485" lon="8.034565058743555"><ele>249.60000000000002</ele><time>2026-04-19T08:08:47Z</time></trkpt><trkpt lat="44.87476294356774" lon="8.034473020514456"><ele>251.0</ele><time>2026-04-19T08:08:49Z</time></trkpt><trkpt lat="44.87470110622114" lon="8.034414438867133"><ele>250.99999999999997</ele><time>2026-04-19T08:08:50Z</time></trkpt><trkpt lat="44.874633162458366" lon="8.03438568793017"><ele>251.0</ele><time>2026-04-19T08:08:51Z</time></trkpt><trkpt lat="44.874571970013804" lon="8.034351683589732"><ele>250.99999999999997</ele><time>2026-04-19T08:08:52Z</time></trkpt><trkpt lat="44.874518069793666" lon="8.034304620502104"><ele>250.99999999999997</ele><time>2026-04-19T08:08:53Z</time></trkpt><trkpt lat="44.87443307483755" lon="8.034203921919945"><ele>251.0</ele><time>2026-04-19T08:08:55Z</time></trkpt><trkpt lat="44.8743799180712" lon="8.03414632513683"><ele>250.99999999999997</ele><time>2026-04-19T08:08:56Z</time></trkpt><trkpt lat="44.87433789931129" lon="8.034078805705205"><ele>250.99999999999997</ele><time>2026-04-19T08:08:57Z</time></trkpt><trkpt lat="44.87424828726759" lon="8.03398421180994"><ele>249.50000000000003</ele><time>2026-04-19T08:08:59Z</time></trkpt><trkpt lat="44.87419603856609" lon="8.033907788422484"><ele>248.0</ele><time>2026-04-19T08:09:00Z</time></trkpt><trkpt lat="44.874138587489384" lon="8.033844321098591"><ele>246.5</ele><time>2026-04-19T08:09:01Z</time></trkpt><trkpt lat="44.874047830476954" lon="8.033797320534454"><ele>245.0</ele><time>2026-04-19T08:09:02Z</time></trkpt><trkpt lat="44.873965528463025" lon="8.033712696318348"><ele>243.50000000000003</ele><time>2026-04-19T08:09:03Z</time></trkpt><trkpt lat="44.87389666637868" lon="8.033643181275355"><ele>242.0</ele><time>2026-04-19T08:09:04Z</time></trkpt><trkpt lat="44.8738167212564" lon="8.03361243882459"><ele>242.00000000000003</ele><time>2026-04-19T08:09:05Z</time></trkpt><trkpt lat="44.87375370129422" lon="8.033593659912503"><ele>242.0</ele><time>2026-04-19T08:09:06Z</time></trkpt><trkpt lat="44.87381843027281" lon="8.033454040050874"><ele>242.0</ele><time>2026-04-19T08:09:08Z</time></trkpt><trkpt lat="44.87384401950385" lon="8.033340919072984"><ele>242.0</ele><time>2026-04-19T08:09:11Z</time></trkpt><trkpt lat="44.873848587592306" lon="8.033249159180272"><ele>242.00000000000003</ele><time>2026-04-19T08:09:12Z</time></trkpt><trkpt lat="44.873827239105935" lon="8.033145605307066"><ele>242.0</ele><time>2026-04-19T08:09:13Z</time></trkpt><trkpt lat="44.87378564626426" lon="8.03301761982719"><ele>243.0</ele><time>2026-04-19T08:09:14Z</time></trkpt><trkpt lat="44.87373716956638" lon="8.032888716484775"><ele>243.99999999999997</ele><time>2026-04-19T08:09:15Z</time></trkpt><trkpt lat="44.873686873945225" lon="8.032805132630543"><ele>245.0</ele><time>2026-04-19T08:09:16Z</time></trkpt><trkpt lat="44.87364924365665" lon="8.032730057300284"><ele>246.0</ele><time>2026-04-19T08:09:17Z</time></trkpt><trkpt lat="44.87362728209532" lon="8.032644338772034"><ele>246.99999999999997</ele><time>2026-04-19T08:09:18Z</time></trkpt><trkpt lat="44.87360010812318" lon="8.032564088946918"><ele>248.0</ele><time>2026-04-19T08:09:19Z</time></trkpt><trkpt lat="44.873566471295376" lon="8.032478406086808"><ele>249.0</ele><time>2026-04-19T08:09:20Z</time></trkpt><trkpt lat="44.87353373371271" lon="8.032397507411275"><ele>248.6</ele><time>2026-04-19T08:09:21Z</time></trkpt><trkpt lat="44.87347964388339" lon="8.032322899783308"><ele>248.2</ele><time>2026-04-19T08:09:22Z</time></trkpt><trkpt lat="44.873420699273446" lon="8.032245910312724"><ele>247.79999999999998</ele><time>2026-04-19T08:09:23Z</time></trkpt><trkpt lat="44.87334762570454" lon="8.032184675411633"><ele>247.39999999999998</ele><time>2026-04-19T08:09:24Z</time></trkpt><trkpt lat="44.87322026156836" lon="8.032166705444666"><ele>247.0</ele><time>2026-04-19T08:09:25.999Z</time></trkpt><trkpt lat="44.87314021044846" lon="8.03214836626768"><ele>247.0</ele><time>2026-04-19T08:09:26.999Z</time></trkpt><trkpt lat="44.87303413063198" lon="8.032106589134678"><ele>247.0</ele><time>2026-04-19T08:09:28.999Z</time></trkpt><trkpt lat="44.8729711480498" lon="8.032033519784006"><ele>247.0</ele><time>2026-04-19T08:09:33.999Z</time></trkpt><trkpt lat="44.872864532906924" lon="8.03207827925685"><ele>247.0</ele><time>2026-04-19T08:09:35.999Z</time></trkpt><trkpt lat="44.87273701782852" lon="8.032042483992813"><ele>247.0</ele><time>2026-04-19T08:09:37.999Z</time></trkpt><trkpt lat="44.87263906665709" lon="8.031984232409032"><ele>246.99999999999997</ele><time>2026-04-19T08:09:39.999Z</time></trkpt><trkpt lat="44.872641712021135" lon="8.031882123620987"><ele>247.0</ele><time>2026-04-19T08:09:42.999Z</time></trkpt><trkpt lat="44.87271997847781" lon="8.031847444725834"><ele>247.0</ele><time>2026-04-19T08:09:44.999Z</time></trkpt><trkpt lat="44.87275175057824" lon="8.031770748833507"><ele>247.0</ele><time>2026-04-19T08:09:46.999Z</time></trkpt><trkpt lat="44.87271500560097" lon="8.031639442729285"><ele>246.99999999999997</ele><time>2026-04-19T08:09:48.999Z</time></trkpt><trkpt lat="44.872696755261465" lon="8.03150172307427"><ele>247.0</ele><time>2026-04-19T08:09:50.999Z</time></trkpt><trkpt lat="44.872706139958765" lon="8.031399316364974"><ele>248.83333333333331</ele><time>2026-04-19T08:09:51.999Z</time></trkpt><trkpt lat="44.87271349727975" lon="8.03131068650496"><ele>250.66666666666666</ele><time>2026-04-19T08:09:52.999Z</time></trkpt><trkpt lat="44.87271502612375" lon="8.031210898254974"><ele>252.5</ele><time>2026-04-19T08:09:53.999Z</time></trkpt><trkpt lat="44.872721137656406" lon="8.031089130330093"><ele>254.33333333333331</ele><time>2026-04-19T08:09:55.999Z</time></trkpt><trkpt lat="44.872712738496105" lon="8.030931715102177"><ele>256.1666666666667</ele><time>2026-04-19T08:10:29Z</time></trkpt><trkpt lat="44.872731189025494" lon="8.030772941844807"><ele>258.0</ele><time>2026-04-19T08:10:31Z</time></trkpt><trkpt lat="44.872741086768194" lon="8.030684155384847"><ele>260.4</ele><time>2026-04-19T08:10:32Z</time></trkpt><trkpt lat="44.87273761409325" lon="8.030510822932273"><ele>262.8</ele><time>2026-04-19T08:10:34Z</time></trkpt><trkpt lat="44.872754431727486" lon="8.030369754504644"><ele>265.2</ele><time>2026-04-19T08:10:36Z</time></trkpt><trkpt lat="44.872773583821235" lon="8.030270713590184"><ele>267.6</ele><time>2026-04-19T08:10:38Z</time></trkpt><trkpt lat="44.87279719527968" lon="8.03015036846664"><ele>270.0</ele><time>2026-04-19T08:10:40Z</time></trkpt><trkpt lat="44.87279786707187" lon="8.030058005414864"><ele>271.0</ele><time>2026-04-19T08:10:41Z</time></trkpt><trkpt lat="44.872739171523165" lon="8.029907095960255"><ele>272.0</ele><time>2026-04-19T08:10:43Z</time></trkpt><trkpt lat="44.87271829533635" lon="8.029815163046614"><ele>273.0</ele><time>2026-04-19T08:10:44Z</time></trkpt><trkpt lat="44.87266579698547" lon="8.02973382143396"><ele>274.0</ele><time>2026-04-19T08:10:46Z</time></trkpt><trkpt lat="44.8726212084924" lon="8.029824562219217"><ele>275.0</ele><time>2026-04-19T08:10:48Z</time></trkpt><trkpt lat="44.87256964016759" lon="8.02999396915143"><ele>275.0</ele><time>2026-04-19T08:10:50Z</time></trkpt><trkpt lat="44.87254353211097" lon="8.0300825994981"><ele>275.0</ele><time>2026-04-19T08:10:51Z</time></trkpt><trkpt lat="44.87248483112815" lon="8.030159069909573"><ele>275.0</ele><time>2026-04-19T08:10:53Z</time></trkpt><trkpt lat="44.87239169773187" lon="8.030105638276073"><ele>275.0</ele><time>2026-04-19T08:10:55Z</time></trkpt><trkpt lat="44.87232982366454" lon="8.030045698582512"><ele>275.0</ele><time>2026-04-19T08:10:56Z</time></trkpt><trkpt lat="44.87228289388681" lon="8.029981422142443"><ele>275.0</ele><time>2026-04-19T08:10:57Z</time></trkpt><trkpt lat="44.87224590926011" lon="8.029821967291998"><ele>275.5</ele><time>2026-04-19T08:10:59Z</time></trkpt><trkpt lat="44.872211654423666" lon="8.029707376036024"><ele>276.0</ele><time>2026-04-19T08:11:01Z</time></trkpt><trkpt lat="44.872127909358596" lon="8.02965314162492"><ele>276.5</ele><time>2026-04-19T08:11:03Z</time></trkpt><trkpt lat="44.87207320468473" lon="8.029582652209792"><ele>277.0</ele><time>2026-04-19T08:11:08Z</time></trkpt><trkpt lat="44.87214806846359" lon="8.029551437724507"><ele>277.5</ele><time>2026-04-19T08:17:37Z</time></trkpt><trkpt lat="44.87216997570442" lon="8.029461953226415"><ele>278.0</ele><time>2026-04-19T08:22:54.999Z</time></trkpt><trkpt lat="44.872238052954444" lon="8.029371971994456"><ele>278.0</ele><time>2026-04-19T08:22:56.999Z</time></trkpt><trkpt lat="44.87228163008809" lon="8.02930595524462"><ele>278.0</ele><time>2026-04-19T08:22:57.999Z</time></trkpt><trkpt lat="44.87233447115365" lon="8.029227298800446"><ele>278.0</ele><time>2026-04-19T08:22:58.999Z</time></trkpt><trkpt lat="44.87239973129881" lon="8.029172193836969"><ele>278.0</ele><time>2026-04-19T08:22:59.999Z</time></trkpt><trkpt lat="44.87252274617324" lon="8.029067248657991"><ele>278.0</ele><time>2026-04-19T08:23:01.999Z</time></trkpt><trkpt lat="44.872628565037616" lon="8.029020880183177"><ele>277.2</ele><time>2026-04-19T08:23:02.999Z</time></trkpt><trkpt lat="44.87274082134602" lon="8.028987493917787"><ele>276.4</ele><time>2026-04-19T08:23:04Z</time></trkpt><trkpt lat="44.872845771732074" lon="8.028973316585072"><ele>275.59999999999997</ele><time>2026-04-19T08:23:05Z</time></trkpt><trkpt lat="44.87294444322626" lon="8.028963277655446"><ele>274.8</ele><time>2026-04-19T08:23:06Z</time></trkpt><trkpt lat="44.87303895208538" lon="8.028945677457193"><ele>274.0</ele><time>2026-04-19T08:23:07Z</time></trkpt><trkpt lat="44.873144336998315" lon="8.028933436053007"><ele>274.0</ele><time>2026-04-19T08:23:08Z</time></trkpt><trkpt lat="44.87325587670546" lon="8.028934822041531"><ele>274.0</ele><time>2026-04-19T08:23:09Z</time></trkpt><trkpt lat="44.87336158826753" lon="8.02895245220136"><ele>274.0</ele><time>2026-04-19T08:23:10Z</time></trkpt><trkpt lat="44.87346396705877" lon="8.028989533276476"><ele>274.0</ele><time>2026-04-19T08:23:11Z</time></trkpt><trkpt lat="44.873565391891134" lon="8.029048378545621"><ele>274.0</ele><time>2026-04-19T08:23:12Z</time></trkpt><trkpt lat="44.87366844983964" lon="8.029118562237208"><ele>276.75</ele><time>2026-04-19T08:23:13Z</time></trkpt><trkpt lat="44.87377812875019" lon="8.029206116328444"><ele>279.5</ele><time>2026-04-19T08:23:14Z</time></trkpt><trkpt lat="44.87387985988105" lon="8.029295265437492"><ele>282.25</ele><time>2026-04-19T08:23:15Z</time></trkpt><trkpt lat="44.87396961546782" lon="8.029387192006697"><ele>285.0</ele><time>2026-04-19T08:23:16Z</time></trkpt><trkpt lat="44.87406188400175" lon="8.029474801100456"><ele>285.0</ele><time>2026-04-19T08:23:17Z</time></trkpt><trkpt lat="44.87415963579186" lon="8.029562781181589"><ele>285.0</ele><time>2026-04-19T08:23:18Z</time></trkpt><trkpt lat="44.874262994888205" lon="8.029656401987339"><ele>285.0</ele><time>2026-04-19T08:23:19Z</time></trkpt><trkpt lat="44.874362248295164" lon="8.029739968459346"><ele>285.0</ele><time>2026-04-19T08:23:20Z</time></trkpt><trkpt lat="44.87446362268249" lon="8.029797777133897"><ele>285.0</ele><time>2026-04-19T08:23:21Z</time></trkpt><trkpt lat="44.87456949648459" lon="8.029824775738005"><ele>285.0</ele><time>2026-04-19T08:23:22Z</time></trkpt><trkpt lat="44.87468707864092" lon="8.029849399741613"><ele>285.0</ele><time>2026-04-19T08:23:23Z</time></trkpt><trkpt lat="44.874817179115496" lon="8.02986077805164"><ele>285.0</ele><time>2026-04-19T08:23:24Z</time></trkpt><trkpt lat="44.87493283803535" lon="8.02988174397605"><ele>285.0</ele><time>2026-04-19T08:23:25Z</time></trkpt><trkpt lat="44.875052584054096" lon="8.029901342483496"><ele>285.0</ele><time>2026-04-19T08:23:26Z</time></trkpt><trkpt lat="44.875176060401564" lon="8.02993435030922"><ele>285.0</ele><time>2026-04-19T08:23:27Z</time></trkpt><trkpt lat="44.87529617987818" lon="8.029969532906817"><ele>285.0</ele><time>2026-04-19T08:23:28Z</time></trkpt><trkpt lat="44.87541582059612" lon="8.030020425596884"><ele>287.0</ele><time>2026-04-19T08:23:29Z</time></trkpt><trkpt lat="44.87553252779099" lon="8.03009188293966"><ele>289.0</ele><time>2026-04-19T08:23:30Z</time></trkpt><trkpt lat="44.87565364982459" lon="8.030168709266814"><ele>291.0</ele><time>2026-04-19T08:23:31Z</time></trkpt><trkpt lat="44.8757841368959" lon="8.030268936647136"><ele>293.0</ele><time>2026-04-19T08:23:32Z</time></trkpt><trkpt lat="44.87590408600669" lon="8.030362982039552"><ele>292.2</ele><time>2026-04-19T08:23:33Z</time></trkpt><trkpt lat="44.87601238219332" lon="8.03045126679244"><ele>291.4</ele><time>2026-04-19T08:23:34Z</time></trkpt><trkpt lat="44.87610820946572" lon="8.030527613607664"><ele>290.59999999999997</ele><time>2026-04-19T08:23:35Z</time></trkpt><trkpt lat="44.876192924626366" lon="8.030600270824834"><ele>289.8</ele><time>2026-04-19T08:23:36Z</time></trkpt><trkpt lat="44.876286895166935" lon="8.030662954225077"><ele>289.0</ele><time>2026-04-19T08:23:37Z</time></trkpt><trkpt lat="44.87637909678398" lon="8.030711576511164"><ele>289.0</ele><time>2026-04-19T08:23:38Z</time></trkpt><trkpt lat="44.8764686515174" lon="8.030759116463432"><ele>289.0</ele><time>2026-04-19T08:23:39Z</time></trkpt><trkpt lat="44.87656085366217" lon="8.030816879916895"><ele>289.0</ele><time>2026-04-19T08:23:40Z</time></trkpt><trkpt lat="44.87665467782873" lon="8.030890859083033"><ele>289.0</ele><time>2026-04-19T08:23:41Z</time></trkpt><trkpt lat="44.8767513894738" lon="8.030967918824746"><ele>289.0</ele><time>2026-04-19T08:23:42Z</time></trkpt><trkpt lat="44.876847008710996" lon="8.031059303705446"><ele>285.25</ele><time>2026-04-19T08:23:43Z</time></trkpt><trkpt lat="44.87694482939537" lon="8.031143659779"><ele>281.5</ele><time>2026-04-19T08:23:44Z</time></trkpt><trkpt lat="44.87703987721091" lon="8.031234996377206"><ele>277.75</ele><time>2026-04-19T08:23:45Z</time></trkpt><trkpt lat="44.87712990323859" lon="8.031346510736018"><ele>274.0</ele><time>2026-04-19T08:23:46Z</time></trkpt><trkpt lat="44.87721822621168" lon="8.031449796134927"><ele>274.0</ele><time>2026-04-19T08:23:47Z</time></trkpt><trkpt lat="44.87731390019203" lon="8.031542990836176"><ele>274.0</ele><time>2026-04-19T08:23:48Z</time></trkpt><trkpt lat="44.877400782384335" lon="8.031639535580977"><ele>274.0</ele><time>2026-04-19T08:23:49Z</time></trkpt><trkpt lat="44.87748057613173" lon="8.031742168353766"><ele>274.0</ele><time>2026-04-19T08:23:50Z</time></trkpt><trkpt lat="44.87755490052989" lon="8.031842446354904"><ele>274.0</ele><time>2026-04-19T08:23:51Z</time></trkpt><trkpt lat="44.877609324931626" lon="8.0319087883465"><ele>273.8</ele><time>2026-04-19T08:23:52Z</time></trkpt><trkpt lat="44.87768129586504" lon="8.031811543684736"><ele>273.59999999999997</ele><time>2026-04-19T08:23:57Z</time></trkpt><trkpt lat="44.87771312193809" lon="8.03173378150895"><ele>273.4</ele><time>2026-04-19T08:23:58Z</time></trkpt><trkpt lat="44.87781963058342" lon="8.031684641943519"><ele>273.2</ele><time>2026-04-19T08:24:00Z</time></trkpt><trkpt lat="44.877875810875764" lon="8.031736485833811"><ele>273.0</ele><time>2026-04-19T08:24:01Z</time></trkpt><trkpt lat="44.87796360118507" lon="8.031851766911752"><ele>273.0</ele><time>2026-04-19T08:24:03Z</time></trkpt><trkpt lat="44.87804293400173" lon="8.031911091568661"><ele>273.0</ele><time>2026-04-19T08:24:05Z</time></trkpt><trkpt lat="44.87810716025863" lon="8.031831990929556"><ele>273.0</ele><time>2026-04-19T08:24:07Z</time></trkpt><trkpt lat="44.878120910234955" lon="8.031708909429536"><ele>273.0</ele><time>2026-04-19T08:24:09Z</time></trkpt><trkpt lat="44.87816546563325" lon="8.031548777455837"><ele>273.0</ele><time>2026-04-19T08:24:11Z</time></trkpt><trkpt lat="44.8782049228572" lon="8.031468475937285"><ele>270.6</ele><time>2026-04-19T08:24:12Z</time></trkpt><trkpt lat="44.87824224729189" lon="8.031376456174323"><ele>268.20000000000005</ele><time>2026-04-19T08:24:13Z</time></trkpt><trkpt lat="44.87830552939035" lon="8.031226717891323"><ele>265.8</ele><time>2026-04-19T08:24:15Z</time></trkpt><trkpt lat="44.878372353464286" lon="8.031088917285857"><ele>263.40000000000003</ele><time>2026-04-19T08:24:17Z</time></trkpt><trkpt lat="44.87838497381003" lon="8.030946325161938"><ele>261.0</ele><time>2026-04-19T08:24:19Z</time></trkpt><trkpt lat="44.87837665375569" lon="8.030786327114594"><ele>258.2</ele><time>2026-04-19T08:24:21Z</time></trkpt><trkpt lat="44.87830268587372" lon="8.030658218747924"><ele>255.40000000000003</ele><time>2026-04-19T08:24:23Z</time></trkpt><trkpt lat="44.87822720132294" lon="8.030550716142862"><ele>252.6</ele><time>2026-04-19T08:24:25Z</time></trkpt><trkpt lat="44.87818717507281" lon="8.030457682235312"><ele>249.8</ele><time>2026-04-19T08:24:27Z</time></trkpt><trkpt lat="44.878243520415666" lon="8.03033589122893"><ele>247.0</ele><time>2026-04-19T08:24:29Z</time></trkpt><trkpt lat="44.87831162927558" lon="8.030194188126616"><ele>247.0</ele><time>2026-04-19T08:24:31Z</time></trkpt><trkpt lat="44.8783499162661" lon="8.030114671446583"><ele>247.0</ele><time>2026-04-19T08:24:32Z</time></trkpt><trkpt lat="44.87838932461653" lon="8.030043554515343"><ele>247.0</ele><time>2026-04-19T08:24:33Z</time></trkpt><trkpt lat="44.87844331850457" lon="8.029894740124334"><ele>247.0</ele><time>2026-04-19T08:24:35Z</time></trkpt><trkpt lat="44.87848984781042" lon="8.029749298833172"><ele>247.0</ele><time>2026-04-19T08:24:37Z</time></trkpt><trkpt lat="44.878518807004646" lon="8.029617824974776"><ele>243.6</ele><time>2026-04-19T08:24:39Z</time></trkpt><trkpt lat="44.87857680650915" lon="8.029502430533677"><ele>240.2</ele><time>2026-04-19T08:24:41Z</time></trkpt><trkpt lat="44.87862913251279" lon="8.029351461246689"><ele>236.8</ele><time>2026-04-19T08:24:43Z</time></trkpt><trkpt lat="44.87864160524736" lon="8.029221120978123"><ele>233.4</ele><time>2026-04-19T08:24:45Z</time></trkpt><trkpt lat="44.8786311316989" lon="8.029094249516247"><ele>230.0</ele><time>2026-04-19T08:24:47Z</time></trkpt><trkpt lat="44.87862117456416" lon="8.028936856370734"><ele>229.2</ele><time>2026-04-19T08:24:49Z</time></trkpt><trkpt lat="44.87863715089385" lon="8.02885044143352"><ele>228.4</ele><time>2026-04-19T08:24:50Z</time></trkpt><trkpt lat="44.878656658369295" lon="8.028673823177725"><ele>227.60000000000002</ele><time>2026-04-19T08:24:52Z</time></trkpt><trkpt lat="44.87871072266328" lon="8.028548936976055"><ele>226.8</ele><time>2026-04-19T08:24:54Z</time></trkpt><trkpt lat="44.878760847156194" lon="8.028402634279857"><ele>226.0</ele><time>2026-04-19T08:24:56Z</time></trkpt><trkpt lat="44.87881198876864" lon="8.028266679795845"><ele>228.60000000000002</ele><time>2026-04-19T08:24:58Z</time></trkpt><trkpt lat="44.87886448326308" lon="8.02811605968029"><ele>231.20000000000002</ele><time>2026-04-19T08:25:00Z</time></trkpt><trkpt lat="44.87895019660865" lon="8.028027066473161"><ele>233.79999999999998</ele><time>2026-04-19T08:25:02Z</time></trkpt><trkpt lat="44.87901429708903" lon="8.02799673226644"><ele>236.39999999999998</ele><time>2026-04-19T08:25:03Z</time></trkpt><trkpt lat="44.87912541773634" lon="8.027953572750548"><ele>239.0</ele><time>2026-04-19T08:25:05Z</time></trkpt><trkpt lat="44.87921357759946" lon="8.027981917072552"><ele>238.0</ele><time>2026-04-19T08:25:07Z</time></trkpt><trkpt lat="44.879303473702294" lon="8.02807675375136"><ele>236.99999999999997</ele><time>2026-04-19T08:25:09Z</time></trkpt><trkpt lat="44.87940666210576" lon="8.028155227138479"><ele>235.99999999999997</ele><time>2026-04-19T08:25:11Z</time></trkpt><trkpt lat="44.87951930475077" lon="8.028200116879047"><ele>235.0</ele><time>2026-04-19T08:25:13Z</time></trkpt><trkpt lat="44.879586024025095" lon="8.028208920233904"><ele>234.0</ele><time>2026-04-19T08:25:14Z</time></trkpt><trkpt lat="44.87969552864334" lon="8.02826982582453"><ele>234.0</ele><time>2026-04-19T08:25:16Z</time></trkpt><trkpt lat="44.879749702620856" lon="8.028343502125509"><ele>234.0</ele><time>2026-04-19T08:25:17Z</time></trkpt><trkpt lat="44.879806351323005" lon="8.028397198471795"><ele>234.0</ele><time>2026-04-19T08:25:18Z</time></trkpt><trkpt lat="44.87991076296635" lon="8.028381446769645"><ele>234.0</ele><time>2026-04-19T08:25:20Z</time></trkpt><trkpt lat="44.879983073423496" lon="8.028348330467402"><ele>234.0</ele><time>2026-04-19T08:25:21Z</time></trkpt><trkpt lat="44.88004080478783" lon="8.028291970175522"><ele>234.0</ele><time>2026-04-19T08:25:22Z</time></trkpt><trkpt lat="44.88012298248129" lon="8.028235427622816"><ele>231.2</ele><time>2026-04-19T08:25:23Z</time></trkpt><trkpt lat="44.8801966947916" lon="8.02819544064462"><ele>228.39999999999998</ele><time>2026-04-19T08:25:24Z</time></trkpt><trkpt lat="44.88031486171354" lon="8.028207140973262"><ele>225.6</ele><time>2026-04-19T08:25:26Z</time></trkpt><trkpt lat="44.88038374885072" lon="8.028245216950191"><ele>222.8</ele><time>2026-04-19T08:25:27Z</time></trkpt><trkpt lat="44.88045747471551" lon="8.028276372362003"><ele>220.0</ele><time>2026-04-19T08:25:28Z</time></trkpt><trkpt lat="44.88056681450966" lon="8.028214383219439"><ele>219.99999999999997</ele><time>2026-04-19T08:25:30Z</time></trkpt><trkpt lat="44.88061646759324" lon="8.028142991997854"><ele>220.0</ele><time>2026-04-19T08:25:31Z</time></trkpt><trkpt lat="44.88065360310483" lon="8.028026291088906"><ele>220.0</ele><time>2026-04-19T08:25:33Z</time></trkpt><trkpt lat="44.88071621143855" lon="8.02792216101128"><ele>220.0</ele><time>2026-04-19T08:25:35Z</time></trkpt><trkpt lat="44.88080228542387" lon="8.02794412511131"><ele>219.99999999999997</ele><time>2026-04-19T08:25:37Z</time></trkpt><trkpt lat="44.880857987582985" lon="8.028036907147715"><ele>220.0</ele><time>2026-04-19T08:25:38Z</time></trkpt><trkpt lat="44.880929401686494" lon="8.028172239578211"><ele>222.8</ele><time>2026-04-19T08:25:39Z</time></trkpt><trkpt lat="44.88098603938941" lon="8.028314789607123"><ele>225.6</ele><time>2026-04-19T08:25:40Z</time></trkpt><trkpt lat="44.881038199929314" lon="8.028396372624096"><ele>228.39999999999998</ele><time>2026-04-19T08:25:41Z</time></trkpt><trkpt lat="44.88110673747934" lon="8.028475830365686"><ele>231.2</ele><time>2026-04-19T08:25:42Z</time></trkpt><trkpt lat="44.88116036042427" lon="8.028583971923332"><ele>234.0</ele><time>2026-04-19T08:25:43Z</time></trkpt><trkpt lat="44.88128233440065" lon="8.028663967727418"><ele>234.0</ele><time>2026-04-19T08:25:45Z</time></trkpt><trkpt lat="44.88134767623433" lon="8.028699205362377"><ele>234.0</ele><time>2026-04-19T08:25:46Z</time></trkpt><trkpt lat="44.88140259946528" lon="8.02874982792164"><ele>234.0</ele><time>2026-04-19T08:25:47Z</time></trkpt><trkpt lat="44.88146564494874" lon="8.028834885930912"><ele>234.0</ele><time>2026-04-19T08:25:48Z</time></trkpt><trkpt lat="44.88153467273625" lon="8.028887835248632"><ele>234.0</ele><time>2026-04-19T08:25:49Z</time></trkpt><trkpt lat="44.88158948983674" lon="8.02895074164444"><ele>234.0</ele><time>2026-04-19T08:25:50Z</time></trkpt><trkpt lat="44.88164356442237" lon="8.029044746957812"><ele>234.0</ele><time>2026-04-19T08:25:51Z</time></trkpt><trkpt lat="44.88170892901086" lon="8.02912559901405"><ele>234.0</ele><time>2026-04-19T08:25:52Z</time></trkpt><trkpt lat="44.8817762276541" lon="8.029198919623374"><ele>234.0</ele><time>2026-04-19T08:25:53Z</time></trkpt><trkpt lat="44.88181854657549" lon="8.029268340681085"><ele>234.0</ele><time>2026-04-19T08:25:54Z</time></trkpt><trkpt lat="44.88183755243236" lon="8.0293577639579"><ele>234.0</ele><time>2026-04-19T08:25:56Z</time></trkpt><trkpt lat="44.881832413123476" lon="8.02947835755358"><ele>234.0</ele><time>2026-04-19T08:25:57Z</time></trkpt><trkpt lat="44.88181944641614" lon="8.029589319089526"><ele>235.33333333333334</ele><time>2026-04-19T08:25:58Z</time></trkpt><trkpt lat="44.881782508412684" lon="8.029693647446528"><ele>236.66666666666669</ele><time>2026-04-19T08:25:59Z</time></trkpt><trkpt lat="44.88175524429991" lon="8.029805174845947"><ele>238.0</ele><time>2026-04-19T08:26:00Z</time></trkpt><trkpt lat="44.88172420782761" lon="8.029899723765165"><ele>239.33333333333334</ele><time>2026-04-19T08:26:01Z</time></trkpt><trkpt lat="44.88178935562784" lon="8.02984768938025"><ele>240.66666666666669</ele><time>2026-04-19T08:26:07Z</time></trkpt><trkpt lat="44.88186112413936" lon="8.029719504742175"><ele>242.0</ele><time>2026-04-19T08:26:10Z</time></trkpt><trkpt lat="44.88193304897723" lon="8.029569535192865"><ele>243.6</ele><time>2026-04-19T08:26:11Z</time></trkpt><trkpt lat="44.8819880133582" lon="8.029429255231522"><ele>245.2</ele><time>2026-04-19T08:26:12Z</time></trkpt><trkpt lat="44.88206060232646" lon="8.029318952111948"><ele>246.8</ele><time>2026-04-19T08:26:13Z</time></trkpt><trkpt lat="44.88211554441982" lon="8.029200379335652"><ele>248.4</ele><time>2026-04-19T08:26:14Z</time></trkpt><trkpt lat="44.882161604017924" lon="8.029103098538394"><ele>250.0</ele><time>2026-04-19T08:26:15Z</time></trkpt><trkpt lat="44.88220706417182" lon="8.029008674663519"><ele>251.2</ele><time>2026-04-19T08:26:16Z</time></trkpt><trkpt lat="44.88223879262616" lon="8.028884881056772"><ele>252.4</ele><time>2026-04-19T08:26:18Z</time></trkpt><trkpt lat="44.88215606389857" lon="8.028727056975871"><ele>253.60000000000002</ele><time>2026-04-19T08:26:20Z</time></trkpt><trkpt lat="44.88212179898999" lon="8.028621142297725"><ele>254.8</ele><time>2026-04-19T08:26:21Z</time></trkpt><trkpt lat="44.88211836727821" lon="8.028524412287497"><ele>256.0</ele><time>2026-04-19T08:26:22Z</time></trkpt><trkpt lat="44.882181382611684" lon="8.028420581233348"><ele>255.99999999999997</ele><time>2026-04-19T08:26:24Z</time></trkpt><trkpt lat="44.88224188145383" lon="8.028394222512592"><ele>256.0</ele><time>2026-04-19T08:26:25Z</time></trkpt><trkpt lat="44.882166274648" lon="8.028355819341815"><ele>256.0</ele><time>2026-04-19T08:26:34Z</time></trkpt><trkpt lat="44.88208289457673" lon="8.028340911487026"><ele>256.0</ele><time>2026-04-19T08:26:37Z</time></trkpt><trkpt lat="44.88211823942973" lon="8.028207707537208"><ele>255.99999999999997</ele><time>2026-04-19T08:26:40Z</time></trkpt><trkpt lat="44.88217728436546" lon="8.028112665446542"><ele>256.0</ele><time>2026-04-19T08:26:42Z</time></trkpt><trkpt lat="44.88221926607659" lon="8.028015894950684"><ele>254.0</ele><time>2026-04-19T08:26:44Z</time></trkpt><trkpt lat="44.882294428872385" lon="8.02787125734388"><ele>252.00000000000003</ele><time>2026-04-19T08:26:46Z</time></trkpt><trkpt lat="44.88236596430364" lon="8.027757026127558"><ele>250.00000000000003</ele><time>2026-04-19T08:26:48Z</time></trkpt><trkpt lat="44.88247539156622" lon="8.027746142134477"><ele>248.0</ele><time>2026-04-19T08:26:51Z</time></trkpt><trkpt lat="44.88256863598394" lon="8.027707622723176"><ele>246.0</ele><time>2026-04-19T08:26:53Z</time></trkpt><trkpt lat="44.88265439883664" lon="8.02768757906848"><ele>246.0</ele><time>2026-04-19T08:26:55Z</time></trkpt><trkpt lat="44.88272983842893" lon="8.027648591736806"><ele>246.0</ele><time>2026-04-19T08:26:57Z</time></trkpt><trkpt lat="44.882773965564354" lon="8.027577285558143"><ele>246.0</ele><time>2026-04-19T08:26:59Z</time></trkpt><trkpt lat="44.88277562688192" lon="8.027471260092044"><ele>246.0</ele><time>2026-04-19T08:27:01Z</time></trkpt><trkpt lat="44.88279783962186" lon="8.02735592721359"><ele>246.0</ele><time>2026-04-19T08:27:03Z</time></trkpt><trkpt lat="44.88282771748699" lon="8.027254867520139"><ele>246.0</ele><time>2026-04-19T08:27:05Z</time></trkpt><trkpt lat="44.88282981386089" lon="8.027160199247602"><ele>242.60000000000002</ele><time>2026-04-19T08:27:08Z</time></trkpt><trkpt lat="44.88284714844681" lon="8.027051212293449"><ele>239.20000000000002</ele><time>2026-04-19T08:27:10Z</time></trkpt><trkpt lat="44.88285260321493" lon="8.02692173187705"><ele>235.79999999999998</ele><time>2026-04-19T08:27:12Z</time></trkpt><trkpt lat="44.882852562604604" lon="8.026773030122987"><ele>232.39999999999998</ele><time>2026-04-19T08:27:14Z</time></trkpt><trkpt lat="44.882836114162785" lon="8.026644617169849"><ele>229.0</ele><time>2026-04-19T08:27:16Z</time></trkpt><trkpt lat="44.882803497650606" lon="8.026518315293714"><ele>226.49999999999997</ele><time>2026-04-19T08:27:18Z</time></trkpt><trkpt lat="44.88276213520749" lon="8.026397669441657"><ele>224.0</ele><time>2026-04-19T08:27:20Z</time></trkpt><trkpt lat="44.88271494281714" lon="8.026305419969727"><ele>221.5</ele><time>2026-04-19T08:27:23Z</time></trkpt><trkpt lat="44.882629552019516" lon="8.02627225693367"><ele>219.0</ele><time>2026-04-19T08:27:26Z</time></trkpt><trkpt lat="44.882598807642985" lon="8.026150502791578"><ele>216.49999999999997</ele><time>2026-04-19T08:27:28Z</time></trkpt><trkpt lat="44.88255881179351" lon="8.026052711783276"><ele>214.0</ele><time>2026-04-19T08:27:30Z</time></trkpt><trkpt lat="44.88249995216536" lon="8.025975204166244"><ele>213.99999999999997</ele><time>2026-04-19T08:27:32Z</time></trkpt><trkpt lat="44.88243362669036" lon="8.025932234658757"><ele>214.0</ele><time>2026-04-19T08:27:35Z</time></trkpt><trkpt lat="44.88246696829474" lon="8.025772880823721"><ele>214.0</ele><time>2026-04-19T08:27:37Z</time></trkpt><trkpt lat="44.882491366475534" lon="8.025677321651205"><ele>214.0</ele><time>2026-04-19T08:27:38Z</time></trkpt><trkpt lat="44.88251901125805" lon="8.025572573958852"><ele>213.99999999999997</ele><time>2026-04-19T08:27:40Z</time></trkpt><trkpt lat="44.882578346129385" lon="8.025515724074488"><ele>214.0</ele><time>2026-04-19T08:29:08Z</time></trkpt><trkpt lat="44.88264419757237" lon="8.02544565847438"><ele>213.0</ele><time>2026-04-19T08:29:09Z</time></trkpt><trkpt lat="44.882739006082424" lon="8.025354665312294"><ele>212.0</ele><time>2026-04-19T08:29:10Z</time></trkpt><trkpt lat="44.88286384571245" lon="8.025253789014046"><ele>211.0</ele><time>2026-04-19T08:29:11Z</time></trkpt><trkpt lat="44.8829850758603" lon="8.025169032662943"><ele>210.0</ele><time>2026-04-19T08:29:12Z</time></trkpt><trkpt lat="44.8830777367126" lon="8.02510603101845"><ele>210.0</ele><time>2026-04-19T08:29:13Z</time></trkpt><trkpt lat="44.883167120867924" lon="8.025059894204073"><ele>210.0</ele><time>2026-04-19T08:29:14Z</time></trkpt><trkpt lat="44.88325538862637" lon="8.025023233739343"><ele>210.0</ele><time>2026-04-19T08:29:15Z</time></trkpt><trkpt lat="44.88337230488928" lon="8.025000996569476"><ele>210.0</ele><time>2026-04-19T08:29:16Z</time></trkpt><trkpt lat="44.883496896782155" lon="8.024991022304887"><ele>210.0</ele><time>2026-04-19T08:29:17Z</time></trkpt><trkpt lat="44.88361177708187" lon="8.024983042043903"><ele>210.2</ele><time>2026-04-19T08:29:18Z</time></trkpt><trkpt lat="44.88371893002873" lon="8.024983575224324"><ele>210.4</ele><time>2026-04-19T08:29:19Z</time></trkpt><trkpt lat="44.88381929887871" lon="8.024973631896277"><ele>210.60000000000002</ele><time>2026-04-19T08:29:20Z</time></trkpt><trkpt lat="44.883918434719284" lon="8.024962469124752"><ele>210.8</ele><time>2026-04-19T08:29:21Z</time></trkpt><trkpt lat="44.88401473217865" lon="8.024913995036734"><ele>211.0</ele><time>2026-04-19T08:29:22Z</time></trkpt><trkpt lat="44.88414567496557" lon="8.024799649295764"><ele>209.0</ele><time>2026-04-19T08:29:23Z</time></trkpt><trkpt lat="44.88428371641542" lon="8.024692554272457"><ele>207.0</ele><time>2026-04-19T08:29:24Z</time></trkpt><trkpt lat="44.88439129465088" lon="8.02461551389683"><ele>205.0</ele><time>2026-04-19T08:29:25Z</time></trkpt><trkpt lat="44.88447990062454" lon="8.024548328140721"><ele>203.0</ele><time>2026-04-19T08:29:26Z</time></trkpt><trkpt lat="44.884549594252896" lon="8.024463324344937"><ele>203.0</ele><time>2026-04-19T08:29:27Z</time></trkpt><trkpt lat="44.884628741212225" lon="8.02433976032352"><ele>203.0</ele><time>2026-04-19T08:29:28Z</time></trkpt><trkpt lat="44.88471021427241" lon="8.02418270872464"><ele>203.0</ele><time>2026-04-19T08:29:29Z</time></trkpt><trkpt lat="44.88479059847689" lon="8.024054622047087"><ele>203.0</ele><time>2026-04-19T08:29:30Z</time></trkpt><trkpt lat="44.884875316560546" lon="8.023943617114908"><ele>203.75</ele><time>2026-04-19T08:29:31Z</time></trkpt><trkpt lat="44.88495762368426" lon="8.023824993491937"><ele>204.5</ele><time>2026-04-19T08:29:32Z</time></trkpt><trkpt lat="44.88504163872527" lon="8.0237081615133"><ele>205.25</ele><time>2026-04-19T08:29:33Z</time></trkpt><trkpt lat="44.88512304920801" lon="8.023578600302724"><ele>206.0</ele><time>2026-04-19T08:29:34Z</time></trkpt><trkpt lat="44.8851995164717" lon="8.023424128871884"><ele>204.25</ele><time>2026-04-19T08:29:35Z</time></trkpt><trkpt lat="44.88529399644355" lon="8.02325498903939"><ele>202.5</ele><time>2026-04-19T08:29:36Z</time></trkpt><trkpt lat="44.885374690241065" lon="8.023096357085796"><ele>200.75</ele><time>2026-04-19T08:29:37Z</time></trkpt><trkpt lat="44.88546053116631" lon="8.022977537188636"><ele>199.0</ele><time>2026-04-19T08:29:38Z</time></trkpt><trkpt lat="44.88553647017087" lon="8.022849982564914"><ele>199.0</ele><time>2026-04-19T08:29:39Z</time></trkpt><trkpt lat="44.88560788076114" lon="8.022723592966848"><ele>199.0</ele><time>2026-04-19T08:29:40Z</time></trkpt><trkpt lat="44.88567590429741" lon="8.022565142055312"><ele>199.0</ele><time>2026-04-19T08:29:41Z</time></trkpt><trkpt lat="44.88574581870055" lon="8.022426397789246"><ele>199.0</ele><time>2026-04-19T08:29:42Z</time></trkpt><trkpt lat="44.88580436427382" lon="8.022305729706368"><ele>198.99999999999997</ele><time>2026-04-19T08:29:43Z</time></trkpt><trkpt lat="44.885854134429074" lon="8.02220989577785"><ele>199.0</ele><time>2026-04-19T08:29:44Z</time></trkpt><trkpt lat="44.88588841685014" lon="8.022133216145486"><ele>199.0</ele><time>2026-04-19T08:29:45Z</time></trkpt><trkpt lat="44.885932656748686" lon="8.022052324345355"><ele>199.0</ele><time>2026-04-19T08:29:46Z</time></trkpt><trkpt lat="44.88594536403672" lon="8.021948445456642"><ele>198.99999999999997</ele><time>2026-04-19T08:29:48Z</time></trkpt><trkpt lat="44.885837460305574" lon="8.021932209717317"><ele>199.0</ele><time>2026-04-19T08:29:53Z</time></trkpt><trkpt lat="44.88575983423684" lon="8.021874704112523"><ele>198.75</ele><time>2026-04-19T08:29:54Z</time></trkpt><trkpt lat="44.885661386164315" lon="8.02179416034602"><ele>198.5</ele><time>2026-04-19T08:29:55Z</time></trkpt><trkpt lat="44.88555026517814" lon="8.021709809693403"><ele>198.25</ele><time>2026-04-19T08:29:56Z</time></trkpt><trkpt lat="44.88543690901115" lon="8.021634581956942"><ele>198.0</ele><time>2026-04-19T08:29:57Z</time></trkpt><trkpt lat="44.88533175563727" lon="8.021568248379491"><ele>197.8</ele><time>2026-04-19T08:29:58Z</time></trkpt><trkpt lat="44.88523592088948" lon="8.021499900844406"><ele>197.60000000000002</ele><time>2026-04-19T08:29:59Z</time></trkpt><trkpt lat="44.88513847080572" lon="8.021430421457854"><ele>197.39999999999998</ele><time>2026-04-19T08:30:00Z</time></trkpt><trkpt lat="44.8850426788177" lon="8.021366796432973"><ele>197.2</ele><time>2026-04-19T08:30:01Z</time></trkpt><trkpt lat="44.88495399043668" lon="8.021330200396013"><ele>197.0</ele><time>2026-04-19T08:30:02Z</time></trkpt><trkpt lat="44.88485086990479" lon="8.021325926380788"><ele>200.0</ele><time>2026-04-19T08:30:03Z</time></trkpt><trkpt lat="44.88473532232361" lon="8.021333957854713"><ele>203.0</ele><time>2026-04-19T08:30:04Z</time></trkpt><trkpt lat="44.88462505643345" lon="8.021331355063108"><ele>206.0</ele><time>2026-04-19T08:30:05Z</time></trkpt><trkpt lat="44.88450924051664" lon="8.021313988105193"><ele>209.0</ele><time>2026-04-19T08:30:06Z</time></trkpt><trkpt lat="44.88439636205312" lon="8.021288552801796"><ele>209.0</ele><time>2026-04-19T08:30:07Z</time></trkpt><trkpt lat="44.88429953427889" lon="8.021272522716991"><ele>209.0</ele><time>2026-04-19T08:30:08Z</time></trkpt><trkpt lat="44.8842207142211" lon="8.021275065969808"><ele>209.0</ele><time>2026-04-19T08:30:09Z</time></trkpt><trkpt lat="44.8841349586125" lon="8.021317481429383"><ele>209.0</ele><time>2026-04-19T08:30:10Z</time></trkpt><trkpt lat="44.88402309787477" lon="8.021387372469427"><ele>209.0</ele><time>2026-04-19T08:30:11Z</time></trkpt><trkpt lat="44.88390349864096" lon="8.02146254873468"><ele>209.6</ele><time>2026-04-19T08:30:12Z</time></trkpt><trkpt lat="44.8837956359448" lon="8.021495465763648"><ele>210.2</ele><time>2026-04-19T08:30:13Z</time></trkpt><trkpt lat="44.883711327717094" lon="8.02154962693748"><ele>210.79999999999998</ele><time>2026-04-19T08:30:14Z</time></trkpt><trkpt lat="44.88363898969912" lon="8.021626127442511"><ele>211.39999999999998</ele><time>2026-04-19T08:30:15Z</time></trkpt><trkpt lat="44.88355686078373" lon="8.021691718026736"><ele>212.0</ele><time>2026-04-19T08:30:16Z</time></trkpt><trkpt lat="44.88345356121761" lon="8.021716692850887"><ele>212.25</ele><time>2026-04-19T08:30:17Z</time></trkpt><trkpt lat="44.883334065060815" lon="8.02172640276042"><ele>212.5</ele><time>2026-04-19T08:30:18Z</time></trkpt><trkpt lat="44.88320973519619" lon="8.021774281668563"><ele>212.75</ele><time>2026-04-19T08:30:19Z</time></trkpt><trkpt lat="44.88309783283072" lon="8.021819380957034"><ele>213.0</ele><time>2026-04-19T08:30:20Z</time></trkpt><trkpt lat="44.88297281721017" lon="8.021871608880431"><ele>213.0</ele><time>2026-04-19T08:30:21Z</time></trkpt><trkpt lat="44.88286460040558" lon="8.021916046493091"><ele>213.0</ele><time>2026-04-19T08:30:22Z</time></trkpt><trkpt lat="44.88276701684625" lon="8.021954511851886"><ele>213.0</ele><time>2026-04-19T08:30:23Z</time></trkpt><trkpt lat="44.882672520934015" lon="8.021996558679229"><ele>213.0</ele><time>2026-04-19T08:30:24Z</time></trkpt><trkpt lat="44.88257759496386" lon="8.022012269761479"><ele>213.0</ele><time>2026-04-19T08:30:25Z</time></trkpt><trkpt lat="44.8824969553169" lon="8.022023598127856"><ele>214.0</ele><time>2026-04-19T08:30:26Z</time></trkpt><trkpt lat="44.88239614793324" lon="8.022021815008362"><ele>215.0</ele><time>2026-04-19T08:30:27Z</time></trkpt><trkpt lat="44.88231230572842" lon="8.022002215771474"><ele>216.0</ele><time>2026-04-19T08:30:28Z</time></trkpt><trkpt lat="44.88225496399944" lon="8.021957701236396"><ele>217.0</ele><time>2026-04-19T08:30:29Z</time></trkpt><trkpt lat="44.88216899709489" lon="8.021883300078194"><ele>218.0</ele><time>2026-04-19T08:30:30Z</time></trkpt><trkpt lat="44.882073560336245" lon="8.021819568789313"><ele>218.0</ele><time>2026-04-19T08:30:31Z</time></trkpt><trkpt lat="44.881979881573066" lon="8.021767474290812"><ele>218.0</ele><time>2026-04-19T08:30:32Z</time></trkpt><trkpt lat="44.88190260580933" lon="8.021738977797712"><ele>218.0</ele><time>2026-04-19T08:30:33Z</time></trkpt><trkpt lat="44.881806284800604" lon="8.02175457881504"><ele>218.0</ele><time>2026-04-19T08:30:34Z</time></trkpt><trkpt lat="44.8817280746549" lon="8.021732917159273"><ele>218.0</ele><time>2026-04-19T08:30:35Z</time></trkpt><trkpt lat="44.88167538082776" lon="8.021576699160876"><ele>221.33333333333334</ele><time>2026-04-19T08:30:37Z</time></trkpt><trkpt lat="44.88166407182931" lon="8.021468516825992"><ele>224.66666666666669</ele><time>2026-04-19T08:30:38Z</time></trkpt><trkpt lat="44.881618139301025" lon="8.021403315469696"><ele>228.0</ele><time>2026-04-19T08:30:40Z</time></trkpt><trkpt lat="44.88155056394322" lon="8.021344884633894"><ele>231.33333333333331</ele><time>2026-04-19T08:30:42Z</time></trkpt><trkpt lat="44.881461748852495" lon="8.021255530390816"><ele>234.66666666666666</ele><time>2026-04-19T08:30:44Z</time></trkpt><trkpt lat="44.88136016761609" lon="8.021259562220036"><ele>238.0</ele><time>2026-04-19T08:30:46Z</time></trkpt><trkpt lat="44.88129088926863" lon="8.0212382661444"><ele>238.0</ele><time>2026-04-19T08:30:47Z</time></trkpt><trkpt lat="44.88113831685755" lon="8.021196660100973"><ele>238.0</ele><time>2026-04-19T08:30:49Z</time></trkpt><trkpt lat="44.88101527960742" lon="8.021235761705922"><ele>238.0</ele><time>2026-04-19T08:30:52Z</time></trkpt><trkpt lat="44.88094049316941" lon="8.021251099254098"><ele>238.0</ele><time>2026-04-19T08:30:53Z</time></trkpt><trkpt lat="44.880867350380825" lon="8.02126615169441"><ele>238.0</ele><time>2026-04-19T08:30:54Z</time></trkpt><trkpt lat="44.88078885921755" lon="8.021290668043827"><ele>240.16666666666666</ele><time>2026-04-19T08:30:55Z</time></trkpt><trkpt lat="44.88070935344815" lon="8.021307408378316"><ele>242.33333333333331</ele><time>2026-04-19T08:30:56Z</time></trkpt><trkpt lat="44.88064580453157" lon="8.021335368069332"><ele>244.5</ele><time>2026-04-19T08:30:57Z</time></trkpt><trkpt lat="44.88057125171777" lon="8.021365747007286"><ele>246.66666666666669</ele><time>2026-04-19T08:30:58Z</time></trkpt><trkpt lat="44.88045618367145" lon="8.021390496217693"><ele>248.83333333333334</ele><time>2026-04-19T08:31:00Z</time></trkpt><trkpt lat="44.88039262492286" lon="8.021380170883756"><ele>251.0</ele><time>2026-04-19T08:31:01Z</time></trkpt><trkpt lat="44.88029382779087" lon="8.02136288830752"><ele>251.00000000000003</ele><time>2026-04-19T08:31:02Z</time></trkpt><trkpt lat="44.880171828196126" lon="8.02131959115451"><ele>251.0</ele><time>2026-04-19T08:31:04Z</time></trkpt><trkpt lat="44.880094016060866" lon="8.021326879907646"><ele>251.0</ele><time>2026-04-19T08:31:05Z</time></trkpt><trkpt lat="44.880010624493934" lon="8.021330400603684"><ele>251.0</ele><time>2026-04-19T08:31:06Z</time></trkpt><trkpt lat="44.87994244895842" lon="8.021370540428721"><ele>251.00000000000003</ele><time>2026-04-19T08:31:07Z</time></trkpt><trkpt lat="44.87987683151401" lon="8.02135771519516"><ele>251.0</ele><time>2026-04-19T08:31:08Z</time></trkpt><trkpt lat="44.87982752133367" lon="8.021263744041583"><ele>251.8</ele><time>2026-04-19T08:31:10Z</time></trkpt><trkpt lat="44.879880009825875" lon="8.021130417987331"><ele>252.60000000000002</ele><time>2026-04-19T08:31:12Z</time></trkpt><trkpt lat="44.87992217407279" lon="8.020999626858062"><ele>253.4</ele><time>2026-04-19T08:31:14Z</time></trkpt><trkpt lat="44.87992259625496" lon="8.020907404744095"><ele>254.2</ele><time>2026-04-19T08:31:16Z</time></trkpt><trkpt lat="44.87991616148922" lon="8.02080025874672"><ele>255.0</ele><time>2026-04-19T08:31:19Z</time></trkpt><trkpt lat="44.87999593505001" lon="8.020713919756341"><ele>255.0</ele><time>2026-04-19T08:31:21Z</time></trkpt><trkpt lat="44.880078098504725" lon="8.02062773315724"><ele>255.0</ele><time>2026-04-19T08:31:23Z</time></trkpt><trkpt lat="44.88013372608419" lon="8.020537212255395"><ele>255.0</ele><time>2026-04-19T08:31:25Z</time></trkpt><trkpt lat="44.88012901882434" lon="8.02043826847687"><ele>255.0</ele><time>2026-04-19T08:32:00Z</time></trkpt><trkpt lat="44.88008427246276" lon="8.020351126307602"><ele>255.0</ele><time>2026-04-19T08:32:03Z</time></trkpt><trkpt lat="44.88000893196094" lon="8.020230066542048"><ele>255.0</ele><time>2026-04-19T08:32:05Z</time></trkpt><trkpt lat="44.87995314944614" lon="8.020168774516973"><ele>255.0</ele><time>2026-04-19T08:32:06Z</time></trkpt><trkpt lat="44.879867167541214" lon="8.020100093949777"><ele>255.0</ele><time>2026-04-19T08:32:07Z</time></trkpt><trkpt lat="44.87976613203259" lon="8.020035875460259"><ele>255.0</ele><time>2026-04-19T08:32:08Z</time></trkpt><trkpt lat="44.87966556127727" lon="8.019967306605198"><ele>255.0</ele><time>2026-04-19T08:32:09Z</time></trkpt><trkpt lat="44.879578197562054" lon="8.019890024940883"><ele>255.0</ele><time>2026-04-19T08:32:10Z</time></trkpt><trkpt lat="44.87950791063103" lon="8.019791396052348"><ele>252.66666666666666</ele><time>2026-04-19T08:32:11Z</time></trkpt><trkpt lat="44.879453282623544" lon="8.019682594702706"><ele>250.33333333333331</ele><time>2026-04-19T08:32:12Z</time></trkpt><trkpt lat="44.879427825650154" lon="8.01957483511323"><ele>248.0</ele><time>2026-04-19T08:32:13Z</time></trkpt><trkpt lat="44.879435060451804" lon="8.019484068059025"><ele>245.66666666666666</ele><time>2026-04-19T08:32:14Z</time></trkpt><trkpt lat="44.879441679327805" lon="8.019380168599367"><ele>243.33333333333331</ele><time>2026-04-19T08:32:16Z</time></trkpt><trkpt lat="44.879375151255026" lon="8.01933121357273"><ele>241.0</ele><time>2026-04-19T08:32:18Z</time></trkpt><trkpt lat="44.87928388127597" lon="8.019230839190344"><ele>239.60000000000002</ele><time>2026-04-19T08:32:20Z</time></trkpt><trkpt lat="44.87920580803495" lon="8.019146002706746"><ele>238.20000000000002</ele><time>2026-04-19T08:32:22Z</time></trkpt><trkpt lat="44.879114660445396" lon="8.01915737471932"><ele>236.79999999999998</ele><time>2026-04-19T08:32:24Z</time></trkpt><trkpt lat="44.879017055508605" lon="8.019184034872875"><ele>235.39999999999998</ele><time>2026-04-19T08:32:26Z</time></trkpt><trkpt lat="44.87892293176418" lon="8.01911153626756"><ele>234.0</ele><time>2026-04-19T08:32:28Z</time></trkpt><trkpt lat="44.87886980698638" lon="8.019056175851764"><ele>234.0</ele><time>2026-04-19T08:32:29Z</time></trkpt><trkpt lat="44.87876639758558" lon="8.019009423370015"><ele>233.99999999999997</ele><time>2026-04-19T08:32:31Z</time></trkpt><trkpt lat="44.878665102731276" lon="8.019062949332731"><ele>233.99999999999997</ele><time>2026-04-19T08:32:33Z</time></trkpt><trkpt lat="44.87859459552349" lon="8.01910103245058"><ele>234.0</ele><time>2026-04-19T08:32:34Z</time></trkpt><trkpt lat="44.87851969190582" lon="8.019090311096903"><ele>234.0</ele><time>2026-04-19T08:32:35Z</time></trkpt><trkpt lat="44.87843641047137" lon="8.019071399495864"><ele>233.79999999999998</ele><time>2026-04-19T08:32:36Z</time></trkpt><trkpt lat="44.8783521260447" lon="8.019053538696584"><ele>233.59999999999997</ele><time>2026-04-19T08:32:37Z</time></trkpt><trkpt lat="44.87828663657015" lon="8.019176547281463"><ele>233.4</ele><time>2026-04-19T08:32:39Z</time></trkpt><trkpt lat="44.87823492089684" lon="8.01929570489036"><ele>233.2</ele><time>2026-04-19T08:32:41Z</time></trkpt><trkpt lat="44.87825675983515" lon="8.019486883594618"><ele>233.0</ele><time>2026-04-19T08:32:43Z</time></trkpt><trkpt lat="44.878292747566896" lon="8.019658193298806"><ele>236.4</ele><time>2026-04-19T08:32:44Z</time></trkpt><trkpt lat="44.878313025598096" lon="8.019841173082915"><ele>239.8</ele><time>2026-04-19T08:32:45Z</time></trkpt><trkpt lat="44.87834361511484" lon="8.019955900135399"><ele>243.2</ele><time>2026-04-19T08:32:46Z</time></trkpt><trkpt lat="44.878377774883575" lon="8.020038070832468"><ele>246.6</ele><time>2026-04-19T08:32:47Z</time></trkpt><trkpt lat="44.878404956003564" lon="8.020201905589259"><ele>250.0</ele><time>2026-04-19T08:32:49Z</time></trkpt><trkpt lat="44.87842145717268" lon="8.020290566160698"><ele>252.16666666666666</ele><time>2026-04-19T08:32:50Z</time></trkpt><trkpt lat="44.87843602126591" lon="8.020378549926177"><ele>254.33333333333331</ele><time>2026-04-19T08:32:51Z</time></trkpt><trkpt lat="44.87846508453923" lon="8.020472396412488"><ele>256.5</ele><time>2026-04-19T08:32:52Z</time></trkpt><trkpt lat="44.878502538508464" lon="8.02058404095024"><ele>258.6666666666667</ele><time>2026-04-19T08:32:53Z</time></trkpt><trkpt lat="44.878527424941225" lon="8.020758328270677"><ele>260.83333333333337</ele><time>2026-04-19T08:32:55Z</time></trkpt><trkpt lat="44.878525987153495" lon="8.020877119851193"><ele>263.0</ele><time>2026-04-19T08:32:56Z</time></trkpt><trkpt lat="44.87852380248971" lon="8.020985737975176"><ele>261.8</ele><time>2026-04-19T08:32:57Z</time></trkpt><trkpt lat="44.878489701822176" lon="8.021136540751122"><ele>260.6</ele><time>2026-04-19T08:32:59Z</time></trkpt><trkpt lat="44.87845432085228" lon="8.021212537344203"><ele>259.4</ele><time>2026-04-19T08:33:00Z</time></trkpt><trkpt lat="44.87841049726178" lon="8.021282832041415"><ele>258.2</ele><time>2026-04-19T08:33:01Z</time></trkpt><trkpt lat="44.878348640297766" lon="8.02135117892415"><ele>257.0</ele><time>2026-04-19T08:33:02Z</time></trkpt><trkpt lat="44.8782501015794" lon="8.021472223266537"><ele>257.0</ele><time>2026-04-19T08:33:04Z</time></trkpt><trkpt lat="44.878204289018626" lon="8.021536360103882"><ele>257.0</ele><time>2026-04-19T08:33:05Z</time></trkpt><trkpt lat="44.87821438601052" lon="8.02166804217136"><ele>257.0</ele><time>2026-04-19T08:33:07Z</time></trkpt><trkpt lat="44.87825917210433" lon="8.021752076802802"><ele>257.0</ele><time>2026-04-19T08:33:08Z</time></trkpt><trkpt lat="44.87831531725441" lon="8.021819005094285"><ele>257.0</ele><time>2026-04-19T08:33:09Z</time></trkpt><trkpt lat="44.878366815760685" lon="8.021876957734804"><ele>257.0</ele><time>2026-04-19T08:33:10Z</time></trkpt><trkpt lat="44.87839977962127" lon="8.022005758522168"><ele>258.6</ele><time>2026-04-19T08:33:12Z</time></trkpt><trkpt lat="44.878386745054165" lon="8.02209635396476"><ele>260.2</ele><time>2026-04-19T08:33:13Z</time></trkpt><trkpt lat="44.878367565642385" lon="8.022193307270143"><ele>261.8</ele><time>2026-04-19T08:33:14Z</time></trkpt><trkpt lat="44.87837981421588" lon="8.022325588117113"><ele>263.4</ele><time>2026-04-19T08:33:16Z</time></trkpt><trkpt lat="44.87836833894738" lon="8.022489892517918"><ele>265.0</ele><time>2026-04-19T08:33:18Z</time></trkpt><trkpt lat="44.878284515581505" lon="8.022578391065922"><ele>265.0</ele><time>2026-04-19T08:33:19.999Z</time></trkpt><trkpt lat="44.87826715916328" lon="8.022675461263859"><ele>265.0</ele><time>2026-04-19T08:33:21.999Z</time></trkpt><trkpt lat="44.878248234494485" lon="8.02278171114551"><ele>265.0</ele><time>2026-04-19T08:33:22.999Z</time></trkpt><trkpt lat="44.878232763430745" lon="8.022881708377279"><ele>265.0</ele><time>2026-04-19T08:33:23.999Z</time></trkpt><trkpt lat="44.878220018363756" lon="8.02300242444602"><ele>265.0</ele><time>2026-04-19T08:33:25.999Z</time></trkpt><trkpt lat="44.878252387525066" lon="8.023103452598107"><ele>265.0</ele><time>2026-04-19T08:33:27.999Z</time></trkpt><trkpt lat="44.87824627940737" lon="8.023248919077647"><ele>265.2</ele><time>2026-04-19T08:33:30.999Z</time></trkpt><trkpt lat="44.87819824310246" lon="8.023371582719221"><ele>265.4</ele><time>2026-04-19T08:33:31.999Z</time></trkpt><trkpt lat="44.87813725550842" lon="8.023539111689356"><ele>265.6</ele><time>2026-04-19T08:33:32.999Z</time></trkpt><trkpt lat="44.87808672654669" lon="8.023659953941639"><ele>265.8</ele><time>2026-04-19T08:33:34Z</time></trkpt><trkpt lat="44.87803823329063" lon="8.023722215258518"><ele>266.0</ele><time>2026-04-19T08:33:35Z</time></trkpt><trkpt lat="44.87796106645004" lon="8.023765743604857"><ele>266.0</ele><time>2026-04-19T08:33:36Z</time></trkpt><trkpt lat="44.87787120631518" lon="8.023836408422909"><ele>266.0</ele><time>2026-04-19T08:33:37Z</time></trkpt><trkpt lat="44.877782221615156" lon="8.02388517663777"><ele>266.0</ele><time>2026-04-19T08:33:38Z</time></trkpt><trkpt lat="44.87770457310275" lon="8.023940142367497"><ele>266.0</ele><time>2026-04-19T08:33:39Z</time></trkpt><trkpt lat="44.8776280036884" lon="8.02399587572072"><ele>266.0</ele><time>2026-04-19T08:33:40Z</time></trkpt><trkpt lat="44.87755673402826" lon="8.024058194853826"><ele>264.2</ele><time>2026-04-19T08:33:41Z</time></trkpt><trkpt lat="44.877504013088995" lon="8.02412820938721"><ele>262.40000000000003</ele><time>2026-04-19T08:33:42Z</time></trkpt><trkpt lat="44.877445229496615" lon="8.024193715699647"><ele>260.6</ele><time>2026-04-19T08:33:43Z</time></trkpt><trkpt lat="44.877383757752376" lon="8.02429611253271"><ele>258.8</ele><time>2026-04-19T08:33:44Z</time></trkpt><trkpt lat="44.87731307557986" lon="8.024457164488911"><ele>257.0</ele><time>2026-04-19T08:33:45Z</time></trkpt><trkpt lat="44.87726057487562" lon="8.02457903566173"><ele>260.8</ele><time>2026-04-19T08:33:46Z</time></trkpt><trkpt lat="44.87723740113939" lon="8.024707055834412"><ele>264.6</ele><time>2026-04-19T08:33:47Z</time></trkpt><trkpt lat="44.87722174501078" lon="8.02481818682753"><ele>268.40000000000003</ele><time>2026-04-19T08:33:48Z</time></trkpt><trkpt lat="44.87717864716827" lon="8.024928740428377"><ele>272.2</ele><time>2026-04-19T08:33:49Z</time></trkpt><trkpt lat="44.87715396030721" lon="8.02505865552561"><ele>276.0</ele><time>2026-04-19T08:33:50Z</time></trkpt><trkpt lat="44.877111443023104" lon="8.025184873788534"><ele>277.5</ele><time>2026-04-19T08:33:51Z</time></trkpt><trkpt lat="44.87706608056936" lon="8.02529059944221"><ele>279.0</ele><time>2026-04-19T08:33:52Z</time></trkpt><trkpt lat="44.87702599200762" lon="8.02539250987403"><ele>280.5</ele><time>2026-04-19T08:33:53Z</time></trkpt><trkpt lat="44.87697722984728" lon="8.025480796624867"><ele>282.0</ele><time>2026-04-19T08:33:54Z</time></trkpt><trkpt lat="44.87692218596384" lon="8.02555995481196"><ele>283.5</ele><time>2026-04-19T08:33:55Z</time></trkpt><trkpt lat="44.87686026661988" lon="8.025626219461468"><ele>285.0</ele><time>2026-04-19T08:33:56Z</time></trkpt><trkpt lat="44.876805581491496" lon="8.025701354585799"><ele>283.6666666666667</ele><time>2026-04-19T08:33:57Z</time></trkpt><trkpt lat="44.876753988538184" lon="8.025779933840655"><ele>282.3333333333333</ele><time>2026-04-19T08:33:58Z</time></trkpt><trkpt lat="44.87670609261323" lon="8.025855079534994"><ele>281.0</ele><time>2026-04-19T08:33:59Z</time></trkpt><trkpt lat="44.876656364479764" lon="8.025935827496404"><ele>279.66666666666663</ele><time>2026-04-19T08:34:00Z</time></trkpt><trkpt lat="44.87662047363212" lon="8.026054615088327"><ele>278.3333333333333</ele><time>2026-04-19T08:34:01Z</time></trkpt><trkpt lat="44.87657660609344" lon="8.026189361837796"><ele>277.0</ele><time>2026-04-19T08:34:02Z</time></trkpt><trkpt lat="44.87653070153933" lon="8.026280567420352"><ele>277.0</ele><time>2026-04-19T08:34:03Z</time></trkpt><trkpt lat="44.87648830969773" lon="8.026377124687446"><ele>277.0</ele><time>2026-04-19T08:34:04Z</time></trkpt><trkpt lat="44.87644860627098" lon="8.026468933522972"><ele>277.0</ele><time>2026-04-19T08:34:05Z</time></trkpt><trkpt lat="44.87640335136065" lon="8.026562668869154"><ele>277.0</ele><time>2026-04-19T08:34:06Z</time></trkpt><trkpt lat="44.87636209903252" lon="8.026646769615656"><ele>277.0</ele><time>2026-04-19T08:34:07Z</time></trkpt><trkpt lat="44.87633439300312" lon="8.026733396230895"><ele>277.0</ele><time>2026-04-19T08:34:08Z</time></trkpt><trkpt lat="44.87631912831486" lon="8.02689918861106"><ele>276.0</ele><time>2026-04-19T08:34:10Z</time></trkpt><trkpt lat="44.8763158768258" lon="8.026999131942164"><ele>275.0</ele><time>2026-04-19T08:34:11Z</time></trkpt><trkpt lat="44.87631304265813" lon="8.027102384526886"><ele>274.0</ele><time>2026-04-19T08:34:12Z</time></trkpt><trkpt lat="44.876325121940276" lon="8.027205816577741"><ele>273.0</ele><time>2026-04-19T08:34:13Z</time></trkpt><trkpt lat="44.87633919677623" lon="8.027304038093506"><ele>272.0</ele><time>2026-04-19T08:34:14Z</time></trkpt><trkpt lat="44.87634149720817" lon="8.027405497910493"><ele>271.0</ele><time>2026-04-19T08:34:15Z</time></trkpt><trkpt lat="44.87633605566772" lon="8.027510812683817"><ele>270.0</ele><time>2026-04-19T08:34:16Z</time></trkpt><trkpt lat="44.87633900622468" lon="8.027608504841963"><ele>268.5</ele><time>2026-04-19T08:34:17Z</time></trkpt><trkpt lat="44.876332740529875" lon="8.02772294698716"><ele>267.0</ele><time>2026-04-19T08:34:18Z</time></trkpt><trkpt lat="44.87631712389895" lon="8.027834749198828"><ele>265.5</ele><time>2026-04-19T08:34:19Z</time></trkpt><trkpt lat="44.87629483712305" lon="8.027933641794974"><ele>264.0</ele><time>2026-04-19T08:34:20Z</time></trkpt><trkpt lat="44.876256606827035" lon="8.028009464510328"><ele>262.5</ele><time>2026-04-19T08:34:21Z</time></trkpt><trkpt lat="44.876206225390156" lon="8.028151819460481"><ele>261.0</ele><time>2026-04-19T08:34:23Z</time></trkpt><trkpt lat="44.876195928570716" lon="8.02824190147545"><ele>261.0</ele><time>2026-04-19T08:34:24Z</time></trkpt><trkpt lat="44.87623481536031" lon="8.028425030060568"><ele>261.0</ele><time>2026-04-19T08:34:26Z</time></trkpt><trkpt lat="44.87627618964211" lon="8.028523463121148"><ele>261.0</ele><time>2026-04-19T08:34:27Z</time></trkpt><trkpt lat="44.87619530673178" lon="8.0285289672359"><ele>261.0</ele><time>2026-04-19T08:34:30Z</time></trkpt><trkpt lat="44.876162475682435" lon="8.028401965556982"><ele>261.0</ele><time>2026-04-19T08:34:33Z</time></trkpt><trkpt lat="44.87611708100057" lon="8.028289845993202"><ele>261.0</ele><time>2026-04-19T08:34:36Z</time></trkpt><trkpt lat="44.87606296133015" lon="8.028207230245991"><ele>261.0</ele><time>2026-04-19T08:34:38Z</time></trkpt><trkpt lat="44.87600147234284" lon="8.028155950169047"><ele>261.0</ele><time>2026-04-19T08:34:40Z</time></trkpt><trkpt lat="44.87594616036701" lon="8.02828509207942"><ele>261.0</ele><time>2026-04-19T08:34:42Z</time></trkpt><trkpt lat="44.87587616178249" lon="8.028324481611287"><ele>261.0</ele><time>2026-04-19T08:34:45Z</time></trkpt><trkpt lat="44.875802237360205" lon="8.028311255707873"><ele>261.0</ele><time>2026-04-19T08:34:47Z</time></trkpt><trkpt lat="44.87571609936459" lon="8.028315991931748"><ele>260.0</ele><time>2026-04-19T08:34:49Z</time></trkpt><trkpt lat="44.875657487945745" lon="8.028243295823575"><ele>259.0</ele><time>2026-04-19T08:34:51Z</time></trkpt><trkpt lat="44.87564891884734" lon="8.028081767053436"><ele>258.0</ele><time>2026-04-19T08:34:53Z</time></trkpt><trkpt lat="44.875606265617655" lon="8.028014473272602"><ele>257.0</ele><time>2026-04-19T08:34:54Z</time></trkpt><trkpt lat="44.87557801039343" lon="8.027915458470282"><ele>256.0</ele><time>2026-04-19T08:34:55Z</time></trkpt><trkpt lat="44.87548672635912" lon="8.027811194845036"><ele>256.0</ele><time>2026-04-19T08:34:57Z</time></trkpt><trkpt lat="44.875416773111766" lon="8.027753701886631"><ele>256.0</ele><time>2026-04-19T08:34:59Z</time></trkpt><trkpt lat="44.87539900327613" lon="8.027601586156397"><ele>256.0</ele><time>2026-04-19T08:35:01Z</time></trkpt><trkpt lat="44.87538188154365" lon="8.027484326772088"><ele>256.0</ele><time>2026-04-19T08:35:03Z</time></trkpt><trkpt lat="44.87530240023754" lon="8.027375733747215"><ele>256.0</ele><time>2026-04-19T08:35:05Z</time></trkpt><trkpt lat="44.875221768353086" lon="8.027098242566845"><ele>255.83333333333331</ele><time>2026-04-19T08:35:10Z</time></trkpt><trkpt lat="44.87518686641353" lon="8.026991621122788"><ele>255.66666666666666</ele><time>2026-04-19T08:35:12Z</time></trkpt><trkpt lat="44.8751795039454" lon="8.026891263288752"><ele>255.5</ele><time>2026-04-19T08:35:14Z</time></trkpt><trkpt lat="44.875211265719926" lon="8.026809497619459"><ele>255.33333333333331</ele><time>2026-04-19T08:35:17Z</time></trkpt><trkpt lat="44.875230574177834" lon="8.026687024492817"><ele>255.16666666666666</ele><time>2026-04-19T08:35:20Z</time></trkpt><trkpt lat="44.8752916236977" lon="8.026586392625216"><ele>255.0</ele><time>2026-04-19T08:35:22Z</time></trkpt><trkpt lat="44.875344606978274" lon="8.026474916115367"><ele>254.6</ele><time>2026-04-19T08:35:24Z</time></trkpt><trkpt lat="44.87533702362875" lon="8.026385587206384"><ele>254.2</ele><time>2026-04-19T08:35:25.999Z</time></trkpt><trkpt lat="44.87527043584739" lon="8.026218322570514"><ele>253.8</ele><time>2026-04-19T08:35:27.999Z</time></trkpt><trkpt lat="44.875220348249826" lon="8.026122557245213"><ele>253.4</ele><time>2026-04-19T08:35:29.999Z</time></trkpt><trkpt lat="44.87512892302003" lon="8.026219503487287"><ele>253.0</ele><time>2026-04-19T08:35:31.999Z</time></trkpt><trkpt lat="44.87504660387911" lon="8.026222334710553"><ele>248.4</ele><time>2026-04-19T08:35:33.999Z</time></trkpt><trkpt lat="44.87501006889777" lon="8.026114857045016"><ele>243.8</ele><time>2026-04-19T08:35:34.999Z</time></trkpt><trkpt lat="44.87496383660192" lon="8.025942123444453"><ele>239.2</ele><time>2026-04-19T08:35:35.999Z</time></trkpt><trkpt lat="44.87491398631857" lon="8.025777049757247"><ele>234.6</ele><time>2026-04-19T08:35:36.999Z</time></trkpt><trkpt lat="44.874858736506376" lon="8.02565182426111"><ele>230.0</ele><time>2026-04-19T08:35:37.999Z</time></trkpt><trkpt lat="44.87481312844473" lon="8.0255410828247"><ele>228.66666666666669</ele><time>2026-04-19T08:35:38.999Z</time></trkpt><trkpt lat="44.87475558984126" lon="8.025462841428336"><ele>227.33333333333334</ele><time>2026-04-19T08:35:40Z</time></trkpt><trkpt lat="44.874715862564635" lon="8.02537130361259"><ele>226.0</ele><time>2026-04-19T08:35:41Z</time></trkpt><trkpt lat="44.87469074050878" lon="8.025262812557367"><ele>224.66666666666669</ele><time>2026-04-19T08:35:42Z</time></trkpt><trkpt lat="44.874685440979576" lon="8.025140758892165"><ele>223.33333333333334</ele><time>2026-04-19T08:35:43Z</time></trkpt><trkpt lat="44.87468854011487" lon="8.025009644182802"><ele>222.0</ele><time>2026-04-19T08:35:44Z</time></trkpt><trkpt lat="44.87469661531133" lon="8.024865844399823"><ele>221.16666666666666</ele><time>2026-04-19T08:35:45Z</time></trkpt><trkpt lat="44.874698865507895" lon="8.024726035203672"><ele>220.33333333333331</ele><time>2026-04-19T08:35:46Z</time></trkpt><trkpt lat="44.874703341445965" lon="8.024609628325003"><ele>219.5</ele><time>2026-04-19T08:35:47Z</time></trkpt><trkpt lat="44.87469628201937" lon="8.024495722721529"><ele>218.66666666666666</ele><time>2026-04-19T08:35:48Z</time></trkpt><trkpt lat="44.87466834058835" lon="8.024378975437191"><ele>217.83333333333331</ele><time>2026-04-19T08:35:49Z</time></trkpt><trkpt lat="44.874630971249154" lon="8.024262136588945"><ele>217.0</ele><time>2026-04-19T08:35:50Z</time></trkpt><trkpt lat="44.87461658776579" lon="8.024153454006475"><ele>217.16666666666666</ele><time>2026-04-19T08:35:51Z</time></trkpt><trkpt lat="44.87462234086586" lon="8.024059300552203"><ele>217.33333333333331</ele><time>2026-04-19T08:35:52Z</time></trkpt><trkpt lat="44.87464966734193" lon="8.02397477982844"><ele>217.5</ele><time>2026-04-19T08:35:53Z</time></trkpt><trkpt lat="44.87468451145911" lon="8.023898017849323"><ele>217.66666666666669</ele><time>2026-04-19T08:35:54Z</time></trkpt><trkpt lat="44.87472210049424" lon="8.023805068263563"><ele>217.83333333333334</ele><time>2026-04-19T08:35:55Z</time></trkpt><trkpt lat="44.874764409394885" lon="8.023699968057874"><ele>218.0</ele><time>2026-04-19T08:35:56Z</time></trkpt><trkpt lat="44.874815183114954" lon="8.02358392679677"><ele>218.0</ele><time>2026-04-19T08:35:57Z</time></trkpt><trkpt lat="44.87486090638451" lon="8.023457522205156"><ele>218.0</ele><time>2026-04-19T08:35:58Z</time></trkpt><trkpt lat="44.874909296568596" lon="8.023306096121683"><ele>218.0</ele><time>2026-04-19T08:35:59Z</time></trkpt><trkpt lat="44.87497765971089" lon="8.023126416599512"><ele>218.0</ele><time>2026-04-19T08:36:00Z</time></trkpt><trkpt lat="44.875050741478354" lon="8.022937783259898"><ele>217.60000000000002</ele><time>2026-04-19T08:36:01Z</time></trkpt><trkpt lat="44.87510952718305" lon="8.022769186806206"><ele>217.20000000000002</ele><time>2026-04-19T08:36:02Z</time></trkpt><trkpt lat="44.87515561126149" lon="8.0226313304746"><ele>216.8</ele><time>2026-04-19T08:36:03Z</time></trkpt><trkpt lat="44.875198481574934" lon="8.022507659471009"><ele>216.4</ele><time>2026-04-19T08:36:04Z</time></trkpt><trkpt lat="44.87524255550146" lon="8.022391211901368"><ele>216.0</ele><time>2026-04-19T08:36:05Z</time></trkpt><trkpt lat="44.87529669885524" lon="8.02229929731275"><ele>215.20000000000002</ele><time>2026-04-19T08:36:06Z</time></trkpt><trkpt lat="44.87536566898096" lon="8.022199405603411"><ele>214.40000000000003</ele><time>2026-04-19T08:36:07Z</time></trkpt><trkpt lat="44.875421406283415" lon="8.022104647424996"><ele>213.6</ele><time>2026-04-19T08:36:08Z</time></trkpt><trkpt lat="44.87545797033603" lon="8.022015319912825"><ele>212.8</ele><time>2026-04-19T08:36:09Z</time></trkpt><trkpt lat="44.875485488369286" lon="8.021889025629715"><ele>212.0</ele><time>2026-04-19T08:36:10Z</time></trkpt><trkpt lat="44.8755209568018" lon="8.021723029723281"><ele>211.6</ele><time>2026-04-19T08:36:11Z</time></trkpt><trkpt lat="44.87554477558098" lon="8.0215761092376"><ele>211.2</ele><time>2026-04-19T08:36:12Z</time></trkpt><trkpt lat="44.875559777603534" lon="8.021444512881644"><ele>210.8</ele><time>2026-04-19T08:36:13Z</time></trkpt><trkpt lat="44.87559448102745" lon="8.021327611992907"><ele>210.4</ele><time>2026-04-19T08:36:14Z</time></trkpt><trkpt lat="44.875644300070135" lon="8.02120978205832"><ele>210.0</ele><time>2026-04-19T08:36:15Z</time></trkpt><trkpt lat="44.8756804744821" lon="8.021093163034582"><ele>210.0</ele><time>2026-04-19T08:36:16Z</time></trkpt><trkpt lat="44.87568101349701" lon="8.020945932438881"><ele>210.0</ele><time>2026-04-19T08:36:17Z</time></trkpt><trkpt lat="44.87566245265999" lon="8.020773626265234"><ele>210.0</ele><time>2026-04-19T08:36:18Z</time></trkpt><trkpt lat="44.87563573373344" lon="8.020591290399869"><ele>210.0</ele><time>2026-04-19T08:36:19Z</time></trkpt><trkpt lat="44.87561629544868" lon="8.02042717005655"><ele>209.2</ele><time>2026-04-19T08:36:20Z</time></trkpt><trkpt lat="44.87559844780737" lon="8.02029532569902"><ele>208.4</ele><time>2026-04-19T08:36:21Z</time></trkpt><trkpt lat="44.87556925945554" lon="8.020196457478415"><ele>207.60000000000002</ele><time>2026-04-19T08:36:22Z</time></trkpt><trkpt lat="44.875509250587186" lon="8.020114951017833"><ele>206.8</ele><time>2026-04-19T08:36:24Z</time></trkpt><trkpt lat="44.875441858110904" lon="8.020031158090312"><ele>206.0</ele><time>2026-04-19T08:36:26Z</time></trkpt><trkpt lat="44.87554145654762" lon="8.019935918443087"><ele>206.0</ele><time>2026-04-19T08:36:29Z</time></trkpt><trkpt lat="44.87561464922979" lon="8.01987445024957"><ele>206.0</ele><time>2026-04-19T08:36:30Z</time></trkpt><trkpt lat="44.87570489146279" lon="8.019798982574578"><ele>206.0</ele><time>2026-04-19T08:36:31Z</time></trkpt><trkpt lat="44.875781884317696" lon="8.019712932596917"><ele>206.0</ele><time>2026-04-19T08:36:32Z</time></trkpt><trkpt lat="44.87585566512177" lon="8.01961789498672"><ele>206.0</ele><time>2026-04-19T08:36:33Z</time></trkpt><trkpt lat="44.87591880001947" lon="8.019511095659793"><ele>207.0</ele><time>2026-04-19T08:36:34Z</time></trkpt><trkpt lat="44.875976385233756" lon="8.019389638303938"><ele>208.0</ele><time>2026-04-19T08:36:35Z</time></trkpt><trkpt lat="44.87603094572551" lon="8.019253898525735"><ele>209.0</ele><time>2026-04-19T08:36:36Z</time></trkpt><trkpt lat="44.876086238810274" lon="8.019106899809977"><ele>210.0</ele><time>2026-04-19T08:36:37Z</time></trkpt><trkpt lat="44.87613939607288" lon="8.018946529433949"><ele>210.0</ele><time>2026-04-19T08:36:38Z</time></trkpt><trkpt lat="44.876193475793556" lon="8.01879412553613"><ele>210.0</ele><time>2026-04-19T08:36:39Z</time></trkpt><trkpt lat="44.87623896194783" lon="8.018658267243552"><ele>210.0</ele><time>2026-04-19T08:36:40Z</time></trkpt><trkpt lat="44.876276498299504" lon="8.018530816145962"><ele>210.0</ele><time>2026-04-19T08:36:41Z</time></trkpt><trkpt lat="44.876316013566914" lon="8.01839966756256"><ele>210.0</ele><time>2026-04-19T08:36:42Z</time></trkpt><trkpt lat="44.87636412413038" lon="8.0182558053815"><ele>208.25</ele><time>2026-04-19T08:36:43Z</time></trkpt><trkpt lat="44.87642810822061" lon="8.018088773638702"><ele>206.5</ele><time>2026-04-19T08:36:44Z</time></trkpt><trkpt lat="44.87649420843508" lon="8.017922323222793"><ele>204.75</ele><time>2026-04-19T08:36:45Z</time></trkpt><trkpt lat="44.876567377884015" lon="8.017770459757939"><ele>203.0</ele><time>2026-04-19T08:36:46Z</time></trkpt><trkpt lat="44.87664331130387" lon="8.01763644658862"><ele>203.0</ele><time>2026-04-19T08:36:47Z</time></trkpt><trkpt lat="44.87672908684033" lon="8.017521651724186"><ele>203.0</ele><time>2026-04-19T08:36:48Z</time></trkpt><trkpt lat="44.8768439126241" lon="8.017443973116002"><ele>203.0</ele><time>2026-04-19T08:36:49Z</time></trkpt><trkpt lat="44.87693666547552" lon="8.017369803417163"><ele>203.0</ele><time>2026-04-19T08:36:50Z</time></trkpt><trkpt lat="44.87703724786587" lon="8.017307152670979"><ele>202.0</ele><time>2026-04-19T08:36:51Z</time></trkpt><trkpt lat="44.87714374836374" lon="8.017260880002784"><ele>201.0</ele><time>2026-04-19T08:36:52Z</time></trkpt><trkpt lat="44.87724670125635" lon="8.017248603916784"><ele>200.0</ele><time>2026-04-19T08:36:53Z</time></trkpt><trkpt lat="44.87733975024548" lon="8.017249027110562"><ele>199.0</ele><time>2026-04-19T08:36:54Z</time></trkpt><trkpt lat="44.877439838927344" lon="8.017219661009243"><ele>198.0</ele><time>2026-04-19T08:36:55Z</time></trkpt><trkpt lat="44.87755411732404" lon="8.017192585271173"><ele>199.0</ele><time>2026-04-19T08:36:56Z</time></trkpt><trkpt lat="44.8776511109716" lon="8.01715122106764"><ele>200.0</ele><time>2026-04-19T08:36:57Z</time></trkpt><trkpt lat="44.877742685741374" lon="8.01710317749768"><ele>201.0</ele><time>2026-04-19T08:36:58Z</time></trkpt><trkpt lat="44.87782821719832" lon="8.017043837693343"><ele>202.0</ele><time>2026-04-19T08:36:59Z</time></trkpt><trkpt lat="44.877916857244266" lon="8.01696802402264"><ele>203.0</ele><time>2026-04-19T08:37:00Z</time></trkpt><trkpt lat="44.87800927662181" lon="8.016870235926408"><ele>203.0</ele><time>2026-04-19T08:37:01Z</time></trkpt><trkpt lat="44.878102578521705" lon="8.016751135377767"><ele>203.0</ele><time>2026-04-19T08:37:02Z</time></trkpt><trkpt lat="44.87819985403905" lon="8.016637087119767"><ele>203.0</ele><time>2026-04-19T08:37:03Z</time></trkpt><trkpt lat="44.87829679384025" lon="8.01653682386299"><ele>203.0</ele><time>2026-04-19T08:37:04Z</time></trkpt><trkpt lat="44.87839442356303" lon="8.016445350313083"><ele>201.8</ele><time>2026-04-19T08:37:05Z</time></trkpt><trkpt lat="44.87850015242298" lon="8.01637841204888"><ele>200.60000000000002</ele><time>2026-04-19T08:37:06Z</time></trkpt><trkpt lat="44.87859961718475" lon="8.016335812431459"><ele>199.39999999999998</ele><time>2026-04-19T08:37:07Z</time></trkpt><trkpt lat="44.87869767970087" lon="8.016327065330145"><ele>198.2</ele><time>2026-04-19T08:37:08Z</time></trkpt><trkpt lat="44.87880741973466" lon="8.016328429892354"><ele>197.0</ele><time>2026-04-19T08:37:09Z</time></trkpt><trkpt lat="44.8789268560393" lon="8.016322824058992"><ele>197.0</ele><time>2026-04-19T08:37:10Z</time></trkpt><trkpt lat="44.87906032814451" lon="8.016324919268186"><ele>197.0</ele><time>2026-04-19T08:37:11Z</time></trkpt><trkpt lat="44.87919159713536" lon="8.016332179469563"><ele>197.0</ele><time>2026-04-19T08:37:12Z</time></trkpt><trkpt lat="44.879298086198816" lon="8.016332602008298"><ele>197.0</ele><time>2026-04-19T08:37:13Z</time></trkpt><trkpt lat="44.8794094515136" lon="8.016311803691949"><ele>197.6</ele><time>2026-04-19T08:37:14Z</time></trkpt><trkpt lat="44.87953647725127" lon="8.016283168807286"><ele>198.2</ele><time>2026-04-19T08:37:15Z</time></trkpt><trkpt lat="44.879645829157305" lon="8.016256809057188"><ele>198.8</ele><time>2026-04-19T08:37:16Z</time></trkpt><trkpt lat="44.87974128709257" lon="8.016233266494565"><ele>199.4</ele><time>2026-04-19T08:37:16.999Z</time></trkpt><trkpt lat="44.87982712951917" lon="8.016214045898545"><ele>200.0</ele><time>2026-04-19T08:37:17.999Z</time></trkpt><trkpt lat="44.879920611515196" lon="8.016205121144313"><ele>200.0</ele><time>2026-04-19T08:37:18.999Z</time></trkpt><trkpt lat="44.88003366293144" lon="8.016209048774014"><ele>200.0</ele><time>2026-04-19T08:37:19.999Z</time></trkpt><trkpt lat="44.88014827799505" lon="8.016221054720996"><ele>200.0</ele><time>2026-04-19T08:37:20.999Z</time></trkpt><trkpt lat="44.88026765087628" lon="8.016235330402562"><ele>200.0</ele><time>2026-04-19T08:37:21.999Z</time></trkpt><trkpt lat="44.88037288526933" lon="8.01625625509901"><ele>200.33333333333334</ele><time>2026-04-19T08:37:22.999Z</time></trkpt><trkpt lat="44.88045755141519" lon="8.016289513931845"><ele>200.66666666666669</ele><time>2026-04-19T08:37:23.999Z</time></trkpt><trkpt lat="44.88051253531402" lon="8.016360105398164"><ele>201.0</ele><time>2026-04-19T08:37:24.999Z</time></trkpt><trkpt lat="44.88053015572915" lon="8.016464535004483"><ele>201.33333333333331</ele><time>2026-04-19T08:37:25.999Z</time></trkpt><trkpt lat="44.88052424017711" lon="8.016586800536425"><ele>201.66666666666666</ele><time>2026-04-19T08:37:26.999Z</time></trkpt><trkpt lat="44.88050174431624" lon="8.016749016456547"><ele>202.0</ele><time>2026-04-19T08:37:27.999Z</time></trkpt><trkpt lat="44.880446774826915" lon="8.01693905217836"><ele>205.0</ele><time>2026-04-19T08:37:28.999Z</time></trkpt><trkpt lat="44.880409320729676" lon="8.017132336092326"><ele>208.0</ele><time>2026-04-19T08:37:29.999Z</time></trkpt><trkpt lat="44.88040268820803" lon="8.017297745303907"><ele>211.0</ele><time>2026-04-19T08:37:30.999Z</time></trkpt><trkpt lat="44.88040627918467" lon="8.017442664247866"><ele>214.0</ele><time>2026-04-19T08:37:31.999Z</time></trkpt><trkpt lat="44.880445740209744" lon="8.017579885525441"><ele>215.16666666666666</ele><time>2026-04-19T08:37:32.999Z</time></trkpt><trkpt lat="44.88048021234394" lon="8.017692618509543"><ele>216.33333333333331</ele><time>2026-04-19T08:37:33.999Z</time></trkpt><trkpt lat="44.880552494420776" lon="8.017788410368604"><ele>217.5</ele><time>2026-04-19T08:37:34.999Z</time></trkpt><trkpt lat="44.88062101684353" lon="8.01787046010288"><ele>218.66666666666669</ele><time>2026-04-19T08:37:35.999Z</time></trkpt><trkpt lat="44.880669085759436" lon="8.017929782996937"><ele>219.83333333333334</ele><time>2026-04-19T08:37:36.999Z</time></trkpt><trkpt lat="44.88076061155211" lon="8.017965999180394"><ele>221.0</ele><time>2026-04-19T08:37:38.999Z</time></trkpt><trkpt lat="44.88081703219121" lon="8.018035304636724"><ele>221.0</ele><time>2026-04-19T08:37:40.999Z</time></trkpt><trkpt lat="44.88095795519184" lon="8.018033331030042"><ele>221.00000000000003</ele><time>2026-04-19T08:37:43.999Z</time></trkpt><trkpt lat="44.88106296428644" lon="8.017955780638278"><ele>221.00000000000003</ele><time>2026-04-19T08:37:46Z</time></trkpt><trkpt lat="44.88113411780726" lon="8.017906755025342"><ele>221.0</ele><time>2026-04-19T08:37:47Z</time></trkpt><trkpt lat="44.88119891384995" lon="8.017860574928733"><ele>221.0</ele><time>2026-04-19T08:37:48Z</time></trkpt><trkpt lat="44.881267621202504" lon="8.017829718411878"><ele>221.00000000000003</ele><time>2026-04-19T08:37:49Z</time></trkpt><trkpt lat="44.88131894969587" lon="8.017774756289084"><ele>221.0</ele><time>2026-04-19T08:37:50Z</time></trkpt><trkpt lat="44.8813691736713" lon="8.017711831214886"><ele>221.0</ele><time>2026-04-19T08:37:51Z</time></trkpt><trkpt lat="44.881426811744404" lon="8.017653770300964"><ele>221.0</ele><time>2026-04-19T08:37:52Z</time></trkpt><trkpt lat="44.88147437029241" lon="8.017594279428957"><ele>221.0</ele><time>2026-04-19T08:37:53Z</time></trkpt><trkpt lat="44.881526682242765" lon="8.017543551597067"><ele>221.00000000000003</ele><time>2026-04-19T08:37:54Z</time></trkpt><trkpt lat="44.88158452476362" lon="8.017498606497242"><ele>221.0</ele><time>2026-04-19T08:37:55Z</time></trkpt><trkpt lat="44.88163186172529" lon="8.017437085598852"><ele>221.4</ele><time>2026-04-19T08:37:56Z</time></trkpt><trkpt lat="44.88173031882931" lon="8.017350300366013"><ele>221.8</ele><time>2026-04-19T08:37:58Z</time></trkpt><trkpt lat="44.88183675131535" lon="8.017265670281356"><ele>222.20000000000002</ele><time>2026-04-19T08:38:00Z</time></trkpt><trkpt lat="44.88190820347522" lon="8.01720881038548"><ele>222.60000000000002</ele><time>2026-04-19T08:38:01Z</time></trkpt><trkpt lat="44.8819836704342" lon="8.017163163034022"><ele>223.0</ele><time>2026-04-19T08:38:02Z</time></trkpt><trkpt lat="44.8820584163719" lon="8.017124646929236"><ele>221.83333333333331</ele><time>2026-04-19T08:38:03Z</time></trkpt><trkpt lat="44.882169986184216" lon="8.017066098934139"><ele>220.66666666666666</ele><time>2026-04-19T08:38:05Z</time></trkpt><trkpt lat="44.88224660341592" lon="8.017021129989073"><ele>219.5</ele><time>2026-04-19T08:38:06Z</time></trkpt><trkpt lat="44.882311584765716" lon="8.016974000680609"><ele>218.33333333333331</ele><time>2026-04-19T08:38:07Z</time></trkpt><trkpt lat="44.88237944676267" lon="8.016937843850842"><ele>217.16666666666666</ele><time>2026-04-19T08:38:08Z</time></trkpt><trkpt lat="44.882457762396605" lon="8.016910380288772"><ele>216.0</ele><time>2026-04-19T08:38:09Z</time></trkpt><trkpt lat="44.882533725602364" lon="8.016889627482353"><ele>214.66666666666666</ele><time>2026-04-19T08:38:10Z</time></trkpt><trkpt lat="44.88263858443009" lon="8.016830401389772"><ele>213.33333333333331</ele><time>2026-04-19T08:38:12Z</time></trkpt><trkpt lat="44.88270501776339" lon="8.016799793782418"><ele>212.0</ele><time>2026-04-19T08:38:13Z</time></trkpt><trkpt lat="44.88277408684317" lon="8.016778878100773"><ele>210.66666666666666</ele><time>2026-04-19T08:38:14Z</time></trkpt><trkpt lat="44.88283880686605" lon="8.016752138416503"><ele>209.33333333333331</ele><time>2026-04-19T08:38:15Z</time></trkpt><trkpt lat="44.88291152564054" lon="8.01672287731144"><ele>208.0</ele><time>2026-04-19T08:38:16Z</time></trkpt><trkpt lat="44.88298439917828" lon="8.016675970470619"><ele>208.33333333333331</ele><time>2026-04-19T08:38:17Z</time></trkpt><trkpt lat="44.883072467216074" lon="8.016628183066889"><ele>208.66666666666666</ele><time>2026-04-19T08:38:18Z</time></trkpt><trkpt lat="44.88314474760581" lon="8.016560719539305"><ele>209.0</ele><time>2026-04-19T08:38:19Z</time></trkpt><trkpt lat="44.88321392394416" lon="8.016535337126035"><ele>209.33333333333331</ele><time>2026-04-19T08:38:20Z</time></trkpt><trkpt lat="44.88328548133113" lon="8.016523385184657"><ele>209.66666666666666</ele><time>2026-04-19T08:38:21Z</time></trkpt><trkpt lat="44.88336618691163" lon="8.016511362306249"><ele>210.0</ele><time>2026-04-19T08:38:22Z</time></trkpt><trkpt lat="44.88345732215682" lon="8.016487483795943"><ele>208.8</ele><time>2026-04-19T08:38:23Z</time></trkpt><trkpt lat="44.88356559539284" lon="8.016478808916572"><ele>207.6</ele><time>2026-04-19T08:38:24Z</time></trkpt><trkpt lat="44.88365024187255" lon="8.016444029960619"><ele>206.39999999999998</ele><time>2026-04-19T08:38:25Z</time></trkpt><trkpt lat="44.88372882261976" lon="8.016425595201337"><ele>205.2</ele><time>2026-04-19T08:38:26Z</time></trkpt><trkpt lat="44.88380910042818" lon="8.016401419001223"><ele>204.0</ele><time>2026-04-19T08:38:27Z</time></trkpt><trkpt lat="44.883896803875196" lon="8.016319025928258"><ele>204.0</ele><time>2026-04-19T08:38:28Z</time></trkpt><trkpt lat="44.88400179604733" lon="8.016276155236977"><ele>204.0</ele><time>2026-04-19T08:38:29Z</time></trkpt><trkpt lat="44.88408663245322" lon="8.016260390133736"><ele>204.0</ele><time>2026-04-19T08:38:30Z</time></trkpt><trkpt lat="44.8841801601878" lon="8.016261059784792"><ele>204.0</ele><time>2026-04-19T08:38:31Z</time></trkpt><trkpt lat="44.884264634923895" lon="8.016244476773194"><ele>204.0</ele><time>2026-04-19T08:38:32Z</time></trkpt><trkpt lat="44.88435991891452" lon="8.016210694693408"><ele>202.2</ele><time>2026-04-19T08:38:33Z</time></trkpt><trkpt lat="44.88445241387925" lon="8.01617836790303"><ele>200.39999999999998</ele><time>2026-04-19T08:38:34Z</time></trkpt><trkpt lat="44.88454867524226" lon="8.01612159791404"><ele>198.6</ele><time>2026-04-19T08:38:35Z</time></trkpt><trkpt lat="44.88463748229057" lon="8.016062105918046"><ele>196.8</ele><time>2026-04-19T08:38:36Z</time></trkpt><trkpt lat="44.884715973797455" lon="8.015992920124901"><ele>195.0</ele><time>2026-04-19T08:38:37Z</time></trkpt><trkpt lat="44.88477392401634" lon="8.015903579634909"><ele>195.0</ele><time>2026-04-19T08:38:38Z</time></trkpt><trkpt lat="44.88481431312093" lon="8.015803780192178"><ele>195.0</ele><time>2026-04-19T08:38:39Z</time></trkpt><trkpt lat="44.884850168697845" lon="8.015716810449089"><ele>195.0</ele><time>2026-04-19T08:38:40Z</time></trkpt><trkpt lat="44.88487772196438" lon="8.015608464520774"><ele>195.0</ele><time>2026-04-19T08:38:41Z</time></trkpt><trkpt lat="44.88489480425284" lon="8.015476978183399"><ele>195.0</ele><time>2026-04-19T08:38:42Z</time></trkpt><trkpt lat="44.884914608350776" lon="8.015338309107156"><ele>195.0</ele><time>2026-04-19T08:38:43Z</time></trkpt><trkpt lat="44.88494134468851" lon="8.015220840259786"><ele>195.0</ele><time>2026-04-19T08:38:44Z</time></trkpt><trkpt lat="44.88495313545518" lon="8.015113933463438"><ele>195.0</ele><time>2026-04-19T08:38:45Z</time></trkpt><trkpt lat="44.884913841518134" lon="8.014961429140136"><ele>195.0</ele><time>2026-04-19T08:38:47Z</time></trkpt><trkpt lat="44.88502317881189" lon="8.01493546125922"><ele>195.0</ele><time>2026-04-19T08:38:51Z</time></trkpt><trkpt lat="44.88513479384115" lon="8.01498878668062"><ele>195.0</ele><time>2026-04-19T08:38:52Z</time></trkpt><trkpt lat="44.88524164554587" lon="8.015048734898743"><ele>194.2</ele><time>2026-04-19T08:38:53Z</time></trkpt><trkpt lat="44.88532997572798" lon="8.015133248545014"><ele>193.4</ele><time>2026-04-19T08:38:54Z</time></trkpt><trkpt lat="44.885382088005144" lon="8.01521152880518"><ele>192.60000000000002</ele><time>2026-04-19T08:38:55Z</time></trkpt><trkpt lat="44.88541878765304" lon="8.01533942328707"><ele>191.8</ele><time>2026-04-19T08:38:56Z</time></trkpt><trkpt lat="44.885452215281816" lon="8.015491413837205"><ele>191.0</ele><time>2026-04-19T08:38:57Z</time></trkpt><trkpt lat="44.885496102222405" lon="8.015596505583718"><ele>191.0</ele><time>2026-04-19T08:38:58Z</time></trkpt><trkpt lat="44.885543076405675" lon="8.015667921737741"><ele>191.0</ele><time>2026-04-19T08:38:59Z</time></trkpt><trkpt lat="44.88561431631393" lon="8.015703365397641"><ele>191.0</ele><time>2026-04-19T08:39:00Z</time></trkpt><trkpt lat="44.885722726166385" lon="8.01574381218897"><ele>191.0</ele><time>2026-04-19T08:39:01Z</time></trkpt><trkpt lat="44.88586489112056" lon="8.015781555855964"><ele>191.0</ele><time>2026-04-19T08:39:02Z</time></trkpt><trkpt lat="44.88604296699246" lon="8.01581968882403"><ele>190.33333333333331</ele><time>2026-04-19T08:39:03Z</time></trkpt><trkpt lat="44.88623878256864" lon="8.015873521380575"><ele>189.66666666666666</ele><time>2026-04-19T08:39:04Z</time></trkpt><trkpt lat="44.88645325698895" lon="8.015917715119738"><ele>189.0</ele><time>2026-04-19T08:39:05Z</time></trkpt><trkpt lat="44.88664382429009" lon="8.015978591106574"><ele>188.6</ele><time>2026-04-19T08:39:06Z</time></trkpt><trkpt lat="44.88678682889722" lon="8.016011450590236"><ele>188.2</ele><time>2026-04-19T08:39:07Z</time></trkpt><trkpt lat="44.88689276419505" lon="8.016036008013868"><ele>187.79999999999998</ele><time>2026-04-19T08:39:08Z</time></trkpt><trkpt lat="44.88698239235124" lon="8.016058293937798"><ele>187.39999999999998</ele><time>2026-04-19T08:39:09Z</time></trkpt><trkpt lat="44.887050077942135" lon="8.016054500599791"><ele>187.0</ele><time>2026-04-19T08:39:10Z</time></trkpt><trkpt lat="44.887160132076424" lon="8.016069102120575"><ele>187.0</ele><time>2026-04-19T08:39:12Z</time></trkpt><trkpt lat="44.88724228859489" lon="8.016084466592087"><ele>187.0</ele><time>2026-04-19T08:39:13.999Z</time></trkpt><trkpt lat="44.887164363540585" lon="8.016076010474935"><ele>187.0</ele><time>2026-04-19T08:39:18.999Z</time></trkpt><trkpt lat="44.887068587394495" lon="8.016073641101759"><ele>187.0</ele><time>2026-04-19T08:39:19.999Z</time></trkpt><trkpt lat="44.88695232936574" lon="8.016053623697578"><ele>187.0</ele><time>2026-04-19T08:39:20.999Z</time></trkpt><trkpt lat="44.88687082605326" lon="8.016080654193852"><ele>187.0</ele><time>2026-04-19T08:39:22.999Z</time></trkpt><trkpt lat="44.886879737472064" lon="8.016275301687266"><ele>187.0</ele><time>2026-04-19T08:39:24.999Z</time></trkpt><trkpt lat="44.88688249557447" lon="8.016430024976367"><ele>187.0</ele><time>2026-04-19T08:39:25.999Z</time></trkpt><trkpt lat="44.886873852582994" lon="8.01663355004918"><ele>187.0</ele><time>2026-04-19T08:39:26.999Z</time></trkpt><trkpt lat="44.886858683551935" lon="8.016879718484601"><ele>188.0</ele><time>2026-04-19T08:39:27.999Z</time></trkpt><trkpt lat="44.886839884034245" lon="8.017156315325098"><ele>189.0</ele><time>2026-04-19T08:39:28.999Z</time></trkpt><trkpt lat="44.88681963960417" lon="8.017439350017758"><ele>190.0</ele><time>2026-04-19T08:39:29.999Z</time></trkpt><trkpt lat="44.88680606213547" lon="8.017668945469957"><ele>192.0</ele><time>2026-04-19T08:39:30.999Z</time></trkpt><trkpt lat="44.88679699077995" lon="8.017879332751056"><ele>194.0</ele><time>2026-04-19T08:39:31.999Z</time></trkpt><trkpt lat="44.88678833203231" lon="8.018095367373467"><ele>196.0</ele><time>2026-04-19T08:39:32.999Z</time></trkpt><trkpt lat="44.88678879404301" lon="8.01831008444667"><ele>197.0</ele><time>2026-04-19T08:39:33.999Z</time></trkpt><trkpt lat="44.88679299443419" lon="8.018538143925086"><ele>198.0</ele><time>2026-04-19T08:39:34.999Z</time></trkpt><trkpt lat="44.88680013798064" lon="8.01873890671039"><ele>199.0</ele><time>2026-04-19T08:39:35.999Z</time></trkpt><trkpt lat="44.88679559901231" lon="8.01890649201812"><ele>200.0</ele><time>2026-04-19T08:39:36.999Z</time></trkpt><trkpt lat="44.88678007885875" lon="8.019049241200662"><ele>197.66666666666669</ele><time>2026-04-19T08:39:37.999Z</time></trkpt><trkpt lat="44.88674037535918" lon="8.019202370320802"><ele>195.33333333333331</ele><time>2026-04-19T08:39:38.999Z</time></trkpt><trkpt lat="44.88668147245168" lon="8.019409223145654"><ele>193.0</ele><time>2026-04-19T08:39:39.999Z</time></trkpt><trkpt lat="44.886628673360875" lon="8.019652983674082"><ele>193.0</ele><time>2026-04-19T08:39:40.999Z</time></trkpt><trkpt lat="44.8865782350689" lon="8.019852643494866"><ele>193.0</ele><time>2026-04-19T08:39:41.999Z</time></trkpt><trkpt lat="44.886543914306635" lon="8.019998179847"><ele>193.0</ele><time>2026-04-19T08:39:42.999Z</time></trkpt><trkpt lat="44.886512269241514" lon="8.020122095303625"><ele>193.0</ele><time>2026-04-19T08:39:43.999Z</time></trkpt><trkpt lat="44.88649137063828" lon="8.0202084414644"><ele>193.0</ele><time>2026-04-19T08:39:44.999Z</time></trkpt><trkpt lat="44.8864998422338" lon="8.020300251527631"><ele>193.0</ele><time>2026-04-19T08:39:46.999Z</time></trkpt><trkpt lat="44.88657887486959" lon="8.020335314536007"><ele>193.0</ele><time>2026-04-19T08:39:47.999Z</time></trkpt><trkpt lat="44.88667623092001" lon="8.020399072108079"><ele>193.0</ele><time>2026-04-19T08:39:48.999Z</time></trkpt><trkpt lat="44.88676708493669" lon="8.020462710250252"><ele>193.0</ele><time>2026-04-19T08:39:49.999Z</time></trkpt><trkpt lat="44.88684805845868" lon="8.020547042858414"><ele>193.0</ele><time>2026-04-19T08:39:50.999Z</time></trkpt><trkpt lat="44.88693741565251" lon="8.020640604328023"><ele>195.0</ele><time>2026-04-19T08:39:52Z</time></trkpt><trkpt lat="44.887023099530914" lon="8.020761307425087"><ele>197.0</ele><time>2026-04-19T08:39:53Z</time></trkpt><trkpt lat="44.887087959141844" lon="8.020875384665771"><ele>199.0</ele><time>2026-04-19T08:39:54Z</time></trkpt><trkpt lat="44.88714419535633" lon="8.021033062098079"><ele>201.0</ele><time>2026-04-19T08:39:55Z</time></trkpt><trkpt lat="44.88719168163294" lon="8.0211743454977"><ele>203.0</ele><time>2026-04-19T08:39:56Z</time></trkpt><trkpt lat="44.88723746221785" lon="8.021266392710382"><ele>205.0</ele><time>2026-04-19T08:39:57Z</time></trkpt><trkpt lat="44.887287902082285" lon="8.02137872727927"><ele>207.0</ele><time>2026-04-19T08:39:59Z</time></trkpt><trkpt lat="44.88733460466222" lon="8.021504263415924"><ele>209.0</ele><time>2026-04-19T08:40:01Z</time></trkpt><trkpt lat="44.88738012782938" lon="8.021585584236895"><ele>211.0</ele><time>2026-04-19T08:40:02Z</time></trkpt><trkpt lat="44.88737892038174" lon="8.021706745074448"><ele>213.0</ele><time>2026-04-19T08:40:04Z</time></trkpt><trkpt lat="44.88734320380372" lon="8.021815172617474"><ele>214.66666666666666</ele><time>2026-04-19T08:40:05Z</time></trkpt><trkpt lat="44.88731344085117" lon="8.021897347097894"><ele>216.33333333333331</ele><time>2026-04-19T08:40:06Z</time></trkpt><trkpt lat="44.887274481910666" lon="8.021995184599584"><ele>218.0</ele><time>2026-04-19T08:40:07Z</time></trkpt><trkpt lat="44.88725221027067" lon="8.022138550152667"><ele>219.66666666666666</ele><time>2026-04-19T08:40:09Z</time></trkpt><trkpt lat="44.887174106315406" lon="8.022266350415808"><ele>221.33333333333331</ele><time>2026-04-19T08:40:11Z</time></trkpt><trkpt lat="44.887145924134764" lon="8.022360872572763"><ele>223.0</ele><time>2026-04-19T08:40:12Z</time></trkpt><trkpt lat="44.8871250215592" lon="8.022446018791735"><ele>224.66666666666666</ele><time>2026-04-19T08:40:13Z</time></trkpt><trkpt lat="44.88717606292327" lon="8.02262653569804"><ele>226.33333333333331</ele><time>2026-04-19T08:40:15Z</time></trkpt><trkpt lat="44.88716739428818" lon="8.022746744468128"><ele>228.0</ele><time>2026-04-19T08:40:16Z</time></trkpt><trkpt lat="44.88718727843632" lon="8.022851050139506"><ele>229.66666666666669</ele><time>2026-04-19T08:40:17Z</time></trkpt><trkpt lat="44.88720230762439" lon="8.02294653295462"><ele>231.33333333333334</ele><time>2026-04-19T08:40:18Z</time></trkpt><trkpt lat="44.88722853745817" lon="8.023036023242467"><ele>233.0</ele><time>2026-04-19T08:40:19Z</time></trkpt><trkpt lat="44.88728085923217" lon="8.023132898966765"><ele>233.0</ele><time>2026-04-19T08:40:21Z</time></trkpt><trkpt lat="44.88736498345134" lon="8.02306208949335"><ele>233.0</ele><time>2026-04-19T08:40:23Z</time></trkpt><trkpt lat="44.887412182986324" lon="8.02299439246882"><ele>233.0</ele><time>2026-04-19T08:40:24Z</time></trkpt><trkpt lat="44.88746768586444" lon="8.022811664717217"><ele>233.0</ele><time>2026-04-19T08:40:26Z</time></trkpt><trkpt lat="44.88750897357311" lon="8.02263111574307"><ele>233.0</ele><time>2026-04-19T08:40:27Z</time></trkpt><trkpt lat="44.88756789041186" lon="8.02248131730792"><ele>233.50000000000003</ele><time>2026-04-19T08:40:28Z</time></trkpt><trkpt lat="44.88761921047516" lon="8.022391501133773"><ele>234.0</ele><time>2026-04-19T08:40:29Z</time></trkpt><trkpt lat="44.88769903145425" lon="8.022328541259927"><ele>234.5</ele><time>2026-04-19T08:40:31Z</time></trkpt><trkpt lat="44.88779093870297" lon="8.02241232477015"><ele>235.0</ele><time>2026-04-19T08:40:33Z</time></trkpt><trkpt lat="44.88786100970389" lon="8.0224696500075"><ele>235.50000000000003</ele><time>2026-04-19T08:40:34Z</time></trkpt><trkpt lat="44.88793822069372" lon="8.02249072230989"><ele>236.0</ele><time>2026-04-19T08:40:35Z</time></trkpt><trkpt lat="44.888042487014125" lon="8.02245488564892"><ele>236.00000000000003</ele><time>2026-04-19T08:40:37Z</time></trkpt><trkpt lat="44.88809777156501" lon="8.02237189059209"><ele>236.0</ele><time>2026-04-19T08:40:38Z</time></trkpt><trkpt lat="44.88816926530048" lon="8.022321716367891"><ele>236.0</ele><time>2026-04-19T08:40:39Z</time></trkpt><trkpt lat="44.88826363963213" lon="8.02233149774679"><ele>236.0</ele><time>2026-04-19T08:40:40Z</time></trkpt><trkpt lat="44.88834715520124" lon="8.022349127721233"><ele>236.00000000000003</ele><time>2026-04-19T08:40:41Z</time></trkpt><trkpt lat="44.888432285063764" lon="8.022336387743628"><ele>236.0</ele><time>2026-04-19T08:40:43Z</time></trkpt><trkpt lat="44.888484128434264" lon="8.022121112502342"><ele>233.0</ele><time>2026-04-19T08:40:45Z</time></trkpt><trkpt lat="44.88850937998424" lon="8.021981041630033"><ele>230.00000000000003</ele><time>2026-04-19T08:40:46Z</time></trkpt><trkpt lat="44.88854514465531" lon="8.021832727351033"><ele>227.00000000000003</ele><time>2026-04-19T08:40:47Z</time></trkpt><trkpt lat="44.8885921304727" lon="8.02168608919313"><ele>224.0</ele><time>2026-04-19T08:40:48Z</time></trkpt><trkpt lat="44.88863032057002" lon="8.021592514903752"><ele>221.0</ele><time>2026-04-19T08:40:49Z</time></trkpt><trkpt lat="44.88865676783181" lon="8.021427749178718"><ele>220.83333333333334</ele><time>2026-04-19T08:40:51Z</time></trkpt><trkpt lat="44.888667879098094" lon="8.021319689236005"><ele>220.66666666666669</ele><time>2026-04-19T08:40:52Z</time></trkpt><trkpt lat="44.888686307758796" lon="8.021208352835542"><ele>220.5</ele><time>2026-04-19T08:40:53Z</time></trkpt><trkpt lat="44.88869866110859" lon="8.02110302611504"><ele>220.33333333333331</ele><time>2026-04-19T08:40:54Z</time></trkpt><trkpt lat="44.88864102741564" lon="8.020990521107146"><ele>220.16666666666666</ele><time>2026-04-19T08:40:57Z</time></trkpt><trkpt lat="44.88857756100145" lon="8.020977501145309"><ele>220.0</ele><time>2026-04-19T08:40:58Z</time></trkpt><trkpt lat="44.888509665437304" lon="8.020958545003433"><ele>219.99999999999997</ele><time>2026-04-19T08:40:59Z</time></trkpt><trkpt lat="44.88845556045924" lon="8.020838046627595"><ele>220.0</ele><time>2026-04-19T08:41:01Z</time></trkpt><trkpt lat="44.88844993469519" lon="8.02073915274481"><ele>220.0</ele><time>2026-04-19T08:41:02Z</time></trkpt><trkpt lat="44.888419289052266" lon="8.0205993198281"><ele>220.0</ele><time>2026-04-19T08:41:04Z</time></trkpt><trkpt lat="44.8883828112286" lon="8.020525551057993"><ele>219.99999999999997</ele><time>2026-04-19T08:41:05Z</time></trkpt><trkpt lat="44.888360110157514" lon="8.020423825061652"><ele>220.0</ele><time>2026-04-19T08:41:07Z</time></trkpt><trkpt lat="44.88837578940113" lon="8.02031826751081"><ele>220.2</ele><time>2026-04-19T08:41:08Z</time></trkpt><trkpt lat="44.88838968319976" lon="8.020132725243844"><ele>220.4</ele><time>2026-04-19T08:41:09Z</time></trkpt><trkpt lat="44.88838633147933" lon="8.019979718777229"><ele>220.60000000000002</ele><time>2026-04-19T08:41:10Z</time></trkpt><trkpt lat="44.88838959406908" lon="8.019859553617822"><ele>220.8</ele><time>2026-04-19T08:41:11Z</time></trkpt><trkpt lat="44.888373068642096" lon="8.019728731588323"><ele>221.0</ele><time>2026-04-19T08:41:12Z</time></trkpt><trkpt lat="44.888350442357236" lon="8.019583615895062"><ele>221.00000000000003</ele><time>2026-04-19T08:41:13Z</time></trkpt><trkpt lat="44.88833365512703" lon="8.01945736375743"><ele>221.0</ele><time>2026-04-19T08:41:14Z</time></trkpt><trkpt lat="44.888351048438764" lon="8.019351005132888"><ele>221.0</ele><time>2026-04-19T08:41:14.999Z</time></trkpt><trkpt lat="44.88840105284873" lon="8.019244622353044"><ele>221.0</ele><time>2026-04-19T08:41:15.999Z</time></trkpt><trkpt lat="44.888456182901116" lon="8.01913208022871"><ele>221.00000000000003</ele><time>2026-04-19T08:41:16.999Z</time></trkpt><trkpt lat="44.88851131933945" lon="8.01902548942015"><ele>221.0</ele><time>2026-04-19T08:41:17.999Z</time></trkpt><trkpt lat="44.88856898144049" lon="8.018940805126524"><ele>224.60000000000002</ele><time>2026-04-19T08:41:18.999Z</time></trkpt><trkpt lat="44.88861857255148" lon="8.018872641907286"><ele>228.20000000000002</ele><time>2026-04-19T08:41:19.999Z</time></trkpt><trkpt lat="44.88872717395872" lon="8.01882833601355"><ele>231.79999999999998</ele><time>2026-04-19T08:41:21.999Z</time></trkpt><trkpt lat="44.88879161605364" lon="8.018828834699914"><ele>235.39999999999998</ele><time>2026-04-19T08:41:22.999Z</time></trkpt><trkpt lat="44.88890525753423" lon="8.01879435900666"><ele>239.0</ele><time>2026-04-19T08:41:24.999Z</time></trkpt><trkpt lat="44.88900792447722" lon="8.018780739166848"><ele>239.0</ele><time>2026-04-19T08:41:26.999Z</time></trkpt><trkpt lat="44.889081292865384" lon="8.018765876542284"><ele>238.99999999999997</ele><time>2026-04-19T08:41:27.999Z</time></trkpt><trkpt lat="44.88920381682988" lon="8.018776714957278"><ele>238.99999999999997</ele><time>2026-04-19T08:41:29.999Z</time></trkpt><trkpt lat="44.88927672817465" lon="8.018831152211863"><ele>239.0</ele><time>2026-04-19T08:41:30.999Z</time></trkpt><trkpt lat="44.88936590672775" lon="8.018925066624695"><ele>239.0</ele><time>2026-04-19T08:41:31.999Z</time></trkpt><trkpt lat="44.88943309120626" lon="8.018966244964073"><ele>237.50000000000003</ele><time>2026-04-19T08:41:32.999Z</time></trkpt><trkpt lat="44.88951188116279" lon="8.01901610117781"><ele>236.0</ele><time>2026-04-19T08:41:33.999Z</time></trkpt><trkpt lat="44.88958830765364" lon="8.019075602387451"><ele>234.5</ele><time>2026-04-19T08:41:34.999Z</time></trkpt><trkpt lat="44.88964365052866" lon="8.01914789506436"><ele>233.0</ele><time>2026-04-19T08:41:35.999Z</time></trkpt><trkpt lat="44.889710949437564" lon="8.019222293006635"><ele>231.50000000000003</ele><time>2026-04-19T08:41:36.999Z</time></trkpt><trkpt lat="44.889748094204194" lon="8.019302803461686"><ele>230.0</ele><time>2026-04-19T08:41:37.999Z</time></trkpt><trkpt lat="44.889805805102" lon="8.01935474459372"><ele>228.66666666666669</ele><time>2026-04-19T08:41:38.999Z</time></trkpt><trkpt lat="44.88986104997337" lon="8.019400821146519"><ele>227.33333333333334</ele><time>2026-04-19T08:41:39.999Z</time></trkpt><trkpt lat="44.88994326641935" lon="8.019433117771477"><ele>226.0</ele><time>2026-04-19T08:41:40.999Z</time></trkpt><trkpt lat="44.89003522317381" lon="8.019446964033984"><ele>224.66666666666669</ele><time>2026-04-19T08:41:41.999Z</time></trkpt><trkpt lat="44.89012876589358" lon="8.01944312228135"><ele>223.33333333333334</ele><time>2026-04-19T08:41:42.999Z</time></trkpt><trkpt lat="44.89023721548091" lon="8.01941866661505"><ele>222.0</ele><time>2026-04-19T08:41:43.999Z</time></trkpt><trkpt lat="44.890347097067306" lon="8.019386423134423"><ele>218.8</ele><time>2026-04-19T08:41:44.999Z</time></trkpt><trkpt lat="44.89042662654298" lon="8.019390341136056"><ele>215.6</ele><time>2026-04-19T08:41:45.999Z</time></trkpt><trkpt lat="44.89051797272521" lon="8.019355337982857"><ele>212.4</ele><time>2026-04-19T08:41:47.999Z</time></trkpt><trkpt lat="44.89048827409738" lon="8.01925054154752"><ele>209.20000000000002</ele><time>2026-04-19T08:41:50.999Z</time></trkpt><trkpt lat="44.89036863579271" lon="8.019188111526464"><ele>206.0</ele><time>2026-04-19T08:41:52.999Z</time></trkpt><trkpt lat="44.8902948805757" lon="8.019083987274865"><ele>205.20000000000002</ele><time>2026-04-19T08:41:54.999Z</time></trkpt><trkpt lat="44.89028195130622" lon="8.018960819933861"><ele>204.4</ele><time>2026-04-19T08:41:56.999Z</time></trkpt><trkpt lat="44.890288191082" lon="8.018830951862485"><ele>203.6</ele><time>2026-04-19T08:41:59Z</time></trkpt><trkpt lat="44.89026321562603" lon="8.018685205915393"><ele>202.8</ele><time>2026-04-19T08:42:01Z</time></trkpt><trkpt lat="44.89020006293559" lon="8.018616422385051"><ele>202.0</ele><time>2026-04-19T08:42:06Z</time></trkpt><trkpt lat="44.89017639603357" lon="8.018467622248231"><ele>203.0</ele><time>2026-04-19T08:42:08Z</time></trkpt><trkpt lat="44.89016515874764" lon="8.018299514552346"><ele>204.0</ele><time>2026-04-19T08:42:10Z</time></trkpt><trkpt lat="44.89017120719509" lon="8.018143809152699"><ele>205.0</ele><time>2026-04-19T08:42:12Z</time></trkpt><trkpt lat="44.890152531146605" lon="8.018041840061606"><ele>206.0</ele><time>2026-04-19T08:42:14Z</time></trkpt><trkpt lat="44.8901799984888" lon="8.017957104715862"><ele>207.0</ele><time>2026-04-19T08:42:15Z</time></trkpt><trkpt lat="44.89016908512827" lon="8.01784433076288"><ele>207.0</ele><time>2026-04-19T08:42:17Z</time></trkpt><trkpt lat="44.8901273894874" lon="8.017709593881353"><ele>207.0</ele><time>2026-04-19T08:42:19Z</time></trkpt><trkpt lat="44.890103429207834" lon="8.017559041101292"><ele>207.0</ele><time>2026-04-19T08:42:21Z</time></trkpt><trkpt lat="44.890108084617005" lon="8.017400351488847"><ele>207.0</ele><time>2026-04-19T08:42:23Z</time></trkpt><trkpt lat="44.89009022423978" lon="8.017281968251213"><ele>207.0</ele><time>2026-04-19T08:42:24Z</time></trkpt><trkpt lat="44.89008380565259" lon="8.017177022524791"><ele>208.66666666666666</ele><time>2026-04-19T08:42:25Z</time></trkpt><trkpt lat="44.8900898385385" lon="8.017075444284027"><ele>210.33333333333331</ele><time>2026-04-19T08:42:26Z</time></trkpt><trkpt lat="44.89012128275418" lon="8.016996025565554"><ele>212.0</ele><time>2026-04-19T08:42:27Z</time></trkpt><trkpt lat="44.890163175598786" lon="8.016890827404096"><ele>213.66666666666666</ele><time>2026-04-19T08:42:29Z</time></trkpt><trkpt lat="44.890205607636574" lon="8.016775100038668"><ele>215.33333333333331</ele><time>2026-04-19T08:42:31Z</time></trkpt><trkpt lat="44.890220075715334" lon="8.016653479922255"><ele>217.0</ele><time>2026-04-19T08:42:33Z</time></trkpt><trkpt lat="44.89027815942032" lon="8.01655720952921"><ele>218.49999999999997</ele><time>2026-04-19T08:42:34Z</time></trkpt><trkpt lat="44.89031912326405" lon="8.016461416892657"><ele>220.0</ele><time>2026-04-19T08:42:35Z</time></trkpt><trkpt lat="44.89036817280194" lon="8.016352040042019"><ele>221.5</ele><time>2026-04-19T08:42:37Z</time></trkpt><trkpt lat="44.890430928951666" lon="8.016308248972996"><ele>223.0</ele><time>2026-04-19T08:42:38Z</time></trkpt><trkpt lat="44.890495862342604" lon="8.016249716338747"><ele>224.49999999999997</ele><time>2026-04-19T08:42:40Z</time></trkpt><trkpt lat="44.890597426433125" lon="8.01620437461568"><ele>226.0</ele><time>2026-04-19T08:42:42Z</time></trkpt><trkpt lat="44.89070302515952" lon="8.016133418460592"><ele>226.0</ele><time>2026-04-19T08:42:44Z</time></trkpt><trkpt lat="44.89078259482245" lon="8.01594704668064"><ele>226.0</ele><time>2026-04-19T08:42:46Z</time></trkpt><trkpt lat="44.890839251417326" lon="8.015826542830663"><ele>226.0</ele><time>2026-04-19T08:42:47Z</time></trkpt><trkpt lat="44.8909153398559" lon="8.015709435885386"><ele>226.0</ele><time>2026-04-19T08:42:48Z</time></trkpt><trkpt lat="44.890916328418335" lon="8.015582993964399"><ele>225.60000000000002</ele><time>2026-04-19T08:42:50Z</time></trkpt><trkpt lat="44.89088330907822" lon="8.01546184875981"><ele>225.20000000000002</ele><time>2026-04-19T08:42:51Z</time></trkpt><trkpt lat="44.890834289826" lon="8.01533005166319"><ele>224.79999999999998</ele><time>2026-04-19T08:42:52Z</time></trkpt><trkpt lat="44.890765663145665" lon="8.015310153139204"><ele>224.39999999999998</ele><time>2026-04-19T08:42:54Z</time></trkpt><trkpt lat="44.89075064752453" lon="8.015147229129624"><ele>224.0</ele><time>2026-04-19T08:42:58Z</time></trkpt><trkpt lat="44.890811600943046" lon="8.015029899313301"><ele>222.2</ele><time>2026-04-19T08:43:00Z</time></trkpt><trkpt lat="44.89083491372217" lon="8.014880233894534"><ele>220.39999999999998</ele><time>2026-04-19T08:43:02Z</time></trkpt><trkpt lat="44.89081809272314" lon="8.014720863903419"><ele>218.6</ele><time>2026-04-19T08:43:04Z</time></trkpt><trkpt lat="44.89081994522855" lon="8.014603356704985"><ele>216.8</ele><time>2026-04-19T08:43:06Z</time></trkpt><trkpt lat="44.890810118173704" lon="8.014423201172741"><ele>215.0</ele><time>2026-04-19T08:43:08Z</time></trkpt><trkpt lat="44.89080243179927" lon="8.014323698779604"><ele>215.0</ele><time>2026-04-19T08:43:09Z</time></trkpt><trkpt lat="44.890813653892124" lon="8.014169851602546"><ele>215.0</ele><time>2026-04-19T08:43:11Z</time></trkpt><trkpt lat="44.89080301248608" lon="8.014081863062364"><ele>215.0</ele><time>2026-04-19T08:43:13Z</time></trkpt><trkpt lat="44.890860497996826" lon="8.014039944316336"><ele>215.0</ele><time>2026-04-19T08:43:15Z</time></trkpt><trkpt lat="44.890855832887794" lon="8.013880720959552"><ele>215.0</ele><time>2026-04-19T08:43:17Z</time></trkpt><trkpt lat="44.890897928251114" lon="8.013733410025289"><ele>209.8</ele><time>2026-04-19T08:43:19Z</time></trkpt><trkpt lat="44.89092997852329" lon="8.013564502737001"><ele>204.6</ele><time>2026-04-19T08:43:21Z</time></trkpt><trkpt lat="44.89093817132443" lon="8.01346371410501"><ele>199.39999999999998</ele><time>2026-04-19T08:43:22Z</time></trkpt><trkpt lat="44.890943040234" lon="8.013370748703307"><ele>194.2</ele><time>2026-04-19T08:43:23Z</time></trkpt><trkpt lat="44.89093468717291" lon="8.013228480317016"><ele>189.0</ele><time>2026-04-19T08:43:24.999Z</time></trkpt><trkpt lat="44.8908584525356" lon="8.013128766487135"><ele>188.2</ele><time>2026-04-19T08:43:26.999Z</time></trkpt><trkpt lat="44.89075038837928" lon="8.013123642349992"><ele>187.39999999999998</ele><time>2026-04-19T08:43:28.999Z</time></trkpt><trkpt lat="44.890655951743696" lon="8.0131953276655"><ele>186.6</ele><time>2026-04-19T08:43:30.999Z</time></trkpt><trkpt lat="44.890558530809955" lon="8.013286895864994"><ele>185.8</ele><time>2026-04-19T08:43:32.999Z</time></trkpt><trkpt lat="44.89050178836867" lon="8.013333368990901"><ele>185.0</ele><time>2026-04-19T08:43:33.999Z</time></trkpt><trkpt lat="44.890430890503104" lon="8.013370884693916"><ele>185.8</ele><time>2026-04-19T08:43:34.999Z</time></trkpt><trkpt lat="44.890316292326524" lon="8.013437643203503"><ele>186.6</ele><time>2026-04-19T08:43:36.999Z</time></trkpt><trkpt lat="44.890220184105836" lon="8.013500589299715"><ele>187.39999999999998</ele><time>2026-04-19T08:43:38.999Z</time></trkpt><trkpt lat="44.89013067021229" lon="8.013573283518056"><ele>188.2</ele><time>2026-04-19T08:43:40.999Z</time></trkpt><trkpt lat="44.89001612528545" lon="8.013595246249292"><ele>189.0</ele><time>2026-04-19T08:43:42.999Z</time></trkpt><trkpt lat="44.889948095301236" lon="8.013586162389613"><ele>189.0</ele><time>2026-04-19T08:43:43.999Z</time></trkpt><trkpt lat="44.889848577825994" lon="8.013488053702124"><ele>189.0</ele><time>2026-04-19T08:43:45.999Z</time></trkpt><trkpt lat="44.889803093796935" lon="8.013360254387678"><ele>189.0</ele><time>2026-04-19T08:43:47.999Z</time></trkpt><trkpt lat="44.88984778981993" lon="8.013273331327339"><ele>189.0</ele><time>2026-04-19T08:43:49.999Z</time></trkpt><trkpt lat="44.889914125263566" lon="8.013167975902084"><ele>189.0</ele><time>2026-04-19T08:43:51.999Z</time></trkpt><trkpt lat="44.89000333641608" lon="8.013048470745689"><ele>188.2</ele><time>2026-04-19T08:43:53.999Z</time></trkpt><trkpt lat="44.89005969871212" lon="8.01291977259797"><ele>187.39999999999998</ele><time>2026-04-19T08:43:55.999Z</time></trkpt><trkpt lat="44.89015546893093" lon="8.012810569380015"><ele>186.6</ele><time>2026-04-19T08:43:57.999Z</time></trkpt><trkpt lat="44.89021028955099" lon="8.012721668548972"><ele>185.8</ele><time>2026-04-19T08:43:58.999Z</time></trkpt><trkpt lat="44.89028201244505" lon="8.012634091547856"><ele>185.0</ele><time>2026-04-19T08:43:59.999Z</time></trkpt><trkpt lat="44.89034987398372" lon="8.01257637116216"><ele>185.0</ele><time>2026-04-19T08:44:00.999Z</time></trkpt><trkpt lat="44.8904023555511" lon="8.012499938934194"><ele>185.0</ele><time>2026-04-19T08:44:01.999Z</time></trkpt><trkpt lat="44.89045139783104" lon="8.012397364625535"><ele>185.0</ele><time>2026-04-19T08:44:02.999Z</time></trkpt><trkpt lat="44.8905017188782" lon="8.012233736984479"><ele>185.0</ele><time>2026-04-19T08:44:04Z</time></trkpt><trkpt lat="44.89057370767393" lon="8.012039440132646"><ele>185.0</ele><time>2026-04-19T08:44:05Z</time></trkpt><trkpt lat="44.89065520068618" lon="8.011864003210574"><ele>183.75</ele><time>2026-04-19T08:44:06Z</time></trkpt><trkpt lat="44.890730415235524" lon="8.011691948809233"><ele>182.5</ele><time>2026-04-19T08:44:07Z</time></trkpt><trkpt lat="44.890801692756014" lon="8.011518115877994"><ele>181.25</ele><time>2026-04-19T08:44:08Z</time></trkpt><trkpt lat="44.89087031771869" lon="8.011354114763623"><ele>180.0</ele><time>2026-04-19T08:44:09Z</time></trkpt><trkpt lat="44.890937883824144" lon="8.011197623070107"><ele>179.0</ele><time>2026-04-19T08:44:10Z</time></trkpt><trkpt lat="44.891004980713745" lon="8.011044255964443"><ele>178.0</ele><time>2026-04-19T08:44:11Z</time></trkpt><trkpt lat="44.89106666509999" lon="8.010884983032815"><ele>177.0</ele><time>2026-04-19T08:44:12Z</time></trkpt><trkpt lat="44.891133017607295" lon="8.010723631001097"><ele>176.0</ele><time>2026-04-19T08:44:13Z</time></trkpt><trkpt lat="44.89119841177843" lon="8.01056352694343"><ele>176.0</ele><time>2026-04-19T08:44:14Z</time></trkpt><trkpt lat="44.891263946334604" lon="8.010417599935973"><ele>176.0</ele><time>2026-04-19T08:44:15Z</time></trkpt><trkpt lat="44.891330836842265" lon="8.010265926040368"><ele>176.0</ele><time>2026-04-19T08:44:16Z</time></trkpt><trkpt lat="44.89139158448806" lon="8.010131552670444"><ele>176.0</ele><time>2026-04-19T08:44:17Z</time></trkpt><trkpt lat="44.89144568379035" lon="8.010002406159192"><ele>176.16666666666666</ele><time>2026-04-19T08:44:18Z</time></trkpt><trkpt lat="44.891502614948806" lon="8.009879539392804"><ele>176.33333333333331</ele><time>2026-04-19T08:44:19Z</time></trkpt><trkpt lat="44.89155005079934" lon="8.009763243294138"><ele>176.5</ele><time>2026-04-19T08:44:20Z</time></trkpt><trkpt lat="44.891596073383994" lon="8.00966111507765"><ele>176.66666666666666</ele><time>2026-04-19T08:44:21Z</time></trkpt><trkpt lat="44.89163130799821" lon="8.00958466030731"><ele>176.83333333333334</ele><time>2026-04-19T08:44:22Z</time></trkpt><trkpt lat="44.89163766178064" lon="8.00948788003034"><ele>177.0</ele><time>2026-04-19T08:44:25Z</time></trkpt><trkpt lat="44.891521218103605" lon="8.009421534974983"><ele>177.0</ele><time>2026-04-19T08:44:30Z</time></trkpt><trkpt lat="44.89142832808402" lon="8.00936277593232"><ele>177.0</ele><time>2026-04-19T08:44:31Z</time></trkpt><trkpt lat="44.89135595226456" lon="8.009316784053665"><ele>177.0</ele><time>2026-04-19T08:44:32Z</time></trkpt><trkpt lat="44.891282273373406" lon="8.009328693095465"><ele>177.0</ele><time>2026-04-19T08:44:35Z</time></trkpt><trkpt lat="44.89120388934066" lon="8.00930586950369"><ele>177.0</ele><time>2026-04-19T08:44:38Z</time></trkpt><trkpt lat="44.89108789863579" lon="8.009255943454315"><ele>177.0</ele><time>2026-04-19T08:44:40Z</time></trkpt><trkpt lat="44.89101925388887" lon="8.009259406369685"><ele>177.0</ele><time>2026-04-19T08:44:41Z</time></trkpt><trkpt lat="44.890955353584566" lon="8.0091926616865"><ele>177.0</ele><time>2026-04-19T08:44:43Z</time></trkpt><trkpt lat="44.890913259001834" lon="8.009081454868532"><ele>177.0</ele><time>2026-04-19T08:44:45Z</time></trkpt><trkpt lat="44.890886673437095" lon="8.008999737098936"><ele>177.0</ele><time>2026-04-19T08:44:48Z</time></trkpt><trkpt lat="44.890851992594264" lon="8.008920604433793"><ele>177.0</ele><time>2026-04-19T08:44:54Z</time></trkpt><trkpt lat="44.890774053307275" lon="8.008832108357389"><ele>178.0</ele><time>2026-04-19T08:44:56Z</time></trkpt><trkpt lat="44.890718027558" lon="8.008718812655692"><ele>179.0</ele><time>2026-04-19T08:44:58Z</time></trkpt><trkpt lat="44.890653043697796" lon="8.00863819956138"><ele>180.0</ele><time>2026-04-19T08:45:00Z</time></trkpt><trkpt lat="44.890564882404156" lon="8.008619956533789"><ele>181.0</ele><time>2026-04-19T08:45:03Z</time></trkpt><trkpt lat="44.89048279566354" lon="8.00863098805455"><ele>182.0</ele><time>2026-04-19T08:45:05Z</time></trkpt><trkpt lat="44.890401431039265" lon="8.008696773904614"><ele>182.0</ele><time>2026-04-19T08:45:08Z</time></trkpt><trkpt lat="44.89035396071569" lon="8.00875589797687"><ele>182.0</ele><time>2026-04-19T08:45:09Z</time></trkpt><trkpt lat="44.89027370792744" lon="8.008796532555595"><ele>182.0</ele><time>2026-04-19T08:45:11Z</time></trkpt><trkpt lat="44.89019555878696" lon="8.008748919317673"><ele>182.0</ele><time>2026-04-19T08:45:14Z</time></trkpt><trkpt lat="44.890131908025296" lon="8.00870945583093"><ele>182.0</ele><time>2026-04-19T08:45:15Z</time></trkpt><trkpt lat="44.89005186623696" lon="8.008693916753867"><ele>182.0</ele><time>2026-04-19T08:45:16Z</time></trkpt><trkpt lat="44.889987546733096" lon="8.008697614723678"><ele>182.0</ele><time>2026-04-19T08:45:17Z</time></trkpt><trkpt lat="44.889924768080974" lon="8.008756898007"><ele>181.83333333333331</ele><time>2026-04-19T08:45:18.999Z</time></trkpt><trkpt lat="44.88986818398203" lon="8.008818850689892"><ele>181.66666666666666</ele><time>2026-04-19T08:45:20.999Z</time></trkpt><trkpt lat="44.88976224802692" lon="8.00883616378806"><ele>181.5</ele><time>2026-04-19T08:45:22.999Z</time></trkpt><trkpt lat="44.88972982366095" lon="8.008741599226218"><ele>181.33333333333334</ele><time>2026-04-19T08:45:27.999Z</time></trkpt><trkpt lat="44.889659948476" lon="8.008724253326644"><ele>181.16666666666669</ele><time>2026-04-19T08:45:32.999Z</time></trkpt><trkpt lat="44.88957024385461" lon="8.008796129597663"><ele>181.0</ele><time>2026-04-19T08:45:34.999Z</time></trkpt><trkpt lat="44.88946293578836" lon="8.008846052696256"><ele>181.0</ele><time>2026-04-19T08:45:36.999Z</time></trkpt><trkpt lat="44.88939885447302" lon="8.008866257701412"><ele>181.0</ele><time>2026-04-19T08:45:38.999Z</time></trkpt><trkpt lat="44.88928579680074" lon="8.008900370797555"><ele>181.0</ele><time>2026-04-19T08:45:40.999Z</time></trkpt><trkpt lat="44.889182580798746" lon="8.008928156180616"><ele>181.0</ele><time>2026-04-19T08:45:42.999Z</time></trkpt><trkpt lat="44.88911575515083" lon="8.00893484197714"><ele>181.0</ele><time>2026-04-19T08:45:45.999Z</time></trkpt><trkpt lat="44.8890007176311" lon="8.008955920710129"><ele>181.60000000000002</ele><time>2026-04-19T08:45:48.999Z</time></trkpt><trkpt lat="44.888914886533854" lon="8.00898850640858"><ele>182.2</ele><time>2026-04-19T08:45:50.999Z</time></trkpt><trkpt lat="44.88879609628492" lon="8.008977829906353"><ele>182.8</ele><time>2026-04-19T08:45:52.999Z</time></trkpt><trkpt lat="44.88868846557325" lon="8.008969658022018"><ele>183.39999999999998</ele><time>2026-04-19T08:45:54.999Z</time></trkpt><trkpt lat="44.88864670920456" lon="8.009043296104524"><ele>184.0</ele><time>2026-04-19T08:45:57.999Z</time></trkpt><trkpt lat="44.88856938609704" lon="8.009114725448823"><ele>184.0</ele><time>2026-04-19T08:45:59.999Z</time></trkpt><trkpt lat="44.88846619540203" lon="8.009097580512009"><ele>184.0</ele><time>2026-04-19T08:46:01.999Z</time></trkpt><trkpt lat="44.888404657986406" lon="8.009071597869449"><ele>184.0</ele><time>2026-04-19T08:46:02.999Z</time></trkpt><trkpt lat="44.888326417371196" lon="8.009054135570876"><ele>184.0</ele><time>2026-04-19T08:46:03.999Z</time></trkpt><trkpt lat="44.88824761094769" lon="8.009052090951158"><ele>184.0</ele><time>2026-04-19T08:46:04.999Z</time></trkpt><trkpt lat="44.88814858941305" lon="8.009098832782403"><ele>184.0</ele><time>2026-04-19T08:46:06.999Z</time></trkpt><trkpt lat="44.88807492238329" lon="8.009198931279137"><ele>184.33333333333334</ele><time>2026-04-19T08:46:08.999Z</time></trkpt><trkpt lat="44.88799200545129" lon="8.009250321511773"><ele>184.66666666666669</ele><time>2026-04-19T08:46:11Z</time></trkpt><trkpt lat="44.88790182345912" lon="8.009259321557328"><ele>185.0</ele><time>2026-04-19T08:46:13Z</time></trkpt><trkpt lat="44.88787650982048" lon="8.00915503642818"><ele>185.33333333333334</ele><time>2026-04-19T08:46:16Z</time></trkpt><trkpt lat="44.88780539811813" lon="8.009104776810052"><ele>185.66666666666666</ele><time>2026-04-19T08:46:18Z</time></trkpt><trkpt lat="44.8877288928146" lon="8.00907233981868"><ele>186.0</ele><time>2026-04-19T08:46:21Z</time></trkpt><trkpt lat="44.887649197874154" lon="8.008999739238208"><ele>186.0</ele><time>2026-04-19T08:46:23Z</time></trkpt><trkpt lat="44.88757752635315" lon="8.008948740828027"><ele>186.0</ele><time>2026-04-19T08:46:25Z</time></trkpt><trkpt lat="44.88751177000636" lon="8.00898846374551"><ele>186.0</ele><time>2026-04-19T08:46:27Z</time></trkpt><trkpt lat="44.887450282782375" lon="8.00905432178317"><ele>186.0</ele><time>2026-04-19T08:46:30Z</time></trkpt><trkpt lat="44.88737075369367" lon="8.009109030103113"><ele>186.0</ele><time>2026-04-19T08:46:32Z</time></trkpt><trkpt lat="44.88731299006454" lon="8.00917414633534"><ele>186.0</ele><time>2026-04-19T08:46:34Z</time></trkpt><trkpt lat="44.88727655078325" lon="8.009265692567702"><ele>186.0</ele><time>2026-04-19T08:46:37Z</time></trkpt><trkpt lat="44.887198531813276" lon="8.00933181216435"><ele>186.0</ele><time>2026-04-19T08:46:40Z</time></trkpt><trkpt lat="44.88713919123448" lon="8.009376084920643"><ele>186.0</ele><time>2026-04-19T08:46:41Z</time></trkpt><trkpt lat="44.88708823217962" lon="8.009441561771776"><ele>186.0</ele><time>2026-04-19T08:46:43Z</time></trkpt><trkpt lat="44.88703220238508" lon="8.009503208487372"><ele>186.0</ele><time>2026-04-19T08:46:45Z</time></trkpt><trkpt lat="44.88697003339205" lon="8.00957084233317"><ele>186.0</ele><time>2026-04-19T08:46:47Z</time></trkpt><trkpt lat="44.88688294616987" lon="8.009634026610865"><ele>186.0</ele><time>2026-04-19T08:46:49Z</time></trkpt><trkpt lat="44.886798206206244" lon="8.009686596042547"><ele>186.0</ele><time>2026-04-19T08:46:50Z</time></trkpt><trkpt lat="44.88670250975748" lon="8.009737960519143"><ele>186.0</ele><time>2026-04-19T08:46:52Z</time></trkpt><trkpt lat="44.88662520131596" lon="8.009757218924737"><ele>186.0</ele><time>2026-04-19T08:46:55Z</time></trkpt><trkpt lat="44.88657110391882" lon="8.009834114869468"><ele>186.0</ele><time>2026-04-19T08:46:57Z</time></trkpt><trkpt lat="44.88645049450527" lon="8.009869656361365"><ele>186.16666666666666</ele><time>2026-04-19T08:46:59Z</time></trkpt><trkpt lat="44.88637541682606" lon="8.00990687804703"><ele>186.33333333333334</ele><time>2026-04-19T08:47:01Z</time></trkpt><trkpt lat="44.886311469474435" lon="8.009942177053523"><ele>186.5</ele><time>2026-04-19T08:47:03Z</time></trkpt><trkpt lat="44.886214679873916" lon="8.009999194803768"><ele>186.66666666666669</ele><time>2026-04-19T08:47:06Z</time></trkpt><trkpt lat="44.886137015191196" lon="8.01005602270621"><ele>186.83333333333334</ele><time>2026-04-19T08:47:08Z</time></trkpt><trkpt lat="44.8860704222164" lon="8.010130040589937"><ele>187.0</ele><time>2026-04-19T08:47:10Z</time></trkpt><trkpt lat="44.88601547725304" lon="8.010229642752039"><ele>187.0</ele><time>2026-04-19T08:47:12Z</time></trkpt><trkpt lat="44.885967653180316" lon="8.010304145773157"><ele>187.0</ele><time>2026-04-19T08:47:13Z</time></trkpt><trkpt lat="44.8859003339283" lon="8.010383570862183"><ele>187.0</ele><time>2026-04-19T08:47:14Z</time></trkpt><trkpt lat="44.88582368291182" lon="8.010428881941763"><ele>187.0</ele><time>2026-04-19T08:47:15Z</time></trkpt><trkpt lat="44.88570643955878" lon="8.010467503496299"><ele>187.0</ele><time>2026-04-19T08:47:17Z</time></trkpt><trkpt lat="44.88563936948203" lon="8.010480629577698"><ele>187.0</ele><time>2026-04-19T08:47:18Z</time></trkpt><trkpt lat="44.88552613935349" lon="8.010538144184585"><ele>187.0</ele><time>2026-04-19T08:47:20Z</time></trkpt><trkpt lat="44.88547026638409" lon="8.010585725335249"><ele>187.0</ele><time>2026-04-19T08:47:20.999Z</time></trkpt><trkpt lat="44.88535336468802" lon="8.010659508740506"><ele>187.0</ele><time>2026-04-19T08:47:22.999Z</time></trkpt><trkpt lat="44.88529926469832" lon="8.010714597361288"><ele>187.0</ele><time>2026-04-19T08:47:23.999Z</time></trkpt><trkpt lat="44.88524914943303" lon="8.010772838657363"><ele>187.0</ele><time>2026-04-19T08:47:24.999Z</time></trkpt><trkpt lat="44.88512933594138" lon="8.01086811459351"><ele>187.5</ele><time>2026-04-19T08:47:26.999Z</time></trkpt><trkpt lat="44.88504728670593" lon="8.010904637389295"><ele>188.0</ele><time>2026-04-19T08:47:27.999Z</time></trkpt><trkpt lat="44.88497846164633" lon="8.010930373978868"><ele>188.5</ele><time>2026-04-19T08:47:28.999Z</time></trkpt><trkpt lat="44.88492371423099" lon="8.01097441536455"><ele>189.0</ele><time>2026-04-19T08:47:29.999Z</time></trkpt><trkpt lat="44.884849574032856" lon="8.011064188027534"><ele>189.5</ele><time>2026-04-19T08:47:31.999Z</time></trkpt><trkpt lat="44.884767923861396" lon="8.011175459440832"><ele>190.0</ele><time>2026-04-19T08:47:33.999Z</time></trkpt><trkpt lat="44.88468282029994" lon="8.011287123318528"><ele>190.0</ele><time>2026-04-19T08:47:35.999Z</time></trkpt><trkpt lat="44.88457095711498" lon="8.01134197559717"><ele>190.0</ele><time>2026-04-19T08:47:37.999Z</time></trkpt><trkpt lat="44.884506758499256" lon="8.011337292627685"><ele>190.0</ele><time>2026-04-19T08:47:38.999Z</time></trkpt><trkpt lat="44.884434628434285" lon="8.011327987461788"><ele>190.0</ele><time>2026-04-19T08:47:39.999Z</time></trkpt><trkpt lat="44.88436547078924" lon="8.011317368553922"><ele>190.0</ele><time>2026-04-19T08:47:40.999Z</time></trkpt><trkpt lat="44.88429734688905" lon="8.011328703765585"><ele>190.0</ele><time>2026-04-19T08:47:41.999Z</time></trkpt><trkpt lat="44.884173705050586" lon="8.011350848139625"><ele>190.83333333333334</ele><time>2026-04-19T08:47:43.999Z</time></trkpt><trkpt lat="44.884107545457624" lon="8.011334500944978"><ele>191.66666666666669</ele><time>2026-04-19T08:47:44.999Z</time></trkpt><trkpt lat="44.88404118307613" lon="8.011332107747895"><ele>192.5</ele><time>2026-04-19T08:47:45.999Z</time></trkpt><trkpt lat="44.883973358267305" lon="8.011327075350222"><ele>193.33333333333334</ele><time>2026-04-19T08:47:46.999Z</time></trkpt><trkpt lat="44.88390551268275" lon="8.011339742602525"><ele>194.16666666666666</ele><time>2026-04-19T08:47:47.999Z</time></trkpt><trkpt lat="44.883813648350646" lon="8.011361198577909"><ele>195.0</ele><time>2026-04-19T08:47:49.999Z</time></trkpt><trkpt lat="44.883691969293956" lon="8.011342728035554"><ele>195.0</ele><time>2026-04-19T08:47:51.999Z</time></trkpt><trkpt lat="44.8836517473975" lon="8.011258107122245"><ele>195.0</ele><time>2026-04-19T08:47:53.999Z</time></trkpt><trkpt lat="44.883568489514666" lon="8.011321420065673"><ele>195.0</ele><time>2026-04-19T08:47:55.999Z</time></trkpt><trkpt lat="44.88350534137991" lon="8.011349959835243"><ele>195.0</ele><time>2026-04-19T08:47:56.999Z</time></trkpt><trkpt lat="44.883442699169976" lon="8.011399571571218"><ele>195.0</ele><time>2026-04-19T08:47:57.999Z</time></trkpt><trkpt lat="44.88337980520298" lon="8.01142607024345"><ele>195.0</ele><time>2026-04-19T08:47:58.999Z</time></trkpt><trkpt lat="44.883313145334135" lon="8.011441558368018"><ele>195.0</ele><time>2026-04-19T08:47:59.999Z</time></trkpt><trkpt lat="44.88320991831792" lon="8.01135613673728"><ele>195.4</ele><time>2026-04-19T08:48:01.999Z</time></trkpt><trkpt lat="44.88311076640193" lon="8.01134823967485"><ele>195.8</ele><time>2026-04-19T08:48:03.999Z</time></trkpt><trkpt lat="44.88300089160712" lon="8.011291454754776"><ele>196.2</ele><time>2026-04-19T08:48:05.999Z</time></trkpt><trkpt lat="44.88288195778328" lon="8.011224782021994"><ele>196.6</ele><time>2026-04-19T08:48:07.999Z</time></trkpt><trkpt lat="44.882816921376644" lon="8.011226317196778"><ele>197.0</ele><time>2026-04-19T08:48:08.999Z</time></trkpt><trkpt lat="44.88270566506859" lon="8.011250798172668"><ele>197.00000000000003</ele><time>2026-04-19T08:48:10.999Z</time></trkpt><trkpt lat="44.88264091708016" lon="8.011259160255593"><ele>197.0</ele><time>2026-04-19T08:48:12.999Z</time></trkpt><trkpt lat="44.88256046665413" lon="8.011285876149389"><ele>197.0</ele><time>2026-04-19T08:48:14.999Z</time></trkpt><trkpt lat="44.88249063462212" lon="8.011322277880152"><ele>197.0</ele><time>2026-04-19T08:48:17Z</time></trkpt><trkpt lat="44.88241852962116" lon="8.011379628496986"><ele>197.00000000000003</ele><time>2026-04-19T08:48:18Z</time></trkpt><trkpt lat="44.882340033090834" lon="8.01139993045262"><ele>197.0</ele><time>2026-04-19T08:48:19Z</time></trkpt><trkpt lat="44.88224933858993" lon="8.01138214395854"><ele>196.50000000000003</ele><time>2026-04-19T08:48:20Z</time></trkpt><trkpt lat="44.88216691563768" lon="8.011370053236906"><ele>196.0</ele><time>2026-04-19T08:48:22Z</time></trkpt><trkpt lat="44.88210013810638" lon="8.011399528834925"><ele>195.5</ele><time>2026-04-19T08:48:23Z</time></trkpt><trkpt lat="44.882028239047806" lon="8.01141176784571"><ele>195.0</ele><time>2026-04-19T08:48:24Z</time></trkpt><trkpt lat="44.88194477556469" lon="8.011434123482829"><ele>194.50000000000003</ele><time>2026-04-19T08:48:26Z</time></trkpt><trkpt lat="44.881844849217636" lon="8.011411318082862"><ele>194.0</ele><time>2026-04-19T08:48:28Z</time></trkpt><trkpt lat="44.881751212637184" lon="8.01141252103708"><ele>194.00000000000003</ele><time>2026-04-19T08:48:30Z</time></trkpt><trkpt lat="44.88166926735844" lon="8.011335063383763"><ele>194.0</ele><time>2026-04-19T08:48:32Z</time></trkpt><trkpt lat="44.881605452662" lon="8.011361094341392"><ele>194.0</ele><time>2026-04-19T08:48:34Z</time></trkpt><trkpt lat="44.881544431988715" lon="8.011406841256228"><ele>194.0</ele><time>2026-04-19T08:48:35Z</time></trkpt><trkpt lat="44.881482384022256" lon="8.011441530196404"><ele>194.00000000000003</ele><time>2026-04-19T08:48:36Z</time></trkpt><trkpt lat="44.881384769954494" lon="8.01147464867024"><ele>194.0</ele><time>2026-04-19T08:48:37Z</time></trkpt><trkpt lat="44.88128448412212" lon="8.011534426766111"><ele>194.0</ele><time>2026-04-19T08:48:39Z</time></trkpt><trkpt lat="44.88119070485653" lon="8.011632195680333"><ele>194.0</ele><time>2026-04-19T08:48:41Z</time></trkpt><trkpt lat="44.881061592043295" lon="8.011608082944017"><ele>194.0</ele><time>2026-04-19T08:48:43Z</time></trkpt><trkpt lat="44.88099703096865" lon="8.011569387568834"><ele>194.0</ele><time>2026-04-19T08:48:44Z</time></trkpt><trkpt lat="44.880922820368845" lon="8.011613029141223"><ele>194.0</ele><time>2026-04-19T08:48:46Z</time></trkpt><trkpt lat="44.88089952809326" lon="8.011743218578431"><ele>193.83333333333334</ele><time>2026-04-19T08:48:48Z</time></trkpt><trkpt lat="44.88083435664848" lon="8.011812800930894"><ele>193.66666666666669</ele><time>2026-04-19T08:48:50Z</time></trkpt><trkpt lat="44.88076515698894" lon="8.011823179739562"><ele>193.5</ele><time>2026-04-19T08:48:52Z</time></trkpt><trkpt lat="44.880689745785666" lon="8.011870201416416"><ele>193.33333333333331</ele><time>2026-04-19T08:48:56Z</time></trkpt><trkpt lat="44.88062599948456" lon="8.011960793716673"><ele>193.16666666666666</ele><time>2026-04-19T08:48:59Z</time></trkpt><trkpt lat="44.88053266995649" lon="8.012057881241766"><ele>193.0</ele><time>2026-04-19T08:49:01Z</time></trkpt><trkpt lat="44.880427846276845" lon="8.012135053300751"><ele>192.99999999999997</ele><time>2026-04-19T08:49:03Z</time></trkpt><trkpt lat="44.8803394987757" lon="8.012187921758704"><ele>193.0</ele><time>2026-04-19T08:49:05Z</time></trkpt><trkpt lat="44.88027358338949" lon="8.01220758155613"><ele>193.0</ele><time>2026-04-19T08:49:07Z</time></trkpt><trkpt lat="44.88020268839385" lon="8.012208265249267"><ele>193.0</ele><time>2026-04-19T08:49:08Z</time></trkpt><trkpt lat="44.88014093987881" lon="8.012170233292718"><ele>192.99999999999997</ele><time>2026-04-19T08:49:09Z</time></trkpt><trkpt lat="44.88004812893929" lon="8.012181270278404"><ele>193.0</ele><time>2026-04-19T08:49:11Z</time></trkpt><trkpt lat="44.88000060052754" lon="8.012282051290793"><ele>193.60000000000002</ele><time>2026-04-19T08:49:13Z</time></trkpt><trkpt lat="44.87990995326523" lon="8.012276559482016"><ele>194.20000000000002</ele><time>2026-04-19T08:49:15Z</time></trkpt><trkpt lat="44.87982548197502" lon="8.012270622769453"><ele>194.8</ele><time>2026-04-19T08:49:17Z</time></trkpt><trkpt lat="44.879752133827544" lon="8.012397701143875"><ele>195.4</ele><time>2026-04-19T08:49:21Z</time></trkpt><trkpt lat="44.87968525432036" lon="8.012471085105963"><ele>196.0</ele><time>2026-04-19T08:49:22Z</time></trkpt><trkpt lat="44.8796184329" lon="8.012515629609096"><ele>196.0</ele><time>2026-04-19T08:49:23Z</time></trkpt><trkpt lat="44.8795528279329" lon="8.012546956639968"><ele>196.0</ele><time>2026-04-19T08:49:24Z</time></trkpt><trkpt lat="44.87945805695548" lon="8.012584174071133"><ele>196.0</ele><time>2026-04-19T08:49:26Z</time></trkpt><trkpt lat="44.87935364855986" lon="8.012607699042352"><ele>196.0</ele><time>2026-04-19T08:49:27.999Z</time></trkpt><trkpt lat="44.879254546475465" lon="8.012620606853988"><ele>196.0</ele><time>2026-04-19T08:49:29.999Z</time></trkpt><trkpt lat="44.879151763088004" lon="8.012621351792484"><ele>196.0</ele><time>2026-04-19T08:49:31.999Z</time></trkpt><trkpt lat="44.87906829572785" lon="8.012636828559279"><ele>196.0</ele><time>2026-04-19T08:49:33.999Z</time></trkpt><trkpt lat="44.878965650806144" lon="8.012695430510092"><ele>196.0</ele><time>2026-04-19T08:49:35.999Z</time></trkpt><trkpt lat="44.87886114788172" lon="8.01272976104689"><ele>196.0</ele><time>2026-04-19T08:49:37.999Z</time></trkpt><trkpt lat="44.87878703862366" lon="8.012793670256634"><ele>196.0</ele><time>2026-04-19T08:49:39.999Z</time></trkpt><trkpt lat="44.87873653535083" lon="8.012861049510226"><ele>196.0</ele><time>2026-04-19T08:49:41.999Z</time></trkpt><trkpt lat="44.878662734510186" lon="8.012854103083322"><ele>196.0</ele><time>2026-04-19T08:49:42.999Z</time></trkpt><trkpt lat="44.878615502792584" lon="8.012961666328449"><ele>196.0</ele><time>2026-04-19T08:49:45.999Z</time></trkpt><trkpt lat="44.87856128079032" lon="8.013070737170075"><ele>196.0</ele><time>2026-04-19T08:49:51.999Z</time></trkpt><trkpt lat="44.87847026444059" lon="8.013158387589081"><ele>196.0</ele><time>2026-04-19T08:49:53.999Z</time></trkpt><trkpt lat="44.8784265454439" lon="8.01325741221638"><ele>196.8</ele><time>2026-04-19T08:49:54.999Z</time></trkpt><trkpt lat="44.87834543907239" lon="8.013370704112548"><ele>197.60000000000002</ele><time>2026-04-19T08:49:56.999Z</time></trkpt><trkpt lat="44.878262278000996" lon="8.013472450038162"><ele>198.4</ele><time>2026-04-19T08:49:58.999Z</time></trkpt><trkpt lat="44.878175615671545" lon="8.013480752273127"><ele>199.2</ele><time>2026-04-19T08:50:00.999Z</time></trkpt><trkpt lat="44.87804668826162" lon="8.013475339673617"><ele>200.0</ele><time>2026-04-19T08:50:02.999Z</time></trkpt><trkpt lat="44.87797360834174" lon="8.013490921421338"><ele>200.00000000000003</ele><time>2026-04-19T08:50:03.999Z</time></trkpt><trkpt lat="44.877910697362246" lon="8.013527961091793"><ele>200.0</ele><time>2026-04-19T08:50:04.999Z</time></trkpt><trkpt lat="44.877822705887894" lon="8.013575290555554"><ele>200.0</ele><time>2026-04-19T08:50:06.999Z</time></trkpt><trkpt lat="44.87773456569349" lon="8.013662649639365"><ele>200.0</ele><time>2026-04-19T08:50:08.999Z</time></trkpt><trkpt lat="44.87767199512382" lon="8.01368329312848"><ele>200.00000000000003</ele><time>2026-04-19T08:50:10.999Z</time></trkpt><trkpt lat="44.87760909169063" lon="8.013782088835876"><ele>200.0</ele><time>2026-04-19T08:50:12.999Z</time></trkpt><trkpt lat="44.87758225838742" lon="8.013866163514905"><ele>200.0</ele><time>2026-04-19T08:50:14.999Z</time></trkpt><trkpt lat="44.87757303625068" lon="8.014032178704085"><ele>200.0</ele><time>2026-04-19T08:50:16.999Z</time></trkpt><trkpt lat="44.877528342872026" lon="8.01409677091907"><ele>200.0</ele><time>2026-04-19T08:50:17.999Z</time></trkpt><trkpt lat="44.87746308551203" lon="8.014231573918645"><ele>200.0</ele><time>2026-04-19T08:50:19.999Z</time></trkpt><trkpt lat="44.87738695813387" lon="8.014297699442938"><ele>200.0</ele><time>2026-04-19T08:50:22Z</time></trkpt><trkpt lat="44.87733582479078" lon="8.014421320434867"><ele>200.0</ele><time>2026-04-19T08:50:24Z</time></trkpt><trkpt lat="44.87729665004946" lon="8.014568471399002"><ele>200.0</ele><time>2026-04-19T08:50:26Z</time></trkpt><trkpt lat="44.877239049690125" lon="8.014615856631206"><ele>200.0</ele><time>2026-04-19T08:50:27Z</time></trkpt><trkpt lat="44.87712837942194" lon="8.014651841632338"><ele>200.0</ele><time>2026-04-19T08:50:29Z</time></trkpt><trkpt lat="44.8770676455304" lon="8.014684897849785"><ele>200.0</ele><time>2026-04-19T08:50:30Z</time></trkpt><trkpt lat="44.87696035776146" lon="8.014743627819925"><ele>200.00000000000003</ele><time>2026-04-19T08:50:32Z</time></trkpt><trkpt lat="44.87686643001365" lon="8.014809116173968"><ele>200.0</ele><time>2026-04-19T08:50:34Z</time></trkpt><trkpt lat="44.8767980595431" lon="8.014884177949659"><ele>200.0</ele><time>2026-04-19T08:50:36Z</time></trkpt><trkpt lat="44.87673826675863" lon="8.014980877160983"><ele>200.0</ele><time>2026-04-19T08:50:38Z</time></trkpt><trkpt lat="44.87673776235886" lon="8.015081647694494"><ele>200.00000000000003</ele><time>2026-04-19T08:50:40Z</time></trkpt><trkpt lat="44.87664598591486" lon="8.015110731382068"><ele>200.0</ele><time>2026-04-19T08:50:42Z</time></trkpt><trkpt lat="44.87657902338846" lon="8.015249507640748"><ele>199.2</ele><time>2026-04-19T08:50:44Z</time></trkpt><trkpt lat="44.87647859388056" lon="8.015260471579946"><ele>198.4</ele><time>2026-04-19T08:50:46Z</time></trkpt><trkpt lat="44.87642262941762" lon="8.015355156224631"><ele>197.60000000000002</ele><time>2026-04-19T08:50:48Z</time></trkpt><trkpt lat="44.87631161557647" lon="8.015366473938032"><ele>196.8</ele><time>2026-04-19T08:50:50Z</time></trkpt><trkpt lat="44.876240845565576" lon="8.015273681897721"><ele>196.0</ele><time>2026-04-19T08:50:52Z</time></trkpt><trkpt lat="44.876134971414054" lon="8.01529356636114"><ele>196.0</ele><time>2026-04-19T08:50:55Z</time></trkpt><trkpt lat="44.87607351070564" lon="8.015365356525022"><ele>196.0</ele><time>2026-04-19T08:50:56Z</time></trkpt><trkpt lat="44.875965687496375" lon="8.015443506633478"><ele>196.0</ele><time>2026-04-19T08:50:58Z</time></trkpt><trkpt lat="44.87590091329611" lon="8.015527152353386"><ele>196.0</ele><time>2026-04-19T08:51:00Z</time></trkpt><trkpt lat="44.87581010166705" lon="8.015590461269962"><ele>196.0</ele><time>2026-04-19T08:51:02Z</time></trkpt><trkpt lat="44.87577663840028" lon="8.015672536652792"><ele>196.83333333333331</ele><time>2026-04-19T08:51:03Z</time></trkpt><trkpt lat="44.875730839518916" lon="8.015791860330802"><ele>197.66666666666666</ele><time>2026-04-19T08:51:04Z</time></trkpt><trkpt lat="44.87567092749871" lon="8.0158764813819"><ele>198.5</ele><time>2026-04-19T08:51:06Z</time></trkpt><trkpt lat="44.875631705112994" lon="8.015979206402942"><ele>199.33333333333331</ele><time>2026-04-19T08:51:08Z</time></trkpt><trkpt lat="44.87559802588514" lon="8.016060044417705"><ele>200.16666666666666</ele><time>2026-04-19T08:51:11Z</time></trkpt><trkpt lat="44.87551393740291" lon="8.016100074099485"><ele>201.0</ele><time>2026-04-19T08:51:13Z</time></trkpt><trkpt lat="44.87540051297441" lon="8.0161255980051"><ele>201.0</ele><time>2026-04-19T08:51:15Z</time></trkpt><trkpt lat="44.87531048675306" lon="8.016212226849921"><ele>201.0</ele><time>2026-04-19T08:51:17Z</time></trkpt><trkpt lat="44.87524800401736" lon="8.016297592256368"><ele>201.0</ele><time>2026-04-19T08:51:19Z</time></trkpt><trkpt lat="44.87519830267788" lon="8.016372169025276"><ele>201.0</ele><time>2026-04-19T08:51:21Z</time></trkpt><trkpt lat="44.87510075042464" lon="8.016447398722947"><ele>201.0</ele><time>2026-04-19T08:51:23Z</time></trkpt><trkpt lat="44.87501907677274" lon="8.016487907515527"><ele>201.66666666666666</ele><time>2026-04-19T08:51:25Z</time></trkpt><trkpt lat="44.874950000968944" lon="8.016560509540778"><ele>202.33333333333331</ele><time>2026-04-19T08:51:27Z</time></trkpt><trkpt lat="44.87492993242904" lon="8.016727957173131"><ele>203.0</ele><time>2026-04-19T08:51:29Z</time></trkpt><trkpt lat="44.87484906163468" lon="8.016820449170027"><ele>203.66666666666666</ele><time>2026-04-19T08:51:31Z</time></trkpt><trkpt lat="44.87479335463531" lon="8.01686459646558"><ele>204.33333333333331</ele><time>2026-04-19T08:51:32.999Z</time></trkpt><trkpt lat="44.8747359973171" lon="8.016902628630449"><ele>205.0</ele><time>2026-04-19T08:51:34.999Z</time></trkpt><trkpt lat="44.87465865107368" lon="8.016945648172948"><ele>204.99999999999997</ele><time>2026-04-19T08:51:36.999Z</time></trkpt><trkpt lat="44.874562872796865" lon="8.01695203861802"><ele>205.0</ele><time>2026-04-19T08:51:39.999Z</time></trkpt><trkpt lat="44.874479964742164" lon="8.017012019471721"><ele>205.0</ele><time>2026-04-19T08:51:41.999Z</time></trkpt><trkpt lat="44.8744162925066" lon="8.017110148625202"><ele>205.0</ele><time>2026-04-19T08:51:43.999Z</time></trkpt><trkpt lat="44.87437466043236" lon="8.017209461312362"><ele>204.99999999999997</ele><time>2026-04-19T08:51:47.999Z</time></trkpt><trkpt lat="44.874328083276865" lon="8.01728579290942"><ele>205.0</ele><time>2026-04-19T08:51:49.999Z</time></trkpt><trkpt lat="44.874218295429635" lon="8.017371381757167"><ele>204.99999999999997</ele><time>2026-04-19T08:51:51.999Z</time></trkpt><trkpt lat="44.87415055791841" lon="8.017398423207792"><ele>205.0</ele><time>2026-04-19T08:51:52.999Z</time></trkpt><trkpt lat="44.874035459482236" lon="8.017473664727797"><ele>205.0</ele><time>2026-04-19T08:51:54.999Z</time></trkpt><trkpt lat="44.87396602787754" lon="8.017503925396905"><ele>205.0</ele><time>2026-04-19T08:51:55.999Z</time></trkpt><trkpt lat="44.873878179903755" lon="8.017555732382474"><ele>204.99999999999997</ele><time>2026-04-19T08:51:57.999Z</time></trkpt><trkpt lat="44.87381722788471" lon="8.017584443908028"><ele>205.0</ele><time>2026-04-19T08:52:00.999Z</time></trkpt><trkpt lat="44.87374055612958" lon="8.017600381849114"><ele>204.99999999999997</ele><time>2026-04-19T08:52:11.999Z</time></trkpt><trkpt lat="44.873633314195324" lon="8.01765884909249"><ele>205.0</ele><time>2026-04-19T08:52:15.999Z</time></trkpt><trkpt lat="44.87352930070776" lon="8.017627666965033"><ele>205.0</ele><time>2026-04-19T08:52:17.999Z</time></trkpt><trkpt lat="44.873463531615386" lon="8.017634481109189"><ele>205.0</ele><time>2026-04-19T08:52:18.999Z</time></trkpt><trkpt lat="44.873398881719645" lon="8.017640503126158"><ele>204.99999999999997</ele><time>2026-04-19T08:52:19.999Z</time></trkpt><trkpt lat="44.873329504825044" lon="8.017607275846053"><ele>205.0</ele><time>2026-04-19T08:52:20.999Z</time></trkpt><trkpt lat="44.87321474811316" lon="8.017595142506938"><ele>204.83333333333331</ele><time>2026-04-19T08:52:22.999Z</time></trkpt><trkpt lat="44.87313941176923" lon="8.01757006946679"><ele>204.66666666666666</ele><time>2026-04-19T08:52:24.999Z</time></trkpt><trkpt lat="44.87304015850876" lon="8.017587514871787"><ele>204.5</ele><time>2026-04-19T08:52:26.999Z</time></trkpt><trkpt lat="44.87297331576262" lon="8.017585535996608"><ele>204.33333333333331</ele><time>2026-04-19T08:52:28Z</time></trkpt><trkpt lat="44.872871558405244" lon="8.017608889886956"><ele>204.16666666666666</ele><time>2026-04-19T08:52:30Z</time></trkpt><trkpt lat="44.87277293963664" lon="8.017607749252427"><ele>204.0</ele><time>2026-04-19T08:52:32Z</time></trkpt><trkpt lat="44.87270350765986" lon="8.017614250349617"><ele>204.0</ele><time>2026-04-19T08:52:33Z</time></trkpt><trkpt lat="44.87261291215216" lon="8.017597665914968"><ele>204.0</ele><time>2026-04-19T08:52:35Z</time></trkpt><trkpt lat="44.87251487601539" lon="8.017543645977437"><ele>204.0</ele><time>2026-04-19T08:52:37Z</time></trkpt><trkpt lat="44.872417365491785" lon="8.017523819577757"><ele>204.0</ele><time>2026-04-19T08:52:39Z</time></trkpt><trkpt lat="44.872337498193836" lon="8.017439846912238"><ele>204.0</ele><time>2026-04-19T08:52:41Z</time></trkpt><trkpt lat="44.872241688958674" lon="8.01742537415467"><ele>204.0</ele><time>2026-04-19T08:52:43Z</time></trkpt><trkpt lat="44.87217476796339" lon="8.017465821467098"><ele>204.0</ele><time>2026-04-19T08:52:46Z</time></trkpt><trkpt lat="44.872169620853974" lon="8.017567854453922"><ele>204.0</ele><time>2026-04-19T08:52:50Z</time></trkpt><trkpt lat="44.87218849373389" lon="8.017656392208728"><ele>204.0</ele><time>2026-04-19T08:52:52Z</time></trkpt><trkpt lat="44.87218371547524" lon="8.01780116313978"><ele>204.0</ele><time>2026-04-19T08:52:55Z</time></trkpt><trkpt lat="44.87205837415717" lon="8.01795268139027"><ele>204.0</ele><time>2026-04-19T08:52:57Z</time></trkpt><trkpt lat="44.87193389953631" lon="8.01804100854284"><ele>204.0</ele><time>2026-04-19T08:52:58Z</time></trkpt><trkpt lat="44.87182999205594" lon="8.018106369847148"><ele>204.0</ele><time>2026-04-19T08:52:59Z</time></trkpt><trkpt lat="44.8717414303817" lon="8.018127431562432"><ele>204.0</ele><time>2026-04-19T08:53:00Z</time></trkpt><trkpt lat="44.87160859663325" lon="8.018196637642289"><ele>204.33333333333334</ele><time>2026-04-19T08:53:02Z</time></trkpt><trkpt lat="44.871531540695806" lon="8.018210637183003"><ele>204.66666666666669</ele><time>2026-04-19T08:53:03Z</time></trkpt><trkpt lat="44.87146789545338" lon="8.018213676402393"><ele>205.0</ele><time>2026-04-19T08:53:04Z</time></trkpt><trkpt lat="44.87136851009111" lon="8.018197329461474"><ele>205.33333333333334</ele><time>2026-04-19T08:53:06Z</time></trkpt><trkpt lat="44.871290160502326" lon="8.01817213279416"><ele>205.66666666666669</ele><time>2026-04-19T08:53:08Z</time></trkpt><trkpt lat="44.871182646564726" lon="8.018193770400492"><ele>206.0</ele><time>2026-04-19T08:53:10Z</time></trkpt><trkpt lat="44.871067256853244" lon="8.018224119028327"><ele>206.00000000000003</ele><time>2026-04-19T08:53:12Z</time></trkpt><trkpt lat="44.87099604629473" lon="8.018245890252203"><ele>206.0</ele><time>2026-04-19T08:53:13Z</time></trkpt><trkpt lat="44.87091496640275" lon="8.01824596273388"><ele>206.0</ele><time>2026-04-19T08:53:14Z</time></trkpt><trkpt lat="44.87083126714563" lon="8.018241501075316"><ele>206.0</ele><time>2026-04-19T08:53:15Z</time></trkpt><trkpt lat="44.87075251970403" lon="8.018241694029296"><ele>206.00000000000003</ele><time>2026-04-19T08:53:16Z</time></trkpt><trkpt lat="44.870666437569554" lon="8.018250027451533"><ele>206.0</ele><time>2026-04-19T08:53:17Z</time></trkpt><trkpt lat="44.87057202771025" lon="8.018259350914384"><ele>206.20000000000002</ele><time>2026-04-19T08:53:18Z</time></trkpt><trkpt lat="44.87047847783693" lon="8.018265205789163"><ele>206.4</ele><time>2026-04-19T08:53:19Z</time></trkpt><trkpt lat="44.87037898471858" lon="8.018273728407511"><ele>206.6</ele><time>2026-04-19T08:53:20Z</time></trkpt><trkpt lat="44.87027972062377" lon="8.018274237889617"><ele>206.8</ele><time>2026-04-19T08:53:21Z</time></trkpt><trkpt lat="44.87017115853128" lon="8.01827661877492"><ele>207.0</ele><time>2026-04-19T08:53:22Z</time></trkpt><trkpt lat="44.8700968390555" lon="8.018269626202056"><ele>207.16666666666666</ele><time>2026-04-19T08:53:23Z</time></trkpt><trkpt lat="44.87000559025091" lon="8.01828044478531"><ele>207.33333333333331</ele><time>2026-04-19T08:53:25Z</time></trkpt><trkpt lat="44.86990444590397" lon="8.018214507680776"><ele>207.5</ele><time>2026-04-19T08:53:27Z</time></trkpt><trkpt lat="44.86982469166693" lon="8.01816516943028"><ele>207.66666666666666</ele><time>2026-04-19T08:53:28Z</time></trkpt><trkpt lat="44.86974738182548" lon="8.018127844149534"><ele>207.83333333333331</ele><time>2026-04-19T08:53:29Z</time></trkpt><trkpt lat="44.86968248839053" lon="8.018100944745115"><ele>208.0</ele><time>2026-04-19T08:53:30Z</time></trkpt><trkpt lat="44.869617479471295" lon="8.018127012307897"><ele>208.0</ele><time>2026-04-19T08:53:35Z</time></trkpt><trkpt lat="44.86960788456754" lon="8.018006185811327"><ele>208.0</ele><time>2026-04-19T08:55:00Z</time></trkpt><trkpt lat="44.86967814466549" lon="8.017871812345748"><ele>208.0</ele><time>2026-04-19T08:55:02Z</time></trkpt><trkpt lat="44.869751364036546" lon="8.017703408013483"><ele>208.0</ele><time>2026-04-19T08:55:04Z</time></trkpt><trkpt lat="44.86979432780392" lon="8.0176071806352"><ele>208.0</ele><time>2026-04-19T08:55:05Z</time></trkpt><trkpt lat="44.869842220386076" lon="8.017512488886878"><ele>207.99999999999997</ele><time>2026-04-19T08:55:06Z</time></trkpt><trkpt lat="44.86989119880002" lon="8.017421313761954"><ele>208.0</ele><time>2026-04-19T08:55:07Z</time></trkpt><trkpt lat="44.86993507808322" lon="8.017337525350623"><ele>208.0</ele><time>2026-04-19T08:55:08Z</time></trkpt><trkpt lat="44.869979305293086" lon="8.017259086149624"><ele>208.0</ele><time>2026-04-19T08:55:09Z</time></trkpt><trkpt lat="44.87004158948138" lon="8.017125216499258"><ele>207.99999999999997</ele><time>2026-04-19T08:55:11Z</time></trkpt><trkpt lat="44.87007991070154" lon="8.017007297795516"><ele>208.0</ele><time>2026-04-19T08:55:13Z</time></trkpt><trkpt lat="44.87011286308252" lon="8.0169090960309"><ele>208.0</ele><time>2026-04-19T08:56:15.999Z</time></trkpt><trkpt lat="44.87019117762293" lon="8.016842437072118"><ele>208.0</ele><time>2026-04-19T08:56:17.999Z</time></trkpt><trkpt lat="44.870272561478046" lon="8.016679775469244"><ele>208.0</ele><time>2026-04-19T08:56:19.999Z</time></trkpt><trkpt lat="44.87032347149346" lon="8.016585541341014"><ele>208.0</ele><time>2026-04-19T08:56:20.999Z</time></trkpt><trkpt lat="44.870372024456515" lon="8.016484715595846"><ele>208.0</ele><time>2026-04-19T08:56:21.999Z</time></trkpt><trkpt lat="44.87043852010636" lon="8.01635738005302"><ele>208.0</ele><time>2026-04-19T08:56:22.999Z</time></trkpt><trkpt lat="44.87050544394909" lon="8.01622540592148"><ele>208.0</ele><time>2026-04-19T08:56:23.999Z</time></trkpt><trkpt lat="44.87057501497455" lon="8.016102159875064"><ele>208.0</ele><time>2026-04-19T08:56:24.999Z</time></trkpt><trkpt lat="44.87064143823762" lon="8.01598069510888"><ele>208.0</ele><time>2026-04-19T08:56:25.999Z</time></trkpt><trkpt lat="44.870707169954805" lon="8.015854323619795"><ele>208.0</ele><time>2026-04-19T08:56:26.999Z</time></trkpt><trkpt lat="44.870766759805356" lon="8.01573282834366"><ele>208.25</ele><time>2026-04-19T08:56:27.999Z</time></trkpt><trkpt lat="44.87083360175847" lon="8.015602950438462"><ele>208.5</ele><time>2026-04-19T08:56:28.999Z</time></trkpt><trkpt lat="44.870900632331534" lon="8.015472999514765"><ele>208.75</ele><time>2026-04-19T08:56:29.999Z</time></trkpt><trkpt lat="44.87096744748285" lon="8.015338772973012"><ele>209.0</ele><time>2026-04-19T08:56:30.999Z</time></trkpt><trkpt lat="44.87103618932776" lon="8.015208553219347"><ele>209.25</ele><time>2026-04-19T08:56:31.999Z</time></trkpt><trkpt lat="44.87111143259802" lon="8.01509990412546"><ele>209.5</ele><time>2026-04-19T08:56:32.999Z</time></trkpt><trkpt lat="44.87119258991096" lon="8.014994643629459"><ele>209.75</ele><time>2026-04-19T08:56:33.999Z</time></trkpt><trkpt lat="44.87129425437179" lon="8.01491388279499"><ele>210.0</ele><time>2026-04-19T08:56:34.999Z</time></trkpt><trkpt lat="44.87140451316221" lon="8.014855325272526"><ele>211.0</ele><time>2026-04-19T08:56:35.999Z</time></trkpt><trkpt lat="44.871524274050444" lon="8.014816171073615"><ele>212.0</ele><time>2026-04-19T08:56:36.999Z</time></trkpt><trkpt lat="44.87165475944082" lon="8.014805511778166"><ele>213.0</ele><time>2026-04-19T08:56:37.999Z</time></trkpt><trkpt lat="44.871779756201875" lon="8.014801224921648"><ele>214.0</ele><time>2026-04-19T08:56:38.999Z</time></trkpt><trkpt lat="44.87190838397163" lon="8.0148048082"><ele>214.0</ele><time>2026-04-19T08:56:40Z</time></trkpt><trkpt lat="44.87203971161908" lon="8.01481256471421"><ele>214.0</ele><time>2026-04-19T08:56:41Z</time></trkpt><trkpt lat="44.87216250981321" lon="8.014820665091156"><ele>214.0</ele><time>2026-04-19T08:56:42Z</time></trkpt><trkpt lat="44.87228638521466" lon="8.014831114745155"><ele>214.0</ele><time>2026-04-19T08:56:43Z</time></trkpt><trkpt lat="44.87240600259545" lon="8.014845468861484"><ele>214.0</ele><time>2026-04-19T08:56:44Z</time></trkpt><trkpt lat="44.872526953747105" lon="8.014862105672425"><ele>214.0</ele><time>2026-04-19T08:56:45Z</time></trkpt><trkpt lat="44.87264699711679" lon="8.014873619190173"><ele>214.0</ele><time>2026-04-19T08:56:46Z</time></trkpt><trkpt lat="44.87277052115611" lon="8.014891860977583"><ele>214.0</ele><time>2026-04-19T08:56:47Z</time></trkpt><trkpt lat="44.872891326609896" lon="8.014904539387992"><ele>213.75</ele><time>2026-04-19T08:56:48Z</time></trkpt><trkpt lat="44.87301046746834" lon="8.014903042160675"><ele>213.5</ele><time>2026-04-19T08:56:49Z</time></trkpt><trkpt lat="44.87313305588488" lon="8.014892530442697"><ele>213.25</ele><time>2026-04-19T08:56:50Z</time></trkpt><trkpt lat="44.873253911652206" lon="8.014880129380986"><ele>213.0</ele><time>2026-04-19T08:56:51Z</time></trkpt><trkpt lat="44.87337489373284" lon="8.014853420084673"><ele>213.0</ele><time>2026-04-19T08:56:52Z</time></trkpt><trkpt lat="44.873495084920926" lon="8.01483020108095"><ele>213.0</ele><time>2026-04-19T08:56:53Z</time></trkpt><trkpt lat="44.87362056086708" lon="8.01479783340978"><ele>213.0</ele><time>2026-04-19T08:56:54Z</time></trkpt><trkpt lat="44.87374448499123" lon="8.014759974345962"><ele>213.0</ele><time>2026-04-19T08:56:55Z</time></trkpt><trkpt lat="44.87386198117176" lon="8.014723899163885"><ele>213.0</ele><time>2026-04-19T08:56:56Z</time></trkpt><trkpt lat="44.87397960950973" lon="8.014698773208908"><ele>213.0</ele><time>2026-04-19T08:56:57Z</time></trkpt><trkpt lat="44.87411047750069" lon="8.014654645246283"><ele>213.0</ele><time>2026-04-19T08:56:58Z</time></trkpt><trkpt lat="44.87423096333386" lon="8.014592329102046"><ele>213.0</ele><time>2026-04-19T08:56:59Z</time></trkpt><trkpt lat="44.87434633241887" lon="8.014517001609828"><ele>214.0</ele><time>2026-04-19T08:57:00Z</time></trkpt><trkpt lat="44.87445962513152" lon="8.014439119410774"><ele>215.0</ele><time>2026-04-19T08:57:01Z</time></trkpt><trkpt lat="44.87457100003212" lon="8.014354560788403"><ele>216.0</ele><time>2026-04-19T08:57:02Z</time></trkpt><trkpt lat="44.874681574085045" lon="8.014256788966717"><ele>217.0</ele><time>2026-04-19T08:57:03Z</time></trkpt><trkpt lat="44.87478272369294" lon="8.014147973562903"><ele>217.0</ele><time>2026-04-19T08:57:04Z</time></trkpt><trkpt lat="44.87487665822819" lon="8.014028340200117"><ele>217.0</ele><time>2026-04-19T08:57:05Z</time></trkpt><trkpt lat="44.874960228662715" lon="8.013906723464785"><ele>217.0</ele><time>2026-04-19T08:57:06Z</time></trkpt><trkpt lat="44.87504446820443" lon="8.013761888352464"><ele>217.0</ele><time>2026-04-19T08:57:07Z</time></trkpt><trkpt lat="44.87512943114863" lon="8.013605758934423"><ele>214.25</ele><time>2026-04-19T08:57:08Z</time></trkpt><trkpt lat="44.87520926613605" lon="8.013446437251476"><ele>211.5</ele><time>2026-04-19T08:57:09Z</time></trkpt><trkpt lat="44.875284580401576" lon="8.013289489103377"><ele>208.75</ele><time>2026-04-19T08:57:10Z</time></trkpt><trkpt lat="44.87535869104273" lon="8.013131567652888"><ele>206.0</ele><time>2026-04-19T08:57:11Z</time></trkpt><trkpt lat="44.875435329656575" lon="8.01298331371675"><ele>206.0</ele><time>2026-04-19T08:57:12Z</time></trkpt><trkpt lat="44.87551613476163" lon="8.01283140107903"><ele>206.0</ele><time>2026-04-19T08:57:13Z</time></trkpt><trkpt lat="44.87560078098948" lon="8.012643614657035"><ele>206.0</ele><time>2026-04-19T08:57:14Z</time></trkpt><trkpt lat="44.87570115429274" lon="8.012481299062662"><ele>206.0</ele><time>2026-04-19T08:57:15Z</time></trkpt><trkpt lat="44.87581416509165" lon="8.01233338052567"><ele>205.0</ele><time>2026-04-19T08:57:16Z</time></trkpt><trkpt lat="44.875918763203906" lon="8.012181665281917"><ele>204.0</ele><time>2026-04-19T08:57:17Z</time></trkpt><trkpt lat="44.87601493755256" lon="8.012047976226587"><ele>203.0</ele><time>2026-04-19T08:57:18Z</time></trkpt><trkpt lat="44.87610451895249" lon="8.011913017851855"><ele>202.0</ele><time>2026-04-19T08:57:19Z</time></trkpt><trkpt lat="44.87618658841466" lon="8.011788896526829"><ele>202.0</ele><time>2026-04-19T08:57:20Z</time></trkpt><trkpt lat="44.87625785989535" lon="8.011659296855361"><ele>202.0</ele><time>2026-04-19T08:57:21Z</time></trkpt><trkpt lat="44.87632467079977" lon="8.011523061479124"><ele>202.0</ele><time>2026-04-19T08:57:22Z</time></trkpt><trkpt lat="44.8763803354623" lon="8.011367866644902"><ele>202.0</ele><time>2026-04-19T08:57:23Z</time></trkpt><trkpt lat="44.87641405320428" lon="8.011196919841508"><ele>202.66666666666666</ele><time>2026-04-19T08:57:24Z</time></trkpt><trkpt lat="44.87643380015483" lon="8.010983811281204"><ele>203.33333333333331</ele><time>2026-04-19T08:57:25Z</time></trkpt><trkpt lat="44.87643975942862" lon="8.010742339273879"><ele>204.0</ele><time>2026-04-19T08:57:26Z</time></trkpt><trkpt lat="44.87642263289523" lon="8.010504594368584"><ele>204.75</ele><time>2026-04-19T08:57:27Z</time></trkpt><trkpt lat="44.87640744833818" lon="8.010292560000323"><ele>205.5</ele><time>2026-04-19T08:57:28Z</time></trkpt><trkpt lat="44.87637269158789" lon="8.010117564685071"><ele>206.25</ele><time>2026-04-19T08:57:29Z</time></trkpt><trkpt lat="44.87635297377587" lon="8.009935463256978"><ele>207.0</ele><time>2026-04-19T08:57:30Z</time></trkpt><trkpt lat="44.87633592325834" lon="8.009777830771924"><ele>207.0</ele><time>2026-04-19T08:57:31Z</time></trkpt><trkpt lat="44.876335696822196" lon="8.009646944401888"><ele>207.0</ele><time>2026-04-19T08:57:32Z</time></trkpt><trkpt lat="44.876338118694264" lon="8.009547480523185"><ele>207.0</ele><time>2026-04-19T08:57:33Z</time></trkpt><trkpt lat="44.87633045566612" lon="8.009426550576043"><ele>207.0</ele><time>2026-04-19T08:57:35Z</time></trkpt><trkpt lat="44.876234529171924" lon="8.009459867140997"><ele>207.0</ele><time>2026-04-19T08:57:39Z</time></trkpt><trkpt lat="44.876166368773234" lon="8.00943917178418"><ele>207.0</ele><time>2026-04-19T08:57:41Z</time></trkpt><trkpt lat="44.87610147399196" lon="8.009412153459643"><ele>207.00000000000003</ele><time>2026-04-19T08:57:44Z</time></trkpt><trkpt lat="44.87608925681053" lon="8.009319486436983"><ele>207.0</ele><time>2026-04-19T08:57:50.999Z</time></trkpt><trkpt lat="44.87616114698646" lon="8.009292305398608"><ele>207.0</ele><time>2026-04-19T09:02:13.999Z</time></trkpt><trkpt lat="44.87614402867576" lon="8.009201490649227"><ele>207.0</ele><time>2026-04-19T09:02:18.999Z</time></trkpt><trkpt lat="44.876097498176144" lon="8.009135288906426"><ele>207.0</ele><time>2026-04-19T09:04:10Z</time></trkpt><trkpt lat="44.87603104247487" lon="8.009130215613567"><ele>207.00000000000003</ele><time>2026-04-19T09:04:25.999Z</time></trkpt><trkpt lat="44.87597394281566" lon="8.009168285584424"><ele>207.0</ele><time>2026-04-19T09:04:35.999Z</time></trkpt><trkpt lat="44.87592295345475" lon="8.009116063433408"><ele>207.0</ele><time>2026-04-19T09:04:56.999Z</time></trkpt><trkpt lat="44.8759846552605" lon="8.00916524803406"><ele>207.0</ele><time>2026-04-19T09:05:34Z</time></trkpt><trkpt lat="44.87604716962839" lon="8.009182935761052"><ele>207.0</ele><time>2026-04-19T09:25:50Z</time></trkpt><trkpt lat="44.87613683342613" lon="8.009182449342623"><ele>207.0</ele><time>2026-04-19T09:27:44Z</time></trkpt><trkpt lat="44.87614672103527" lon="8.009051331221219"><ele>207.0</ele><time>2026-04-19T09:36:44Z</time></trkpt><trkpt lat="44.87618332375498" lon="8.008946815154342"><ele>207.0</ele><time>2026-04-19T09:36:47Z</time></trkpt><trkpt lat="44.876229018361755" lon="8.008855014194827"><ele>208.2</ele><time>2026-04-19T09:36:50Z</time></trkpt><trkpt lat="44.876238493880486" lon="8.008675755610962"><ele>209.39999999999998</ele><time>2026-04-19T09:36:52Z</time></trkpt><trkpt lat="44.87622877109085" lon="8.00857454634545"><ele>210.60000000000002</ele><time>2026-04-19T09:36:53Z</time></trkpt><trkpt lat="44.87621887756032" lon="8.008472352174802"><ele>211.8</ele><time>2026-04-19T09:36:54Z</time></trkpt><trkpt lat="44.876253715948074" lon="8.008327814297877"><ele>213.0</ele><time>2026-04-19T09:36:56Z</time></trkpt><trkpt lat="44.87635649359773" lon="8.008283230503068"><ele>213.0</ele><time>2026-04-19T09:36:58Z</time></trkpt><trkpt lat="44.876452312677564" lon="8.008330021163381"><ele>213.0</ele><time>2026-04-19T09:37:00Z</time></trkpt><trkpt lat="44.876507614912235" lon="8.008385066356249"><ele>213.0</ele><time>2026-04-19T09:37:01Z</time></trkpt><trkpt lat="44.876558895694345" lon="8.008473310226783"><ele>213.0</ele><time>2026-04-19T09:37:03Z</time></trkpt><trkpt lat="44.8765519659584" lon="8.00864461808906"><ele>213.0</ele><time>2026-04-19T09:37:05Z</time></trkpt><trkpt lat="44.87658118560598" lon="8.008759795710736"><ele>213.0</ele><time>2026-04-19T09:37:06Z</time></trkpt><trkpt lat="44.87661204726022" lon="8.008874759892224"><ele>213.0</ele><time>2026-04-19T09:37:07Z</time></trkpt><trkpt lat="44.87664255652411" lon="8.008998526797859"><ele>213.0</ele><time>2026-04-19T09:37:08Z</time></trkpt><trkpt lat="44.87667562996763" lon="8.009128112261171"><ele>213.0</ele><time>2026-04-19T09:37:09Z</time></trkpt><trkpt lat="44.876718050626806" lon="8.009249756056134"><ele>213.0</ele><time>2026-04-19T09:37:10Z</time></trkpt><trkpt lat="44.87675947214339" lon="8.009380184112304"><ele>212.60000000000002</ele><time>2026-04-19T09:37:11Z</time></trkpt><trkpt lat="44.87679375750635" lon="8.009512031240495"><ele>212.20000000000002</ele><time>2026-04-19T09:37:12Z</time></trkpt><trkpt lat="44.876836632314216" lon="8.009634309499637"><ele>211.8</ele><time>2026-04-19T09:37:13Z</time></trkpt><trkpt lat="44.876890282244986" lon="8.009755365521587"><ele>211.4</ele><time>2026-04-19T09:37:14Z</time></trkpt><trkpt lat="44.876943793241466" lon="8.009876172129982"><ele>211.0</ele><time>2026-04-19T09:37:15Z</time></trkpt><trkpt lat="44.87700274850068" lon="8.009996138948653"><ele>209.60000000000002</ele><time>2026-04-19T09:37:16Z</time></trkpt><trkpt lat="44.877068790059546" lon="8.010104659413551"><ele>208.2</ele><time>2026-04-19T09:37:17Z</time></trkpt><trkpt lat="44.877142977753294" lon="8.010207299139509"><ele>206.8</ele><time>2026-04-19T09:37:18Z</time></trkpt><trkpt lat="44.87720877321637" lon="8.010294050061118"><ele>205.39999999999998</ele><time>2026-04-19T09:37:19Z</time></trkpt><trkpt lat="44.87727205324579" lon="8.01037380615927"><ele>204.0</ele><time>2026-04-19T09:37:20Z</time></trkpt><trkpt lat="44.87732702902532" lon="8.01046635597685"><ele>204.0</ele><time>2026-04-19T09:37:21Z</time></trkpt><trkpt lat="44.87737208443651" lon="8.0105787304128"><ele>204.0</ele><time>2026-04-19T09:37:22Z</time></trkpt><trkpt lat="44.87740730397367" lon="8.010707923258671"><ele>204.0</ele><time>2026-04-19T09:37:23Z</time></trkpt><trkpt lat="44.87744033145782" lon="8.01084309294496"><ele>204.0</ele><time>2026-04-19T09:37:24Z</time></trkpt><trkpt lat="44.87747409121703" lon="8.010979596824603"><ele>204.0</ele><time>2026-04-19T09:37:25Z</time></trkpt><trkpt lat="44.87750408983846" lon="8.011109979910872"><ele>202.79999999999998</ele><time>2026-04-19T09:37:26Z</time></trkpt><trkpt lat="44.87753660991929" lon="8.011235264107617"><ele>201.6</ele><time>2026-04-19T09:37:27Z</time></trkpt><trkpt lat="44.877559698573236" lon="8.011345417056935"><ele>200.4</ele><time>2026-04-19T09:37:28Z</time></trkpt><trkpt lat="44.87760847284862" lon="8.011458173642723"><ele>199.2</ele><time>2026-04-19T09:37:30Z</time></trkpt><trkpt lat="44.87768686011143" lon="8.011413517831654"><ele>198.0</ele><time>2026-04-19T09:37:32Z</time></trkpt><trkpt lat="44.87774762438362" lon="8.011307306664328"><ele>198.0</ele><time>2026-04-19T09:37:33Z</time></trkpt><trkpt lat="44.87779134573373" lon="8.011222467482131"><ele>198.0</ele><time>2026-04-19T09:37:35Z</time></trkpt><trkpt lat="44.87783649417892" lon="8.011100683642876"><ele>198.0</ele><time>2026-04-19T09:37:40Z</time></trkpt><trkpt lat="44.877956920914386" lon="8.01109140478006"><ele>198.0</ele><time>2026-04-19T09:37:41Z</time></trkpt><trkpt lat="44.87804137984753" lon="8.01105349898707"><ele>198.0</ele><time>2026-04-19T09:37:42Z</time></trkpt><trkpt lat="44.878167008331175" lon="8.010995623356715"><ele>198.0</ele><time>2026-04-19T09:37:43Z</time></trkpt><trkpt lat="44.878297630409534" lon="8.0109170681195"><ele>198.0</ele><time>2026-04-19T09:37:44Z</time></trkpt><trkpt lat="44.87841581656048" lon="8.010831402646314"><ele>198.0</ele><time>2026-04-19T09:37:45Z</time></trkpt><trkpt lat="44.87851639509434" lon="8.01077787851004"><ele>198.0</ele><time>2026-04-19T09:37:46Z</time></trkpt><trkpt lat="44.87863125046355" lon="8.010773975781811"><ele>197.5</ele><time>2026-04-19T09:37:47Z</time></trkpt><trkpt lat="44.87878220069293" lon="8.010811796646085"><ele>197.0</ele><time>2026-04-19T09:37:48Z</time></trkpt><trkpt lat="44.87891763382189" lon="8.010840108863698"><ele>196.5</ele><time>2026-04-19T09:37:49Z</time></trkpt><trkpt lat="44.87902846105812" lon="8.01083331477429"><ele>196.0</ele><time>2026-04-19T09:37:50Z</time></trkpt><trkpt lat="44.87914412179692" lon="8.010801192427994"><ele>196.0</ele><time>2026-04-19T09:37:51Z</time></trkpt><trkpt lat="44.87926284117902" lon="8.010750432244697"><ele>196.0</ele><time>2026-04-19T09:37:52Z</time></trkpt><trkpt lat="44.87938401696098" lon="8.010700985369262"><ele>196.0</ele><time>2026-04-19T09:37:53Z</time></trkpt><trkpt lat="44.879496708128165" lon="8.010655726219087"><ele>196.0</ele><time>2026-04-19T09:37:54Z</time></trkpt><trkpt lat="44.87960528172517" lon="8.01060564801108"><ele>195.75</ele><time>2026-04-19T09:37:55Z</time></trkpt><trkpt lat="44.87971037769759" lon="8.01055550419436"><ele>195.5</ele><time>2026-04-19T09:37:56Z</time></trkpt><trkpt lat="44.879818856827505" lon="8.010491810308771"><ele>195.25</ele><time>2026-04-19T09:37:57Z</time></trkpt><trkpt lat="44.87993450281532" lon="8.010423626763234"><ele>195.0</ele><time>2026-04-19T09:37:58Z</time></trkpt><trkpt lat="44.88005058864411" lon="8.010343635909134"><ele>195.25</ele><time>2026-04-19T09:37:59Z</time></trkpt><trkpt lat="44.88015447405575" lon="8.010271685415528"><ele>195.5</ele><time>2026-04-19T09:38:00Z</time></trkpt><trkpt lat="44.880255148778076" lon="8.01022362676012"><ele>195.75</ele><time>2026-04-19T09:38:01Z</time></trkpt><trkpt lat="44.8803672663376" lon="8.01019434861038"><ele>196.0</ele><time>2026-04-19T09:38:02Z</time></trkpt><trkpt lat="44.88048582689302" lon="8.010175269773097"><ele>196.0</ele><time>2026-04-19T09:38:03Z</time></trkpt><trkpt lat="44.880597239826336" lon="8.010140700964943"><ele>196.0</ele><time>2026-04-19T09:38:04Z</time></trkpt><trkpt lat="44.88069277302049" lon="8.01010034863552"><ele>196.0</ele><time>2026-04-19T09:38:05Z</time></trkpt><trkpt lat="44.88076986137826" lon="8.01003755394591"><ele>196.0</ele><time>2026-04-19T09:38:06Z</time></trkpt><trkpt lat="44.88082673939073" lon="8.009954757230105"><ele>196.0</ele><time>2026-04-19T09:38:07Z</time></trkpt><trkpt lat="44.880875475045016" lon="8.009836683383833"><ele>196.0</ele><time>2026-04-19T09:38:08Z</time></trkpt><trkpt lat="44.88092031864646" lon="8.009681820626945"><ele>196.0</ele><time>2026-04-19T09:38:09Z</time></trkpt><trkpt lat="44.880967994756006" lon="8.0095233653216"><ele>196.0</ele><time>2026-04-19T09:38:10Z</time></trkpt><trkpt lat="44.881008322754866" lon="8.009403236434327"><ele>196.0</ele><time>2026-04-19T09:38:11Z</time></trkpt><trkpt lat="44.88106406088701" lon="8.009271303889323"><ele>196.0</ele><time>2026-04-19T09:38:13Z</time></trkpt><trkpt lat="44.8810956606321" lon="8.009151855517105"><ele>197.0</ele><time>2026-04-19T09:38:14Z</time></trkpt><trkpt lat="44.881121709810486" lon="8.008988494313135"><ele>198.0</ele><time>2026-04-19T09:38:15Z</time></trkpt><trkpt lat="44.88116016229345" lon="8.008793445795273"><ele>199.0</ele><time>2026-04-19T09:38:16Z</time></trkpt><trkpt lat="44.881213847796275" lon="8.008597639109555"><ele>200.0</ele><time>2026-04-19T09:38:17Z</time></trkpt><trkpt lat="44.88126673663694" lon="8.008420021847623"><ele>200.5</ele><time>2026-04-19T09:38:18Z</time></trkpt><trkpt lat="44.88131485480595" lon="8.008251223842421"><ele>201.0</ele><time>2026-04-19T09:38:19Z</time></trkpt><trkpt lat="44.88137045885142" lon="8.008072308217773"><ele>201.5</ele><time>2026-04-19T09:38:20Z</time></trkpt><trkpt lat="44.88142285713317" lon="8.007898817897802"><ele>202.0</ele><time>2026-04-19T09:38:21Z</time></trkpt><trkpt lat="44.88146721209223" lon="8.007741597405904"><ele>202.0</ele><time>2026-04-19T09:38:22Z</time></trkpt><trkpt lat="44.88150693642738" lon="8.007595916232416"><ele>202.0</ele><time>2026-04-19T09:38:23Z</time></trkpt><trkpt lat="44.88154680529388" lon="8.00744640381355"><ele>202.0</ele><time>2026-04-19T09:38:24Z</time></trkpt><trkpt lat="44.88158437676949" lon="8.007312895867901"><ele>202.0</ele><time>2026-04-19T09:38:25Z</time></trkpt><trkpt lat="44.88163208685395" lon="8.007254296363916"><ele>202.0</ele><time>2026-04-19T09:38:27Z</time></trkpt><trkpt lat="44.88169709419112" lon="8.007361491604184"><ele>202.0</ele><time>2026-04-19T09:38:29Z</time></trkpt><trkpt lat="44.88179735634718" lon="8.007391149775001"><ele>202.0</ele><time>2026-04-19T09:38:31Z</time></trkpt><trkpt lat="44.881865161345665" lon="8.007389551571672"><ele>202.0</ele><time>2026-04-19T09:38:32Z</time></trkpt><trkpt lat="44.88196233452256" lon="8.007378570344722"><ele>202.0</ele><time>2026-04-19T09:38:33Z</time></trkpt><trkpt lat="44.88209895888299" lon="8.007362052954683"><ele>202.0</ele><time>2026-04-19T09:38:34Z</time></trkpt><trkpt lat="44.88223938389834" lon="8.007341481299466"><ele>202.0</ele><time>2026-04-19T09:38:35Z</time></trkpt><trkpt lat="44.882376547280295" lon="8.007326537679297"><ele>202.0</ele><time>2026-04-19T09:38:36Z</time></trkpt><trkpt lat="44.882518560873336" lon="8.007302014120347"><ele>202.0</ele><time>2026-04-19T09:38:37Z</time></trkpt><trkpt lat="44.88266304394635" lon="8.00728066466874"><ele>202.0</ele><time>2026-04-19T09:38:38Z</time></trkpt><trkpt lat="44.882804135443834" lon="8.007259850090865"><ele>200.5</ele><time>2026-04-19T09:38:39Z</time></trkpt><trkpt lat="44.882938690367375" lon="8.007246382930179"><ele>199.0</ele><time>2026-04-19T09:38:40Z</time></trkpt><trkpt lat="44.883075194080824" lon="8.00723069387521"><ele>197.5</ele><time>2026-04-19T09:38:41Z</time></trkpt><trkpt lat="44.88321945213484" lon="8.007217380725896"><ele>196.0</ele><time>2026-04-19T09:38:42Z</time></trkpt><trkpt lat="44.88334972815076" lon="8.007208695444147"><ele>196.0</ele><time>2026-04-19T09:38:43Z</time></trkpt><trkpt lat="44.883473321614154" lon="8.007201745612344"><ele>196.0</ele><time>2026-04-19T09:38:44Z</time></trkpt><trkpt lat="44.883614064418424" lon="8.007196085573021"><ele>196.0</ele><time>2026-04-19T09:38:45Z</time></trkpt><trkpt lat="44.8837498565681" lon="8.007198270158073"><ele>196.0</ele><time>2026-04-19T09:38:46Z</time></trkpt><trkpt lat="44.883869962255986" lon="8.00719874975356"><ele>196.0</ele><time>2026-04-19T09:38:47Z</time></trkpt><trkpt lat="44.883983133134464" lon="8.007196812204747"><ele>196.0</ele><time>2026-04-19T09:38:48Z</time></trkpt><trkpt lat="44.88408105927455" lon="8.00721469787547"><ele>196.0</ele><time>2026-04-19T09:38:49Z</time></trkpt><trkpt lat="44.88417197184478" lon="8.007269430467913"><ele>196.0</ele><time>2026-04-19T09:38:50Z</time></trkpt><trkpt lat="44.884268535724225" lon="8.00735829983961"><ele>196.0</ele><time>2026-04-19T09:38:51Z</time></trkpt><trkpt lat="44.88436742059534" lon="8.007459480619039"><ele>195.4</ele><time>2026-04-19T09:38:52Z</time></trkpt><trkpt lat="44.8844665970825" lon="8.007528343201438"><ele>194.8</ele><time>2026-04-19T09:38:53Z</time></trkpt><trkpt lat="44.88456443287161" lon="8.007569695700312"><ele>194.20000000000002</ele><time>2026-04-19T09:38:54Z</time></trkpt><trkpt lat="44.88465660818384" lon="8.007588832419325"><ele>193.60000000000002</ele><time>2026-04-19T09:38:55Z</time></trkpt><trkpt lat="44.88474631996263" lon="8.007572975845589"><ele>193.0</ele><time>2026-04-19T09:38:56Z</time></trkpt><trkpt lat="44.884847649646765" lon="8.007522773660666"><ele>193.0</ele><time>2026-04-19T09:38:57Z</time></trkpt><trkpt lat="44.88496547224352" lon="8.00745243338912"><ele>193.0</ele><time>2026-04-19T09:38:58Z</time></trkpt><trkpt lat="44.885094295677014" lon="8.007362932799502"><ele>193.0</ele><time>2026-04-19T09:38:59Z</time></trkpt><trkpt lat="44.88522841690211" lon="8.007276775162767"><ele>193.0</ele><time>2026-04-19T09:39:00Z</time></trkpt><trkpt lat="44.88535246843498" lon="8.007201352438203"><ele>193.0</ele><time>2026-04-19T09:39:01Z</time></trkpt><trkpt lat="44.885468532600534" lon="8.007133170932883"><ele>193.0</ele><time>2026-04-19T09:39:02Z</time></trkpt><trkpt lat="44.88555818033516" lon="8.007073251146698"><ele>193.0</ele><time>2026-04-19T09:39:03Z</time></trkpt><trkpt lat="44.88562727198094" lon="8.00700170201795"><ele>193.0</ele><time>2026-04-19T09:39:04Z</time></trkpt><trkpt lat="44.88567761761091" lon="8.00692021069044"><ele>193.0</ele><time>2026-04-19T09:39:05Z</time></trkpt><trkpt lat="44.88571735108585" lon="8.006814509138914"><ele>193.0</ele><time>2026-04-19T09:39:06Z</time></trkpt><trkpt lat="44.88576440964317" lon="8.006683095608148"><ele>193.0</ele><time>2026-04-19T09:39:07Z</time></trkpt><trkpt lat="44.885817289404024" lon="8.006554786932776"><ele>193.0</ele><time>2026-04-19T09:39:08Z</time></trkpt><trkpt lat="44.88587538268861" lon="8.006463282393627"><ele>193.0</ele><time>2026-04-19T09:39:09Z</time></trkpt><trkpt lat="44.88595735642135" lon="8.006412645792093"><ele>193.0</ele><time>2026-04-19T09:39:10Z</time></trkpt><trkpt lat="44.886078664503984" lon="8.006369588406463"><ele>194.33333333333331</ele><time>2026-04-19T09:39:11Z</time></trkpt><trkpt lat="44.88621893253368" lon="8.006321172263473"><ele>195.66666666666669</ele><time>2026-04-19T09:39:12Z</time></trkpt><trkpt lat="44.886376422416525" lon="8.006255145942928"><ele>197.0</ele><time>2026-04-19T09:39:13Z</time></trkpt><trkpt lat="44.8865147430591" lon="8.006216386601805"><ele>197.0</ele><time>2026-04-19T09:39:14Z</time></trkpt><trkpt lat="44.88663405477322" lon="8.00621615113132"><ele>197.0</ele><time>2026-04-19T09:39:15Z</time></trkpt><trkpt lat="44.88674448232932" lon="8.006227314513826"><ele>197.0</ele><time>2026-04-19T09:39:16Z</time></trkpt><trkpt lat="44.88684310073114" lon="8.006225358759886"><ele>197.0</ele><time>2026-04-19T09:39:17Z</time></trkpt><trkpt lat="44.88693549048297" lon="8.006202887639734"><ele>197.0</ele><time>2026-04-19T09:39:18Z</time></trkpt><trkpt lat="44.88702933004384" lon="8.006159307118939"><ele>197.25</ele><time>2026-04-19T09:39:19Z</time></trkpt><trkpt lat="44.88713456733673" lon="8.006090743850901"><ele>197.5</ele><time>2026-04-19T09:39:20Z</time></trkpt><trkpt lat="44.88726760656691" lon="8.005995606976407"><ele>197.75</ele><time>2026-04-19T09:39:21Z</time></trkpt><trkpt lat="44.88740909481706" lon="8.005876100148761"><ele>198.0</ele><time>2026-04-19T09:39:22Z</time></trkpt><trkpt lat="44.887534290837955" lon="8.00575661753908"><ele>197.75</ele><time>2026-04-19T09:39:23Z</time></trkpt><trkpt lat="44.887654360928806" lon="8.005660294788186"><ele>197.5</ele><time>2026-04-19T09:39:24Z</time></trkpt><trkpt lat="44.887769029826394" lon="8.005585635036528"><ele>197.25</ele><time>2026-04-19T09:39:25Z</time></trkpt><trkpt lat="44.88790826260083" lon="8.005508613609933"><ele>197.0</ele><time>2026-04-19T09:39:26Z</time></trkpt><trkpt lat="44.888051517392626" lon="8.00543411814176"><ele>197.0</ele><time>2026-04-19T09:39:27Z</time></trkpt><trkpt lat="44.88814997157028" lon="8.005371197417348"><ele>197.0</ele><time>2026-04-19T09:39:28Z</time></trkpt><trkpt lat="44.88821582886116" lon="8.00533663550457"><ele>197.0</ele><time>2026-04-19T09:39:29Z</time></trkpt><trkpt lat="44.888347304025" lon="8.00538766364877"><ele>197.0</ele><time>2026-04-19T09:39:31Z</time></trkpt><trkpt lat="44.88845440058389" lon="8.005467778964169"><ele>197.0</ele><time>2026-04-19T09:39:32Z</time></trkpt><trkpt lat="44.8885900523146" lon="8.00554601999894"><ele>195.75</ele><time>2026-04-19T09:39:33Z</time></trkpt><trkpt lat="44.8887212121904" lon="8.005607971816984"><ele>194.5</ele><time>2026-04-19T09:39:34Z</time></trkpt><trkpt lat="44.88882823272608" lon="8.005650935277004"><ele>193.25</ele><time>2026-04-19T09:39:35Z</time></trkpt><trkpt lat="44.888923303413854" lon="8.005671768235896"><ele>192.0</ele><time>2026-04-19T09:39:36Z</time></trkpt><trkpt lat="44.889036260796765" lon="8.005680695561598"><ele>192.0</ele><time>2026-04-19T09:39:37Z</time></trkpt><trkpt lat="44.88917818603179" lon="8.005683437173921"><ele>192.0</ele><time>2026-04-19T09:39:38Z</time></trkpt><trkpt lat="44.8893001276765" lon="8.005685115369586"><ele>192.0</ele><time>2026-04-19T09:39:39Z</time></trkpt><trkpt lat="44.889398555036415" lon="8.0056814780564"><ele>192.0</ele><time>2026-04-19T09:39:40Z</time></trkpt><trkpt lat="44.88950910454738" lon="8.005682848561024"><ele>193.0</ele><time>2026-04-19T09:39:41Z</time></trkpt><trkpt lat="44.889626224601024" lon="8.005676051468686"><ele>194.0</ele><time>2026-04-19T09:39:42Z</time></trkpt><trkpt lat="44.88974442131188" lon="8.005667595884827"><ele>195.0</ele><time>2026-04-19T09:39:43Z</time></trkpt><trkpt lat="44.889835390227866" lon="8.005658359901147"><ele>196.0</ele><time>2026-04-19T09:39:44Z</time></trkpt><trkpt lat="44.88990376517241" lon="8.0056506182659"><ele>197.0</ele><time>2026-04-19T09:39:45Z</time></trkpt><trkpt lat="44.889985906093976" lon="8.005654217775453"><ele>197.2</ele><time>2026-04-19T09:39:47Z</time></trkpt><trkpt lat="44.89011258357065" lon="8.005714403539063"><ele>197.39999999999998</ele><time>2026-04-19T09:39:49Z</time></trkpt><trkpt lat="44.890181293847476" lon="8.005777929572814"><ele>197.60000000000002</ele><time>2026-04-19T09:39:50Z</time></trkpt><trkpt lat="44.890258009391275" lon="8.005839643291838"><ele>197.8</ele><time>2026-04-19T09:39:51Z</time></trkpt><trkpt lat="44.89034566446274" lon="8.00590276201044"><ele>198.0</ele><time>2026-04-19T09:39:52Z</time></trkpt><trkpt lat="44.89044722818944" lon="8.005973067928794"><ele>196.75</ele><time>2026-04-19T09:39:53Z</time></trkpt><trkpt lat="44.89055781988816" lon="8.006050224711965"><ele>195.5</ele><time>2026-04-19T09:39:54Z</time></trkpt><trkpt lat="44.89067231317802" lon="8.006136945335022"><ele>194.25</ele><time>2026-04-19T09:39:55Z</time></trkpt><trkpt lat="44.89078226235007" lon="8.006221428512033"><ele>193.0</ele><time>2026-04-19T09:39:56Z</time></trkpt><trkpt lat="44.89088994608352" lon="8.006304275302167"><ele>191.75</ele><time>2026-04-19T09:39:57Z</time></trkpt><trkpt lat="44.891002451722976" lon="8.006387546850146"><ele>190.5</ele><time>2026-04-19T09:39:58Z</time></trkpt><trkpt lat="44.89112303753068" lon="8.006475241618459"><ele>189.25</ele><time>2026-04-19T09:39:59Z</time></trkpt><trkpt lat="44.891246641323995" lon="8.006563643511738"><ele>188.0</ele><time>2026-04-19T09:40:00Z</time></trkpt><trkpt lat="44.89136849005661" lon="8.00665970972787"><ele>188.0</ele><time>2026-04-19T09:40:01Z</time></trkpt><trkpt lat="44.89150282950694" lon="8.006767025721889"><ele>188.0</ele><time>2026-04-19T09:40:02Z</time></trkpt><trkpt lat="44.891632060142406" lon="8.006866006825687"><ele>188.0</ele><time>2026-04-19T09:40:03Z</time></trkpt><trkpt lat="44.891747750148504" lon="8.006948323086139"><ele>188.0</ele><time>2026-04-19T09:40:04Z</time></trkpt><trkpt lat="44.891849129925454" lon="8.007025353826858"><ele>188.0</ele><time>2026-04-19T09:40:05Z</time></trkpt><trkpt lat="44.89193554338214" lon="8.007091698581076"><ele>188.0</ele><time>2026-04-19T09:40:06Z</time></trkpt><trkpt lat="44.89200088343539" lon="8.007146293573523"><ele>188.0</ele><time>2026-04-19T09:40:07Z</time></trkpt><trkpt lat="44.8920550538602" lon="8.007192064288203"><ele>188.0</ele><time>2026-04-19T09:40:08Z</time></trkpt><trkpt lat="44.89212485503514" lon="8.007247049258105"><ele>188.0</ele><time>2026-04-19T09:40:09Z</time></trkpt><trkpt lat="44.89221626986906" lon="8.007304749616116"><ele>188.0</ele><time>2026-04-19T09:40:10Z</time></trkpt><trkpt lat="44.89232451509477" lon="8.007386014974994"><ele>188.0</ele><time>2026-04-19T09:40:11Z</time></trkpt><trkpt lat="44.8924338167703" lon="8.0074755557734"><ele>188.0</ele><time>2026-04-19T09:40:12Z</time></trkpt><trkpt lat="44.89254274243343" lon="8.007566563691"><ele>188.0</ele><time>2026-04-19T09:40:13Z</time></trkpt><trkpt lat="44.89266185219286" lon="8.007660704106524"><ele>188.0</ele><time>2026-04-19T09:40:14Z</time></trkpt><trkpt lat="44.89279274295858" lon="8.007756513332792"><ele>189.0</ele><time>2026-04-19T09:40:15Z</time></trkpt><trkpt lat="44.89292301469622" lon="8.007861010497562"><ele>190.0</ele><time>2026-04-19T09:40:16Z</time></trkpt><trkpt lat="44.893063476210905" lon="8.007981796675324"><ele>191.0</ele><time>2026-04-19T09:40:17Z</time></trkpt><trkpt lat="44.8932144570064" lon="8.008110090983513"><ele>191.0</ele><time>2026-04-19T09:40:18Z</time></trkpt><trkpt lat="44.893357795847535" lon="8.00823211871748"><ele>191.0</ele><time>2026-04-19T09:40:19Z</time></trkpt><trkpt lat="44.89349268131863" lon="8.008346837962963"><ele>191.0</ele><time>2026-04-19T09:40:20Z</time></trkpt><trkpt lat="44.89362717635748" lon="8.008466113089671"><ele>191.0</ele><time>2026-04-19T09:40:21Z</time></trkpt><trkpt lat="44.89376243379939" lon="8.008587539881768"><ele>191.0</ele><time>2026-04-19T09:40:22Z</time></trkpt><trkpt lat="44.89389667912712" lon="8.008700050525606"><ele>191.0</ele><time>2026-04-19T09:40:23Z</time></trkpt><trkpt lat="44.894030753432034" lon="8.00880958884948"><ele>191.0</ele><time>2026-04-19T09:40:24Z</time></trkpt><trkpt lat="44.89416563942227" lon="8.008922446938369"><ele>191.0</ele><time>2026-04-19T09:40:25Z</time></trkpt><trkpt lat="44.894304760826444" lon="8.009038331868968"><ele>191.0</ele><time>2026-04-19T09:40:26Z</time></trkpt><trkpt lat="44.89444096830158" lon="8.009152424403279"><ele>190.33333333333331</ele><time>2026-04-19T09:40:27Z</time></trkpt><trkpt lat="44.89457711026802" lon="8.009267496179678"><ele>189.66666666666666</ele><time>2026-04-19T09:40:28Z</time></trkpt><trkpt lat="44.89471412594951" lon="8.00938396344863"><ele>189.0</ele><time>2026-04-19T09:40:29Z</time></trkpt><trkpt lat="44.894850761962424" lon="8.009500739113145"><ele>189.0</ele><time>2026-04-19T09:40:30Z</time></trkpt><trkpt lat="44.894987765907764" lon="8.00961753068996"><ele>189.0</ele><time>2026-04-19T09:40:31Z</time></trkpt><trkpt lat="44.89512065300985" lon="8.009732105465401"><ele>189.0</ele><time>2026-04-19T09:40:32Z</time></trkpt><trkpt lat="44.895257100278585" lon="8.009846225269605"><ele>188.75</ele><time>2026-04-19T09:40:32.999Z</time></trkpt><trkpt lat="44.895394782082356" lon="8.009961399547677"><ele>188.5</ele><time>2026-04-19T09:40:33.999Z</time></trkpt><trkpt lat="44.89552077249055" lon="8.010066950500129"><ele>188.25</ele><time>2026-04-19T09:40:34.999Z</time></trkpt><trkpt lat="44.89563291434253" lon="8.01015035745527"><ele>188.0</ele><time>2026-04-19T09:40:35.999Z</time></trkpt><trkpt lat="44.89573873832371" lon="8.010233732748587"><ele>186.83333333333331</ele><time>2026-04-19T09:40:36.999Z</time></trkpt><trkpt lat="44.895815416625155" lon="8.010312459615825"><ele>185.66666666666666</ele><time>2026-04-19T09:40:37.999Z</time></trkpt><trkpt lat="44.8958724820983" lon="8.010378059553302"><ele>184.5</ele><time>2026-04-19T09:40:38.999Z</time></trkpt><trkpt lat="44.895890099482095" lon="8.010478584776743"><ele>183.33333333333334</ele><time>2026-04-19T09:40:40.999Z</time></trkpt><trkpt lat="44.89583577545998" lon="8.010568174770425"><ele>182.16666666666669</ele><time>2026-04-19T09:40:41.999Z</time></trkpt><trkpt lat="44.89572825581625" lon="8.010651354656042"><ele>181.0</ele><time>2026-04-19T09:40:42.999Z</time></trkpt><trkpt lat="44.89561755010897" lon="8.010727437325164"><ele>181.0</ele><time>2026-04-19T09:40:43.999Z</time></trkpt><trkpt lat="44.89551905759108" lon="8.01077352381475"><ele>181.0</ele><time>2026-04-19T09:40:45Z</time></trkpt><trkpt lat="44.89538705237227" lon="8.010787494080736"><ele>181.0</ele><time>2026-04-19T09:40:46Z</time></trkpt><trkpt lat="44.89523154411899" lon="8.010806968766332"><ele>181.0</ele><time>2026-04-19T09:40:47Z</time></trkpt><trkpt lat="44.89512165378944" lon="8.010859885553007"><ele>180.4</ele><time>2026-04-19T09:40:48Z</time></trkpt><trkpt lat="44.895035659372965" lon="8.01094694607541"><ele>179.8</ele><time>2026-04-19T09:40:49Z</time></trkpt><trkpt lat="44.89495826014002" lon="8.011051109996382"><ele>179.20000000000002</ele><time>2026-04-19T09:40:50Z</time></trkpt><trkpt lat="44.89487020732905" lon="8.011145871856526"><ele>178.60000000000002</ele><time>2026-04-19T09:40:51Z</time></trkpt><trkpt lat="44.894795865187035" lon="8.011226255053487"><ele>178.0</ele><time>2026-04-19T09:40:52Z</time></trkpt><trkpt lat="44.89473529959815" lon="8.011301297528325"><ele>178.0</ele><time>2026-04-19T09:40:53Z</time></trkpt><trkpt lat="44.89473165570674" lon="8.011397658618316"><ele>178.0</ele><time>2026-04-19T09:40:57Z</time></trkpt><trkpt lat="44.89479996854622" lon="8.01147864296151"><ele>178.0</ele><time>2026-04-19T09:40:59Z</time></trkpt><trkpt lat="44.89485960375038" lon="8.011596460792592"><ele>178.0</ele><time>2026-04-19T09:41:01Z</time></trkpt><trkpt lat="44.89492753126263" lon="8.01171653598995"><ele>178.0</ele><time>2026-04-19T09:41:03Z</time></trkpt><trkpt lat="44.89493116995142" lon="8.011834239378329"><ele>178.0</ele><time>2026-04-19T09:41:05Z</time></trkpt><trkpt lat="44.89484725574191" lon="8.011893482370589"><ele>178.0</ele><time>2026-04-19T09:41:08Z</time></trkpt><trkpt lat="44.894772596313736" lon="8.011873594303319"><ele>178.0</ele><time>2026-04-19T09:41:09Z</time></trkpt><trkpt lat="44.89469282456413" lon="8.011920212296078"><ele>178.0</ele><time>2026-04-19T09:41:15Z</time></trkpt><trkpt lat="44.89460801119151" lon="8.011959075655064"><ele>178.0</ele><time>2026-04-19T09:41:17Z</time></trkpt><trkpt lat="44.89452616210456" lon="8.011921590084874"><ele>178.0</ele><time>2026-04-19T09:41:19Z</time></trkpt><trkpt lat="44.89454196037479" lon="8.012011870565187"><ele>178.0</ele><time>2026-04-19T09:41:22Z</time></trkpt><trkpt lat="44.894641773156835" lon="8.012025258661808"><ele>178.0</ele><time>2026-04-19T09:41:24Z</time></trkpt><trkpt lat="44.89473411663615" lon="8.012056058907426"><ele>178.0</ele><time>2026-04-19T09:41:27Z</time></trkpt><trkpt lat="44.89482216453288" lon="8.012061011057856"><ele>178.0</ele><time>2026-04-19T09:41:29Z</time></trkpt><trkpt lat="44.8949228710804" lon="8.012063229192542"><ele>178.0</ele><time>2026-04-19T09:41:31Z</time></trkpt><trkpt lat="44.8950298569161" lon="8.012056599236141"><ele>177.5</ele><time>2026-04-19T09:41:33Z</time></trkpt><trkpt lat="44.895111463298086" lon="8.01208146053066"><ele>177.0</ele><time>2026-04-19T09:41:34Z</time></trkpt><trkpt lat="44.89523465157593" lon="8.012131441329231"><ele>176.5</ele><time>2026-04-19T09:41:35Z</time></trkpt><trkpt lat="44.89538831817035" lon="8.012204234475375"><ele>176.0</ele><time>2026-04-19T09:41:36Z</time></trkpt><trkpt lat="44.89552478253239" lon="8.012283973768355"><ele>176.0</ele><time>2026-04-19T09:41:37Z</time></trkpt><trkpt lat="44.89563540096099" lon="8.01234033211162"><ele>176.0</ele><time>2026-04-19T09:41:38Z</time></trkpt><trkpt lat="44.895741265223904" lon="8.012388712417817"><ele>176.0</ele><time>2026-04-19T09:41:39Z</time></trkpt><trkpt lat="44.895844772570406" lon="8.012425115463408"><ele>176.0</ele><time>2026-04-19T09:41:40Z</time></trkpt><trkpt lat="44.89595317193571" lon="8.012464755024364"><ele>176.0</ele><time>2026-04-19T09:41:41Z</time></trkpt><trkpt lat="44.89605187252043" lon="8.012526878863044"><ele>176.60000000000002</ele><time>2026-04-19T09:41:42Z</time></trkpt><trkpt lat="44.896145094364165" lon="8.01259820248799"><ele>177.2</ele><time>2026-04-19T09:41:43Z</time></trkpt><trkpt lat="44.896241631484806" lon="8.012670181795587"><ele>177.8</ele><time>2026-04-19T09:41:44Z</time></trkpt><trkpt lat="44.896335597462" lon="8.012739648079927"><ele>178.39999999999998</ele><time>2026-04-19T09:41:45Z</time></trkpt><trkpt lat="44.896420742704485" lon="8.012832074932437"><ele>179.0</ele><time>2026-04-19T09:41:46Z</time></trkpt><trkpt lat="44.89648521110922" lon="8.012936940589793"><ele>179.0</ele><time>2026-04-19T09:41:47Z</time></trkpt><trkpt lat="44.89652886777693" lon="8.013053316963248"><ele>179.0</ele><time>2026-04-19T09:41:48Z</time></trkpt><trkpt lat="44.896552849364895" lon="8.013176677158645"><ele>179.0</ele><time>2026-04-19T09:41:49Z</time></trkpt><trkpt lat="44.896566847535716" lon="8.013303969987076"><ele>179.0</ele><time>2026-04-19T09:41:50Z</time></trkpt><trkpt lat="44.89657422420022" lon="8.013435720946577"><ele>179.0</ele><time>2026-04-19T09:41:51Z</time></trkpt><trkpt lat="44.89658430906465" lon="8.01358904244867"><ele>178.0</ele><time>2026-04-19T09:41:52Z</time></trkpt><trkpt lat="44.896613080804535" lon="8.013781820520935"><ele>177.0</ele><time>2026-04-19T09:41:53Z</time></trkpt><trkpt lat="44.89666119701148" lon="8.013974486874632"><ele>176.0</ele><time>2026-04-19T09:41:54Z</time></trkpt><trkpt lat="44.89671523834141" lon="8.014142702163365"><ele>175.0</ele><time>2026-04-19T09:41:55Z</time></trkpt><trkpt lat="44.896762232999585" lon="8.014300866701156"><ele>175.0</ele><time>2026-04-19T09:41:56Z</time></trkpt><trkpt lat="44.896814501095605" lon="8.014447877275872"><ele>175.0</ele><time>2026-04-19T09:41:57Z</time></trkpt><trkpt lat="44.89687227146229" lon="8.01455740652486"><ele>175.0</ele><time>2026-04-19T09:41:58Z</time></trkpt><trkpt lat="44.896943259966186" lon="8.014635661305723"><ele>175.0</ele><time>2026-04-19T09:41:59Z</time></trkpt><trkpt lat="44.89704987627344" lon="8.014730105251891"><ele>175.0</ele><time>2026-04-19T09:42:00Z</time></trkpt><trkpt lat="44.8971566404908" lon="8.014891724108011"><ele>174.0</ele><time>2026-04-19T09:42:01Z</time></trkpt><trkpt lat="44.897272992180056" lon="8.015080635022464"><ele>173.0</ele><time>2026-04-19T09:42:02Z</time></trkpt><trkpt lat="44.89739986224587" lon="8.015243949097407"><ele>172.0</ele><time>2026-04-19T09:42:03Z</time></trkpt><trkpt lat="44.897516118968504" lon="8.015397837284382"><ele>173.25</ele><time>2026-04-19T09:42:04Z</time></trkpt><trkpt lat="44.89761471848945" lon="8.01554288936586"><ele>174.5</ele><time>2026-04-19T09:42:05Z</time></trkpt><trkpt lat="44.897709763910996" lon="8.015689793335051"><ele>175.75</ele><time>2026-04-19T09:42:06Z</time></trkpt><trkpt lat="44.89781239634307" lon="8.015847943873837"><ele>177.0</ele><time>2026-04-19T09:42:07Z</time></trkpt><trkpt lat="44.89791350103698" lon="8.016010275468476"><ele>177.0</ele><time>2026-04-19T09:42:08Z</time></trkpt><trkpt lat="44.898013951224684" lon="8.016160570898549"><ele>177.0</ele><time>2026-04-19T09:42:09Z</time></trkpt><trkpt lat="44.89811671982177" lon="8.016311013799019"><ele>177.0</ele><time>2026-04-19T09:42:10Z</time></trkpt><trkpt lat="44.89821965017586" lon="8.01647650579952"><ele>177.0</ele><time>2026-04-19T09:42:11Z</time></trkpt><trkpt lat="44.89831941455143" lon="8.016634870481338"><ele>177.0</ele><time>2026-04-19T09:42:12Z</time></trkpt><trkpt lat="44.89843184744144" lon="8.016785582312272"><ele>177.0</ele><time>2026-04-19T09:42:13Z</time></trkpt><trkpt lat="44.89854757329673" lon="8.016932978672795"><ele>176.25</ele><time>2026-04-19T09:42:14Z</time></trkpt><trkpt lat="44.8986565616644" lon="8.01706720591771"><ele>175.5</ele><time>2026-04-19T09:42:15Z</time></trkpt><trkpt lat="44.89875042878299" lon="8.017198458698987"><ele>174.75</ele><time>2026-04-19T09:42:16Z</time></trkpt><trkpt lat="44.8988389012665" lon="8.017354228006106"><ele>174.0</ele><time>2026-04-19T09:42:17Z</time></trkpt><trkpt lat="44.89892846728591" lon="8.017522802451698"><ele>173.33333333333334</ele><time>2026-04-19T09:42:18Z</time></trkpt><trkpt lat="44.89902885305588" lon="8.017688413978084"><ele>172.66666666666669</ele><time>2026-04-19T09:42:19Z</time></trkpt><trkpt lat="44.89913998078192" lon="8.017873023018883"><ele>172.0</ele><time>2026-04-19T09:42:20Z</time></trkpt><trkpt lat="44.89923191562869" lon="8.018042953973355"><ele>172.0</ele><time>2026-04-19T09:42:21Z</time></trkpt><trkpt lat="44.89930082931183" lon="8.018203612528431"><ele>172.0</ele><time>2026-04-19T09:42:22Z</time></trkpt><trkpt lat="44.89936305590959" lon="8.018344169195302"><ele>172.0</ele><time>2026-04-19T09:42:23Z</time></trkpt><trkpt lat="44.89944425442788" lon="8.018461400726947"><ele>172.0</ele><time>2026-04-19T09:42:24Z</time></trkpt><trkpt lat="44.89954389633902" lon="8.01856182602198"><ele>172.0</ele><time>2026-04-19T09:42:25Z</time></trkpt><trkpt lat="44.89965918626303" lon="8.018652717978492"><ele>172.0</ele><time>2026-04-19T09:42:26Z</time></trkpt><trkpt lat="44.89980425005912" lon="8.018738214017532"><ele>172.0</ele><time>2026-04-19T09:42:26.999Z</time></trkpt><trkpt lat="44.89995524950869" lon="8.018818688643023"><ele>172.25</ele><time>2026-04-19T09:42:27.999Z</time></trkpt><trkpt lat="44.9000915885889" lon="8.018898690784763"><ele>172.5</ele><time>2026-04-19T09:42:28.999Z</time></trkpt><trkpt lat="44.9002071122468" lon="8.018987982274497"><ele>172.75</ele><time>2026-04-19T09:42:29.999Z</time></trkpt><trkpt lat="44.90031463281732" lon="8.019078142656378"><ele>173.0</ele><time>2026-04-19T09:42:30.999Z</time></trkpt><trkpt lat="44.9004248031253" lon="8.01917374588685"><ele>172.5</ele><time>2026-04-19T09:42:31.999Z</time></trkpt><trkpt lat="44.90053381192388" lon="8.019282493948971"><ele>172.0</ele><time>2026-04-19T09:42:32.999Z</time></trkpt><trkpt lat="44.90064751271157" lon="8.019390479965395"><ele>171.5</ele><time>2026-04-19T09:42:33.999Z</time></trkpt><trkpt lat="44.900785547697936" lon="8.019482070459954"><ele>171.0</ele><time>2026-04-19T09:42:34.999Z</time></trkpt><trkpt lat="44.90093107086922" lon="8.01957788468028"><ele>171.0</ele><time>2026-04-19T09:42:35.999Z</time></trkpt><trkpt lat="44.901046356934565" lon="8.019674544427895"><ele>171.0</ele><time>2026-04-19T09:42:36.999Z</time></trkpt><trkpt lat="44.90115387715405" lon="8.019772231164017"><ele>171.0</ele><time>2026-04-19T09:42:37.999Z</time></trkpt><trkpt lat="44.90127001454022" lon="8.019873956841371"><ele>171.0</ele><time>2026-04-19T09:42:38.999Z</time></trkpt><trkpt lat="44.90138121454215" lon="8.019977549482478"><ele>170.75</ele><time>2026-04-19T09:42:39.999Z</time></trkpt><trkpt lat="44.90148798386253" lon="8.020085391485045"><ele>170.5</ele><time>2026-04-19T09:42:40.999Z</time></trkpt><trkpt lat="44.90159628770983" lon="8.020203534651033"><ele>170.25</ele><time>2026-04-19T09:42:41.999Z</time></trkpt><trkpt lat="44.90169117433337" lon="8.020304950756763"><ele>170.0</ele><time>2026-04-19T09:42:42.999Z</time></trkpt><trkpt lat="44.90176932636019" lon="8.020376856395123"><ele>170.66666666666666</ele><time>2026-04-19T09:42:43.999Z</time></trkpt><trkpt lat="44.90187142500651" lon="8.02038125361713"><ele>171.33333333333331</ele><time>2026-04-19T09:42:45.999Z</time></trkpt><trkpt lat="44.90193711904513" lon="8.02029812283883"><ele>172.0</ele><time>2026-04-19T09:42:47.999Z</time></trkpt><trkpt lat="44.90198897282702" lon="8.020242730427121"><ele>172.66666666666666</ele><time>2026-04-19T09:42:48.999Z</time></trkpt><trkpt lat="44.90205130244379" lon="8.02018704262699"><ele>173.33333333333334</ele><time>2026-04-19T09:42:49.999Z</time></trkpt><trkpt lat="44.902110198876294" lon="8.020141405257379"><ele>174.0</ele><time>2026-04-19T09:42:51Z</time></trkpt><trkpt lat="44.902162735908014" lon="8.020088619015592"><ele>174.0</ele><time>2026-04-19T09:42:52Z</time></trkpt><trkpt lat="44.9022384829561" lon="8.019995802415934"><ele>174.0</ele><time>2026-04-19T09:42:53Z</time></trkpt><trkpt lat="44.9023192158786" lon="8.019901849274126"><ele>174.0</ele><time>2026-04-19T09:42:54Z</time></trkpt><trkpt lat="44.90240284832402" lon="8.019834338858594"><ele>174.0</ele><time>2026-04-19T09:42:55Z</time></trkpt><trkpt lat="44.90248683187192" lon="8.019764850944272"><ele>174.0</ele><time>2026-04-19T09:42:56Z</time></trkpt><trkpt lat="44.9025556646992" lon="8.019701499484693"><ele>174.6</ele><time>2026-04-19T09:42:57Z</time></trkpt><trkpt lat="44.90261669369772" lon="8.019667180286703"><ele>175.2</ele><time>2026-04-19T09:42:58Z</time></trkpt><trkpt lat="44.90273856041309" lon="8.019724724157047"><ele>175.79999999999998</ele><time>2026-04-19T09:43:00Z</time></trkpt><trkpt lat="44.90278671733192" lon="8.019810914727229"><ele>176.39999999999998</ele><time>2026-04-19T09:43:01Z</time></trkpt><trkpt lat="44.902834738411016" lon="8.01991334058663"><ele>177.0</ele><time>2026-04-19T09:43:02Z</time></trkpt><trkpt lat="44.90289979283606" lon="8.020016708447802"><ele>177.0</ele><time>2026-04-19T09:43:03Z</time></trkpt><trkpt lat="44.90297533524777" lon="8.020104396172195"><ele>177.0</ele><time>2026-04-19T09:43:04Z</time></trkpt><trkpt lat="44.903052736847826" lon="8.02020198909771"><ele>177.0</ele><time>2026-04-19T09:43:05Z</time></trkpt><trkpt lat="44.90313368115594" lon="8.020322937448606"><ele>177.0</ele><time>2026-04-19T09:43:06Z</time></trkpt><trkpt lat="44.903214148742144" lon="8.02043132484615"><ele>177.0</ele><time>2026-04-19T09:43:07Z</time></trkpt><trkpt lat="44.9033132965865" lon="8.020559391084499"><ele>177.75</ele><time>2026-04-19T09:43:08Z</time></trkpt><trkpt lat="44.903418321236245" lon="8.020684219372816"><ele>178.5</ele><time>2026-04-19T09:43:09Z</time></trkpt><trkpt lat="44.903515946644006" lon="8.020799127642963"><ele>179.25</ele><time>2026-04-19T09:43:10Z</time></trkpt><trkpt lat="44.9036189374848" lon="8.020916934743795"><ele>180.0</ele><time>2026-04-19T09:43:11Z</time></trkpt><trkpt lat="44.90373416558815" lon="8.021045598535514"><ele>177.33333333333334</ele><time>2026-04-19T09:43:12Z</time></trkpt><trkpt lat="44.903859764416495" lon="8.021183577879594"><ele>174.66666666666669</ele><time>2026-04-19T09:43:13Z</time></trkpt><trkpt lat="44.903990159933855" lon="8.021328223685469"><ele>172.0</ele><time>2026-04-19T09:43:14Z</time></trkpt><trkpt lat="44.904120502013576" lon="8.02147638763183"><ele>172.33333333333334</ele><time>2026-04-19T09:43:15Z</time></trkpt><trkpt lat="44.90424658092719" lon="8.021618346313176"><ele>172.66666666666666</ele><time>2026-04-19T09:43:16Z</time></trkpt><trkpt lat="44.90436349661099" lon="8.021748350631182"><ele>173.0</ele><time>2026-04-19T09:43:17Z</time></trkpt><trkpt lat="44.904480879474676" lon="8.021879034790443"><ele>172.0</ele><time>2026-04-19T09:43:18Z</time></trkpt><trkpt lat="44.90459379247917" lon="8.022009147359146"><ele>171.0</ele><time>2026-04-19T09:43:19Z</time></trkpt><trkpt lat="44.90470272326084" lon="8.022139025021747"><ele>170.0</ele><time>2026-04-19T09:43:20Z</time></trkpt><trkpt lat="44.90480829172117" lon="8.022275171903011"><ele>169.0</ele><time>2026-04-19T09:43:21Z</time></trkpt><trkpt lat="44.90491378669856" lon="8.022420875377996"><ele>169.0</ele><time>2026-04-19T09:43:22Z</time></trkpt><trkpt lat="44.90501347021525" lon="8.022561200243667"><ele>169.0</ele><time>2026-04-19T09:43:23Z</time></trkpt><trkpt lat="44.90510982146308" lon="8.022702659997488"><ele>169.0</ele><time>2026-04-19T09:43:24Z</time></trkpt><trkpt lat="44.90519990463605" lon="8.022849808994831"><ele>169.0</ele><time>2026-04-19T09:43:25Z</time></trkpt><trkpt lat="44.90527861205247" lon="8.0229814084233"><ele>170.0</ele><time>2026-04-19T09:43:26Z</time></trkpt><trkpt lat="44.90535349723244" lon="8.023091497701419"><ele>171.0</ele><time>2026-04-19T09:43:27Z</time></trkpt><trkpt lat="44.90542299241409" lon="8.023193644875997"><ele>172.0</ele><time>2026-04-19T09:43:28Z</time></trkpt><trkpt lat="44.905494944286254" lon="8.023276058405521"><ele>173.0</ele><time>2026-04-19T09:43:29Z</time></trkpt><trkpt lat="44.905549230592094" lon="8.023329836829813"><ele>174.0</ele><time>2026-04-19T09:43:30Z</time></trkpt><trkpt lat="44.90562472557326" lon="8.023328915982997"><ele>175.0</ele><time>2026-04-19T09:43:32Z</time></trkpt><trkpt lat="44.90568626068374" lon="8.023249386463883"><ele>176.25</ele><time>2026-04-19T09:43:33Z</time></trkpt><trkpt lat="44.90573777100295" lon="8.023107391232154"><ele>177.5</ele><time>2026-04-19T09:43:34Z</time></trkpt><trkpt lat="44.905777015894074" lon="8.022958025157596"><ele>178.75</ele><time>2026-04-19T09:43:35Z</time></trkpt><trkpt lat="44.90580134301007" lon="8.022793758388618"><ele>180.0</ele><time>2026-04-19T09:43:36Z</time></trkpt><trkpt lat="44.90581146557558" lon="8.022604373002348"><ele>179.5</ele><time>2026-04-19T09:43:37Z</time></trkpt><trkpt lat="44.90581118781852" lon="8.02243695076762"><ele>179.0</ele><time>2026-04-19T09:43:38Z</time></trkpt><trkpt lat="44.90580511445155" lon="8.022296374371406"><ele>178.5</ele><time>2026-04-19T09:43:39Z</time></trkpt><trkpt lat="44.905791947993706" lon="8.022153999491977"><ele>178.0</ele><time>2026-04-19T09:43:40Z</time></trkpt><trkpt lat="44.905768763596356" lon="8.021973970167362"><ele>178.0</ele><time>2026-04-19T09:43:41Z</time></trkpt><trkpt lat="44.905742473001304" lon="8.021771992929347"><ele>178.0</ele><time>2026-04-19T09:43:42Z</time></trkpt><trkpt lat="44.9057213101105" lon="8.02155346244141"><ele>178.0</ele><time>2026-04-19T09:43:43Z</time></trkpt><trkpt lat="44.90570898287645" lon="8.021341087312468"><ele>178.5</ele><time>2026-04-19T09:43:44Z</time></trkpt><trkpt lat="44.90569750356058" lon="8.021133838047172"><ele>179.0</ele><time>2026-04-19T09:43:45Z</time></trkpt><trkpt lat="44.90568693807172" lon="8.020929819270586"><ele>179.5</ele><time>2026-04-19T09:43:46Z</time></trkpt><trkpt lat="44.90567261557699" lon="8.020721486412308"><ele>180.0</ele><time>2026-04-19T09:43:47Z</time></trkpt><trkpt lat="44.90565560825251" lon="8.0205105599559"><ele>180.0</ele><time>2026-04-19T09:43:48Z</time></trkpt><trkpt lat="44.90564579533216" lon="8.020287585914543"><ele>180.0</ele><time>2026-04-19T09:43:49Z</time></trkpt><trkpt lat="44.90564315290072" lon="8.020087221270972"><ele>180.0</ele><time>2026-04-19T09:43:50Z</time></trkpt><trkpt lat="44.905629620061816" lon="8.019905614371377"><ele>180.0</ele><time>2026-04-19T09:43:51Z</time></trkpt><trkpt lat="44.90561924192549" lon="8.01974893217588"><ele>180.0</ele><time>2026-04-19T09:43:52Z</time></trkpt><trkpt lat="44.905626626273275" lon="8.019606738798092"><ele>180.0</ele><time>2026-04-19T09:43:53Z</time></trkpt><trkpt lat="44.90565880101697" lon="8.019456316727736"><ele>180.0</ele><time>2026-04-19T09:43:54Z</time></trkpt><trkpt lat="44.9057030122725" lon="8.019302265175794"><ele>180.0</ele><time>2026-04-19T09:43:55Z</time></trkpt><trkpt lat="44.90576157727806" lon="8.019141601895113"><ele>179.25</ele><time>2026-04-19T09:43:56Z</time></trkpt><trkpt lat="44.90584903003132" lon="8.018981092208193"><ele>178.5</ele><time>2026-04-19T09:43:57Z</time></trkpt><trkpt lat="44.9059359651928" lon="8.01882481700535"><ele>177.75</ele><time>2026-04-19T09:43:58Z</time></trkpt><trkpt lat="44.90602390365229" lon="8.018672556382024"><ele>177.0</ele><time>2026-04-19T09:43:59Z</time></trkpt><trkpt lat="44.90611645759275" lon="8.018523708276298"><ele>179.0</ele><time>2026-04-19T09:44:00Z</time></trkpt><trkpt lat="44.90621290662568" lon="8.018383841989305"><ele>181.0</ele><time>2026-04-19T09:44:01Z</time></trkpt><trkpt lat="44.90631556216753" lon="8.018242204442235"><ele>183.0</ele><time>2026-04-19T09:44:02Z</time></trkpt><trkpt lat="44.90641265226695" lon="8.018097441197028"><ele>185.0</ele><time>2026-04-19T09:44:03Z</time></trkpt><trkpt lat="44.90649790628723" lon="8.017946865328321"><ele>185.0</ele><time>2026-04-19T09:44:04Z</time></trkpt><trkpt lat="44.90658571809836" lon="8.017799794887996"><ele>185.0</ele><time>2026-04-19T09:44:05Z</time></trkpt><trkpt lat="44.90668502285136" lon="8.017660251831394"><ele>185.0</ele><time>2026-04-19T09:44:06Z</time></trkpt><trkpt lat="44.906786450298" lon="8.017516179522845"><ele>185.0</ele><time>2026-04-19T09:44:07Z</time></trkpt><trkpt lat="44.90688367554004" lon="8.017375065521204"><ele>187.0</ele><time>2026-04-19T09:44:08Z</time></trkpt><trkpt lat="44.906973709930206" lon="8.017230044262625"><ele>189.0</ele><time>2026-04-19T09:44:09Z</time></trkpt><trkpt lat="44.90707345903475" lon="8.017077073035372"><ele>191.0</ele><time>2026-04-19T09:44:10Z</time></trkpt><trkpt lat="44.90716296659614" lon="8.016897975149806"><ele>193.0</ele><time>2026-04-19T09:44:11Z</time></trkpt><trkpt lat="44.90724016623854" lon="8.016744444159045"><ele>190.5</ele><time>2026-04-19T09:44:11.999Z</time></trkpt><trkpt lat="44.90732040819506" lon="8.01660369560016"><ele>188.0</ele><time>2026-04-19T09:44:12.999Z</time></trkpt><trkpt lat="44.9074153711479" lon="8.016465810348025"><ele>185.5</ele><time>2026-04-19T09:44:13.999Z</time></trkpt><trkpt lat="44.90752212849576" lon="8.01630770328227"><ele>183.0</ele><time>2026-04-19T09:44:14.999Z</time></trkpt><trkpt lat="44.907603167609935" lon="8.016148281099957"><ele>185.0</ele><time>2026-04-19T09:44:15.999Z</time></trkpt><trkpt lat="44.907672428676534" lon="8.015974707674735"><ele>187.0</ele><time>2026-04-19T09:44:16.999Z</time></trkpt><trkpt lat="44.907737519019946" lon="8.015800946284042"><ele>189.0</ele><time>2026-04-19T09:44:17.999Z</time></trkpt><trkpt lat="44.90780761698347" lon="8.015646254109502"><ele>191.0</ele><time>2026-04-19T09:44:18.999Z</time></trkpt><trkpt lat="44.90787124084552" lon="8.015503683842086"><ele>191.0</ele><time>2026-04-19T09:44:19.999Z</time></trkpt><trkpt lat="44.90793513054385" lon="8.015335487227922"><ele>191.0</ele><time>2026-04-19T09:44:20.999Z</time></trkpt><trkpt lat="44.90800072755888" lon="8.015147390591455"><ele>191.0</ele><time>2026-04-19T09:44:21.999Z</time></trkpt><trkpt lat="44.908065789619556" lon="8.014966626845322"><ele>191.0</ele><time>2026-04-19T09:44:22.999Z</time></trkpt><trkpt lat="44.90811822911045" lon="8.014817937673357"><ele>190.20000000000002</ele><time>2026-04-19T09:44:23.999Z</time></trkpt><trkpt lat="44.908166325400224" lon="8.014674538577287"><ele>189.4</ele><time>2026-04-19T09:44:24.999Z</time></trkpt><trkpt lat="44.90821479052701" lon="8.014525610933788"><ele>188.6</ele><time>2026-04-19T09:44:25.999Z</time></trkpt><trkpt lat="44.90825454552861" lon="8.014391352356217"><ele>187.8</ele><time>2026-04-19T09:44:26.999Z</time></trkpt><trkpt lat="44.90830678140328" lon="8.014273453988132"><ele>187.0</ele><time>2026-04-19T09:44:27.999Z</time></trkpt><trkpt lat="44.90837895461902" lon="8.014178401699253"><ele>189.6</ele><time>2026-04-19T09:44:28.999Z</time></trkpt><trkpt lat="44.9084760526161" lon="8.014083992134758"><ele>192.2</ele><time>2026-04-19T09:44:29.999Z</time></trkpt><trkpt lat="44.90853663554766" lon="8.013997067753124"><ele>194.8</ele><time>2026-04-19T09:44:30.999Z</time></trkpt><trkpt lat="44.90856324841085" lon="8.013885380325274"><ele>197.4</ele><time>2026-04-19T09:44:31.999Z</time></trkpt><trkpt lat="44.908580695498344" lon="8.013704023006843"><ele>200.0</ele><time>2026-04-19T09:44:32.999Z</time></trkpt><trkpt lat="44.90861240867929" lon="8.013516326668144"><ele>200.0</ele><time>2026-04-19T09:44:33.999Z</time></trkpt><trkpt lat="44.908645685987636" lon="8.013343326962092"><ele>200.0</ele><time>2026-04-19T09:44:34.999Z</time></trkpt><trkpt lat="44.9086738547551" lon="8.013170335169185"><ele>200.0</ele><time>2026-04-19T09:44:35.999Z</time></trkpt><trkpt lat="44.90867707404029" lon="8.012995020045652"><ele>200.0</ele><time>2026-04-19T09:44:36.999Z</time></trkpt><trkpt lat="44.90867126749963" lon="8.012837796738994"><ele>200.33333333333334</ele><time>2026-04-19T09:44:37.999Z</time></trkpt><trkpt lat="44.90867603248086" lon="8.012702800543616"><ele>200.66666666666669</ele><time>2026-04-19T09:44:38.999Z</time></trkpt><trkpt lat="44.90870204483167" lon="8.012579011850523"><ele>201.0</ele><time>2026-04-19T09:44:39.999Z</time></trkpt><trkpt lat="44.908736556235404" lon="8.012465034200007"><ele>201.33333333333331</ele><time>2026-04-19T09:44:40.999Z</time></trkpt><trkpt lat="44.90875772076836" lon="8.012376002545986"><ele>201.66666666666666</ele><time>2026-04-19T09:44:41.999Z</time></trkpt><trkpt lat="44.908728883624846" lon="8.012252232184075"><ele>202.0</ele><time>2026-04-19T09:44:42.999Z</time></trkpt><trkpt lat="44.90864868587042" lon="8.012073026432905"><ele>202.0</ele><time>2026-04-19T09:44:43.999Z</time></trkpt><trkpt lat="44.908551181076874" lon="8.011891716005938"><ele>202.0</ele><time>2026-04-19T09:44:44.999Z</time></trkpt><trkpt lat="44.90846209465761" lon="8.011715298915144"><ele>202.0</ele><time>2026-04-19T09:44:45.999Z</time></trkpt><trkpt lat="44.90838174831905" lon="8.011552928648673"><ele>202.0</ele><time>2026-04-19T09:44:46.999Z</time></trkpt><trkpt lat="44.90830087296715" lon="8.011387000315278"><ele>202.0</ele><time>2026-04-19T09:44:47.999Z</time></trkpt><trkpt lat="44.90822645245698" lon="8.01122462047721"><ele>202.0</ele><time>2026-04-19T09:44:48.999Z</time></trkpt><trkpt lat="44.908150728029234" lon="8.01107402365608"><ele>202.0</ele><time>2026-04-19T09:44:49.999Z</time></trkpt><trkpt lat="44.90807331626894" lon="8.010935893092594"><ele>204.2</ele><time>2026-04-19T09:44:50.999Z</time></trkpt><trkpt lat="44.908001147288545" lon="8.010805360765715"><ele>206.39999999999998</ele><time>2026-04-19T09:44:51.999Z</time></trkpt><trkpt lat="44.90793613813144" lon="8.010681844662738"><ele>208.60000000000002</ele><time>2026-04-19T09:44:52.999Z</time></trkpt><trkpt lat="44.90788300693109" lon="8.010562210329905"><ele>210.8</ele><time>2026-04-19T09:44:53.999Z</time></trkpt><trkpt lat="44.907851275237604" lon="8.010419698552642"><ele>213.0</ele><time>2026-04-19T09:44:54.999Z</time></trkpt><trkpt lat="44.90782206393399" lon="8.010229785221743"><ele>213.0</ele><time>2026-04-19T09:44:55.999Z</time></trkpt><trkpt lat="44.90778568181027" lon="8.010018315440561"><ele>213.0</ele><time>2026-04-19T09:44:57Z</time></trkpt><trkpt lat="44.90773343720981" lon="8.009847460825984"><ele>213.0</ele><time>2026-04-19T09:44:58Z</time></trkpt><trkpt lat="44.907667977285556" lon="8.009704382659692"><ele>213.0</ele><time>2026-04-19T09:44:59Z</time></trkpt><trkpt lat="44.907602543810974" lon="8.00956122851444"><ele>211.0</ele><time>2026-04-19T09:45:00Z</time></trkpt><trkpt lat="44.90753919924913" lon="8.009416593887376"><ele>209.0</ele><time>2026-04-19T09:45:01Z</time></trkpt><trkpt lat="44.90747491026912" lon="8.009269639998687"><ele>207.0</ele><time>2026-04-19T09:45:02Z</time></trkpt><trkpt lat="44.90743226078473" lon="8.009142792936796"><ele>205.0</ele><time>2026-04-19T09:45:03Z</time></trkpt><trkpt lat="44.90742428047087" lon="8.009031315949246"><ele>203.0</ele><time>2026-04-19T09:45:04Z</time></trkpt><trkpt lat="44.90741004817711" lon="8.008877095157349"><ele>203.0</ele><time>2026-04-19T09:45:05Z</time></trkpt><trkpt lat="44.90738992023931" lon="8.008701601410923"><ele>203.0</ele><time>2026-04-19T09:45:06Z</time></trkpt><trkpt lat="44.907368837706876" lon="8.00851642112196"><ele>203.0</ele><time>2026-04-19T09:45:07Z</time></trkpt><trkpt lat="44.90733836742676" lon="8.00828918065004"><ele>203.0</ele><time>2026-04-19T09:45:08Z</time></trkpt><trkpt lat="44.90731168183775" lon="8.00809356946013"><ele>203.0</ele><time>2026-04-19T09:45:09Z</time></trkpt><trkpt lat="44.907292284108195" lon="8.007950298860122"><ele>203.0</ele><time>2026-04-19T09:45:10Z</time></trkpt><trkpt lat="44.90728100449584" lon="8.007852861314161"><ele>203.0</ele><time>2026-04-19T09:45:11Z</time></trkpt><trkpt lat="44.90731878341974" lon="8.007683355141197"><ele>203.0</ele><time>2026-04-19T09:45:13Z</time></trkpt><trkpt lat="44.907349542913444" lon="8.007539268922537"><ele>203.0</ele><time>2026-04-19T09:45:14Z</time></trkpt><trkpt lat="44.90736498517618" lon="8.007380097059164"><ele>203.0</ele><time>2026-04-19T09:45:15Z</time></trkpt><trkpt lat="44.90738155616087" lon="8.007274370324033"><ele>203.0</ele><time>2026-04-19T09:45:16Z</time></trkpt><trkpt lat="44.907420788606814" lon="8.007150818327018"><ele>203.0</ele><time>2026-04-19T09:45:17Z</time></trkpt><trkpt lat="44.9074859612432" lon="8.007015770183303"><ele>203.0</ele><time>2026-04-19T09:45:18Z</time></trkpt><trkpt lat="44.90755175335822" lon="8.006885593255898"><ele>203.0</ele><time>2026-04-19T09:45:19Z</time></trkpt><trkpt lat="44.90762047456729" lon="8.006744455516667"><ele>203.25</ele><time>2026-04-19T09:45:20Z</time></trkpt><trkpt lat="44.90769988656636" lon="8.00659990707464"><ele>203.5</ele><time>2026-04-19T09:45:21Z</time></trkpt><trkpt lat="44.90778963772524" lon="8.006445113634575"><ele>203.75</ele><time>2026-04-19T09:45:22Z</time></trkpt><trkpt lat="44.90787551158479" lon="8.006305626239008"><ele>204.0</ele><time>2026-04-19T09:45:23Z</time></trkpt><trkpt lat="44.90794689201077" lon="8.006178460230478"><ele>204.0</ele><time>2026-04-19T09:45:24Z</time></trkpt><trkpt lat="44.90800061104816" lon="8.006061342766444"><ele>204.0</ele><time>2026-04-19T09:45:25Z</time></trkpt><trkpt lat="44.90803916697069" lon="8.005932753932688"><ele>204.0</ele><time>2026-04-19T09:45:26Z</time></trkpt><trkpt lat="44.908091349342676" lon="8.0058039414665"><ele>204.0</ele><time>2026-04-19T09:45:27Z</time></trkpt><trkpt lat="44.90816678037395" lon="8.005663761793603"><ele>204.0</ele><time>2026-04-19T09:45:28Z</time></trkpt><trkpt lat="44.90826140518265" lon="8.005501585894367"><ele>203.5</ele><time>2026-04-19T09:45:29Z</time></trkpt><trkpt lat="44.908338640624144" lon="8.00535566760879"><ele>203.0</ele><time>2026-04-19T09:45:30Z</time></trkpt><trkpt lat="44.908400120929564" lon="8.005215307788058"><ele>202.5</ele><time>2026-04-19T09:45:31Z</time></trkpt><trkpt lat="44.90848298020743" lon="8.005079902264102"><ele>202.0</ele><time>2026-04-19T09:45:32Z</time></trkpt><trkpt lat="44.908568559580445" lon="8.004955139030864"><ele>202.0</ele><time>2026-04-19T09:45:33Z</time></trkpt><trkpt lat="44.90863617790519" lon="8.004813037764203"><ele>202.0</ele><time>2026-04-19T09:45:34Z</time></trkpt><trkpt lat="44.90869215532738" lon="8.004679631441231"><ele>202.0</ele><time>2026-04-19T09:45:35Z</time></trkpt><trkpt lat="44.90875648927455" lon="8.004556336695067"><ele>202.0</ele><time>2026-04-19T09:45:36Z</time></trkpt><trkpt lat="44.90883422086913" lon="8.004439905857271"><ele>202.0</ele><time>2026-04-19T09:45:37Z</time></trkpt><trkpt lat="44.90892057111731" lon="8.004334559598439"><ele>202.0</ele><time>2026-04-19T09:45:38Z</time></trkpt><trkpt lat="44.90900651595666" lon="8.004228869723661"><ele>202.0</ele><time>2026-04-19T09:45:39Z</time></trkpt><trkpt lat="44.90908358280905" lon="8.004159174492514"><ele>202.0</ele><time>2026-04-19T09:45:40Z</time></trkpt><trkpt lat="44.9091754717578" lon="8.004155263255573"><ele>202.0</ele><time>2026-04-19T09:45:42Z</time></trkpt><trkpt lat="44.90922890549514" lon="8.004229756806756"><ele>204.8</ele><time>2026-04-19T09:45:43Z</time></trkpt><trkpt lat="44.90933359833744" lon="8.004320494131179"><ele>207.6</ele><time>2026-04-19T09:45:44Z</time></trkpt><trkpt lat="44.90944629746406" lon="8.004409990783525"><ele>210.40000000000003</ele><time>2026-04-19T09:45:45Z</time></trkpt><trkpt lat="44.90952842797433" lon="8.004485100625107"><ele>213.20000000000002</ele><time>2026-04-19T09:45:46Z</time></trkpt><trkpt lat="44.909614012770824" lon="8.004550873173722"><ele>216.0</ele><time>2026-04-19T09:45:47Z</time></trkpt><trkpt lat="44.90970228800759" lon="8.004629969471285"><ele>216.0</ele><time>2026-04-19T09:45:48Z</time></trkpt><trkpt lat="44.90976908365871" lon="8.004688517388031"><ele>216.0</ele><time>2026-04-19T09:45:49Z</time></trkpt><trkpt lat="44.90983114416435" lon="8.004730368510428"><ele>216.0</ele><time>2026-04-19T09:45:50Z</time></trkpt><trkpt lat="44.909893719944534" lon="8.0047756603742"><ele>216.0</ele><time>2026-04-19T09:45:51Z</time></trkpt><trkpt lat="44.909950712179906" lon="8.004826861310944"><ele>216.0</ele><time>2026-04-19T09:45:52Z</time></trkpt><trkpt lat="44.9100551849192" lon="8.004924729004086"><ele>216.0</ele><time>2026-04-19T09:45:54Z</time></trkpt><trkpt lat="44.91012240025863" lon="8.00497529019669"><ele>219.66666666666666</ele><time>2026-04-19T09:45:55Z</time></trkpt><trkpt lat="44.91019498824854" lon="8.005026591294909"><ele>223.33333333333331</ele><time>2026-04-19T09:45:56Z</time></trkpt><trkpt lat="44.910260963137056" lon="8.005084723715143"><ele>227.0</ele><time>2026-04-19T09:45:57Z</time></trkpt><trkpt lat="44.91033941023282" lon="8.00518468019758"><ele>230.66666666666666</ele><time>2026-04-19T09:45:59Z</time></trkpt><trkpt lat="44.91039617595174" lon="8.005285891822124"><ele>234.33333333333331</ele><time>2026-04-19T09:46:00Z</time></trkpt><trkpt lat="44.91043905964419" lon="8.00539843211393"><ele>238.0</ele><time>2026-04-19T09:46:01Z</time></trkpt><trkpt lat="44.91049754371261" lon="8.00549884189478"><ele>237.99999999999997</ele><time>2026-04-19T09:46:02Z</time></trkpt><trkpt lat="44.91057591765215" lon="8.005533280742007"><ele>238.0</ele><time>2026-04-19T09:46:04Z</time></trkpt><trkpt lat="44.91062870954084" lon="8.005467194261895"><ele>238.0</ele><time>2026-04-19T09:46:05Z</time></trkpt><trkpt lat="44.910700739011304" lon="8.0053533116239"><ele>238.0</ele><time>2026-04-19T09:46:06Z</time></trkpt><trkpt lat="44.910750504018914" lon="8.005256358593801"><ele>237.99999999999997</ele><time>2026-04-19T09:46:07Z</time></trkpt><trkpt lat="44.910793117083635" lon="8.005180951366595"><ele>238.0</ele><time>2026-04-19T09:46:08Z</time></trkpt><trkpt lat="44.910897593758115" lon="8.005080061529902"><ele>238.60000000000002</ele><time>2026-04-19T09:46:10Z</time></trkpt><trkpt lat="44.91095409970921" lon="8.005005144880375"><ele>239.20000000000002</ele><time>2026-04-19T09:46:11Z</time></trkpt><trkpt lat="44.911005343970174" lon="8.00493187222427"><ele>239.8</ele><time>2026-04-19T09:46:12Z</time></trkpt><trkpt lat="44.911079499073274" lon="8.004798217855624"><ele>240.4</ele><time>2026-04-19T09:46:14Z</time></trkpt><trkpt lat="44.911185731198564" lon="8.004737979295076"><ele>241.0</ele><time>2026-04-19T09:46:16Z</time></trkpt><trkpt lat="44.91129409458344" lon="8.004794139204503"><ele>241.0</ele><time>2026-04-19T09:46:18Z</time></trkpt><trkpt lat="44.91135550176721" lon="8.004899365658533"><ele>241.0</ele><time>2026-04-19T09:46:19Z</time></trkpt><trkpt lat="44.91143971953202" lon="8.005049374784667"><ele>241.0</ele><time>2026-04-19T09:46:20Z</time></trkpt><trkpt lat="44.911518118293024" lon="8.005208058600601"><ele>241.0</ele><time>2026-04-19T09:46:21Z</time></trkpt><trkpt lat="44.91158239039643" lon="8.005331915315583"><ele>241.0</ele><time>2026-04-19T09:46:22Z</time></trkpt><trkpt lat="44.91163768593595" lon="8.005455454466352"><ele>241.00000000000003</ele><time>2026-04-19T09:46:23Z</time></trkpt><trkpt lat="44.91170762297675" lon="8.005584567085473"><ele>241.00000000000003</ele><time>2026-04-19T09:46:24Z</time></trkpt><trkpt lat="44.91177732844557" lon="8.005695564809175"><ele>241.0</ele><time>2026-04-19T09:46:25Z</time></trkpt><trkpt lat="44.911856872298685" lon="8.00582341065711"><ele>241.0</ele><time>2026-04-19T09:46:26Z</time></trkpt><trkpt lat="44.9119177721503" lon="8.005934227111773"><ele>243.20000000000002</ele><time>2026-04-19T09:46:27Z</time></trkpt><trkpt lat="44.91198307292772" lon="8.006018032990907"><ele>245.40000000000003</ele><time>2026-04-19T09:46:28Z</time></trkpt><trkpt lat="44.912066242395575" lon="8.006088146728603"><ele>247.6</ele><time>2026-04-19T09:46:28.999Z</time></trkpt><trkpt lat="44.91215942538897" lon="8.006141397344182"><ele>249.8</ele><time>2026-04-19T09:46:29.999Z</time></trkpt><trkpt lat="44.91226711061216" lon="8.00618257168089"><ele>252.0</ele><time>2026-04-19T09:46:30.999Z</time></trkpt><trkpt lat="44.91238611295251" lon="8.006222647291745"><ele>252.0</ele><time>2026-04-19T09:46:31.999Z</time></trkpt><trkpt lat="44.912473442860524" lon="8.006239837247918"><ele>252.0</ele><time>2026-04-19T09:46:32.999Z</time></trkpt><trkpt lat="44.91256513204186" lon="8.006130319116954"><ele>252.0</ele><time>2026-04-19T09:46:34.999Z</time></trkpt><trkpt lat="44.912642353339585" lon="8.005981409320086"><ele>252.0</ele><time>2026-04-19T09:46:35.999Z</time></trkpt><trkpt lat="44.912752532744626" lon="8.005819609914255"><ele>250.6</ele><time>2026-04-19T09:46:36.999Z</time></trkpt><trkpt lat="44.912840211704214" lon="8.005715914889139"><ele>249.2</ele><time>2026-04-19T09:46:37.999Z</time></trkpt><trkpt lat="44.91290352204415" lon="8.005635734045443"><ele>247.8</ele><time>2026-04-19T09:46:38.999Z</time></trkpt><trkpt lat="44.912957003325715" lon="8.00554201857374"><ele>246.4</ele><time>2026-04-19T09:46:39.999Z</time></trkpt><trkpt lat="44.91301282694298" lon="8.005462786888113"><ele>245.0</ele><time>2026-04-19T09:46:40.999Z</time></trkpt><trkpt lat="44.91304249872152" lon="8.00530112588304"><ele>245.00000000000003</ele><time>2026-04-19T09:46:42.999Z</time></trkpt><trkpt lat="44.91302693804932" lon="8.00518707017197"><ele>245.0</ele><time>2026-04-19T09:46:43.999Z</time></trkpt><trkpt lat="44.91299120755169" lon="8.005068159469625"><ele>245.0</ele><time>2026-04-19T09:46:44.999Z</time></trkpt><trkpt lat="44.912941381827686" lon="8.004944924176295"><ele>245.0</ele><time>2026-04-19T09:46:45.999Z</time></trkpt><trkpt lat="44.912891321352525" lon="8.004840800009346"><ele>245.00000000000003</ele><time>2026-04-19T09:46:46.999Z</time></trkpt><trkpt lat="44.912843203690514" lon="8.004772394473257"><ele>245.0</ele><time>2026-04-19T09:46:47.999Z</time></trkpt><trkpt lat="44.912795133651244" lon="8.004714765257376"><ele>244.6</ele><time>2026-04-19T09:46:48.999Z</time></trkpt><trkpt lat="44.91273615219857" lon="8.00460780181324"><ele>244.2</ele><time>2026-04-19T09:46:49.999Z</time></trkpt><trkpt lat="44.912668751811125" lon="8.004472232754688"><ele>243.8</ele><time>2026-04-19T09:46:50.999Z</time></trkpt><trkpt lat="44.912608212651875" lon="8.004355707757494"><ele>243.4</ele><time>2026-04-19T09:46:51.999Z</time></trkpt><trkpt lat="44.91255094136249" lon="8.004250193834872"><ele>243.0</ele><time>2026-04-19T09:46:52.999Z</time></trkpt><trkpt lat="44.912491705964804" lon="8.004153565242815"><ele>242.16666666666666</ele><time>2026-04-19T09:46:53.999Z</time></trkpt><trkpt lat="44.912421755795954" lon="8.004068504465938"><ele>241.33333333333331</ele><time>2026-04-19T09:46:54.999Z</time></trkpt><trkpt lat="44.91234768138219" lon="8.003987416826652"><ele>240.5</ele><time>2026-04-19T09:46:55.999Z</time></trkpt><trkpt lat="44.91227797521901" lon="8.003916720187258"><ele>239.66666666666666</ele><time>2026-04-19T09:46:56.999Z</time></trkpt><trkpt lat="44.9122169583681" lon="8.003840580776945"><ele>238.83333333333331</ele><time>2026-04-19T09:46:57.999Z</time></trkpt><trkpt lat="44.912182080030334" lon="8.003765089787455"><ele>238.0</ele><time>2026-04-19T09:46:58.999Z</time></trkpt><trkpt lat="44.91216811666855" lon="8.003658930273206"><ele>238.0</ele><time>2026-04-19T09:46:59.999Z</time></trkpt><trkpt lat="44.912173501548956" lon="8.003492983010098"><ele>238.0</ele><time>2026-04-19T09:47:00.999Z</time></trkpt><trkpt lat="44.91217586612471" lon="8.003309396972451"><ele>238.0</ele><time>2026-04-19T09:47:01.999Z</time></trkpt><trkpt lat="44.91216211101674" lon="8.00314330612173"><ele>238.0</ele><time>2026-04-19T09:47:03Z</time></trkpt><trkpt lat="44.91214732339067" lon="8.002997569170438"><ele>237.16666666666666</ele><time>2026-04-19T09:47:04Z</time></trkpt><trkpt lat="44.91212961956337" lon="8.00286956019542"><ele>236.33333333333331</ele><time>2026-04-19T09:47:05Z</time></trkpt><trkpt lat="44.91210033148468" lon="8.002723996812033"><ele>235.5</ele><time>2026-04-19T09:47:06Z</time></trkpt><trkpt lat="44.912091754858295" lon="8.002602641983268"><ele>234.66666666666669</ele><time>2026-04-19T09:47:07Z</time></trkpt><trkpt lat="44.91208467300809" lon="8.002513933680897"><ele>233.83333333333334</ele><time>2026-04-19T09:47:08Z</time></trkpt><trkpt lat="44.91207489062962" lon="8.002388519801993"><ele>233.0</ele><time>2026-04-19T09:47:10Z</time></trkpt><trkpt lat="44.912072872559825" lon="8.002273762179117"><ele>232.8</ele><time>2026-04-19T09:47:12Z</time></trkpt><trkpt lat="44.91208318467473" lon="8.002125115437163"><ele>232.60000000000002</ele><time>2026-04-19T09:47:14Z</time></trkpt><trkpt lat="44.912060236240876" lon="8.002025978065019"><ele>232.39999999999998</ele><time>2026-04-19T09:47:15Z</time></trkpt><trkpt lat="44.91201801971156" lon="8.001909298342147"><ele>232.2</ele><time>2026-04-19T09:47:16Z</time></trkpt><trkpt lat="44.91197151124206" lon="8.001794818950211"><ele>232.0</ele><time>2026-04-19T09:47:17Z</time></trkpt><trkpt lat="44.9119216364601" lon="8.00167909826436"><ele>232.0</ele><time>2026-04-19T09:47:18Z</time></trkpt><trkpt lat="44.911863634297504" lon="8.001558308546878"><ele>232.0</ele><time>2026-04-19T09:47:19Z</time></trkpt><trkpt lat="44.91180349879988" lon="8.001441105156834"><ele>232.0</ele><time>2026-04-19T09:47:20Z</time></trkpt><trkpt lat="44.9117436727257" lon="8.001328208073172"><ele>232.0</ele><time>2026-04-19T09:47:21Z</time></trkpt><trkpt lat="44.9116861031062" lon="8.001227554554605"><ele>232.0</ele><time>2026-04-19T09:47:22Z</time></trkpt><trkpt lat="44.91162643018178" lon="8.001132333431954"><ele>232.0</ele><time>2026-04-19T09:47:23Z</time></trkpt><trkpt lat="44.9115606460956" lon="8.001029710831155"><ele>232.0</ele><time>2026-04-19T09:47:24Z</time></trkpt><trkpt lat="44.91149677329248" lon="8.000923536203306"><ele>232.0</ele><time>2026-04-19T09:47:25Z</time></trkpt><trkpt lat="44.911431168397094" lon="8.000820584371223"><ele>232.0</ele><time>2026-04-19T09:47:26Z</time></trkpt><trkpt lat="44.91136845046944" lon="8.000715749968647"><ele>232.0</ele><time>2026-04-19T09:47:27Z</time></trkpt><trkpt lat="44.911310894796735" lon="8.000610307782956"><ele>231.2</ele><time>2026-04-19T09:47:28Z</time></trkpt><trkpt lat="44.91125578936669" lon="8.000506193570395"><ele>230.39999999999998</ele><time>2026-04-19T09:47:29Z</time></trkpt><trkpt lat="44.91120624320732" lon="8.0003998110862"><ele>229.60000000000002</ele><time>2026-04-19T09:47:30Z</time></trkpt><trkpt lat="44.911161508075004" lon="8.000282101751418"><ele>228.8</ele><time>2026-04-19T09:47:31Z</time></trkpt><trkpt lat="44.911118722749" lon="8.000172997807471"><ele>228.0</ele><time>2026-04-19T09:47:32Z</time></trkpt><trkpt lat="44.9110644458121" lon="8.000062885599794"><ele>228.0</ele><time>2026-04-19T09:47:33Z</time></trkpt><trkpt lat="44.91100463433594" lon="7.999956203267247"><ele>228.0</ele><time>2026-04-19T09:47:34Z</time></trkpt><trkpt lat="44.91094989307501" lon="7.999846532416301"><ele>228.0</ele><time>2026-04-19T09:47:35Z</time></trkpt><trkpt lat="44.91089927424724" lon="7.999730596502208"><ele>228.0</ele><time>2026-04-19T09:47:36Z</time></trkpt><trkpt lat="44.91084612107536" lon="7.999620017470867"><ele>228.0</ele><time>2026-04-19T09:47:37Z</time></trkpt><trkpt lat="44.910796145881896" lon="7.999508251232933"><ele>229.2</ele><time>2026-04-19T09:47:38Z</time></trkpt><trkpt lat="44.910744731864504" lon="7.999389242086231"><ele>230.4</ele><time>2026-04-19T09:47:39Z</time></trkpt><trkpt lat="44.91069378536715" lon="7.999271570132569"><ele>231.59999999999997</ele><time>2026-04-19T09:47:40Z</time></trkpt><trkpt lat="44.91063911256853" lon="7.999146614947571"><ele>232.79999999999998</ele><time>2026-04-19T09:47:41Z</time></trkpt><trkpt lat="44.910583140278455" lon="7.999021283555546"><ele>234.0</ele><time>2026-04-19T09:47:42Z</time></trkpt><trkpt lat="44.91052859278675" lon="7.998899890318987"><ele>234.0</ele><time>2026-04-19T09:47:43Z</time></trkpt><trkpt lat="44.91047109586317" lon="7.99878918037377"><ele>234.0</ele><time>2026-04-19T09:47:44Z</time></trkpt><trkpt lat="44.91042178174929" lon="7.998674049017491"><ele>234.0</ele><time>2026-04-19T09:47:45Z</time></trkpt><trkpt lat="44.910372875025935" lon="7.99855571859895"><ele>234.0</ele><time>2026-04-19T09:47:46Z</time></trkpt><trkpt lat="44.91032590566336" lon="7.998451439777806"><ele>234.0</ele><time>2026-04-19T09:47:47Z</time></trkpt><trkpt lat="44.910280178739434" lon="7.998376484365386"><ele>234.0</ele><time>2026-04-19T09:47:48Z</time></trkpt><trkpt lat="44.910222728743115" lon="7.9983089287707365"><ele>233.83333333333334</ele><time>2026-04-19T09:47:49Z</time></trkpt><trkpt lat="44.910154375253136" lon="7.998283745968256"><ele>233.66666666666669</ele><time>2026-04-19T09:47:50Z</time></trkpt><trkpt lat="44.91007598027296" lon="7.9982764684928735"><ele>233.5</ele><time>2026-04-19T09:47:51Z</time></trkpt><trkpt lat="44.90999241169101" lon="7.998273968583987"><ele>233.33333333333334</ele><time>2026-04-19T09:47:52Z</time></trkpt><trkpt lat="44.90990644588957" lon="7.998266454323989"><ele>233.16666666666669</ele><time>2026-04-19T09:47:53Z</time></trkpt><trkpt lat="44.909822577657984" lon="7.998267555513604"><ele>233.0</ele><time>2026-04-19T09:47:54Z</time></trkpt><trkpt lat="44.90973355768329" lon="7.998262819143383"><ele>233.00000000000003</ele><time>2026-04-19T09:47:55Z</time></trkpt><trkpt lat="44.90964871162439" lon="7.998255802161626"><ele>233.0</ele><time>2026-04-19T09:47:56Z</time></trkpt><trkpt lat="44.90956362532803" lon="7.998238402981707"><ele>233.0</ele><time>2026-04-19T09:47:57Z</time></trkpt><trkpt lat="44.90948305798046" lon="7.998218300826897"><ele>233.0</ele><time>2026-04-19T09:47:58Z</time></trkpt><trkpt lat="44.909409174249774" lon="7.998204101413765"><ele>233.00000000000003</ele><time>2026-04-19T09:47:59Z</time></trkpt><trkpt lat="44.90934336337706" lon="7.998193879305686"><ele>233.0</ele><time>2026-04-19T09:48:00Z</time></trkpt><trkpt lat="44.909257494332586" lon="7.99818643745466"><ele>233.2</ele><time>2026-04-19T09:48:01Z</time></trkpt><trkpt lat="44.90914881334831" lon="7.998176513366623"><ele>233.4</ele><time>2026-04-19T09:48:02Z</time></trkpt><trkpt lat="44.90903489542761" lon="7.998166284217645"><ele>233.59999999999997</ele><time>2026-04-19T09:48:03Z</time></trkpt><trkpt lat="44.908924459737484" lon="7.998155840728071"><ele>233.79999999999998</ele><time>2026-04-19T09:48:04Z</time></trkpt><trkpt lat="44.9088175133813" lon="7.998142644442435"><ele>234.0</ele><time>2026-04-19T09:48:05Z</time></trkpt><trkpt lat="44.908712325272056" lon="7.998129377500548"><ele>234.0</ele><time>2026-04-19T09:48:06Z</time></trkpt><trkpt lat="44.9086046548826" lon="7.998114311720383"><ele>233.99999999999997</ele><time>2026-04-19T09:48:07Z</time></trkpt><trkpt lat="44.908495097179824" lon="7.998097280237373"><ele>233.99999999999997</ele><time>2026-04-19T09:48:08Z</time></trkpt><trkpt lat="44.90838431694484" lon="7.998075961947538"><ele>234.0</ele><time>2026-04-19T09:48:09Z</time></trkpt><trkpt lat="44.90827511041757" lon="7.998042468184782"><ele>234.0</ele><time>2026-04-19T09:48:10Z</time></trkpt><trkpt lat="44.90816852251098" lon="7.998010818092607"><ele>234.66666666666666</ele><time>2026-04-19T09:48:11Z</time></trkpt><trkpt lat="44.90806380750686" lon="7.997999742513511"><ele>235.33333333333331</ele><time>2026-04-19T09:48:12Z</time></trkpt><trkpt lat="44.907976037758694" lon="7.998013559928396"><ele>236.0</ele><time>2026-04-19T09:48:13Z</time></trkpt><trkpt lat="44.90790566264725" lon="7.998049060355664"><ele>236.66666666666666</ele><time>2026-04-19T09:48:14Z</time></trkpt><trkpt lat="44.90785033459505" lon="7.99809221302197"><ele>237.33333333333331</ele><time>2026-04-19T09:48:15Z</time></trkpt><trkpt lat="44.907746777738346" lon="7.998159672255895"><ele>238.0</ele><time>2026-04-19T09:48:17Z</time></trkpt><trkpt lat="44.907630184364244" lon="7.998242807343192"><ele>237.99999999999997</ele><time>2026-04-19T09:48:18.999Z</time></trkpt><trkpt lat="44.90754506870368" lon="7.998353010458368"><ele>238.0</ele><time>2026-04-19T09:48:20.999Z</time></trkpt><trkpt lat="44.90752116568982" lon="7.998459714220973"><ele>238.0</ele><time>2026-04-19T09:48:22.999Z</time></trkpt><trkpt lat="44.90755729315647" lon="7.998550186420248"><ele>238.0</ele><time>2026-04-19T09:48:25.999Z</time></trkpt><trkpt lat="44.907592334591314" lon="7.998455956205464"><ele>237.99999999999997</ele><time>2026-04-19T09:48:28.999Z</time></trkpt><trkpt lat="44.90755227874551" lon="7.998380887450255"><ele>238.0</ele><time>2026-04-19T09:48:30.999Z</time></trkpt><trkpt lat="44.907590875773074" lon="7.998267939648597"><ele>238.0</ele><time>2026-04-19T09:48:32.999Z</time></trkpt><trkpt lat="44.90765518575485" lon="7.998213994258848"><ele>238.0</ele><time>2026-04-19T09:48:33.999Z</time></trkpt><trkpt lat="44.907732607516216" lon="7.9981615336946765"><ele>238.0</ele><time>2026-04-19T09:48:34.999Z</time></trkpt><trkpt lat="44.90781827386885" lon="7.998121317428286"><ele>238.0</ele><time>2026-04-19T09:48:35.999Z</time></trkpt><trkpt lat="44.90791739340058" lon="7.998062315955899"><ele>238.0</ele><time>2026-04-19T09:48:36.999Z</time></trkpt><trkpt lat="44.90802207542277" lon="7.998016590027797"><ele>238.0</ele><time>2026-04-19T09:48:37.999Z</time></trkpt><trkpt lat="44.90812280220697" lon="7.998001117254335"><ele>238.0</ele><time>2026-04-19T09:48:38.999Z</time></trkpt><trkpt lat="44.90824573942836" lon="7.998017387586808"><ele>238.0</ele><time>2026-04-19T09:48:39.999Z</time></trkpt><trkpt lat="44.908378306542836" lon="7.998054232358476"><ele>238.0</ele><time>2026-04-19T09:48:40.999Z</time></trkpt><trkpt lat="44.90851150108337" lon="7.9980966845375026"><ele>237.0</ele><time>2026-04-19T09:48:41.999Z</time></trkpt><trkpt lat="44.908656968723164" lon="7.998127529408666"><ele>236.0</ele><time>2026-04-19T09:48:42.999Z</time></trkpt><trkpt lat="44.90879239474778" lon="7.998144073947927"><ele>235.0</ele><time>2026-04-19T09:48:43.999Z</time></trkpt><trkpt lat="44.90892283565627" lon="7.998157350606465"><ele>234.0</ele><time>2026-04-19T09:48:44.999Z</time></trkpt><trkpt lat="44.90904783688095" lon="7.998166939510684"><ele>234.0</ele><time>2026-04-19T09:48:45.999Z</time></trkpt><trkpt lat="44.90917052068618" lon="7.99817800606096"><ele>234.0</ele><time>2026-04-19T09:48:46.999Z</time></trkpt><trkpt lat="44.9092947685069" lon="7.998196347814945"><ele>234.0</ele><time>2026-04-19T09:48:47.999Z</time></trkpt><trkpt lat="44.90942250247566" lon="7.9982104955894675"><ele>234.0</ele><time>2026-04-19T09:48:48.999Z</time></trkpt><trkpt lat="44.909550419247424" lon="7.998225041992579"><ele>233.75</ele><time>2026-04-19T09:48:49.999Z</time></trkpt><trkpt lat="44.9096803129996" lon="7.998242838728917"><ele>233.5</ele><time>2026-04-19T09:48:50.999Z</time></trkpt><trkpt lat="44.90980895651822" lon="7.9982648849383"><ele>233.25</ele><time>2026-04-19T09:48:51.999Z</time></trkpt><trkpt lat="44.9099357261006" lon="7.998281929844703"><ele>233.0</ele><time>2026-04-19T09:48:52.999Z</time></trkpt><trkpt lat="44.91005006898076" lon="7.998288923121133"><ele>233.2</ele><time>2026-04-19T09:48:53.999Z</time></trkpt><trkpt lat="44.910152482006545" lon="7.998296876916978"><ele>233.4</ele><time>2026-04-19T09:48:54.999Z</time></trkpt><trkpt lat="44.910243956595245" lon="7.998325618485754"><ele>233.59999999999997</ele><time>2026-04-19T09:48:55.999Z</time></trkpt><trkpt lat="44.91031489260961" lon="7.998393865297451"><ele>233.79999999999998</ele><time>2026-04-19T09:48:56.999Z</time></trkpt><trkpt lat="44.91037452729797" lon="7.998521811518434"><ele>234.0</ele><time>2026-04-19T09:48:57.999Z</time></trkpt><trkpt lat="44.91044337314712" lon="7.998690578624183"><ele>234.0</ele><time>2026-04-19T09:48:58.999Z</time></trkpt><trkpt lat="44.91051633163039" lon="7.998872518419315"><ele>234.0</ele><time>2026-04-19T09:48:59.999Z</time></trkpt><trkpt lat="44.910595799263774" lon="7.999055412262414"><ele>234.0</ele><time>2026-04-19T09:49:00.999Z</time></trkpt><trkpt lat="44.910680442420656" lon="7.999232427973231"><ele>234.0</ele><time>2026-04-19T09:49:01.999Z</time></trkpt><trkpt lat="44.91075938297261" lon="7.999396706259931"><ele>234.0</ele><time>2026-04-19T09:49:02.999Z</time></trkpt><trkpt lat="44.910829449032306" lon="7.999554291258809"><ele>234.0</ele><time>2026-04-19T09:49:03.999Z</time></trkpt><trkpt lat="44.91090047423155" lon="7.999711155860796"><ele>234.0</ele><time>2026-04-19T09:49:04.999Z</time></trkpt><trkpt lat="44.910968989172986" lon="7.99986643259696"><ele>232.5</ele><time>2026-04-19T09:49:05.999Z</time></trkpt><trkpt lat="44.91104102688471" lon="8.000016610451793"><ele>231.0</ele><time>2026-04-19T09:49:06.999Z</time></trkpt><trkpt lat="44.91111269748695" lon="8.000162857422035"><ele>229.5</ele><time>2026-04-19T09:49:07.999Z</time></trkpt><trkpt lat="44.91117924637614" lon="8.000309561596618"><ele>228.0</ele><time>2026-04-19T09:49:09Z</time></trkpt><trkpt lat="44.91124287587073" lon="8.000449201545123"><ele>228.0</ele><time>2026-04-19T09:49:10Z</time></trkpt><trkpt lat="44.91130329962709" lon="8.000574068259622"><ele>228.0</ele><time>2026-04-19T09:49:11Z</time></trkpt><trkpt lat="44.911358600671825" lon="8.000686298503492"><ele>228.0</ele><time>2026-04-19T09:49:12Z</time></trkpt><trkpt lat="44.911412899191305" lon="8.000781380312304"><ele>228.0</ele><time>2026-04-19T09:49:13Z</time></trkpt><trkpt lat="44.911471297148445" lon="8.000877622717843"><ele>228.0</ele><time>2026-04-19T09:49:14Z</time></trkpt><trkpt lat="44.91153346967596" lon="8.00097492104893"><ele>228.2</ele><time>2026-04-19T09:49:15Z</time></trkpt><trkpt lat="44.91159849563284" lon="8.00106962793903"><ele>228.4</ele><time>2026-04-19T09:49:16Z</time></trkpt><trkpt lat="44.911662568111424" lon="8.00117819367996"><ele>228.59999999999997</ele><time>2026-04-19T09:49:17Z</time></trkpt><trkpt lat="44.91172423721343" lon="8.001295647982637"><ele>228.79999999999998</ele><time>2026-04-19T09:49:18Z</time></trkpt><trkpt lat="44.911782076058074" lon="8.001423806864656"><ele>229.0</ele><time>2026-04-19T09:49:19Z</time></trkpt><trkpt lat="44.91184061856624" lon="8.001545716959265"><ele>229.0</ele><time>2026-04-19T09:49:20Z</time></trkpt><trkpt lat="44.91189848996877" lon="8.001662213930068"><ele>228.99999999999997</ele><time>2026-04-19T09:49:21Z</time></trkpt><trkpt lat="44.911950188072275" lon="8.001777214159423"><ele>228.99999999999997</ele><time>2026-04-19T09:49:22Z</time></trkpt><trkpt lat="44.91199676477118" lon="8.001892537640144"><ele>229.0</ele><time>2026-04-19T09:49:23Z</time></trkpt><trkpt lat="44.91203640219146" lon="8.002004150148542"><ele>229.0</ele><time>2026-04-19T09:49:24Z</time></trkpt><trkpt lat="44.91207080205048" lon="8.0021099138143"><ele>229.6</ele><time>2026-04-19T09:49:25Z</time></trkpt><trkpt lat="44.9120955248669" lon="8.002206513843515"><ele>230.2</ele><time>2026-04-19T09:49:26Z</time></trkpt><trkpt lat="44.912093806522876" lon="8.002353698087967"><ele>230.79999999999998</ele><time>2026-04-19T09:49:28Z</time></trkpt><trkpt lat="44.91203644956193" lon="8.00248614877192"><ele>231.39999999999998</ele><time>2026-04-19T09:49:30Z</time></trkpt><trkpt lat="44.91205892272444" lon="8.002588513827623"><ele>232.0</ele><time>2026-04-19T09:49:42Z</time></trkpt><trkpt lat="44.91207512144326" lon="8.002717596725642"><ele>232.16666666666666</ele><time>2026-04-19T09:49:44Z</time></trkpt><trkpt lat="44.91208244033599" lon="8.002806478003338"><ele>232.33333333333331</ele><time>2026-04-19T09:49:45Z</time></trkpt><trkpt lat="44.91208956381013" lon="8.00291514329419"><ele>232.5</ele><time>2026-04-19T09:49:46Z</time></trkpt><trkpt lat="44.91211154699492" lon="8.003019475125189"><ele>232.66666666666669</ele><time>2026-04-19T09:49:47Z</time></trkpt><trkpt lat="44.91213983117028" lon="8.003136469528567"><ele>232.83333333333334</ele><time>2026-04-19T09:49:48Z</time></trkpt><trkpt lat="44.91215693083122" lon="8.003258317319524"><ele>233.0</ele><time>2026-04-19T09:49:49Z</time></trkpt><trkpt lat="44.912165441508726" lon="8.00337790891174"><ele>233.83333333333334</ele><time>2026-04-19T09:49:50Z</time></trkpt><trkpt lat="44.912173049864634" lon="8.003493126998025"><ele>234.66666666666669</ele><time>2026-04-19T09:49:51Z</time></trkpt><trkpt lat="44.91218037245809" lon="8.003588479370375"><ele>235.5</ele><time>2026-04-19T09:49:52Z</time></trkpt><trkpt lat="44.91218731624322" lon="8.00372794834783"><ele>236.33333333333331</ele><time>2026-04-19T09:49:54Z</time></trkpt><trkpt lat="44.91220154107685" lon="8.00382345589877"><ele>237.16666666666666</ele><time>2026-04-19T09:49:56Z</time></trkpt><trkpt lat="44.91225617708844" lon="8.003897700298943"><ele>238.0</ele><time>2026-04-19T09:49:58Z</time></trkpt><trkpt lat="44.912350335971354" lon="8.004002301401654"><ele>238.0</ele><time>2026-04-19T09:50:00Z</time></trkpt><trkpt lat="44.91244699047493" lon="8.004081384423401"><ele>238.0</ele><time>2026-04-19T09:50:02Z</time></trkpt><trkpt lat="44.91250620469035" lon="8.004157945332791"><ele>238.0</ele><time>2026-04-19T09:50:03Z</time></trkpt><trkpt lat="44.91256810402947" lon="8.00425336705127"><ele>238.0</ele><time>2026-04-19T09:50:04Z</time></trkpt><trkpt lat="44.91261653595953" lon="8.004342076231877"><ele>238.0</ele><time>2026-04-19T09:50:05Z</time></trkpt><trkpt lat="44.91266837532409" lon="8.004447353059305"><ele>238.60000000000002</ele><time>2026-04-19T09:50:06Z</time></trkpt><trkpt lat="44.91271923069334" lon="8.00455368586286"><ele>239.20000000000002</ele><time>2026-04-19T09:50:07Z</time></trkpt><trkpt lat="44.91276117178105" lon="8.004643250918422"><ele>239.8</ele><time>2026-04-19T09:50:08Z</time></trkpt><trkpt lat="44.912806379904644" lon="8.004761361893987"><ele>240.4</ele><time>2026-04-19T09:50:10Z</time></trkpt><trkpt lat="44.91283275350031" lon="8.0048716558556"><ele>241.0</ele><time>2026-04-19T09:50:12Z</time></trkpt><trkpt lat="44.91290105392013" lon="8.005011593470782"><ele>241.66666666666666</ele><time>2026-04-19T09:50:32.999Z</time></trkpt><trkpt lat="44.91292169037275" lon="8.005131564121067"><ele>242.33333333333331</ele><time>2026-04-19T09:50:33.999Z</time></trkpt><trkpt lat="44.912952785493076" lon="8.005245650522195"><ele>243.0</ele><time>2026-04-19T09:50:35.999Z</time></trkpt><trkpt lat="44.912997714646934" lon="8.005165196141025"><ele>243.66666666666669</ele><time>2026-04-19T09:50:47.999Z</time></trkpt><trkpt lat="44.91306409408419" lon="8.005154988103902"><ele>244.33333333333334</ele><time>2026-04-19T09:50:49.999Z</time></trkpt><trkpt lat="44.91312753707658" lon="8.005204498695287"><ele>245.0</ele><time>2026-04-19T09:50:50.999Z</time></trkpt><trkpt lat="44.91320568752701" lon="8.005238196571534"><ele>245.0</ele><time>2026-04-19T09:50:51.999Z</time></trkpt><trkpt lat="44.91330762087727" lon="8.00525375679011"><ele>245.0</ele><time>2026-04-19T09:50:52.999Z</time></trkpt><trkpt lat="44.91345902794963" lon="8.005263470777388"><ele>245.0</ele><time>2026-04-19T09:50:53.999Z</time></trkpt><trkpt lat="44.91361950140859" lon="8.00526739558018"><ele>245.0</ele><time>2026-04-19T09:50:54.999Z</time></trkpt><trkpt lat="44.91373428415736" lon="8.00530390254144"><ele>245.2</ele><time>2026-04-19T09:50:55.999Z</time></trkpt><trkpt lat="44.91383512368568" lon="8.005367958665959"><ele>245.4</ele><time>2026-04-19T09:50:56.999Z</time></trkpt><trkpt lat="44.91393136029804" lon="8.005419215149876"><ele>245.60000000000002</ele><time>2026-04-19T09:50:57.999Z</time></trkpt><trkpt lat="44.914038634059594" lon="8.00544541172211"><ele>245.8</ele><time>2026-04-19T09:50:58.999Z</time></trkpt><trkpt lat="44.91415957423786" lon="8.00545076158876"><ele>246.0</ele><time>2026-04-19T09:50:59.999Z</time></trkpt><trkpt lat="44.91427405698283" lon="8.005460864303826"><ele>245.20000000000002</ele><time>2026-04-19T09:51:00.999Z</time></trkpt><trkpt lat="44.914376945109304" lon="8.005484399365189"><ele>244.40000000000003</ele><time>2026-04-19T09:51:01.999Z</time></trkpt><trkpt lat="44.91447372373545" lon="8.005507161781974"><ele>243.6</ele><time>2026-04-19T09:51:02.999Z</time></trkpt><trkpt lat="44.914572911034114" lon="8.005528331210728"><ele>242.8</ele><time>2026-04-19T09:51:03.999Z</time></trkpt><trkpt lat="44.914670116819764" lon="8.005544778951554"><ele>242.0</ele><time>2026-04-19T09:51:04.999Z</time></trkpt><trkpt lat="44.91476647358023" lon="8.005554592701827"><ele>242.00000000000003</ele><time>2026-04-19T09:51:05.999Z</time></trkpt><trkpt lat="44.91484919498212" lon="8.00556310057518"><ele>242.0</ele><time>2026-04-19T09:51:06.999Z</time></trkpt><trkpt lat="44.9149366709039" lon="8.005579196524069"><ele>242.0</ele><time>2026-04-19T09:51:07.999Z</time></trkpt><trkpt lat="44.915024949359065" lon="8.005594552383801"><ele>242.0</ele><time>2026-04-19T09:51:08.999Z</time></trkpt><trkpt lat="44.91511732440038" lon="8.005599741292036"><ele>242.00000000000003</ele><time>2026-04-19T09:51:09.999Z</time></trkpt><trkpt lat="44.91521068182708" lon="8.005601764443707"><ele>242.0</ele><time>2026-04-19T09:51:10.999Z</time></trkpt><trkpt lat="44.91530744163741" lon="8.00560313683472"><ele>238.25</ele><time>2026-04-19T09:51:11.999Z</time></trkpt><trkpt lat="44.91541207756757" lon="8.005613096460905"><ele>234.5</ele><time>2026-04-19T09:51:12.999Z</time></trkpt><trkpt lat="44.915534474374326" lon="8.00563536481636"><ele>230.75</ele><time>2026-04-19T09:51:13.999Z</time></trkpt><trkpt lat="44.915659612656874" lon="8.005654096054595"><ele>227.0</ele><time>2026-04-19T09:51:15Z</time></trkpt><trkpt lat="44.9157824694303" lon="8.005670534566564"><ele>227.0</ele><time>2026-04-19T09:51:16Z</time></trkpt><trkpt lat="44.91589939667875" lon="8.005701622990596"><ele>227.0</ele><time>2026-04-19T09:51:17Z</time></trkpt><trkpt lat="44.91600848047839" lon="8.005719989181033"><ele>227.0</ele><time>2026-04-19T09:51:18Z</time></trkpt><trkpt lat="44.91611470042577" lon="8.005729604797839"><ele>227.0</ele><time>2026-04-19T09:51:19Z</time></trkpt><trkpt lat="44.916230646619994" lon="8.005759519080266"><ele>225.6</ele><time>2026-04-19T09:51:20Z</time></trkpt><trkpt lat="44.9163559524059" lon="8.005798578292778"><ele>224.2</ele><time>2026-04-19T09:51:21Z</time></trkpt><trkpt lat="44.91646997226239" lon="8.005836813984336"><ele>222.8</ele><time>2026-04-19T09:51:22Z</time></trkpt><trkpt lat="44.916567339586294" lon="8.00587596836559"><ele>221.4</ele><time>2026-04-19T09:51:23Z</time></trkpt><trkpt lat="44.91665460364821" lon="8.005939731408498"><ele>220.0</ele><time>2026-04-19T09:51:24Z</time></trkpt><trkpt lat="44.91673917593356" lon="8.006012652797576"><ele>219.4</ele><time>2026-04-19T09:51:25Z</time></trkpt><trkpt lat="44.91681565030809" lon="8.006075850208722"><ele>218.8</ele><time>2026-04-19T09:51:26Z</time></trkpt><trkpt lat="44.91687653823127" lon="8.006106140643169"><ele>218.2</ele><time>2026-04-19T09:51:27Z</time></trkpt><trkpt lat="44.916997255540096" lon="8.006021157051759"><ele>217.6</ele><time>2026-04-19T09:51:29Z</time></trkpt><trkpt lat="44.917079467285774" lon="8.005911834591915"><ele>217.0</ele><time>2026-04-19T09:51:30Z</time></trkpt><trkpt lat="44.917147765113896" lon="8.005815752826452"><ele>217.0</ele><time>2026-04-19T09:51:31Z</time></trkpt><trkpt lat="44.91724619572848" lon="8.005810486188325"><ele>217.0</ele><time>2026-04-19T09:51:33Z</time></trkpt><trkpt lat="44.917299980019656" lon="8.005898080933026"><ele>217.0</ele><time>2026-04-19T09:51:34Z</time></trkpt><trkpt lat="44.91736721963588" lon="8.005870075008088"><ele>217.0</ele><time>2026-04-19T09:51:39Z</time></trkpt><trkpt lat="44.91744506178577" lon="8.00577560707952"><ele>217.0</ele><time>2026-04-19T09:51:41Z</time></trkpt><trkpt lat="44.91758161276601" lon="8.005740731163401"><ele>212.99999999999997</ele><time>2026-04-19T09:51:43Z</time></trkpt><trkpt lat="44.9176480762279" lon="8.005726658635913"><ele>209.0</ele><time>2026-04-19T09:51:44Z</time></trkpt><trkpt lat="44.917710890858785" lon="8.005694917305911"><ele>205.0</ele><time>2026-04-19T09:51:46Z</time></trkpt><trkpt lat="44.917754761778255" lon="8.005577441883442"><ele>201.0</ele><time>2026-04-19T09:51:48Z</time></trkpt><trkpt lat="44.91784828361716" lon="8.00549296552497"><ele>196.99999999999997</ele><time>2026-04-19T09:51:50Z</time></trkpt><trkpt lat="44.91793943556375" lon="8.00542348728431"><ele>193.0</ele><time>2026-04-19T09:51:52Z</time></trkpt><trkpt lat="44.91792695366167" lon="8.005334430826283"><ele>192.99999999999997</ele><time>2026-04-19T09:51:54Z</time></trkpt><trkpt lat="44.91787345999026" lon="8.00527057221472"><ele>193.0</ele><time>2026-04-19T09:51:57Z</time></trkpt><trkpt lat="44.91795138049186" lon="8.005196682050169"><ele>193.0</ele><time>2026-04-19T09:51:59Z</time></trkpt><trkpt lat="44.917988597983936" lon="8.00507633591151"><ele>193.0</ele><time>2026-04-19T09:52:04Z</time></trkpt><trkpt lat="44.91808715655048" lon="8.005080455974976"><ele>192.99999999999997</ele><time>2026-04-19T09:52:06Z</time></trkpt><trkpt lat="44.918133705463134" lon="8.005000999606821"><ele>193.0</ele><time>2026-04-19T09:52:09Z</time></trkpt><trkpt lat="44.918148824491915" lon="8.004913263840578"><ele>191.49999999999997</ele><time>2026-04-19T09:52:11Z</time></trkpt><trkpt lat="44.918195919165235" lon="8.004844287987043"><ele>190.0</ele><time>2026-04-19T09:52:13Z</time></trkpt><trkpt lat="44.9182430743341" lon="8.004724794550452"><ele>188.5</ele><time>2026-04-19T09:52:15Z</time></trkpt><trkpt lat="44.91826952087506" lon="8.004623322414597"><ele>187.0</ele><time>2026-04-19T09:52:18Z</time></trkpt><trkpt lat="44.91823862267625" lon="8.004503185977132"><ele>185.5</ele><time>2026-04-19T09:52:20Z</time></trkpt><trkpt lat="44.918211924808666" lon="8.004399295367431"><ele>184.0</ele><time>2026-04-19T09:52:22Z</time></trkpt><trkpt lat="44.918227054406145" lon="8.004298229833328"><ele>184.0</ele><time>2026-04-19T09:52:23Z</time></trkpt><trkpt lat="44.91823978239201" lon="8.004169768973194"><ele>184.0</ele><time>2026-04-19T09:52:25Z</time></trkpt><trkpt lat="44.91822097993349" lon="8.004080984974758"><ele>184.0</ele><time>2026-04-19T09:52:29Z</time></trkpt><trkpt lat="44.918190838640065" lon="8.003967091905174"><ele>184.0</ele><time>2026-04-19T09:52:32Z</time></trkpt><trkpt lat="44.91814433377182" lon="8.003889936009742"><ele>184.0</ele><time>2026-04-19T09:52:34Z</time></trkpt><trkpt lat="44.91819058353478" lon="8.003748224644063"><ele>184.0</ele><time>2026-04-19T09:52:36Z</time></trkpt><trkpt lat="44.91818444991994" lon="8.003620030188978"><ele>182.83333333333334</ele><time>2026-04-19T09:52:38Z</time></trkpt><trkpt lat="44.91820296248419" lon="8.003514796062047"><ele>181.66666666666669</ele><time>2026-04-19T09:52:40Z</time></trkpt><trkpt lat="44.91825034933442" lon="8.003453695103765"><ele>180.5</ele><time>2026-04-19T09:52:41Z</time></trkpt><trkpt lat="44.918329391905836" lon="8.003385988506688"><ele>179.33333333333334</ele><time>2026-04-19T09:52:43Z</time></trkpt><trkpt lat="44.91830790997049" lon="8.003273140460758"><ele>178.16666666666666</ele><time>2026-04-19T09:52:45.999Z</time></trkpt><trkpt lat="44.91825370093957" lon="8.003174435767074"><ele>177.0</ele><time>2026-04-19T09:52:47.999Z</time></trkpt><trkpt lat="44.91819811628254" lon="8.003059288088352"><ele>176.2</ele><time>2026-04-19T09:52:49.999Z</time></trkpt><trkpt lat="44.91813380615183" lon="8.002947556010511"><ele>175.39999999999998</ele><time>2026-04-19T09:52:51.999Z</time></trkpt><trkpt lat="44.91803067446019" lon="8.002905392988623"><ele>174.60000000000002</ele><time>2026-04-19T09:52:53.999Z</time></trkpt><trkpt lat="44.917947956176" lon="8.002910328682061"><ele>173.8</ele><time>2026-04-19T09:52:54.999Z</time></trkpt><trkpt lat="44.917837873124945" lon="8.00292590822711"><ele>173.0</ele><time>2026-04-19T09:52:56.999Z</time></trkpt><trkpt lat="44.9177389105669" lon="8.002891220976661"><ele>173.0</ele><time>2026-04-19T09:52:58.999Z</time></trkpt><trkpt lat="44.917639092197696" lon="8.00285006909128"><ele>173.0</ele><time>2026-04-19T09:53:00.999Z</time></trkpt><trkpt lat="44.91756560756532" lon="8.002761393994657"><ele>173.0</ele><time>2026-04-19T09:53:07.999Z</time></trkpt><trkpt lat="44.91743519268055" lon="8.002774678745869"><ele>173.0</ele><time>2026-04-19T09:53:09.999Z</time></trkpt><trkpt lat="44.91736678578831" lon="8.002720075493487"><ele>173.0</ele><time>2026-04-19T09:53:10.999Z</time></trkpt><trkpt lat="44.917297478113305" lon="8.002667535601411"><ele>173.5</ele><time>2026-04-19T09:53:11.999Z</time></trkpt><trkpt lat="44.91722918333898" lon="8.0026560119967"><ele>174.0</ele><time>2026-04-19T09:53:12.999Z</time></trkpt><trkpt lat="44.917150276270746" lon="8.002631851956995"><ele>174.5</ele><time>2026-04-19T09:53:14.999Z</time></trkpt><trkpt lat="44.917103614719174" lon="8.002553128028975"><ele>175.0</ele><time>2026-04-19T09:53:16.999Z</time></trkpt><trkpt lat="44.91701883033641" lon="8.00252358302554"><ele>175.5</ele><time>2026-04-19T09:53:29Z</time></trkpt><trkpt lat="44.91695498238842" lon="8.002514516149258"><ele>176.0</ele><time>2026-04-19T09:53:32Z</time></trkpt><trkpt lat="44.91691248341829" lon="8.002420333706457"><ele>175.60000000000002</ele><time>2026-04-19T09:53:35Z</time></trkpt><trkpt lat="44.91685117437678" lon="8.002387169361704"><ele>175.2</ele><time>2026-04-19T09:53:38Z</time></trkpt><trkpt lat="44.916752038195845" lon="8.00240462790828"><ele>174.8</ele><time>2026-04-19T09:53:40Z</time></trkpt><trkpt lat="44.91663422557173" lon="8.002374240110253"><ele>174.39999999999998</ele><time>2026-04-19T09:53:42Z</time></trkpt><trkpt lat="44.91654936452645" lon="8.00232323811189"><ele>174.0</ele><time>2026-04-19T09:53:44Z</time></trkpt><trkpt lat="44.91643136300011" lon="8.002212168307464"><ele>174.0</ele><time>2026-04-19T09:53:47Z</time></trkpt><trkpt lat="44.91635095463074" lon="8.002113091697078"><ele>174.0</ele><time>2026-04-19T09:53:48Z</time></trkpt><trkpt lat="44.916275624569245" lon="8.001968976652485"><ele>174.0</ele><time>2026-04-19T09:53:49Z</time></trkpt><trkpt lat="44.916207840295314" lon="8.00180057919297"><ele>174.0</ele><time>2026-04-19T09:53:50Z</time></trkpt><trkpt lat="44.91615440784911" lon="8.001604491367399"><ele>173.66666666666666</ele><time>2026-04-19T09:53:51Z</time></trkpt><trkpt lat="44.91611621984048" lon="8.001489286774419"><ele>173.33333333333334</ele><time>2026-04-19T09:53:52Z</time></trkpt><trkpt lat="44.91606487598128" lon="8.001426807503673"><ele>173.0</ele><time>2026-04-19T09:53:53Z</time></trkpt><trkpt lat="44.91598450174973" lon="8.001368154023663"><ele>172.66666666666669</ele><time>2026-04-19T09:53:55Z</time></trkpt><trkpt lat="44.915902151268405" lon="8.001334080616488"><ele>172.33333333333334</ele><time>2026-04-19T09:53:58Z</time></trkpt><trkpt lat="44.915832431899744" lon="8.00128440213087"><ele>172.0</ele><time>2026-04-19T09:53:59Z</time></trkpt><trkpt lat="44.915763933256244" lon="8.001247163166807"><ele>173.0</ele><time>2026-04-19T09:54:00Z</time></trkpt><trkpt lat="44.915643704090925" lon="8.00116789944756"><ele>174.0</ele><time>2026-04-19T09:54:02Z</time></trkpt><trkpt lat="44.91557390582298" lon="8.001128689236795"><ele>175.0</ele><time>2026-04-19T09:54:03Z</time></trkpt><trkpt lat="44.915477003922895" lon="8.000986540220739"><ele>176.0</ele><time>2026-04-19T09:54:05Z</time></trkpt><trkpt lat="44.91539790423065" lon="8.00085647183294"><ele>175.0</ele><time>2026-04-19T09:54:06Z</time></trkpt><trkpt lat="44.91533667420639" lon="8.000750312724241"><ele>174.0</ele><time>2026-04-19T09:54:07Z</time></trkpt><trkpt lat="44.91529827225678" lon="8.000650215341683"><ele>173.0</ele><time>2026-04-19T09:54:08Z</time></trkpt><trkpt lat="44.9152871028949" lon="8.000532852500362"><ele>172.0</ele><time>2026-04-19T09:54:10Z</time></trkpt><trkpt lat="44.91526319117078" lon="8.000370178878914"><ele>171.0</ele><time>2026-04-19T09:54:12Z</time></trkpt><trkpt lat="44.915226846242334" lon="8.000281124989906"><ele>171.0</ele><time>2026-04-19T09:54:13Z</time></trkpt><trkpt lat="44.91515167263377" lon="8.000189274518561"><ele>171.0</ele><time>2026-04-19T09:54:14Z</time></trkpt><trkpt lat="44.915049037349924" lon="8.00010039308385"><ele>171.0</ele><time>2026-04-19T09:54:15Z</time></trkpt><trkpt lat="44.91495458428975" lon="7.999975064256371"><ele>171.0</ele><time>2026-04-19T09:54:16Z</time></trkpt><trkpt lat="44.914890940356756" lon="7.9998609116242685"><ele>173.0</ele><time>2026-04-19T09:54:17Z</time></trkpt><trkpt lat="44.91483633193834" lon="7.999759875949573"><ele>175.0</ele><time>2026-04-19T09:54:18Z</time></trkpt><trkpt lat="44.914797905829566" lon="7.999662116700691"><ele>177.0</ele><time>2026-04-19T09:54:19Z</time></trkpt><trkpt lat="44.91479703103086" lon="7.999549312140678"><ele>179.0</ele><time>2026-04-19T09:54:20Z</time></trkpt><trkpt lat="44.914798364381575" lon="7.999452959744646"><ele>181.0</ele><time>2026-04-19T09:54:21Z</time></trkpt><trkpt lat="44.91469628589962" lon="7.999308410882294"><ele>181.0</ele><time>2026-04-19T09:54:23Z</time></trkpt><trkpt lat="44.91462708321856" lon="7.999231595744896"><ele>181.0</ele><time>2026-04-19T09:54:24Z</time></trkpt><trkpt lat="44.91458632572154" lon="7.999162169176105"><ele>181.0</ele><time>2026-04-19T09:54:25Z</time></trkpt><trkpt lat="44.91455315474294" lon="7.999001529737158"><ele>181.0</ele><time>2026-04-19T09:54:27Z</time></trkpt><trkpt lat="44.914547289592264" lon="7.998899976736367"><ele>181.0</ele><time>2026-04-19T09:54:28Z</time></trkpt><trkpt lat="44.914506089182225" lon="7.9987420359447405"><ele>181.0</ele><time>2026-04-19T09:54:30Z</time></trkpt><trkpt lat="44.91446756139649" lon="7.998624870749921"><ele>181.0</ele><time>2026-04-19T09:54:31Z</time></trkpt><trkpt lat="44.91443274353186" lon="7.9985306729745576"><ele>181.0</ele><time>2026-04-19T09:54:32Z</time></trkpt><trkpt lat="44.91439520174549" lon="7.998436995997178"><ele>181.0</ele><time>2026-04-19T09:54:33Z</time></trkpt><trkpt lat="44.91436715459854" lon="7.998318237456891"><ele>181.0</ele><time>2026-04-19T09:54:34Z</time></trkpt><trkpt lat="44.91433737490619" lon="7.9982355782199965"><ele>181.0</ele><time>2026-04-19T09:54:35Z</time></trkpt><trkpt lat="44.91426609582507" lon="7.998213317223211"><ele>182.0</ele><time>2026-04-19T09:54:37Z</time></trkpt><trkpt lat="44.91420275532377" lon="7.998256830059758"><ele>183.0</ele><time>2026-04-19T09:54:39Z</time></trkpt><trkpt lat="44.91412812832486" lon="7.998213478218218"><ele>184.0</ele><time>2026-04-19T09:54:41Z</time></trkpt><trkpt lat="44.91404054487148" lon="7.998236994000522"><ele>185.0</ele><time>2026-04-19T09:54:44.999Z</time></trkpt><trkpt lat="44.91392617537689" lon="7.998263060028317"><ele>186.0</ele><time>2026-04-19T09:54:46.999Z</time></trkpt><trkpt lat="44.91382753582741" lon="7.998214034914977"><ele>186.0</ele><time>2026-04-19T09:54:48.999Z</time></trkpt><trkpt lat="44.913706118694456" lon="7.9981889855476584"><ele>186.0</ele><time>2026-04-19T09:54:50.999Z</time></trkpt><trkpt lat="44.91364109390795" lon="7.9981761720665245"><ele>186.0</ele><time>2026-04-19T09:54:51.999Z</time></trkpt><trkpt lat="44.9135299267639" lon="7.9981529399779205"><ele>186.0</ele><time>2026-04-19T09:54:53.999Z</time></trkpt><trkpt lat="44.91343150081585" lon="7.998059941080744"><ele>186.0</ele><time>2026-04-19T09:54:55.999Z</time></trkpt><trkpt lat="44.91338580147378" lon="7.997984751475197"><ele>186.0</ele><time>2026-04-19T09:54:56.999Z</time></trkpt><trkpt lat="44.91336393125509" lon="7.997895907771717"><ele>186.0</ele><time>2026-04-19T09:54:57.999Z</time></trkpt><trkpt lat="44.913365013601265" lon="7.997768834238347"><ele>186.0</ele><time>2026-04-19T09:54:59.999Z</time></trkpt><trkpt lat="44.91344487059277" lon="7.9976887059386526"><ele>186.0</ele><time>2026-04-19T09:55:01.999Z</time></trkpt><trkpt lat="44.91351711274804" lon="7.997553547193863"><ele>186.0</ele><time>2026-04-19T09:55:03.999Z</time></trkpt><trkpt lat="44.91359172802051" lon="7.997448446756358"><ele>186.66666666666666</ele><time>2026-04-19T09:55:05.999Z</time></trkpt><trkpt lat="44.91359211218684" lon="7.997345022534339"><ele>187.33333333333334</ele><time>2026-04-19T09:55:07.999Z</time></trkpt><trkpt lat="44.91352260643985" lon="7.9972856527197465"><ele>188.0</ele><time>2026-04-19T09:55:10.999Z</time></trkpt><trkpt lat="44.91341449651928" lon="7.997303708083777"><ele>188.66666666666669</ele><time>2026-04-19T09:55:12.999Z</time></trkpt><trkpt lat="44.913343657513536" lon="7.9972915669662985"><ele>189.33333333333334</ele><time>2026-04-19T09:55:13.999Z</time></trkpt><trkpt lat="44.91327989956075" lon="7.99729328159387"><ele>190.0</ele><time>2026-04-19T09:55:14.999Z</time></trkpt><trkpt lat="44.91317341043245" lon="7.997272021604877"><ele>190.0</ele><time>2026-04-19T09:55:16.999Z</time></trkpt><trkpt lat="44.91311873492807" lon="7.997113954464925"><ele>190.0</ele><time>2026-04-19T09:55:18.999Z</time></trkpt><trkpt lat="44.91309363138332" lon="7.997032015186038"><ele>190.0</ele><time>2026-04-19T09:55:27Z</time></trkpt><trkpt lat="44.913067885703704" lon="7.996949143222824"><ele>190.0</ele><time>2026-04-19T09:55:29Z</time></trkpt><trkpt lat="44.913025889917314" lon="7.996861051152799"><ele>190.0</ele><time>2026-04-19T09:55:31Z</time></trkpt><trkpt lat="44.913002554486056" lon="7.996739958183962"><ele>190.0</ele><time>2026-04-19T09:55:33Z</time></trkpt><trkpt lat="44.9129909989323" lon="7.996627196513584"><ele>188.2</ele><time>2026-04-19T09:55:35Z</time></trkpt><trkpt lat="44.91298693706655" lon="7.996513232564048"><ele>186.4</ele><time>2026-04-19T09:55:37Z</time></trkpt><trkpt lat="44.91301766231582" lon="7.996409981971576"><ele>184.60000000000002</ele><time>2026-04-19T09:55:39Z</time></trkpt><trkpt lat="44.912997393369515" lon="7.99625646938615"><ele>182.8</ele><time>2026-04-19T09:55:41Z</time></trkpt><trkpt lat="44.912988332843824" lon="7.9961323721907585"><ele>181.0</ele><time>2026-04-19T09:55:43Z</time></trkpt><trkpt lat="44.91294496409876" lon="7.996013141948074"><ele>181.0</ele><time>2026-04-19T09:55:45Z</time></trkpt><trkpt lat="44.9129819836132" lon="7.99591814244751"><ele>181.0</ele><time>2026-04-19T09:55:46Z</time></trkpt><trkpt lat="44.91303042393193" lon="7.995790965237927"><ele>181.0</ele><time>2026-04-19T09:55:47Z</time></trkpt><trkpt lat="44.91305723870614" lon="7.995663483330101"><ele>181.0</ele><time>2026-04-19T09:55:48Z</time></trkpt><trkpt lat="44.91308102545731" lon="7.995561921177035"><ele>181.0</ele><time>2026-04-19T09:55:49Z</time></trkpt><trkpt lat="44.91311094593233" lon="7.995472543365098"><ele>181.0</ele><time>2026-04-19T09:55:50Z</time></trkpt><trkpt lat="44.91313095467458" lon="7.995378298701925"><ele>180.66666666666669</ele><time>2026-04-19T09:55:51Z</time></trkpt><trkpt lat="44.91313196138633" lon="7.995287141852614"><ele>180.33333333333334</ele><time>2026-04-19T09:55:52Z</time></trkpt><trkpt lat="44.9130859783012" lon="7.995155980029841"><ele>180.0</ele><time>2026-04-19T09:55:54Z</time></trkpt><trkpt lat="44.913017150352346" lon="7.995077151029136"><ele>179.66666666666666</ele><time>2026-04-19T09:55:56Z</time></trkpt><trkpt lat="44.91300039567633" lon="7.994986422957502"><ele>179.33333333333331</ele><time>2026-04-19T09:56:24Z</time></trkpt><trkpt lat="44.91301361474329" lon="7.9948726980187175"><ele>179.0</ele><time>2026-04-19T09:56:40Z</time></trkpt><trkpt lat="44.91303745330801" lon="7.994771476524517"><ele>179.0</ele><time>2026-04-19T09:56:45.999Z</time></trkpt><trkpt lat="44.91306223883808" lon="7.994680708572488"><ele>179.0</ele><time>2026-04-19T09:56:47.999Z</time></trkpt><trkpt lat="44.91306930941975" lon="7.994573158740233"><ele>179.0</ele><time>2026-04-19T09:56:49.999Z</time></trkpt><trkpt lat="44.91300547088104" lon="7.994643884443567"><ele>179.0</ele><time>2026-04-19T09:56:52.999Z</time></trkpt><trkpt lat="44.912896251727204" lon="7.994668751171416"><ele>179.0</ele><time>2026-04-19T09:56:54.999Z</time></trkpt><trkpt lat="44.91274865817573" lon="7.9947034822300775"><ele>179.0</ele><time>2026-04-19T09:56:56.999Z</time></trkpt><trkpt lat="44.9126601455411" lon="7.994723326216472"><ele>179.0</ele><time>2026-04-19T09:56:57.999Z</time></trkpt><trkpt lat="44.91256999520246" lon="7.99475500477876"><ele>179.0</ele><time>2026-04-19T09:56:58.999Z</time></trkpt><trkpt lat="44.912467192705684" lon="7.99480713995925"><ele>179.0</ele><time>2026-04-19T09:56:59.999Z</time></trkpt><trkpt lat="44.912362776514236" lon="7.994854038862094"><ele>179.0</ele><time>2026-04-19T09:57:00.999Z</time></trkpt><trkpt lat="44.91227948439755" lon="7.994883685624409"><ele>179.33333333333331</ele><time>2026-04-19T09:57:01.999Z</time></trkpt><trkpt lat="44.91219135802958" lon="7.994932674336253"><ele>179.66666666666666</ele><time>2026-04-19T09:57:02.999Z</time></trkpt><trkpt lat="44.912104937522784" lon="7.994993135620758"><ele>180.0</ele><time>2026-04-19T09:57:03.999Z</time></trkpt><trkpt lat="44.9120344323994" lon="7.995039986922809"><ele>180.33333333333334</ele><time>2026-04-19T09:57:04.999Z</time></trkpt><trkpt lat="44.9119605694392" lon="7.995055759618574"><ele>180.66666666666669</ele><time>2026-04-19T09:57:05.999Z</time></trkpt><trkpt lat="44.91185807589664" lon="7.995058787448777"><ele>181.0</ele><time>2026-04-19T09:57:06.999Z</time></trkpt><trkpt lat="44.91174935438554" lon="7.995063121380327"><ele>182.4</ele><time>2026-04-19T09:57:07.999Z</time></trkpt><trkpt lat="44.91164299019743" lon="7.995084601086687"><ele>183.8</ele><time>2026-04-19T09:57:08.999Z</time></trkpt><trkpt lat="44.911544176014885" lon="7.9951078612736"><ele>185.20000000000002</ele><time>2026-04-19T09:57:09.999Z</time></trkpt><trkpt lat="44.91146443523672" lon="7.995135676042274"><ele>186.60000000000002</ele><time>2026-04-19T09:57:10.999Z</time></trkpt><trkpt lat="44.91138216734727" lon="7.995178188400626"><ele>188.0</ele><time>2026-04-19T09:57:11.999Z</time></trkpt><trkpt lat="44.91130558786968" lon="7.995220219156265"><ele>188.0</ele><time>2026-04-19T09:57:12.999Z</time></trkpt><trkpt lat="44.9112287972318" lon="7.995241414409441"><ele>188.0</ele><time>2026-04-19T09:57:13.999Z</time></trkpt><trkpt lat="44.911147806460086" lon="7.995226232711392"><ele>188.0</ele><time>2026-04-19T09:57:14.999Z</time></trkpt><trkpt lat="44.91105539457029" lon="7.995190365328529"><ele>188.0</ele><time>2026-04-19T09:57:15.999Z</time></trkpt><trkpt lat="44.910970308841414" lon="7.995170707908995"><ele>188.0</ele><time>2026-04-19T09:57:16.999Z</time></trkpt><trkpt lat="44.910891556200895" lon="7.995143286197275"><ele>188.0</ele><time>2026-04-19T09:57:17.999Z</time></trkpt><trkpt lat="44.91082950475407" lon="7.995123583752767"><ele>188.83333333333331</ele><time>2026-04-19T09:57:18.999Z</time></trkpt><trkpt lat="44.910758461264" lon="7.995184648547163"><ele>189.66666666666666</ele><time>2026-04-19T09:57:20.999Z</time></trkpt><trkpt lat="44.910697474423515" lon="7.995156271330362"><ele>190.5</ele><time>2026-04-19T09:57:23.999Z</time></trkpt><trkpt lat="44.91063246076832" lon="7.995161643499662"><ele>191.33333333333331</ele><time>2026-04-19T09:57:27.999Z</time></trkpt><trkpt lat="44.91054722108132" lon="7.9951455226141315"><ele>192.16666666666666</ele><time>2026-04-19T09:57:29.999Z</time></trkpt><trkpt lat="44.91049008637765" lon="7.995005062606313"><ele>193.0</ele><time>2026-04-19T09:57:31.999Z</time></trkpt><trkpt lat="44.91045197864729" lon="7.994914937548606"><ele>191.33333333333331</ele><time>2026-04-19T09:57:33Z</time></trkpt><trkpt lat="44.910390017704465" lon="7.994841036781227"><ele>189.66666666666666</ele><time>2026-04-19T09:57:34Z</time></trkpt><trkpt lat="44.91032130811035" lon="7.994784354915167"><ele>188.0</ele><time>2026-04-19T09:57:35Z</time></trkpt><trkpt lat="44.91031185236315" lon="7.99468930108402"><ele>186.33333333333331</ele><time>2026-04-19T09:57:40Z</time></trkpt><trkpt lat="44.91027088043782" lon="7.994583841406009"><ele>184.66666666666666</ele><time>2026-04-19T09:57:43Z</time></trkpt><trkpt lat="44.91030490566093" lon="7.994484915097041"><ele>183.0</ele><time>2026-04-19T09:57:46Z</time></trkpt><trkpt lat="44.91028194310971" lon="7.994358943289475"><ele>183.0</ele><time>2026-04-19T09:58:04Z</time></trkpt><trkpt lat="44.91024151365026" lon="7.994285413466841"><ele>183.0</ele><time>2026-04-19T09:58:08Z</time></trkpt><trkpt lat="44.910164146485734" lon="7.994254307473508"><ele>183.0</ele><time>2026-04-19T09:58:14Z</time></trkpt><trkpt lat="44.910089701745996" lon="7.994214333282065"><ele>183.0</ele><time>2026-04-19T09:58:18Z</time></trkpt><trkpt lat="44.91009645689305" lon="7.994120685029525"><ele>183.0</ele><time>2026-04-19T09:58:22Z</time></trkpt><trkpt lat="44.91005757001211" lon="7.994022353681422"><ele>183.0</ele><time>2026-04-19T09:58:25Z</time></trkpt><trkpt lat="44.91000733773318" lon="7.994086333163387"><ele>183.0</ele><time>2026-04-19T09:58:27Z</time></trkpt><trkpt lat="44.90991528424302" lon="7.994117902090192"><ele>183.5</ele><time>2026-04-19T09:58:31Z</time></trkpt><trkpt lat="44.909847791394064" lon="7.9941401635250635"><ele>184.0</ele><time>2026-04-19T09:58:33Z</time></trkpt><trkpt lat="44.90978576629747" lon="7.994190424080201"><ele>184.5</ele><time>2026-04-19T09:58:37Z</time></trkpt><trkpt lat="44.909715529878824" lon="7.994206877381704"><ele>185.0</ele><time>2026-04-19T09:58:40Z</time></trkpt><trkpt lat="44.9096661374545" lon="7.994087874520844"><ele>185.5</ele><time>2026-04-19T09:58:43Z</time></trkpt><trkpt lat="44.90956122148952" lon="7.9941565650952935"><ele>186.0</ele><time>2026-04-19T09:58:46Z</time></trkpt><trkpt lat="44.9094723740964" lon="7.994229800268249"><ele>186.0</ele><time>2026-04-19T09:58:48Z</time></trkpt><trkpt lat="44.90937727014199" lon="7.994254078488066"><ele>186.0</ele><time>2026-04-19T09:58:50Z</time></trkpt><trkpt lat="44.90928566846804" lon="7.994268844573339"><ele>186.0</ele><time>2026-04-19T09:58:52Z</time></trkpt><trkpt lat="44.90922701910379" lon="7.994309899574094"><ele>186.0</ele><time>2026-04-19T09:59:02.999Z</time></trkpt><trkpt lat="44.90914920075926" lon="7.994269708058741"><ele>186.0</ele><time>2026-04-19T09:59:07.999Z</time></trkpt><trkpt lat="44.90910069096066" lon="7.994357593109252"><ele>186.0</ele><time>2026-04-19T09:59:23.999Z</time></trkpt><trkpt lat="44.9090579205553" lon="7.994448897527517"><ele>186.14285714285717</ele><time>2026-04-19T09:59:27.999Z</time></trkpt><trkpt lat="44.9089839898043" lon="7.994425379283534"><ele>186.28571428571428</ele><time>2026-04-19T09:59:29.999Z</time></trkpt><trkpt lat="44.90893191387388" lon="7.994372176594146"><ele>186.42857142857144</ele><time>2026-04-19T09:59:31.999Z</time></trkpt><trkpt lat="44.90899476035482" lon="7.994404027457012"><ele>186.57142857142858</ele><time>2026-04-19T10:00:01Z</time></trkpt><trkpt lat="44.90905844064633" lon="7.994437215539482"><ele>186.71428571428572</ele><time>2026-04-19T10:00:18Z</time></trkpt><trkpt lat="44.90899366419923" lon="7.994448782125577"><ele>186.85714285714286</ele><time>2026-04-19T10:00:21Z</time></trkpt><trkpt lat="44.90890461620007" lon="7.9944049056146795"><ele>187.0</ele><time>2026-04-19T10:00:43Z</time></trkpt><trkpt lat="44.908830964935" lon="7.994433275533748"><ele>187.0</ele><time>2026-04-19T10:00:46Z</time></trkpt><trkpt lat="44.90885175604578" lon="7.994521543112553"><ele>187.0</ele><time>2026-04-19T10:00:48Z</time></trkpt><trkpt lat="44.90890715376831" lon="7.994571106208005"><ele>187.0</ele><time>2026-04-19T10:00:50Z</time></trkpt><trkpt lat="44.90889727262242" lon="7.994690758376594"><ele>187.0</ele><time>2026-04-19T10:00:53Z</time></trkpt><trkpt lat="44.90883478138286" lon="7.994752521180007"><ele>187.0</ele><time>2026-04-19T10:00:57Z</time></trkpt><trkpt lat="44.908777723329194" lon="7.99466104712175"><ele>187.0</ele><time>2026-04-19T10:01:01Z</time></trkpt><trkpt lat="44.9087085172753" lon="7.994634725195419"><ele>187.0</ele><time>2026-04-19T10:01:05.999Z</time></trkpt><trkpt lat="44.9086421235398" lon="7.994589967365254"><ele>187.0</ele><time>2026-04-19T10:01:07.999Z</time></trkpt><trkpt lat="44.90852613729872" lon="7.994619346098667"><ele>187.0</ele><time>2026-04-19T10:01:09.999Z</time></trkpt><trkpt lat="44.90845329888783" lon="7.994607330679192"><ele>187.0</ele><time>2026-04-19T10:01:11.999Z</time></trkpt><trkpt lat="44.90841964419183" lon="7.994425915954077"><ele>187.0</ele><time>2026-04-19T10:01:13.999Z</time></trkpt><trkpt lat="44.90843554657174" lon="7.994272434347153"><ele>186.33333333333334</ele><time>2026-04-19T10:01:15.999Z</time></trkpt><trkpt lat="44.9084404618799" lon="7.994160627801339"><ele>185.66666666666669</ele><time>2026-04-19T10:01:17.999Z</time></trkpt><trkpt lat="44.908447614797076" lon="7.994024895143202"><ele>185.0</ele><time>2026-04-19T10:01:18.999Z</time></trkpt><trkpt lat="44.90844658830051" lon="7.993923557610785"><ele>184.33333333333334</ele><time>2026-04-19T10:01:19.999Z</time></trkpt><trkpt lat="44.908403394553496" lon="7.993797784735357"><ele>183.66666666666666</ele><time>2026-04-19T10:01:21.999Z</time></trkpt><trkpt lat="44.9083117169418" lon="7.993734957612207"><ele>183.0</ele><time>2026-04-19T10:01:23.999Z</time></trkpt><trkpt lat="44.90824136446856" lon="7.993767267056158"><ele>184.2</ele><time>2026-04-19T10:01:24.999Z</time></trkpt><trkpt lat="44.90816977470638" lon="7.993765986280864"><ele>185.4</ele><time>2026-04-19T10:01:25.999Z</time></trkpt><trkpt lat="44.908078440112654" lon="7.993619100856745"><ele>186.6</ele><time>2026-04-19T10:01:27.999Z</time></trkpt><trkpt lat="44.90804460257694" lon="7.993458209159386"><ele>187.79999999999998</ele><time>2026-04-19T10:01:29.999Z</time></trkpt><trkpt lat="44.908019952211575" lon="7.993297882338076"><ele>189.0</ele><time>2026-04-19T10:01:31.999Z</time></trkpt><trkpt lat="44.90794122732254" lon="7.993165142237356"><ele>189.0</ele><time>2026-04-19T10:01:33.999Z</time></trkpt><trkpt lat="44.9078961328794" lon="7.993095706718032"><ele>189.0</ele><time>2026-04-19T10:01:34.999Z</time></trkpt><trkpt lat="44.907867744465754" lon="7.9930056061455055"><ele>189.0</ele><time>2026-04-19T10:01:35.999Z</time></trkpt><trkpt lat="44.90784842606703" lon="7.992904891588611"><ele>189.0</ele><time>2026-04-19T10:01:36.999Z</time></trkpt><trkpt lat="44.90783626764468" lon="7.992804404460063"><ele>189.0</ele><time>2026-04-19T10:01:37.999Z</time></trkpt><trkpt lat="44.907803519300124" lon="7.992716936897892"><ele>189.0</ele><time>2026-04-19T10:01:38.999Z</time></trkpt><trkpt lat="44.9077419760601" lon="7.992619276302446"><ele>189.0</ele><time>2026-04-19T10:01:39.999Z</time></trkpt><trkpt lat="44.907675844346066" lon="7.992518630014389"><ele>188.83333333333334</ele><time>2026-04-19T10:01:40.999Z</time></trkpt><trkpt lat="44.90762016947426" lon="7.9924156195513705"><ele>188.66666666666666</ele><time>2026-04-19T10:01:41.999Z</time></trkpt><trkpt lat="44.90756109590465" lon="7.99231962622505"><ele>188.5</ele><time>2026-04-19T10:01:42.999Z</time></trkpt><trkpt lat="44.90749859290716" lon="7.992220074351261"><ele>188.33333333333331</ele><time>2026-04-19T10:01:43.999Z</time></trkpt><trkpt lat="44.90744990679038" lon="7.992137422337714"><ele>188.16666666666666</ele><time>2026-04-19T10:01:45Z</time></trkpt><trkpt lat="44.90740282336839" lon="7.992048021547208"><ele>188.0</ele><time>2026-04-19T10:01:46Z</time></trkpt><trkpt lat="44.90735145147761" lon="7.991954548100709"><ele>188.0</ele><time>2026-04-19T10:01:47Z</time></trkpt><trkpt lat="44.90730529599582" lon="7.991866346642275"><ele>188.0</ele><time>2026-04-19T10:01:48Z</time></trkpt><trkpt lat="44.907254029039784" lon="7.99180375642012"><ele>188.0</ele><time>2026-04-19T10:01:49Z</time></trkpt><trkpt lat="44.90719921229042" lon="7.991760010687835"><ele>188.0</ele><time>2026-04-19T10:01:50Z</time></trkpt><trkpt lat="44.907085807638445" lon="7.991761798333299"><ele>188.0</ele><time>2026-04-19T10:01:52Z</time></trkpt><trkpt lat="44.9070163150772" lon="7.991807280025546"><ele>188.0</ele><time>2026-04-19T10:01:53Z</time></trkpt><trkpt lat="44.90695119109878" lon="7.991856903200689"><ele>188.0</ele><time>2026-04-19T10:01:54Z</time></trkpt><trkpt lat="44.90687034793323" lon="7.991904894342159"><ele>188.0</ele><time>2026-04-19T10:01:55Z</time></trkpt><trkpt lat="44.9068014690054" lon="7.99193957043708"><ele>188.0</ele><time>2026-04-19T10:01:56Z</time></trkpt><trkpt lat="44.906725258207864" lon="7.991926669525569"><ele>188.0</ele><time>2026-04-19T10:01:57Z</time></trkpt><trkpt lat="44.90661090586093" lon="7.991886157666108"><ele>188.0</ele><time>2026-04-19T10:01:58Z</time></trkpt><trkpt lat="44.90651545318054" lon="7.991867582612121"><ele>188.8</ele><time>2026-04-19T10:01:59Z</time></trkpt><trkpt lat="44.90643485692053" lon="7.991843564709295"><ele>189.60000000000002</ele><time>2026-04-19T10:02:00Z</time></trkpt><trkpt lat="44.90637558809751" lon="7.991800768692692"><ele>190.39999999999998</ele><time>2026-04-19T10:02:01Z</time></trkpt><trkpt lat="44.9063106294093" lon="7.99160866190463"><ele>191.2</ele><time>2026-04-19T10:02:03Z</time></trkpt><trkpt lat="44.90625821793605" lon="7.991472558817569"><ele>192.0</ele><time>2026-04-19T10:02:04Z</time></trkpt><trkpt lat="44.90621719912172" lon="7.991374712358109"><ele>192.0</ele><time>2026-04-19T10:02:05Z</time></trkpt><trkpt lat="44.90613723285818" lon="7.991411896564449"><ele>192.0</ele><time>2026-04-19T10:02:08Z</time></trkpt><trkpt lat="44.906111906233946" lon="7.991620104971702"><ele>192.0</ele><time>2026-04-19T10:02:10Z</time></trkpt><trkpt lat="44.90608394330716" lon="7.991787296375762"><ele>192.0</ele><time>2026-04-19T10:02:11Z</time></trkpt><trkpt lat="44.90606637165046" lon="7.991924749543881"><ele>192.0</ele><time>2026-04-19T10:02:12Z</time></trkpt><trkpt lat="44.90606663921366" lon="7.992025374488867"><ele>192.0</ele><time>2026-04-19T10:02:13Z</time></trkpt><trkpt lat="44.90605999009462" lon="7.992130748662546"><ele>192.0</ele><time>2026-04-19T10:02:14Z</time></trkpt><trkpt lat="44.906057561575686" lon="7.992256159988498"><ele>192.0</ele><time>2026-04-19T10:02:15Z</time></trkpt><trkpt lat="44.90605566405724" lon="7.992384777023466"><ele>192.0</ele><time>2026-04-19T10:02:16Z</time></trkpt><trkpt lat="44.90605327793857" lon="7.992501392920278"><ele>192.0</ele><time>2026-04-19T10:02:17Z</time></trkpt><trkpt lat="44.90605660701262" lon="7.9925988364972085"><ele>195.16666666666666</ele><time>2026-04-19T10:02:18Z</time></trkpt><trkpt lat="44.90607862711637" lon="7.992693614027873"><ele>198.33333333333331</ele><time>2026-04-19T10:02:19Z</time></trkpt><trkpt lat="44.90611825166422" lon="7.992794794245769"><ele>201.5</ele><time>2026-04-19T10:02:20Z</time></trkpt><trkpt lat="44.90618324599429" lon="7.992910094052204"><ele>204.66666666666666</ele><time>2026-04-19T10:02:22Z</time></trkpt><trkpt lat="44.90625110724225" lon="7.992977098259559"><ele>207.83333333333331</ele><time>2026-04-19T10:02:24Z</time></trkpt><trkpt lat="44.90632095084561" lon="7.993045297121637"><ele>211.0</ele><time>2026-04-19T10:02:26Z</time></trkpt><trkpt lat="44.90638807270902" lon="7.993103040992491"><ele>210.99999999999997</ele><time>2026-04-19T10:02:28Z</time></trkpt><trkpt lat="44.90646089774552" lon="7.9931889886133085"><ele>211.0</ele><time>2026-04-19T10:02:30Z</time></trkpt><trkpt lat="44.906564137084445" lon="7.993235978244748"><ele>211.0</ele><time>2026-04-19T10:02:32Z</time></trkpt><trkpt lat="44.90664650642047" lon="7.993264104024969"><ele>211.0</ele><time>2026-04-19T10:02:33Z</time></trkpt><trkpt lat="44.9067025952957" lon="7.993313854111148"><ele>210.99999999999997</ele><time>2026-04-19T10:02:34Z</time></trkpt><trkpt lat="44.906764883765106" lon="7.993377934579337"><ele>211.0</ele><time>2026-04-19T10:02:35Z</time></trkpt><trkpt lat="44.90680553864103" lon="7.993462275807864"><ele>211.16666666666666</ele><time>2026-04-19T10:02:36Z</time></trkpt><trkpt lat="44.90687330238677" lon="7.993548947941312"><ele>211.33333333333331</ele><time>2026-04-19T10:02:37Z</time></trkpt><trkpt lat="44.90694730552392" lon="7.99360301253027"><ele>211.5</ele><time>2026-04-19T10:02:38Z</time></trkpt><trkpt lat="44.90702147206178" lon="7.993628112944216"><ele>211.66666666666669</ele><time>2026-04-19T10:02:39Z</time></trkpt><trkpt lat="44.90709850351488" lon="7.993661607241408"><ele>211.83333333333334</ele><time>2026-04-19T10:02:40Z</time></trkpt><trkpt lat="44.907176113619755" lon="7.993774125992572"><ele>212.0</ele><time>2026-04-19T10:02:42Z</time></trkpt><trkpt lat="44.907180426565894" lon="7.993899485056555"><ele>212.0</ele><time>2026-04-19T10:02:44Z</time></trkpt><trkpt lat="44.90714276537471" lon="7.994055033894917"><ele>212.0</ele><time>2026-04-19T10:02:46Z</time></trkpt><trkpt lat="44.907102610572274" lon="7.994127706500722"><ele>212.0</ele><time>2026-04-19T10:02:47Z</time></trkpt><trkpt lat="44.90706004322268" lon="7.994257379511692"><ele>212.0</ele><time>2026-04-19T10:02:49Z</time></trkpt><trkpt lat="44.907068345962145" lon="7.994430007886394"><ele>212.0</ele><time>2026-04-19T10:02:51Z</time></trkpt><trkpt lat="44.90709410772705" lon="7.9945471532539525"><ele>213.16666666666669</ele><time>2026-04-19T10:02:52Z</time></trkpt><trkpt lat="44.90713064790968" lon="7.994659740449727"><ele>214.33333333333334</ele><time>2026-04-19T10:02:53Z</time></trkpt><trkpt lat="44.90716084676566" lon="7.994745133491034"><ele>215.5</ele><time>2026-04-19T10:02:54Z</time></trkpt><trkpt lat="44.907163708682326" lon="7.994847402310744"><ele>216.66666666666669</ele><time>2026-04-19T10:02:55Z</time></trkpt><trkpt lat="44.90714569175855" lon="7.994965464945322"><ele>217.83333333333334</ele><time>2026-04-19T10:02:56Z</time></trkpt><trkpt lat="44.907162666024945" lon="7.99506110751541"><ele>219.0</ele><time>2026-04-19T10:02:57Z</time></trkpt><trkpt lat="44.90716619864595" lon="7.995165896701892"><ele>219.79999999999998</ele><time>2026-04-19T10:02:58Z</time></trkpt><trkpt lat="44.90716698654274" lon="7.995280819074707"><ele>220.59999999999997</ele><time>2026-04-19T10:02:59Z</time></trkpt><trkpt lat="44.907188171554836" lon="7.995399511205703"><ele>221.4</ele><time>2026-04-19T10:03:00Z</time></trkpt><trkpt lat="44.907233108471914" lon="7.99550658401365"><ele>222.2</ele><time>2026-04-19T10:03:01Z</time></trkpt><trkpt lat="44.90726284497271" lon="7.995649407933121"><ele>223.0</ele><time>2026-04-19T10:03:03Z</time></trkpt><trkpt lat="44.90716267469712" lon="7.995741479403313"><ele>223.0</ele><time>2026-04-19T10:03:05Z</time></trkpt><trkpt lat="44.90710161428331" lon="7.99571240512333"><ele>223.0</ele><time>2026-04-19T10:03:06Z</time></trkpt><trkpt lat="44.90701886537317" lon="7.995619592204534"><ele>223.0</ele><time>2026-04-19T10:03:07.999Z</time></trkpt><trkpt lat="44.906941122966174" lon="7.9955690720028025"><ele>223.0</ele><time>2026-04-19T10:03:08.999Z</time></trkpt><trkpt lat="44.906839626986056" lon="7.9954883420714635"><ele>223.0</ele><time>2026-04-19T10:03:09.999Z</time></trkpt><trkpt lat="44.90676501080254" lon="7.995403489932136"><ele>225.83333333333331</ele><time>2026-04-19T10:03:10.999Z</time></trkpt><trkpt lat="44.906729364057014" lon="7.995309445227661"><ele>228.66666666666666</ele><time>2026-04-19T10:03:11.999Z</time></trkpt><trkpt lat="44.90671573061781" lon="7.995193151009406"><ele>231.5</ele><time>2026-04-19T10:03:12.999Z</time></trkpt><trkpt lat="44.90669651577122" lon="7.995082598199506"><ele>234.33333333333331</ele><time>2026-04-19T10:03:13.999Z</time></trkpt><trkpt lat="44.90665641393667" lon="7.994950231733436"><ele>237.16666666666666</ele><time>2026-04-19T10:03:14.999Z</time></trkpt><trkpt lat="44.90662197112116" lon="7.99481025843241"><ele>240.0</ele><time>2026-04-19T10:03:15.999Z</time></trkpt><trkpt lat="44.906590949022956" lon="7.994702728233955"><ele>240.0</ele><time>2026-04-19T10:03:16.999Z</time></trkpt><trkpt lat="44.906491581647614" lon="7.994675262880825"><ele>240.0</ele><time>2026-04-19T10:03:18.999Z</time></trkpt><trkpt lat="44.90644531777254" lon="7.994738283230401"><ele>240.0</ele><time>2026-04-19T10:03:19.999Z</time></trkpt><trkpt lat="44.90641547925125" lon="7.994844674333515"><ele>240.0</ele><time>2026-04-19T10:03:20.999Z</time></trkpt><trkpt lat="44.906385570700046" lon="7.995002677521514"><ele>240.0</ele><time>2026-04-19T10:03:21.999Z</time></trkpt><trkpt lat="44.90634805062591" lon="7.995166449161213"><ele>241.4</ele><time>2026-04-19T10:03:22.999Z</time></trkpt><trkpt lat="44.906293667046434" lon="7.9953567433496895"><ele>242.8</ele><time>2026-04-19T10:03:23.999Z</time></trkpt><trkpt lat="44.90623173427057" lon="7.995475270869186"><ele>244.2</ele><time>2026-04-19T10:03:24.999Z</time></trkpt><trkpt lat="44.90616364105133" lon="7.995511221227482"><ele>245.6</ele><time>2026-04-19T10:03:25.999Z</time></trkpt><trkpt lat="44.90609668838918" lon="7.995535524845306"><ele>247.0</ele><time>2026-04-19T10:03:26.999Z</time></trkpt><trkpt lat="44.90600469218014" lon="7.9955634333702985"><ele>247.0</ele><time>2026-04-19T10:03:27.999Z</time></trkpt><trkpt lat="44.90589120376241" lon="7.9955986305868665"><ele>247.0</ele><time>2026-04-19T10:03:28.999Z</time></trkpt><trkpt lat="44.90578799186679" lon="7.9956482112429565"><ele>247.0</ele><time>2026-04-19T10:03:29.999Z</time></trkpt><trkpt lat="44.905708739760456" lon="7.995691402199939"><ele>247.0</ele><time>2026-04-19T10:03:30.999Z</time></trkpt><trkpt lat="44.90564598933121" lon="7.995742833005507"><ele>247.0</ele><time>2026-04-19T10:03:31.999Z</time></trkpt><trkpt lat="44.905578281502244" lon="7.995920219758164"><ele>250.25</ele><time>2026-04-19T10:03:33.999Z</time></trkpt><trkpt lat="44.90552217565243" lon="7.996095669064902"><ele>253.5</ele><time>2026-04-19T10:03:34.999Z</time></trkpt><trkpt lat="44.90545912511704" lon="7.99626906932077"><ele>256.75</ele><time>2026-04-19T10:03:35.999Z</time></trkpt><trkpt lat="44.9054106414514" lon="7.996385922319935"><ele>260.0</ele><time>2026-04-19T10:03:36.999Z</time></trkpt><trkpt lat="44.90536515516982" lon="7.996478585570791"><ele>260.0</ele><time>2026-04-19T10:03:37.999Z</time></trkpt><trkpt lat="44.905314268954214" lon="7.99654211857811"><ele>260.0</ele><time>2026-04-19T10:03:38.999Z</time></trkpt><trkpt lat="44.90524764745985" lon="7.99658263669948"><ele>260.0</ele><time>2026-04-19T10:03:39.999Z</time></trkpt><trkpt lat="44.90517952580132" lon="7.996606077142015"><ele>260.0</ele><time>2026-04-19T10:03:40.999Z</time></trkpt><trkpt lat="44.905084079670914" lon="7.9966360900065325"><ele>260.0</ele><time>2026-04-19T10:03:41.999Z</time></trkpt><trkpt lat="44.90497287248832" lon="7.996663037290328"><ele>260.0</ele><time>2026-04-19T10:03:42.999Z</time></trkpt><trkpt lat="44.90484988572882" lon="7.996713364946348"><ele>259.4</ele><time>2026-04-19T10:03:43.999Z</time></trkpt><trkpt lat="44.90474580629316" lon="7.9967494692803776"><ele>258.8</ele><time>2026-04-19T10:03:44.999Z</time></trkpt><trkpt lat="44.904659547043615" lon="7.996757325669215"><ele>258.2</ele><time>2026-04-19T10:03:46.999Z</time></trkpt><trkpt lat="44.90455810086831" lon="7.996706502813214"><ele>257.6</ele><time>2026-04-19T10:03:49.999Z</time></trkpt><trkpt lat="44.904452933506754" lon="7.996618674112047"><ele>257.0</ele><time>2026-04-19T10:03:52Z</time></trkpt><trkpt lat="44.90438860254251" lon="7.996568790011346"><ele>256.0</ele><time>2026-04-19T10:03:53Z</time></trkpt><trkpt lat="44.90431932110743" lon="7.996516274381612"><ele>255.0</ele><time>2026-04-19T10:03:54Z</time></trkpt><trkpt lat="44.904244438178075" lon="7.99644942448127"><ele>254.0</ele><time>2026-04-19T10:03:55Z</time></trkpt><trkpt lat="44.90417323632503" lon="7.996379887221543"><ele>253.0</ele><time>2026-04-19T10:03:56Z</time></trkpt><trkpt lat="44.904082888745116" lon="7.996299640526827"><ele>252.0</ele><time>2026-04-19T10:03:57Z</time></trkpt><trkpt lat="44.90398296754899" lon="7.996205306351199"><ele>251.66666666666669</ele><time>2026-04-19T10:03:58Z</time></trkpt><trkpt lat="44.90386255796273" lon="7.9960871842917"><ele>251.33333333333334</ele><time>2026-04-19T10:03:59Z</time></trkpt><trkpt lat="44.90373739362194" lon="7.995954973486781"><ele>251.0</ele><time>2026-04-19T10:04:00Z</time></trkpt><trkpt lat="44.90361410364945" lon="7.995821268006639"><ele>251.00000000000003</ele><time>2026-04-19T10:04:01Z</time></trkpt><trkpt lat="44.903530539603366" lon="7.99572859733394"><ele>251.0</ele><time>2026-04-19T10:04:02Z</time></trkpt><trkpt lat="44.90346711557734" lon="7.995677794018428"><ele>251.0</ele><time>2026-04-19T10:04:03Z</time></trkpt><trkpt lat="44.903398836095995" lon="7.9956455838595435"><ele>251.0</ele><time>2026-04-19T10:04:04Z</time></trkpt><trkpt lat="44.903320504966324" lon="7.995615072924113"><ele>251.00000000000003</ele><time>2026-04-19T10:04:05Z</time></trkpt><trkpt lat="44.9032436225749" lon="7.9955905906993685"><ele>251.0</ele><time>2026-04-19T10:04:06Z</time></trkpt><trkpt lat="44.903155011811414" lon="7.995567155009534"><ele>251.00000000000003</ele><time>2026-04-19T10:04:07Z</time></trkpt><trkpt lat="44.90306402358031" lon="7.995550313379984"><ele>251.0</ele><time>2026-04-19T10:04:08Z</time></trkpt><trkpt lat="44.902973142412854" lon="7.995530270172622"><ele>251.0</ele><time>2026-04-19T10:04:09Z</time></trkpt><trkpt lat="44.90288141457374" lon="7.995512489438616"><ele>251.0</ele><time>2026-04-19T10:04:10Z</time></trkpt><trkpt lat="44.90279123148658" lon="7.995506976467659"><ele>251.00000000000003</ele><time>2026-04-19T10:04:11Z</time></trkpt><trkpt lat="44.902718187842446" lon="7.995505595304941"><ele>251.0</ele><time>2026-04-19T10:04:12Z</time></trkpt><trkpt lat="44.90262727249188" lon="7.995532626133218"><ele>251.8</ele><time>2026-04-19T10:04:13Z</time></trkpt><trkpt lat="44.90252409138272" lon="7.995541527582985"><ele>252.60000000000002</ele><time>2026-04-19T10:04:14Z</time></trkpt><trkpt lat="44.902426899434154" lon="7.995530958300467"><ele>253.4</ele><time>2026-04-19T10:04:15Z</time></trkpt><trkpt lat="44.90234780306352" lon="7.995503118949272"><ele>254.2</ele><time>2026-04-19T10:04:16Z</time></trkpt><trkpt lat="44.902273522045874" lon="7.995444899994674"><ele>255.0</ele><time>2026-04-19T10:04:17Z</time></trkpt><trkpt lat="44.90220430339061" lon="7.995354674723578"><ele>255.0</ele><time>2026-04-19T10:04:18Z</time></trkpt><trkpt lat="44.90214046253674" lon="7.995243767671059"><ele>255.0</ele><time>2026-04-19T10:04:19Z</time></trkpt><trkpt lat="44.90207514615027" lon="7.995141420848521"><ele>255.0</ele><time>2026-04-19T10:04:20Z</time></trkpt><trkpt lat="44.90200428263636" lon="7.995059558388467"><ele>255.0</ele><time>2026-04-19T10:04:21Z</time></trkpt><trkpt lat="44.90192267836753" lon="7.9949982474522026"><ele>255.0</ele><time>2026-04-19T10:04:22Z</time></trkpt><trkpt lat="44.90183903170583" lon="7.994938426766576"><ele>255.8</ele><time>2026-04-19T10:04:23Z</time></trkpt><trkpt lat="44.901758633370804" lon="7.994878526856744"><ele>256.6</ele><time>2026-04-19T10:04:24Z</time></trkpt><trkpt lat="44.90167613870523" lon="7.994809583941728"><ele>257.4</ele><time>2026-04-19T10:04:25Z</time></trkpt><trkpt lat="44.9015972678639" lon="7.994732489840643"><ele>258.2</ele><time>2026-04-19T10:04:26Z</time></trkpt><trkpt lat="44.901526239416604" lon="7.99463826912874"><ele>259.0</ele><time>2026-04-19T10:04:27Z</time></trkpt><trkpt lat="44.90146182238807" lon="7.994531182214396"><ele>259.0</ele><time>2026-04-19T10:04:28Z</time></trkpt><trkpt lat="44.90139827104774" lon="7.9944251367597765"><ele>259.0</ele><time>2026-04-19T10:04:29Z</time></trkpt><trkpt lat="44.901332063241796" lon="7.994320410347586"><ele>259.0</ele><time>2026-04-19T10:04:30Z</time></trkpt><trkpt lat="44.90129159913282" lon="7.994199377472536"><ele>259.0</ele><time>2026-04-19T10:04:31Z</time></trkpt><trkpt lat="44.90125428500455" lon="7.994058138336154"><ele>259.0</ele><time>2026-04-19T10:04:32Z</time></trkpt><trkpt lat="44.90121099793957" lon="7.993930716905569"><ele>259.0</ele><time>2026-04-19T10:04:33Z</time></trkpt><trkpt lat="44.901170844572064" lon="7.993809073986878"><ele>259.0</ele><time>2026-04-19T10:04:34Z</time></trkpt><trkpt lat="44.90113605167602" lon="7.993691005141419"><ele>259.0</ele><time>2026-04-19T10:04:35Z</time></trkpt><trkpt lat="44.90109383853152" lon="7.993573531300779"><ele>259.0</ele><time>2026-04-19T10:04:36Z</time></trkpt><trkpt lat="44.90104343610753" lon="7.9934567692223295"><ele>259.0</ele><time>2026-04-19T10:04:37Z</time></trkpt><trkpt lat="44.90099103195276" lon="7.993345272462772"><ele>260.2</ele><time>2026-04-19T10:04:38Z</time></trkpt><trkpt lat="44.900933101602746" lon="7.993243042243459"><ele>261.4</ele><time>2026-04-19T10:04:39Z</time></trkpt><trkpt lat="44.90087624925015" lon="7.993122883756415"><ele>262.6</ele><time>2026-04-19T10:04:40Z</time></trkpt><trkpt lat="44.90083071876053" lon="7.992990802696611"><ele>263.8</ele><time>2026-04-19T10:04:41Z</time></trkpt><trkpt lat="44.90079371338726" lon="7.992850648164395"><ele>265.0</ele><time>2026-04-19T10:04:42Z</time></trkpt><trkpt lat="44.90073836527487" lon="7.992716364646722"><ele>265.0</ele><time>2026-04-19T10:04:43Z</time></trkpt><trkpt lat="44.90068276200096" lon="7.992564327447744"><ele>265.0</ele><time>2026-04-19T10:04:44Z</time></trkpt><trkpt lat="44.90061956702368" lon="7.992420161529814"><ele>265.0</ele><time>2026-04-19T10:04:45Z</time></trkpt><trkpt lat="44.90054816204416" lon="7.992284473822971"><ele>265.0</ele><time>2026-04-19T10:04:46Z</time></trkpt><trkpt lat="44.90047420953097" lon="7.9921581533512756"><ele>264.0</ele><time>2026-04-19T10:04:47Z</time></trkpt><trkpt lat="44.90040696704448" lon="7.9920484952166095"><ele>263.0</ele><time>2026-04-19T10:04:48Z</time></trkpt><trkpt lat="44.90035171507403" lon="7.9919314686249825"><ele>262.0</ele><time>2026-04-19T10:04:49Z</time></trkpt><trkpt lat="44.90030678450274" lon="7.991790489551821"><ele>261.0</ele><time>2026-04-19T10:04:50Z</time></trkpt><trkpt lat="44.90027344071139" lon="7.991642854308603"><ele>260.0</ele><time>2026-04-19T10:04:51Z</time></trkpt><trkpt lat="44.900235961883666" lon="7.9915087926086965"><ele>258.4</ele><time>2026-04-19T10:04:52Z</time></trkpt><trkpt lat="44.90018978894307" lon="7.991384065408757"><ele>256.8</ele><time>2026-04-19T10:04:53Z</time></trkpt><trkpt lat="44.900149521345156" lon="7.991306377722683"><ele>255.2</ele><time>2026-04-19T10:04:54Z</time></trkpt><trkpt lat="44.90023133781519" lon="7.991225263595605"><ele>253.6</ele><time>2026-04-19T10:04:57Z</time></trkpt><trkpt lat="44.900333785482275" lon="7.9911267623534"><ele>252.0</ele><time>2026-04-19T10:04:59Z</time></trkpt><trkpt lat="44.90042180328354" lon="7.990981524263153"><ele>252.0</ele><time>2026-04-19T10:05:01Z</time></trkpt><trkpt lat="44.90048375880837" lon="7.990915696913189"><ele>252.0</ele><time>2026-04-19T10:05:02Z</time></trkpt><trkpt lat="44.90053709281338" lon="7.99084890579224"><ele>252.0</ele><time>2026-04-19T10:05:03Z</time></trkpt><trkpt lat="44.90065276709166" lon="7.990711251234779"><ele>252.0</ele><time>2026-04-19T10:05:04.999Z</time></trkpt><trkpt lat="44.900721924936406" lon="7.990615315708135"><ele>252.0</ele><time>2026-04-19T10:05:05.999Z</time></trkpt><trkpt lat="44.90077727173346" lon="7.9905203996103085"><ele>251.5</ele><time>2026-04-19T10:05:06.999Z</time></trkpt><trkpt lat="44.900842582985" lon="7.99042875401914"><ele>251.0</ele><time>2026-04-19T10:05:07.999Z</time></trkpt><trkpt lat="44.90090657488214" lon="7.990328554868533"><ele>250.5</ele><time>2026-04-19T10:05:08.999Z</time></trkpt><trkpt lat="44.9009660340034" lon="7.990235826760297"><ele>250.0</ele><time>2026-04-19T10:05:09.999Z</time></trkpt><trkpt lat="44.90101495204059" lon="7.990159455577664"><ele>249.5</ele><time>2026-04-19T10:05:10.999Z</time></trkpt><trkpt lat="44.90105858251532" lon="7.990081817299422"><ele>249.0</ele><time>2026-04-19T10:05:11.999Z</time></trkpt><trkpt lat="44.90109711422755" lon="7.990001926207825"><ele>247.42857142857142</ele><time>2026-04-19T10:05:12.999Z</time></trkpt><trkpt lat="44.90112973831959" lon="7.989918923868546"><ele>245.85714285714283</ele><time>2026-04-19T10:05:13.999Z</time></trkpt><trkpt lat="44.901163763729315" lon="7.989840358211992"><ele>244.28571428571428</ele><time>2026-04-19T10:05:14.999Z</time></trkpt><trkpt lat="44.90119949005856" lon="7.989764967406716"><ele>242.71428571428572</ele><time>2026-04-19T10:05:16.999Z</time></trkpt><trkpt lat="44.901272572549026" lon="7.989792664521017"><ele>241.14285714285714</ele><time>2026-04-19T10:05:18.999Z</time></trkpt><trkpt lat="44.90131655084411" lon="7.989867256809726"><ele>239.57142857142856</ele><time>2026-04-19T10:05:20.999Z</time></trkpt><trkpt lat="44.90131694061562" lon="7.990007510619669"><ele>238.0</ele><time>2026-04-19T10:05:22.999Z</time></trkpt><trkpt lat="44.90137895526897" lon="7.9900586373003994"><ele>237.99999999999997</ele><time>2026-04-19T10:05:26.999Z</time></trkpt><trkpt lat="44.90145995588125" lon="7.9901175374573885"><ele>238.0</ele><time>2026-04-19T10:05:29.999Z</time></trkpt><trkpt lat="44.90152127097083" lon="7.990064522395662"><ele>238.0</ele><time>2026-04-19T10:05:32.999Z</time></trkpt><trkpt lat="44.90154555247849" lon="7.989952263944404"><ele>238.0</ele><time>2026-04-19T10:05:35.999Z</time></trkpt><trkpt lat="44.9015827326679" lon="7.989817095020748"><ele>237.99999999999997</ele><time>2026-04-19T10:05:38.999Z</time></trkpt><trkpt lat="44.90160621420196" lon="7.989720283075139"><ele>238.0</ele><time>2026-04-19T10:05:40.999Z</time></trkpt><trkpt lat="44.901579930029925" lon="7.989609052132913"><ele>237.99999999999997</ele><time>2026-04-19T10:05:43.999Z</time></trkpt><trkpt lat="44.9016077870219" lon="7.989511290436141"><ele>238.0</ele><time>2026-04-19T10:05:46.999Z</time></trkpt><trkpt lat="44.90165316848128" lon="7.989427630769339"><ele>238.0</ele><time>2026-04-19T10:05:49.999Z</time></trkpt><trkpt lat="44.90172075717598" lon="7.989434580402531"><ele>238.0</ele><time>2026-04-19T10:05:52.999Z</time></trkpt><trkpt lat="44.90179755871091" lon="7.989380297850916"><ele>237.99999999999997</ele><time>2026-04-19T10:05:55.999Z</time></trkpt><trkpt lat="44.9018881980536" lon="7.989324139506125"><ele>238.0</ele><time>2026-04-19T10:05:59Z</time></trkpt><trkpt lat="44.90194816954911" lon="7.9892740030111895"><ele>235.66666666666666</ele><time>2026-04-19T10:06:02Z</time></trkpt><trkpt lat="44.902000522011114" lon="7.989200854754767"><ele>233.33333333333331</ele><time>2026-04-19T10:06:04Z</time></trkpt><trkpt lat="44.90203414011194" lon="7.989119707583676"><ele>231.0</ele><time>2026-04-19T10:06:05Z</time></trkpt><trkpt lat="44.90210532913893" lon="7.988974594662446"><ele>228.66666666666669</ele><time>2026-04-19T10:06:07Z</time></trkpt><trkpt lat="44.90214261052095" lon="7.98889325988772"><ele>226.33333333333334</ele><time>2026-04-19T10:06:08Z</time></trkpt><trkpt lat="44.90217198591091" lon="7.988805521053129"><ele>224.0</ele><time>2026-04-19T10:06:09Z</time></trkpt><trkpt lat="44.90220799210284" lon="7.988721833011953"><ele>224.00000000000003</ele><time>2026-04-19T10:06:10Z</time></trkpt><trkpt lat="44.90224228249136" lon="7.988643657300626"><ele>224.0</ele><time>2026-04-19T10:06:12Z</time></trkpt><trkpt lat="44.90223310638477" lon="7.988544107853981"><ele>224.0</ele><time>2026-04-19T10:06:17Z</time></trkpt><trkpt lat="44.902158320798954" lon="7.988492444546255"><ele>224.0</ele><time>2026-04-19T10:06:19Z</time></trkpt><trkpt lat="44.90210517546776" lon="7.988409853340943"><ele>224.00000000000003</ele><time>2026-04-19T10:06:21Z</time></trkpt><trkpt lat="44.9021389511293" lon="7.9882356604077005"><ele>224.0</ele><time>2026-04-19T10:06:23Z</time></trkpt><trkpt lat="44.90216746557638" lon="7.98815622761111"><ele>223.66666666666669</ele><time>2026-04-19T10:06:24Z</time></trkpt><trkpt lat="44.90224673475162" lon="7.988135366376591"><ele>223.33333333333334</ele><time>2026-04-19T10:06:27Z</time></trkpt><trkpt lat="44.902304568840584" lon="7.988067534192703"><ele>223.0</ele><time>2026-04-19T10:06:31Z</time></trkpt><trkpt lat="44.90238593078182" lon="7.98805925175004"><ele>222.66666666666669</ele><time>2026-04-19T10:06:34Z</time></trkpt><trkpt lat="44.90247055101869" lon="7.988066757076303"><ele>222.33333333333334</ele><time>2026-04-19T10:06:39Z</time></trkpt><trkpt lat="44.90252200653035" lon="7.988144612668824"><ele>222.0</ele><time>2026-04-19T10:06:41Z</time></trkpt><trkpt lat="44.90259881426872" lon="7.988164705255771"><ele>218.0</ele><time>2026-04-19T10:06:45Z</time></trkpt><trkpt lat="44.90267253197561" lon="7.988186616209462"><ele>214.0</ele><time>2026-04-19T10:06:48Z</time></trkpt><trkpt lat="44.90273508046968" lon="7.988216033715134"><ele>210.0</ele><time>2026-04-19T10:06:50Z</time></trkpt><trkpt lat="44.90278175632888" lon="7.988298961315112"><ele>206.0</ele><time>2026-04-19T10:06:53Z</time></trkpt><trkpt lat="44.90282944293009" lon="7.988390720491674"><ele>202.0</ele><time>2026-04-19T10:06:56Z</time></trkpt><trkpt lat="44.902859598359896" lon="7.98847306091314"><ele>198.0</ele><time>2026-04-19T10:06:59Z</time></trkpt><trkpt lat="44.902916942041195" lon="7.988549295418118"><ele>194.0</ele><time>2026-04-19T10:07:02Z</time></trkpt><trkpt lat="44.90298643023373" lon="7.988466574250726"><ele>194.00000000000003</ele><time>2026-04-19T10:07:05Z</time></trkpt><trkpt lat="44.90301131696198" lon="7.988379229458131"><ele>194.0</ele><time>2026-04-19T10:07:07Z</time></trkpt><trkpt lat="44.90303715657868" lon="7.988276795552476"><ele>194.0</ele><time>2026-04-19T10:07:10Z</time></trkpt><trkpt lat="44.90305611093014" lon="7.988167503782071"><ele>194.0</ele><time>2026-04-19T10:07:12.999Z</time></trkpt><trkpt lat="44.90303595078253" lon="7.98806211308108"><ele>194.00000000000003</ele><time>2026-04-19T10:07:16.999Z</time></trkpt><trkpt lat="44.90302791114983" lon="7.987943402309844"><ele>194.0</ele><time>2026-04-19T10:07:19.999Z</time></trkpt><trkpt lat="44.9030157075208" lon="7.987850664230747"><ele>194.00000000000003</ele><time>2026-04-19T10:07:21.999Z</time></trkpt><trkpt lat="44.90302407328526" lon="7.987756150142905"><ele>194.0</ele><time>2026-04-19T10:07:23.999Z</time></trkpt><trkpt lat="44.90303777027504" lon="7.987637965611847"><ele>194.0</ele><time>2026-04-19T10:07:26.999Z</time></trkpt><trkpt lat="44.903025581129185" lon="7.987507963130012"><ele>194.0</ele><time>2026-04-19T10:07:29.999Z</time></trkpt><trkpt lat="44.90296942334039" lon="7.987418578716311"><ele>194.00000000000003</ele><time>2026-04-19T10:08:26Z</time></trkpt><trkpt lat="44.90291793804085" lon="7.987320529500139"><ele>194.0</ele><time>2026-04-19T10:08:29Z</time></trkpt><trkpt lat="44.902874494892465" lon="7.9872558827393005"><ele>193.6</ele><time>2026-04-19T10:08:31Z</time></trkpt><trkpt lat="44.90280562700986" lon="7.987156474667667"><ele>193.2</ele><time>2026-04-19T10:08:34Z</time></trkpt><trkpt lat="44.90275014004088" lon="7.987077419257447"><ele>192.79999999999998</ele><time>2026-04-19T10:08:36Z</time></trkpt><trkpt lat="44.90267230180508" lon="7.986968883857128"><ele>192.39999999999998</ele><time>2026-04-19T10:08:39Z</time></trkpt><trkpt lat="44.90261714984568" lon="7.9868867864130095"><ele>192.0</ele><time>2026-04-19T10:08:40Z</time></trkpt><trkpt lat="44.9025614962518" lon="7.986789853865045"><ele>192.6</ele><time>2026-04-19T10:08:41Z</time></trkpt><trkpt lat="44.902495947805605" lon="7.986691818007294"><ele>193.2</ele><time>2026-04-19T10:08:42Z</time></trkpt><trkpt lat="44.90242217670758" lon="7.986610399443036"><ele>193.8</ele><time>2026-04-19T10:08:43Z</time></trkpt><trkpt lat="44.9023319906075" lon="7.9865378759788515"><ele>194.4</ele><time>2026-04-19T10:08:44Z</time></trkpt><trkpt lat="44.9022210164945" lon="7.9864786583947955"><ele>195.0</ele><time>2026-04-19T10:08:45Z</time></trkpt><trkpt lat="44.9020901599288" lon="7.986419031504141"><ele>195.0</ele><time>2026-04-19T10:08:46Z</time></trkpt><trkpt lat="44.90197281234615" lon="7.986355933323232"><ele>195.0</ele><time>2026-04-19T10:08:47Z</time></trkpt><trkpt lat="44.90187759330342" lon="7.986295858959623"><ele>195.0</ele><time>2026-04-19T10:08:48Z</time></trkpt><trkpt lat="44.90178381945241" lon="7.986223899223995"><ele>195.0</ele><time>2026-04-19T10:08:49Z</time></trkpt><trkpt lat="44.90167265826394" lon="7.986115998989495"><ele>194.8</ele><time>2026-04-19T10:08:50Z</time></trkpt><trkpt lat="44.90156971565442" lon="7.986020400951152"><ele>194.6</ele><time>2026-04-19T10:08:51Z</time></trkpt><trkpt lat="44.90148475931535" lon="7.98594989157215"><ele>194.39999999999998</ele><time>2026-04-19T10:08:52Z</time></trkpt><trkpt lat="44.90139290788907" lon="7.985900017003908"><ele>194.2</ele><time>2026-04-19T10:08:53Z</time></trkpt><trkpt lat="44.90127965748184" lon="7.985833730813507"><ele>194.0</ele><time>2026-04-19T10:08:54Z</time></trkpt><trkpt lat="44.90116051059701" lon="7.9857770033251185"><ele>194.0</ele><time>2026-04-19T10:08:55Z</time></trkpt><trkpt lat="44.90104510157864" lon="7.985736213405766"><ele>194.0</ele><time>2026-04-19T10:08:56Z</time></trkpt><trkpt lat="44.900937379866356" lon="7.98568810399058"><ele>194.0</ele><time>2026-04-19T10:08:57Z</time></trkpt><trkpt lat="44.900834059544415" lon="7.985622840286234"><ele>194.0</ele><time>2026-04-19T10:08:58Z</time></trkpt><trkpt lat="44.90072602549928" lon="7.985552894997785"><ele>196.5</ele><time>2026-04-19T10:08:59Z</time></trkpt><trkpt lat="44.90061832455382" lon="7.9854871484197165"><ele>199.0</ele><time>2026-04-19T10:09:00Z</time></trkpt><trkpt lat="44.90051301875876" lon="7.985428489726982"><ele>201.5</ele><time>2026-04-19T10:09:01Z</time></trkpt><trkpt lat="44.90040816614086" lon="7.985377288987345"><ele>204.0</ele><time>2026-04-19T10:09:02Z</time></trkpt><trkpt lat="44.90030260843066" lon="7.985338068486295"><ele>204.0</ele><time>2026-04-19T10:09:03Z</time></trkpt><trkpt lat="44.90019403886454" lon="7.985316812438548"><ele>204.0</ele><time>2026-04-19T10:09:04Z</time></trkpt><trkpt lat="44.90008111231276" lon="7.985307427205636"><ele>204.0</ele><time>2026-04-19T10:09:05Z</time></trkpt><trkpt lat="44.89996263466786" lon="7.985306396320166"><ele>204.0</ele><time>2026-04-19T10:09:06Z</time></trkpt><trkpt lat="44.89984026653281" lon="7.98530154712425"><ele>203.79999999999998</ele><time>2026-04-19T10:09:07Z</time></trkpt><trkpt lat="44.89972769685012" lon="7.985273980500808"><ele>203.6</ele><time>2026-04-19T10:09:08Z</time></trkpt><trkpt lat="44.89962485957197" lon="7.985237218982446"><ele>203.4</ele><time>2026-04-19T10:09:09Z</time></trkpt><trkpt lat="44.89953886741138" lon="7.985187951445046"><ele>203.2</ele><time>2026-04-19T10:09:10Z</time></trkpt><trkpt lat="44.89944424737168" lon="7.985141402797259"><ele>203.0</ele><time>2026-04-19T10:09:11Z</time></trkpt><trkpt lat="44.89932088902167" lon="7.985094669545838"><ele>204.0</ele><time>2026-04-19T10:09:12Z</time></trkpt><trkpt lat="44.899175462885324" lon="7.985024085894746"><ele>205.0</ele><time>2026-04-19T10:09:13Z</time></trkpt><trkpt lat="44.89903020731648" lon="7.984950836008203"><ele>206.0</ele><time>2026-04-19T10:09:14Z</time></trkpt><trkpt lat="44.898888644169254" lon="7.984876218385433"><ele>204.5</ele><time>2026-04-19T10:09:15Z</time></trkpt><trkpt lat="44.8987612082684" lon="7.98479532532736"><ele>203.0</ele><time>2026-04-19T10:09:16Z</time></trkpt><trkpt lat="44.898658435176465" lon="7.984701924261235"><ele>201.5</ele><time>2026-04-19T10:09:16.999Z</time></trkpt><trkpt lat="44.89858712949266" lon="7.984601465761989"><ele>200.0</ele><time>2026-04-19T10:09:17.999Z</time></trkpt><trkpt lat="44.89853422730222" lon="7.984492183336121"><ele>200.00000000000003</ele><time>2026-04-19T10:09:18.999Z</time></trkpt><trkpt lat="44.89846995157711" lon="7.98438269238946"><ele>200.0</ele><time>2026-04-19T10:09:19.999Z</time></trkpt><trkpt lat="44.89839200479221" lon="7.9842908424413865"><ele>200.0</ele><time>2026-04-19T10:09:20.999Z</time></trkpt><trkpt lat="44.898309147426396" lon="7.984233169259565"><ele>200.0</ele><time>2026-04-19T10:09:21.999Z</time></trkpt><trkpt lat="44.898230270989416" lon="7.984200284779504"><ele>200.00000000000003</ele><time>2026-04-19T10:09:22.999Z</time></trkpt><trkpt lat="44.89816069980139" lon="7.9841799620185405"><ele>200.0</ele><time>2026-04-19T10:09:23.999Z</time></trkpt><trkpt lat="44.89810788589083" lon="7.984111819083813"><ele>200.4</ele><time>2026-04-19T10:09:26.999Z</time></trkpt><trkpt lat="44.8981763161291" lon="7.984008990455991"><ele>200.8</ele><time>2026-04-19T10:09:33.999Z</time></trkpt><trkpt lat="44.898265355812406" lon="7.9839784752865315"><ele>201.2</ele><time>2026-04-19T10:09:34.999Z</time></trkpt><trkpt lat="44.89835949645473" lon="7.983937252574908"><ele>201.6</ele><time>2026-04-19T10:09:35.999Z</time></trkpt><trkpt lat="44.8984436620861" lon="7.983878542102674"><ele>202.0</ele><time>2026-04-19T10:09:36.999Z</time></trkpt><trkpt lat="44.89852914601787" lon="7.983804925606837"><ele>200.25</ele><time>2026-04-19T10:09:37.999Z</time></trkpt><trkpt lat="44.89860680741554" lon="7.983713683473051"><ele>198.5</ele><time>2026-04-19T10:09:38.999Z</time></trkpt><trkpt lat="44.89868659916837" lon="7.983594530034568"><ele>196.75</ele><time>2026-04-19T10:09:39.999Z</time></trkpt><trkpt lat="44.898766361334424" lon="7.983457150328029"><ele>195.0</ele><time>2026-04-19T10:09:40.999Z</time></trkpt><trkpt lat="44.8988361180385" lon="7.983311620379016"><ele>194.5</ele><time>2026-04-19T10:09:41.999Z</time></trkpt><trkpt lat="44.89890283955921" lon="7.983160869334273"><ele>194.0</ele><time>2026-04-19T10:09:42.999Z</time></trkpt><trkpt lat="44.89897103061206" lon="7.983004308673244"><ele>193.5</ele><time>2026-04-19T10:09:43.999Z</time></trkpt><trkpt lat="44.899041851060005" lon="7.982847301901268"><ele>193.0</ele><time>2026-04-19T10:09:44.999Z</time></trkpt><trkpt lat="44.899107722901825" lon="7.982694995018831"><ele>193.0</ele><time>2026-04-19T10:09:45.999Z</time></trkpt><trkpt lat="44.89916695855491" lon="7.982546633368321"><ele>193.0</ele><time>2026-04-19T10:09:46.999Z</time></trkpt><trkpt lat="44.89922987102402" lon="7.982383717709041"><ele>193.0</ele><time>2026-04-19T10:09:47.999Z</time></trkpt><trkpt lat="44.89929891462184" lon="7.982209490116507"><ele>193.0</ele><time>2026-04-19T10:09:48.999Z</time></trkpt><trkpt lat="44.89937373282049" lon="7.9820233519069586"><ele>192.66666666666666</ele><time>2026-04-19T10:09:49.999Z</time></trkpt><trkpt lat="44.89945426644335" lon="7.98182537929434"><ele>192.33333333333331</ele><time>2026-04-19T10:09:50.999Z</time></trkpt><trkpt lat="44.89954035603175" lon="7.981619015824044"><ele>192.0</ele><time>2026-04-19T10:09:51.999Z</time></trkpt><trkpt lat="44.899627401477794" lon="7.98140511826599"><ele>193.5</ele><time>2026-04-19T10:09:52.999Z</time></trkpt><trkpt lat="44.899710880457434" lon="7.981200653256579"><ele>195.0</ele><time>2026-04-19T10:09:53.999Z</time></trkpt><trkpt lat="44.899782578098325" lon="7.981022299227401"><ele>196.5</ele><time>2026-04-19T10:09:54.999Z</time></trkpt><trkpt lat="44.89983978322649" lon="7.9808620891790225"><ele>198.0</ele><time>2026-04-19T10:09:55.999Z</time></trkpt><trkpt lat="44.8998880532392" lon="7.980728140663949"><ele>198.33333333333334</ele><time>2026-04-19T10:09:56.999Z</time></trkpt><trkpt lat="44.89992663424321" lon="7.980606078891663"><ele>198.66666666666669</ele><time>2026-04-19T10:09:57.999Z</time></trkpt><trkpt lat="44.899954623365254" lon="7.980494730892246"><ele>199.0</ele><time>2026-04-19T10:09:58.999Z</time></trkpt><trkpt lat="44.8999781009651" lon="7.980395831473231"><ele>199.33333333333334</ele><time>2026-04-19T10:09:59.999Z</time></trkpt><trkpt lat="44.89999385053803" lon="7.980309450209538"><ele>199.66666666666669</ele><time>2026-04-19T10:10:00.999Z</time></trkpt><trkpt lat="44.89995487334983" lon="7.980145755186682"><ele>200.0</ele><time>2026-04-19T10:10:02.999Z</time></trkpt><trkpt lat="44.89990982291069" lon="7.980061157338343"><ele>200.50000000000003</ele><time>2026-04-19T10:10:03.999Z</time></trkpt><trkpt lat="44.89986465766534" lon="7.9799734695971765"><ele>201.0</ele><time>2026-04-19T10:10:04.999Z</time></trkpt><trkpt lat="44.89980640182235" lon="7.979894258500838"><ele>201.5</ele><time>2026-04-19T10:10:05.999Z</time></trkpt><trkpt lat="44.899732074944865" lon="7.97983412114368"><ele>202.0</ele><time>2026-04-19T10:10:06.999Z</time></trkpt><trkpt lat="44.89964269674813" lon="7.979789140875193"><ele>202.50000000000003</ele><time>2026-04-19T10:10:07.999Z</time></trkpt><trkpt lat="44.899548959748515" lon="7.9797571441097475"><ele>203.0</ele><time>2026-04-19T10:10:09Z</time></trkpt><trkpt lat="44.899449211421484" lon="7.97972574652702"><ele>203.0</ele><time>2026-04-19T10:10:10Z</time></trkpt><trkpt lat="44.89934002047966" lon="7.979684759243085"><ele>203.0</ele><time>2026-04-19T10:10:11Z</time></trkpt><trkpt lat="44.89922656851112" lon="7.979647365412167"><ele>203.0</ele><time>2026-04-19T10:10:12Z</time></trkpt><trkpt lat="44.8991220441589" lon="7.979620166218276"><ele>203.0</ele><time>2026-04-19T10:10:13Z</time></trkpt><trkpt lat="44.89902958652662" lon="7.979608850313173"><ele>203.0</ele><time>2026-04-19T10:10:14Z</time></trkpt><trkpt lat="44.898945273620605" lon="7.979636874726972"><ele>202.0</ele><time>2026-04-19T10:10:15Z</time></trkpt><trkpt lat="44.898860326047526" lon="7.979708421623274"><ele>201.0</ele><time>2026-04-19T10:10:16Z</time></trkpt><trkpt lat="44.898790106275584" lon="7.979813245987143"><ele>200.0</ele><time>2026-04-19T10:10:17Z</time></trkpt><trkpt lat="44.89871880746174" lon="7.979903810677535"><ele>199.0</ele><time>2026-04-19T10:10:18Z</time></trkpt><trkpt lat="44.89862779840021" lon="7.979971398772222"><ele>198.0</ele><time>2026-04-19T10:10:19Z</time></trkpt><trkpt lat="44.89851122893376" lon="7.980019712456844"><ele>197.25</ele><time>2026-04-19T10:10:20Z</time></trkpt><trkpt lat="44.8983795116898" lon="7.9800442473588955"><ele>196.5</ele><time>2026-04-19T10:10:21Z</time></trkpt><trkpt lat="44.89824148185249" lon="7.980061198083732"><ele>195.75</ele><time>2026-04-19T10:10:22Z</time></trkpt><trkpt lat="44.89809107220106" lon="7.980059165946483"><ele>195.0</ele><time>2026-04-19T10:10:23Z</time></trkpt><trkpt lat="44.89794012111" lon="7.980058716962443"><ele>195.0</ele><time>2026-04-19T10:10:24Z</time></trkpt><trkpt lat="44.89778757662869" lon="7.980067988162068"><ele>195.0</ele><time>2026-04-19T10:10:25Z</time></trkpt><trkpt lat="44.89764000188729" lon="7.980084219086875"><ele>195.0</ele><time>2026-04-19T10:10:26Z</time></trkpt><trkpt lat="44.89748549490613" lon="7.980104091372156"><ele>195.33333333333331</ele><time>2026-04-19T10:10:27Z</time></trkpt><trkpt lat="44.897321695026086" lon="7.980124985998482"><ele>195.66666666666666</ele><time>2026-04-19T10:10:28Z</time></trkpt><trkpt lat="44.89716805650828" lon="7.980147043754623"><ele>196.0</ele><time>2026-04-19T10:10:29Z</time></trkpt><trkpt lat="44.89702687606926" lon="7.980173521703532"><ele>196.0</ele><time>2026-04-19T10:10:30Z</time></trkpt><trkpt lat="44.89689237635707" lon="7.980203992974583"><ele>196.0</ele><time>2026-04-19T10:10:31Z</time></trkpt><trkpt lat="44.896775520597174" lon="7.980223364360977"><ele>196.0</ele><time>2026-04-19T10:10:32Z</time></trkpt><trkpt lat="44.896672068145435" lon="7.980221358733162"><ele>196.0</ele><time>2026-04-19T10:10:33Z</time></trkpt><trkpt lat="44.89658501942667" lon="7.980193216103382"><ele>196.0</ele><time>2026-04-19T10:10:34Z</time></trkpt><trkpt lat="44.896506252431216" lon="7.980140024695902"><ele>195.99999999999997</ele><time>2026-04-19T10:10:35Z</time></trkpt><trkpt lat="44.89644303657877" lon="7.980067752303137"><ele>196.0</ele><time>2026-04-19T10:10:36Z</time></trkpt><trkpt lat="44.89639531863411" lon="7.979972429399351"><ele>196.0</ele><time>2026-04-19T10:10:37Z</time></trkpt><trkpt lat="44.896361508520044" lon="7.9798652954734495"><ele>196.0</ele><time>2026-04-19T10:10:38Z</time></trkpt><trkpt lat="44.89633270246704" lon="7.979760343443435"><ele>195.99999999999997</ele><time>2026-04-19T10:10:39Z</time></trkpt><trkpt lat="44.89629734849748" lon="7.979653747335299"><ele>196.0</ele><time>2026-04-19T10:10:40Z</time></trkpt><trkpt lat="44.896251874334176" lon="7.9795529515797305"><ele>197.49999999999997</ele><time>2026-04-19T10:10:41Z</time></trkpt><trkpt lat="44.89620541453216" lon="7.979448608943754"><ele>199.0</ele><time>2026-04-19T10:10:42Z</time></trkpt><trkpt lat="44.89615911465904" lon="7.979331039398883"><ele>200.5</ele><time>2026-04-19T10:10:43Z</time></trkpt><trkpt lat="44.896118086397095" lon="7.9792246275461975"><ele>202.0</ele><time>2026-04-19T10:10:44Z</time></trkpt><trkpt lat="44.89607741236979" lon="7.979143420766811"><ele>203.49999999999997</ele><time>2026-04-19T10:10:45Z</time></trkpt><trkpt lat="44.89603081039588" lon="7.979077770354654"><ele>205.0</ele><time>2026-04-19T10:10:46Z</time></trkpt><trkpt lat="44.89597868480466" lon="7.978987340947132"><ele>205.0</ele><time>2026-04-19T10:10:47Z</time></trkpt><trkpt lat="44.89591597831922" lon="7.978874729708695"><ele>205.0</ele><time>2026-04-19T10:10:48Z</time></trkpt><trkpt lat="44.89584747616322" lon="7.978733538706897"><ele>205.0</ele><time>2026-04-19T10:10:49Z</time></trkpt><trkpt lat="44.89578319211178" lon="7.9785941613691405"><ele>205.0</ele><time>2026-04-19T10:10:50Z</time></trkpt><trkpt lat="44.895730633121524" lon="7.978469673004134"><ele>205.0</ele><time>2026-04-19T10:10:51Z</time></trkpt><trkpt lat="44.89568034004747" lon="7.978346808916422"><ele>205.75</ele><time>2026-04-19T10:10:52Z</time></trkpt><trkpt lat="44.895624701046835" lon="7.978213170401817"><ele>206.5</ele><time>2026-04-19T10:10:53Z</time></trkpt><trkpt lat="44.89555553865488" lon="7.978053412646595"><ele>207.25</ele><time>2026-04-19T10:10:54Z</time></trkpt><trkpt lat="44.89548545620139" lon="7.977888830002792"><ele>208.0</ele><time>2026-04-19T10:10:55Z</time></trkpt><trkpt lat="44.8954133713661" lon="7.977721772137067"><ele>208.0</ele><time>2026-04-19T10:10:56Z</time></trkpt><trkpt lat="44.89533654651969" lon="7.977543148142234"><ele>208.0</ele><time>2026-04-19T10:10:57Z</time></trkpt><trkpt lat="44.895264761197595" lon="7.977398751212226"><ele>208.0</ele><time>2026-04-19T10:10:58Z</time></trkpt><trkpt lat="44.89519607964857" lon="7.977276140734724"><ele>208.0</ele><time>2026-04-19T10:10:59Z</time></trkpt><trkpt lat="44.89513515429196" lon="7.9771545435330085"><ele>207.60000000000002</ele><time>2026-04-19T10:11:00Z</time></trkpt><trkpt lat="44.89509115392955" lon="7.977021106229816"><ele>207.20000000000002</ele><time>2026-04-19T10:11:01Z</time></trkpt><trkpt lat="44.89505914622721" lon="7.976888389521001"><ele>206.8</ele><time>2026-04-19T10:11:02Z</time></trkpt><trkpt lat="44.89502128279131" lon="7.976771954336409"><ele>206.4</ele><time>2026-04-19T10:11:03Z</time></trkpt><trkpt lat="44.89495012652391" lon="7.976668803345977"><ele>206.0</ele><time>2026-04-19T10:11:04Z</time></trkpt><trkpt lat="44.89485381904836" lon="7.976571134567683"><ele>207.75</ele><time>2026-04-19T10:11:05Z</time></trkpt><trkpt lat="44.89472948017781" lon="7.976472165787772"><ele>209.5</ele><time>2026-04-19T10:11:06Z</time></trkpt><trkpt lat="44.89461068438326" lon="7.976389031854134"><ele>211.25</ele><time>2026-04-19T10:11:07Z</time></trkpt><trkpt lat="44.894497217629265" lon="7.9763102105101975"><ele>213.0</ele><time>2026-04-19T10:11:08Z</time></trkpt><trkpt lat="44.894383129420426" lon="7.976226495867048"><ele>213.0</ele><time>2026-04-19T10:11:09Z</time></trkpt><trkpt lat="44.894269663023174" lon="7.976148878236279"><ele>213.0</ele><time>2026-04-19T10:11:10Z</time></trkpt><trkpt lat="44.89416606067494" lon="7.97608412471065"><ele>213.0</ele><time>2026-04-19T10:11:11Z</time></trkpt><trkpt lat="44.894079417195904" lon="7.976032442856657"><ele>213.0</ele><time>2026-04-19T10:11:12Z</time></trkpt><trkpt lat="44.89399409225612" lon="7.975986384908564"><ele>213.0</ele><time>2026-04-19T10:11:14Z</time></trkpt><trkpt lat="44.893912884462765" lon="7.975966023977197"><ele>211.4</ele><time>2026-04-19T10:11:17Z</time></trkpt><trkpt lat="44.89379923886398" lon="7.9759433076044575"><ele>209.8</ele><time>2026-04-19T10:11:19Z</time></trkpt><trkpt lat="44.89372145216221" lon="7.975898902331082"><ele>208.2</ele><time>2026-04-19T10:11:20Z</time></trkpt><trkpt lat="44.89363141238979" lon="7.975843861481015"><ele>206.6</ele><time>2026-04-19T10:11:21Z</time></trkpt><trkpt lat="44.893571151555506" lon="7.9757756091122465"><ele>205.0</ele><time>2026-04-19T10:11:22Z</time></trkpt><trkpt lat="44.89349948996824" lon="7.975718042447943"><ele>205.0</ele><time>2026-04-19T10:11:23Z</time></trkpt><trkpt lat="44.89342522719511" lon="7.975648855222989"><ele>205.0</ele><time>2026-04-19T10:11:24Z</time></trkpt><trkpt lat="44.89334679501842" lon="7.97557531160865"><ele>205.0</ele><time>2026-04-19T10:11:25Z</time></trkpt><trkpt lat="44.89326762882654" lon="7.975512083238642"><ele>205.0</ele><time>2026-04-19T10:11:26Z</time></trkpt><trkpt lat="44.89318687363232" lon="7.975453972484889"><ele>205.0</ele><time>2026-04-19T10:11:27Z</time></trkpt><trkpt lat="44.893099570231065" lon="7.9753902135250545"><ele>206.2</ele><time>2026-04-19T10:11:28Z</time></trkpt><trkpt lat="44.89302586671978" lon="7.975343190674959"><ele>207.4</ele><time>2026-04-19T10:11:29Z</time></trkpt><trkpt lat="44.89295297201011" lon="7.975302529283901"><ele>208.60000000000002</ele><time>2026-04-19T10:11:30Z</time></trkpt><trkpt lat="44.89286517152377" lon="7.9752464845971"><ele>209.8</ele><time>2026-04-19T10:11:31Z</time></trkpt><trkpt lat="44.89277416476471" lon="7.975192300619768"><ele>211.0</ele><time>2026-04-19T10:11:32Z</time></trkpt><trkpt lat="44.89268364026768" lon="7.975130977034768"><ele>212.8</ele><time>2026-04-19T10:11:32.999Z</time></trkpt><trkpt lat="44.89258867685755" lon="7.975068033983314"><ele>214.60000000000002</ele><time>2026-04-19T10:11:33.999Z</time></trkpt><trkpt lat="44.89249298119753" lon="7.975012986964443"><ele>216.4</ele><time>2026-04-19T10:11:34.999Z</time></trkpt><trkpt lat="44.89240841528119" lon="7.974966801243489"><ele>218.2</ele><time>2026-04-19T10:11:35.999Z</time></trkpt><trkpt lat="44.89233173206599" lon="7.974940797940006"><ele>220.0</ele><time>2026-04-19T10:11:36.999Z</time></trkpt><trkpt lat="44.892250883446415" lon="7.974901612006703"><ele>220.8</ele><time>2026-04-19T10:11:37.999Z</time></trkpt><trkpt lat="44.89215224270756" lon="7.97483540966632"><ele>221.6</ele><time>2026-04-19T10:11:38.999Z</time></trkpt><trkpt lat="44.89206307571456" lon="7.974768917823953"><ele>222.39999999999998</ele><time>2026-04-19T10:11:39.999Z</time></trkpt><trkpt lat="44.891985137897535" lon="7.974710587134055"><ele>223.2</ele><time>2026-04-19T10:11:40.999Z</time></trkpt><trkpt lat="44.891899897891044" lon="7.974645496462433"><ele>224.0</ele><time>2026-04-19T10:11:41.999Z</time></trkpt><trkpt lat="44.891804570633276" lon="7.974571440698214"><ele>224.33333333333334</ele><time>2026-04-19T10:11:42.999Z</time></trkpt><trkpt lat="44.89173197897123" lon="7.974499973998668"><ele>224.66666666666669</ele><time>2026-04-19T10:11:43.999Z</time></trkpt><trkpt lat="44.89168095447203" lon="7.974447435635419"><ele>225.0</ele><time>2026-04-19T10:11:44.999Z</time></trkpt><trkpt lat="44.89162418735286" lon="7.97431636039503"><ele>225.33333333333331</ele><time>2026-04-19T10:11:46.999Z</time></trkpt><trkpt lat="44.8916510537127" lon="7.974216356512262"><ele>225.66666666666666</ele><time>2026-04-19T10:11:48.999Z</time></trkpt><trkpt lat="44.89170643616959" lon="7.974119831670527"><ele>226.0</ele><time>2026-04-19T10:11:49.999Z</time></trkpt><trkpt lat="44.89177609965511" lon="7.974046856430218"><ele>228.75</ele><time>2026-04-19T10:11:50.999Z</time></trkpt><trkpt lat="44.89186585641276" lon="7.973987920704446"><ele>231.5</ele><time>2026-04-19T10:11:51.999Z</time></trkpt><trkpt lat="44.89197055443379" lon="7.973900929847144"><ele>234.25</ele><time>2026-04-19T10:11:52.999Z</time></trkpt><trkpt lat="44.892085483466566" lon="7.973797390806622"><ele>237.0</ele><time>2026-04-19T10:11:53.999Z</time></trkpt><trkpt lat="44.89216970983355" lon="7.973719867485719"><ele>237.0</ele><time>2026-04-19T10:11:54.999Z</time></trkpt><trkpt lat="44.89224424874568" lon="7.973641668379033"><ele>237.0</ele><time>2026-04-19T10:11:55.999Z</time></trkpt><trkpt lat="44.89232399621655" lon="7.973547669964699"><ele>237.0</ele><time>2026-04-19T10:11:56.999Z</time></trkpt><trkpt lat="44.892403789225895" lon="7.97344539670719"><ele>237.0</ele><time>2026-04-19T10:11:57.999Z</time></trkpt><trkpt lat="44.89247987661054" lon="7.973349109713913"><ele>237.0</ele><time>2026-04-19T10:11:58.999Z</time></trkpt><trkpt lat="44.8925535806164" lon="7.9733092851887974"><ele>240.6</ele><time>2026-04-19T10:12:00.999Z</time></trkpt><trkpt lat="44.89263221380255" lon="7.973326414020365"><ele>244.2</ele><time>2026-04-19T10:12:02.999Z</time></trkpt><trkpt lat="44.892633338588034" lon="7.973158675085277"><ele>247.8</ele><time>2026-04-19T10:12:04.999Z</time></trkpt><trkpt lat="44.89263720336519" lon="7.973066660868702"><ele>251.4</ele><time>2026-04-19T10:12:05.999Z</time></trkpt><trkpt lat="44.89274726903829" lon="7.972935122762361"><ele>255.0</ele><time>2026-04-19T10:12:07.999Z</time></trkpt><trkpt lat="44.892844812891056" lon="7.972885075446216"><ele>255.0</ele><time>2026-04-19T10:12:08.999Z</time></trkpt><trkpt lat="44.89294600195803" lon="7.972841035920586"><ele>255.0</ele><time>2026-04-19T10:12:09.999Z</time></trkpt><trkpt lat="44.89301279921996" lon="7.972734672094838"><ele>255.0</ele><time>2026-04-19T10:12:11.999Z</time></trkpt><trkpt lat="44.89301803894836" lon="7.972570004739211"><ele>255.0</ele><time>2026-04-19T10:12:14Z</time></trkpt><trkpt lat="44.892988886878996" lon="7.972452964049172"><ele>255.0</ele><time>2026-04-19T10:12:15Z</time></trkpt><trkpt lat="44.89295746180622" lon="7.97232436887343"><ele>255.5</ele><time>2026-04-19T10:12:16Z</time></trkpt><trkpt lat="44.89293962024066" lon="7.972228700554902"><ele>256.0</ele><time>2026-04-19T10:12:17Z</time></trkpt><trkpt lat="44.89292773418743" lon="7.972126870779015"><ele>256.5</ele><time>2026-04-19T10:12:18Z</time></trkpt><trkpt lat="44.89293174057244" lon="7.972006989700134"><ele>257.0</ele><time>2026-04-19T10:12:19Z</time></trkpt><trkpt lat="44.89293854193785" lon="7.971863971865826"><ele>257.5</ele><time>2026-04-19T10:12:20Z</time></trkpt><trkpt lat="44.8929579897426" lon="7.971735196054677"><ele>258.0</ele><time>2026-04-19T10:12:21Z</time></trkpt><trkpt lat="44.89299337193532" lon="7.971607214891722"><ele>258.75</ele><time>2026-04-19T10:12:22Z</time></trkpt><trkpt lat="44.89301270842326" lon="7.971469095497301"><ele>259.5</ele><time>2026-04-19T10:12:23Z</time></trkpt><trkpt lat="44.89301772379361" lon="7.971297722493067"><ele>260.25</ele><time>2026-04-19T10:12:24Z</time></trkpt><trkpt lat="44.89301206713096" lon="7.97111087128568"><ele>261.0</ele><time>2026-04-19T10:12:25Z</time></trkpt><trkpt lat="44.89299746769899" lon="7.9709607517013135"><ele>261.2</ele><time>2026-04-19T10:12:26Z</time></trkpt><trkpt lat="44.89297238642035" lon="7.970830665320344"><ele>261.40000000000003</ele><time>2026-04-19T10:12:27Z</time></trkpt><trkpt lat="44.892934333373965" lon="7.97070530913941"><ele>261.6</ele><time>2026-04-19T10:12:28Z</time></trkpt><trkpt lat="44.89289509930229" lon="7.970585911950446"><ele>261.8</ele><time>2026-04-19T10:12:29Z</time></trkpt><trkpt lat="44.89286578750523" lon="7.9704521745040875"><ele>262.0</ele><time>2026-04-19T10:12:30Z</time></trkpt><trkpt lat="44.89283441566066" lon="7.970311448598635"><ele>262.0</ele><time>2026-04-19T10:12:31Z</time></trkpt><trkpt lat="44.89279312878213" lon="7.970201210701244"><ele>262.0</ele><time>2026-04-19T10:12:32Z</time></trkpt><trkpt lat="44.892748231837174" lon="7.9700872507294935"><ele>262.0</ele><time>2026-04-19T10:12:33Z</time></trkpt><trkpt lat="44.89270551897202" lon="7.969973726838118"><ele>262.0</ele><time>2026-04-19T10:12:34Z</time></trkpt><trkpt lat="44.89265367194537" lon="7.969873754588074"><ele>262.0</ele><time>2026-04-19T10:12:35Z</time></trkpt><trkpt lat="44.89259849085095" lon="7.969814902626713"><ele>262.0</ele><time>2026-04-19T10:12:36Z</time></trkpt><trkpt lat="44.892467527478495" lon="7.969801695204723"><ele>263.2</ele><time>2026-04-19T10:12:38Z</time></trkpt><trkpt lat="44.892369374452706" lon="7.969776000365154"><ele>264.4</ele><time>2026-04-19T10:12:39Z</time></trkpt><trkpt lat="44.89227169474756" lon="7.969728083856087"><ele>265.6</ele><time>2026-04-19T10:12:40Z</time></trkpt><trkpt lat="44.892188105268964" lon="7.969672860103195"><ele>266.8</ele><time>2026-04-19T10:12:41Z</time></trkpt><trkpt lat="44.89210119109231" lon="7.969605956178616"><ele>268.0</ele><time>2026-04-19T10:12:42Z</time></trkpt><trkpt lat="44.89201764641844" lon="7.969525674590913"><ele>268.0</ele><time>2026-04-19T10:12:43Z</time></trkpt><trkpt lat="44.89194357249097" lon="7.969448112035609"><ele>268.0</ele><time>2026-04-19T10:12:44Z</time></trkpt><trkpt lat="44.89186289636983" lon="7.969356189038258"><ele>268.0</ele><time>2026-04-19T10:12:45Z</time></trkpt><trkpt lat="44.891768571499384" lon="7.969230529441415"><ele>268.0</ele><time>2026-04-19T10:12:46Z</time></trkpt><trkpt lat="44.89169694092909" lon="7.969119522094083"><ele>268.0</ele><time>2026-04-19T10:12:47Z</time></trkpt><trkpt lat="44.89164163198611" lon="7.969057930015888"><ele>267.75</ele><time>2026-04-19T10:12:48Z</time></trkpt><trkpt lat="44.891480903615964" lon="7.9690707372977005"><ele>267.5</ele><time>2026-04-19T10:12:50Z</time></trkpt><trkpt lat="44.89135930443429" lon="7.969104756536678"><ele>267.25</ele><time>2026-04-19T10:12:51Z</time></trkpt><trkpt lat="44.89123790834942" lon="7.969122608869098"><ele>267.0</ele><time>2026-04-19T10:12:52Z</time></trkpt><trkpt lat="44.89112421513014" lon="7.969159734102788"><ele>266.0</ele><time>2026-04-19T10:12:53Z</time></trkpt><trkpt lat="44.890985672159324" lon="7.969223050657188"><ele>265.0</ele><time>2026-04-19T10:12:54Z</time></trkpt><trkpt lat="44.89082685395331" lon="7.9692965174134365"><ele>264.0</ele><time>2026-04-19T10:12:55Z</time></trkpt><trkpt lat="44.890691167033786" lon="7.969354755057395"><ele>264.0</ele><time>2026-04-19T10:12:56Z</time></trkpt><trkpt lat="44.89060864419668" lon="7.9693949929473336"><ele>264.0</ele><time>2026-04-19T10:12:57Z</time></trkpt><trkpt lat="44.89054232955128" lon="7.969468723471223"><ele>264.0</ele><time>2026-04-19T10:12:58Z</time></trkpt><trkpt lat="44.890451452748124" lon="7.969577411593419"><ele>264.0</ele><time>2026-04-19T10:12:59Z</time></trkpt><trkpt lat="44.8903365116663" lon="7.969663784166354"><ele>264.0</ele><time>2026-04-19T10:13:00Z</time></trkpt><trkpt lat="44.89020823764894" lon="7.969749386694458"><ele>265.8</ele><time>2026-04-19T10:13:01Z</time></trkpt><trkpt lat="44.89009094697428" lon="7.969815095769633"><ele>267.59999999999997</ele><time>2026-04-19T10:13:02Z</time></trkpt><trkpt lat="44.88999415744173" lon="7.969868631979062"><ele>269.4</ele><time>2026-04-19T10:13:03Z</time></trkpt><trkpt lat="44.8899070496376" lon="7.9699220692378105"><ele>271.2</ele><time>2026-04-19T10:13:04Z</time></trkpt><trkpt lat="44.889814912454405" lon="7.969973877243366"><ele>273.0</ele><time>2026-04-19T10:13:05Z</time></trkpt><trkpt lat="44.88971581204439" lon="7.97001814486629"><ele>273.6</ele><time>2026-04-19T10:13:06Z</time></trkpt><trkpt lat="44.88959327525837" lon="7.970052978663116"><ele>274.20000000000005</ele><time>2026-04-19T10:13:07Z</time></trkpt><trkpt lat="44.88948453739309" lon="7.97008476108821"><ele>274.8</ele><time>2026-04-19T10:13:08Z</time></trkpt><trkpt lat="44.8893856846502" lon="7.970116704097399"><ele>275.40000000000003</ele><time>2026-04-19T10:13:09Z</time></trkpt><trkpt lat="44.889300211731765" lon="7.970147130599637"><ele>276.0</ele><time>2026-04-19T10:13:10Z</time></trkpt><trkpt lat="44.8892387620195" lon="7.970169900782178"><ele>276.0</ele><time>2026-04-19T10:13:11Z</time></trkpt><trkpt lat="44.88917759574658" lon="7.970193657678273"><ele>276.0</ele><time>2026-04-19T10:13:14Z</time></trkpt><trkpt lat="44.889074913177105" lon="7.970276826533927"><ele>276.0</ele><time>2026-04-19T10:13:16Z</time></trkpt><trkpt lat="44.88900520504087" lon="7.97033775654085"><ele>276.0</ele><time>2026-04-19T10:13:17Z</time></trkpt><trkpt lat="44.88893659127231" lon="7.9703828961279575"><ele>276.0</ele><time>2026-04-19T10:13:18Z</time></trkpt><trkpt lat="44.88885942996361" lon="7.970435031136398"><ele>276.0</ele><time>2026-04-19T10:13:19Z</time></trkpt><trkpt lat="44.888768729437544" lon="7.9704974574852265"><ele>276.0</ele><time>2026-04-19T10:13:20Z</time></trkpt><trkpt lat="44.888670222771516" lon="7.970574314232296"><ele>276.0</ele><time>2026-04-19T10:13:21Z</time></trkpt><trkpt lat="44.88856848138701" lon="7.97065513817657"><ele>276.0</ele><time>2026-04-19T10:13:22Z</time></trkpt><trkpt lat="44.88848426196687" lon="7.97073130729423"><ele>276.0</ele><time>2026-04-19T10:13:23Z</time></trkpt><trkpt lat="44.888429127691595" lon="7.97078350330273"><ele>276.0</ele><time>2026-04-19T10:13:24Z</time></trkpt><trkpt lat="44.88835270813704" lon="7.970806308487657"><ele>277.8</ele><time>2026-04-19T10:13:26Z</time></trkpt><trkpt lat="44.888315644193035" lon="7.970645805112098"><ele>279.6</ele><time>2026-04-19T10:13:28Z</time></trkpt><trkpt lat="44.88829988263152" lon="7.970508563185747"><ele>281.4</ele><time>2026-04-19T10:13:29Z</time></trkpt><trkpt lat="44.8882708471158" lon="7.970365969658522"><ele>283.2</ele><time>2026-04-19T10:13:30Z</time></trkpt><trkpt lat="44.888245551228934" lon="7.970222288802096"><ele>285.0</ele><time>2026-04-19T10:13:30.999Z</time></trkpt><trkpt lat="44.888214886084555" lon="7.9700669717382695"><ele>285.2</ele><time>2026-04-19T10:13:31.999Z</time></trkpt><trkpt lat="44.88817595869927" lon="7.969903352634801"><ele>285.4</ele><time>2026-04-19T10:13:32.999Z</time></trkpt><trkpt lat="44.888136635213755" lon="7.9697549020125145"><ele>285.6</ele><time>2026-04-19T10:13:33.999Z</time></trkpt><trkpt lat="44.88809709276179" lon="7.96962599874283"><ele>285.8</ele><time>2026-04-19T10:13:34.999Z</time></trkpt><trkpt lat="44.88805387646812" lon="7.9695143964911574"><ele>286.0</ele><time>2026-04-19T10:13:35.999Z</time></trkpt><trkpt lat="44.88800037286225" lon="7.969402141046286"><ele>286.0</ele><time>2026-04-19T10:13:36.999Z</time></trkpt><trkpt lat="44.88793249476224" lon="7.969286891106056"><ele>286.0</ele><time>2026-04-19T10:13:37.999Z</time></trkpt><trkpt lat="44.88785291296829" lon="7.969170016976633"><ele>286.0</ele><time>2026-04-19T10:13:38.999Z</time></trkpt><trkpt lat="44.88776127291446" lon="7.969051743661833"><ele>286.0</ele><time>2026-04-19T10:13:39.999Z</time></trkpt><trkpt lat="44.8876737575556" lon="7.968946071502114"><ele>284.5</ele><time>2026-04-19T10:13:40.999Z</time></trkpt><trkpt lat="44.88757854534337" lon="7.968845841237162"><ele>283.0</ele><time>2026-04-19T10:13:41.999Z</time></trkpt><trkpt lat="44.88747723303998" lon="7.968752313808017"><ele>281.5</ele><time>2026-04-19T10:13:42.999Z</time></trkpt><trkpt lat="44.88737979162982" lon="7.9686597713003815"><ele>280.0</ele><time>2026-04-19T10:13:43.999Z</time></trkpt><trkpt lat="44.88728412511233" lon="7.968566504439643"><ele>280.0</ele><time>2026-04-19T10:13:44.999Z</time></trkpt><trkpt lat="44.887189335191486" lon="7.968459717370083"><ele>280.0</ele><time>2026-04-19T10:13:45.999Z</time></trkpt><trkpt lat="44.887098132074435" lon="7.968366873462023"><ele>280.0</ele><time>2026-04-19T10:13:46.999Z</time></trkpt><trkpt lat="44.88699507825797" lon="7.96830582794801"><ele>280.0</ele><time>2026-04-19T10:13:47.999Z</time></trkpt><trkpt lat="44.88687664615582" lon="7.968268078220098"><ele>281.4</ele><time>2026-04-19T10:13:48.999Z</time></trkpt><trkpt lat="44.88674154496584" lon="7.9682233813514785"><ele>282.8</ele><time>2026-04-19T10:13:49.999Z</time></trkpt><trkpt lat="44.88662789022549" lon="7.9681766349267935"><ele>284.2</ele><time>2026-04-19T10:13:50.999Z</time></trkpt><trkpt lat="44.88654170790203" lon="7.968135103502432"><ele>285.6</ele><time>2026-04-19T10:13:51.999Z</time></trkpt><trkpt lat="44.88646656477136" lon="7.9681011173394"><ele>287.0</ele><time>2026-04-19T10:13:52.999Z</time></trkpt><trkpt lat="44.88639236764982" lon="7.968065842511727"><ele>287.0</ele><time>2026-04-19T10:13:53.999Z</time></trkpt><trkpt lat="44.886313068694236" lon="7.96803689848288"><ele>287.0</ele><time>2026-04-19T10:13:54.999Z</time></trkpt><trkpt lat="44.88623284485734" lon="7.96799001149601"><ele>287.0</ele><time>2026-04-19T10:13:55.999Z</time></trkpt><trkpt lat="44.886149574867986" lon="7.967927264912698"><ele>287.0</ele><time>2026-04-19T10:13:56.999Z</time></trkpt><trkpt lat="44.886067080965745" lon="7.967848274968558"><ele>287.0</ele><time>2026-04-19T10:13:57.999Z</time></trkpt><trkpt lat="44.88600177548483" lon="7.967755923650974"><ele>287.0</ele><time>2026-04-19T10:13:58.999Z</time></trkpt><trkpt lat="44.88595278371038" lon="7.9676546766955205"><ele>287.0</ele><time>2026-04-19T10:13:59.999Z</time></trkpt><trkpt lat="44.88591684854583" lon="7.967539317675362"><ele>287.0</ele><time>2026-04-19T10:14:00.999Z</time></trkpt><trkpt lat="44.88589803208132" lon="7.967419524335132"><ele>287.0</ele><time>2026-04-19T10:14:01.999Z</time></trkpt><trkpt lat="44.885888727175306" lon="7.967286547066436"><ele>287.0</ele><time>2026-04-19T10:14:02.999Z</time></trkpt><trkpt lat="44.88587138352596" lon="7.967161071038111"><ele>287.0</ele><time>2026-04-19T10:14:03.999Z</time></trkpt><trkpt lat="44.885842144220724" lon="7.967051273266458"><ele>286.8</ele><time>2026-04-19T10:14:04.999Z</time></trkpt><trkpt lat="44.88579002348214" lon="7.966921703062881"><ele>286.6</ele><time>2026-04-19T10:14:06.999Z</time></trkpt><trkpt lat="44.885727185635844" lon="7.966824131388333"><ele>286.40000000000003</ele><time>2026-04-19T10:14:09.999Z</time></trkpt><trkpt lat="44.885658733358376" lon="7.966690267608068"><ele>286.2</ele><time>2026-04-19T10:14:11.999Z</time></trkpt><trkpt lat="44.885597949057725" lon="7.966600570062556"><ele>286.0</ele><time>2026-04-19T10:14:12.999Z</time></trkpt><trkpt lat="44.88553892715483" lon="7.966480820449813"><ele>286.0</ele><time>2026-04-19T10:14:13.999Z</time></trkpt><trkpt lat="44.88551377023697" lon="7.966367771345644"><ele>286.0</ele><time>2026-04-19T10:14:14.999Z</time></trkpt><trkpt lat="44.885510108720474" lon="7.966249338574734"><ele>286.0</ele><time>2026-04-19T10:14:15.999Z</time></trkpt><trkpt lat="44.88552325439738" lon="7.966127388917129"><ele>286.0</ele><time>2026-04-19T10:14:16.999Z</time></trkpt><trkpt lat="44.885529272857866" lon="7.965995083447943"><ele>286.0</ele><time>2026-04-19T10:14:17.999Z</time></trkpt><trkpt lat="44.88552282753334" lon="7.965879520932665"><ele>286.0</ele><time>2026-04-19T10:14:18.999Z</time></trkpt><trkpt lat="44.885445434777736" lon="7.965748833549702"><ele>284.40000000000003</ele><time>2026-04-19T10:14:21Z</time></trkpt><trkpt lat="44.88535394128095" lon="7.965671486868503"><ele>282.8</ele><time>2026-04-19T10:14:22Z</time></trkpt><trkpt lat="44.88525599916751" lon="7.965573934909452"><ele>281.20000000000005</ele><time>2026-04-19T10:14:23Z</time></trkpt><trkpt lat="44.88517209335207" lon="7.965488513991246"><ele>279.6</ele><time>2026-04-19T10:14:24Z</time></trkpt><trkpt lat="44.885095629096796" lon="7.965431430963905"><ele>278.0</ele><time>2026-04-19T10:14:25Z</time></trkpt><trkpt lat="44.885010079661896" lon="7.9653914926064875"><ele>278.0</ele><time>2026-04-19T10:14:26Z</time></trkpt><trkpt lat="44.88490322143092" lon="7.965370820621577"><ele>278.0</ele><time>2026-04-19T10:14:27Z</time></trkpt><trkpt lat="44.88480201909291" lon="7.965360206265716"><ele>278.0</ele><time>2026-04-19T10:14:28Z</time></trkpt><trkpt lat="44.884713039388004" lon="7.965361579982947"><ele>278.0</ele><time>2026-04-19T10:14:29Z</time></trkpt><trkpt lat="44.884630092158154" lon="7.965394447008257"><ele>278.0</ele><time>2026-04-19T10:14:30Z</time></trkpt><trkpt lat="44.88452792966717" lon="7.965452512710148"><ele>278.0</ele><time>2026-04-19T10:14:31Z</time></trkpt><trkpt lat="44.88442456377616" lon="7.965504881386951"><ele>278.0</ele><time>2026-04-19T10:14:32Z</time></trkpt><trkpt lat="44.88432182711238" lon="7.965537223173506"><ele>278.0</ele><time>2026-04-19T10:14:33Z</time></trkpt><trkpt lat="44.884216439385874" lon="7.965550005461757"><ele>278.0</ele><time>2026-04-19T10:14:34Z</time></trkpt><trkpt lat="44.88410819868753" lon="7.965550385679458"><ele>278.0</ele><time>2026-04-19T10:14:35Z</time></trkpt><trkpt lat="44.88400084139139" lon="7.965530409407245"><ele>277.2</ele><time>2026-04-19T10:14:36Z</time></trkpt><trkpt lat="44.8838924653233" lon="7.96549590090535"><ele>276.4</ele><time>2026-04-19T10:14:37Z</time></trkpt><trkpt lat="44.883788528191225" lon="7.965468577173531"><ele>275.59999999999997</ele><time>2026-04-19T10:14:38Z</time></trkpt><trkpt lat="44.88368578173606" lon="7.965451475954291"><ele>274.8</ele><time>2026-04-19T10:14:39Z</time></trkpt><trkpt lat="44.88358680071255" lon="7.965438380162528"><ele>274.0</ele><time>2026-04-19T10:14:40Z</time></trkpt><trkpt lat="44.88348564271021" lon="7.965421175222493"><ele>276.4</ele><time>2026-04-19T10:14:41Z</time></trkpt><trkpt lat="44.88338296995215" lon="7.965400736689345"><ele>278.79999999999995</ele><time>2026-04-19T10:14:42Z</time></trkpt><trkpt lat="44.88327768537183" lon="7.965382883374002"><ele>281.20000000000005</ele><time>2026-04-19T10:14:43Z</time></trkpt><trkpt lat="44.88316174608388" lon="7.965379758849965"><ele>283.6</ele><time>2026-04-19T10:14:44Z</time></trkpt><trkpt lat="44.88304652355199" lon="7.965381382824561"><ele>286.0</ele><time>2026-04-19T10:14:45Z</time></trkpt><trkpt lat="44.88293482707722" lon="7.965394070770072"><ele>286.0</ele><time>2026-04-19T10:14:46Z</time></trkpt><trkpt lat="44.88283185262177" lon="7.965409911776901"><ele>286.0</ele><time>2026-04-19T10:14:47Z</time></trkpt><trkpt lat="44.88272604499483" lon="7.965409839530859"><ele>286.0</ele><time>2026-04-19T10:14:48Z</time></trkpt><trkpt lat="44.88261953553459" lon="7.96541578041226"><ele>286.0</ele><time>2026-04-19T10:14:49Z</time></trkpt><trkpt lat="44.882509682441544" lon="7.965419019438242"><ele>286.0</ele><time>2026-04-19T10:14:50Z</time></trkpt><trkpt lat="44.88240083839365" lon="7.965423645450753"><ele>287.5</ele><time>2026-04-19T10:14:51Z</time></trkpt><trkpt lat="44.88229024129598" lon="7.965436065720149"><ele>289.0</ele><time>2026-04-19T10:14:52Z</time></trkpt><trkpt lat="44.882185072119725" lon="7.965478740399558"><ele>290.5</ele><time>2026-04-19T10:14:53Z</time></trkpt><trkpt lat="44.882067286623986" lon="7.965517831863432"><ele>292.0</ele><time>2026-04-19T10:14:54Z</time></trkpt><trkpt lat="44.88194658493084" lon="7.965541542837634"><ele>292.0</ele><time>2026-04-19T10:14:55Z</time></trkpt><trkpt lat="44.88183245231805" lon="7.965575668237713"><ele>292.0</ele><time>2026-04-19T10:14:56Z</time></trkpt><trkpt lat="44.88171866271482" lon="7.965589834538075"><ele>292.0</ele><time>2026-04-19T10:14:57Z</time></trkpt><trkpt lat="44.88160213225772" lon="7.965591923069066"><ele>292.0</ele><time>2026-04-19T10:14:58Z</time></trkpt><trkpt lat="44.88148229118245" lon="7.965592184858263"><ele>291.5</ele><time>2026-04-19T10:14:59Z</time></trkpt><trkpt lat="44.881365684770394" lon="7.965596428935275"><ele>291.0</ele><time>2026-04-19T10:15:00Z</time></trkpt><trkpt lat="44.881247904499965" lon="7.9656063684395955"><ele>290.5</ele><time>2026-04-19T10:15:01Z</time></trkpt><trkpt lat="44.88113423768384" lon="7.9656148344149065"><ele>290.0</ele><time>2026-04-19T10:15:02Z</time></trkpt><trkpt lat="44.88101773462243" lon="7.9656269126320876"><ele>289.5</ele><time>2026-04-19T10:15:03Z</time></trkpt><trkpt lat="44.88088023327628" lon="7.965647926888732"><ele>289.0</ele><time>2026-04-19T10:15:04Z</time></trkpt><trkpt lat="44.880724915204354" lon="7.9656825374524125"><ele>288.5</ele><time>2026-04-19T10:15:05Z</time></trkpt><trkpt lat="44.88057527617914" lon="7.96571113286011"><ele>288.0</ele><time>2026-04-19T10:15:06Z</time></trkpt><trkpt lat="44.88044138115502" lon="7.965733325172158"><ele>288.0</ele><time>2026-04-19T10:15:07Z</time></trkpt><trkpt lat="44.880316442090496" lon="7.965765593578659"><ele>288.0</ele><time>2026-04-19T10:15:08Z</time></trkpt><trkpt lat="44.88019479987548" lon="7.9658167909958015"><ele>288.0</ele><time>2026-04-19T10:15:09Z</time></trkpt><trkpt lat="44.88005489420115" lon="7.965892609585451"><ele>288.0</ele><time>2026-04-19T10:15:10Z</time></trkpt><trkpt lat="44.87990160333837" lon="7.965987616544756"><ele>288.0</ele><time>2026-04-19T10:15:11Z</time></trkpt><trkpt lat="44.87975610279105" lon="7.966068114182605"><ele>288.0</ele><time>2026-04-19T10:15:12Z</time></trkpt><trkpt lat="44.879625400560755" lon="7.966124541897695"><ele>288.0</ele><time>2026-04-19T10:15:13Z</time></trkpt><trkpt lat="44.87950479525611" lon="7.966160445108841"><ele>288.0</ele><time>2026-04-19T10:15:14Z</time></trkpt><trkpt lat="44.879402218846735" lon="7.966201403975595"><ele>288.0</ele><time>2026-04-19T10:15:15Z</time></trkpt><trkpt lat="44.87931167493865" lon="7.966266514639488"><ele>288.0</ele><time>2026-04-19T10:15:16Z</time></trkpt><trkpt lat="44.87923378462609" lon="7.96635972834233"><ele>288.0</ele><time>2026-04-19T10:15:17Z</time></trkpt><trkpt lat="44.87915077191782" lon="7.966453099214317"><ele>288.0</ele><time>2026-04-19T10:15:18Z</time></trkpt><trkpt lat="44.87906342384691" lon="7.9665300021478895"><ele>288.0</ele><time>2026-04-19T10:15:19Z</time></trkpt><trkpt lat="44.8789559174067" lon="7.9665766280727635"><ele>289.0</ele><time>2026-04-19T10:15:20Z</time></trkpt><trkpt lat="44.87882669900348" lon="7.966607308762619"><ele>290.0</ele><time>2026-04-19T10:15:21Z</time></trkpt><trkpt lat="44.87866935712058" lon="7.966648097194386"><ele>291.0</ele><time>2026-04-19T10:15:22Z</time></trkpt><trkpt lat="44.878526832154265" lon="7.966694183900563"><ele>292.0</ele><time>2026-04-19T10:15:23Z</time></trkpt><trkpt lat="44.87840056938098" lon="7.966735152653706"><ele>292.0</ele><time>2026-04-19T10:15:24Z</time></trkpt><trkpt lat="44.87825880998514" lon="7.9667762213335855"><ele>292.0</ele><time>2026-04-19T10:15:25Z</time></trkpt><trkpt lat="44.87809435126821" lon="7.966824621294559"><ele>292.0</ele><time>2026-04-19T10:15:26Z</time></trkpt><trkpt lat="44.87794481437745" lon="7.9668750535066275"><ele>292.0</ele><time>2026-04-19T10:15:27Z</time></trkpt><trkpt lat="44.877815117559734" lon="7.966919891730492"><ele>292.0</ele><time>2026-04-19T10:15:28Z</time></trkpt><trkpt lat="44.87768387744285" lon="7.966953269819634"><ele>292.0</ele><time>2026-04-19T10:15:29Z</time></trkpt><trkpt lat="44.877541885687734" lon="7.966972479967658"><ele>292.0</ele><time>2026-04-19T10:15:30Z</time></trkpt><trkpt lat="44.87740271084783" lon="7.966981382961065"><ele>293.5</ele><time>2026-04-19T10:15:31Z</time></trkpt><trkpt lat="44.877278127618936" lon="7.966988588170322"><ele>295.0</ele><time>2026-04-19T10:15:32Z</time></trkpt><trkpt lat="44.87715815989072" lon="7.966991960761909"><ele>296.5</ele><time>2026-04-19T10:15:33Z</time></trkpt><trkpt lat="44.877033110521296" lon="7.967000254171564"><ele>298.0</ele><time>2026-04-19T10:15:34Z</time></trkpt><trkpt lat="44.87690540008445" lon="7.967022890433931"><ele>298.0</ele><time>2026-04-19T10:15:34.999Z</time></trkpt><trkpt lat="44.8767813711467" lon="7.967074237465653"><ele>298.0</ele><time>2026-04-19T10:15:35.999Z</time></trkpt><trkpt lat="44.876646721473186" lon="7.9671654963657845"><ele>298.0</ele><time>2026-04-19T10:15:36.999Z</time></trkpt><trkpt lat="44.87650026345488" lon="7.967287340753253"><ele>298.0</ele><time>2026-04-19T10:15:37.999Z</time></trkpt><trkpt lat="44.876350677035994" lon="7.967410365530774"><ele>298.75</ele><time>2026-04-19T10:15:38.999Z</time></trkpt><trkpt lat="44.87621446843466" lon="7.967514808498308"><ele>299.5</ele><time>2026-04-19T10:15:39.999Z</time></trkpt><trkpt lat="44.87608965612553" lon="7.967618802307481"><ele>300.25</ele><time>2026-04-19T10:15:40.999Z</time></trkpt><trkpt lat="44.875970964265186" lon="7.967719268284162"><ele>301.0</ele><time>2026-04-19T10:15:41.999Z</time></trkpt><trkpt lat="44.87586903209984" lon="7.967809424520099"><ele>302.0</ele><time>2026-04-19T10:15:42.999Z</time></trkpt><trkpt lat="44.87577506827823" lon="7.967890178519156"><ele>303.0</ele><time>2026-04-19T10:15:43.999Z</time></trkpt><trkpt lat="44.87568123370643" lon="7.967964472853084"><ele>304.0</ele><time>2026-04-19T10:15:44.999Z</time></trkpt><trkpt lat="44.875593226988165" lon="7.968035547205689"><ele>305.0</ele><time>2026-04-19T10:15:45.999Z</time></trkpt><trkpt lat="44.875507361309516" lon="7.968123962158339"><ele>306.0</ele><time>2026-04-19T10:15:46.999Z</time></trkpt><trkpt lat="44.875427040733015" lon="7.968215154895622"><ele>306.0</ele><time>2026-04-19T10:15:47.999Z</time></trkpt><trkpt lat="44.87534720462101" lon="7.968311442281694"><ele>306.0</ele><time>2026-04-19T10:15:48.999Z</time></trkpt><trkpt lat="44.87526418907973" lon="7.968403139866328"><ele>306.0</ele><time>2026-04-19T10:15:49.999Z</time></trkpt><trkpt lat="44.87518329223734" lon="7.968500851254088"><ele>306.0</ele><time>2026-04-19T10:15:50.999Z</time></trkpt><trkpt lat="44.87510613281564" lon="7.96861087053203"><ele>306.0</ele><time>2026-04-19T10:15:51.999Z</time></trkpt><trkpt lat="44.8750293377521" lon="7.968732045932725"><ele>306.0</ele><time>2026-04-19T10:15:52.999Z</time></trkpt><trkpt lat="44.874942015595565" lon="7.9688533878245"><ele>306.0</ele><time>2026-04-19T10:15:53.999Z</time></trkpt><trkpt lat="44.874854011878995" lon="7.9689689283266265"><ele>306.0</ele><time>2026-04-19T10:15:54.999Z</time></trkpt><trkpt lat="44.87475622150036" lon="7.969075658467684"><ele>306.0</ele><time>2026-04-19T10:15:55.999Z</time></trkpt><trkpt lat="44.87464420495417" lon="7.969173557530516"><ele>306.0</ele><time>2026-04-19T10:15:56.999Z</time></trkpt><trkpt lat="44.874527743863254" lon="7.96926101446174"><ele>306.0</ele><time>2026-04-19T10:15:57.999Z</time></trkpt><trkpt lat="44.87443781457431" lon="7.969343318920545"><ele>306.0</ele><time>2026-04-19T10:15:58.999Z</time></trkpt><trkpt lat="44.8743646911903" lon="7.969438781322204"><ele>306.0</ele><time>2026-04-19T10:15:59.999Z</time></trkpt><trkpt lat="44.87429446685861" lon="7.9695486520837555"><ele>306.0</ele><time>2026-04-19T10:16:00.999Z</time></trkpt><trkpt lat="44.87423018212942" lon="7.969656705556418"><ele>306.0</ele><time>2026-04-19T10:16:01.999Z</time></trkpt><trkpt lat="44.87417191358968" lon="7.969745274891093"><ele>306.0</ele><time>2026-04-19T10:16:02.999Z</time></trkpt><trkpt lat="44.87411780718199" lon="7.969819344431533"><ele>306.0</ele><time>2026-04-19T10:16:03.999Z</time></trkpt><trkpt lat="44.87405594193118" lon="7.969881757856031"><ele>306.0</ele><time>2026-04-19T10:16:04.999Z</time></trkpt><trkpt lat="44.87398215234929" lon="7.969946507206177"><ele>306.0</ele><time>2026-04-19T10:16:05.999Z</time></trkpt><trkpt lat="44.87392068495144" lon="7.970006437890631"><ele>306.0</ele><time>2026-04-19T10:16:06.999Z</time></trkpt><trkpt lat="44.87387220379838" lon="7.9700644720770555"><ele>305.3333333333333</ele><time>2026-04-19T10:16:07.999Z</time></trkpt><trkpt lat="44.87380475268596" lon="7.9701811226952355"><ele>304.6666666666667</ele><time>2026-04-19T10:16:09.999Z</time></trkpt><trkpt lat="44.87377206659085" lon="7.9703026707604225"><ele>304.0</ele><time>2026-04-19T10:16:11.999Z</time></trkpt><trkpt lat="44.87376468650765" lon="7.970418533906538"><ele>303.33333333333337</ele><time>2026-04-19T10:16:13.999Z</time></trkpt><trkpt lat="44.8737324540798" lon="7.970517515000895"><ele>302.6666666666667</ele><time>2026-04-19T10:16:15.999Z</time></trkpt><trkpt lat="44.87368167854428" lon="7.970578765601711"><ele>302.0</ele><time>2026-04-19T10:16:18.999Z</time></trkpt><trkpt lat="44.873558922655135" lon="7.970582774054467"><ele>302.0</ele><time>2026-04-19T10:16:20.999Z</time></trkpt><trkpt lat="44.87347298281569" lon="7.970584057902698"><ele>302.0</ele><time>2026-04-19T10:16:21.999Z</time></trkpt><trkpt lat="44.87337335157257" lon="7.97058904635807"><ele>302.0</ele><time>2026-04-19T10:16:22.999Z</time></trkpt><trkpt lat="44.87328844553558" lon="7.97058733420023"><ele>302.0</ele><time>2026-04-19T10:16:23.999Z</time></trkpt><trkpt lat="44.87320264625401" lon="7.97058875055799"><ele>302.0</ele><time>2026-04-19T10:16:24.999Z</time></trkpt><trkpt lat="44.87310442049069" lon="7.970591752785712"><ele>303.8</ele><time>2026-04-19T10:16:26Z</time></trkpt><trkpt lat="44.87299781042524" lon="7.970592234766486"><ele>305.6</ele><time>2026-04-19T10:16:27Z</time></trkpt><trkpt lat="44.87289131247813" lon="7.970595229111981"><ele>307.40000000000003</ele><time>2026-04-19T10:16:28Z</time></trkpt><trkpt lat="44.872783369120626" lon="7.970589829110911"><ele>309.2</ele><time>2026-04-19T10:16:29Z</time></trkpt><trkpt lat="44.87267878842518" lon="7.970592874188067"><ele>311.0</ele><time>2026-04-19T10:16:30Z</time></trkpt><trkpt lat="44.872570022161476" lon="7.970595151280153"><ele>311.5</ele><time>2026-04-19T10:16:31Z</time></trkpt><trkpt lat="44.87245473351166" lon="7.970600263476942"><ele>312.0</ele><time>2026-04-19T10:16:32Z</time></trkpt><trkpt lat="44.87233839378388" lon="7.970605676680276"><ele>312.5</ele><time>2026-04-19T10:16:33Z</time></trkpt><trkpt lat="44.8722279560555" lon="7.970613940753602"><ele>313.0</ele><time>2026-04-19T10:16:34Z</time></trkpt><trkpt lat="44.87211678634032" lon="7.970613480056907"><ele>313.0</ele><time>2026-04-19T10:16:35Z</time></trkpt><trkpt lat="44.87200660758947" lon="7.970608299462817"><ele>313.0</ele><time>2026-04-19T10:16:36Z</time></trkpt><trkpt lat="44.87190144422399" lon="7.970605806235003"><ele>313.0</ele><time>2026-04-19T10:16:37Z</time></trkpt><trkpt lat="44.87180766631784" lon="7.9706048914175565"><ele>313.0</ele><time>2026-04-19T10:16:38Z</time></trkpt><trkpt lat="44.871722374691956" lon="7.970600170212567"><ele>313.0</ele><time>2026-04-19T10:16:39Z</time></trkpt><trkpt lat="44.87164089006669" lon="7.970597071183001"><ele>313.2</ele><time>2026-04-19T10:16:40Z</time></trkpt><trkpt lat="44.87155934506916" lon="7.970598551088347"><ele>313.4</ele><time>2026-04-19T10:16:41Z</time></trkpt><trkpt lat="44.87147597276705" lon="7.970595048517572"><ele>313.59999999999997</ele><time>2026-04-19T10:16:42Z</time></trkpt><trkpt lat="44.87137803752452" lon="7.9705703995487704"><ele>313.8</ele><time>2026-04-19T10:16:43Z</time></trkpt><trkpt lat="44.871278664191586" lon="7.970517427016669"><ele>314.0</ele><time>2026-04-19T10:16:44Z</time></trkpt><trkpt lat="44.87117291510564" lon="7.970458750153901"><ele>314.0</ele><time>2026-04-19T10:16:45Z</time></trkpt><trkpt lat="44.87106239958817" lon="7.970397932683093"><ele>314.0</ele><time>2026-04-19T10:16:46Z</time></trkpt><trkpt lat="44.870936498426786" lon="7.970324626460866"><ele>314.0</ele><time>2026-04-19T10:16:47Z</time></trkpt><trkpt lat="44.8707913479461" lon="7.970263848851522"><ele>314.0</ele><time>2026-04-19T10:16:48Z</time></trkpt><trkpt lat="44.8706427364219" lon="7.970232026561456"><ele>313.0</ele><time>2026-04-19T10:16:49Z</time></trkpt><trkpt lat="44.87050598075412" lon="7.970216093465201"><ele>312.0</ele><time>2026-04-19T10:16:50Z</time></trkpt><trkpt lat="44.870383539249914" lon="7.970208099556365"><ele>311.0</ele><time>2026-04-19T10:16:51Z</time></trkpt><trkpt lat="44.870274515599725" lon="7.970197827299875"><ele>310.0</ele><time>2026-04-19T10:16:52Z</time></trkpt><trkpt lat="44.87017290090599" lon="7.970181278124475"><ele>311.6</ele><time>2026-04-19T10:16:53Z</time></trkpt><trkpt lat="44.870077124167956" lon="7.970160986183555"><ele>313.2</ele><time>2026-04-19T10:16:54Z</time></trkpt><trkpt lat="44.86998216682756" lon="7.970146038081792"><ele>314.8</ele><time>2026-04-19T10:16:55Z</time></trkpt><trkpt lat="44.869885026198624" lon="7.970131979973309"><ele>316.4</ele><time>2026-04-19T10:16:56Z</time></trkpt><trkpt lat="44.86978182795687" lon="7.970113610684665"><ele>318.0</ele><time>2026-04-19T10:16:57Z</time></trkpt><trkpt lat="44.86967272861469" lon="7.970098161433327"><ele>318.0</ele><time>2026-04-19T10:16:58Z</time></trkpt><trkpt lat="44.86955775837122" lon="7.970082111094131"><ele>318.0</ele><time>2026-04-19T10:16:59Z</time></trkpt><trkpt lat="44.86944013644059" lon="7.970063942350747"><ele>318.0</ele><time>2026-04-19T10:17:00Z</time></trkpt><trkpt lat="44.86932992503605" lon="7.9700477357477135"><ele>318.0</ele><time>2026-04-19T10:17:01Z</time></trkpt><trkpt lat="44.86923216188369" lon="7.9700317504907945"><ele>318.0</ele><time>2026-04-19T10:17:02Z</time></trkpt><trkpt lat="44.869151723991976" lon="7.970012677543455"><ele>317.6666666666667</ele><time>2026-04-19T10:17:03Z</time></trkpt><trkpt lat="44.86907847839898" lon="7.969985168837118"><ele>317.3333333333333</ele><time>2026-04-19T10:17:04Z</time></trkpt><trkpt lat="44.868996879576756" lon="7.969946117911708"><ele>317.0</ele><time>2026-04-19T10:17:06Z</time></trkpt><trkpt lat="44.86893799414825" lon="7.969863897808104"><ele>316.66666666666663</ele><time>2026-04-19T10:17:08Z</time></trkpt><trkpt lat="44.86891822428195" lon="7.969755164612243"><ele>316.3333333333333</ele><time>2026-04-19T10:17:09Z</time></trkpt><trkpt lat="44.86888116931482" lon="7.969619017016226"><ele>316.0</ele><time>2026-04-19T10:17:10Z</time></trkpt><trkpt lat="44.86884417613044" lon="7.969485208747157"><ele>316.0</ele><time>2026-04-19T10:17:11Z</time></trkpt><trkpt lat="44.86879453934502" lon="7.96933533123715"><ele>316.0</ele><time>2026-04-19T10:17:12Z</time></trkpt><trkpt lat="44.86874045732701" lon="7.969149064033553"><ele>316.0</ele><time>2026-04-19T10:17:13Z</time></trkpt><trkpt lat="44.868700935887865" lon="7.96894920600544"><ele>316.0</ele><time>2026-04-19T10:17:14Z</time></trkpt><trkpt lat="44.86867720909071" lon="7.968753059684377"><ele>316.25</ele><time>2026-04-19T10:17:15Z</time></trkpt><trkpt lat="44.8686546336225" lon="7.968564846757855"><ele>316.5</ele><time>2026-04-19T10:17:16Z</time></trkpt><trkpt lat="44.86863064100602" lon="7.968384196368345"><ele>316.75</ele><time>2026-04-19T10:17:17Z</time></trkpt><trkpt lat="44.86860874514949" lon="7.9682016639130255"><ele>317.0</ele><time>2026-04-19T10:17:18Z</time></trkpt><trkpt lat="44.86859143749336" lon="7.9680247940271"><ele>317.25</ele><time>2026-04-19T10:17:19Z</time></trkpt><trkpt lat="44.86858473382084" lon="7.967847654794424"><ele>317.5</ele><time>2026-04-19T10:17:20Z</time></trkpt><trkpt lat="44.868592241521036" lon="7.967670190577682"><ele>317.75</ele><time>2026-04-19T10:17:21Z</time></trkpt><trkpt lat="44.86861405749741" lon="7.967494906651117"><ele>318.0</ele><time>2026-04-19T10:17:22Z</time></trkpt><trkpt lat="44.86864214700507" lon="7.96732252830378"><ele>317.25</ele><time>2026-04-19T10:17:23Z</time></trkpt><trkpt lat="44.868673617187746" lon="7.967155354714588"><ele>316.5</ele><time>2026-04-19T10:17:24Z</time></trkpt><trkpt lat="44.86870687003576" lon="7.966989877237053"><ele>315.75</ele><time>2026-04-19T10:17:25Z</time></trkpt><trkpt lat="44.868742592080984" lon="7.966826396549884"><ele>315.0</ele><time>2026-04-19T10:17:26Z</time></trkpt><trkpt lat="44.8687730618687" lon="7.966662256751844"><ele>315.0</ele><time>2026-04-19T10:17:27Z</time></trkpt><trkpt lat="44.86879452952266" lon="7.9664938351102"><ele>315.0</ele><time>2026-04-19T10:17:28Z</time></trkpt><trkpt lat="44.868806975966486" lon="7.966324210417621"><ele>315.0</ele><time>2026-04-19T10:17:29Z</time></trkpt><trkpt lat="44.86879050854446" lon="7.966172943634213"><ele>315.0</ele><time>2026-04-19T10:17:30Z</time></trkpt><trkpt lat="44.86874383565853" lon="7.9660255269971385"><ele>315.0</ele><time>2026-04-19T10:17:31Z</time></trkpt><trkpt lat="44.868695896698995" lon="7.9659172178424695"><ele>315.0</ele><time>2026-04-19T10:17:32Z</time></trkpt><trkpt lat="44.86865382017266" lon="7.965798525369476"><ele>315.0</ele><time>2026-04-19T10:17:33Z</time></trkpt><trkpt lat="44.868611652270964" lon="7.965690558806948"><ele>315.0</ele><time>2026-04-19T10:17:34Z</time></trkpt><trkpt lat="44.86857370379088" lon="7.965582486443948"><ele>315.0</ele><time>2026-04-19T10:17:35Z</time></trkpt><trkpt lat="44.86853320037443" lon="7.965470731838124"><ele>315.0</ele><time>2026-04-19T10:17:36Z</time></trkpt><trkpt lat="44.86849420736777" lon="7.9653391279915144"><ele>315.5</ele><time>2026-04-19T10:17:37Z</time></trkpt><trkpt lat="44.86847973072838" lon="7.9652037614112645"><ele>316.0</ele><time>2026-04-19T10:17:38Z</time></trkpt><trkpt lat="44.868466269006824" lon="7.965045894983529"><ele>316.5</ele><time>2026-04-19T10:17:39Z</time></trkpt><trkpt lat="44.86844589404846" lon="7.964865950173824"><ele>317.0</ele><time>2026-04-19T10:17:40Z</time></trkpt><trkpt lat="44.86843491996744" lon="7.964703599885242"><ele>318.0</ele><time>2026-04-19T10:17:41Z</time></trkpt><trkpt lat="44.868426866594554" lon="7.964558084257182"><ele>319.0</ele><time>2026-04-19T10:17:42Z</time></trkpt><trkpt lat="44.868424411632574" lon="7.964419342194351"><ele>320.0</ele><time>2026-04-19T10:17:43Z</time></trkpt><trkpt lat="44.86841737123805" lon="7.964294863803704"><ele>321.0</ele><time>2026-04-19T10:17:44Z</time></trkpt><trkpt lat="44.86841283446469" lon="7.964180725849847"><ele>322.0</ele><time>2026-04-19T10:17:45Z</time></trkpt><trkpt lat="44.868403355896284" lon="7.964075129654057"><ele>323.0</ele><time>2026-04-19T10:17:46Z</time></trkpt><trkpt lat="44.868383870766735" lon="7.963970516486402"><ele>323.0</ele><time>2026-04-19T10:17:48Z</time></trkpt><trkpt lat="44.86832058656131" lon="7.963896842333698"><ele>323.0</ele><time>2026-04-19T10:17:49.999Z</time></trkpt><trkpt lat="44.86825542311808" lon="7.963840411940354"><ele>323.0</ele><time>2026-04-19T10:17:50.999Z</time></trkpt><trkpt lat="44.86818012174229" lon="7.963797203513749"><ele>323.0</ele><time>2026-04-19T10:17:51.999Z</time></trkpt><trkpt lat="44.86810678441352" lon="7.963766804099889"><ele>323.0</ele><time>2026-04-19T10:17:52.999Z</time></trkpt><trkpt lat="44.868030960172774" lon="7.963743700997254"><ele>323.0</ele><time>2026-04-19T10:17:53.999Z</time></trkpt><trkpt lat="44.86794747147524" lon="7.963735492868076"><ele>323.0</ele><time>2026-04-19T10:17:54.999Z</time></trkpt><trkpt lat="44.86785647002434" lon="7.963745922603033"><ele>323.0</ele><time>2026-04-19T10:17:55.999Z</time></trkpt><trkpt lat="44.867758036802954" lon="7.963779931318477"><ele>323.0</ele><time>2026-04-19T10:17:56.999Z</time></trkpt><trkpt lat="44.867660278712954" lon="7.963830414787375"><ele>323.0</ele><time>2026-04-19T10:17:57.999Z</time></trkpt><trkpt lat="44.867562574968" lon="7.96388151451586"><ele>323.0</ele><time>2026-04-19T10:17:58.999Z</time></trkpt><trkpt lat="44.86745864216191" lon="7.963926794860771"><ele>322.5</ele><time>2026-04-19T10:17:59.999Z</time></trkpt><trkpt lat="44.867339705705746" lon="7.963976093361925"><ele>322.0</ele><time>2026-04-19T10:18:00.999Z</time></trkpt><trkpt lat="44.86721486849271" lon="7.964024840201505"><ele>321.5</ele><time>2026-04-19T10:18:01.999Z</time></trkpt><trkpt lat="44.86709185527921" lon="7.964071177716724"><ele>321.0</ele><time>2026-04-19T10:18:02.999Z</time></trkpt><trkpt lat="44.86696747426662" lon="7.96412043742486"><ele>321.0</ele><time>2026-04-19T10:18:03.999Z</time></trkpt><trkpt lat="44.86684793621224" lon="7.964172133244887"><ele>321.0</ele><time>2026-04-19T10:18:04.999Z</time></trkpt><trkpt lat="44.86672863379338" lon="7.964219713883536"><ele>321.0</ele><time>2026-04-19T10:18:05.999Z</time></trkpt><trkpt lat="44.86660551829431" lon="7.964258271346013"><ele>321.0</ele><time>2026-04-19T10:18:06.999Z</time></trkpt><trkpt lat="44.86648092493399" lon="7.964289085810577"><ele>317.5</ele><time>2026-04-19T10:18:07.999Z</time></trkpt><trkpt lat="44.866356892205125" lon="7.964317331897985"><ele>314.0</ele><time>2026-04-19T10:18:08.999Z</time></trkpt><trkpt lat="44.86623260391719" lon="7.964351579779203"><ele>310.5</ele><time>2026-04-19T10:18:09.999Z</time></trkpt><trkpt lat="44.86610651306181" lon="7.964399799179974"><ele>307.0</ele><time>2026-04-19T10:18:10.999Z</time></trkpt><trkpt lat="44.86597305404127" lon="7.964477276803849"><ele>307.0</ele><time>2026-04-19T10:18:11.999Z</time></trkpt><trkpt lat="44.8658318032685" lon="7.964576367527285"><ele>307.0</ele><time>2026-04-19T10:18:12.999Z</time></trkpt><trkpt lat="44.86569533451773" lon="7.96466938268546"><ele>307.0</ele><time>2026-04-19T10:18:13.999Z</time></trkpt><trkpt lat="44.865561445975864" lon="7.964736616086877"><ele>307.0</ele><time>2026-04-19T10:18:14.999Z</time></trkpt><trkpt lat="44.86540788177633" lon="7.964782988289651"><ele>307.0</ele><time>2026-04-19T10:18:15.999Z</time></trkpt><trkpt lat="44.86524019164385" lon="7.964802951750261"><ele>307.0</ele><time>2026-04-19T10:18:16.999Z</time></trkpt><trkpt lat="44.865065175225645" lon="7.964812785803167"><ele>308.75</ele><time>2026-04-19T10:18:17.999Z</time></trkpt><trkpt lat="44.864902806279154" lon="7.964829151857462"><ele>310.5</ele><time>2026-04-19T10:18:18.999Z</time></trkpt><trkpt lat="44.864763457848255" lon="7.9648495863331785"><ele>312.25</ele><time>2026-04-19T10:18:19.999Z</time></trkpt><trkpt lat="44.86463608977053" lon="7.964861846623497"><ele>314.0</ele><time>2026-04-19T10:18:20.999Z</time></trkpt><trkpt lat="44.864518055577" lon="7.964853965994837"><ele>314.0</ele><time>2026-04-19T10:18:21.999Z</time></trkpt><trkpt lat="44.86440007763182" lon="7.96480878747313"><ele>314.0</ele><time>2026-04-19T10:18:22.999Z</time></trkpt><trkpt lat="44.864294758340975" lon="7.9647343635525205"><ele>314.0</ele><time>2026-04-19T10:18:23.999Z</time></trkpt><trkpt lat="44.86419269513937" lon="7.964637501741807"><ele>314.0</ele><time>2026-04-19T10:18:24.999Z</time></trkpt><trkpt lat="44.86409260341709" lon="7.964530686752445"><ele>313.8</ele><time>2026-04-19T10:18:25.999Z</time></trkpt><trkpt lat="44.864007380659466" lon="7.964440563020532"><ele>313.59999999999997</ele><time>2026-04-19T10:18:26.999Z</time></trkpt><trkpt lat="44.86395679407422" lon="7.964333217538249"><ele>313.4</ele><time>2026-04-19T10:18:28.999Z</time></trkpt><trkpt lat="44.863975557350315" lon="7.964432764408282"><ele>313.2</ele><time>2026-04-19T10:18:33Z</time></trkpt><trkpt lat="44.86405618338176" lon="7.964510763292677"><ele>313.0</ele><time>2026-04-19T10:18:34Z</time></trkpt><trkpt lat="44.86414994586012" lon="7.964595441054654"><ele>313.0</ele><time>2026-04-19T10:18:35Z</time></trkpt><trkpt lat="44.864245507679186" lon="7.964686164448092"><ele>313.0</ele><time>2026-04-19T10:18:36Z</time></trkpt><trkpt lat="44.86434733118469" lon="7.964763429426576"><ele>313.0</ele><time>2026-04-19T10:18:37Z</time></trkpt><trkpt lat="44.864447122695665" lon="7.964823915321157"><ele>313.0</ele><time>2026-04-19T10:18:38Z</time></trkpt><trkpt lat="44.86456100152439" lon="7.964868986879921"><ele>313.25</ele><time>2026-04-19T10:18:39Z</time></trkpt><trkpt lat="44.864689262088426" lon="7.964884459969697"><ele>313.5</ele><time>2026-04-19T10:18:40Z</time></trkpt><trkpt lat="44.86481917345827" lon="7.964870304824276"><ele>313.75</ele><time>2026-04-19T10:18:41Z</time></trkpt><trkpt lat="44.86494887409048" lon="7.964837483667879"><ele>314.0</ele><time>2026-04-19T10:18:42Z</time></trkpt><trkpt lat="44.865068700615936" lon="7.964808092924484"><ele>312.59999999999997</ele><time>2026-04-19T10:18:43Z</time></trkpt><trkpt lat="44.8651835361081" lon="7.96478777405078"><ele>311.2</ele><time>2026-04-19T10:18:44Z</time></trkpt><trkpt lat="44.86529534836399" lon="7.964776060164561"><ele>309.79999999999995</ele><time>2026-04-19T10:18:45Z</time></trkpt><trkpt lat="44.86540386242543" lon="7.964761583417657"><ele>308.4</ele><time>2026-04-19T10:18:46Z</time></trkpt><trkpt lat="44.86550752784278" lon="7.96473748027645"><ele>307.0</ele><time>2026-04-19T10:18:47Z</time></trkpt><trkpt lat="44.86560597669019" lon="7.964697519487984"><ele>307.0</ele><time>2026-04-19T10:18:48Z</time></trkpt><trkpt lat="44.86569693885319" lon="7.964659580642902"><ele>307.0</ele><time>2026-04-19T10:18:49Z</time></trkpt><trkpt lat="44.86578258829315" lon="7.964663187794121"><ele>307.0</ele><time>2026-04-19T10:18:51Z</time></trkpt><trkpt lat="44.86577506155335" lon="7.964807398405039"><ele>307.0</ele><time>2026-04-19T10:18:53Z</time></trkpt><trkpt lat="44.865774816983865" lon="7.964918824236999"><ele>307.0</ele><time>2026-04-19T10:18:54Z</time></trkpt><trkpt lat="44.86577957260015" lon="7.965042702293162"><ele>306.0</ele><time>2026-04-19T10:18:55Z</time></trkpt><trkpt lat="44.86577685544343" lon="7.965155415081393"><ele>305.0</ele><time>2026-04-19T10:18:56Z</time></trkpt><trkpt lat="44.86576619102515" lon="7.965256173198561"><ele>304.0</ele><time>2026-04-19T10:18:57Z</time></trkpt><trkpt lat="44.865749325327414" lon="7.9653544553699795"><ele>303.0</ele><time>2026-04-19T10:18:58Z</time></trkpt><trkpt lat="44.86572074416362" lon="7.965465776186514"><ele>302.0</ele><time>2026-04-19T10:18:59Z</time></trkpt><trkpt lat="44.865684607266125" lon="7.965581955054118"><ele>301.0</ele><time>2026-04-19T10:19:00Z</time></trkpt><trkpt lat="44.8656452739311" lon="7.965690234307157"><ele>301.0</ele><time>2026-04-19T10:19:01Z</time></trkpt><trkpt lat="44.865602756847665" lon="7.96580090751725"><ele>301.0</ele><time>2026-04-19T10:19:02Z</time></trkpt><trkpt lat="44.865569683382255" lon="7.965915670959299"><ele>301.0</ele><time>2026-04-19T10:19:03Z</time></trkpt><trkpt lat="44.86555346765431" lon="7.9660424403213055"><ele>301.0</ele><time>2026-04-19T10:19:04Z</time></trkpt><trkpt lat="44.86554024514181" lon="7.966174188183835"><ele>301.0</ele><time>2026-04-19T10:19:05Z</time></trkpt><trkpt lat="44.865534192275575" lon="7.9662854377973815"><ele>301.0</ele><time>2026-04-19T10:19:06Z</time></trkpt><trkpt lat="44.86551956427313" lon="7.966463805988136"><ele>299.2</ele><time>2026-04-19T10:19:08Z</time></trkpt><trkpt lat="44.865472030377916" lon="7.9665906887234215"><ele>297.40000000000003</ele><time>2026-04-19T10:19:10Z</time></trkpt><trkpt lat="44.86554035204824" lon="7.96671515881907"><ele>295.6</ele><time>2026-04-19T10:19:12Z</time></trkpt><trkpt lat="44.86564529516115" lon="7.966815854781365"><ele>293.8</ele><time>2026-04-19T10:19:14Z</time></trkpt><trkpt lat="44.865689196341194" lon="7.966947843673193"><ele>292.0</ele><time>2026-04-19T10:19:16Z</time></trkpt><trkpt lat="44.865673832053574" lon="7.967036520425638"><ele>290.57142857142856</ele><time>2026-04-19T10:19:17Z</time></trkpt><trkpt lat="44.86565649162377" lon="7.967130118379812"><ele>289.14285714285717</ele><time>2026-04-19T10:19:18Z</time></trkpt><trkpt lat="44.865627832491" lon="7.967217246997222"><ele>287.7142857142857</ele><time>2026-04-19T10:19:19Z</time></trkpt><trkpt lat="44.86556404181126" lon="7.967293655255721"><ele>286.2857142857143</ele><time>2026-04-19T10:19:20Z</time></trkpt><trkpt lat="44.865521032789516" lon="7.967360897175399"><ele>284.85714285714283</ele><time>2026-04-19T10:19:21Z</time></trkpt><trkpt lat="44.86546881184953" lon="7.967413379306409"><ele>283.42857142857144</ele><time>2026-04-19T10:19:22Z</time></trkpt><trkpt lat="44.86540901232327" lon="7.967468383183177"><ele>282.0</ele><time>2026-04-19T10:19:23Z</time></trkpt><trkpt lat="44.865349339953646" lon="7.967544002837521"><ele>279.3333333333333</ele><time>2026-04-19T10:19:24Z</time></trkpt><trkpt lat="44.86531079239752" lon="7.96762839034047"><ele>276.6666666666667</ele><time>2026-04-19T10:19:25Z</time></trkpt><trkpt lat="44.86525520043511" lon="7.967706020664089"><ele>274.0</ele><time>2026-04-19T10:19:26Z</time></trkpt><trkpt lat="44.86515991090125" lon="7.967807642474342"><ele>271.33333333333337</ele><time>2026-04-19T10:19:28Z</time></trkpt><trkpt lat="44.865141153002405" lon="7.967900486214148"><ele>268.6666666666667</ele><time>2026-04-19T10:19:29Z</time></trkpt><trkpt lat="44.865179945687494" lon="7.967992981451819"><ele>266.0</ele><time>2026-04-19T10:19:30Z</time></trkpt><trkpt lat="44.86524268275824" lon="7.9680302333399995"><ele>266.0</ele><time>2026-04-19T10:19:31Z</time></trkpt><trkpt lat="44.865331531003264" lon="7.967960440319491"><ele>266.0</ele><time>2026-04-19T10:19:32Z</time></trkpt><trkpt lat="44.865394000687914" lon="7.967880153010424"><ele>266.0</ele><time>2026-04-19T10:19:33Z</time></trkpt><trkpt lat="44.86545138994625" lon="7.967812939290029"><ele>266.0</ele><time>2026-04-19T10:19:34Z</time></trkpt><trkpt lat="44.86555834251666" lon="7.967723476227001"><ele>266.0</ele><time>2026-04-19T10:19:36Z</time></trkpt><trkpt lat="44.8656282609339" lon="7.967683602889863"><ele>266.0</ele><time>2026-04-19T10:19:37Z</time></trkpt><trkpt lat="44.86570396854647" lon="7.967659336504883"><ele>266.0</ele><time>2026-04-19T10:19:38Z</time></trkpt><trkpt lat="44.865779399500205" lon="7.9676042104310465"><ele>266.0</ele><time>2026-04-19T10:19:39Z</time></trkpt><trkpt lat="44.865845908884474" lon="7.967551965252923"><ele>266.0</ele><time>2026-04-19T10:19:40Z</time></trkpt><trkpt lat="44.86591580122377" lon="7.967520052100351"><ele>266.0</ele><time>2026-04-19T10:19:41Z</time></trkpt><trkpt lat="44.865988741017404" lon="7.967505467621629"><ele>266.0</ele><time>2026-04-19T10:19:42Z</time></trkpt><trkpt lat="44.86605234981187" lon="7.967471486418883"><ele>267.33333333333337</ele><time>2026-04-19T10:19:43Z</time></trkpt><trkpt lat="44.866093504792495" lon="7.9673828359889"><ele>268.6666666666667</ele><time>2026-04-19T10:19:44Z</time></trkpt><trkpt lat="44.866117842129455" lon="7.96729131432146"><ele>270.0</ele><time>2026-04-19T10:19:45Z</time></trkpt><trkpt lat="44.866140486488355" lon="7.96720473201265"><ele>271.3333333333333</ele><time>2026-04-19T10:19:46Z</time></trkpt><trkpt lat="44.86624018129269" lon="7.967169676378187"><ele>272.66666666666663</ele><time>2026-04-19T10:19:48Z</time></trkpt><trkpt lat="44.86626469700678" lon="7.967320698709681"><ele>274.0</ele><time>2026-04-19T10:19:50Z</time></trkpt><trkpt lat="44.86620732459091" lon="7.967423030252133"><ele>273.3333333333333</ele><time>2026-04-19T10:19:51Z</time></trkpt><trkpt lat="44.86611988009152" lon="7.967542587520147"><ele>272.66666666666663</ele><time>2026-04-19T10:19:51.999Z</time></trkpt><trkpt lat="44.866025165928804" lon="7.9676267272563"><ele>272.0</ele><time>2026-04-19T10:19:52.999Z</time></trkpt><trkpt lat="44.865971216246834" lon="7.967705610057529"><ele>271.3333333333333</ele><time>2026-04-19T10:19:53.999Z</time></trkpt><trkpt lat="44.86594636621286" lon="7.967798272639457"><ele>270.6666666666667</ele><time>2026-04-19T10:19:54.999Z</time></trkpt><trkpt lat="44.86592376875731" lon="7.96788380998725"><ele>270.0</ele><time>2026-04-19T10:19:55.999Z</time></trkpt><trkpt lat="44.86583595139506" lon="7.967991832736383"><ele>269.2</ele><time>2026-04-19T10:19:57.999Z</time></trkpt><trkpt lat="44.86574169050521" lon="7.968035827373897"><ele>268.4</ele><time>2026-04-19T10:19:58.999Z</time></trkpt><trkpt lat="44.86564951619795" lon="7.968102547927501"><ele>267.6</ele><time>2026-04-19T10:19:59.999Z</time></trkpt><trkpt lat="44.865575577955276" lon="7.968175485689371"><ele>266.8</ele><time>2026-04-19T10:20:00.999Z</time></trkpt><trkpt lat="44.86552329149875" lon="7.9682681773544335"><ele>266.0</ele><time>2026-04-19T10:20:01.999Z</time></trkpt><trkpt lat="44.86548454978831" lon="7.968363658446332"><ele>264.6666666666667</ele><time>2026-04-19T10:20:02.999Z</time></trkpt><trkpt lat="44.8654595295976" lon="7.968462764178504"><ele>263.33333333333337</ele><time>2026-04-19T10:20:03.999Z</time></trkpt><trkpt lat="44.86544309699095" lon="7.968562903946764"><ele>262.0</ele><time>2026-04-19T10:20:04.999Z</time></trkpt><trkpt lat="44.865399951438256" lon="7.9686361703610205"><ele>260.6666666666667</ele><time>2026-04-19T10:20:05.999Z</time></trkpt><trkpt lat="44.865341528268324" lon="7.968695001656674"><ele>259.3333333333333</ele><time>2026-04-19T10:20:06.999Z</time></trkpt><trkpt lat="44.865257799977755" lon="7.968752537252943"><ele>258.0</ele><time>2026-04-19T10:20:07.999Z</time></trkpt><trkpt lat="44.86517313586535" lon="7.968788376396427"><ele>257.6666666666667</ele><time>2026-04-19T10:20:08.999Z</time></trkpt><trkpt lat="44.86510264128052" lon="7.96881688569092"><ele>257.3333333333333</ele><time>2026-04-19T10:20:09.999Z</time></trkpt><trkpt lat="44.86505572447111" lon="7.968888627962893"><ele>257.0</ele><time>2026-04-19T10:20:10.999Z</time></trkpt><trkpt lat="44.86502205306761" lon="7.968982829344107"><ele>256.66666666666663</ele><time>2026-04-19T10:20:11.999Z</time></trkpt><trkpt lat="44.86494065934918" lon="7.969080476813847"><ele>256.3333333333333</ele><time>2026-04-19T10:20:13.999Z</time></trkpt><trkpt lat="44.86486909061073" lon="7.969054007428341"><ele>256.0</ele><time>2026-04-19T10:20:14.999Z</time></trkpt><trkpt lat="44.864788949400456" lon="7.96902082689999"><ele>256.0</ele><time>2026-04-19T10:20:15.999Z</time></trkpt><trkpt lat="44.86472356103936" lon="7.968976854611177"><ele>255.99999999999997</ele><time>2026-04-19T10:20:16.999Z</time></trkpt><trkpt lat="44.8646539485762" lon="7.968924990885511"><ele>256.0</ele><time>2026-04-19T10:20:17.999Z</time></trkpt><trkpt lat="44.86458621693363" lon="7.968876171645738"><ele>256.0</ele><time>2026-04-19T10:20:18.999Z</time></trkpt><trkpt lat="44.864509258410436" lon="7.968842428480422"><ele>255.99999999999997</ele><time>2026-04-19T10:20:19.999Z</time></trkpt><trkpt lat="44.8644427762985" lon="7.968832062605236"><ele>256.0</ele><time>2026-04-19T10:20:20.999Z</time></trkpt><trkpt lat="44.86438273896349" lon="7.968869861560508"><ele>256.0</ele><time>2026-04-19T10:20:21.999Z</time></trkpt><trkpt lat="44.864321958745364" lon="7.968950329078135"><ele>254.8</ele><time>2026-04-19T10:20:22.999Z</time></trkpt><trkpt lat="44.86426336614032" lon="7.969037160617847"><ele>253.60000000000002</ele><time>2026-04-19T10:20:23.999Z</time></trkpt><trkpt lat="44.86421141288907" lon="7.969142968449706"><ele>252.4</ele><time>2026-04-19T10:20:24.999Z</time></trkpt><trkpt lat="44.86415297374476" lon="7.969296281806354"><ele>251.2</ele><time>2026-04-19T10:20:25.999Z</time></trkpt><trkpt lat="44.86409458104012" lon="7.969447233603146"><ele>250.0</ele><time>2026-04-19T10:20:26.999Z</time></trkpt><trkpt lat="44.86404229842911" lon="7.969571912835107"><ele>249.6</ele><time>2026-04-19T10:20:27.999Z</time></trkpt><trkpt lat="44.86397138556932" lon="7.969712642089814"><ele>249.2</ele><time>2026-04-19T10:20:28.999Z</time></trkpt><trkpt lat="44.86389589521988" lon="7.969847486986872"><ele>248.8</ele><time>2026-04-19T10:20:29.999Z</time></trkpt><trkpt lat="44.86384762013429" lon="7.969944693246347"><ele>248.4</ele><time>2026-04-19T10:20:30.999Z</time></trkpt><trkpt lat="44.86378204220988" lon="7.969936883758776"><ele>248.0</ele><time>2026-04-19T10:20:35.999Z</time></trkpt><trkpt lat="44.86374802905373" lon="7.969860936196853"><ele>248.0</ele><time>2026-04-19T10:20:36.999Z</time></trkpt><trkpt lat="44.863685119806114" lon="7.969708473279563"><ele>248.0</ele><time>2026-04-19T10:20:39Z</time></trkpt><trkpt lat="44.86364934325504" lon="7.969631524143686"><ele>248.0</ele><time>2026-04-19T10:20:40Z</time></trkpt><trkpt lat="44.86360840205283" lon="7.969556250697742"><ele>248.0</ele><time>2026-04-19T10:20:41Z</time></trkpt><trkpt lat="44.86353701930242" lon="7.969420429439775"><ele>248.0</ele><time>2026-04-19T10:20:43Z</time></trkpt><trkpt lat="44.86347278868718" lon="7.969306220663184"><ele>248.0</ele><time>2026-04-19T10:20:45Z</time></trkpt><trkpt lat="44.86342826274175" lon="7.969240322456844"><ele>248.0</ele><time>2026-04-19T10:20:47Z</time></trkpt><trkpt lat="44.86333573382019" lon="7.969099417871956"><ele>248.0</ele><time>2026-04-19T10:21:09Z</time></trkpt><trkpt lat="44.863250280736445" lon="7.968954495124779"><ele>248.0</ele><time>2026-04-19T10:21:10Z</time></trkpt><trkpt lat="44.86317142790849" lon="7.96883995326995"><ele>248.0</ele><time>2026-04-19T10:21:11Z</time></trkpt><trkpt lat="44.86310571053373" lon="7.968757082952863"><ele>248.0</ele><time>2026-04-19T10:21:12Z</time></trkpt><trkpt lat="44.863023551903865" lon="7.9686904801364475"><ele>248.0</ele><time>2026-04-19T10:21:13Z</time></trkpt><trkpt lat="44.86289538132732" lon="7.968609983849189"><ele>248.0</ele><time>2026-04-19T10:21:14Z</time></trkpt><trkpt lat="44.8627502473392" lon="7.968519953206987"><ele>248.0</ele><time>2026-04-19T10:21:15Z</time></trkpt><trkpt lat="44.86257955482108" lon="7.968412195042373"><ele>249.0</ele><time>2026-04-19T10:21:16Z</time></trkpt><trkpt lat="44.86239621032037" lon="7.968283117540463"><ele>250.0</ele><time>2026-04-19T10:21:17Z</time></trkpt><trkpt lat="44.862215461216145" lon="7.968145216449812"><ele>251.0</ele><time>2026-04-19T10:21:18Z</time></trkpt><trkpt lat="44.86207348106838" lon="7.968036620571181"><ele>251.0</ele><time>2026-04-19T10:21:19Z</time></trkpt><trkpt lat="44.861950484438864" lon="7.967942109011741"><ele>251.0</ele><time>2026-04-19T10:21:20Z</time></trkpt><trkpt lat="44.861828678484315" lon="7.96785500735851"><ele>251.0</ele><time>2026-04-19T10:21:21Z</time></trkpt><trkpt lat="44.86172068024043" lon="7.967768334491501"><ele>251.0</ele><time>2026-04-19T10:21:22Z</time></trkpt><trkpt lat="44.86162907452266" lon="7.967703137004031"><ele>251.25</ele><time>2026-04-19T10:21:23Z</time></trkpt><trkpt lat="44.86152119245579" lon="7.9676371202111875"><ele>251.5</ele><time>2026-04-19T10:21:24Z</time></trkpt><trkpt lat="44.86141456134354" lon="7.967582326346346"><ele>251.75</ele><time>2026-04-19T10:21:25Z</time></trkpt><trkpt lat="44.861334369735786" lon="7.96749936594622"><ele>252.0</ele><time>2026-04-19T10:21:26Z</time></trkpt><trkpt lat="44.86125389630118" lon="7.967366897718609"><ele>252.0</ele><time>2026-04-19T10:21:27Z</time></trkpt><trkpt lat="44.86119648210591" lon="7.967204129044945"><ele>252.0</ele><time>2026-04-19T10:21:28Z</time></trkpt><trkpt lat="44.86112779304297" lon="7.967049544684126"><ele>252.0</ele><time>2026-04-19T10:21:29Z</time></trkpt><trkpt lat="44.86106260139119" lon="7.96691068700249"><ele>252.0</ele><time>2026-04-19T10:21:30Z</time></trkpt><trkpt lat="44.86098796432481" lon="7.966782358197446"><ele>252.5</ele><time>2026-04-19T10:21:31Z</time></trkpt><trkpt lat="44.860910033297245" lon="7.966657838198607"><ele>253.0</ele><time>2026-04-19T10:21:32Z</time></trkpt><trkpt lat="44.86084774568671" lon="7.966548191751739"><ele>253.5</ele><time>2026-04-19T10:21:33Z</time></trkpt><trkpt lat="44.8607682899619" lon="7.966450562792341"><ele>254.0</ele><time>2026-04-19T10:21:34Z</time></trkpt><trkpt lat="44.860657770313566" lon="7.966330196054372"><ele>254.0</ele><time>2026-04-19T10:21:35Z</time></trkpt><trkpt lat="44.860579925816566" lon="7.966211510437052"><ele>253.99999999999997</ele><time>2026-04-19T10:21:36Z</time></trkpt><trkpt lat="44.86050971574482" lon="7.966113913202329"><ele>253.99999999999997</ele><time>2026-04-19T10:21:37Z</time></trkpt><trkpt lat="44.860418917504276" lon="7.966039882675389"><ele>254.0</ele><time>2026-04-19T10:21:38Z</time></trkpt><trkpt lat="44.86030434287797" lon="7.965972671197389"><ele>254.0</ele><time>2026-04-19T10:21:39Z</time></trkpt><trkpt lat="44.8601619131608" lon="7.9658912145570095"><ele>254.5</ele><time>2026-04-19T10:21:40Z</time></trkpt><trkpt lat="44.8600363044517" lon="7.965827431061821"><ele>255.0</ele><time>2026-04-19T10:21:41Z</time></trkpt><trkpt lat="44.85993207151608" lon="7.965788916798857"><ele>255.5</ele><time>2026-04-19T10:21:42Z</time></trkpt><trkpt lat="44.859814202690636" lon="7.965763159785392"><ele>256.0</ele><time>2026-04-19T10:21:43Z</time></trkpt><trkpt lat="44.85969102390053" lon="7.965739955874404"><ele>256.0</ele><time>2026-04-19T10:21:44Z</time></trkpt><trkpt lat="44.85957543923681" lon="7.9657306151488125"><ele>256.0</ele><time>2026-04-19T10:21:45Z</time></trkpt><trkpt lat="44.859477123230114" lon="7.965745347832256"><ele>256.0</ele><time>2026-04-19T10:21:46Z</time></trkpt><trkpt lat="44.859365914248855" lon="7.965766314822789"><ele>256.0</ele><time>2026-04-19T10:21:47Z</time></trkpt><trkpt lat="44.85925926309047" lon="7.965770428599256"><ele>256.0</ele><time>2026-04-19T10:21:48Z</time></trkpt><trkpt lat="44.85912653284274" lon="7.9657572256609"><ele>256.40000000000003</ele><time>2026-04-19T10:21:49Z</time></trkpt><trkpt lat="44.858985728365475" lon="7.965735577360867"><ele>256.8</ele><time>2026-04-19T10:21:50Z</time></trkpt><trkpt lat="44.858883496891934" lon="7.965708249951282"><ele>257.20000000000005</ele><time>2026-04-19T10:21:51Z</time></trkpt><trkpt lat="44.85878335480799" lon="7.965697157627526"><ele>257.6</ele><time>2026-04-19T10:21:52Z</time></trkpt><trkpt lat="44.858691450676226" lon="7.965642151011512"><ele>258.0</ele><time>2026-04-19T10:21:53Z</time></trkpt><trkpt lat="44.85857849462082" lon="7.965558753888349"><ele>258.0</ele><time>2026-04-19T10:21:54Z</time></trkpt><trkpt lat="44.85846854568134" lon="7.965487580002953"><ele>258.0</ele><time>2026-04-19T10:21:55Z</time></trkpt><trkpt lat="44.85836931566833" lon="7.9654013108236335"><ele>258.0</ele><time>2026-04-19T10:21:56Z</time></trkpt><trkpt lat="44.858266687756796" lon="7.965291216741855"><ele>258.0</ele><time>2026-04-19T10:21:57Z</time></trkpt><trkpt lat="44.85817741656001" lon="7.96517975753468"><ele>258.75</ele><time>2026-04-19T10:21:58Z</time></trkpt><trkpt lat="44.85809603847895" lon="7.965093289253524"><ele>259.5</ele><time>2026-04-19T10:21:59Z</time></trkpt><trkpt lat="44.8579807886435" lon="7.9650531162522125"><ele>260.25</ele><time>2026-04-19T10:21:59.999Z</time></trkpt><trkpt lat="44.857841003080026" lon="7.965005669252693"><ele>261.0</ele><time>2026-04-19T10:22:00.999Z</time></trkpt><trkpt lat="44.85771688072555" lon="7.964946009338086"><ele>260.6</ele><time>2026-04-19T10:22:01.999Z</time></trkpt><trkpt lat="44.85760077120803" lon="7.964904173837769"><ele>260.20000000000005</ele><time>2026-04-19T10:22:02.999Z</time></trkpt><trkpt lat="44.85749587411762" lon="7.9648652107645015"><ele>259.79999999999995</ele><time>2026-04-19T10:22:03.999Z</time></trkpt><trkpt lat="44.857422204683694" lon="7.9648312894309825"><ele>259.4</ele><time>2026-04-19T10:22:04.999Z</time></trkpt><trkpt lat="44.857357807762625" lon="7.964807857300321"><ele>259.0</ele><time>2026-04-19T10:22:05.999Z</time></trkpt><trkpt lat="44.85728445209792" lon="7.964769091544244"><ele>259.0</ele><time>2026-04-19T10:22:06.999Z</time></trkpt><trkpt lat="44.857193803552185" lon="7.964704872633608"><ele>259.0</ele><time>2026-04-19T10:22:07.999Z</time></trkpt><trkpt lat="44.857102228630424" lon="7.964629255101523"><ele>259.0</ele><time>2026-04-19T10:22:08.999Z</time></trkpt><trkpt lat="44.85702041919111" lon="7.964566983060457"><ele>259.0</ele><time>2026-04-19T10:22:09.999Z</time></trkpt><trkpt lat="44.85693082427366" lon="7.964508196436491"><ele>259.0</ele><time>2026-04-19T10:22:10.999Z</time></trkpt><trkpt lat="44.85682896843341" lon="7.964441250596662"><ele>260.4</ele><time>2026-04-19T10:22:11.999Z</time></trkpt><trkpt lat="44.85672093638735" lon="7.964368785520964"><ele>261.79999999999995</ele><time>2026-04-19T10:22:12.999Z</time></trkpt><trkpt lat="44.85662855129414" lon="7.964309230037905"><ele>263.20000000000005</ele><time>2026-04-19T10:22:13.999Z</time></trkpt><trkpt lat="44.85654604241567" lon="7.964283213020663"><ele>264.6</ele><time>2026-04-19T10:22:14.999Z</time></trkpt><trkpt lat="44.85648242152766" lon="7.964274724887707"><ele>266.0</ele><time>2026-04-19T10:22:15.999Z</time></trkpt><trkpt lat="44.85641676165482" lon="7.9642035377589"><ele>264.0</ele><time>2026-04-19T10:22:17.999Z</time></trkpt><trkpt lat="44.85634399103744" lon="7.964109416521367"><ele>262.0</ele><time>2026-04-19T10:22:19.999Z</time></trkpt><trkpt lat="44.85629728781633" lon="7.964025283954883"><ele>260.0</ele><time>2026-04-19T10:22:20.999Z</time></trkpt><trkpt lat="44.856243328117834" lon="7.963944553197538"><ele>258.0</ele><time>2026-04-19T10:22:21.999Z</time></trkpt><trkpt lat="44.85617280284545" lon="7.96384269900046"><ele>256.0</ele><time>2026-04-19T10:22:23.999Z</time></trkpt><trkpt lat="44.856075136249295" lon="7.963664764992633"><ele>256.0</ele><time>2026-04-19T10:22:25.999Z</time></trkpt><trkpt lat="44.85600441472961" lon="7.9635307741793895"><ele>256.0</ele><time>2026-04-19T10:22:26.999Z</time></trkpt><trkpt lat="44.85594396843643" lon="7.963443423120089"><ele>256.0</ele><time>2026-04-19T10:22:27.999Z</time></trkpt><trkpt lat="44.85588002787556" lon="7.963355547701316"><ele>256.0</ele><time>2026-04-19T10:22:28.999Z</time></trkpt><trkpt lat="44.85583076977051" lon="7.9632327976047"><ele>256.0</ele><time>2026-04-19T10:22:29.999Z</time></trkpt><trkpt lat="44.855790504195866" lon="7.963130096693994"><ele>257.16666666666663</ele><time>2026-04-19T10:22:30.999Z</time></trkpt><trkpt lat="44.85575033255227" lon="7.9630431140164015"><ele>258.3333333333333</ele><time>2026-04-19T10:22:31.999Z</time></trkpt><trkpt lat="44.855699487598386" lon="7.962956429827644"><ele>259.5</ele><time>2026-04-19T10:22:32.999Z</time></trkpt><trkpt lat="44.855639964761124" lon="7.962899932098248"><ele>260.6666666666667</ele><time>2026-04-19T10:22:33.999Z</time></trkpt><trkpt lat="44.855573624666114" lon="7.962837339121846"><ele>261.83333333333337</ele><time>2026-04-19T10:22:34.999Z</time></trkpt><trkpt lat="44.8554733994804" lon="7.962785439829264"><ele>263.0</ele><time>2026-04-19T10:22:35.999Z</time></trkpt><trkpt lat="44.85539890465566" lon="7.9627395296517305"><ele>263.0</ele><time>2026-04-19T10:22:36.999Z</time></trkpt><trkpt lat="44.85530661796409" lon="7.962685658062252"><ele>263.0</ele><time>2026-04-19T10:22:38.999Z</time></trkpt><trkpt lat="44.85521506542905" lon="7.962650692504748"><ele>263.0</ele><time>2026-04-19T10:22:40.999Z</time></trkpt><trkpt lat="44.855134911908436" lon="7.962594234574102"><ele>263.0</ele><time>2026-04-19T10:22:42.999Z</time></trkpt><trkpt lat="44.85505575252224" lon="7.962558866366097"><ele>263.0</ele><time>2026-04-19T10:22:44Z</time></trkpt><trkpt lat="44.854989503698924" lon="7.962528062646408"><ele>263.0</ele><time>2026-04-19T10:22:45Z</time></trkpt><trkpt lat="44.854879180837756" lon="7.96247538887042"><ele>263.4</ele><time>2026-04-19T10:22:47Z</time></trkpt><trkpt lat="44.85477251624097" lon="7.962413230439813"><ele>263.8</ele><time>2026-04-19T10:22:49Z</time></trkpt><trkpt lat="44.85469201119497" lon="7.962369987233051"><ele>264.2</ele><time>2026-04-19T10:22:51Z</time></trkpt><trkpt lat="44.85460793055556" lon="7.962293352367227"><ele>264.6</ele><time>2026-04-19T10:22:54Z</time></trkpt><trkpt lat="44.85451831032002" lon="7.962186729540259"><ele>265.0</ele><time>2026-04-19T10:22:56Z</time></trkpt><trkpt lat="44.85446681453783" lon="7.962128474655918"><ele>265.0</ele><time>2026-04-19T10:22:57Z</time></trkpt><trkpt lat="44.85438375540939" lon="7.96204475344392"><ele>265.0</ele><time>2026-04-19T10:22:59Z</time></trkpt><trkpt lat="44.85432245775909" lon="7.961980582435649"><ele>265.0</ele><time>2026-04-19T10:23:28Z</time></trkpt><trkpt lat="44.85423935193422" lon="7.961890380560996"><ele>265.0</ele><time>2026-04-19T10:23:30Z</time></trkpt><trkpt lat="44.85417162423094" lon="7.961820769237894"><ele>265.0</ele><time>2026-04-19T10:23:32Z</time></trkpt><trkpt lat="44.85409831601153" lon="7.961782064766922"><ele>265.0</ele><time>2026-04-19T10:23:35Z</time></trkpt><trkpt lat="44.854016505200015" lon="7.961768968865946"><ele>264.8</ele><time>2026-04-19T10:23:37Z</time></trkpt><trkpt lat="44.85387387376062" lon="7.961739984286965"><ele>264.6</ele><time>2026-04-19T10:23:39Z</time></trkpt><trkpt lat="44.853792190842746" lon="7.961756875286835"><ele>264.4</ele><time>2026-04-19T10:23:40Z</time></trkpt><trkpt lat="44.853722588616876" lon="7.961771531451007"><ele>264.2</ele><time>2026-04-19T10:23:42Z</time></trkpt><trkpt lat="44.8536279431183" lon="7.961726165493811"><ele>264.0</ele><time>2026-04-19T10:23:45Z</time></trkpt><trkpt lat="44.85356113815445" lon="7.961738078567848"><ele>264.0</ele><time>2026-04-19T10:23:47Z</time></trkpt><trkpt lat="44.85345638815909" lon="7.961748726102273"><ele>264.0</ele><time>2026-04-19T10:23:50Z</time></trkpt><trkpt lat="44.85334568896632" lon="7.961734290143124"><ele>264.0</ele><time>2026-04-19T10:23:52Z</time></trkpt><trkpt lat="44.8532214131571" lon="7.961712313854131"><ele>264.0</ele><time>2026-04-19T10:23:54Z</time></trkpt><trkpt lat="44.85315390505919" lon="7.96170750866632"><ele>264.0</ele><time>2026-04-19T10:23:55Z</time></trkpt><trkpt lat="44.853061531088485" lon="7.96165756927107"><ele>263.8</ele><time>2026-04-19T10:23:57Z</time></trkpt><trkpt lat="44.852986989217925" lon="7.961574386883301"><ele>263.59999999999997</ele><time>2026-04-19T10:23:59Z</time></trkpt><trkpt lat="44.8528848045729" lon="7.961509608785865"><ele>263.4</ele><time>2026-04-19T10:24:01Z</time></trkpt><trkpt lat="44.852800845045834" lon="7.961418359505228"><ele>263.2</ele><time>2026-04-19T10:24:03Z</time></trkpt><trkpt lat="44.85270572489809" lon="7.96135047894915"><ele>263.0</ele><time>2026-04-19T10:24:04.999Z</time></trkpt><trkpt lat="44.85262040291333" lon="7.961297549451834"><ele>264.0</ele><time>2026-04-19T10:24:06.999Z</time></trkpt><trkpt lat="44.852560882004695" lon="7.961264698612747"><ele>265.0</ele><time>2026-04-19T10:24:12.999Z</time></trkpt><trkpt lat="44.85248348166272" lon="7.961216541465396"><ele>266.0</ele><time>2026-04-19T10:24:14.999Z</time></trkpt><trkpt lat="44.85234919699445" lon="7.961124346199791"><ele>267.0</ele><time>2026-04-19T10:24:16.999Z</time></trkpt><trkpt lat="44.85225756796948" lon="7.961051451519492"><ele>268.0</ele><time>2026-04-19T10:24:17.999Z</time></trkpt><trkpt lat="44.85215652431209" lon="7.960974403590038"><ele>268.0</ele><time>2026-04-19T10:24:18.999Z</time></trkpt><trkpt lat="44.85206178666289" lon="7.960902149268853"><ele>268.0</ele><time>2026-04-19T10:24:19.999Z</time></trkpt><trkpt lat="44.85196869737625" lon="7.960853215772555"><ele>268.0</ele><time>2026-04-19T10:24:20.999Z</time></trkpt><trkpt lat="44.85187100770391" lon="7.960797487299026"><ele>268.0</ele><time>2026-04-19T10:24:21.999Z</time></trkpt><trkpt lat="44.85178178519149" lon="7.9607332244212285"><ele>268.0</ele><time>2026-04-19T10:24:22.999Z</time></trkpt><trkpt lat="44.85170884765127" lon="7.96069590667811"><ele>267.66666666666663</ele><time>2026-04-19T10:24:23.999Z</time></trkpt><trkpt lat="44.85160610698213" lon="7.960630809964498"><ele>267.3333333333333</ele><time>2026-04-19T10:24:25.999Z</time></trkpt><trkpt lat="44.85155592376991" lon="7.960574456316311"><ele>267.0</ele><time>2026-04-19T10:24:26.999Z</time></trkpt><trkpt lat="44.85150655283424" lon="7.960512327081456"><ele>266.6666666666667</ele><time>2026-04-19T10:24:27.999Z</time></trkpt><trkpt lat="44.851414961404366" lon="7.9604227261738965"><ele>266.33333333333337</ele><time>2026-04-19T10:24:29.999Z</time></trkpt><trkpt lat="44.8513512806721" lon="7.960366093132301"><ele>266.0</ele><time>2026-04-19T10:24:30.999Z</time></trkpt><trkpt lat="44.851269571113015" lon="7.960306229658341"><ele>266.0</ele><time>2026-04-19T10:24:31.999Z</time></trkpt><trkpt lat="44.85119901287779" lon="7.9602339166900125"><ele>266.0</ele><time>2026-04-19T10:24:32.999Z</time></trkpt><trkpt lat="44.8511405447689" lon="7.9601658429050595"><ele>266.0</ele><time>2026-04-19T10:24:33.999Z</time></trkpt><trkpt lat="44.851085990767274" lon="7.960101099270115"><ele>266.0</ele><time>2026-04-19T10:24:34.999Z</time></trkpt><trkpt lat="44.85102956707659" lon="7.960015588615362"><ele>266.0</ele><time>2026-04-19T10:24:35.999Z</time></trkpt><trkpt lat="44.85093331351647" lon="7.959919572244075"><ele>266.0</ele><time>2026-04-19T10:24:37.999Z</time></trkpt><trkpt lat="44.85087779719672" lon="7.95986171335095"><ele>267.2</ele><time>2026-04-19T10:24:38.999Z</time></trkpt><trkpt lat="44.85082791890304" lon="7.959792165076026"><ele>268.40000000000003</ele><time>2026-04-19T10:24:39.999Z</time></trkpt><trkpt lat="44.8507130725872" lon="7.959717547985401"><ele>269.6</ele><time>2026-04-19T10:24:41.999Z</time></trkpt><trkpt lat="44.85061432650737" lon="7.959697246670899"><ele>270.8</ele><time>2026-04-19T10:24:42.999Z</time></trkpt><trkpt lat="44.850512220514915" lon="7.959663934568638"><ele>272.0</ele><time>2026-04-19T10:24:43.999Z</time></trkpt><trkpt lat="44.850422527471956" lon="7.95962571737372"><ele>272.0</ele><time>2026-04-19T10:24:44.999Z</time></trkpt><trkpt lat="44.850342440240716" lon="7.959600258050506"><ele>272.0</ele><time>2026-04-19T10:24:45.999Z</time></trkpt><trkpt lat="44.85027506627881" lon="7.95959146727468"><ele>272.0</ele><time>2026-04-19T10:24:46.999Z</time></trkpt><trkpt lat="44.85021253873488" lon="7.959576488000646"><ele>272.0</ele><time>2026-04-19T10:24:47.999Z</time></trkpt><trkpt lat="44.850134729627634" lon="7.959540989161699"><ele>272.0</ele><time>2026-04-19T10:24:48.999Z</time></trkpt><trkpt lat="44.85001410081658" lon="7.959538757710119"><ele>272.0</ele><time>2026-04-19T10:24:50Z</time></trkpt><trkpt lat="44.84986758005292" lon="7.959521225193245"><ele>272.6666666666667</ele><time>2026-04-19T10:24:51Z</time></trkpt><trkpt lat="44.84974496128678" lon="7.959493598889571"><ele>273.33333333333337</ele><time>2026-04-19T10:24:52Z</time></trkpt><trkpt lat="44.84966072321596" lon="7.959482691030004"><ele>274.0</ele><time>2026-04-19T10:24:53Z</time></trkpt><trkpt lat="44.8495913447972" lon="7.959486994033354"><ele>274.6666666666667</ele><time>2026-04-19T10:24:54Z</time></trkpt><trkpt lat="44.84951917309385" lon="7.959527019652658"><ele>275.3333333333333</ele><time>2026-04-19T10:24:55Z</time></trkpt><trkpt lat="44.849439663691" lon="7.959589270527222"><ele>276.0</ele><time>2026-04-19T10:24:56Z</time></trkpt><trkpt lat="44.84933597068137" lon="7.95962944278551"><ele>277.40000000000003</ele><time>2026-04-19T10:24:57Z</time></trkpt><trkpt lat="44.84924502743915" lon="7.959647588797075"><ele>278.8</ele><time>2026-04-19T10:24:58Z</time></trkpt><trkpt lat="44.84915721098122" lon="7.9595997867342945"><ele>280.20000000000005</ele><time>2026-04-19T10:24:59Z</time></trkpt><trkpt lat="44.84905587993534" lon="7.959527872753639"><ele>281.6</ele><time>2026-04-19T10:25:00Z</time></trkpt><trkpt lat="44.848940757051686" lon="7.95948051014621"><ele>283.0</ele><time>2026-04-19T10:25:01Z</time></trkpt><trkpt lat="44.84880067810145" lon="7.959461963677606"><ele>283.0</ele><time>2026-04-19T10:25:02Z</time></trkpt><trkpt lat="44.848680766395624" lon="7.959431721769792"><ele>283.0</ele><time>2026-04-19T10:25:03Z</time></trkpt><trkpt lat="44.84856657347146" lon="7.9593865929150045"><ele>283.0</ele><time>2026-04-19T10:25:04Z</time></trkpt><trkpt lat="44.848485548222165" lon="7.959347865037681"><ele>283.0</ele><time>2026-04-19T10:25:05Z</time></trkpt><trkpt lat="44.84839749560892" lon="7.959329917304245"><ele>283.0</ele><time>2026-04-19T10:25:06Z</time></trkpt><trkpt lat="44.84829341846322" lon="7.95934965075214"><ele>282.5</ele><time>2026-04-19T10:25:07Z</time></trkpt><trkpt lat="44.848187294310705" lon="7.959342568919972"><ele>282.0</ele><time>2026-04-19T10:25:08Z</time></trkpt><trkpt lat="44.848038732599875" lon="7.9593381578130975"><ele>281.5</ele><time>2026-04-19T10:25:10Z</time></trkpt><trkpt lat="44.84791250940119" lon="7.959334577838394"><ele>281.0</ele><time>2026-04-19T10:25:11Z</time></trkpt><trkpt lat="44.84777843654789" lon="7.959346605690602"><ele>281.0</ele><time>2026-04-19T10:25:12Z</time></trkpt><trkpt lat="44.84768920158853" lon="7.9593476306852695"><ele>281.0</ele><time>2026-04-19T10:25:13Z</time></trkpt><trkpt lat="44.84759405394684" lon="7.959329823639427"><ele>281.0</ele><time>2026-04-19T10:25:14Z</time></trkpt><trkpt lat="44.847498658420356" lon="7.959324798293737"><ele>281.0</ele><time>2026-04-19T10:25:15Z</time></trkpt><trkpt lat="44.847423869380094" lon="7.959323955717833"><ele>281.0</ele><time>2026-04-19T10:25:16Z</time></trkpt><trkpt lat="44.847330020249366" lon="7.95926841182421"><ele>281.33333333333337</ele><time>2026-04-19T10:25:18Z</time></trkpt><trkpt lat="44.847253343413286" lon="7.959257878260552"><ele>281.6666666666667</ele><time>2026-04-19T10:25:23Z</time></trkpt><trkpt lat="44.84719235370081" lon="7.959232547478672"><ele>282.0</ele><time>2026-04-19T10:25:25Z</time></trkpt><trkpt lat="44.8471180125632" lon="7.959207723026131"><ele>282.3333333333333</ele><time>2026-04-19T10:25:27Z</time></trkpt><trkpt lat="44.84704776011676" lon="7.959212109053195"><ele>282.66666666666663</ele><time>2026-04-19T10:25:28Z</time></trkpt><trkpt lat="44.84693677583919" lon="7.959198961122643"><ele>283.0</ele><time>2026-04-19T10:25:29Z</time></trkpt><trkpt lat="44.846850205588616" lon="7.959201775817936"><ele>284.2</ele><time>2026-04-19T10:25:30Z</time></trkpt><trkpt lat="44.846751555923035" lon="7.9592514241587695"><ele>285.4</ele><time>2026-04-19T10:25:31Z</time></trkpt><trkpt lat="44.84663752429899" lon="7.959302725774655"><ele>286.59999999999997</ele><time>2026-04-19T10:25:32Z</time></trkpt><trkpt lat="44.84654541426309" lon="7.959329404202042"><ele>287.8</ele><time>2026-04-19T10:25:33Z</time></trkpt><trkpt lat="44.84644850184565" lon="7.959453115541573"><ele>289.0</ele><time>2026-04-19T10:25:35Z</time></trkpt><trkpt lat="44.84638913034071" lon="7.9595967180284095"><ele>289.0</ele><time>2026-04-19T10:25:36Z</time></trkpt><trkpt lat="44.84633744374139" lon="7.959714233148591"><ele>289.0</ele><time>2026-04-19T10:25:37Z</time></trkpt><trkpt lat="44.84629414151868" lon="7.959826782499448"><ele>289.0</ele><time>2026-04-19T10:25:38Z</time></trkpt><trkpt lat="44.846242138408286" lon="7.959885732363574"><ele>289.0</ele><time>2026-04-19T10:25:39Z</time></trkpt><trkpt lat="44.84616226698575" lon="7.959935212330523"><ele>289.0</ele><time>2026-04-19T10:25:40Z</time></trkpt><trkpt lat="44.846089883492326" lon="7.959992508578064"><ele>289.0</ele><time>2026-04-19T10:25:41Z</time></trkpt><trkpt lat="44.84602346174886" lon="7.960085488919258"><ele>289.8</ele><time>2026-04-19T10:25:42Z</time></trkpt><trkpt lat="44.84596284429825" lon="7.960189965770745"><ele>290.59999999999997</ele><time>2026-04-19T10:25:43Z</time></trkpt><trkpt lat="44.845899908300275" lon="7.960236328079927"><ele>291.4</ele><time>2026-04-19T10:25:44Z</time></trkpt><trkpt lat="44.84579665231461" lon="7.9602426402567374"><ele>292.2</ele><time>2026-04-19T10:25:45Z</time></trkpt><trkpt lat="44.84567152481365" lon="7.960221703889652"><ele>293.0</ele><time>2026-04-19T10:25:46Z</time></trkpt><trkpt lat="44.84557138605866" lon="7.960227977799352"><ele>293.0</ele><time>2026-04-19T10:25:47Z</time></trkpt><trkpt lat="44.845499750530685" lon="7.9602820986545195"><ele>293.0</ele><time>2026-04-19T10:25:48Z</time></trkpt><trkpt lat="44.84542935138619" lon="7.960408104937718"><ele>293.0</ele><time>2026-04-19T10:25:49Z</time></trkpt><trkpt lat="44.84534580362607" lon="7.96055741761905"><ele>293.0</ele><time>2026-04-19T10:25:50Z</time></trkpt><trkpt lat="44.84526817814734" lon="7.960701923349729"><ele>293.0</ele><time>2026-04-19T10:25:51Z</time></trkpt><trkpt lat="44.845192888486594" lon="7.960808573422682"><ele>293.0</ele><time>2026-04-19T10:25:52Z</time></trkpt><trkpt lat="44.84511098407658" lon="7.96086426815168"><ele>293.0</ele><time>2026-04-19T10:25:53Z</time></trkpt><trkpt lat="44.845020142436724" lon="7.960854384725855"><ele>293.0</ele><time>2026-04-19T10:25:54Z</time></trkpt><trkpt lat="44.844908156520745" lon="7.9607856866964"><ele>293.0</ele><time>2026-04-19T10:25:55Z</time></trkpt><trkpt lat="44.84477992858704" lon="7.960719465241248"><ele>292.2</ele><time>2026-04-19T10:25:56Z</time></trkpt><trkpt lat="44.84467793903923" lon="7.960692102788313"><ele>291.4</ele><time>2026-04-19T10:25:57Z</time></trkpt><trkpt lat="44.84459007976052" lon="7.960660610945452"><ele>290.59999999999997</ele><time>2026-04-19T10:25:58Z</time></trkpt><trkpt lat="44.844508116022794" lon="7.960588386046465"><ele>289.8</ele><time>2026-04-19T10:25:59Z</time></trkpt><trkpt lat="44.84443815823248" lon="7.960558892275178"><ele>289.0</ele><time>2026-04-19T10:26:00Z</time></trkpt><trkpt lat="44.84433877697835" lon="7.960627780130353"><ele>291.0</ele><time>2026-04-19T10:26:02Z</time></trkpt><trkpt lat="44.844249309169705" lon="7.960434080234366"><ele>293.0</ele><time>2026-04-19T10:26:04Z</time></trkpt><trkpt lat="44.84416549516964" lon="7.960256037713268"><ele>295.0</ele><time>2026-04-19T10:26:05Z</time></trkpt><trkpt lat="44.84407548005464" lon="7.960069033324391"><ele>295.0</ele><time>2026-04-19T10:26:06Z</time></trkpt><trkpt lat="44.84398916832024" lon="7.959942981999489"><ele>295.0</ele><time>2026-04-19T10:26:07Z</time></trkpt><trkpt lat="44.84392014144463" lon="7.959854168408512"><ele>295.0</ele><time>2026-04-19T10:26:08Z</time></trkpt><trkpt lat="44.84386968142495" lon="7.9597434642132905"><ele>295.0</ele><time>2026-04-19T10:26:08.999Z</time></trkpt><trkpt lat="44.843806769651245" lon="7.959592283836559"><ele>295.0</ele><time>2026-04-19T10:26:09.999Z</time></trkpt><trkpt lat="44.843719717869746" lon="7.959441619220705"><ele>295.0</ele><time>2026-04-19T10:26:10.999Z</time></trkpt><trkpt lat="44.84363134770487" lon="7.959297262818156"><ele>295.0</ele><time>2026-04-19T10:26:11.999Z</time></trkpt><trkpt lat="44.84355326668837" lon="7.959166917817529"><ele>295.0</ele><time>2026-04-19T10:26:12.999Z</time></trkpt><trkpt lat="44.843508604724214" lon="7.959043545792328"><ele>295.0</ele><time>2026-04-19T10:26:13.999Z</time></trkpt><trkpt lat="44.84348541901466" lon="7.958935871565098"><ele>295.0</ele><time>2026-04-19T10:26:14.999Z</time></trkpt><trkpt lat="44.843515643819636" lon="7.958841971207304"><ele>296.2</ele><time>2026-04-19T10:26:16.999Z</time></trkpt><trkpt lat="44.843597252021354" lon="7.958782290108194"><ele>297.4</ele><time>2026-04-19T10:26:17.999Z</time></trkpt><trkpt lat="44.84367083753235" lon="7.958702306565125"><ele>298.6</ele><time>2026-04-19T10:26:18.999Z</time></trkpt><trkpt lat="44.84372567211877" lon="7.958562902776981"><ele>299.8</ele><time>2026-04-19T10:26:19.999Z</time></trkpt><trkpt lat="44.843767838845096" lon="7.958454117111029"><ele>301.0</ele><time>2026-04-19T10:26:20.999Z</time></trkpt><trkpt lat="44.84384616062717" lon="7.958526602964082"><ele>301.0</ele><time>2026-04-19T10:26:22.999Z</time></trkpt><trkpt lat="44.843896075231775" lon="7.958665235379583"><ele>301.0</ele><time>2026-04-19T10:26:23.999Z</time></trkpt><trkpt lat="44.843960740286995" lon="7.9587950338266396"><ele>301.0</ele><time>2026-04-19T10:26:24.999Z</time></trkpt><trkpt lat="44.84403038926957" lon="7.9588866898090584"><ele>301.0</ele><time>2026-04-19T10:26:25.999Z</time></trkpt><trkpt lat="44.84409911902442" lon="7.958942924704027"><ele>301.0</ele><time>2026-04-19T10:26:26.999Z</time></trkpt><trkpt lat="44.8441892120665" lon="7.958999101468867"><ele>301.0</ele><time>2026-04-19T10:26:27.999Z</time></trkpt><trkpt lat="44.844280207545346" lon="7.959080382685979"><ele>301.0</ele><time>2026-04-19T10:26:28.999Z</time></trkpt><trkpt lat="44.84436740347654" lon="7.9591506207637455"><ele>301.0</ele><time>2026-04-19T10:26:29.999Z</time></trkpt><trkpt lat="44.84448078391555" lon="7.959183175267084"><ele>301.0</ele><time>2026-04-19T10:26:30.999Z</time></trkpt><trkpt lat="44.84460356355304" lon="7.959250744101617"><ele>300.3333333333333</ele><time>2026-04-19T10:26:31.999Z</time></trkpt><trkpt lat="44.84468381514706" lon="7.959280889017507"><ele>299.66666666666663</ele><time>2026-04-19T10:26:32.999Z</time></trkpt><trkpt lat="44.84476556449508" lon="7.959291989675456"><ele>299.0</ele><time>2026-04-19T10:26:33.999Z</time></trkpt><trkpt lat="44.844844984803075" lon="7.959313096484212"><ele>298.3333333333333</ele><time>2026-04-19T10:26:34.999Z</time></trkpt><trkpt lat="44.84491924063143" lon="7.959280281030047"><ele>297.6666666666667</ele><time>2026-04-19T10:26:35.999Z</time></trkpt><trkpt lat="44.844985554968844" lon="7.959240753645638"><ele>297.0</ele><time>2026-04-19T10:26:36.999Z</time></trkpt><trkpt lat="44.84505725153453" lon="7.9592053824939955"><ele>297.5</ele><time>2026-04-19T10:26:37.999Z</time></trkpt><trkpt lat="44.845117491904155" lon="7.959155643147546"><ele>298.0</ele><time>2026-04-19T10:26:38.999Z</time></trkpt><trkpt lat="44.84515542959106" lon="7.958987956987572"><ele>298.5</ele><time>2026-04-19T10:26:40.999Z</time></trkpt><trkpt lat="44.84505317548655" lon="7.958822092116381"><ele>299.0</ele><time>2026-04-19T10:26:42.999Z</time></trkpt><trkpt lat="44.84494297893421" lon="7.958727567577097"><ele>301.59999999999997</ele><time>2026-04-19T10:26:43.999Z</time></trkpt><trkpt lat="44.84485090671377" lon="7.958608841222854"><ele>304.2</ele><time>2026-04-19T10:26:44.999Z</time></trkpt><trkpt lat="44.84477586733261" lon="7.958509090288166"><ele>306.79999999999995</ele><time>2026-04-19T10:26:45.999Z</time></trkpt><trkpt lat="44.84471420268445" lon="7.958418439473682"><ele>309.4</ele><time>2026-04-19T10:26:46.999Z</time></trkpt><trkpt lat="44.844664525065475" lon="7.958337969636983"><ele>312.0</ele><time>2026-04-19T10:26:47.999Z</time></trkpt><trkpt lat="44.8446108595877" lon="7.958172689521971"><ele>314.0</ele><time>2026-04-19T10:26:49.999Z</time></trkpt><trkpt lat="44.84458190960146" lon="7.9580488316919125"><ele>316.0</ele><time>2026-04-19T10:26:50.999Z</time></trkpt><trkpt lat="44.844543399982605" lon="7.957903007658879"><ele>318.0</ele><time>2026-04-19T10:26:51.999Z</time></trkpt><trkpt lat="44.84451420940781" lon="7.957769280889804"><ele>320.0</ele><time>2026-04-19T10:26:52.999Z</time></trkpt><trkpt lat="44.84449785475771" lon="7.957670126121613"><ele>322.0</ele><time>2026-04-19T10:26:53.999Z</time></trkpt><trkpt lat="44.84450699816352" lon="7.957509174021609"><ele>322.66666666666663</ele><time>2026-04-19T10:26:56Z</time></trkpt><trkpt lat="44.844520883159305" lon="7.957392291739406"><ele>323.3333333333333</ele><time>2026-04-19T10:26:57Z</time></trkpt><trkpt lat="44.84452449887985" lon="7.957265907841141"><ele>324.0</ele><time>2026-04-19T10:26:58Z</time></trkpt><trkpt lat="44.84451622326935" lon="7.957120340068922"><ele>324.6666666666667</ele><time>2026-04-19T10:26:59Z</time></trkpt><trkpt lat="44.84449493573094" lon="7.957005495266839"><ele>325.33333333333337</ele><time>2026-04-19T10:27:00Z</time></trkpt><trkpt lat="44.844465800689186" lon="7.956904390714151"><ele>326.0</ele><time>2026-04-19T10:27:01Z</time></trkpt><trkpt lat="44.84440820765079" lon="7.9568472138660695"><ele>326.0</ele><time>2026-04-19T10:27:02Z</time></trkpt><trkpt lat="44.84433862219841" lon="7.95676806255943"><ele>326.0</ele><time>2026-04-19T10:27:03Z</time></trkpt><trkpt lat="44.8442650186561" lon="7.956682362317477"><ele>326.0</ele><time>2026-04-19T10:27:04Z</time></trkpt><trkpt lat="44.84419635583228" lon="7.9565446875813866"><ele>326.0</ele><time>2026-04-19T10:27:05Z</time></trkpt><trkpt lat="44.844099095941836" lon="7.956393036054312"><ele>326.0</ele><time>2026-04-19T10:27:06Z</time></trkpt><trkpt lat="44.8439873824085" lon="7.956239411705956"><ele>329.8</ele><time>2026-04-19T10:27:07Z</time></trkpt><trkpt lat="44.84390161466578" lon="7.956109958104593"><ele>333.6</ele><time>2026-04-19T10:27:08Z</time></trkpt><trkpt lat="44.84384240472857" lon="7.955987114034583"><ele>337.4</ele><time>2026-04-19T10:27:09Z</time></trkpt><trkpt lat="44.84382128930899" lon="7.955865382714893"><ele>341.2</ele><time>2026-04-19T10:27:10Z</time></trkpt><trkpt lat="44.843815586039156" lon="7.95576769049243"><ele>345.0</ele><time>2026-04-19T10:27:11Z</time></trkpt><trkpt lat="44.843775346343" lon="7.955604932438324"><ele>346.0</ele><time>2026-04-19T10:27:13Z</time></trkpt><trkpt lat="44.8437168123581" lon="7.955489046408629"><ele>347.0</ele><time>2026-04-19T10:27:15Z</time></trkpt><trkpt lat="44.84366258966254" lon="7.95544204238476"><ele>348.0</ele><time>2026-04-19T10:27:22Z</time></trkpt><trkpt lat="44.84358260262018" lon="7.955456027429035"><ele>349.0</ele><time>2026-04-19T10:27:28Z</time></trkpt><trkpt lat="44.84348075670268" lon="7.95551378604647"><ele>350.0</ele><time>2026-04-19T10:28:36.999Z</time></trkpt><trkpt lat="44.843393798871624" lon="7.9555791104249"><ele>350.0</ele><time>2026-04-19T10:28:37.999Z</time></trkpt><trkpt lat="44.8432977874761" lon="7.9556245676944055"><ele>350.0</ele><time>2026-04-19T10:28:38.999Z</time></trkpt><trkpt lat="44.84315773861886" lon="7.955690301591798"><ele>350.0</ele><time>2026-04-19T10:28:39.999Z</time></trkpt><trkpt lat="44.842999160680485" lon="7.955768754988275"><ele>350.0</ele><time>2026-04-19T10:28:40.999Z</time></trkpt><trkpt lat="44.84285629116736" lon="7.955842814922596"><ele>349.0</ele><time>2026-04-19T10:28:41.999Z</time></trkpt><trkpt lat="44.84271598380569" lon="7.955920353133974"><ele>348.0</ele><time>2026-04-19T10:28:42.999Z</time></trkpt><trkpt lat="44.84255922121918" lon="7.956007080871458"><ele>347.0</ele><time>2026-04-19T10:28:43.999Z</time></trkpt><trkpt lat="44.84240546097224" lon="7.956085931385847"><ele>346.5</ele><time>2026-04-19T10:28:44.999Z</time></trkpt><trkpt lat="44.84226717806186" lon="7.9561533273885985"><ele>346.0</ele><time>2026-04-19T10:28:45.999Z</time></trkpt><trkpt lat="44.84213357147225" lon="7.956222457398908"><ele>345.5</ele><time>2026-04-19T10:28:46.999Z</time></trkpt><trkpt lat="44.84201564961713" lon="7.956291070199864"><ele>345.0</ele><time>2026-04-19T10:28:47.999Z</time></trkpt><trkpt lat="44.84194212963555" lon="7.95635132842852"><ele>345.0</ele><time>2026-04-19T10:28:48.999Z</time></trkpt><trkpt lat="44.841903608655116" lon="7.956544447692389"><ele>345.0</ele><time>2026-04-19T10:28:50.999Z</time></trkpt><trkpt lat="44.8418902828452" lon="7.956707503437387"><ele>345.0</ele><time>2026-04-19T10:28:51.999Z</time></trkpt><trkpt lat="44.841870077674955" lon="7.956886076297011"><ele>345.0</ele><time>2026-04-19T10:28:52.999Z</time></trkpt><trkpt lat="44.84184033361014" lon="7.957071028489192"><ele>344.5</ele><time>2026-04-19T10:28:53.999Z</time></trkpt><trkpt lat="44.84180534899924" lon="7.957266379100508"><ele>344.0</ele><time>2026-04-19T10:28:54.999Z</time></trkpt><trkpt lat="44.84177059188247" lon="7.957457355222569"><ele>343.5</ele><time>2026-04-19T10:28:55.999Z</time></trkpt><trkpt lat="44.841729711543934" lon="7.957683169630409"><ele>343.0</ele><time>2026-04-19T10:28:56.999Z</time></trkpt><trkpt lat="44.841689869739625" lon="7.957899310977571"><ele>341.5</ele><time>2026-04-19T10:28:57.999Z</time></trkpt><trkpt lat="44.84165278682599" lon="7.958102866451172"><ele>340.0</ele><time>2026-04-19T10:28:58.999Z</time></trkpt><trkpt lat="44.84161154948784" lon="7.9583031587876025"><ele>338.5</ele><time>2026-04-19T10:28:59.999Z</time></trkpt><trkpt lat="44.8415451368225" lon="7.958481887270359"><ele>337.0</ele><time>2026-04-19T10:29:00.999Z</time></trkpt><trkpt lat="44.84145546964089" lon="7.958643850296075"><ele>336.75</ele><time>2026-04-19T10:29:02Z</time></trkpt><trkpt lat="44.841367627747346" lon="7.958825557992066"><ele>336.5</ele><time>2026-04-19T10:29:03Z</time></trkpt><trkpt lat="44.84130982881896" lon="7.959024244073732"><ele>336.25</ele><time>2026-04-19T10:29:04Z</time></trkpt><trkpt lat="44.84128013402526" lon="7.9592134270262775"><ele>336.0</ele><time>2026-04-19T10:29:05Z</time></trkpt><trkpt lat="44.84128069076673" lon="7.959379685182687"><ele>336.0</ele><time>2026-04-19T10:29:06Z</time></trkpt><trkpt lat="44.841317177222095" lon="7.959524966267517"><ele>336.0</ele><time>2026-04-19T10:29:07Z</time></trkpt><trkpt lat="44.84140379715963" lon="7.959671087563108"><ele>336.0</ele><time>2026-04-19T10:29:08Z</time></trkpt><trkpt lat="44.84152501857833" lon="7.95981394989975"><ele>336.0</ele><time>2026-04-19T10:29:09Z</time></trkpt><trkpt lat="44.84164112809201" lon="7.95993508700012"><ele>337.0</ele><time>2026-04-19T10:29:10Z</time></trkpt><trkpt lat="44.84173635136568" lon="7.960056051907982"><ele>338.0</ele><time>2026-04-19T10:29:11Z</time></trkpt><trkpt lat="44.84181441297547" lon="7.960193543745741"><ele>339.0</ele><time>2026-04-19T10:29:12Z</time></trkpt><trkpt lat="44.84187906706349" lon="7.960369526874608"><ele>340.0</ele><time>2026-04-19T10:29:13Z</time></trkpt><trkpt lat="44.84192448605561" lon="7.960577326500197"><ele>339.0</ele><time>2026-04-19T10:29:14Z</time></trkpt><trkpt lat="44.84192567562834" lon="7.960772781796434"><ele>338.0</ele><time>2026-04-19T10:29:15Z</time></trkpt><trkpt lat="44.84189490342678" lon="7.960971087014516"><ele>337.0</ele><time>2026-04-19T10:29:16Z</time></trkpt><trkpt lat="44.84183314346388" lon="7.96117095360152"><ele>336.0</ele><time>2026-04-19T10:29:17Z</time></trkpt><trkpt lat="44.84176519572051" lon="7.961362458057216"><ele>336.0</ele><time>2026-04-19T10:29:18Z</time></trkpt><trkpt lat="44.84171399718404" lon="7.96155552990455"><ele>336.0</ele><time>2026-04-19T10:29:19Z</time></trkpt><trkpt lat="44.84167542336912" lon="7.961752233760338"><ele>336.0</ele><time>2026-04-19T10:29:20Z</time></trkpt><trkpt lat="44.84164872092952" lon="7.961947123116532"><ele>336.0</ele><time>2026-04-19T10:29:21Z</time></trkpt><trkpt lat="44.84165620982065" lon="7.962128990207802"><ele>335.5</ele><time>2026-04-19T10:29:22Z</time></trkpt><trkpt lat="44.841700100313844" lon="7.962278574560854"><ele>335.0</ele><time>2026-04-19T10:29:23Z</time></trkpt><trkpt lat="44.841782734672144" lon="7.962382274150917"><ele>334.5</ele><time>2026-04-19T10:29:24Z</time></trkpt><trkpt lat="44.84187906832829" lon="7.96247821419944"><ele>334.0</ele><time>2026-04-19T10:29:25Z</time></trkpt><trkpt lat="44.841991453632296" lon="7.962571181966866"><ele>333.3333333333333</ele><time>2026-04-19T10:29:26Z</time></trkpt><trkpt lat="44.84211871900625" lon="7.9626729059475725"><ele>332.6666666666667</ele><time>2026-04-19T10:29:27Z</time></trkpt><trkpt lat="44.84226013902243" lon="7.962787447506786"><ele>332.0</ele><time>2026-04-19T10:29:28Z</time></trkpt><trkpt lat="44.84239605423064" lon="7.962900831044075"><ele>332.0</ele><time>2026-04-19T10:29:29Z</time></trkpt><trkpt lat="44.84254589538953" lon="7.963012911273242"><ele>332.0</ele><time>2026-04-19T10:29:30Z</time></trkpt><trkpt lat="44.84268466036699" lon="7.963108248053386"><ele>332.0</ele><time>2026-04-19T10:29:31Z</time></trkpt><trkpt lat="44.842812002274066" lon="7.963190894931988"><ele>331.0</ele><time>2026-04-19T10:29:32Z</time></trkpt><trkpt lat="44.84293280816293" lon="7.963275264305001"><ele>330.0</ele><time>2026-04-19T10:29:33Z</time></trkpt><trkpt lat="44.84306294980573" lon="7.963332849044362"><ele>329.0</ele><time>2026-04-19T10:29:34Z</time></trkpt><trkpt lat="44.843218060723665" lon="7.96337060857285"><ele>328.0</ele><time>2026-04-19T10:29:35Z</time></trkpt><trkpt lat="44.84338636985395" lon="7.963370633447034"><ele>330.0</ele><time>2026-04-19T10:29:36Z</time></trkpt><trkpt lat="44.84355338383918" lon="7.963337698835901"><ele>332.0</ele><time>2026-04-19T10:29:37Z</time></trkpt><trkpt lat="44.843721619723915" lon="7.963267227719138"><ele>334.0</ele><time>2026-04-19T10:29:38Z</time></trkpt><trkpt lat="44.843881899009894" lon="7.96318980740217"><ele>334.0</ele><time>2026-04-19T10:29:39Z</time></trkpt><trkpt lat="44.844019979053485" lon="7.963140291159468"><ele>334.0</ele><time>2026-04-19T10:29:40Z</time></trkpt><trkpt lat="44.844144129111434" lon="7.963127826668759"><ele>334.0</ele><time>2026-04-19T10:29:41Z</time></trkpt><trkpt lat="44.844260657811056" lon="7.963153720708146"><ele>334.0</ele><time>2026-04-19T10:29:42Z</time></trkpt><trkpt lat="44.84437951147275" lon="7.963173607926095"><ele>335.5</ele><time>2026-04-19T10:29:43Z</time></trkpt><trkpt lat="44.844501092541606" lon="7.963170334135995"><ele>337.0</ele><time>2026-04-19T10:29:44Z</time></trkpt><trkpt lat="44.84462482388426" lon="7.963161435894755"><ele>338.5</ele><time>2026-04-19T10:29:45Z</time></trkpt><trkpt lat="44.84476495995132" lon="7.963140255300824"><ele>340.0</ele><time>2026-04-19T10:29:46Z</time></trkpt><trkpt lat="44.8449098858505" lon="7.963104234327263"><ele>340.0</ele><time>2026-04-19T10:29:47Z</time></trkpt><trkpt lat="44.84503300708181" lon="7.963059463261285"><ele>340.0</ele><time>2026-04-19T10:29:48Z</time></trkpt><trkpt lat="44.84514318245677" lon="7.963001892155464"><ele>340.0</ele><time>2026-04-19T10:29:49Z</time></trkpt><trkpt lat="44.84524770663895" lon="7.9629400003687705"><ele>340.0</ele><time>2026-04-19T10:29:50Z</time></trkpt><trkpt lat="44.84534321839823" lon="7.962869235575168"><ele>338.8333333333333</ele><time>2026-04-19T10:29:51Z</time></trkpt><trkpt lat="44.8454383232989" lon="7.96281449280892"><ele>337.66666666666663</ele><time>2026-04-19T10:29:52Z</time></trkpt><trkpt lat="44.84553354877354" lon="7.962775669259832"><ele>336.5</ele><time>2026-04-19T10:29:53Z</time></trkpt><trkpt lat="44.845621829892366" lon="7.96275937658378"><ele>335.3333333333333</ele><time>2026-04-19T10:29:54Z</time></trkpt><trkpt lat="44.845685530839276" lon="7.9627869753706975"><ele>334.1666666666667</ele><time>2026-04-19T10:29:55Z</time></trkpt><trkpt lat="44.84573080702221" lon="7.962873468117295"><ele>333.0</ele><time>2026-04-19T10:29:56Z</time></trkpt><trkpt lat="44.84576537606906" lon="7.963010320814659"><ele>333.0</ele><time>2026-04-19T10:29:57Z</time></trkpt><trkpt lat="44.8457889464526" lon="7.963204851927008"><ele>333.0</ele><time>2026-04-19T10:29:58Z</time></trkpt><trkpt lat="44.84580258038706" lon="7.96340539798635"><ele>333.0</ele><time>2026-04-19T10:29:59Z</time></trkpt><trkpt lat="44.84582220836017" lon="7.963619538771412"><ele>333.0</ele><time>2026-04-19T10:30:00Z</time></trkpt><trkpt lat="44.84584875965386" lon="7.963843677361941"><ele>331.75</ele><time>2026-04-19T10:30:01Z</time></trkpt><trkpt lat="44.84587291376871" lon="7.9640479556473265"><ele>330.5</ele><time>2026-04-19T10:30:02Z</time></trkpt><trkpt lat="44.84589430728622" lon="7.964237553170813"><ele>329.25</ele><time>2026-04-19T10:30:03Z</time></trkpt><trkpt lat="44.84590591550603" lon="7.964432161445199"><ele>328.0</ele><time>2026-04-19T10:30:04Z</time></trkpt><trkpt lat="44.84590535115877" lon="7.9646161509535425"><ele>326.5</ele><time>2026-04-19T10:30:05Z</time></trkpt><trkpt lat="44.84591129888668" lon="7.964794705209974"><ele>325.0</ele><time>2026-04-19T10:30:06Z</time></trkpt><trkpt lat="44.84591378955574" lon="7.964969469242175"><ele>323.5</ele><time>2026-04-19T10:30:07Z</time></trkpt><trkpt lat="44.84592106041116" lon="7.965134742346198"><ele>322.0</ele><time>2026-04-19T10:30:08Z</time></trkpt><trkpt lat="44.84591827464735" lon="7.965306301576319"><ele>319.0</ele><time>2026-04-19T10:30:09Z</time></trkpt><trkpt lat="44.84588819318663" lon="7.965483213053212"><ele>316.0</ele><time>2026-04-19T10:30:10Z</time></trkpt><trkpt lat="44.845847324116676" lon="7.965656341686609"><ele>313.0</ele><time>2026-04-19T10:30:11Z</time></trkpt><trkpt lat="44.84581653069496" lon="7.965815946460105"><ele>310.0</ele><time>2026-04-19T10:30:12Z</time></trkpt><trkpt lat="44.84580782000084" lon="7.965974516740761"><ele>307.0</ele><time>2026-04-19T10:30:13Z</time></trkpt><trkpt lat="44.84583930567447" lon="7.966146230290414"><ele>304.0</ele><time>2026-04-19T10:30:14Z</time></trkpt><trkpt lat="44.84589524286648" lon="7.966321117609972"><ele>301.0</ele><time>2026-04-19T10:30:15Z</time></trkpt><trkpt lat="44.8459637986378" lon="7.9664951165352305"><ele>298.0</ele><time>2026-04-19T10:30:16Z</time></trkpt><trkpt lat="44.84603000825303" lon="7.966655585944759"><ele>295.0</ele><time>2026-04-19T10:30:17Z</time></trkpt><trkpt lat="44.84608522608394" lon="7.96680880679505"><ele>292.0</ele><time>2026-04-19T10:30:18Z</time></trkpt><trkpt lat="44.84614357372895" lon="7.966958563280874"><ele>289.0</ele><time>2026-04-19T10:30:19Z</time></trkpt><trkpt lat="44.846193437410165" lon="7.967100437696706"><ele>286.0</ele><time>2026-04-19T10:30:20Z</time></trkpt><trkpt lat="44.84623237476095" lon="7.967214926189664"><ele>283.0</ele><time>2026-04-19T10:30:21Z</time></trkpt><trkpt lat="44.84624413821536" lon="7.967308035787754"><ele>283.0</ele><time>2026-04-19T10:30:22Z</time></trkpt><trkpt lat="44.84621668727471" lon="7.967402081268906"><ele>283.0</ele><time>2026-04-19T10:30:23Z</time></trkpt><trkpt lat="44.84615685477662" lon="7.967479633584051"><ele>283.0</ele><time>2026-04-19T10:30:24Z</time></trkpt><trkpt lat="44.84606409075562" lon="7.967498719032336"><ele>283.0</ele><time>2026-04-19T10:30:25Z</time></trkpt><trkpt lat="44.8459613886936" lon="7.967478571830087"><ele>283.0</ele><time>2026-04-19T10:30:26Z</time></trkpt><trkpt lat="44.84585457678928" lon="7.967413531733"><ele>284.75</ele><time>2026-04-19T10:30:27Z</time></trkpt><trkpt lat="44.84574179979567" lon="7.967307579120381"><ele>286.5</ele><time>2026-04-19T10:30:28Z</time></trkpt><trkpt lat="44.845656843457704" lon="7.967163304518213"><ele>288.25</ele><time>2026-04-19T10:30:29Z</time></trkpt><trkpt lat="44.84558832690341" lon="7.967014409066087"><ele>290.0</ele><time>2026-04-19T10:30:30Z</time></trkpt><trkpt lat="44.84551592104178" lon="7.9668794917340335"><ele>290.0</ele><time>2026-04-19T10:30:31Z</time></trkpt><trkpt lat="44.84541038422012" lon="7.96679268769744"><ele>290.0</ele><time>2026-04-19T10:30:32Z</time></trkpt><trkpt lat="44.845292075748006" lon="7.966734534510599"><ele>290.0</ele><time>2026-04-19T10:30:33Z</time></trkpt><trkpt lat="44.84518420108366" lon="7.966679025351843"><ele>290.0</ele><time>2026-04-19T10:30:33.999Z</time></trkpt><trkpt lat="44.845083446546376" lon="7.966613345602823"><ele>288.6</ele><time>2026-04-19T10:30:34.999Z</time></trkpt><trkpt lat="44.84499177472402" lon="7.966539853994922"><ele>287.2</ele><time>2026-04-19T10:30:35.999Z</time></trkpt><trkpt lat="44.84489856719643" lon="7.966473617061233"><ele>285.8</ele><time>2026-04-19T10:30:36.999Z</time></trkpt><trkpt lat="44.844808109520685" lon="7.9664202671145645"><ele>284.4</ele><time>2026-04-19T10:30:37.999Z</time></trkpt><trkpt lat="44.844714627878844" lon="7.966416293753262"><ele>283.0</ele><time>2026-04-19T10:30:38.999Z</time></trkpt><trkpt lat="44.844628410607655" lon="7.966466176499905"><ele>283.0</ele><time>2026-04-19T10:30:39.999Z</time></trkpt><trkpt lat="44.84456206387742" lon="7.966577440415191"><ele>283.0</ele><time>2026-04-19T10:30:40.999Z</time></trkpt><trkpt lat="44.84453256290208" lon="7.966734323273734"><ele>283.0</ele><time>2026-04-19T10:30:41.999Z</time></trkpt><trkpt lat="44.84452498224326" lon="7.96691377685244"><ele>283.0</ele><time>2026-04-19T10:30:42.999Z</time></trkpt><trkpt lat="44.84453926239674" lon="7.967101518628379"><ele>280.75</ele><time>2026-04-19T10:30:43.999Z</time></trkpt><trkpt lat="44.84454719724825" lon="7.967281682526062"><ele>278.5</ele><time>2026-04-19T10:30:44.999Z</time></trkpt><trkpt lat="44.84454763215266" lon="7.9674565969474305"><ele>276.25</ele><time>2026-04-19T10:30:45.999Z</time></trkpt><trkpt lat="44.84453925448588" lon="7.967634344451554"><ele>274.0</ele><time>2026-04-19T10:30:46.999Z</time></trkpt><trkpt lat="44.844528599901935" lon="7.967825302962301"><ele>274.5</ele><time>2026-04-19T10:30:47.999Z</time></trkpt><trkpt lat="44.84451687098296" lon="7.968011002006611"><ele>275.0</ele><time>2026-04-19T10:30:48.999Z</time></trkpt><trkpt lat="44.844503503566045" lon="7.9681980552920395"><ele>275.5</ele><time>2026-04-19T10:30:49.999Z</time></trkpt><trkpt lat="44.844486953661566" lon="7.968381579721337"><ele>276.0</ele><time>2026-04-19T10:30:50.999Z</time></trkpt><trkpt lat="44.84447701073658" lon="7.968550017029919"><ele>276.0</ele><time>2026-04-19T10:30:51.999Z</time></trkpt><trkpt lat="44.84447080289428" lon="7.9687067753225245"><ele>276.0</ele><time>2026-04-19T10:30:52.999Z</time></trkpt><trkpt lat="44.844463700951295" lon="7.968849069046523"><ele>276.0</ele><time>2026-04-19T10:30:53.999Z</time></trkpt><trkpt lat="44.84445992003672" lon="7.968986736201257"><ele>276.0</ele><time>2026-04-19T10:30:54.999Z</time></trkpt><trkpt lat="44.84445530980753" lon="7.969108770430093"><ele>276.0</ele><time>2026-04-19T10:30:55.999Z</time></trkpt><trkpt lat="44.844438710189216" lon="7.9691981874685665"><ele>280.0</ele><time>2026-04-19T10:30:56.999Z</time></trkpt><trkpt lat="44.844324670668364" lon="7.969296229137208"><ele>284.0</ele><time>2026-04-19T10:30:58.999Z</time></trkpt><trkpt lat="44.84420517212685" lon="7.969285035821161"><ele>288.0</ele><time>2026-04-19T10:30:59.999Z</time></trkpt><trkpt lat="44.84405971112716" lon="7.969247264648237"><ele>292.0</ele><time>2026-04-19T10:31:00.999Z</time></trkpt><trkpt lat="44.84392346359274" lon="7.969213495058233"><ele>288.0</ele><time>2026-04-19T10:31:01.999Z</time></trkpt><trkpt lat="44.84377828974255" lon="7.969190460390001"><ele>284.0</ele><time>2026-04-19T10:31:02.999Z</time></trkpt><trkpt lat="44.843637112152514" lon="7.969167809357337"><ele>280.0</ele><time>2026-04-19T10:31:03.999Z</time></trkpt><trkpt lat="44.843509179717486" lon="7.969144862784675"><ele>276.0</ele><time>2026-04-19T10:31:04.999Z</time></trkpt><trkpt lat="44.843396222334626" lon="7.96913043730609"><ele>275.8</ele><time>2026-04-19T10:31:05.999Z</time></trkpt><trkpt lat="44.84329320220355" lon="7.969128391255632"><ele>275.6</ele><time>2026-04-19T10:31:06.999Z</time></trkpt><trkpt lat="44.843193831318374" lon="7.969146303570489"><ele>275.4</ele><time>2026-04-19T10:31:08Z</time></trkpt><trkpt lat="44.843092486743906" lon="7.969176825971067"><ele>275.2</ele><time>2026-04-19T10:31:09Z</time></trkpt><trkpt lat="44.843009631537186" lon="7.96922870067369"><ele>275.0</ele><time>2026-04-19T10:31:10Z</time></trkpt><trkpt lat="44.842936107855586" lon="7.969279684008165"><ele>278.0</ele><time>2026-04-19T10:31:11Z</time></trkpt><trkpt lat="44.842875110824956" lon="7.969336566289888"><ele>281.0</ele><time>2026-04-19T10:31:12Z</time></trkpt><trkpt lat="44.84284263089287" lon="7.969516555069377"><ele>284.0</ele><time>2026-04-19T10:31:14Z</time></trkpt><trkpt lat="44.84287123023563" lon="7.969639896368121"><ele>287.0</ele><time>2026-04-19T10:31:15Z</time></trkpt><trkpt lat="44.8429095124704" lon="7.969760245364916"><ele>290.0</ele><time>2026-04-19T10:31:16Z</time></trkpt><trkpt lat="44.84296301625165" lon="7.969880036086694"><ele>290.0</ele><time>2026-04-19T10:31:17Z</time></trkpt><trkpt lat="44.843040598102775" lon="7.97002213251255"><ele>290.0</ele><time>2026-04-19T10:31:18Z</time></trkpt><trkpt lat="44.84309323571019" lon="7.970165299302691"><ele>290.0</ele><time>2026-04-19T10:31:19Z</time></trkpt><trkpt lat="44.843144200411466" lon="7.970317288678269"><ele>290.0</ele><time>2026-04-19T10:31:20Z</time></trkpt><trkpt lat="44.84320360546946" lon="7.970489468671866"><ele>291.25</ele><time>2026-04-19T10:31:21Z</time></trkpt><trkpt lat="44.84326570904509" lon="7.970664691654024"><ele>292.5</ele><time>2026-04-19T10:31:22Z</time></trkpt><trkpt lat="44.843318050085905" lon="7.970819669820838"><ele>293.75</ele><time>2026-04-19T10:31:23Z</time></trkpt><trkpt lat="44.843365242985044" lon="7.970960367420972"><ele>295.0</ele><time>2026-04-19T10:31:24Z</time></trkpt><trkpt lat="44.84340796287145" lon="7.971097589291101"><ele>295.8</ele><time>2026-04-19T10:31:25Z</time></trkpt><trkpt lat="44.843451415329156" lon="7.971239540486863"><ele>296.6</ele><time>2026-04-19T10:31:26Z</time></trkpt><trkpt lat="44.84348362183064" lon="7.971364107324781"><ele>297.4</ele><time>2026-04-19T10:31:27Z</time></trkpt><trkpt lat="44.84351090642924" lon="7.971462610935929"><ele>298.2</ele><time>2026-04-19T10:31:28Z</time></trkpt><trkpt lat="44.843612880482546" lon="7.971527457981937"><ele>299.0</ele><time>2026-04-19T10:31:30Z</time></trkpt><trkpt lat="44.843653061561355" lon="7.97145562454521"><ele>300.4</ele><time>2026-04-19T10:31:31Z</time></trkpt><trkpt lat="44.843661614179375" lon="7.971341032304182"><ele>301.79999999999995</ele><time>2026-04-19T10:31:32Z</time></trkpt><trkpt lat="44.84362735859418" lon="7.971209052858187"><ele>303.20000000000005</ele><time>2026-04-19T10:31:33Z</time></trkpt><trkpt lat="44.843566669506544" lon="7.971064094939576"><ele>304.6</ele><time>2026-04-19T10:31:34Z</time></trkpt><trkpt lat="44.84351895434996" lon="7.970893881577568"><ele>306.0</ele><time>2026-04-19T10:31:35Z</time></trkpt><trkpt lat="44.84351823396377" lon="7.970748750125315"><ele>306.0</ele><time>2026-04-19T10:31:36Z</time></trkpt><trkpt lat="44.843563507730664" lon="7.970657329464644"><ele>306.0</ele><time>2026-04-19T10:31:37Z</time></trkpt><trkpt lat="44.84369517616367" lon="7.970702459087611"><ele>306.0</ele><time>2026-04-19T10:31:39Z</time></trkpt><trkpt lat="44.84376284242796" lon="7.970804833605741"><ele>306.0</ele><time>2026-04-19T10:31:40Z</time></trkpt><trkpt lat="44.84379687203083" lon="7.970939714193974"><ele>306.0</ele><time>2026-04-19T10:31:41Z</time></trkpt><trkpt lat="44.84384901128832" lon="7.971066249376605"><ele>307.0</ele><time>2026-04-19T10:31:42Z</time></trkpt><trkpt lat="44.84389906168751" lon="7.971188416620883"><ele>308.0</ele><time>2026-04-19T10:31:43Z</time></trkpt><trkpt lat="44.84392301396462" lon="7.9713140636968385"><ele>309.0</ele><time>2026-04-19T10:31:44Z</time></trkpt><trkpt lat="44.843919789052116" lon="7.971433661334569"><ele>310.0</ele><time>2026-04-19T10:31:45Z</time></trkpt><trkpt lat="44.8439080177913" lon="7.97156711598184"><ele>311.0</ele><time>2026-04-19T10:31:46Z</time></trkpt><trkpt lat="44.84388833021662" lon="7.97173448423212"><ele>311.40000000000003</ele><time>2026-04-19T10:31:47Z</time></trkpt><trkpt lat="44.84385896768523" lon="7.971878184459754"><ele>311.8</ele><time>2026-04-19T10:31:48Z</time></trkpt><trkpt lat="44.84383137256909" lon="7.972016751909183"><ele>312.20000000000005</ele><time>2026-04-19T10:31:49Z</time></trkpt><trkpt lat="44.8438086478128" lon="7.972151706197276"><ele>312.6</ele><time>2026-04-19T10:31:50Z</time></trkpt><trkpt lat="44.84377962727097" lon="7.972278037886771"><ele>313.0</ele><time>2026-04-19T10:31:51Z</time></trkpt><trkpt lat="44.843721773896846" lon="7.972388990489005"><ele>313.0</ele><time>2026-04-19T10:31:52Z</time></trkpt><trkpt lat="44.843653338634525" lon="7.972482668781766"><ele>313.0</ele><time>2026-04-19T10:31:53Z</time></trkpt><trkpt lat="44.843571800259795" lon="7.972551458030213"><ele>313.0</ele><time>2026-04-19T10:31:54Z</time></trkpt><trkpt lat="44.843495426792884" lon="7.972599265841578"><ele>313.0</ele><time>2026-04-19T10:31:55Z</time></trkpt><trkpt lat="44.84343529161211" lon="7.972649455097967"><ele>313.0</ele><time>2026-04-19T10:31:56Z</time></trkpt><trkpt lat="44.84333020936342" lon="7.972749744924393"><ele>314.2</ele><time>2026-04-19T10:31:58Z</time></trkpt><trkpt lat="44.84326007189198" lon="7.972800586159374"><ele>315.4</ele><time>2026-04-19T10:31:59Z</time></trkpt><trkpt lat="44.843184250451934" lon="7.972850650474023"><ele>316.59999999999997</ele><time>2026-04-19T10:32:00Z</time></trkpt><trkpt lat="44.84309825565109" lon="7.972875304689904"><ele>317.8</ele><time>2026-04-19T10:32:01Z</time></trkpt><trkpt lat="44.84300573242329" lon="7.972871056388891"><ele>319.0</ele><time>2026-04-19T10:32:02Z</time></trkpt><trkpt lat="44.84289314468353" lon="7.972885152754363"><ele>319.0</ele><time>2026-04-19T10:32:03Z</time></trkpt><trkpt lat="44.842780318697116" lon="7.972899307024079"><ele>319.0</ele><time>2026-04-19T10:32:04Z</time></trkpt><trkpt lat="44.84267041666877" lon="7.972923468798083"><ele>319.0</ele><time>2026-04-19T10:32:05Z</time></trkpt><trkpt lat="44.84256384466327" lon="7.972950724468234"><ele>319.0</ele><time>2026-04-19T10:32:06Z</time></trkpt><trkpt lat="44.842458568635834" lon="7.97297297715032"><ele>319.0</ele><time>2026-04-19T10:32:07Z</time></trkpt><trkpt lat="44.84234817095209" lon="7.973002028843919"><ele>319.5</ele><time>2026-04-19T10:32:08Z</time></trkpt><trkpt lat="44.84223849080395" lon="7.97302950505059"><ele>320.0</ele><time>2026-04-19T10:32:09Z</time></trkpt><trkpt lat="44.84212682543129" lon="7.973059258698056"><ele>320.5</ele><time>2026-04-19T10:32:10Z</time></trkpt><trkpt lat="44.842011399037055" lon="7.973088942028675"><ele>321.0</ele><time>2026-04-19T10:32:11Z</time></trkpt><trkpt lat="44.84189077084561" lon="7.973122562538149"><ele>321.75</ele><time>2026-04-19T10:32:12Z</time></trkpt><trkpt lat="44.841767806910305" lon="7.973161556617724"><ele>322.5</ele><time>2026-04-19T10:32:13Z</time></trkpt><trkpt lat="44.84164609190404" lon="7.973217339417035"><ele>323.25</ele><time>2026-04-19T10:32:14Z</time></trkpt><trkpt lat="44.84153083311318" lon="7.973291582728621"><ele>324.0</ele><time>2026-04-19T10:32:15Z</time></trkpt><trkpt lat="44.84142201333573" lon="7.9733895493255424"><ele>324.0</ele><time>2026-04-19T10:32:16Z</time></trkpt><trkpt lat="44.84131682233231" lon="7.973481406367152"><ele>324.0</ele><time>2026-04-19T10:32:17Z</time></trkpt><trkpt lat="44.84121571872873" lon="7.973558762285755"><ele>324.0</ele><time>2026-04-19T10:32:18Z</time></trkpt><trkpt lat="44.841109752973885" lon="7.973629361600769"><ele>324.0</ele><time>2026-04-19T10:32:19Z</time></trkpt><trkpt lat="44.840997920800504" lon="7.973682606858971"><ele>326.25</ele><time>2026-04-19T10:32:20Z</time></trkpt><trkpt lat="44.84088196472792" lon="7.9737142489056145"><ele>328.5</ele><time>2026-04-19T10:32:21Z</time></trkpt><trkpt lat="44.84074646587581" lon="7.973728623009213"><ele>330.75</ele><time>2026-04-19T10:32:22Z</time></trkpt><trkpt lat="44.84061563351415" lon="7.973733042268849"><ele>333.0</ele><time>2026-04-19T10:32:23Z</time></trkpt><trkpt lat="44.84048459230259" lon="7.973741948848579"><ele>333.0</ele><time>2026-04-19T10:32:24Z</time></trkpt><trkpt lat="44.84034600541493" lon="7.973743039623082"><ele>333.0</ele><time>2026-04-19T10:32:25Z</time></trkpt><trkpt lat="44.840207022238786" lon="7.973743206500475"><ele>333.0</ele><time>2026-04-19T10:32:26Z</time></trkpt><trkpt lat="44.84006097013649" lon="7.973747070989112"><ele>333.0</ele><time>2026-04-19T10:32:27Z</time></trkpt><trkpt lat="44.839918668989874" lon="7.973754012625541"><ele>334.25</ele><time>2026-04-19T10:32:28Z</time></trkpt><trkpt lat="44.83978374793447" lon="7.9737534047544045"><ele>335.5</ele><time>2026-04-19T10:32:29Z</time></trkpt><trkpt lat="44.83966389241089" lon="7.973758246673745"><ele>336.75</ele><time>2026-04-19T10:32:30Z</time></trkpt><trkpt lat="44.83953604128969" lon="7.973765808644319"><ele>338.0</ele><time>2026-04-19T10:32:30.999Z</time></trkpt><trkpt lat="44.83939215358404" lon="7.973772505117395"><ele>337.33333333333337</ele><time>2026-04-19T10:32:31.999Z</time></trkpt><trkpt lat="44.83923859083251" lon="7.973771039897638"><ele>336.6666666666667</ele><time>2026-04-19T10:32:32.999Z</time></trkpt><trkpt lat="44.839084048609685" lon="7.973758697363669"><ele>336.0</ele><time>2026-04-19T10:32:33.999Z</time></trkpt><trkpt lat="44.83892999535" lon="7.973724497982126"><ele>336.0</ele><time>2026-04-19T10:32:34.999Z</time></trkpt><trkpt lat="44.83877940893979" lon="7.9736898753513445"><ele>336.0</ele><time>2026-04-19T10:32:35.999Z</time></trkpt><trkpt lat="44.838637892951446" lon="7.973666670438663"><ele>336.0</ele><time>2026-04-19T10:32:36.999Z</time></trkpt><trkpt lat="44.83849853962002" lon="7.973638982076604"><ele>336.0</ele><time>2026-04-19T10:32:37.999Z</time></trkpt><trkpt lat="44.83835722718637" lon="7.973611288299405"><ele>336.75</ele><time>2026-04-19T10:32:38.999Z</time></trkpt><trkpt lat="44.838215043362986" lon="7.973595178757184"><ele>337.5</ele><time>2026-04-19T10:32:39.999Z</time></trkpt><trkpt lat="44.83807598465076" lon="7.973609408491464"><ele>338.25</ele><time>2026-04-19T10:32:40.999Z</time></trkpt><trkpt lat="44.83793380465729" lon="7.973653271111174"><ele>339.0</ele><time>2026-04-19T10:32:41.999Z</time></trkpt><trkpt lat="44.83779121659557" lon="7.9737257760390765"><ele>339.0</ele><time>2026-04-19T10:32:42.999Z</time></trkpt><trkpt lat="44.83765027481729" lon="7.973810653977175"><ele>339.0</ele><time>2026-04-19T10:32:43.999Z</time></trkpt><trkpt lat="44.83750247325097" lon="7.973896533486926"><ele>339.0</ele><time>2026-04-19T10:32:44.999Z</time></trkpt><trkpt lat="44.83735441132127" lon="7.973982215869031"><ele>338.0</ele><time>2026-04-19T10:32:45.999Z</time></trkpt><trkpt lat="44.8372061286902" lon="7.974067631393238"><ele>337.0</ele><time>2026-04-19T10:32:46.999Z</time></trkpt><trkpt lat="44.83706505282506" lon="7.974157607613479"><ele>336.0</ele><time>2026-04-19T10:32:47.999Z</time></trkpt><trkpt lat="44.83693508912531" lon="7.974257740006946"><ele>336.0</ele><time>2026-04-19T10:32:48.999Z</time></trkpt><trkpt lat="44.83681099924308" lon="7.974366534779152"><ele>336.0</ele><time>2026-04-19T10:32:49.999Z</time></trkpt><trkpt lat="44.83669189022136" lon="7.974481121525351"><ele>336.0</ele><time>2026-04-19T10:32:50.999Z</time></trkpt><trkpt lat="44.836563088408745" lon="7.974607232962542"><ele>336.0</ele><time>2026-04-19T10:32:51.999Z</time></trkpt><trkpt lat="44.83643761121952" lon="7.97473373990886"><ele>336.6666666666667</ele><time>2026-04-19T10:32:52.999Z</time></trkpt><trkpt lat="44.836310967451716" lon="7.974857994011612"><ele>337.33333333333337</ele><time>2026-04-19T10:32:53.999Z</time></trkpt><trkpt lat="44.8361848072763" lon="7.974982456621577"><ele>338.0</ele><time>2026-04-19T10:32:54.999Z</time></trkpt><trkpt lat="44.83606214133018" lon="7.97510693256689"><ele>342.0</ele><time>2026-04-19T10:32:55.999Z</time></trkpt><trkpt lat="44.835934955530014" lon="7.975228940481657"><ele>346.0</ele><time>2026-04-19T10:32:56.999Z</time></trkpt><trkpt lat="44.83581774319299" lon="7.97535098781844"><ele>350.0</ele><time>2026-04-19T10:32:57.999Z</time></trkpt><trkpt lat="44.83570088092907" lon="7.975468043069726"><ele>354.0</ele><time>2026-04-19T10:32:58.999Z</time></trkpt><trkpt lat="44.8355796025921" lon="7.975584303317794"><ele>354.0</ele><time>2026-04-19T10:32:59.999Z</time></trkpt><trkpt lat="44.83545799488729" lon="7.975698187856018"><ele>354.0</ele><time>2026-04-19T10:33:00.999Z</time></trkpt><trkpt lat="44.835338411199636" lon="7.975821857324652"><ele>354.0</ele><time>2026-04-19T10:33:01.999Z</time></trkpt><trkpt lat="44.835224344295" lon="7.97596198556286"><ele>354.0</ele><time>2026-04-19T10:33:02.999Z</time></trkpt><trkpt lat="44.83511087536946" lon="7.976105361811409"><ele>354.6666666666667</ele><time>2026-04-19T10:33:03.999Z</time></trkpt><trkpt lat="44.83499664157606" lon="7.976257606203393"><ele>355.33333333333337</ele><time>2026-04-19T10:33:04.999Z</time></trkpt><trkpt lat="44.83488534820506" lon="7.976414193180209"><ele>356.0</ele><time>2026-04-19T10:33:05.999Z</time></trkpt><trkpt lat="44.83477550649837" lon="7.97656640708672"><ele>355.5</ele><time>2026-04-19T10:33:06.999Z</time></trkpt><trkpt lat="44.834664251702" lon="7.9767055749415485"><ele>355.0</ele><time>2026-04-19T10:33:07.999Z</time></trkpt><trkpt lat="44.83455017604888" lon="7.976824769541495"><ele>354.5</ele><time>2026-04-19T10:33:08.999Z</time></trkpt><trkpt lat="44.83442724221568" lon="7.976907084918131"><ele>354.0</ele><time>2026-04-19T10:33:09.999Z</time></trkpt><trkpt lat="44.83426939728718" lon="7.976965957935359"><ele>354.0</ele><time>2026-04-19T10:33:10.999Z</time></trkpt><trkpt lat="44.834099959947686" lon="7.97700227828114"><ele>354.0</ele><time>2026-04-19T10:33:11.999Z</time></trkpt><trkpt lat="44.833947060590916" lon="7.977045716092998"><ele>354.0</ele><time>2026-04-19T10:33:12.999Z</time></trkpt><trkpt lat="44.83380069151048" lon="7.977074368269289"><ele>354.0</ele><time>2026-04-19T10:33:14Z</time></trkpt><trkpt lat="44.833657520776555" lon="7.977088167893913"><ele>354.0</ele><time>2026-04-19T10:33:15Z</time></trkpt><trkpt lat="44.83350611472915" lon="7.977092246416268"><ele>354.0</ele><time>2026-04-19T10:33:16Z</time></trkpt><trkpt lat="44.833350496697044" lon="7.977066778780149"><ele>355.3333333333333</ele><time>2026-04-19T10:33:17Z</time></trkpt><trkpt lat="44.833189259200246" lon="7.9770587035706235"><ele>356.66666666666663</ele><time>2026-04-19T10:33:18Z</time></trkpt><trkpt lat="44.833026794207306" lon="7.977053688116626"><ele>358.0</ele><time>2026-04-19T10:33:19Z</time></trkpt><trkpt lat="44.83287335967032" lon="7.977065086823905"><ele>358.0</ele><time>2026-04-19T10:33:20Z</time></trkpt><trkpt lat="44.83272404486732" lon="7.9770860424734416"><ele>358.0</ele><time>2026-04-19T10:33:21Z</time></trkpt><trkpt lat="44.832587705672275" lon="7.977100907144026"><ele>358.0</ele><time>2026-04-19T10:33:22Z</time></trkpt><trkpt lat="44.832455893003285" lon="7.977097377528264"><ele>358.0</ele><time>2026-04-19T10:33:23Z</time></trkpt><trkpt lat="44.83232011166309" lon="7.977060956322321"><ele>357.5</ele><time>2026-04-19T10:33:24Z</time></trkpt><trkpt lat="44.832197227519366" lon="7.97700447357761"><ele>357.0</ele><time>2026-04-19T10:33:25Z</time></trkpt><trkpt lat="44.83208190468567" lon="7.976959069455444"><ele>356.5</ele><time>2026-04-19T10:33:26Z</time></trkpt><trkpt lat="44.83196669939074" lon="7.9769172529189705"><ele>356.0</ele><time>2026-04-19T10:33:27Z</time></trkpt><trkpt lat="44.831855689352686" lon="7.976889156966787"><ele>355.25</ele><time>2026-04-19T10:33:28Z</time></trkpt><trkpt lat="44.831741542630915" lon="7.976902591943305"><ele>354.5</ele><time>2026-04-19T10:33:29Z</time></trkpt><trkpt lat="44.83163673030023" lon="7.97696460851706"><ele>353.75</ele><time>2026-04-19T10:33:30Z</time></trkpt><trkpt lat="44.83154664083127" lon="7.977072942711107"><ele>353.0</ele><time>2026-04-19T10:33:31Z</time></trkpt><trkpt lat="44.831481110362354" lon="7.977203117151045"><ele>353.0</ele><time>2026-04-19T10:33:32Z</time></trkpt><trkpt lat="44.831419921170216" lon="7.977326451145966"><ele>353.0</ele><time>2026-04-19T10:33:33Z</time></trkpt><trkpt lat="44.8313589271313" lon="7.977438071863946"><ele>353.0</ele><time>2026-04-19T10:33:34Z</time></trkpt><trkpt lat="44.83128778409446" lon="7.977525959625948"><ele>353.0</ele><time>2026-04-19T10:33:35Z</time></trkpt><trkpt lat="44.831194257900854" lon="7.977563329341599"><ele>353.0</ele><time>2026-04-19T10:33:36Z</time></trkpt><trkpt lat="44.831094445655516" lon="7.9775457159210275"><ele>353.0</ele><time>2026-04-19T10:33:37Z</time></trkpt><trkpt lat="44.83099248392978" lon="7.9774692405763945"><ele>353.0</ele><time>2026-04-19T10:33:38Z</time></trkpt><trkpt lat="44.83089098628541" lon="7.977356670563942"><ele>353.0</ele><time>2026-04-19T10:33:39Z</time></trkpt><trkpt lat="44.83078058762189" lon="7.977251282695219"><ele>353.0</ele><time>2026-04-19T10:33:40Z</time></trkpt><trkpt lat="44.830674248073635" lon="7.977162534132241"><ele>352.25</ele><time>2026-04-19T10:33:41Z</time></trkpt><trkpt lat="44.830557808505816" lon="7.977081436571138"><ele>351.5</ele><time>2026-04-19T10:33:42Z</time></trkpt><trkpt lat="44.83042709978775" lon="7.9770157384585705"><ele>350.75</ele><time>2026-04-19T10:33:43Z</time></trkpt><trkpt lat="44.83028982780754" lon="7.976980000043839"><ele>350.0</ele><time>2026-04-19T10:33:44Z</time></trkpt><trkpt lat="44.83015046672479" lon="7.976994195779822"><ele>350.33333333333337</ele><time>2026-04-19T10:33:45Z</time></trkpt><trkpt lat="44.83000794880361" lon="7.977043894324108"><ele>350.6666666666667</ele><time>2026-04-19T10:33:46Z</time></trkpt><trkpt lat="44.8298522677499" lon="7.9771227466331665"><ele>351.0</ele><time>2026-04-19T10:33:47Z</time></trkpt><trkpt lat="44.82970533134048" lon="7.977201274913597"><ele>351.0</ele><time>2026-04-19T10:33:48Z</time></trkpt><trkpt lat="44.829575272939415" lon="7.977268137552548"><ele>351.0</ele><time>2026-04-19T10:33:49Z</time></trkpt><trkpt lat="44.82944772055763" lon="7.977329335376685"><ele>351.0</ele><time>2026-04-19T10:33:50Z</time></trkpt><trkpt lat="44.82933915139416" lon="7.977410382801578"><ele>351.0</ele><time>2026-04-19T10:33:51Z</time></trkpt><trkpt lat="44.82925633297429" lon="7.977529271694019"><ele>353.75</ele><time>2026-04-19T10:33:52Z</time></trkpt><trkpt lat="44.82919244828694" lon="7.977679668159885"><ele>356.5</ele><time>2026-04-19T10:33:53Z</time></trkpt><trkpt lat="44.82915148722978" lon="7.977883900340636"><ele>359.25</ele><time>2026-04-19T10:33:54Z</time></trkpt><trkpt lat="44.82911945193644" lon="7.978112002252209"><ele>362.0</ele><time>2026-04-19T10:33:55Z</time></trkpt><trkpt lat="44.82907722455099" lon="7.978307356962836"><ele>359.25</ele><time>2026-04-19T10:33:56Z</time></trkpt><trkpt lat="44.829022072850776" lon="7.978435233389204"><ele>356.5</ele><time>2026-04-19T10:33:57Z</time></trkpt><trkpt lat="44.82893014147267" lon="7.978519624140435"><ele>353.75</ele><time>2026-04-19T10:33:58Z</time></trkpt><trkpt lat="44.82881750222048" lon="7.978600738842399"><ele>351.0</ele><time>2026-04-19T10:33:59Z</time></trkpt><trkpt lat="44.828706099794445" lon="7.978691788453011"><ele>351.0</ele><time>2026-04-19T10:34:00Z</time></trkpt><trkpt lat="44.828630642682946" lon="7.978807141239254"><ele>351.0</ele><time>2026-04-19T10:34:01Z</time></trkpt><trkpt lat="44.828582474530265" lon="7.978924490382255"><ele>351.0</ele><time>2026-04-19T10:34:02Z</time></trkpt><trkpt lat="44.82853931796659" lon="7.979026880369874"><ele>351.0</ele><time>2026-04-19T10:34:03Z</time></trkpt><trkpt lat="44.828496569653424" lon="7.979110772416772"><ele>351.0</ele><time>2026-04-19T10:34:04Z</time></trkpt><trkpt lat="44.828442567695674" lon="7.979223480504212"><ele>350.8</ele><time>2026-04-19T10:34:06Z</time></trkpt><trkpt lat="44.82846929218458" lon="7.9793106161750975"><ele>350.6</ele><time>2026-04-19T10:34:07Z</time></trkpt><trkpt lat="44.82852003287225" lon="7.979427204978369"><ele>350.4</ele><time>2026-04-19T10:34:08Z</time></trkpt><trkpt lat="44.828573111386255" lon="7.979565711942749"><ele>350.2</ele><time>2026-04-19T10:34:09Z</time></trkpt><trkpt lat="44.828635768153084" lon="7.9796852722749625"><ele>350.0</ele><time>2026-04-19T10:34:10Z</time></trkpt><trkpt lat="44.82870273393349" lon="7.979789638718928"><ele>350.0</ele><time>2026-04-19T10:34:11Z</time></trkpt><trkpt lat="44.82876996919668" lon="7.9798904468962055"><ele>350.0</ele><time>2026-04-19T10:34:12Z</time></trkpt><trkpt lat="44.82882689237427" lon="7.980000963096638"><ele>350.0</ele><time>2026-04-19T10:34:13Z</time></trkpt><trkpt lat="44.828870742458896" lon="7.980130682193113"><ele>350.0</ele><time>2026-04-19T10:34:14Z</time></trkpt><trkpt lat="44.828895856644124" lon="7.980274026896796"><ele>350.0</ele><time>2026-04-19T10:34:15Z</time></trkpt><trkpt lat="44.82891423453478" lon="7.980423942594014"><ele>349.0</ele><time>2026-04-19T10:34:16Z</time></trkpt><trkpt lat="44.828927242490344" lon="7.980560115617304"><ele>348.0</ele><time>2026-04-19T10:34:17Z</time></trkpt><trkpt lat="44.8289798965669" lon="7.980677615524092"><ele>347.0</ele><time>2026-04-19T10:34:18Z</time></trkpt><trkpt lat="44.82905220150018" lon="7.980769274064657"><ele>346.0</ele><time>2026-04-19T10:34:19Z</time></trkpt><trkpt lat="44.8291209782051" lon="7.980836095720467"><ele>345.0</ele><time>2026-04-19T10:34:20Z</time></trkpt><trkpt lat="44.82921928585302" lon="7.980923906071096"><ele>344.75</ele><time>2026-04-19T10:34:22Z</time></trkpt><trkpt lat="44.82933430941984" lon="7.980987513691552"><ele>344.5</ele><time>2026-04-19T10:34:24Z</time></trkpt><trkpt lat="44.82945909206587" lon="7.98100059472188"><ele>344.25</ele><time>2026-04-19T10:34:26Z</time></trkpt><trkpt lat="44.82956796598206" lon="7.980938076583361"><ele>344.0</ele><time>2026-04-19T10:34:28Z</time></trkpt><trkpt lat="44.8296998004414" lon="7.980867178557145"><ele>344.0</ele><time>2026-04-19T10:34:29.999Z</time></trkpt><trkpt lat="44.82977476873507" lon="7.980836696111301"><ele>344.0</ele><time>2026-04-19T10:34:30.999Z</time></trkpt><trkpt lat="44.829883344252835" lon="7.9808492335240055"><ele>344.0</ele><time>2026-04-19T10:34:32.999Z</time></trkpt><trkpt lat="44.829914189100144" lon="7.980959356623293"><ele>344.0</ele><time>2026-04-19T10:34:33.999Z</time></trkpt><trkpt lat="44.82994186150579" lon="7.981050125544891"><ele>344.0</ele><time>2026-04-19T10:34:34.999Z</time></trkpt><trkpt lat="44.83001193925609" lon="7.981096780006717"><ele>344.0</ele><time>2026-04-19T10:34:35.999Z</time></trkpt><trkpt lat="44.830118169004216" lon="7.9810780033031445"><ele>345.4</ele><time>2026-04-19T10:34:36.999Z</time></trkpt><trkpt lat="44.83021082265571" lon="7.981043420763556"><ele>346.79999999999995</ele><time>2026-04-19T10:34:37.999Z</time></trkpt><trkpt lat="44.83028760544186" lon="7.980972054556387"><ele>348.20000000000005</ele><time>2026-04-19T10:34:38.999Z</time></trkpt><trkpt lat="44.830337118070936" lon="7.980861998906807"><ele>349.6</ele><time>2026-04-19T10:34:39.999Z</time></trkpt><trkpt lat="44.83035470086611" lon="7.980729002765199"><ele>351.0</ele><time>2026-04-19T10:34:40.999Z</time></trkpt><trkpt lat="44.83035557102237" lon="7.980588451853423"><ele>351.5</ele><time>2026-04-19T10:34:41.999Z</time></trkpt><trkpt lat="44.83036269500122" lon="7.980454238667786"><ele>352.0</ele><time>2026-04-19T10:34:42.999Z</time></trkpt><trkpt lat="44.83037404961201" lon="7.980341933414443"><ele>352.5</ele><time>2026-04-19T10:34:43.999Z</time></trkpt><trkpt lat="44.83029930485216" lon="7.98028358857856"><ele>353.0</ele><time>2026-04-19T10:34:45.999Z</time></trkpt><trkpt lat="44.83025189263475" lon="7.980374139726992"><ele>353.5</ele><time>2026-04-19T10:34:46.999Z</time></trkpt><trkpt lat="44.83024199872867" lon="7.980493281040358"><ele>354.0</ele><time>2026-04-19T10:34:47.999Z</time></trkpt><trkpt lat="44.830216948563326" lon="7.980581192673962"><ele>352.0</ele><time>2026-04-19T10:34:48.999Z</time></trkpt><trkpt lat="44.83012495396552" lon="7.980482437331172"><ele>350.0</ele><time>2026-04-19T10:34:50.999Z</time></trkpt><trkpt lat="44.83012603817126" lon="7.9803387502991985"><ele>348.0</ele><time>2026-04-19T10:34:51.999Z</time></trkpt><trkpt lat="44.83012362146971" lon="7.980201446467389"><ele>346.0</ele><time>2026-04-19T10:34:52.999Z</time></trkpt><trkpt lat="44.83009455223162" lon="7.980083962793125"><ele>344.0</ele><time>2026-04-19T10:34:53.999Z</time></trkpt><trkpt lat="44.830066483159015" lon="7.979976546559861"><ele>342.2</ele><time>2026-04-19T10:34:54.999Z</time></trkpt><trkpt lat="44.8300705774207" lon="7.9798029522279865"><ele>340.4</ele><time>2026-04-19T10:34:56.999Z</time></trkpt><trkpt lat="44.83014288654763" lon="7.979664389767161"><ele>338.6</ele><time>2026-04-19T10:34:58.999Z</time></trkpt><trkpt lat="44.83019929284446" lon="7.979601463768403"><ele>336.8</ele><time>2026-04-19T10:34:59.999Z</time></trkpt><trkpt lat="44.83023569822693" lon="7.979521653262395"><ele>335.0</ele><time>2026-04-19T10:35:00.999Z</time></trkpt><trkpt lat="44.83023644229792" lon="7.979395577703059"><ele>335.0</ele><time>2026-04-19T10:35:01.999Z</time></trkpt><trkpt lat="44.83024949034499" lon="7.979261922050108"><ele>335.0</ele><time>2026-04-19T10:35:02.999Z</time></trkpt><trkpt lat="44.83030335403309" lon="7.979173725423034"><ele>335.0</ele><time>2026-04-19T10:35:03.999Z</time></trkpt><trkpt lat="44.8303867665362" lon="7.979126748342371"><ele>335.0</ele><time>2026-04-19T10:35:04.999Z</time></trkpt><trkpt lat="44.830476698065304" lon="7.9790925911836235"><ele>335.0</ele><time>2026-04-19T10:35:05.999Z</time></trkpt><trkpt lat="44.83055980221487" lon="7.9790373525216"><ele>332.83333333333337</ele><time>2026-04-19T10:35:06.999Z</time></trkpt><trkpt lat="44.83062492090261" lon="7.979019226271689"><ele>330.6666666666667</ele><time>2026-04-19T10:35:07.999Z</time></trkpt><trkpt lat="44.83072554198733" lon="7.979037260877513"><ele>328.5</ele><time>2026-04-19T10:35:09.999Z</time></trkpt><trkpt lat="44.83080853084293" lon="7.9790611064650765"><ele>326.3333333333333</ele><time>2026-04-19T10:35:10.999Z</time></trkpt><trkpt lat="44.830898274551785" lon="7.979068345993922"><ele>324.16666666666663</ele><time>2026-04-19T10:35:11.999Z</time></trkpt><trkpt lat="44.830993552822875" lon="7.979072947048882"><ele>322.0</ele><time>2026-04-19T10:35:12.999Z</time></trkpt><trkpt lat="44.831087804819376" lon="7.979107782505473"><ele>321.66666666666663</ele><time>2026-04-19T10:35:13.999Z</time></trkpt><trkpt lat="44.83117778580432" lon="7.979134856561614"><ele>321.3333333333333</ele><time>2026-04-19T10:35:14.999Z</time></trkpt><trkpt lat="44.831268625566" lon="7.979155065017704"><ele>321.0</ele><time>2026-04-19T10:35:15.999Z</time></trkpt><trkpt lat="44.83135083686316" lon="7.979176844868874"><ele>320.6666666666667</ele><time>2026-04-19T10:35:16.999Z</time></trkpt><trkpt lat="44.831437911427415" lon="7.9792003377909495"><ele>320.33333333333337</ele><time>2026-04-19T10:35:17.999Z</time></trkpt><trkpt lat="44.83152937755585" lon="7.9791992520939194"><ele>320.0</ele><time>2026-04-19T10:35:18.999Z</time></trkpt><trkpt lat="44.83161282266568" lon="7.979201264057813"><ele>321.1666666666667</ele><time>2026-04-19T10:35:20Z</time></trkpt><trkpt lat="44.831690631708106" lon="7.979245664751441"><ele>322.33333333333337</ele><time>2026-04-19T10:35:21Z</time></trkpt><trkpt lat="44.83176517660228" lon="7.979321616859299"><ele>323.5</ele><time>2026-04-19T10:35:22Z</time></trkpt><trkpt lat="44.83184054871182" lon="7.979403869304525"><ele>324.6666666666667</ele><time>2026-04-19T10:35:23Z</time></trkpt><trkpt lat="44.83190836856374" lon="7.979434428234162"><ele>325.8333333333333</ele><time>2026-04-19T10:35:24Z</time></trkpt><trkpt lat="44.83200102233512" lon="7.979429631724357"><ele>327.0</ele><time>2026-04-19T10:35:25Z</time></trkpt><trkpt lat="44.83212434088104" lon="7.979389075857173"><ele>327.0</ele><time>2026-04-19T10:35:26Z</time></trkpt><trkpt lat="44.83225392939208" lon="7.979366047604301"><ele>327.0</ele><time>2026-04-19T10:35:27Z</time></trkpt><trkpt lat="44.83237946818129" lon="7.979352869009881"><ele>327.0</ele><time>2026-04-19T10:35:28Z</time></trkpt><trkpt lat="44.832507079341376" lon="7.979351305903517"><ele>327.0</ele><time>2026-04-19T10:35:29Z</time></trkpt><trkpt lat="44.832623889507694" lon="7.979375994489772"><ele>325.20000000000005</ele><time>2026-04-19T10:35:30Z</time></trkpt><trkpt lat="44.832744662132306" lon="7.979406732167414"><ele>323.40000000000003</ele><time>2026-04-19T10:35:31Z</time></trkpt><trkpt lat="44.83285723988369" lon="7.979426286434571"><ele>321.6</ele><time>2026-04-19T10:35:32Z</time></trkpt><trkpt lat="44.83296687684289" lon="7.979464899315618"><ele>319.8</ele><time>2026-04-19T10:35:33Z</time></trkpt><trkpt lat="44.83305047736476" lon="7.979521217970463"><ele>318.0</ele><time>2026-04-19T10:35:34Z</time></trkpt><trkpt lat="44.83314340124991" lon="7.979578344227822"><ele>318.0</ele><time>2026-04-19T10:35:35Z</time></trkpt><trkpt lat="44.83323856751055" lon="7.979627020303207"><ele>318.0</ele><time>2026-04-19T10:35:36Z</time></trkpt><trkpt lat="44.83334658271402" lon="7.979640870182243"><ele>318.0</ele><time>2026-04-19T10:35:37Z</time></trkpt><trkpt lat="44.83346700885212" lon="7.979618788270027"><ele>318.0</ele><time>2026-04-19T10:35:38Z</time></trkpt><trkpt lat="44.833563946390306" lon="7.979588405838037"><ele>318.0</ele><time>2026-04-19T10:35:39Z</time></trkpt><trkpt lat="44.83365450281258" lon="7.979631670978012"><ele>317.1666666666667</ele><time>2026-04-19T10:35:40Z</time></trkpt><trkpt lat="44.8337470774843" lon="7.979721244440322"><ele>316.3333333333333</ele><time>2026-04-19T10:35:41Z</time></trkpt><trkpt lat="44.83383240909632" lon="7.97975176758552"><ele>315.5</ele><time>2026-04-19T10:35:42Z</time></trkpt><trkpt lat="44.83391416370911" lon="7.979715577026006"><ele>314.66666666666663</ele><time>2026-04-19T10:35:43Z</time></trkpt><trkpt lat="44.83399029655177" lon="7.979719759272723"><ele>313.8333333333333</ele><time>2026-04-19T10:35:44Z</time></trkpt><trkpt lat="44.8340546897785" lon="7.97979957935668"><ele>313.0</ele><time>2026-04-19T10:35:45Z</time></trkpt><trkpt lat="44.8341255799276" lon="7.979917759669348"><ele>313.0</ele><time>2026-04-19T10:35:46Z</time></trkpt><trkpt lat="44.83423269874748" lon="7.980008685976896"><ele>313.0</ele><time>2026-04-19T10:35:47Z</time></trkpt><trkpt lat="44.83434662491016" lon="7.980068056887296"><ele>313.0</ele><time>2026-04-19T10:35:48Z</time></trkpt><trkpt lat="44.83446901023801" lon="7.980117856885938"><ele>313.0</ele><time>2026-04-19T10:35:49Z</time></trkpt><trkpt lat="44.83458900712842" lon="7.980134662340557"><ele>314.0</ele><time>2026-04-19T10:35:50Z</time></trkpt><trkpt lat="44.8346895797619" lon="7.980185761764717"><ele>315.0</ele><time>2026-04-19T10:35:51Z</time></trkpt><trkpt lat="44.83480403009401" lon="7.9802407274387095"><ele>316.0</ele><time>2026-04-19T10:35:52Z</time></trkpt><trkpt lat="44.83492432429528" lon="7.980281281264531"><ele>317.0</ele><time>2026-04-19T10:35:53Z</time></trkpt><trkpt lat="44.835029458797706" lon="7.980321249099034"><ele>317.0</ele><time>2026-04-19T10:35:54Z</time></trkpt><trkpt lat="44.83511998705465" lon="7.98035655458266"><ele>317.0</ele><time>2026-04-19T10:35:55Z</time></trkpt><trkpt lat="44.83520746769887" lon="7.98037624880911"><ele>317.0</ele><time>2026-04-19T10:35:56Z</time></trkpt><trkpt lat="44.835292424806696" lon="7.980388421868421"><ele>317.0</ele><time>2026-04-19T10:35:57Z</time></trkpt><trkpt lat="44.83542494599551" lon="7.980261777476164"><ele>317.0</ele><time>2026-04-19T10:35:59Z</time></trkpt><trkpt lat="44.83547158704918" lon="7.980168732104258"><ele>317.6</ele><time>2026-04-19T10:36:00Z</time></trkpt><trkpt lat="44.83554836823049" lon="7.980146171585835"><ele>318.2</ele><time>2026-04-19T10:36:01Z</time></trkpt><trkpt lat="44.835652467876834" lon="7.9801549162565175"><ele>318.8</ele><time>2026-04-19T10:36:02Z</time></trkpt><trkpt lat="44.83576329425691" lon="7.980124875946346"><ele>319.4</ele><time>2026-04-19T10:36:03Z</time></trkpt><trkpt lat="44.835884352963376" lon="7.980098303223469"><ele>320.0</ele><time>2026-04-19T10:36:04Z</time></trkpt><trkpt lat="44.83599624498884" lon="7.980077277208995"><ele>320.25</ele><time>2026-04-19T10:36:05Z</time></trkpt><trkpt lat="44.836113347524474" lon="7.9800476740856015"><ele>320.5</ele><time>2026-04-19T10:36:06Z</time></trkpt><trkpt lat="44.836223826871986" lon="7.980019875516899"><ele>320.75</ele><time>2026-04-19T10:36:07Z</time></trkpt><trkpt lat="44.836340057119706" lon="7.980015945016771"><ele>321.0</ele><time>2026-04-19T10:36:08Z</time></trkpt><trkpt lat="44.83645111649229" lon="7.980017208571459"><ele>321.0</ele><time>2026-04-19T10:36:09Z</time></trkpt><trkpt lat="44.83654279169155" lon="7.98003301959253"><ele>321.0</ele><time>2026-04-19T10:36:10Z</time></trkpt><trkpt lat="44.83662922173153" lon="7.980041271723301"><ele>321.0</ele><time>2026-04-19T10:36:11Z</time></trkpt><trkpt lat="44.836716190488175" lon="7.980033092480275"><ele>321.0</ele><time>2026-04-19T10:36:12Z</time></trkpt><trkpt lat="44.83680725657417" lon="7.980013379155571"><ele>321.0</ele><time>2026-04-19T10:36:13Z</time></trkpt><trkpt lat="44.83689959646589" lon="7.979997910720114"><ele>320.3333333333333</ele><time>2026-04-19T10:36:14Z</time></trkpt><trkpt lat="44.83699659796897" lon="7.979989097777616"><ele>319.6666666666667</ele><time>2026-04-19T10:36:15Z</time></trkpt><trkpt lat="44.83708843833357" lon="7.979988747049103"><ele>319.0</ele><time>2026-04-19T10:36:16Z</time></trkpt><trkpt lat="44.83717965630591" lon="7.980009731773814"><ele>318.33333333333337</ele><time>2026-04-19T10:36:17Z</time></trkpt><trkpt lat="44.8372639271636" lon="7.9800299102642125"><ele>317.6666666666667</ele><time>2026-04-19T10:36:18Z</time></trkpt><trkpt lat="44.83732788555035" lon="7.980028891666133"><ele>317.0</ele><time>2026-04-19T10:36:19Z</time></trkpt><trkpt lat="44.837398016209775" lon="7.97995304416088"><ele>313.8</ele><time>2026-04-19T10:36:20Z</time></trkpt><trkpt lat="44.837471724438636" lon="7.97987461724402"><ele>310.6</ele><time>2026-04-19T10:36:21Z</time></trkpt><trkpt lat="44.837582709901945" lon="7.97987042120813"><ele>307.40000000000003</ele><time>2026-04-19T10:36:22Z</time></trkpt><trkpt lat="44.83771001367042" lon="7.979887596758892"><ele>304.2</ele><time>2026-04-19T10:36:23Z</time></trkpt><trkpt lat="44.837818435121804" lon="7.97988837198634"><ele>301.0</ele><time>2026-04-19T10:36:24Z</time></trkpt><trkpt lat="44.837909020846254" lon="7.979906994162161"><ele>300.8</ele><time>2026-04-19T10:36:25Z</time></trkpt><trkpt lat="44.837998029992676" lon="7.979949960117308"><ele>300.6</ele><time>2026-04-19T10:36:26Z</time></trkpt><trkpt lat="44.83808893948371" lon="7.980012736321972"><ele>300.4</ele><time>2026-04-19T10:36:27Z</time></trkpt><trkpt lat="44.838169854320064" lon="7.980082653196403"><ele>300.2</ele><time>2026-04-19T10:36:28Z</time></trkpt><trkpt lat="44.83824565111788" lon="7.980146144657123"><ele>300.0</ele><time>2026-04-19T10:36:29Z</time></trkpt><trkpt lat="44.838299113066974" lon="7.980220172814068"><ele>300.5</ele><time>2026-04-19T10:36:30Z</time></trkpt><trkpt lat="44.838349646224465" lon="7.98033148046476"><ele>301.0</ele><time>2026-04-19T10:36:31Z</time></trkpt><trkpt lat="44.83839915498072" lon="7.980427350899254"><ele>301.5</ele><time>2026-04-19T10:36:32Z</time></trkpt><trkpt lat="44.838452546020285" lon="7.980499681942295"><ele>302.0</ele><time>2026-04-19T10:36:33Z</time></trkpt><trkpt lat="44.838510274719034" lon="7.980563686509008"><ele>302.5</ele><time>2026-04-19T10:36:34Z</time></trkpt><trkpt lat="44.838581412093056" lon="7.980642380317706"><ele>303.0</ele><time>2026-04-19T10:36:35Z</time></trkpt><trkpt lat="44.83865343219122" lon="7.980725264256181"><ele>301.0</ele><time>2026-04-19T10:36:36Z</time></trkpt><trkpt lat="44.838732231472676" lon="7.980785061587744"><ele>299.0</ele><time>2026-04-19T10:36:37Z</time></trkpt><trkpt lat="44.83881062354517" lon="7.980826939105904"><ele>297.0</ele><time>2026-04-19T10:36:38Z</time></trkpt><trkpt lat="44.83895633922475" lon="7.980775626230185"><ele>295.0</ele><time>2026-04-19T10:36:40Z</time></trkpt><trkpt lat="44.83907424519947" lon="7.980754708017167"><ele>293.0</ele><time>2026-04-19T10:36:41Z</time></trkpt><trkpt lat="44.83919365023488" lon="7.980766569081518"><ele>293.0</ele><time>2026-04-19T10:36:41.999Z</time></trkpt><trkpt lat="44.83929221205844" lon="7.9807442630971845"><ele>293.0</ele><time>2026-04-19T10:36:42.999Z</time></trkpt><trkpt lat="44.83939091177409" lon="7.98069184416477"><ele>293.0</ele><time>2026-04-19T10:36:43.999Z</time></trkpt><trkpt lat="44.83948980735338" lon="7.980648755420001"><ele>293.0</ele><time>2026-04-19T10:36:44.999Z</time></trkpt><trkpt lat="44.83958831512081" lon="7.980606287215812"><ele>293.0</ele><time>2026-04-19T10:36:45.999Z</time></trkpt><trkpt lat="44.83968294188746" lon="7.980564265831206"><ele>292.6666666666667</ele><time>2026-04-19T10:36:46.999Z</time></trkpt><trkpt lat="44.8397664501749" lon="7.98053662354079"><ele>292.33333333333337</ele><time>2026-04-19T10:36:47.999Z</time></trkpt><trkpt lat="44.83985908454623" lon="7.980505424953164"><ele>292.0</ele><time>2026-04-19T10:36:48.999Z</time></trkpt><trkpt lat="44.839940386053165" lon="7.980489956992791"><ele>291.6666666666667</ele><time>2026-04-19T10:36:49.999Z</time></trkpt><trkpt lat="44.840008968355775" lon="7.9804833640243364"><ele>291.3333333333333</ele><time>2026-04-19T10:36:50.999Z</time></trkpt><trkpt lat="44.84008143793251" lon="7.9804903129757205"><ele>291.0</ele><time>2026-04-19T10:36:51.999Z</time></trkpt><trkpt lat="44.8401650805543" lon="7.980496383917846"><ele>290.8</ele><time>2026-04-19T10:36:52.999Z</time></trkpt><trkpt lat="44.840273356737185" lon="7.980514502302186"><ele>290.6</ele><time>2026-04-19T10:36:53.999Z</time></trkpt><trkpt lat="44.840379262286696" lon="7.980553658503141"><ele>290.4</ele><time>2026-04-19T10:36:54.999Z</time></trkpt><trkpt lat="44.84047377249227" lon="7.980583456943452"><ele>290.2</ele><time>2026-04-19T10:36:55.999Z</time></trkpt><trkpt lat="44.84056470076076" lon="7.980594613355278"><ele>290.0</ele><time>2026-04-19T10:36:56.999Z</time></trkpt><trkpt lat="44.84066165185841" lon="7.980592890019602"><ele>290.0</ele><time>2026-04-19T10:36:57.999Z</time></trkpt><trkpt lat="44.84075747647771" lon="7.98056470626938"><ele>290.0</ele><time>2026-04-19T10:36:58.999Z</time></trkpt><trkpt lat="44.84084795283108" lon="7.9805050547476055"><ele>290.0</ele><time>2026-04-19T10:36:59.999Z</time></trkpt><trkpt lat="44.84093597042516" lon="7.9804442829276345"><ele>290.0</ele><time>2026-04-19T10:37:00.999Z</time></trkpt><trkpt lat="44.841013957531814" lon="7.98040608576662"><ele>290.0</ele><time>2026-04-19T10:37:01.999Z</time></trkpt><trkpt lat="44.841099564863136" lon="7.980393136791783"><ele>289.1666666666667</ele><time>2026-04-19T10:37:02.999Z</time></trkpt><trkpt lat="44.84119525447647" lon="7.98037369258367"><ele>288.33333333333337</ele><time>2026-04-19T10:37:03.999Z</time></trkpt><trkpt lat="44.84128400573285" lon="7.980322007632582"><ele>287.5</ele><time>2026-04-19T10:37:04.999Z</time></trkpt><trkpt lat="44.84136376899784" lon="7.980238763075829"><ele>286.6666666666667</ele><time>2026-04-19T10:37:05.999Z</time></trkpt><trkpt lat="44.84142884924324" lon="7.9801693691047415"><ele>285.8333333333333</ele><time>2026-04-19T10:37:06.999Z</time></trkpt><trkpt lat="44.84148781552011" lon="7.980128330894027"><ele>285.0</ele><time>2026-04-19T10:37:08.999Z</time></trkpt><trkpt lat="44.84151411265149" lon="7.980233125296761"><ele>285.0</ele><time>2026-04-19T10:37:13.999Z</time></trkpt><trkpt lat="44.841482991664115" lon="7.9804044169905195"><ele>285.0</ele><time>2026-04-19T10:37:15.999Z</time></trkpt><trkpt lat="44.84146171334273" lon="7.9805324409922616"><ele>285.0</ele><time>2026-04-19T10:37:16.999Z</time></trkpt><trkpt lat="44.84144863642524" lon="7.9806927978083095"><ele>285.0</ele><time>2026-04-19T10:37:17.999Z</time></trkpt><trkpt lat="44.841443517017815" lon="7.980854283078923"><ele>285.0</ele><time>2026-04-19T10:37:18.999Z</time></trkpt><trkpt lat="44.841427481617316" lon="7.980982777844615"><ele>287.2</ele><time>2026-04-19T10:37:19.999Z</time></trkpt><trkpt lat="44.841401925167965" lon="7.981109183433913"><ele>289.4</ele><time>2026-04-19T10:37:20.999Z</time></trkpt><trkpt lat="44.841349499646746" lon="7.9812202626566435"><ele>291.6</ele><time>2026-04-19T10:37:21.999Z</time></trkpt><trkpt lat="44.841283786124976" lon="7.981339086464418"><ele>293.8</ele><time>2026-04-19T10:37:22.999Z</time></trkpt><trkpt lat="44.84119945935363" lon="7.981513899237561"><ele>296.0</ele><time>2026-04-19T10:37:23.999Z</time></trkpt><trkpt lat="44.841134594442146" lon="7.981669615199964"><ele>299.0</ele><time>2026-04-19T10:37:24.999Z</time></trkpt><trkpt lat="44.841087988363846" lon="7.9817847194762415"><ele>302.0</ele><time>2026-04-19T10:37:26Z</time></trkpt><trkpt lat="44.841060957794305" lon="7.981898600059877"><ele>305.0</ele><time>2026-04-19T10:37:27Z</time></trkpt><trkpt lat="44.84104619338464" lon="7.982044323378957"><ele>308.0</ele><time>2026-04-19T10:37:28Z</time></trkpt><trkpt lat="44.84102367030479" lon="7.982214787229345"><ele>311.0</ele><time>2026-04-19T10:37:29Z</time></trkpt><trkpt lat="44.84099914223994" lon="7.982375674620399"><ele>311.6</ele><time>2026-04-19T10:37:30Z</time></trkpt><trkpt lat="44.840982771216915" lon="7.98254240088497"><ele>312.20000000000005</ele><time>2026-04-19T10:37:31Z</time></trkpt><trkpt lat="44.84097465154459" lon="7.982686677966433"><ele>312.79999999999995</ele><time>2026-04-19T10:37:32Z</time></trkpt><trkpt lat="44.84096556350115" lon="7.982802549523254"><ele>313.4</ele><time>2026-04-19T10:37:33Z</time></trkpt><trkpt lat="44.84097910082477" lon="7.982937039806538"><ele>314.0</ele><time>2026-04-19T10:37:35Z</time></trkpt><trkpt lat="44.840996453498036" lon="7.983030707184835"><ele>315.5</ele><time>2026-04-19T10:37:36Z</time></trkpt><trkpt lat="44.841055113731514" lon="7.983098612850501"><ele>317.0</ele><time>2026-04-19T10:37:38Z</time></trkpt><trkpt lat="44.841132657999296" lon="7.983061210571043"><ele>318.5</ele><time>2026-04-19T10:37:40Z</time></trkpt><trkpt lat="44.841206332213225" lon="7.9830376249085075"><ele>320.0</ele><time>2026-04-19T10:37:41Z</time></trkpt><trkpt lat="44.841278669588455" lon="7.982985017786256"><ele>321.5</ele><time>2026-04-19T10:37:43Z</time></trkpt><trkpt lat="44.841348213522906" lon="7.982903692590187"><ele>323.0</ele><time>2026-04-19T10:37:46Z</time></trkpt><trkpt lat="44.841429401284074" lon="7.982923279028469"><ele>323.0</ele><time>2026-04-19T10:37:48Z</time></trkpt><trkpt lat="44.84146228544119" lon="7.983014577124318"><ele>323.0</ele><time>2026-04-19T10:37:49Z</time></trkpt><trkpt lat="44.84144872858167" lon="7.983175070308649"><ele>323.0</ele><time>2026-04-19T10:37:51Z</time></trkpt><trkpt lat="44.841388776784534" lon="7.9832908335191695"><ele>323.0</ele><time>2026-04-19T10:37:53Z</time></trkpt><trkpt lat="44.841297892924985" lon="7.983382201648514"><ele>323.0</ele><time>2026-04-19T10:37:55Z</time></trkpt><trkpt lat="44.84126015685042" lon="7.983462945789249"><ele>323.33333333333337</ele><time>2026-04-19T10:37:56Z</time></trkpt><trkpt lat="44.84123979655363" lon="7.983632923889901"><ele>323.6666666666667</ele><time>2026-04-19T10:37:58Z</time></trkpt><trkpt lat="44.84122430758741" lon="7.983762059026649"><ele>324.0</ele><time>2026-04-19T10:37:59Z</time></trkpt><trkpt lat="44.841187048394076" lon="7.983840505950559"><ele>324.3333333333333</ele><time>2026-04-19T10:38:00Z</time></trkpt><trkpt lat="44.8411153049493" lon="7.983911936492033"><ele>324.66666666666663</ele><time>2026-04-19T10:38:01Z</time></trkpt><trkpt lat="44.84105673990981" lon="7.983964170301262"><ele>325.0</ele><time>2026-04-19T10:38:02Z</time></trkpt><trkpt lat="44.841009717541795" lon="7.984033019130336"><ele>325.8</ele><time>2026-04-19T10:38:03Z</time></trkpt><trkpt lat="44.8409172509003" lon="7.984149977100425"><ele>326.6</ele><time>2026-04-19T10:38:05Z</time></trkpt><trkpt lat="44.840845061990706" lon="7.984241197978457"><ele>327.4</ele><time>2026-04-19T10:38:06Z</time></trkpt><trkpt lat="44.84079869228219" lon="7.984329370558097"><ele>328.2</ele><time>2026-04-19T10:38:07Z</time></trkpt><trkpt lat="44.84073597275126" lon="7.984458629355023"><ele>329.0</ele><time>2026-04-19T10:38:09Z</time></trkpt><trkpt lat="44.840664377452356" lon="7.98449104794586"><ele>329.2</ele><time>2026-04-19T10:38:10Z</time></trkpt><trkpt lat="44.840572489979635" lon="7.984516295688644"><ele>329.4</ele><time>2026-04-19T10:38:11Z</time></trkpt><trkpt lat="44.840460246517594" lon="7.984538145899386"><ele>329.6</ele><time>2026-04-19T10:38:12Z</time></trkpt><trkpt lat="44.84034251578762" lon="7.984526243959896"><ele>329.8</ele><time>2026-04-19T10:38:13Z</time></trkpt><trkpt lat="44.84022416163746" lon="7.984496448369723"><ele>330.0</ele><time>2026-04-19T10:38:14Z</time></trkpt><trkpt lat="44.84012887228659" lon="7.984470052167979"><ele>330.0</ele><time>2026-04-19T10:38:15Z</time></trkpt><trkpt lat="44.84004779782482" lon="7.98444515724688"><ele>330.0</ele><time>2026-04-19T10:38:16Z</time></trkpt><trkpt lat="44.839950911532455" lon="7.984439821726775"><ele>330.0</ele><time>2026-04-19T10:38:17Z</time></trkpt><trkpt lat="44.83983342514507" lon="7.984445925553974"><ele>330.0</ele><time>2026-04-19T10:38:18Z</time></trkpt><trkpt lat="44.83971544296335" lon="7.984456866364063"><ele>330.0</ele><time>2026-04-19T10:38:19Z</time></trkpt><trkpt lat="44.839612212539194" lon="7.984454596478237"><ele>330.0</ele><time>2026-04-19T10:38:20Z</time></trkpt><trkpt lat="44.83949974435329" lon="7.984462894110018"><ele>330.0</ele><time>2026-04-19T10:38:21Z</time></trkpt><trkpt lat="44.839384022672725" lon="7.9844741231590985"><ele>330.0</ele><time>2026-04-19T10:38:22Z</time></trkpt><trkpt lat="44.839283079447576" lon="7.984469438172779"><ele>330.0</ele><time>2026-04-19T10:38:23Z</time></trkpt><trkpt lat="44.83917982970098" lon="7.984467960619768"><ele>330.0</ele><time>2026-04-19T10:38:24Z</time></trkpt><trkpt lat="44.839103012341454" lon="7.984488459958009"><ele>329.8333333333333</ele><time>2026-04-19T10:38:25Z</time></trkpt><trkpt lat="44.83903385945015" lon="7.984516976629945"><ele>329.6666666666667</ele><time>2026-04-19T10:38:26Z</time></trkpt><trkpt lat="44.83897266030223" lon="7.984612608925952"><ele>329.5</ele><time>2026-04-19T10:38:27Z</time></trkpt><trkpt lat="44.83890997454237" lon="7.984738196298624"><ele>329.33333333333337</ele><time>2026-04-19T10:38:28Z</time></trkpt><trkpt lat="44.83884318792258" lon="7.984849766426466"><ele>329.1666666666667</ele><time>2026-04-19T10:38:29Z</time></trkpt><trkpt lat="44.838827454033996" lon="7.984937272308231"><ele>329.0</ele><time>2026-04-19T10:38:30Z</time></trkpt><trkpt lat="44.838869566365176" lon="7.985039895360844"><ele>329.0</ele><time>2026-04-19T10:38:31Z</time></trkpt><trkpt lat="44.83891937720726" lon="7.985163925592024"><ele>329.0</ele><time>2026-04-19T10:38:32Z</time></trkpt><trkpt lat="44.838862013219966" lon="7.985288175791763"><ele>329.0</ele><time>2026-04-19T10:38:34Z</time></trkpt><trkpt lat="44.838783855536235" lon="7.985362366849591"><ele>329.0</ele><time>2026-04-19T10:38:35Z</time></trkpt><trkpt lat="44.83868055103311" lon="7.985446791238528"><ele>329.0</ele><time>2026-04-19T10:38:36Z</time></trkpt><trkpt lat="44.8386154569772" lon="7.985489892730404"><ele>329.0</ele><time>2026-04-19T10:38:37Z</time></trkpt><trkpt lat="44.838536270015716" lon="7.985483682965777"><ele>329.0</ele><time>2026-04-19T10:38:38Z</time></trkpt><trkpt lat="44.838461371414304" lon="7.985467270522875"><ele>329.0</ele><time>2026-04-19T10:38:39Z</time></trkpt><trkpt lat="44.8383440247032" lon="7.985549985700705"><ele>329.0</ele><time>2026-04-19T10:38:41Z</time></trkpt><trkpt lat="44.838270088205135" lon="7.985643929372916"><ele>329.0</ele><time>2026-04-19T10:38:42Z</time></trkpt><trkpt lat="44.83818519846201" lon="7.985731362909883"><ele>332.5</ele><time>2026-04-19T10:38:43Z</time></trkpt><trkpt lat="44.83811059229043" lon="7.985792087873934"><ele>336.0</ele><time>2026-04-19T10:38:44Z</time></trkpt><trkpt lat="44.8380882506715" lon="7.985880561476855"><ele>339.5</ele><time>2026-04-19T10:38:45Z</time></trkpt><trkpt lat="44.83808542074684" lon="7.98597680747783"><ele>343.0</ele><time>2026-04-19T10:38:46Z</time></trkpt><trkpt lat="44.83807481449285" lon="7.98614178153969"><ele>346.5</ele><time>2026-04-19T10:38:47Z</time></trkpt><trkpt lat="44.83804087467933" lon="7.986277143074882"><ele>350.0</ele><time>2026-04-19T10:38:48Z</time></trkpt><trkpt lat="44.838014836556" lon="7.986407820464455"><ele>350.0</ele><time>2026-04-19T10:38:49Z</time></trkpt><trkpt lat="44.83797482424455" lon="7.986531756279228"><ele>350.0</ele><time>2026-04-19T10:38:50Z</time></trkpt><trkpt lat="44.8379317958654" lon="7.986629820885639"><ele>350.0</ele><time>2026-04-19T10:38:51Z</time></trkpt><trkpt lat="44.837902015988014" lon="7.986714502069526"><ele>350.0</ele><time>2026-04-19T10:38:52.999Z</time></trkpt><trkpt lat="44.83794473482107" lon="7.986786071832092"><ele>350.0</ele><time>2026-04-19T10:38:53.999Z</time></trkpt><trkpt lat="44.83803279837882" lon="7.9869137799084635"><ele>350.0</ele><time>2026-04-19T10:38:54.999Z</time></trkpt><trkpt lat="44.83811525664352" lon="7.987014893378792"><ele>349.0</ele><time>2026-04-19T10:38:55.999Z</time></trkpt><trkpt lat="44.83819888813651" lon="7.98707074713276"><ele>348.0</ele><time>2026-04-19T10:38:56.999Z</time></trkpt><trkpt lat="44.8382878117199" lon="7.987122937981663"><ele>347.0</ele><time>2026-04-19T10:38:57.999Z</time></trkpt><trkpt lat="44.83837154183783" lon="7.987153673781568"><ele>346.0</ele><time>2026-04-19T10:38:58.999Z</time></trkpt><trkpt lat="44.83844395780924" lon="7.987178237549516"><ele>345.0</ele><time>2026-04-19T10:38:59.999Z</time></trkpt><trkpt lat="44.838499640216995" lon="7.987242060674263"><ele>344.0</ele><time>2026-04-19T10:39:00.999Z</time></trkpt><trkpt lat="44.83855751706357" lon="7.987343872609241"><ele>343.0</ele><time>2026-04-19T10:39:01.999Z</time></trkpt><trkpt lat="44.83862712481151" lon="7.987481047914184"><ele>342.0</ele><time>2026-04-19T10:39:02.999Z</time></trkpt><trkpt lat="44.83868913322842" lon="7.9876208666259005"><ele>341.0</ele><time>2026-04-19T10:39:03.999Z</time></trkpt><trkpt lat="44.838736074858986" lon="7.987736714728481"><ele>340.0</ele><time>2026-04-19T10:39:04.999Z</time></trkpt><trkpt lat="44.83881467342436" lon="7.987836032757657"><ele>339.0</ele><time>2026-04-19T10:39:06.999Z</time></trkpt><trkpt lat="44.83887770237341" lon="7.987897678081782"><ele>339.0</ele><time>2026-04-19T10:39:07.999Z</time></trkpt><trkpt lat="44.83894201412117" lon="7.9879903809064805"><ele>339.0</ele><time>2026-04-19T10:39:08.999Z</time></trkpt><trkpt lat="44.83902527133601" lon="7.988099801176197"><ele>339.0</ele><time>2026-04-19T10:39:09.999Z</time></trkpt><trkpt lat="44.83910980237056" lon="7.988188599532913"><ele>339.0</ele><time>2026-04-19T10:39:10.999Z</time></trkpt><trkpt lat="44.83917448099053" lon="7.988219205448535"><ele>339.0</ele><time>2026-04-19T10:39:11.999Z</time></trkpt><trkpt lat="44.83923819437216" lon="7.988230552598781"><ele>339.0</ele><time>2026-04-19T10:39:12.999Z</time></trkpt><trkpt lat="44.83931532548304" lon="7.988236459783387"><ele>338.4</ele><time>2026-04-19T10:39:13.999Z</time></trkpt><trkpt lat="44.8393974344869" lon="7.988235136232646"><ele>337.79999999999995</ele><time>2026-04-19T10:39:14.999Z</time></trkpt><trkpt lat="44.83947061979835" lon="7.988212345290173"><ele>337.20000000000005</ele><time>2026-04-19T10:39:15.999Z</time></trkpt><trkpt lat="44.83957906851016" lon="7.988172543542458"><ele>336.6</ele><time>2026-04-19T10:39:17.999Z</time></trkpt><trkpt lat="44.8397158297711" lon="7.98820241478866"><ele>336.0</ele><time>2026-04-19T10:39:19.999Z</time></trkpt><trkpt lat="44.83980377240788" lon="7.988253396082708"><ele>336.0</ele><time>2026-04-19T10:39:20.999Z</time></trkpt><trkpt lat="44.839885363701946" lon="7.988284589206154"><ele>336.0</ele><time>2026-04-19T10:39:21.999Z</time></trkpt><trkpt lat="44.83995080080661" lon="7.988315276491191"><ele>336.0</ele><time>2026-04-19T10:39:22.999Z</time></trkpt><trkpt lat="44.84001917735095" lon="7.9883369173003995"><ele>336.0</ele><time>2026-04-19T10:39:23.999Z</time></trkpt><trkpt lat="44.84009194341908" lon="7.988368369383348"><ele>336.0</ele><time>2026-04-19T10:39:24.999Z</time></trkpt><trkpt lat="44.84016834104785" lon="7.988434695287252"><ele>336.0</ele><time>2026-04-19T10:39:25.999Z</time></trkpt><trkpt lat="44.8402471036991" lon="7.988481310883566"><ele>333.8333333333333</ele><time>2026-04-19T10:39:26.999Z</time></trkpt><trkpt lat="44.84034050932597" lon="7.988494549747873"><ele>331.6666666666667</ele><time>2026-04-19T10:39:27.999Z</time></trkpt><trkpt lat="44.84042150480782" lon="7.988507221648624"><ele>329.5</ele><time>2026-04-19T10:39:28.999Z</time></trkpt><trkpt lat="44.84049853796045" lon="7.988522029163711"><ele>327.33333333333337</ele><time>2026-04-19T10:39:29.999Z</time></trkpt><trkpt lat="44.84056962497733" lon="7.988494217201172"><ele>325.1666666666667</ele><time>2026-04-19T10:39:30.999Z</time></trkpt><trkpt lat="44.840662287478295" lon="7.98843504025687"><ele>323.0</ele><time>2026-04-19T10:39:32Z</time></trkpt><trkpt lat="44.84074862834091" lon="7.988386392658668"><ele>323.0</ele><time>2026-04-19T10:39:33Z</time></trkpt><trkpt lat="44.84082139418282" lon="7.988381787672569"><ele>323.0</ele><time>2026-04-19T10:39:34Z</time></trkpt><trkpt lat="44.84088889160595" lon="7.988417404840579"><ele>323.0</ele><time>2026-04-19T10:39:35Z</time></trkpt><trkpt lat="44.84095522685736" lon="7.9884832914724235"><ele>323.0</ele><time>2026-04-19T10:39:36Z</time></trkpt><trkpt lat="44.841033492092905" lon="7.988533056447585"><ele>323.0</ele><time>2026-04-19T10:39:37Z</time></trkpt><trkpt lat="44.841114640587065" lon="7.988539447645513"><ele>323.0</ele><time>2026-04-19T10:39:38Z</time></trkpt><trkpt lat="44.84120254856429" lon="7.988523831141909"><ele>322.5</ele><time>2026-04-19T10:39:39Z</time></trkpt><trkpt lat="44.84129212483515" lon="7.988517520509367"><ele>322.0</ele><time>2026-04-19T10:39:40Z</time></trkpt><trkpt lat="44.84136539348119" lon="7.988514237222513"><ele>321.5</ele><time>2026-04-19T10:39:41Z</time></trkpt><trkpt lat="44.84143395105338" lon="7.988491385696233"><ele>321.0</ele><time>2026-04-19T10:39:42Z</time></trkpt><trkpt lat="44.841510530932716" lon="7.98849793766623"><ele>320.5</ele><time>2026-04-19T10:39:43Z</time></trkpt><trkpt lat="44.84159140413065" lon="7.988521485657142"><ele>320.0</ele><time>2026-04-19T10:39:44Z</time></trkpt><trkpt lat="44.841682916545544" lon="7.988531875583834"><ele>320.0</ele><time>2026-04-19T10:39:45Z</time></trkpt><trkpt lat="44.841761541638306" lon="7.988548770900433"><ele>320.0</ele><time>2026-04-19T10:39:46Z</time></trkpt><trkpt lat="44.84183154523092" lon="7.988604081592022"><ele>320.0</ele><time>2026-04-19T10:39:47Z</time></trkpt><trkpt lat="44.841901267760015" lon="7.988666597952909"><ele>320.0</ele><time>2026-04-19T10:39:48Z</time></trkpt><trkpt lat="44.842005224203504" lon="7.988706369266177"><ele>320.0</ele><time>2026-04-19T10:39:49Z</time></trkpt><trkpt lat="44.84212245526764" lon="7.9887320597222145"><ele>320.5</ele><time>2026-04-19T10:39:50Z</time></trkpt><trkpt lat="44.84222000891142" lon="7.98873826660417"><ele>321.0</ele><time>2026-04-19T10:39:51Z</time></trkpt><trkpt lat="44.84231233235968" lon="7.9886771294698935"><ele>321.5</ele><time>2026-04-19T10:39:53Z</time></trkpt><trkpt lat="44.84238979235328" lon="7.988618195495238"><ele>322.0</ele><time>2026-04-19T10:39:54Z</time></trkpt><trkpt lat="44.84247991157063" lon="7.988578772244608"><ele>322.5</ele><time>2026-04-19T10:39:55Z</time></trkpt><trkpt lat="44.84254473491065" lon="7.988556996115596"><ele>323.0</ele><time>2026-04-19T10:39:56Z</time></trkpt><trkpt lat="44.842665705485366" lon="7.988523802407803"><ele>323.0</ele><time>2026-04-19T10:39:58Z</time></trkpt><trkpt lat="44.84279898442032" lon="7.988443512260184"><ele>323.0</ele><time>2026-04-19T10:40:00Z</time></trkpt><trkpt lat="44.84289510548647" lon="7.9883713069608575"><ele>323.0</ele><time>2026-04-19T10:40:01Z</time></trkpt><trkpt lat="44.84300009417332" lon="7.988303453353199"><ele>323.0</ele><time>2026-04-19T10:40:02Z</time></trkpt><trkpt lat="44.84310503896878" lon="7.988235869464186"><ele>323.0</ele><time>2026-04-19T10:40:03Z</time></trkpt><trkpt lat="44.84318853953702" lon="7.988179450840865"><ele>323.0</ele><time>2026-04-19T10:40:04Z</time></trkpt><trkpt lat="44.843249212217515" lon="7.988138686239573"><ele>323.0</ele><time>2026-04-19T10:40:05Z</time></trkpt><trkpt lat="44.843321738854016" lon="7.988167760509785"><ele>323.0</ele><time>2026-04-19T10:40:06Z</time></trkpt><trkpt lat="44.8434093381214" lon="7.988243623052126"><ele>323.0</ele><time>2026-04-19T10:40:07Z</time></trkpt><trkpt lat="44.84349366692242" lon="7.9883661497081455"><ele>318.4</ele><time>2026-04-19T10:40:08Z</time></trkpt><trkpt lat="44.84353961046872" lon="7.9884870213981145"><ele>313.79999999999995</ele><time>2026-04-19T10:40:09Z</time></trkpt><trkpt lat="44.84353387059866" lon="7.988624682425647"><ele>309.2</ele><time>2026-04-19T10:40:10Z</time></trkpt><trkpt lat="44.84350387034971" lon="7.988797415655475"><ele>304.6</ele><time>2026-04-19T10:40:11Z</time></trkpt><trkpt lat="44.84350451330806" lon="7.9889525331374935"><ele>300.0</ele><time>2026-04-19T10:40:12Z</time></trkpt><trkpt lat="44.84350736656612" lon="7.989081813131386"><ele>300.0</ele><time>2026-04-19T10:40:13Z</time></trkpt><trkpt lat="44.84348318663546" lon="7.98916653039358"><ele>300.0</ele><time>2026-04-19T10:40:14Z</time></trkpt><trkpt lat="44.8434041765877" lon="7.989261304835529"><ele>300.0</ele><time>2026-04-19T10:40:15Z</time></trkpt><trkpt lat="44.84333580024963" lon="7.989374709630304"><ele>300.0</ele><time>2026-04-19T10:40:16Z</time></trkpt><trkpt lat="44.84329804855601" lon="7.98950556147787"><ele>300.0</ele><time>2026-04-19T10:40:17Z</time></trkpt><trkpt lat="44.843282944853804" lon="7.989655388402148"><ele>300.4</ele><time>2026-04-19T10:40:18Z</time></trkpt><trkpt lat="44.84327154453294" lon="7.989829509934718"><ele>300.8</ele><time>2026-04-19T10:40:19Z</time></trkpt><trkpt lat="44.84325991666976" lon="7.98997644551561"><ele>301.2</ele><time>2026-04-19T10:40:20Z</time></trkpt><trkpt lat="44.84322325275248" lon="7.99010580672675"><ele>301.6</ele><time>2026-04-19T10:40:21Z</time></trkpt><trkpt lat="44.843184267769246" lon="7.99022622129658"><ele>302.0</ele><time>2026-04-19T10:40:22Z</time></trkpt><trkpt lat="44.84318033039239" lon="7.990353271791533"><ele>302.0</ele><time>2026-04-19T10:40:23Z</time></trkpt><trkpt lat="44.8432335714288" lon="7.990455183986968"><ele>302.0</ele><time>2026-04-19T10:40:25Z</time></trkpt><trkpt lat="44.843301638966636" lon="7.990402387027748"><ele>302.0</ele><time>2026-04-19T10:40:26Z</time></trkpt><trkpt lat="44.843395105110055" lon="7.990305264375786"><ele>302.0</ele><time>2026-04-19T10:40:27Z</time></trkpt><trkpt lat="44.84347688965127" lon="7.990218135510093"><ele>302.0</ele><time>2026-04-19T10:40:28Z</time></trkpt><trkpt lat="44.84354888070596" lon="7.990163371705343"><ele>301.33333333333337</ele><time>2026-04-19T10:40:29Z</time></trkpt><trkpt lat="44.84361652140873" lon="7.990079798738707"><ele>300.6666666666667</ele><time>2026-04-19T10:40:30Z</time></trkpt><trkpt lat="44.8436734066723" lon="7.989972157269606"><ele>300.0</ele><time>2026-04-19T10:40:31Z</time></trkpt><trkpt lat="44.84371346098688" lon="7.989843935995173"><ele>299.3333333333333</ele><time>2026-04-19T10:40:32Z</time></trkpt><trkpt lat="44.84376195943567" lon="7.989744443144628"><ele>298.66666666666663</ele><time>2026-04-19T10:40:33Z</time></trkpt><trkpt lat="44.843806404331026" lon="7.989669148650361"><ele>298.0</ele><time>2026-04-19T10:40:34Z</time></trkpt><trkpt lat="44.843861165261295" lon="7.989598376288486"><ele>298.0</ele><time>2026-04-19T10:40:35Z</time></trkpt><trkpt lat="44.843936162541254" lon="7.989533008360861"><ele>298.0</ele><time>2026-04-19T10:40:36Z</time></trkpt><trkpt lat="44.844016789633905" lon="7.989469445944652"><ele>298.0</ele><time>2026-04-19T10:40:37Z</time></trkpt><trkpt lat="44.84411536523376" lon="7.989405611887571"><ele>298.0</ele><time>2026-04-19T10:40:38Z</time></trkpt><trkpt lat="44.84421487584418" lon="7.989337358049676"><ele>298.0</ele><time>2026-04-19T10:40:39Z</time></trkpt><trkpt lat="44.84433071243943" lon="7.989300475528013"><ele>296.5</ele><time>2026-04-19T10:40:40Z</time></trkpt><trkpt lat="44.84445242954863" lon="7.989303892686552"><ele>295.0</ele><time>2026-04-19T10:40:41Z</time></trkpt><trkpt lat="44.84456162770575" lon="7.9893269634418065"><ele>293.5</ele><time>2026-04-19T10:40:42Z</time></trkpt><trkpt lat="44.84468160659221" lon="7.989340223364446"><ele>292.0</ele><time>2026-04-19T10:40:43Z</time></trkpt><trkpt lat="44.844797295322365" lon="7.989333564193091"><ele>292.0</ele><time>2026-04-19T10:40:44Z</time></trkpt><trkpt lat="44.84494779075761" lon="7.9893002111093985"><ele>292.0</ele><time>2026-04-19T10:40:45Z</time></trkpt><trkpt lat="44.84508846391619" lon="7.989277981840953"><ele>292.0</ele><time>2026-04-19T10:40:46Z</time></trkpt><trkpt lat="44.84520085033556" lon="7.98924683266645"><ele>292.0</ele><time>2026-04-19T10:40:47Z</time></trkpt><trkpt lat="44.84532332799235" lon="7.989214508416855"><ele>290.0</ele><time>2026-04-19T10:40:47.999Z</time></trkpt><trkpt lat="44.845448409209695" lon="7.98917042471858"><ele>288.0</ele><time>2026-04-19T10:40:48.999Z</time></trkpt><trkpt lat="44.84556913633641" lon="7.989113586743422"><ele>286.0</ele><time>2026-04-19T10:40:49.999Z</time></trkpt><trkpt lat="44.845683547132175" lon="7.989025220410021"><ele>284.0</ele><time>2026-04-19T10:40:50.999Z</time></trkpt><trkpt lat="44.845800027252" lon="7.988936417019303"><ele>284.0</ele><time>2026-04-19T10:40:51.999Z</time></trkpt><trkpt lat="44.84591164609282" lon="7.988857933033922"><ele>284.0</ele><time>2026-04-19T10:40:52.999Z</time></trkpt><trkpt lat="44.84602832992128" lon="7.988780124752183"><ele>284.0</ele><time>2026-04-19T10:40:53.999Z</time></trkpt><trkpt lat="44.84612937644803" lon="7.98869094784496"><ele>284.0</ele><time>2026-04-19T10:40:54.999Z</time></trkpt><trkpt lat="44.846233224332934" lon="7.98858030478665"><ele>283.0</ele><time>2026-04-19T10:40:55.999Z</time></trkpt><trkpt lat="44.846341018762395" lon="7.9884704183103485"><ele>282.0</ele><time>2026-04-19T10:40:56.999Z</time></trkpt><trkpt lat="44.846444371816474" lon="7.988371817300456"><ele>281.0</ele><time>2026-04-19T10:40:57.999Z</time></trkpt><trkpt lat="44.84653827350448" lon="7.988279699463768"><ele>280.0</ele><time>2026-04-19T10:40:58.999Z</time></trkpt><trkpt lat="44.846596705240955" lon="7.98821195319798"><ele>279.0</ele><time>2026-04-19T10:40:59.999Z</time></trkpt><trkpt lat="44.846547793189295" lon="7.988268308567667"><ele>279.0</ele><time>2026-04-19T10:41:08.999Z</time></trkpt><trkpt lat="44.84651044511109" lon="7.988349258595459"><ele>279.0</ele><time>2026-04-19T10:41:10.999Z</time></trkpt><trkpt lat="44.846551634193546" lon="7.988509701114578"><ele>279.0</ele><time>2026-04-19T10:41:12.999Z</time></trkpt><trkpt lat="44.84660101492812" lon="7.9886328416331365"><ele>279.0</ele><time>2026-04-19T10:41:13.999Z</time></trkpt><trkpt lat="44.84665825596585" lon="7.988784564458796"><ele>279.0</ele><time>2026-04-19T10:41:14.999Z</time></trkpt><trkpt lat="44.846726596173426" lon="7.988970525062289"><ele>279.0</ele><time>2026-04-19T10:41:15.999Z</time></trkpt><trkpt lat="44.846789014403996" lon="7.989147269241151"><ele>279.0</ele><time>2026-04-19T10:41:16.999Z</time></trkpt><trkpt lat="44.84685157890949" lon="7.989344062859515"><ele>279.0</ele><time>2026-04-19T10:41:17.999Z</time></trkpt><trkpt lat="44.84690007679178" lon="7.9895079898841255"><ele>279.0</ele><time>2026-04-19T10:41:18.999Z</time></trkpt><trkpt lat="44.84694347847298" lon="7.989638137634179"><ele>283.4</ele><time>2026-04-19T10:41:19.999Z</time></trkpt><trkpt lat="44.846991206075984" lon="7.989755814518682"><ele>287.79999999999995</ele><time>2026-04-19T10:41:20.999Z</time></trkpt><trkpt lat="44.84705525045768" lon="7.989857480414917"><ele>292.20000000000005</ele><time>2026-04-19T10:41:21.999Z</time></trkpt><trkpt lat="44.84712449990277" lon="7.989908228542404"><ele>296.6</ele><time>2026-04-19T10:41:22.999Z</time></trkpt><trkpt lat="44.847180003634286" lon="7.989850264682403"><ele>301.0</ele><time>2026-04-19T10:41:23.999Z</time></trkpt><trkpt lat="44.84721408525623" lon="7.989690705664158"><ele>301.0</ele><time>2026-04-19T10:41:24.999Z</time></trkpt><trkpt lat="44.84715815271056" lon="7.989488152656524"><ele>301.0</ele><time>2026-04-19T10:41:25.999Z</time></trkpt><trkpt lat="44.847129461604354" lon="7.989250695397565"><ele>301.0</ele><time>2026-04-19T10:41:26.999Z</time></trkpt><trkpt lat="44.84714339809372" lon="7.989059847144378"><ele>301.0</ele><time>2026-04-19T10:41:27.999Z</time></trkpt><trkpt lat="44.847193892171276" lon="7.988998958635868"><ele>301.0</ele><time>2026-04-19T10:41:28.999Z</time></trkpt><trkpt lat="44.84729281288152" lon="7.989006257896007"><ele>301.0</ele><time>2026-04-19T10:41:31.999Z</time></trkpt><trkpt lat="44.84737697528849" lon="7.989006833717019"><ele>301.0</ele><time>2026-04-19T10:41:32.999Z</time></trkpt><trkpt lat="44.84748495286929" lon="7.989085390853808"><ele>301.0</ele><time>2026-04-19T10:41:33.999Z</time></trkpt><trkpt lat="44.84754334980983" lon="7.98917665860326"><ele>301.0</ele><time>2026-04-19T10:41:34.999Z</time></trkpt><trkpt lat="44.847512367345054" lon="7.989265678366089"><ele>301.0</ele><time>2026-04-19T10:41:35.999Z</time></trkpt><trkpt lat="44.8474468676319" lon="7.989378151073907"><ele>301.0</ele><time>2026-04-19T10:41:36.999Z</time></trkpt><trkpt lat="44.847403756859826" lon="7.989530669221814"><ele>301.0</ele><time>2026-04-19T10:41:38Z</time></trkpt><trkpt lat="44.84740802689615" lon="7.989715478283246"><ele>301.0</ele><time>2026-04-19T10:41:39Z</time></trkpt><trkpt lat="44.84745522329487" lon="7.989896570186919"><ele>301.0</ele><time>2026-04-19T10:41:40Z</time></trkpt><trkpt lat="44.84750637320861" lon="7.989983914166709"><ele>301.0</ele><time>2026-04-19T10:41:41Z</time></trkpt><trkpt lat="44.84760914580838" lon="7.989844496831501"><ele>301.0</ele><time>2026-04-19T10:41:43Z</time></trkpt><trkpt lat="44.847644287107016" lon="7.98969992934535"><ele>301.0</ele><time>2026-04-19T10:41:44Z</time></trkpt><trkpt lat="44.84771557090291" lon="7.989576081766556"><ele>301.0</ele><time>2026-04-19T10:41:45Z</time></trkpt><trkpt lat="44.84779971405956" lon="7.989487232047602"><ele>304.0</ele><time>2026-04-19T10:41:46Z</time></trkpt><trkpt lat="44.84791388335937" lon="7.989408009228691"><ele>307.0</ele><time>2026-04-19T10:41:47Z</time></trkpt><trkpt lat="44.84801774230238" lon="7.989299874381099"><ele>310.0</ele><time>2026-04-19T10:41:48Z</time></trkpt><trkpt lat="44.848088429511286" lon="7.989217972274055"><ele>313.0</ele><time>2026-04-19T10:41:49Z</time></trkpt><trkpt lat="44.84815092385995" lon="7.989269902590302"><ele>316.0</ele><time>2026-04-19T10:41:51Z</time></trkpt><trkpt lat="44.84813092600503" lon="7.989384558551003"><ele>316.0</ele><time>2026-04-19T10:41:52Z</time></trkpt><trkpt lat="44.84804788841046" lon="7.989499031958701"><ele>316.0</ele><time>2026-04-19T10:41:53Z</time></trkpt><trkpt lat="44.84795373977767" lon="7.9895878001362455"><ele>316.0</ele><time>2026-04-19T10:41:54Z</time></trkpt><trkpt lat="44.8479619258519" lon="7.98979389561867"><ele>316.0</ele><time>2026-04-19T10:41:56Z</time></trkpt><trkpt lat="44.84798830404545" lon="7.989952219273084"><ele>318.5</ele><time>2026-04-19T10:41:57Z</time></trkpt><trkpt lat="44.84803110169159" lon="7.990125650048382"><ele>321.0</ele><time>2026-04-19T10:41:58Z</time></trkpt><trkpt lat="44.84806868602459" lon="7.990291019711741"><ele>323.5</ele><time>2026-04-19T10:41:59Z</time></trkpt><trkpt lat="44.84808903394835" lon="7.990419309322273"><ele>326.0</ele><time>2026-04-19T10:42:00Z</time></trkpt><trkpt lat="44.848093155457235" lon="7.99058161350267"><ele>326.0</ele><time>2026-04-19T10:42:01Z</time></trkpt><trkpt lat="44.84811351012189" lon="7.990749436957709"><ele>326.0</ele><time>2026-04-19T10:42:02Z</time></trkpt><trkpt lat="44.84814614197547" lon="7.990945210461071"><ele>326.0</ele><time>2026-04-19T10:42:03Z</time></trkpt><trkpt lat="44.84817509543556" lon="7.991102013272466"><ele>326.0</ele><time>2026-04-19T10:42:04Z</time></trkpt><trkpt lat="44.848203897129956" lon="7.991251830547236"><ele>326.0</ele><time>2026-04-19T10:42:05Z</time></trkpt><trkpt lat="44.848232890103276" lon="7.991398188684691"><ele>326.0</ele><time>2026-04-19T10:42:06Z</time></trkpt><trkpt lat="44.84824209989518" lon="7.991540294488729"><ele>326.0</ele><time>2026-04-19T10:42:07Z</time></trkpt><trkpt lat="44.848222894237864" lon="7.9916544244954055"><ele>326.0</ele><time>2026-04-19T10:42:08Z</time></trkpt><trkpt lat="44.8481680068703" lon="7.991779891930252"><ele>326.0</ele><time>2026-04-19T10:42:09Z</time></trkpt><trkpt lat="44.848093557417876" lon="7.991909053379034"><ele>324.40000000000003</ele><time>2026-04-19T10:42:10Z</time></trkpt><trkpt lat="44.84802947025649" lon="7.992057046485567"><ele>322.8</ele><time>2026-04-19T10:42:11Z</time></trkpt><trkpt lat="44.84800284451587" lon="7.992197993092096"><ele>321.20000000000005</ele><time>2026-04-19T10:42:12Z</time></trkpt><trkpt lat="44.84801562471405" lon="7.992315614285454"><ele>319.6</ele><time>2026-04-19T10:42:13Z</time></trkpt><trkpt lat="44.8480435034991" lon="7.992459680344506"><ele>318.0</ele><time>2026-04-19T10:42:14Z</time></trkpt><trkpt lat="44.848110911043754" lon="7.992596074677644"><ele>317.4</ele><time>2026-04-19T10:42:15Z</time></trkpt><trkpt lat="44.848177931152996" lon="7.992736512364638"><ele>316.8</ele><time>2026-04-19T10:42:16Z</time></trkpt><trkpt lat="44.848217640801074" lon="7.99286485846431"><ele>316.2</ele><time>2026-04-19T10:42:17Z</time></trkpt><trkpt lat="44.84824598206302" lon="7.992962869925043"><ele>315.6</ele><time>2026-04-19T10:42:18Z</time></trkpt><trkpt lat="44.84828038180455" lon="7.993076423847038"><ele>315.0</ele><time>2026-04-19T10:42:21Z</time></trkpt><trkpt lat="44.84828356859698" lon="7.992968794357405"><ele>315.0</ele><time>2026-04-19T10:42:41Z</time></trkpt><trkpt lat="44.84832863951339" lon="7.992801165241547"><ele>315.0</ele><time>2026-04-19T10:42:43Z</time></trkpt><trkpt lat="44.848337677269775" lon="7.992644755696741"><ele>315.0</ele><time>2026-04-19T10:42:45Z</time></trkpt><trkpt lat="44.848292029042426" lon="7.992547484127761"><ele>315.0</ele><time>2026-04-19T10:42:46Z</time></trkpt><trkpt lat="44.848257270498834" lon="7.992395438981923"><ele>315.0</ele><time>2026-04-19T10:42:48Z</time></trkpt><trkpt lat="44.848294191825964" lon="7.992242315115546"><ele>315.5</ele><time>2026-04-19T10:42:50Z</time></trkpt><trkpt lat="44.848351712359474" lon="7.9921928228886765"><ele>316.0</ele><time>2026-04-19T10:42:51Z</time></trkpt><trkpt lat="44.84841510197146" lon="7.9921529278523655"><ele>316.5</ele><time>2026-04-19T10:42:52Z</time></trkpt><trkpt lat="44.848474736570196" lon="7.992111764355532"><ele>317.0</ele><time>2026-04-19T10:42:53Z</time></trkpt><trkpt lat="44.848570568269736" lon="7.99204400306767"><ele>317.5</ele><time>2026-04-19T10:42:55Z</time></trkpt><trkpt lat="44.84869083271728" lon="7.992018944530946"><ele>318.0</ele><time>2026-04-19T10:42:57Z</time></trkpt><trkpt lat="44.84876272787184" lon="7.992058567777596"><ele>313.1666666666667</ele><time>2026-04-19T10:42:58Z</time></trkpt><trkpt lat="44.84883105276005" lon="7.992107155649219"><ele>308.3333333333333</ele><time>2026-04-19T10:42:58.999Z</time></trkpt><trkpt lat="44.8488980061762" lon="7.992138668002672"><ele>303.5</ele><time>2026-04-19T10:42:59.999Z</time></trkpt><trkpt lat="44.84898338613619" lon="7.992176730597383"><ele>298.66666666666663</ele><time>2026-04-19T10:43:01.999Z</time></trkpt><trkpt lat="44.84906468997245" lon="7.992204408907698"><ele>293.8333333333333</ele><time>2026-04-19T10:43:03.999Z</time></trkpt><trkpt lat="44.84913789550123" lon="7.99227042878866"><ele>289.0</ele><time>2026-04-19T10:43:05.999Z</time></trkpt><trkpt lat="44.849135182866725" lon="7.992364259134566"><ele>289.0</ele><time>2026-04-19T10:43:06.999Z</time></trkpt><trkpt lat="44.84914435478431" lon="7.9924568805787235"><ele>289.0</ele><time>2026-04-19T10:43:08.999Z</time></trkpt><trkpt lat="44.84920669281249" lon="7.992518705161353"><ele>289.0</ele><time>2026-04-19T10:43:10.999Z</time></trkpt><trkpt lat="44.849264484475846" lon="7.992581807854135"><ele>289.0</ele><time>2026-04-19T10:43:12.999Z</time></trkpt><trkpt lat="44.84932090684985" lon="7.99262378516886"><ele>289.0</ele><time>2026-04-19T10:43:14.999Z</time></trkpt><trkpt lat="44.84940295047218" lon="7.992681021055904"><ele>289.0</ele><time>2026-04-19T10:43:16.999Z</time></trkpt><trkpt lat="44.84946524672828" lon="7.992712434782495"><ele>289.0</ele><time>2026-04-19T10:43:17.999Z</time></trkpt><trkpt lat="44.84952720858787" lon="7.992733328861453"><ele>289.2</ele><time>2026-04-19T10:43:18.999Z</time></trkpt><trkpt lat="44.849646031624964" lon="7.992765178048907"><ele>289.4</ele><time>2026-04-19T10:43:20.999Z</time></trkpt><trkpt lat="44.84972816943165" lon="7.992800961075201"><ele>289.6</ele><time>2026-04-19T10:43:22.999Z</time></trkpt><trkpt lat="44.84979883291811" lon="7.992760117275893"><ele>289.8</ele><time>2026-04-19T10:43:24.999Z</time></trkpt><trkpt lat="44.84988660663491" lon="7.992667985984129"><ele>290.0</ele><time>2026-04-19T10:43:26.999Z</time></trkpt><trkpt lat="44.8500043845488" lon="7.99266830696055"><ele>290.0</ele><time>2026-04-19T10:43:28.999Z</time></trkpt><trkpt lat="44.85006880479652" lon="7.992715807424801"><ele>290.0</ele><time>2026-04-19T10:43:29.999Z</time></trkpt><trkpt lat="44.85013931252799" lon="7.9927500250582435"><ele>290.0</ele><time>2026-04-19T10:43:30.999Z</time></trkpt><trkpt lat="44.85020377431065" lon="7.99274814026309"><ele>290.0</ele><time>2026-04-19T10:43:31.999Z</time></trkpt><trkpt lat="44.850275057456024" lon="7.9927513515518065"><ele>290.0</ele><time>2026-04-19T10:43:32.999Z</time></trkpt><trkpt lat="44.85034117774969" lon="7.992774748414139"><ele>290.0</ele><time>2026-04-19T10:43:33.999Z</time></trkpt><trkpt lat="44.850407443296795" lon="7.992795829602303"><ele>290.0</ele><time>2026-04-19T10:43:34.999Z</time></trkpt><trkpt lat="44.85052317563634" lon="7.992838810231663"><ele>288.5</ele><time>2026-04-19T10:43:36.999Z</time></trkpt><trkpt lat="44.85064047677081" lon="7.9929237571874"><ele>287.0</ele><time>2026-04-19T10:43:38.999Z</time></trkpt><trkpt lat="44.85072208984131" lon="7.992939298658911"><ele>285.5</ele><time>2026-04-19T10:43:39.999Z</time></trkpt><trkpt lat="44.85078681388289" lon="7.992951966213155"><ele>284.0</ele><time>2026-04-19T10:43:40.999Z</time></trkpt><trkpt lat="44.85085270728599" lon="7.9929971717509565"><ele>282.5</ele><time>2026-04-19T10:43:41.999Z</time></trkpt><trkpt lat="44.85092353004126" lon="7.993062367008708"><ele>281.0</ele><time>2026-04-19T10:43:42.999Z</time></trkpt><trkpt lat="44.85099080665134" lon="7.993132415332648"><ele>279.0</ele><time>2026-04-19T10:43:44Z</time></trkpt><trkpt lat="44.851075090665226" lon="7.9931651672625526"><ele>277.0</ele><time>2026-04-19T10:43:45Z</time></trkpt><trkpt lat="44.85116524274044" lon="7.993193612931953"><ele>275.0</ele><time>2026-04-19T10:43:46Z</time></trkpt><trkpt lat="44.851260846079846" lon="7.993179332118334"><ele>273.0</ele><time>2026-04-19T10:43:47Z</time></trkpt><trkpt lat="44.85136063191903" lon="7.993198027631042"><ele>271.0</ele><time>2026-04-19T10:43:48Z</time></trkpt><trkpt lat="44.85144942899484" lon="7.993206411140284"><ele>271.0</ele><time>2026-04-19T10:43:49Z</time></trkpt><trkpt lat="44.85153299915704" lon="7.993229637801479"><ele>271.0</ele><time>2026-04-19T10:43:50Z</time></trkpt><trkpt lat="44.85162744114603" lon="7.993277374285587"><ele>271.0</ele><time>2026-04-19T10:43:51Z</time></trkpt><trkpt lat="44.851734227581886" lon="7.9933260899672085"><ele>271.0</ele><time>2026-04-19T10:43:52Z</time></trkpt><trkpt lat="44.85182968260151" lon="7.993357913702537"><ele>271.0</ele><time>2026-04-19T10:43:53Z</time></trkpt><trkpt lat="44.85188752561386" lon="7.993404833253994"><ele>269.3333333333333</ele><time>2026-04-19T10:43:54Z</time></trkpt><trkpt lat="44.85193412200257" lon="7.993479176245666"><ele>267.66666666666663</ele><time>2026-04-19T10:43:55Z</time></trkpt><trkpt lat="44.851990406294064" lon="7.993592568429855"><ele>266.0</ele><time>2026-04-19T10:43:56Z</time></trkpt><trkpt lat="44.852006647877396" lon="7.993747406530004"><ele>264.3333333333333</ele><time>2026-04-19T10:43:57Z</time></trkpt><trkpt lat="44.85204037755146" lon="7.993851180730284"><ele>262.6666666666667</ele><time>2026-04-19T10:43:58Z</time></trkpt><trkpt lat="44.852092478331315" lon="7.993916940624711"><ele>261.0</ele><time>2026-04-19T10:43:59Z</time></trkpt><trkpt lat="44.85214250901755" lon="7.993983933963121"><ele>261.0</ele><time>2026-04-19T10:44:00Z</time></trkpt><trkpt lat="44.85219526847895" lon="7.9940512649811115"><ele>261.0</ele><time>2026-04-19T10:44:01Z</time></trkpt><trkpt lat="44.85225393417838" lon="7.994089417379676"><ele>261.0</ele><time>2026-04-19T10:44:02Z</time></trkpt><trkpt lat="44.852337980898454" lon="7.994117660305797"><ele>261.0</ele><time>2026-04-19T10:44:03Z</time></trkpt><trkpt lat="44.85241952920807" lon="7.994120494989651"><ele>261.0</ele><time>2026-04-19T10:44:04Z</time></trkpt><trkpt lat="44.85252411348971" lon="7.994154032514591"><ele>261.0</ele><time>2026-04-19T10:44:05Z</time></trkpt><trkpt lat="44.85260666267839" lon="7.994214730671195"><ele>261.2</ele><time>2026-04-19T10:44:06Z</time></trkpt><trkpt lat="44.85267854586846" lon="7.994250180650175"><ele>261.40000000000003</ele><time>2026-04-19T10:44:07Z</time></trkpt><trkpt lat="44.85274921996834" lon="7.994320875895844"><ele>261.6</ele><time>2026-04-19T10:44:08Z</time></trkpt><trkpt lat="44.85283529451225" lon="7.9944456210003585"><ele>261.8</ele><time>2026-04-19T10:44:09Z</time></trkpt><trkpt lat="44.85289841183057" lon="7.994561640123161"><ele>262.0</ele><time>2026-04-19T10:44:10Z</time></trkpt><trkpt lat="44.852946536836534" lon="7.994645932465352"><ele>262.0</ele><time>2026-04-19T10:44:11Z</time></trkpt><trkpt lat="44.853008720016696" lon="7.994718536798716"><ele>262.0</ele><time>2026-04-19T10:44:12Z</time></trkpt><trkpt lat="44.85306834327332" lon="7.994761311020154"><ele>262.0</ele><time>2026-04-19T10:44:13Z</time></trkpt><trkpt lat="44.85312250131915" lon="7.994811298758205"><ele>262.0</ele><time>2026-04-19T10:44:14Z</time></trkpt><trkpt lat="44.85319594064328" lon="7.994875843724622"><ele>262.0</ele><time>2026-04-19T10:44:15Z</time></trkpt><trkpt lat="44.853277794667214" lon="7.994944932024213"><ele>262.0</ele><time>2026-04-19T10:44:16Z</time></trkpt><trkpt lat="44.85335475087939" lon="7.99501834564387"><ele>263.0</ele><time>2026-04-19T10:44:17Z</time></trkpt><trkpt lat="44.85340796201263" lon="7.995116689486826"><ele>264.0</ele><time>2026-04-19T10:44:18Z</time></trkpt><trkpt lat="44.853439974857714" lon="7.995229595393212"><ele>265.0</ele><time>2026-04-19T10:44:19Z</time></trkpt><trkpt lat="44.853446774689644" lon="7.995346285473246"><ele>266.0</ele><time>2026-04-19T10:44:20Z</time></trkpt><trkpt lat="44.85344991111887" lon="7.995479248815617"><ele>267.0</ele><time>2026-04-19T10:44:21Z</time></trkpt><trkpt lat="44.85344577726811" lon="7.995628245467699"><ele>267.0</ele><time>2026-04-19T10:44:22Z</time></trkpt><trkpt lat="44.853447879926" lon="7.995746036840999"><ele>267.0</ele><time>2026-04-19T10:44:23Z</time></trkpt><trkpt lat="44.85347240471796" lon="7.995836740978518"><ele>267.0</ele><time>2026-04-19T10:44:24Z</time></trkpt><trkpt lat="44.85354039565393" lon="7.99591899317391"><ele>267.0</ele><time>2026-04-19T10:44:25Z</time></trkpt><trkpt lat="44.8536317389101" lon="7.9960157591584275"><ele>267.0</ele><time>2026-04-19T10:44:26Z</time></trkpt><trkpt lat="44.853709160225904" lon="7.996121262648182"><ele>265.1666666666667</ele><time>2026-04-19T10:44:27Z</time></trkpt><trkpt lat="44.853751791518384" lon="7.996203394552726"><ele>263.3333333333333</ele><time>2026-04-19T10:44:28Z</time></trkpt><trkpt lat="44.85378602510433" lon="7.996315118765436"><ele>261.5</ele><time>2026-04-19T10:44:29Z</time></trkpt><trkpt lat="44.853835345744066" lon="7.996432258584236"><ele>259.66666666666663</ele><time>2026-04-19T10:44:30Z</time></trkpt><trkpt lat="44.85388001122155" lon="7.996544384888944"><ele>257.8333333333333</ele><time>2026-04-19T10:44:31Z</time></trkpt><trkpt lat="44.853896780241925" lon="7.996675574173535"><ele>256.0</ele><time>2026-04-19T10:44:32Z</time></trkpt><trkpt lat="44.85390966286818" lon="7.99682138267799"><ele>255.66666666666666</ele><time>2026-04-19T10:44:33Z</time></trkpt><trkpt lat="44.8539354556817" lon="7.9969596035757355"><ele>255.33333333333331</ele><time>2026-04-19T10:44:34Z</time></trkpt><trkpt lat="44.85396575534968" lon="7.997085217452844"><ele>255.0</ele><time>2026-04-19T10:44:35Z</time></trkpt><trkpt lat="44.85397799278673" lon="7.997182312441344"><ele>254.66666666666669</ele><time>2026-04-19T10:44:36Z</time></trkpt><trkpt lat="44.85398441353857" lon="7.997292950597763"><ele>254.33333333333334</ele><time>2026-04-19T10:44:38Z</time></trkpt><trkpt lat="44.854014068814394" lon="7.997391202559179"><ele>254.0</ele><time>2026-04-19T10:47:52.999Z</time></trkpt><trkpt lat="44.85400530887667" lon="7.997488579021688"><ele>254.00000000000003</ele><time>2026-04-19T10:47:56Z</time></trkpt><trkpt lat="44.8540238428857" lon="7.997391709147685"><ele>254.0</ele><time>2026-04-19T10:48:15Z</time></trkpt><trkpt lat="44.85408494298234" lon="7.997360591040023"><ele>254.0</ele><time>2026-04-19T10:48:19Z</time></trkpt><trkpt lat="44.854146205267966" lon="7.99739283159517"><ele>254.0</ele><time>2026-04-19T10:48:20Z</time></trkpt><trkpt lat="44.8542245450094" lon="7.997430589649181"><ele>254.00000000000003</ele><time>2026-04-19T10:48:21Z</time></trkpt><trkpt lat="44.85430125976474" lon="7.997490524586956"><ele>254.0</ele><time>2026-04-19T10:48:22Z</time></trkpt><trkpt lat="44.85436480501017" lon="7.997557367344557"><ele>254.79999999999998</ele><time>2026-04-19T10:48:23Z</time></trkpt><trkpt lat="44.854445187564245" lon="7.997657213633652"><ele>255.59999999999997</ele><time>2026-04-19T10:48:24Z</time></trkpt><trkpt lat="44.85452196229902" lon="7.9977495537419285"><ele>256.4</ele><time>2026-04-19T10:48:25Z</time></trkpt><trkpt lat="44.85461140277541" lon="7.997827889773508"><ele>257.2</ele><time>2026-04-19T10:48:26Z</time></trkpt><trkpt lat="44.85469952707056" lon="7.997884444096296"><ele>258.0</ele><time>2026-04-19T10:48:27Z</time></trkpt><trkpt lat="44.85479551672605" lon="7.997929399826217"><ele>258.0</ele><time>2026-04-19T10:48:28Z</time></trkpt><trkpt lat="44.854883808667225" lon="7.997946452805804"><ele>258.0</ele><time>2026-04-19T10:48:29Z</time></trkpt><trkpt lat="44.85498247462087" lon="7.997950300166456"><ele>258.0</ele><time>2026-04-19T10:48:30Z</time></trkpt><trkpt lat="44.85507480043066" lon="7.997964919575332"><ele>258.0</ele><time>2026-04-19T10:48:31Z</time></trkpt><trkpt lat="44.85516556504783" lon="7.998005911371518"><ele>258.0</ele><time>2026-04-19T10:48:32Z</time></trkpt><trkpt lat="44.85525254347886" lon="7.9980605375077625"><ele>256.8</ele><time>2026-04-19T10:48:33Z</time></trkpt><trkpt lat="44.85534771293596" lon="7.9981144219169895"><ele>255.60000000000002</ele><time>2026-04-19T10:48:34Z</time></trkpt><trkpt lat="44.85543285028703" lon="7.998153589722317"><ele>254.39999999999998</ele><time>2026-04-19T10:48:35Z</time></trkpt><trkpt lat="44.8555099533068" lon="7.998182675363407"><ele>253.2</ele><time>2026-04-19T10:48:36Z</time></trkpt><trkpt lat="44.855580049314476" lon="7.998247657540503"><ele>252.0</ele><time>2026-04-19T10:48:37Z</time></trkpt><trkpt lat="44.855656707587336" lon="7.9983334997217295"><ele>253.0</ele><time>2026-04-19T10:48:38Z</time></trkpt><trkpt lat="44.85572658827231" lon="7.99842286058252"><ele>254.0</ele><time>2026-04-19T10:48:39Z</time></trkpt><trkpt lat="44.85578691345423" lon="7.998475126089914"><ele>255.0</ele><time>2026-04-19T10:48:41Z</time></trkpt><trkpt lat="44.85576625909292" lon="7.998559165406447"><ele>256.0</ele><time>2026-04-19T10:48:45Z</time></trkpt><trkpt lat="44.85572576610953" lon="7.99868379588843"><ele>257.0</ele><time>2026-04-19T10:48:46Z</time></trkpt><trkpt lat="44.85570524248196" lon="7.998798055810433"><ele>258.0</ele><time>2026-04-19T10:48:47Z</time></trkpt><trkpt lat="44.85564533981634" lon="7.998902174259079"><ele>258.0</ele><time>2026-04-19T10:48:48Z</time></trkpt><trkpt lat="44.85559557082437" lon="7.999006202112796"><ele>258.0</ele><time>2026-04-19T10:48:49Z</time></trkpt><trkpt lat="44.85556282848771" lon="7.9991207214722895"><ele>258.0</ele><time>2026-04-19T10:48:50Z</time></trkpt><trkpt lat="44.855524042645705" lon="7.999204832041077"><ele>258.0</ele><time>2026-04-19T10:48:51Z</time></trkpt><trkpt lat="44.85547667202144" lon="7.999273952421961"><ele>258.0</ele><time>2026-04-19T10:48:52Z</time></trkpt><trkpt lat="44.85543784222961" lon="7.999469467098778"><ele>260.5</ele><time>2026-04-19T10:48:54Z</time></trkpt><trkpt lat="44.855400286959615" lon="7.999571793836932"><ele>263.0</ele><time>2026-04-19T10:48:55Z</time></trkpt><trkpt lat="44.855362443769934" lon="7.999649675372725"><ele>265.5</ele><time>2026-04-19T10:48:56Z</time></trkpt><trkpt lat="44.855332671251645" lon="7.999734642767075"><ele>268.0</ele><time>2026-04-19T10:48:57Z</time></trkpt><trkpt lat="44.85533158143763" lon="7.9999285011319206"><ele>270.5</ele><time>2026-04-19T10:48:59Z</time></trkpt><trkpt lat="44.85530632299115" lon="8.000009846265296"><ele>273.0</ele><time>2026-04-19T10:49:02Z</time></trkpt><trkpt lat="44.85522216381591" lon="7.9999579960768"><ele>273.0</ele><time>2026-04-19T10:49:05.999Z</time></trkpt><trkpt lat="44.85516956087749" lon="7.999863510195616"><ele>273.0</ele><time>2026-04-19T10:49:07.999Z</time></trkpt><trkpt lat="44.85511645887528" lon="7.999727286102051"><ele>273.0</ele><time>2026-04-19T10:49:09.999Z</time></trkpt><trkpt lat="44.855071089036315" lon="7.999595403088243"><ele>273.0</ele><time>2026-04-19T10:49:11.999Z</time></trkpt><trkpt lat="44.85502532238415" lon="7.999494752373425"><ele>273.0</ele><time>2026-04-19T10:49:27.999Z</time></trkpt><trkpt lat="44.85499899509043" lon="7.999387928586734"><ele>273.0</ele><time>2026-04-19T10:49:29.999Z</time></trkpt><trkpt lat="44.85500777723354" lon="7.999232977515351"><ele>273.0</ele><time>2026-04-19T10:49:48.999Z</time></trkpt><trkpt lat="44.85494567812901" lon="7.999305736015974"><ele>273.0</ele><time>2026-04-19T10:49:53.999Z</time></trkpt><trkpt lat="44.85489096623479" lon="7.999250842997754"><ele>273.0</ele><time>2026-04-19T10:49:56.999Z</time></trkpt><trkpt lat="44.854927378725385" lon="7.99915404013074"><ele>273.0</ele><time>2026-04-19T10:49:58.999Z</time></trkpt><trkpt lat="44.85489853691133" lon="7.999047925023952"><ele>273.0</ele><time>2026-04-19T10:50:02Z</time></trkpt><trkpt lat="44.85491676290809" lon="7.998942846124784"><ele>273.0</ele><time>2026-04-19T10:50:04Z</time></trkpt><trkpt lat="44.85487245780047" lon="7.998835386631739"><ele>273.0</ele><time>2026-04-19T10:50:07Z</time></trkpt><trkpt lat="44.85481715268751" lon="7.998778922057731"><ele>273.0</ele><time>2026-04-19T10:50:08Z</time></trkpt><trkpt lat="44.85473979322468" lon="7.998791884115308"><ele>273.0</ele><time>2026-04-19T10:50:10Z</time></trkpt><trkpt lat="44.85468614441753" lon="7.998840036732145"><ele>273.0</ele><time>2026-04-19T10:50:11Z</time></trkpt><trkpt lat="44.85473962381329" lon="7.99894850213976"><ele>273.0</ele><time>2026-04-19T10:52:47Z</time></trkpt><trkpt lat="44.8546749722635" lon="7.998957651612673"><ele>273.0</ele><time>2026-04-19T10:53:47Z</time></trkpt><trkpt lat="44.85468702169294" lon="7.999058576314178"><ele>273.0</ele><time>2026-04-19T10:56:11.999Z</time></trkpt><trkpt lat="44.85467468606801" lon="7.9991508837102305"><ele>273.0</ele><time>2026-04-19T10:58:52Z</time></trkpt><trkpt lat="44.85467036068188" lon="7.999276079840898"><ele>273.0</ele><time>2026-04-19T10:59:13Z</time></trkpt><trkpt lat="44.85464283772907" lon="7.999379349509018"><ele>273.0</ele><time>2026-04-19T10:59:15Z</time></trkpt><trkpt lat="44.85463065055596" lon="7.999485019133588"><ele>273.0</ele><time>2026-04-19T10:59:19Z</time></trkpt><trkpt lat="44.854575577501784" lon="7.999538205420649"><ele>273.0</ele><time>2026-04-19T10:59:21Z</time></trkpt><trkpt lat="44.85457782904275" lon="7.999636865938334"><ele>274.0</ele><time>2026-04-19T10:59:25Z</time></trkpt><trkpt lat="44.8545440736607" lon="7.999729452248072"><ele>275.0</ele><time>2026-04-19T10:59:29Z</time></trkpt><trkpt lat="44.85447408172723" lon="7.999786985992023"><ele>276.0</ele><time>2026-04-19T11:00:11.999Z</time></trkpt><trkpt lat="44.854511133275224" lon="7.999696565299894"><ele>277.0</ele><time>2026-04-19T11:00:40Z</time></trkpt><trkpt lat="44.85454548964467" lon="7.999621265885632"><ele>278.0</ele><time>2026-04-19T11:00:46Z</time></trkpt><trkpt lat="44.85455618936461" lon="7.99952364052984"><ele>279.0</ele><time>2026-04-19T11:00:55Z</time></trkpt><trkpt lat="44.85459011371124" lon="7.999430936235353"><ele>280.0</ele><time>2026-04-19T11:01:02Z</time></trkpt><trkpt lat="44.85460353737264" lon="7.999326289919154"><ele>280.0</ele><time>2026-04-19T11:01:10Z</time></trkpt><trkpt lat="44.85463925640812" lon="7.999234128834833"><ele>280.0</ele><time>2026-04-19T11:01:18Z</time></trkpt><trkpt lat="44.854649857752555" lon="7.999140961907154"><ele>280.0</ele><time>2026-04-19T11:01:22Z</time></trkpt><trkpt lat="44.85470948423149" lon="7.999035969015211"><ele>280.0</ele><time>2026-04-19T11:02:56Z</time></trkpt><trkpt lat="44.85466517930707" lon="7.999123865758841"><ele>280.0</ele><time>2026-04-19T11:03:23Z</time></trkpt><trkpt lat="44.854674436895905" lon="7.999223782359076"><ele>280.0</ele><time>2026-04-19T11:03:34Z</time></trkpt><trkpt lat="44.854644683661874" lon="7.99930382506245"><ele>280.0</ele><time>2026-04-19T11:03:41Z</time></trkpt><trkpt lat="44.854628660530814" lon="7.999414995468461"><ele>280.0</ele><time>2026-04-19T11:04:02.999Z</time></trkpt><trkpt lat="44.85460465944434" lon="7.999502326512739"><ele>280.0</ele><time>2026-04-19T11:04:15.999Z</time></trkpt><trkpt lat="44.85457606335421" lon="7.9995868374476675"><ele>280.0</ele><time>2026-04-19T11:04:25.999Z</time></trkpt><trkpt lat="44.85455804945765" lon="7.999675799859962"><ele>280.0</ele><time>2026-04-19T11:04:37.999Z</time></trkpt><trkpt lat="44.8545262101084" lon="7.999763469559602"><ele>280.0</ele><time>2026-04-19T11:04:48Z</time></trkpt><trkpt lat="44.85445219801696" lon="7.999873517621561"><ele>280.0</ele><time>2026-04-19T11:07:28Z</time></trkpt><trkpt lat="44.85442299783801" lon="7.999959267845019"><ele>280.0</ele><time>2026-04-19T11:07:32Z</time></trkpt><trkpt lat="44.85435972892867" lon="7.999961395730676"><ele>280.0</ele><time>2026-04-19T11:07:36Z</time></trkpt><trkpt lat="44.85431818109317" lon="8.000067329651502"><ele>280.0</ele><time>2026-04-19T11:07:39Z</time></trkpt><trkpt lat="44.85430621045546" lon="8.000169811887304"><ele>280.0</ele><time>2026-04-19T11:07:41Z</time></trkpt><trkpt lat="44.854232352227974" lon="8.00025289682039"><ele>280.0</ele><time>2026-04-19T11:07:43Z</time></trkpt><trkpt lat="44.85415604936701" lon="8.000334942176876"><ele>280.0</ele><time>2026-04-19T11:07:45Z</time></trkpt><trkpt lat="44.85409572698805" lon="8.000415935677959"><ele>280.0</ele><time>2026-04-19T11:07:47Z</time></trkpt><trkpt lat="44.854034573500385" lon="8.00048932861438"><ele>283.6</ele><time>2026-04-19T11:07:49Z</time></trkpt><trkpt lat="44.85394437550161" lon="8.00055981912108"><ele>287.2</ele><time>2026-04-19T11:07:51Z</time></trkpt><trkpt lat="44.85385673368673" lon="8.000493956148588"><ele>290.8</ele><time>2026-04-19T11:07:53Z</time></trkpt><trkpt lat="44.85374528966284" lon="8.00040921026728"><ele>294.4</ele><time>2026-04-19T11:07:55Z</time></trkpt><trkpt lat="44.853680606251395" lon="8.000368264792519"><ele>298.0</ele><time>2026-04-19T11:07:56Z</time></trkpt><trkpt lat="44.853581532060744" lon="8.00031281840625"><ele>298.0</ele><time>2026-04-19T11:07:58Z</time></trkpt><trkpt lat="44.853491998032524" lon="8.000266006403338"><ele>298.0</ele><time>2026-04-19T11:08:00Z</time></trkpt><trkpt lat="44.853420080953846" lon="8.0002592523248"><ele>298.0</ele><time>2026-04-19T11:08:01Z</time></trkpt><trkpt lat="44.85335609168376" lon="8.0002527597484"><ele>298.0</ele><time>2026-04-19T11:08:02Z</time></trkpt><trkpt lat="44.85328203644446" lon="8.000174078156114"><ele>298.0</ele><time>2026-04-19T11:08:04Z</time></trkpt><trkpt lat="44.85326355300145" lon="8.000017590898148"><ele>298.0</ele><time>2026-04-19T11:08:06Z</time></trkpt><trkpt lat="44.853239913981675" lon="7.999894098758294"><ele>299.0</ele><time>2026-04-19T11:08:08Z</time></trkpt><trkpt lat="44.85312839500447" lon="7.999832501251258"><ele>300.0</ele><time>2026-04-19T11:08:09.999Z</time></trkpt><trkpt lat="44.85300757190812" lon="7.9998359467967"><ele>301.0</ele><time>2026-04-19T11:08:11.999Z</time></trkpt><trkpt lat="44.852939638940725" lon="7.99983417916282"><ele>302.0</ele><time>2026-04-19T11:08:12.999Z</time></trkpt><trkpt lat="44.85285006972191" lon="7.999924270002696"><ele>303.0</ele><time>2026-04-19T11:08:14.999Z</time></trkpt><trkpt lat="44.852805629887484" lon="7.99999774001849"><ele>303.0</ele><time>2026-04-19T11:08:15.999Z</time></trkpt><trkpt lat="44.85271592771696" lon="8.00011641133617"><ele>303.0</ele><time>2026-04-19T11:08:17.999Z</time></trkpt><trkpt lat="44.85262060428937" lon="8.000187901034781"><ele>303.0</ele><time>2026-04-19T11:08:19.999Z</time></trkpt><trkpt lat="44.85251966704711" lon="8.000178334129997"><ele>303.0</ele><time>2026-04-19T11:08:21.999Z</time></trkpt><trkpt lat="44.85243825213993" lon="8.000075151273784"><ele>303.0</ele><time>2026-04-19T11:08:23.999Z</time></trkpt><trkpt lat="44.852354293960815" lon="7.999983686254028"><ele>300.8</ele><time>2026-04-19T11:08:25.999Z</time></trkpt><trkpt lat="44.852272246788" lon="7.999912686019716"><ele>298.6</ele><time>2026-04-19T11:08:27.999Z</time></trkpt><trkpt lat="44.852229989146686" lon="7.999804286617188"><ele>296.4</ele><time>2026-04-19T11:08:29.999Z</time></trkpt><trkpt lat="44.85218192638367" lon="7.999716677919641"><ele>294.2</ele><time>2026-04-19T11:08:30.999Z</time></trkpt><trkpt lat="44.85212424720946" lon="7.9996152078131715"><ele>292.0</ele><time>2026-04-19T11:08:31.999Z</time></trkpt><trkpt lat="44.85206680675665" lon="7.999508190648395"><ele>292.0</ele><time>2026-04-19T11:08:32.999Z</time></trkpt><trkpt lat="44.85199343021278" lon="7.999430392129181"><ele>292.0</ele><time>2026-04-19T11:08:35.999Z</time></trkpt><trkpt lat="44.85194744952456" lon="7.999364140945057"><ele>292.0</ele><time>2026-04-19T11:08:36.999Z</time></trkpt><trkpt lat="44.85188832155856" lon="7.999291342719014"><ele>292.0</ele><time>2026-04-19T11:08:37.999Z</time></trkpt><trkpt lat="44.85183324573809" lon="7.9992165165863955"><ele>292.0</ele><time>2026-04-19T11:08:38.999Z</time></trkpt><trkpt lat="44.85178770967586" lon="7.999146297453373"><ele>292.0</ele><time>2026-04-19T11:08:39.999Z</time></trkpt><trkpt lat="44.85175218340636" lon="7.999072761352242"><ele>292.0</ele><time>2026-04-19T11:08:40.999Z</time></trkpt><trkpt lat="44.85172175536598" lon="7.998992282680143"><ele>291.16666666666663</ele><time>2026-04-19T11:08:41.999Z</time></trkpt><trkpt lat="44.85168785707904" lon="7.998915581371282"><ele>290.3333333333333</ele><time>2026-04-19T11:08:42.999Z</time></trkpt><trkpt lat="44.85165827057949" lon="7.998822011917398"><ele>289.5</ele><time>2026-04-19T11:08:43.999Z</time></trkpt><trkpt lat="44.851571209549455" lon="7.998750496097135"><ele>288.6666666666667</ele><time>2026-04-19T11:08:45.999Z</time></trkpt><trkpt lat="44.851506259271076" lon="7.998763657817978"><ele>287.83333333333337</ele><time>2026-04-19T11:08:46.999Z</time></trkpt><trkpt lat="44.85142746688285" lon="7.998761117035417"><ele>287.0</ele><time>2026-04-19T11:08:47.999Z</time></trkpt><trkpt lat="44.85135215738099" lon="7.99874382501043"><ele>287.0</ele><time>2026-04-19T11:08:48.999Z</time></trkpt><trkpt lat="44.85128889105391" lon="7.998711277016622"><ele>287.0</ele><time>2026-04-19T11:08:49.999Z</time></trkpt><trkpt lat="44.851228864536054" lon="7.9986704756992"><ele>287.0</ele><time>2026-04-19T11:08:50.999Z</time></trkpt><trkpt lat="44.85112015283603" lon="7.998600267530314"><ele>287.0</ele><time>2026-04-19T11:08:52.999Z</time></trkpt><trkpt lat="44.85105911858359" lon="7.998573319181045"><ele>287.0</ele><time>2026-04-19T11:08:53.999Z</time></trkpt><trkpt lat="44.85095138082008" lon="7.998579694928683"><ele>287.0</ele><time>2026-04-19T11:08:56Z</time></trkpt><trkpt lat="44.85083109329668" lon="7.9986884212851805"><ele>287.1666666666667</ele><time>2026-04-19T11:08:58Z</time></trkpt><trkpt lat="44.850774281914234" lon="7.998733175652374"><ele>287.33333333333337</ele><time>2026-04-19T11:08:59Z</time></trkpt><trkpt lat="44.8507096298801" lon="7.998774559780474"><ele>287.5</ele><time>2026-04-19T11:09:00Z</time></trkpt><trkpt lat="44.85065341170825" lon="7.998816679251627"><ele>287.6666666666667</ele><time>2026-04-19T11:09:01Z</time></trkpt><trkpt lat="44.85058783080801" lon="7.998980095534048"><ele>287.8333333333333</ele><time>2026-04-19T11:09:03Z</time></trkpt><trkpt lat="44.850563720115446" lon="7.9990748856731875"><ele>288.0</ele><time>2026-04-19T11:09:04Z</time></trkpt><trkpt lat="44.85055363698731" lon="7.999177875862111"><ele>286.0</ele><time>2026-04-19T11:09:05Z</time></trkpt><trkpt lat="44.850548196442574" lon="7.999286128072389"><ele>284.0</ele><time>2026-04-19T11:09:06Z</time></trkpt><trkpt lat="44.850546601860515" lon="7.999402125504932"><ele>282.0</ele><time>2026-04-19T11:09:07Z</time></trkpt><trkpt lat="44.85053916413637" lon="7.999513145293597"><ele>280.0</ele><time>2026-04-19T11:09:08Z</time></trkpt><trkpt lat="44.850526064354554" lon="7.999622581281318"><ele>278.0</ele><time>2026-04-19T11:09:09Z</time></trkpt><trkpt lat="44.850508289419196" lon="7.999739321943326"><ele>276.0</ele><time>2026-04-19T11:09:10Z</time></trkpt><trkpt lat="44.85050710475598" lon="7.999858449180451"><ele>276.0</ele><time>2026-04-19T11:09:11Z</time></trkpt><trkpt lat="44.85050442900336" lon="7.99997130080289"><ele>276.0</ele><time>2026-04-19T11:09:12Z</time></trkpt><trkpt lat="44.850516668419566" lon="8.000095033655215"><ele>276.0</ele><time>2026-04-19T11:09:13Z</time></trkpt><trkpt lat="44.850526896440094" lon="8.000215941380029"><ele>276.0</ele><time>2026-04-19T11:09:14Z</time></trkpt><trkpt lat="44.85053090586254" lon="8.000330711618055"><ele>276.0</ele><time>2026-04-19T11:09:15Z</time></trkpt><trkpt lat="44.850539856422465" lon="8.000446334072784"><ele>276.0</ele><time>2026-04-19T11:09:16Z</time></trkpt><trkpt lat="44.85054268710895" lon="8.000562527470942"><ele>276.0</ele><time>2026-04-19T11:09:17Z</time></trkpt><trkpt lat="44.85054830996257" lon="8.000665950496524"><ele>276.0</ele><time>2026-04-19T11:09:18Z</time></trkpt><trkpt lat="44.8505559348919" lon="8.00079408709506"><ele>276.0</ele><time>2026-04-19T11:09:20Z</time></trkpt><trkpt lat="44.850568609362185" lon="8.000971442337312"><ele>276.0</ele><time>2026-04-19T11:09:22Z</time></trkpt><trkpt lat="44.85057777439886" lon="8.00106990426312"><ele>276.0</ele><time>2026-04-19T11:09:23Z</time></trkpt><trkpt lat="44.850572165019514" lon="8.001177312786988"><ele>276.0</ele><time>2026-04-19T11:09:24Z</time></trkpt><trkpt lat="44.850548532785986" lon="8.001271916208509"><ele>275.3333333333333</ele><time>2026-04-19T11:09:25Z</time></trkpt><trkpt lat="44.85050323411772" lon="8.001342375232017"><ele>274.6666666666667</ele><time>2026-04-19T11:09:26Z</time></trkpt><trkpt lat="44.85044638733757" lon="8.001384653875435"><ele>274.0</ele><time>2026-04-19T11:09:27Z</time></trkpt><trkpt lat="44.85033596192885" lon="8.001328987728371"><ele>273.33333333333337</ele><time>2026-04-19T11:09:29Z</time></trkpt><trkpt lat="44.85028956939354" lon="8.00125084748596"><ele>272.6666666666667</ele><time>2026-04-19T11:09:30Z</time></trkpt><trkpt lat="44.85025459773656" lon="8.001154911754165"><ele>272.0</ele><time>2026-04-19T11:09:31Z</time></trkpt><trkpt lat="44.85021479099586" lon="8.00107294869857"><ele>272.0</ele><time>2026-04-19T11:09:32Z</time></trkpt><trkpt lat="44.85016477067241" lon="8.001000107854122"><ele>272.0</ele><time>2026-04-19T11:09:33Z</time></trkpt><trkpt lat="44.850098206990104" lon="8.000950839049002"><ele>272.0</ele><time>2026-04-19T11:09:34Z</time></trkpt><trkpt lat="44.85002191471048" lon="8.00092408137082"><ele>272.0</ele><time>2026-04-19T11:09:35Z</time></trkpt><trkpt lat="44.84993943659067" lon="8.000918995833526"><ele>272.0</ele><time>2026-04-19T11:09:36Z</time></trkpt><trkpt lat="44.849853244379176" lon="8.000933017459694"><ele>272.0</ele><time>2026-04-19T11:09:37Z</time></trkpt><trkpt lat="44.849778615355724" lon="8.000958792545381"><ele>272.8</ele><time>2026-04-19T11:09:38Z</time></trkpt><trkpt lat="44.84969648238288" lon="8.000977023802545"><ele>273.6</ele><time>2026-04-19T11:09:39Z</time></trkpt><trkpt lat="44.849606697943024" lon="8.000988097776212"><ele>274.40000000000003</ele><time>2026-04-19T11:09:40Z</time></trkpt><trkpt lat="44.84951522390251" lon="8.000989095559744"><ele>275.2</ele><time>2026-04-19T11:09:41Z</time></trkpt><trkpt lat="44.849412259169284" lon="8.00098165887955"><ele>276.0</ele><time>2026-04-19T11:09:42Z</time></trkpt><trkpt lat="44.84932723414324" lon="8.000962551360475"><ele>273.3333333333333</ele><time>2026-04-19T11:09:43Z</time></trkpt><trkpt lat="44.8492374223863" lon="8.000943290983596"><ele>270.6666666666667</ele><time>2026-04-19T11:09:44Z</time></trkpt><trkpt lat="44.84916333900386" lon="8.000929174831414"><ele>268.0</ele><time>2026-04-19T11:09:45Z</time></trkpt><trkpt lat="44.84909133089073" lon="8.000934953052285"><ele>265.33333333333337</ele><time>2026-04-19T11:09:46Z</time></trkpt><trkpt lat="44.849025829473135" lon="8.000974639659232"><ele>262.6666666666667</ele><time>2026-04-19T11:09:47Z</time></trkpt><trkpt lat="44.84897506275506" lon="8.001050948417411"><ele>260.0</ele><time>2026-04-19T11:09:48Z</time></trkpt><trkpt lat="44.84893250098893" lon="8.001167732841523"><ele>260.0</ele><time>2026-04-19T11:09:49Z</time></trkpt><trkpt lat="44.848889882183016" lon="8.001289853483412"><ele>260.0</ele><time>2026-04-19T11:09:50Z</time></trkpt><trkpt lat="44.84885081186283" lon="8.001400765381009"><ele>260.0</ele><time>2026-04-19T11:09:51Z</time></trkpt><trkpt lat="44.84882607297221" lon="8.001485256184866"><ele>260.0</ele><time>2026-04-19T11:09:52Z</time></trkpt><trkpt lat="44.8488617006617" lon="8.001636436729575"><ele>260.0</ele><time>2026-04-19T11:09:54Z</time></trkpt><trkpt lat="44.848918932182016" lon="8.001694953592006"><ele>260.0</ele><time>2026-04-19T11:09:55Z</time></trkpt><trkpt lat="44.84899353088275" lon="8.001722288922032"><ele>259.5</ele><time>2026-04-19T11:09:56Z</time></trkpt><trkpt lat="44.84907415938971" lon="8.001720274765292"><ele>259.0</ele><time>2026-04-19T11:09:57Z</time></trkpt><trkpt lat="44.849155236468924" lon="8.001696466856647"><ele>258.5</ele><time>2026-04-19T11:09:58Z</time></trkpt><trkpt lat="44.849227305368224" lon="8.001669149608954"><ele>258.0</ele><time>2026-04-19T11:09:59Z</time></trkpt><trkpt lat="44.849299571045556" lon="8.001645345670536"><ele>257.5</ele><time>2026-04-19T11:10:00Z</time></trkpt><trkpt lat="44.84937422315378" lon="8.00164962057119"><ele>257.0</ele><time>2026-04-19T11:10:01Z</time></trkpt><trkpt lat="44.849435088516" lon="8.001686393949191"><ele>257.0</ele><time>2026-04-19T11:10:02Z</time></trkpt><trkpt lat="44.84946465585639" lon="8.001850778344638"><ele>257.0</ele><time>2026-04-19T11:10:04Z</time></trkpt><trkpt lat="44.84941743140877" lon="8.001942954951812"><ele>257.0</ele><time>2026-04-19T11:10:05Z</time></trkpt><trkpt lat="44.849352827026664" lon="8.00202718636721"><ele>257.0</ele><time>2026-04-19T11:10:06Z</time></trkpt><trkpt lat="44.849266166297205" lon="8.00208332806807"><ele>257.0</ele><time>2026-04-19T11:10:07Z</time></trkpt><trkpt lat="44.84919622952451" lon="8.002146058998207"><ele>256.0</ele><time>2026-04-19T11:10:08Z</time></trkpt><trkpt lat="44.84915764767294" lon="8.002225652083016"><ele>255.0</ele><time>2026-04-19T11:10:09Z</time></trkpt><trkpt lat="44.84913837774818" lon="8.002330690972869"><ele>254.0</ele><time>2026-04-19T11:10:10Z</time></trkpt><trkpt lat="44.84914069126144" lon="8.002445674529511"><ele>253.0</ele><time>2026-04-19T11:10:11Z</time></trkpt><trkpt lat="44.84913837944444" lon="8.00256602659059"><ele>252.00000000000003</ele><time>2026-04-19T11:10:12Z</time></trkpt><trkpt lat="44.84913332985657" lon="8.002691373927078"><ele>251.0</ele><time>2026-04-19T11:10:13Z</time></trkpt><trkpt lat="44.84912476768947" lon="8.002813685448343"><ele>248.83333333333334</ele><time>2026-04-19T11:10:14Z</time></trkpt><trkpt lat="44.84911529441639" lon="8.002938225282039"><ele>246.66666666666669</ele><time>2026-04-19T11:10:15Z</time></trkpt><trkpt lat="44.849099524191956" lon="8.003062790723774"><ele>244.5</ele><time>2026-04-19T11:10:16Z</time></trkpt><trkpt lat="44.84908649081727" lon="8.003181837770828"><ele>242.33333333333331</ele><time>2026-04-19T11:10:17Z</time></trkpt><trkpt lat="44.84908166304215" lon="8.003287098842653"><ele>240.16666666666666</ele><time>2026-04-19T11:10:18Z</time></trkpt><trkpt lat="44.849067591077926" lon="8.003405080817988"><ele>238.0</ele><time>2026-04-19T11:10:20Z</time></trkpt><trkpt lat="44.84913367113397" lon="8.003505073227567"><ele>238.0</ele><time>2026-04-19T11:11:48Z</time></trkpt><trkpt lat="44.849237942977645" lon="8.0035708177764"><ele>238.0</ele><time>2026-04-19T11:11:50Z</time></trkpt><trkpt lat="44.84930640083046" lon="8.003602746522867"><ele>238.0</ele><time>2026-04-19T11:11:51Z</time></trkpt><trkpt lat="44.84939642523232" lon="8.003649990903485"><ele>238.0</ele><time>2026-04-19T11:11:52Z</time></trkpt><trkpt lat="44.84949588522686" lon="8.003707304136194"><ele>238.0</ele><time>2026-04-19T11:11:53Z</time></trkpt><trkpt lat="44.849601279010095" lon="8.003770930022586"><ele>237.2</ele><time>2026-04-19T11:11:54Z</time></trkpt><trkpt lat="44.84971588030495" lon="8.00383440705135"><ele>236.4</ele><time>2026-04-19T11:11:55Z</time></trkpt><trkpt lat="44.84981005132703" lon="8.003889609143696"><ele>235.59999999999997</ele><time>2026-04-19T11:11:56Z</time></trkpt><trkpt lat="44.84990189164102" lon="8.003945603946354"><ele>234.79999999999998</ele><time>2026-04-19T11:11:57Z</time></trkpt><trkpt lat="44.849991995421846" lon="8.004000242254088"><ele>234.0</ele><time>2026-04-19T11:11:58Z</time></trkpt><trkpt lat="44.85007242342344" lon="8.004048285011107"><ele>234.33333333333334</ele><time>2026-04-19T11:11:59Z</time></trkpt><trkpt lat="44.8501428854399" lon="8.004088162135313"><ele>234.66666666666669</ele><time>2026-04-19T11:12:00Z</time></trkpt><trkpt lat="44.85020399801619" lon="8.004126146456157"><ele>235.0</ele><time>2026-04-19T11:12:01Z</time></trkpt><trkpt lat="44.85027272941877" lon="8.004210909454285"><ele>235.33333333333334</ele><time>2026-04-19T11:12:03Z</time></trkpt><trkpt lat="44.85020874087576" lon="8.004298672773919"><ele>235.66666666666669</ele><time>2026-04-19T11:12:05Z</time></trkpt><trkpt lat="44.850087894708786" lon="8.004338605576148"><ele>236.0</ele><time>2026-04-19T11:12:07Z</time></trkpt><trkpt lat="44.8500140516075" lon="8.004397681924468"><ele>236.4</ele><time>2026-04-19T11:12:08Z</time></trkpt><trkpt lat="44.8499214418098" lon="8.004475542350674"><ele>236.8</ele><time>2026-04-19T11:12:09Z</time></trkpt><trkpt lat="44.849835673960825" lon="8.00454105795743"><ele>237.20000000000002</ele><time>2026-04-19T11:12:10Z</time></trkpt><trkpt lat="44.849752727070545" lon="8.004608493133441"><ele>237.60000000000002</ele><time>2026-04-19T11:12:11Z</time></trkpt><trkpt lat="44.84967496785152" lon="8.004683106951047"><ele>238.0</ele><time>2026-04-19T11:12:12Z</time></trkpt><trkpt lat="44.84959983046698" lon="8.00475207956795"><ele>238.0</ele><time>2026-04-19T11:12:13Z</time></trkpt><trkpt lat="44.849534843707055" lon="8.004818417933553"><ele>238.0</ele><time>2026-04-19T11:12:14Z</time></trkpt><trkpt lat="44.84946901268008" lon="8.00488570224445"><ele>238.0</ele><time>2026-04-19T11:12:15Z</time></trkpt><trkpt lat="44.84940041156722" lon="8.004960438270546"><ele>238.0</ele><time>2026-04-19T11:12:16Z</time></trkpt><trkpt lat="44.849311906619654" lon="8.005052807612968"><ele>238.0</ele><time>2026-04-19T11:12:16.999Z</time></trkpt><trkpt lat="44.849219607136696" lon="8.005165717690476"><ele>240.25</ele><time>2026-04-19T11:12:17.999Z</time></trkpt><trkpt lat="44.849134430945725" lon="8.005259694717397"><ele>242.5</ele><time>2026-04-19T11:12:18.999Z</time></trkpt><trkpt lat="44.849039071356415" lon="8.005361842781985"><ele>244.75</ele><time>2026-04-19T11:12:19.999Z</time></trkpt><trkpt lat="44.848937148754224" lon="8.005479698020443"><ele>247.0</ele><time>2026-04-19T11:12:20.999Z</time></trkpt><trkpt lat="44.848834129260716" lon="8.005594041335915"><ele>247.0</ele><time>2026-04-19T11:12:21.999Z</time></trkpt><trkpt lat="44.84872763011579" lon="8.005690304876808"><ele>247.0</ele><time>2026-04-19T11:12:22.999Z</time></trkpt><trkpt lat="44.84861448287277" lon="8.005763457514874"><ele>247.0</ele><time>2026-04-19T11:12:23.999Z</time></trkpt><trkpt lat="44.84849186972579" lon="8.005822139845105"><ele>247.0</ele><time>2026-04-19T11:12:24.999Z</time></trkpt><trkpt lat="44.848368688965785" lon="8.005876013180774"><ele>246.25</ele><time>2026-04-19T11:12:25.999Z</time></trkpt><trkpt lat="44.848250442091796" lon="8.005934982993193"><ele>245.5</ele><time>2026-04-19T11:12:26.999Z</time></trkpt><trkpt lat="44.84813969418212" lon="8.006009584632597"><ele>244.75</ele><time>2026-04-19T11:12:27.999Z</time></trkpt><trkpt lat="44.84803761797572" lon="8.006106411286673"><ele>244.0</ele><time>2026-04-19T11:12:28.999Z</time></trkpt><trkpt lat="44.84794764912666" lon="8.0062236406732"><ele>243.99999999999997</ele><time>2026-04-19T11:12:29.999Z</time></trkpt><trkpt lat="44.84787428577391" lon="8.00634813792681"><ele>244.0</ele><time>2026-04-19T11:12:30.999Z</time></trkpt><trkpt lat="44.8478241598987" lon="8.006464388524606"><ele>244.0</ele><time>2026-04-19T11:12:31.999Z</time></trkpt><trkpt lat="44.84779168386032" lon="8.006569598691504"><ele>244.0</ele><time>2026-04-19T11:12:32.999Z</time></trkpt><trkpt lat="44.84777764809579" lon="8.006670590281848"><ele>243.99999999999997</ele><time>2026-04-19T11:12:33.999Z</time></trkpt><trkpt lat="44.84776510557158" lon="8.006764828742076"><ele>244.0</ele><time>2026-04-19T11:12:34.999Z</time></trkpt><trkpt lat="44.847746244278014" lon="8.00686902197446"><ele>245.16666666666666</ele><time>2026-04-19T11:12:35.999Z</time></trkpt><trkpt lat="44.84772348263139" lon="8.006980955433797"><ele>246.33333333333331</ele><time>2026-04-19T11:12:36.999Z</time></trkpt><trkpt lat="44.847697474089145" lon="8.00711148959287"><ele>247.5</ele><time>2026-04-19T11:12:37.999Z</time></trkpt><trkpt lat="44.84766874219381" lon="8.007232228491516"><ele>248.66666666666669</ele><time>2026-04-19T11:12:38.999Z</time></trkpt><trkpt lat="44.847644583847654" lon="8.007333734664382"><ele>249.83333333333334</ele><time>2026-04-19T11:12:39.999Z</time></trkpt><trkpt lat="44.84761230519302" lon="8.007426406260237"><ele>251.0</ele><time>2026-04-19T11:12:40.999Z</time></trkpt><trkpt lat="44.847576987503196" lon="8.007520153469892"><ele>251.00000000000003</ele><time>2026-04-19T11:12:41.999Z</time></trkpt><trkpt lat="44.84754643039248" lon="8.00760420804007"><ele>251.0</ele><time>2026-04-19T11:12:42.999Z</time></trkpt><trkpt lat="44.847503821632536" lon="8.00770574004202"><ele>251.0</ele><time>2026-04-19T11:12:44.999Z</time></trkpt><trkpt lat="44.84759358835217" lon="8.007767440417474"><ele>251.0</ele><time>2026-04-19T11:13:40Z</time></trkpt><trkpt lat="44.84766176958775" lon="8.007829908136285"><ele>251.00000000000003</ele><time>2026-04-19T11:13:41Z</time></trkpt><trkpt lat="44.847747102106446" lon="8.007924498690684"><ele>251.0</ele><time>2026-04-19T11:13:42Z</time></trkpt><trkpt lat="44.84781675271858" lon="8.008000282079598"><ele>253.5</ele><time>2026-04-19T11:13:43Z</time></trkpt><trkpt lat="44.84788235880162" lon="8.008175912328024"><ele>256.0</ele><time>2026-04-19T11:13:45Z</time></trkpt><trkpt lat="44.847913937891235" lon="8.008313092101698"><ele>258.5</ele><time>2026-04-19T11:13:46Z</time></trkpt><trkpt lat="44.84796562574505" lon="8.008448620244781"><ele>261.0</ele><time>2026-04-19T11:13:47Z</time></trkpt><trkpt lat="44.84802085175056" lon="8.008594773509683"><ele>261.8</ele><time>2026-04-19T11:13:48Z</time></trkpt><trkpt lat="44.84806958065735" lon="8.008732680683783"><ele>262.6</ele><time>2026-04-19T11:13:49Z</time></trkpt><trkpt lat="44.84812560598198" lon="8.008878228396462"><ele>263.4</ele><time>2026-04-19T11:13:50Z</time></trkpt><trkpt lat="44.84820023087463" lon="8.008996124999268"><ele>264.2</ele><time>2026-04-19T11:13:51Z</time></trkpt><trkpt lat="44.84826198648327" lon="8.009058762490948"><ele>265.0</ele><time>2026-04-19T11:13:52Z</time></trkpt><trkpt lat="44.84832208556832" lon="8.008981130937624"><ele>265.0</ele><time>2026-04-19T11:13:54Z</time></trkpt><trkpt lat="44.84837586236377" lon="8.008864288923103"><ele>265.0</ele><time>2026-04-19T11:13:55Z</time></trkpt><trkpt lat="44.84842863487652" lon="8.008727755925776"><ele>265.0</ele><time>2026-04-19T11:13:56Z</time></trkpt><trkpt lat="44.84852298029503" lon="8.00866847442858"><ele>265.0</ele><time>2026-04-19T11:13:58Z</time></trkpt><trkpt lat="44.8485824121497" lon="8.008709656296505"><ele>265.0</ele><time>2026-04-19T11:13:59Z</time></trkpt><trkpt lat="44.848591413235205" lon="8.008844233445705"><ele>269.6</ele><time>2026-04-19T11:14:01Z</time></trkpt><trkpt lat="44.84851365904795" lon="8.008931527336259"><ele>274.2</ele><time>2026-04-19T11:14:02Z</time></trkpt><trkpt lat="44.8484626033425" lon="8.009006173997678"><ele>278.8</ele><time>2026-04-19T11:14:03Z</time></trkpt><trkpt lat="44.8484881650561" lon="8.00917368326204"><ele>283.4</ele><time>2026-04-19T11:14:05Z</time></trkpt><trkpt lat="44.84853525569485" lon="8.009264064266436"><ele>288.0</ele><time>2026-04-19T11:14:06Z</time></trkpt><trkpt lat="44.84859027416845" lon="8.009355304916292"><ele>288.0</ele><time>2026-04-19T11:14:07Z</time></trkpt><trkpt lat="44.84864273225322" lon="8.0094468054285"><ele>288.0</ele><time>2026-04-19T11:14:08Z</time></trkpt><trkpt lat="44.848687775296355" lon="8.009510756496423"><ele>288.0</ele><time>2026-04-19T11:14:09Z</time></trkpt><trkpt lat="44.848789093486104" lon="8.009592690781899"><ele>288.0</ele><time>2026-04-19T11:14:11Z</time></trkpt><trkpt lat="44.848859204846654" lon="8.00958754606199"><ele>288.0</ele><time>2026-04-19T11:14:12Z</time></trkpt><trkpt lat="44.848927660408904" lon="8.009549989417476"><ele>288.0</ele><time>2026-04-19T11:14:13Z</time></trkpt><trkpt lat="44.84898057284702" lon="8.009483051337147"><ele>288.0</ele><time>2026-04-19T11:14:14Z</time></trkpt><trkpt lat="44.849036924324686" lon="8.00940526385856"><ele>288.0</ele><time>2026-04-19T11:14:15Z</time></trkpt><trkpt lat="44.849101880190645" lon="8.009330923918727"><ele>288.0</ele><time>2026-04-19T11:14:16Z</time></trkpt><trkpt lat="44.8491720773928" lon="8.009299049581239"><ele>288.0</ele><time>2026-04-19T11:14:17Z</time></trkpt><trkpt lat="44.84925625935524" lon="8.009328523173924"><ele>288.0</ele><time>2026-04-19T11:14:18.999Z</time></trkpt><trkpt lat="44.849306370144014" lon="8.009408952575098"><ele>288.0</ele><time>2026-04-19T11:14:19.999Z</time></trkpt><trkpt lat="44.84936239147561" lon="8.009491406372225"><ele>288.28571428571433</ele><time>2026-04-19T11:14:20.999Z</time></trkpt><trkpt lat="44.84942067291774" lon="8.009536239803063"><ele>288.57142857142856</ele><time>2026-04-19T11:14:21.999Z</time></trkpt><trkpt lat="44.84948684822403" lon="8.00951856483693"><ele>288.8571428571429</ele><time>2026-04-19T11:14:22.999Z</time></trkpt><trkpt lat="44.84956374509808" lon="8.009482510042458"><ele>289.14285714285717</ele><time>2026-04-19T11:14:23.999Z</time></trkpt><trkpt lat="44.849640734217225" lon="8.009470456620523"><ele>289.42857142857144</ele><time>2026-04-19T11:14:24.999Z</time></trkpt><trkpt lat="44.84971681110851" lon="8.009450725104385"><ele>289.7142857142857</ele><time>2026-04-19T11:14:25.999Z</time></trkpt><trkpt lat="44.84977310346637" lon="8.009398970530908"><ele>290.0</ele><time>2026-04-19T11:14:26.999Z</time></trkpt><trkpt lat="44.849815518026546" lon="8.00931889957479"><ele>290.0</ele><time>2026-04-19T11:14:27.999Z</time></trkpt><trkpt lat="44.84985256363406" lon="8.009201109058273"><ele>290.0</ele><time>2026-04-19T11:14:29.999Z</time></trkpt><trkpt lat="44.849897794700816" lon="8.009082913924617"><ele>290.0</ele><time>2026-04-19T11:14:31.999Z</time></trkpt><trkpt lat="44.84989847503848" lon="8.008941662449173"><ele>290.0</ele><time>2026-04-19T11:14:33.999Z</time></trkpt><trkpt lat="44.84988544259739" lon="8.008794008552256"><ele>290.0</ele><time>2026-04-19T11:14:35.999Z</time></trkpt><trkpt lat="44.8499039705341" lon="8.008601362084578"><ele>290.0</ele><time>2026-04-19T11:14:37.999Z</time></trkpt><trkpt lat="44.849933137185715" lon="8.00850593614638"><ele>290.0</ele><time>2026-04-19T11:14:38.999Z</time></trkpt><trkpt lat="44.84998157828217" lon="8.008438427803853"><ele>290.0</ele><time>2026-04-19T11:14:39.999Z</time></trkpt><trkpt lat="44.85009992092962" lon="8.008415250561253"><ele>290.0</ele><time>2026-04-19T11:14:41.999Z</time></trkpt><trkpt lat="44.85022620653503" lon="8.008398611020178"><ele>290.0</ele><time>2026-04-19T11:14:43.999Z</time></trkpt><trkpt lat="44.85032386760187" lon="8.008409990728511"><ele>290.0</ele><time>2026-04-19T11:14:44.999Z</time></trkpt><trkpt lat="44.85040116647399" lon="8.008368015300185"><ele>290.0</ele><time>2026-04-19T11:14:45.999Z</time></trkpt><trkpt lat="44.85047808495263" lon="8.008329417081413"><ele>290.0</ele><time>2026-04-19T11:14:46.999Z</time></trkpt><trkpt lat="44.85056126771205" lon="8.008292903114175"><ele>290.0</ele><time>2026-04-19T11:14:47.999Z</time></trkpt><trkpt lat="44.85063253198468" lon="8.008297516800852"><ele>290.0</ele><time>2026-04-19T11:14:48.999Z</time></trkpt><trkpt lat="44.85075003854921" lon="8.008307438688096"><ele>290.0</ele><time>2026-04-19T11:14:50.999Z</time></trkpt><trkpt lat="44.850837812426036" lon="8.008275747535317"><ele>288.0</ele><time>2026-04-19T11:14:51.999Z</time></trkpt><trkpt lat="44.85092519694873" lon="8.008226536640656"><ele>286.0</ele><time>2026-04-19T11:14:52.999Z</time></trkpt><trkpt lat="44.85101463724893" lon="8.008195460590173"><ele>284.0</ele><time>2026-04-19T11:14:53.999Z</time></trkpt><trkpt lat="44.85110479336658" lon="8.008164154837175"><ele>282.0</ele><time>2026-04-19T11:14:54.999Z</time></trkpt><trkpt lat="44.85118996771196" lon="8.008141742001127"><ele>280.0</ele><time>2026-04-19T11:14:55.999Z</time></trkpt><trkpt lat="44.85127683025547" lon="8.008107094104874"><ele>280.0</ele><time>2026-04-19T11:14:56.999Z</time></trkpt><trkpt lat="44.85137457419035" lon="8.008069519857747"><ele>280.0</ele><time>2026-04-19T11:14:57.999Z</time></trkpt><trkpt lat="44.85146462877006" lon="8.008034301395833"><ele>280.0</ele><time>2026-04-19T11:14:58.999Z</time></trkpt><trkpt lat="44.85154864603474" lon="8.008009341222964"><ele>280.0</ele><time>2026-04-19T11:14:59.999Z</time></trkpt><trkpt lat="44.851619088862925" lon="8.007985540412085"><ele>280.0</ele><time>2026-04-19T11:15:00.999Z</time></trkpt><trkpt lat="44.85168110687298" lon="8.007954067588656"><ele>280.0</ele><time>2026-04-19T11:15:01.999Z</time></trkpt><trkpt lat="44.85179056393341" lon="8.007903807185684"><ele>279.0</ele><time>2026-04-19T11:15:03.999Z</time></trkpt><trkpt lat="44.85188549476124" lon="8.007883687093603"><ele>278.0</ele><time>2026-04-19T11:15:05.999Z</time></trkpt><trkpt lat="44.85193713362891" lon="8.00793948800976"><ele>277.0</ele><time>2026-04-19T11:15:07.999Z</time></trkpt><trkpt lat="44.852005321176826" lon="8.007986556410282"><ele>276.0</ele><time>2026-04-19T11:15:09.999Z</time></trkpt><trkpt lat="44.85208291330953" lon="8.007988107454667"><ele>275.0</ele><time>2026-04-19T11:15:11.999Z</time></trkpt><trkpt lat="44.85217074222004" lon="8.007943510897514"><ele>274.0</ele><time>2026-04-19T11:15:15Z</time></trkpt><trkpt lat="44.85229749741807" lon="8.007986359707987"><ele>274.0</ele><time>2026-04-19T11:15:17Z</time></trkpt><trkpt lat="44.85240215703404" lon="8.008043081006337"><ele>274.0</ele><time>2026-04-19T11:15:19Z</time></trkpt><trkpt lat="44.85246212341183" lon="8.00808364861242"><ele>274.0</ele><time>2026-04-19T11:15:20Z</time></trkpt><trkpt lat="44.852571414552905" lon="8.008175424257008"><ele>274.0</ele><time>2026-04-19T11:15:22Z</time></trkpt><trkpt lat="44.85267400182538" lon="8.00826722311546"><ele>274.0</ele><time>2026-04-19T11:15:24Z</time></trkpt><trkpt lat="44.852758122945495" lon="8.008396094618513"><ele>275.0</ele><time>2026-04-19T11:15:26Z</time></trkpt><trkpt lat="44.852807583956576" lon="8.008478426123167"><ele>276.0</ele><time>2026-04-19T11:15:27Z</time></trkpt><trkpt lat="44.852874931150744" lon="8.008604461115391"><ele>277.0</ele><time>2026-04-19T11:15:29Z</time></trkpt><trkpt lat="44.852935684903215" lon="8.00864950813409"><ele>278.0</ele><time>2026-04-19T11:15:31Z</time></trkpt><trkpt lat="44.85302422981097" lon="8.008606174830572"><ele>279.0</ele><time>2026-04-19T11:15:33Z</time></trkpt><trkpt lat="44.8530965123625" lon="8.008617237174102"><ele>280.0</ele><time>2026-04-19T11:15:34Z</time></trkpt><trkpt lat="44.85317656468822" lon="8.008643768552984"><ele>280.0</ele><time>2026-04-19T11:15:35Z</time></trkpt><trkpt lat="44.85325645911492" lon="8.008673363930361"><ele>280.0</ele><time>2026-04-19T11:15:36Z</time></trkpt><trkpt lat="44.85333652135281" lon="8.008689582780182"><ele>280.0</ele><time>2026-04-19T11:15:37Z</time></trkpt><trkpt lat="44.85341160423281" lon="8.00869764054831"><ele>280.0</ele><time>2026-04-19T11:15:38Z</time></trkpt><trkpt lat="44.85348495510828" lon="8.008628285749007"><ele>280.0</ele><time>2026-04-19T11:15:40Z</time></trkpt><trkpt lat="44.85356521521512" lon="8.008501116192146"><ele>280.0</ele><time>2026-04-19T11:15:42Z</time></trkpt><trkpt lat="44.85355187098502" lon="8.008362334369904"><ele>278.0</ele><time>2026-04-19T11:15:45Z</time></trkpt><trkpt lat="44.853616779327595" lon="8.00828306223376"><ele>276.0</ele><time>2026-04-19T11:15:47Z</time></trkpt><trkpt lat="44.853723819522436" lon="8.008291554679234"><ele>274.0</ele><time>2026-04-19T11:15:49Z</time></trkpt><trkpt lat="44.85377349681854" lon="8.008203255950633"><ele>272.0</ele><time>2026-04-19T11:15:51Z</time></trkpt><trkpt lat="44.85381960171077" lon="8.008106134242595"><ele>270.0</ele><time>2026-04-19T11:15:53Z</time></trkpt><trkpt lat="44.85390758848271" lon="8.008047616664017"><ele>270.0</ele><time>2026-04-19T11:16:12Z</time></trkpt><trkpt lat="44.853962513308964" lon="8.0080032055841"><ele>270.0</ele><time>2026-04-19T11:16:13Z</time></trkpt><trkpt lat="44.85402820523613" lon="8.008056673490085"><ele>270.0</ele><time>2026-04-19T11:16:16Z</time></trkpt><trkpt lat="44.85404356666437" lon="8.008201251189533"><ele>270.0</ele><time>2026-04-19T11:16:18Z</time></trkpt><trkpt lat="44.85407947850162" lon="8.008307056086544"><ele>270.0</ele><time>2026-04-19T11:16:20Z</time></trkpt><trkpt lat="44.854166181404615" lon="8.008384389980138"><ele>270.0</ele><time>2026-04-19T11:16:22Z</time></trkpt><trkpt lat="44.85421598457794" lon="8.00844594490814"><ele>269.5</ele><time>2026-04-19T11:16:25Z</time></trkpt><trkpt lat="44.854256663153265" lon="8.008586479466647"><ele>269.0</ele><time>2026-04-19T11:16:27.999Z</time></trkpt><trkpt lat="44.85428577453157" lon="8.008669988808323"><ele>268.5</ele><time>2026-04-19T11:16:29.999Z</time></trkpt><trkpt lat="44.854391387543124" lon="8.008632028882642"><ele>268.0</ele><time>2026-04-19T11:16:32.999Z</time></trkpt><trkpt lat="44.85447181283083" lon="8.008561683773822"><ele>267.5</ele><time>2026-04-19T11:16:34.999Z</time></trkpt><trkpt lat="44.85452796830398" lon="8.008512881500865"><ele>267.0</ele><time>2026-04-19T11:16:36.999Z</time></trkpt><trkpt lat="44.85456703433561" lon="8.008427634682729"><ele>267.0</ele><time>2026-04-19T11:16:38.999Z</time></trkpt><trkpt lat="44.85464251724403" lon="8.0083787338976"><ele>267.0</ele><time>2026-04-19T11:16:40.999Z</time></trkpt><trkpt lat="44.8547222774902" lon="8.00835573729966"><ele>267.0</ele><time>2026-04-19T11:16:42.999Z</time></trkpt><trkpt lat="44.854804466888645" lon="8.00833462420523"><ele>267.0</ele><time>2026-04-19T11:16:45.999Z</time></trkpt><trkpt lat="44.85487289823189" lon="8.008370554835041"><ele>267.0</ele><time>2026-04-19T11:17:07.999Z</time></trkpt><trkpt lat="44.85496649350554" lon="8.008338900844784"><ele>267.0</ele><time>2026-04-19T11:17:09.999Z</time></trkpt><trkpt lat="44.85503307724101" lon="8.008310732120508"><ele>263.0</ele><time>2026-04-19T11:17:13.999Z</time></trkpt><trkpt lat="44.85513195908851" lon="8.008239207009092"><ele>259.0</ele><time>2026-04-19T11:17:18.999Z</time></trkpt><trkpt lat="44.85523139842925" lon="8.008176695275015"><ele>255.0</ele><time>2026-04-19T11:17:21Z</time></trkpt><trkpt lat="44.85530325071092" lon="8.00813079880991"><ele>251.0</ele><time>2026-04-19T11:17:23Z</time></trkpt><trkpt lat="44.855369685753544" lon="8.008047595085513"><ele>247.0</ele><time>2026-04-19T11:17:26Z</time></trkpt><trkpt lat="44.85541632255262" lon="8.007965443585995"><ele>247.0</ele><time>2026-04-19T11:17:28Z</time></trkpt><trkpt lat="44.85544195631395" lon="8.007878382983096"><ele>247.0</ele><time>2026-04-19T11:17:30Z</time></trkpt><trkpt lat="44.85546202000909" lon="8.007770045175072"><ele>247.0</ele><time>2026-04-19T11:17:33Z</time></trkpt><trkpt lat="44.855493618357805" lon="8.007674054785582"><ele>247.0</ele><time>2026-04-19T11:17:35Z</time></trkpt><trkpt lat="44.855543257555205" lon="8.00754672124363"><ele>247.0</ele><time>2026-04-19T11:17:37Z</time></trkpt><trkpt lat="44.855628368659275" lon="8.00738830124371"><ele>245.2</ele><time>2026-04-19T11:17:39Z</time></trkpt><trkpt lat="44.85570262713836" lon="8.007259993925876"><ele>243.39999999999998</ele><time>2026-04-19T11:17:41Z</time></trkpt><trkpt lat="44.855764144233774" lon="8.007209406603769"><ele>241.60000000000002</ele><time>2026-04-19T11:17:42Z</time></trkpt><trkpt lat="44.855874850249215" lon="8.007121951054186"><ele>239.8</ele><time>2026-04-19T11:17:44Z</time></trkpt><trkpt lat="44.85592993477962" lon="8.007053415575841"><ele>238.0</ele><time>2026-04-19T11:17:45Z</time></trkpt><trkpt lat="44.855989810830906" lon="8.00698848722174"><ele>236.66666666666666</ele><time>2026-04-19T11:17:46Z</time></trkpt><trkpt lat="44.856053195339676" lon="8.006935494685692"><ele>235.33333333333331</ele><time>2026-04-19T11:17:47Z</time></trkpt><trkpt lat="44.85615705414063" lon="8.006869702303835"><ele>234.0</ele><time>2026-04-19T11:17:49Z</time></trkpt><trkpt lat="44.85620443332912" lon="8.006784799536412"><ele>232.66666666666669</ele><time>2026-04-19T11:17:51Z</time></trkpt><trkpt lat="44.85619183774536" lon="8.006880658326315"><ele>231.33333333333334</ele><time>2026-04-19T11:17:56Z</time></trkpt><trkpt lat="44.85617824484121" lon="8.006980006844044"><ele>230.0</ele><time>2026-04-19T11:17:59Z</time></trkpt><trkpt lat="44.85616324562192" lon="8.007083575281444"><ele>230.0</ele><time>2026-04-19T11:18:01Z</time></trkpt><trkpt lat="44.85616601537036" lon="8.007203793017812"><ele>230.0</ele><time>2026-04-19T11:18:03Z</time></trkpt><trkpt lat="44.856191042210746" lon="8.007406229841829"><ele>230.0</ele><time>2026-04-19T11:18:05Z</time></trkpt><trkpt lat="44.85620101908084" lon="8.00751573510952"><ele>230.0</ele><time>2026-04-19T11:18:06Z</time></trkpt><trkpt lat="44.85622407326863" lon="8.007671597014479"><ele>230.0</ele><time>2026-04-19T11:18:09Z</time></trkpt><trkpt lat="44.856243886103776" lon="8.007837347129467"><ele>230.99999999999997</ele><time>2026-04-19T11:18:11Z</time></trkpt><trkpt lat="44.85626187994335" lon="8.007933761058574"><ele>232.0</ele><time>2026-04-19T11:18:12Z</time></trkpt><trkpt lat="44.85629087484804" lon="8.008033210490872"><ele>232.99999999999997</ele><time>2026-04-19T11:18:13Z</time></trkpt><trkpt lat="44.856297948516435" lon="8.0081340112375"><ele>233.99999999999997</ele><time>2026-04-19T11:18:14Z</time></trkpt><trkpt lat="44.85629695223751" lon="8.00822648606856"><ele>235.0</ele><time>2026-04-19T11:18:15Z</time></trkpt><trkpt lat="44.856293385079354" lon="8.00832360589495"><ele>235.99999999999997</ele><time>2026-04-19T11:18:16Z</time></trkpt><trkpt lat="44.85628504837763" lon="8.008425245318623"><ele>236.99999999999997</ele><time>2026-04-19T11:18:17Z</time></trkpt><trkpt lat="44.856267301556365" lon="8.0085397480948"><ele>238.99999999999997</ele><time>2026-04-19T11:18:18Z</time></trkpt><trkpt lat="44.856276469416855" lon="8.008642561534174"><ele>241.0</ele><time>2026-04-19T11:18:19Z</time></trkpt><trkpt lat="44.8562896811105" lon="8.008737159236754"><ele>242.99999999999997</ele><time>2026-04-19T11:18:20Z</time></trkpt><trkpt lat="44.85629346470582" lon="8.008826454349135"><ele>244.99999999999997</ele><time>2026-04-19T11:18:21Z</time></trkpt><trkpt lat="44.85627635290672" lon="8.00891388295241"><ele>247.0</ele><time>2026-04-19T11:18:22Z</time></trkpt><trkpt lat="44.85626213950914" lon="8.009006791102253"><ele>248.99999999999997</ele><time>2026-04-19T11:18:23Z</time></trkpt><trkpt lat="44.85624198596374" lon="8.009097553285619"><ele>250.99999999999997</ele><time>2026-04-19T11:18:24Z</time></trkpt><trkpt lat="44.856339601738924" lon="8.009098843051271"><ele>251.00000000000003</ele><time>2026-04-19T11:18:27Z</time></trkpt><trkpt lat="44.85639403892471" lon="8.00901862808567"><ele>251.0</ele><time>2026-04-19T11:18:28Z</time></trkpt><trkpt lat="44.856455490530806" lon="8.00892083652087"><ele>251.0</ele><time>2026-04-19T11:18:29Z</time></trkpt><trkpt lat="44.856529692722376" lon="8.00882227474452"><ele>251.0</ele><time>2026-04-19T11:18:31Z</time></trkpt><trkpt lat="44.856556134715525" lon="8.008683606843727"><ele>251.00000000000003</ele><time>2026-04-19T11:18:33Z</time></trkpt><trkpt lat="44.85659870838311" lon="8.008606112431245"><ele>251.0</ele><time>2026-04-19T11:18:34Z</time></trkpt><trkpt lat="44.85664638486679" lon="8.008544327052418"><ele>251.0</ele><time>2026-04-19T11:18:35Z</time></trkpt><trkpt lat="44.85675140847937" lon="8.008432960255137"><ele>251.00000000000003</ele><time>2026-04-19T11:18:37Z</time></trkpt><trkpt lat="44.85684822518756" lon="8.008335908462099"><ele>251.00000000000003</ele><time>2026-04-19T11:18:39Z</time></trkpt><trkpt lat="44.85689155623485" lon="8.00826756318254"><ele>251.0</ele><time>2026-04-19T11:18:40Z</time></trkpt><trkpt lat="44.85695348137917" lon="8.008217688026349"><ele>251.0</ele><time>2026-04-19T11:18:42Z</time></trkpt><trkpt lat="44.85700357044838" lon="8.00827246224223"><ele>249.60000000000002</ele><time>2026-04-19T11:18:44Z</time></trkpt><trkpt lat="44.85703312301585" lon="8.00843008874855"><ele>248.20000000000002</ele><time>2026-04-19T11:18:46.999Z</time></trkpt><trkpt lat="44.85698882562386" lon="8.008501069000515"><ele>246.79999999999998</ele><time>2026-04-19T11:18:47.999Z</time></trkpt><trkpt lat="44.85692436141699" lon="8.0085944500562"><ele>245.39999999999998</ele><time>2026-04-19T11:18:48.999Z</time></trkpt><trkpt lat="44.85688446636073" lon="8.008713466328334"><ele>244.0</ele><time>2026-04-19T11:18:49.999Z</time></trkpt><trkpt lat="44.856855392207606" lon="8.008831349309208"><ele>244.0</ele><time>2026-04-19T11:18:50.999Z</time></trkpt><trkpt lat="44.85683045193013" lon="8.008923041577521"><ele>243.99999999999997</ele><time>2026-04-19T11:18:51.999Z</time></trkpt><trkpt lat="44.85675087294848" lon="8.009076408221095"><ele>243.99999999999997</ele><time>2026-04-19T11:18:53.999Z</time></trkpt><trkpt lat="44.85671760258684" lon="8.0091645933968"><ele>244.0</ele><time>2026-04-19T11:18:54.999Z</time></trkpt><trkpt lat="44.856702980566084" lon="8.0093211052962"><ele>244.0</ele><time>2026-04-19T11:18:56.999Z</time></trkpt><trkpt lat="44.856711628149576" lon="8.009477449413358"><ele>246.16666666666666</ele><time>2026-04-19T11:18:58.999Z</time></trkpt><trkpt lat="44.856747397428556" lon="8.00963293166366"><ele>248.33333333333331</ele><time>2026-04-19T11:19:00.999Z</time></trkpt><trkpt lat="44.85677088948753" lon="8.009730802428127"><ele>250.5</ele><time>2026-04-19T11:19:01.999Z</time></trkpt><trkpt lat="44.85679084037797" lon="8.00981728147014"><ele>252.66666666666669</ele><time>2026-04-19T11:19:02.999Z</time></trkpt><trkpt lat="44.856781259138366" lon="8.009987250984572"><ele>254.83333333333334</ele><time>2026-04-19T11:19:04.999Z</time></trkpt><trkpt lat="44.85676130815602" lon="8.010081516165377"><ele>257.0</ele><time>2026-04-19T11:19:05.999Z</time></trkpt><trkpt lat="44.856734865868866" lon="8.010168062416982"><ele>259.33333333333337</ele><time>2026-04-19T11:19:06.999Z</time></trkpt><trkpt lat="44.8566938778056" lon="8.010250225650468"><ele>261.6666666666667</ele><time>2026-04-19T11:19:07.999Z</time></trkpt><trkpt lat="44.856663829941226" lon="8.010344762165179"><ele>264.0</ele><time>2026-04-19T11:19:08.999Z</time></trkpt><trkpt lat="44.856647591406706" lon="8.010434525666781"><ele>266.3333333333333</ele><time>2026-04-19T11:19:09.999Z</time></trkpt><trkpt lat="44.85661148065403" lon="8.010536385049416"><ele>268.66666666666663</ele><time>2026-04-19T11:19:10.999Z</time></trkpt><trkpt lat="44.85658164468537" lon="8.010619739766693"><ele>271.0</ele><time>2026-04-19T11:19:11.999Z</time></trkpt><trkpt lat="44.85653116266348" lon="8.010778155975922"><ele>271.8</ele><time>2026-04-19T11:19:13.999Z</time></trkpt><trkpt lat="44.85653740782715" lon="8.010883069647727"><ele>272.6</ele><time>2026-04-19T11:19:16.999Z</time></trkpt><trkpt lat="44.85662063302969" lon="8.010986976014951"><ele>273.4</ele><time>2026-04-19T11:19:18.999Z</time></trkpt><trkpt lat="44.85667570383534" lon="8.011097620103916"><ele>274.2</ele><time>2026-04-19T11:19:19.999Z</time></trkpt><trkpt lat="44.85671773953076" lon="8.01116804147037"><ele>275.0</ele><time>2026-04-19T11:19:20.999Z</time></trkpt><trkpt lat="44.856786477531" lon="8.011294478322673"><ele>275.4</ele><time>2026-04-19T11:19:22.999Z</time></trkpt><trkpt lat="44.85686392043015" lon="8.011413572157615"><ele>275.8</ele><time>2026-04-19T11:19:24.999Z</time></trkpt><trkpt lat="44.85693503596933" lon="8.011524298098347"><ele>276.2</ele><time>2026-04-19T11:19:27Z</time></trkpt><trkpt lat="44.85701386771673" lon="8.011630199684229"><ele>276.6</ele><time>2026-04-19T11:19:29Z</time></trkpt><trkpt lat="44.857119155846576" lon="8.011679806360556"><ele>277.0</ele><time>2026-04-19T11:19:31Z</time></trkpt><trkpt lat="44.857256098013174" lon="8.011667713889164"><ele>277.0</ele><time>2026-04-19T11:19:33Z</time></trkpt><trkpt lat="44.85734794093284" lon="8.011653774693965"><ele>277.0</ele><time>2026-04-19T11:19:34Z</time></trkpt><trkpt lat="44.85741976383685" lon="8.011653461352502"><ele>277.0</ele><time>2026-04-19T11:19:35Z</time></trkpt><trkpt lat="44.85748893007944" lon="8.011667673214497"><ele>277.0</ele><time>2026-04-19T11:19:36Z</time></trkpt><trkpt lat="44.857611522772324" lon="8.0116420452269"><ele>277.0</ele><time>2026-04-19T11:19:38Z</time></trkpt><trkpt lat="44.857723830709844" lon="8.011585446074232"><ele>274.0</ele><time>2026-04-19T11:19:40Z</time></trkpt><trkpt lat="44.85783469062054" lon="8.011618707040855"><ele>271.0</ele><time>2026-04-19T11:19:42Z</time></trkpt><trkpt lat="44.857935075857384" lon="8.011706521007968"><ele>268.0</ele><time>2026-04-19T11:19:44Z</time></trkpt><trkpt lat="44.857999535032086" lon="8.011735791311025"><ele>265.0</ele><time>2026-04-19T11:19:45Z</time></trkpt><trkpt lat="44.85806888583065" lon="8.011712106502019"><ele>262.0</ele><time>2026-04-19T11:19:46Z</time></trkpt><trkpt lat="44.858132294706074" lon="8.011674095157971"><ele>259.0</ele><time>2026-04-19T11:19:47Z</time></trkpt><trkpt lat="44.8581953796996" lon="8.011618752197423"><ele>259.0</ele><time>2026-04-19T11:19:48Z</time></trkpt><trkpt lat="44.85825632173471" lon="8.011577668329807"><ele>259.0</ele><time>2026-04-19T11:19:49Z</time></trkpt><trkpt lat="44.85836494506834" lon="8.011500326079407"><ele>259.0</ele><time>2026-04-19T11:19:51Z</time></trkpt><trkpt lat="44.85843230728132" lon="8.011459800664742"><ele>259.0</ele><time>2026-04-19T11:19:52Z</time></trkpt><trkpt lat="44.85849770147019" lon="8.011443343245851"><ele>259.0</ele><time>2026-04-19T11:19:53Z</time></trkpt><trkpt lat="44.85856652365923" lon="8.01143499844874"><ele>259.0</ele><time>2026-04-19T11:19:54Z</time></trkpt><trkpt lat="44.85863653871817" lon="8.011423017420576"><ele>256.8333333333333</ele><time>2026-04-19T11:19:55Z</time></trkpt><trkpt lat="44.858713978201564" lon="8.011389213184449"><ele>254.66666666666666</ele><time>2026-04-19T11:19:56Z</time></trkpt><trkpt lat="44.858784783022934" lon="8.011343710096673"><ele>252.5</ele><time>2026-04-19T11:19:57Z</time></trkpt><trkpt lat="44.858869001696824" lon="8.011293670383653"><ele>250.33333333333331</ele><time>2026-04-19T11:19:58Z</time></trkpt><trkpt lat="44.85892836679997" lon="8.011252007109073"><ele>248.16666666666666</ele><time>2026-04-19T11:19:59Z</time></trkpt><trkpt lat="44.859028797225726" lon="8.011163090435451"><ele>246.0</ele><time>2026-04-19T11:20:01Z</time></trkpt><trkpt lat="44.85904899625909" lon="8.010981489234208"><ele>246.0</ele><time>2026-04-19T11:20:03Z</time></trkpt><trkpt lat="44.85906201552337" lon="8.010873627545768"><ele>246.00000000000003</ele><time>2026-04-19T11:20:04Z</time></trkpt><trkpt lat="44.859145117778475" lon="8.010744589628974"><ele>246.00000000000003</ele><time>2026-04-19T11:20:06Z</time></trkpt><trkpt lat="44.85920268460702" lon="8.010693281630592"><ele>246.0</ele><time>2026-04-19T11:20:07Z</time></trkpt><trkpt lat="44.8593302482369" lon="8.010601029390644"><ele>246.0</ele><time>2026-04-19T11:20:09Z</time></trkpt><trkpt lat="44.85941933697611" lon="8.010482194888501"><ele>245.33333333333334</ele><time>2026-04-19T11:20:11Z</time></trkpt><trkpt lat="44.859435193583806" lon="8.010392486123862"><ele>244.66666666666669</ele><time>2026-04-19T11:20:12Z</time></trkpt><trkpt lat="44.85945520766034" lon="8.010297020282632"><ele>244.0</ele><time>2026-04-19T11:20:13Z</time></trkpt><trkpt lat="44.859552698760815" lon="8.010264205867056"><ele>243.33333333333334</ele><time>2026-04-19T11:20:15Z</time></trkpt><trkpt lat="44.859597765060485" lon="8.010340935647067"><ele>242.66666666666669</ele><time>2026-04-19T11:20:16Z</time></trkpt><trkpt lat="44.85962188285298" lon="8.010451412282944"><ele>242.0</ele><time>2026-04-19T11:20:17Z</time></trkpt><trkpt lat="44.85964465751109" lon="8.010563074318895"><ele>242.00000000000003</ele><time>2026-04-19T11:20:18Z</time></trkpt><trkpt lat="44.859656812534766" lon="8.010678887864927"><ele>242.0</ele><time>2026-04-19T11:20:19Z</time></trkpt><trkpt lat="44.85965538377106" lon="8.010790090348957"><ele>242.0</ele><time>2026-04-19T11:20:20Z</time></trkpt><trkpt lat="44.859698567820935" lon="8.010902765870076"><ele>242.0</ele><time>2026-04-19T11:20:21Z</time></trkpt><trkpt lat="44.85972636212934" lon="8.010991021003749"><ele>242.00000000000003</ele><time>2026-04-19T11:20:22Z</time></trkpt><trkpt lat="44.859737495927675" lon="8.011094677329266"><ele>242.0</ele><time>2026-04-19T11:20:23Z</time></trkpt><trkpt lat="44.85973634929202" lon="8.011226468537668"><ele>240.6</ele><time>2026-04-19T11:20:25Z</time></trkpt><trkpt lat="44.859726848046066" lon="8.011316389492592"><ele>239.2</ele><time>2026-04-19T11:20:27Z</time></trkpt><trkpt lat="44.85967803427857" lon="8.011441757808837"><ele>237.8</ele><time>2026-04-19T11:20:29Z</time></trkpt><trkpt lat="44.85961940816504" lon="8.011559033930254"><ele>236.4</ele><time>2026-04-19T11:20:31Z</time></trkpt><trkpt lat="44.85964668404231" lon="8.01166349163821"><ele>235.0</ele><time>2026-04-19T11:20:33Z</time></trkpt><trkpt lat="44.85978271514728" lon="8.011765321252419"><ele>234.75</ele><time>2026-04-19T11:20:35Z</time></trkpt><trkpt lat="44.85988281255537" lon="8.011821869527058"><ele>234.5</ele><time>2026-04-19T11:20:36Z</time></trkpt><trkpt lat="44.85999784914097" lon="8.011891033066217"><ele>234.25</ele><time>2026-04-19T11:20:37Z</time></trkpt><trkpt lat="44.86010750879158" lon="8.011963860767356"><ele>234.0</ele><time>2026-04-19T11:20:38Z</time></trkpt><trkpt lat="44.86020978228996" lon="8.012018834951974"><ele>233.79999999999998</ele><time>2026-04-19T11:20:39Z</time></trkpt><trkpt lat="44.86030637069956" lon="8.012071738867043"><ele>233.59999999999997</ele><time>2026-04-19T11:20:40Z</time></trkpt><trkpt lat="44.86039759274446" lon="8.012136734206262"><ele>233.4</ele><time>2026-04-19T11:20:41Z</time></trkpt><trkpt lat="44.86050119388395" lon="8.012215975253385"><ele>233.2</ele><time>2026-04-19T11:20:42Z</time></trkpt><trkpt lat="44.860611649579184" lon="8.012280928583397"><ele>233.0</ele><time>2026-04-19T11:20:43Z</time></trkpt><trkpt lat="44.860719266155925" lon="8.01232214447748"><ele>233.0</ele><time>2026-04-19T11:20:44Z</time></trkpt><trkpt lat="44.860819851165715" lon="8.012336375779704"><ele>233.0</ele><time>2026-04-19T11:20:45Z</time></trkpt><trkpt lat="44.86092940290576" lon="8.01234855482554"><ele>233.0</ele><time>2026-04-19T11:20:46Z</time></trkpt><trkpt lat="44.86101836660225" lon="8.012376206255754"><ele>233.0</ele><time>2026-04-19T11:20:47Z</time></trkpt><trkpt lat="44.86111086734343" lon="8.012393066607546"><ele>233.0</ele><time>2026-04-19T11:20:48Z</time></trkpt><trkpt lat="44.86121197581252" lon="8.012425526984714"><ele>234.66666666666669</ele><time>2026-04-19T11:20:49Z</time></trkpt><trkpt lat="44.86130000429262" lon="8.01242913020092"><ele>236.33333333333334</ele><time>2026-04-19T11:20:50Z</time></trkpt><trkpt lat="44.86137125183771" lon="8.012387706284775"><ele>238.0</ele><time>2026-04-19T11:20:51Z</time></trkpt><trkpt lat="44.86145062047932" lon="8.012305032365802"><ele>239.66666666666669</ele><time>2026-04-19T11:20:52Z</time></trkpt><trkpt lat="44.86152716265553" lon="8.012233848973647"><ele>241.33333333333334</ele><time>2026-04-19T11:20:53Z</time></trkpt><trkpt lat="44.861602246917165" lon="8.0122248731963"><ele>243.0</ele><time>2026-04-19T11:20:54Z</time></trkpt><trkpt lat="44.861694669562624" lon="8.012267225646099"><ele>243.75</ele><time>2026-04-19T11:20:55Z</time></trkpt><trkpt lat="44.86180864093572" lon="8.012347821519697"><ele>244.5</ele><time>2026-04-19T11:20:56Z</time></trkpt><trkpt lat="44.86192095572095" lon="8.012415704125232"><ele>245.25</ele><time>2026-04-19T11:20:57Z</time></trkpt><trkpt lat="44.86202899993147" lon="8.01247168962181"><ele>246.0</ele><time>2026-04-19T11:20:58Z</time></trkpt><trkpt lat="44.86212640069207" lon="8.012527837896384"><ele>246.4</ele><time>2026-04-19T11:20:59Z</time></trkpt><trkpt lat="44.86220260906206" lon="8.012592419749279"><ele>246.8</ele><time>2026-04-19T11:21:00Z</time></trkpt><trkpt lat="44.862267154483106" lon="8.0126585565124"><ele>247.20000000000002</ele><time>2026-04-19T11:21:01Z</time></trkpt><trkpt lat="44.862355799184975" lon="8.012750321199727"><ele>247.60000000000002</ele><time>2026-04-19T11:21:02Z</time></trkpt><trkpt lat="44.862440426049965" lon="8.012838695287423"><ele>248.0</ele><time>2026-04-19T11:21:03Z</time></trkpt><trkpt lat="44.86252551889098" lon="8.012921126650925"><ele>248.0</ele><time>2026-04-19T11:21:04Z</time></trkpt><trkpt lat="44.862600624902235" lon="8.012978527780161"><ele>248.0</ele><time>2026-04-19T11:21:05Z</time></trkpt><trkpt lat="44.862693996541786" lon="8.012988757178045"><ele>248.0</ele><time>2026-04-19T11:21:06Z</time></trkpt><trkpt lat="44.86279744653799" lon="8.012973936311552"><ele>248.0</ele><time>2026-04-19T11:21:07Z</time></trkpt><trkpt lat="44.86290188386044" lon="8.012951157241236"><ele>248.0</ele><time>2026-04-19T11:21:08Z</time></trkpt><trkpt lat="44.86298276092129" lon="8.012949095806514"><ele>246.75</ele><time>2026-04-19T11:21:09Z</time></trkpt><trkpt lat="44.863093546540384" lon="8.013067609350747"><ele>245.5</ele><time>2026-04-19T11:21:11Z</time></trkpt><trkpt lat="44.863152978850835" lon="8.013198995169013"><ele>244.25</ele><time>2026-04-19T11:21:12Z</time></trkpt><trkpt lat="44.863214948437246" lon="8.013360321515918"><ele>243.0</ele><time>2026-04-19T11:21:13Z</time></trkpt><trkpt lat="44.86326681786787" lon="8.01352267562334"><ele>243.0</ele><time>2026-04-19T11:21:14Z</time></trkpt><trkpt lat="44.863298133273524" lon="8.013655526102072"><ele>243.0</ele><time>2026-04-19T11:21:15Z</time></trkpt><trkpt lat="44.86332441800659" lon="8.013745339491079"><ele>243.0</ele><time>2026-04-19T11:21:16Z</time></trkpt><trkpt lat="44.86340904503447" lon="8.013805020448398"><ele>243.0</ele><time>2026-04-19T11:21:17.999Z</time></trkpt><trkpt lat="44.86347914143464" lon="8.013757196425058"><ele>243.0</ele><time>2026-04-19T11:21:21.999Z</time></trkpt><trkpt lat="44.86353436901512" lon="8.013821035981675"><ele>243.0</ele><time>2026-04-19T11:21:23.999Z</time></trkpt><trkpt lat="44.86358572970958" lon="8.013900375375243"><ele>241.0</ele><time>2026-04-19T11:21:25.999Z</time></trkpt><trkpt lat="44.86360807112478" lon="8.014002089129512"><ele>239.0</ele><time>2026-04-19T11:21:28.999Z</time></trkpt><trkpt lat="44.863687246295804" lon="8.014076335912378"><ele>237.0</ele><time>2026-04-19T11:21:30.999Z</time></trkpt><trkpt lat="44.86374366501885" lon="8.014197846852786"><ele>235.0</ele><time>2026-04-19T11:21:33Z</time></trkpt><trkpt lat="44.86380760836599" lon="8.014136398400199"><ele>233.0</ele><time>2026-04-19T11:21:36Z</time></trkpt><trkpt lat="44.863889782774216" lon="8.014125875468347"><ele>231.0</ele><time>2026-04-19T11:21:40Z</time></trkpt><trkpt lat="44.86395359812468" lon="8.014138574945191"><ele>230.4</ele><time>2026-04-19T11:21:42Z</time></trkpt><trkpt lat="44.864009683544936" lon="8.014059070344707"><ele>229.8</ele><time>2026-04-19T11:21:44Z</time></trkpt><trkpt lat="44.86406069653061" lon="8.013965778748254"><ele>229.20000000000002</ele><time>2026-04-19T11:21:46Z</time></trkpt><trkpt lat="44.864160497021786" lon="8.013924660375759"><ele>228.60000000000002</ele><time>2026-04-19T11:21:48Z</time></trkpt><trkpt lat="44.86422724408038" lon="8.013988723967767"><ele>228.0</ele><time>2026-04-19T11:21:50Z</time></trkpt><trkpt lat="44.86427569512097" lon="8.014141142631223"><ele>228.60000000000002</ele><time>2026-04-19T11:21:52Z</time></trkpt><trkpt lat="44.864276271193155" lon="8.014253412949634"><ele>229.20000000000002</ele><time>2026-04-19T11:21:53Z</time></trkpt><trkpt lat="44.86427626772547" lon="8.014345801789494"><ele>229.8</ele><time>2026-04-19T11:21:54Z</time></trkpt><trkpt lat="44.864339700213826" lon="8.014475400283118"><ele>230.4</ele><time>2026-04-19T11:21:56Z</time></trkpt><trkpt lat="44.864462594211986" lon="8.014525766773277"><ele>231.0</ele><time>2026-04-19T11:21:58Z</time></trkpt><trkpt lat="44.864552384116195" lon="8.014631890371337"><ele>228.20000000000002</ele><time>2026-04-19T11:22:00Z</time></trkpt><trkpt lat="44.86465472089979" lon="8.01470208643676"><ele>225.40000000000003</ele><time>2026-04-19T11:22:02Z</time></trkpt><trkpt lat="44.86477685767116" lon="8.014691422842784"><ele>222.6</ele><time>2026-04-19T11:22:04Z</time></trkpt><trkpt lat="44.86484452649406" lon="8.014682791428497"><ele>219.8</ele><time>2026-04-19T11:22:05Z</time></trkpt><trkpt lat="44.864912649819495" lon="8.014683782795819"><ele>217.0</ele><time>2026-04-19T11:22:06Z</time></trkpt><trkpt lat="44.865022631743734" lon="8.01471263241285"><ele>216.2</ele><time>2026-04-19T11:22:08Z</time></trkpt><trkpt lat="44.8651357013814" lon="8.014825684560945"><ele>215.39999999999998</ele><time>2026-04-19T11:22:10Z</time></trkpt><trkpt lat="44.8652181631322" lon="8.014875805295633"><ele>214.60000000000002</ele><time>2026-04-19T11:22:11Z</time></trkpt><trkpt lat="44.865311611753455" lon="8.014888496503936"><ele>213.8</ele><time>2026-04-19T11:22:12Z</time></trkpt><trkpt lat="44.86540968514368" lon="8.014885332331897"><ele>213.0</ele><time>2026-04-19T11:22:13Z</time></trkpt><trkpt lat="44.865499869451355" lon="8.014873581677321"><ele>213.0</ele><time>2026-04-19T11:22:14Z</time></trkpt><trkpt lat="44.865566345793624" lon="8.014863751198586"><ele>213.0</ele><time>2026-04-19T11:22:15Z</time></trkpt><trkpt lat="44.86555333755677" lon="8.01476045605025"><ele>213.0</ele><time>2026-04-19T11:22:20Z</time></trkpt><trkpt lat="44.86562520508654" lon="8.014722321888385"><ele>213.0</ele><time>2026-04-19T11:23:23Z</time></trkpt><trkpt lat="44.86573349195134" lon="8.014839991174858"><ele>213.0</ele><time>2026-04-19T11:23:51Z</time></trkpt><trkpt lat="44.86580865706358" lon="8.014922485670319"><ele>213.0</ele><time>2026-04-19T11:23:53Z</time></trkpt><trkpt lat="44.86586388078378" lon="8.014983974439756"><ele>213.0</ele><time>2026-04-19T11:23:55Z</time></trkpt><trkpt lat="44.865925404197846" lon="8.01501562846872"><ele>213.0</ele><time>2026-04-19T11:23:57Z</time></trkpt><trkpt lat="44.86599159806169" lon="8.01507453453229"><ele>213.0</ele><time>2026-04-19T11:23:59Z</time></trkpt><trkpt lat="44.866032194421614" lon="8.015151452367933"><ele>213.0</ele><time>2026-04-19T11:24:01Z</time></trkpt><trkpt lat="44.866030243175494" lon="8.015327530278288"><ele>213.0</ele><time>2026-04-19T11:24:03Z</time></trkpt><trkpt lat="44.86604768884023" lon="8.015421707573358"><ele>212.2</ele><time>2026-04-19T11:24:04Z</time></trkpt><trkpt lat="44.86610436429102" lon="8.015533222860247"><ele>211.4</ele><time>2026-04-19T11:24:06Z</time></trkpt><trkpt lat="44.86615289739236" lon="8.015598001329726"><ele>210.6</ele><time>2026-04-19T11:24:07Z</time></trkpt><trkpt lat="44.8662282837658" lon="8.015725535355198"><ele>209.79999999999998</ele><time>2026-04-19T11:24:09Z</time></trkpt><trkpt lat="44.866299258333605" lon="8.015785534940989"><ele>209.0</ele><time>2026-04-19T11:24:11Z</time></trkpt><trkpt lat="44.86638787291661" lon="8.01580537590351"><ele>209.0</ele><time>2026-04-19T11:24:13Z</time></trkpt><trkpt lat="44.86649821310232" lon="8.015834336208965"><ele>209.0</ele><time>2026-04-19T11:24:15Z</time></trkpt><trkpt lat="44.86658129064904" lon="8.015875654893028"><ele>209.0</ele><time>2026-04-19T11:24:16Z</time></trkpt><trkpt lat="44.866666375552086" lon="8.015904808814419"><ele>209.0</ele><time>2026-04-19T11:24:18Z</time></trkpt><trkpt lat="44.866730693882005" lon="8.015896589348493"><ele>209.0</ele><time>2026-04-19T11:24:21Z</time></trkpt><trkpt lat="44.866852962708386" lon="8.015905866893982"><ele>209.00000000000003</ele><time>2026-04-19T11:24:23Z</time></trkpt><trkpt lat="44.86692672302722" lon="8.015985381320917"><ele>209.0</ele><time>2026-04-19T11:24:25Z</time></trkpt><trkpt lat="44.86698465396026" lon="8.01602789283758"><ele>209.0</ele><time>2026-04-19T11:24:26Z</time></trkpt><trkpt lat="44.867061800377904" lon="8.016071802974581"><ele>209.0</ele><time>2026-04-19T11:24:28Z</time></trkpt><trkpt lat="44.86711161191215" lon="8.016000789855385"><ele>209.00000000000003</ele><time>2026-04-19T11:24:30Z</time></trkpt><trkpt lat="44.86719670367891" lon="8.015986567169595"><ele>209.0</ele><time>2026-04-19T11:24:33Z</time></trkpt><trkpt lat="44.8673173325059" lon="8.01594091220579"><ele>209.00000000000003</ele><time>2026-04-19T11:24:35Z</time></trkpt><trkpt lat="44.867385795685514" lon="8.015935407242102"><ele>209.0</ele><time>2026-04-19T11:24:36Z</time></trkpt><trkpt lat="44.86748802395302" lon="8.015964152595357"><ele>209.0</ele><time>2026-04-19T11:24:38Z</time></trkpt><trkpt lat="44.86754646885096" lon="8.016014723336895"><ele>209.0</ele><time>2026-04-19T11:24:40Z</time></trkpt><trkpt lat="44.867549921789696" lon="8.016139165307488"><ele>209.00000000000003</ele><time>2026-04-19T11:24:42Z</time></trkpt><trkpt lat="44.86750254140025" lon="8.01620944423751"><ele>209.0</ele><time>2026-04-19T11:24:43Z</time></trkpt><trkpt lat="44.867444498826245" lon="8.016282218310016"><ele>209.00000000000003</ele><time>2026-04-19T11:24:44Z</time></trkpt><trkpt lat="44.867440717704824" lon="8.016402734829018"><ele>209.0</ele><time>2026-04-19T11:24:46Z</time></trkpt><trkpt lat="44.86748946467193" lon="8.01649749261959"><ele>209.0</ele><time>2026-04-19T11:24:49Z</time></trkpt><trkpt lat="44.867548056719365" lon="8.016538011385599"><ele>209.0</ele><time>2026-04-19T11:24:50Z</time></trkpt><trkpt lat="44.867610329430335" lon="8.016566114813608"><ele>209.00000000000003</ele><time>2026-04-19T11:24:51Z</time></trkpt><trkpt lat="44.867686800093786" lon="8.016580771265497"><ele>209.0</ele><time>2026-04-19T11:24:52Z</time></trkpt><trkpt lat="44.867777405940785" lon="8.01659537834293"><ele>209.0</ele><time>2026-04-19T11:24:53Z</time></trkpt><trkpt lat="44.86789172841301" lon="8.016621106896421"><ele>209.0</ele><time>2026-04-19T11:24:54Z</time></trkpt><trkpt lat="44.86800753861845" lon="8.016644668270507"><ele>209.0</ele><time>2026-04-19T11:24:55Z</time></trkpt><trkpt lat="44.868111169518635" lon="8.016661978404418"><ele>209.0</ele><time>2026-04-19T11:24:56Z</time></trkpt><trkpt lat="44.86821026556858" lon="8.016674275987057"><ele>209.0</ele><time>2026-04-19T11:24:57Z</time></trkpt><trkpt lat="44.8683165355352" lon="8.016686094584944"><ele>209.0</ele><time>2026-04-19T11:24:58Z</time></trkpt><trkpt lat="44.868427829511866" lon="8.016698399131691"><ele>209.0</ele><time>2026-04-19T11:24:59Z</time></trkpt><trkpt lat="44.86854386717087" lon="8.016701781327201"><ele>209.0</ele><time>2026-04-19T11:25:00Z</time></trkpt><trkpt lat="44.868666774854454" lon="8.016707611935436"><ele>209.0</ele><time>2026-04-19T11:25:01Z</time></trkpt><trkpt lat="44.86879055060856" lon="8.016719557661794"><ele>209.0</ele><time>2026-04-19T11:25:02Z</time></trkpt><trkpt lat="44.86891021193117" lon="8.01673292107914"><ele>209.0</ele><time>2026-04-19T11:25:03Z</time></trkpt><trkpt lat="44.869029997319956" lon="8.016743369614325"><ele>209.0</ele><time>2026-04-19T11:25:04Z</time></trkpt><trkpt lat="44.86914726593119" lon="8.016746622154683"><ele>209.0</ele><time>2026-04-19T11:25:05Z</time></trkpt><trkpt lat="44.869259981574636" lon="8.016769845355212"><ele>208.83333333333334</ele><time>2026-04-19T11:25:06Z</time></trkpt><trkpt lat="44.869350617192765" lon="8.016806723654762"><ele>208.66666666666669</ele><time>2026-04-19T11:25:07Z</time></trkpt><trkpt lat="44.869407807971626" lon="8.016844338654366"><ele>208.5</ele><time>2026-04-19T11:25:08Z</time></trkpt><trkpt lat="44.86949374276266" lon="8.016910157628761"><ele>208.33333333333331</ele><time>2026-04-19T11:25:10Z</time></trkpt><trkpt lat="44.86942824340472" lon="8.016851920030499"><ele>208.16666666666666</ele><time>2026-04-19T11:25:15Z</time></trkpt><trkpt lat="44.86933129838192" lon="8.01683464459453"><ele>208.0</ele><time>2026-04-19T11:25:17Z</time></trkpt><trkpt lat="44.8692938090454" lon="8.016914818117177"><ele>207.99999999999997</ele><time>2026-04-19T11:25:20Z</time></trkpt><trkpt lat="44.869321711370155" lon="8.017024896465959"><ele>208.0</ele><time>2026-04-19T11:25:22Z</time></trkpt><trkpt lat="44.86931446659465" lon="8.017165910182209"><ele>208.0</ele><time>2026-04-19T11:25:24Z</time></trkpt><trkpt lat="44.869327927369966" lon="8.017260923611547"><ele>208.0</ele><time>2026-04-19T11:25:25Z</time></trkpt><trkpt lat="44.86933494596924" lon="8.017391861836778"><ele>207.99999999999997</ele><time>2026-04-19T11:25:27Z</time></trkpt><trkpt lat="44.86935459952677" lon="8.017514233015362"><ele>208.0</ele><time>2026-04-19T11:25:29Z</time></trkpt><trkpt lat="44.86930044663625" lon="8.017575067246495"><ele>208.33333333333331</ele><time>2026-04-19T11:27:07Z</time></trkpt><trkpt lat="44.86925567388299" lon="8.017664244012922"><ele>208.66666666666666</ele><time>2026-04-19T11:27:09Z</time></trkpt><trkpt lat="44.869224381553195" lon="8.01775705622214"><ele>209.0</ele><time>2026-04-19T11:27:12Z</time></trkpt><trkpt lat="44.86916040668935" lon="8.017757211378965"><ele>209.33333333333331</ele><time>2026-04-19T11:27:16Z</time></trkpt><trkpt lat="44.8690814877043" lon="8.017720361583253"><ele>209.66666666666666</ele><time>2026-04-19T11:27:57Z</time></trkpt><trkpt lat="44.86902179828405" lon="8.017651426653886"><ele>210.0</ele><time>2026-04-19T11:28:00Z</time></trkpt><trkpt lat="44.86894556927885" lon="8.017589074223565"><ele>210.0</ele><time>2026-04-19T11:28:03Z</time></trkpt><trkpt lat="44.86888479008503" lon="8.017546791764378"><ele>210.0</ele><time>2026-04-19T11:28:05Z</time></trkpt><trkpt lat="44.86881223767738" lon="8.017553784924578"><ele>210.0</ele><time>2026-04-19T11:28:07Z</time></trkpt><trkpt lat="44.868731009249764" lon="8.017581281495994"><ele>210.0</ele><time>2026-04-19T11:28:09Z</time></trkpt><trkpt lat="44.86862389901185" lon="8.017522890645798"><ele>210.0</ele><time>2026-04-19T11:28:11Z</time></trkpt><trkpt lat="44.868542829956915" lon="8.017437153587075"><ele>210.0</ele><time>2026-04-19T11:28:13Z</time></trkpt><trkpt lat="44.86845719943255" lon="8.017344371985265"><ele>209.83333333333334</ele><time>2026-04-19T11:28:15Z</time></trkpt><trkpt lat="44.868378235361014" lon="8.017271113918435"><ele>209.66666666666669</ele><time>2026-04-19T11:28:17Z</time></trkpt><trkpt lat="44.86829641335754" lon="8.01725854871892"><ele>209.5</ele><time>2026-04-19T11:28:19Z</time></trkpt><trkpt lat="44.86820191564035" lon="8.017289448841176"><ele>209.33333333333334</ele><time>2026-04-19T11:28:21Z</time></trkpt><trkpt lat="44.86811631355881" lon="8.017301742500365"><ele>209.16666666666669</ele><time>2026-04-19T11:28:23Z</time></trkpt><trkpt lat="44.868040454298615" lon="8.017296243302374"><ele>209.0</ele><time>2026-04-19T11:28:25Z</time></trkpt><trkpt lat="44.867976505895136" lon="8.017291864794636"><ele>209.0</ele><time>2026-04-19T11:28:27Z</time></trkpt><trkpt lat="44.86796987246973" lon="8.017181020926312"><ele>209.0</ele><time>2026-04-19T11:28:30Z</time></trkpt><trkpt lat="44.867924055995516" lon="8.017069541282176"><ele>209.0</ele><time>2026-04-19T11:28:32Z</time></trkpt><trkpt lat="44.86783640172706" lon="8.01705592563854"><ele>209.0</ele><time>2026-04-19T11:28:34Z</time></trkpt><trkpt lat="44.86773504428547" lon="8.017035958067645"><ele>209.0</ele><time>2026-04-19T11:28:36Z</time></trkpt><trkpt lat="44.86764742481142" lon="8.017005592920706"><ele>209.2</ele><time>2026-04-19T11:28:38Z</time></trkpt><trkpt lat="44.86755388451816" lon="8.016975351299683"><ele>209.39999999999998</ele><time>2026-04-19T11:28:41Z</time></trkpt><trkpt lat="44.8674841141401" lon="8.016914784279132"><ele>209.6</ele><time>2026-04-19T11:28:43Z</time></trkpt><trkpt lat="44.86743099322302" lon="8.016821132331751"><ele>209.8</ele><time>2026-04-19T11:28:45Z</time></trkpt><trkpt lat="44.86733590782554" lon="8.016779171476898"><ele>210.0</ele><time>2026-04-19T11:28:47Z</time></trkpt><trkpt lat="44.86721194631694" lon="8.016747335742586"><ele>210.0</ele><time>2026-04-19T11:28:49Z</time></trkpt><trkpt lat="44.86712527810343" lon="8.016780928575912"><ele>210.0</ele><time>2026-04-19T11:28:50Z</time></trkpt><trkpt lat="44.86703856448682" lon="8.016807352522292"><ele>210.0</ele><time>2026-04-19T11:28:51Z</time></trkpt><trkpt lat="44.8669407214158" lon="8.016801403750872"><ele>210.0</ele><time>2026-04-19T11:28:53Z</time></trkpt><trkpt lat="44.86686002299826" lon="8.016718873511786"><ele>210.0</ele><time>2026-04-19T11:28:55Z</time></trkpt><trkpt lat="44.86678156827183" lon="8.016781728071015"><ele>210.33333333333334</ele><time>2026-04-19T11:28:57Z</time></trkpt><trkpt lat="44.86669111461808" lon="8.016757988221716"><ele>210.66666666666669</ele><time>2026-04-19T11:28:59Z</time></trkpt><trkpt lat="44.86664641001499" lon="8.016666382093502"><ele>211.0</ele><time>2026-04-19T11:29:00Z</time></trkpt><trkpt lat="44.86661048082014" lon="8.016569547632338"><ele>211.33333333333334</ele><time>2026-04-19T11:29:01Z</time></trkpt><trkpt lat="44.866558258524286" lon="8.01649982645625"><ele>211.66666666666669</ele><time>2026-04-19T11:29:02Z</time></trkpt><trkpt lat="44.866496079853924" lon="8.01646517246438"><ele>212.0</ele><time>2026-04-19T11:29:03Z</time></trkpt><trkpt lat="44.86643167714824" lon="8.016460233724203"><ele>212.00000000000003</ele><time>2026-04-19T11:29:04Z</time></trkpt><trkpt lat="44.866362957021266" lon="8.016464224815845"><ele>212.0</ele><time>2026-04-19T11:29:05Z</time></trkpt><trkpt lat="44.86626455154097" lon="8.016447221974593"><ele>212.0</ele><time>2026-04-19T11:29:07Z</time></trkpt><trkpt lat="44.866191657747265" lon="8.016316551895308"><ele>212.0</ele><time>2026-04-19T11:29:09Z</time></trkpt><trkpt lat="44.86613196948174" lon="8.01628781429369"><ele>212.00000000000003</ele><time>2026-04-19T11:29:10Z</time></trkpt><trkpt lat="44.86605897429934" lon="8.016268210695872"><ele>212.0</ele><time>2026-04-19T11:29:11Z</time></trkpt><trkpt lat="44.865969288289826" lon="8.016258325024413"><ele>212.42857142857144</ele><time>2026-04-19T11:29:12Z</time></trkpt><trkpt lat="44.86589777610485" lon="8.016251424921371"><ele>212.85714285714283</ele><time>2026-04-19T11:29:13Z</time></trkpt><trkpt lat="44.86582556250333" lon="8.016258512314453"><ele>213.28571428571428</ele><time>2026-04-19T11:29:14Z</time></trkpt><trkpt lat="44.8657511682075" lon="8.016265661011616"><ele>213.71428571428572</ele><time>2026-04-19T11:29:15Z</time></trkpt><trkpt lat="44.86569380236196" lon="8.016318161091146"><ele>214.14285714285717</ele><time>2026-04-19T11:29:16Z</time></trkpt><trkpt lat="44.865648962521526" lon="8.016393181913642"><ele>214.57142857142856</ele><time>2026-04-19T11:29:17Z</time></trkpt><trkpt lat="44.86561796080977" lon="8.01648435970885"><ele>215.0</ele><time>2026-04-19T11:29:18Z</time></trkpt><trkpt lat="44.865589008654595" lon="8.016571133820467"><ele>215.00000000000003</ele><time>2026-04-19T11:29:19Z</time></trkpt><trkpt lat="44.865524681139846" lon="8.016615326182182"><ele>215.0</ele><time>2026-04-19T11:29:21Z</time></trkpt><trkpt lat="44.865478535975306" lon="8.016514047040985"><ele>215.0</ele><time>2026-04-19T11:29:23Z</time></trkpt><trkpt lat="44.86540862985243" lon="8.016423543882881"><ele>215.0</ele><time>2026-04-19T11:29:25Z</time></trkpt><trkpt lat="44.86534207961593" lon="8.016414352323858"><ele>215.00000000000003</ele><time>2026-04-19T11:29:36Z</time></trkpt><trkpt lat="44.86527868659611" lon="8.016403506394758"><ele>215.0</ele><time>2026-04-19T11:29:37.999Z</time></trkpt><trkpt lat="44.865173887079926" lon="8.016404485983706"><ele>214.83333333333334</ele><time>2026-04-19T11:29:39.999Z</time></trkpt><trkpt lat="44.865082085363774" lon="8.016419144265008"><ele>214.66666666666669</ele><time>2026-04-19T11:29:41.999Z</time></trkpt><trkpt lat="44.86501544556197" lon="8.016454638791313"><ele>214.5</ele><time>2026-04-19T11:29:42.999Z</time></trkpt><trkpt lat="44.864973066094215" lon="8.016576470935165"><ele>214.33333333333331</ele><time>2026-04-19T11:29:45.999Z</time></trkpt><trkpt lat="44.864906838284774" lon="8.01659781825188"><ele>214.16666666666666</ele><time>2026-04-19T11:29:48.999Z</time></trkpt><trkpt lat="44.86481492884067" lon="8.016599757887235"><ele>214.0</ele><time>2026-04-19T11:29:50.999Z</time></trkpt><trkpt lat="44.86472215046089" lon="8.016721368967364"><ele>213.99999999999997</ele><time>2026-04-19T11:29:52.999Z</time></trkpt><trkpt lat="44.86463305637997" lon="8.016790538054906"><ele>214.0</ele><time>2026-04-19T11:29:54.999Z</time></trkpt><trkpt lat="44.86456105942043" lon="8.016755240796332"><ele>214.0</ele><time>2026-04-19T11:29:58Z</time></trkpt><trkpt lat="44.8644994872063" lon="8.016702892255694"><ele>214.0</ele><time>2026-04-19T11:30:00Z</time></trkpt><trkpt lat="44.86446056211623" lon="8.01661181234404"><ele>213.99999999999997</ele><time>2026-04-19T11:30:02Z</time></trkpt><trkpt lat="44.86435253751558" lon="8.016591514724505"><ele>214.0</ele><time>2026-04-19T11:30:04Z</time></trkpt><trkpt lat="44.86427934434441" lon="8.016536257900755"><ele>213.79999999999998</ele><time>2026-04-19T11:30:06Z</time></trkpt><trkpt lat="44.86416415583331" lon="8.016522504336814"><ele>213.59999999999997</ele><time>2026-04-19T11:30:08Z</time></trkpt><trkpt lat="44.8640636026106" lon="8.016563339762968"><ele>213.4</ele><time>2026-04-19T11:30:10Z</time></trkpt><trkpt lat="44.863980581789" lon="8.016595031888109"><ele>213.2</ele><time>2026-04-19T11:30:51Z</time></trkpt><trkpt lat="44.86388505563234" lon="8.0166274534019"><ele>213.0</ele><time>2026-04-19T11:30:53Z</time></trkpt><trkpt lat="44.86382118659896" lon="8.016562409380832"><ele>213.0</ele><time>2026-04-19T11:30:59Z</time></trkpt><trkpt lat="44.863747426303284" lon="8.016578416278172"><ele>213.0</ele><time>2026-04-19T11:31:09Z</time></trkpt><trkpt lat="44.863677800258365" lon="8.016582897936338"><ele>213.0</ele><time>2026-04-19T11:31:11Z</time></trkpt><trkpt lat="44.863559792340624" lon="8.01656683153038"><ele>213.0</ele><time>2026-04-19T11:31:13Z</time></trkpt><trkpt lat="44.86347345096069" lon="8.016519697416129"><ele>213.0</ele><time>2026-04-19T11:31:15Z</time></trkpt><trkpt lat="44.86339927576284" lon="8.01652266666708"><ele>213.0</ele><time>2026-04-19T11:31:17Z</time></trkpt><trkpt lat="44.86331514966729" lon="8.016565930697178"><ele>212.99999999999997</ele><time>2026-04-19T11:31:19Z</time></trkpt><trkpt lat="44.86325069077244" lon="8.016571651987666"><ele>213.0</ele><time>2026-04-19T11:31:21Z</time></trkpt><trkpt lat="44.863170062152165" lon="8.01661582819999"><ele>213.0</ele><time>2026-04-19T11:31:23Z</time></trkpt><trkpt lat="44.86308794400663" lon="8.016626462720382"><ele>213.0</ele><time>2026-04-19T11:31:25Z</time></trkpt><trkpt lat="44.86302002264532" lon="8.01664780681123"><ele>213.0</ele><time>2026-04-19T11:31:27Z</time></trkpt><trkpt lat="44.86295652487716" lon="8.016626918789777"><ele>212.99999999999997</ele><time>2026-04-19T11:31:29Z</time></trkpt><trkpt lat="44.86290050461036" lon="8.016559634192355"><ele>213.0</ele><time>2026-04-19T11:31:31Z</time></trkpt><trkpt lat="44.862846092327544" lon="8.01646514147577"><ele>213.0</ele><time>2026-04-19T11:31:34Z</time></trkpt><trkpt lat="44.862776605204935" lon="8.01651428698394"><ele>213.0</ele><time>2026-04-19T11:31:37Z</time></trkpt><trkpt lat="44.862697345151226" lon="8.016613517198968"><ele>213.0</ele><time>2026-04-19T11:31:39Z</time></trkpt><trkpt lat="44.862610765786336" lon="8.016691278197575"><ele>213.0</ele><time>2026-04-19T11:31:41Z</time></trkpt><trkpt lat="44.86255025875233" lon="8.016731327400024"><ele>213.0</ele><time>2026-04-19T11:31:42Z</time></trkpt><trkpt lat="44.86245874578129" lon="8.016824091069862"><ele>214.0</ele><time>2026-04-19T11:31:44Z</time></trkpt><trkpt lat="44.86236731350965" lon="8.016933592517187"><ele>215.0</ele><time>2026-04-19T11:31:46Z</time></trkpt><trkpt lat="44.862337608216826" lon="8.017023154343653"><ele>216.0</ele><time>2026-04-19T11:31:47Z</time></trkpt><trkpt lat="44.86235203532593" lon="8.01711519206796"><ele>217.0</ele><time>2026-04-19T11:31:48Z</time></trkpt><trkpt lat="44.862346410503804" lon="8.017221691086801"><ele>218.0</ele><time>2026-04-19T11:31:49Z</time></trkpt><trkpt lat="44.862339047818836" lon="8.01734182541756"><ele>219.0</ele><time>2026-04-19T11:31:50Z</time></trkpt><trkpt lat="44.86233543046166" lon="8.01745612157451"><ele>220.0</ele><time>2026-04-19T11:31:51Z</time></trkpt><trkpt lat="44.86234833919489" lon="8.017569235076706"><ele>221.0</ele><time>2026-04-19T11:31:52Z</time></trkpt><trkpt lat="44.86235176564862" lon="8.017669848041866"><ele>222.0</ele><time>2026-04-19T11:31:52.999Z</time></trkpt><trkpt lat="44.862396116357345" lon="8.01781137079975"><ele>223.0</ele><time>2026-04-19T11:31:54.999Z</time></trkpt><trkpt lat="44.86243755521879" lon="8.017892466363264"><ele>224.0</ele><time>2026-04-19T11:31:55.999Z</time></trkpt><trkpt lat="44.862485425951036" lon="8.01798042183209"><ele>225.0</ele><time>2026-04-19T11:31:56.999Z</time></trkpt><trkpt lat="44.862548316044716" lon="8.01809715531227"><ele>225.0</ele><time>2026-04-19T11:31:57.999Z</time></trkpt><trkpt lat="44.86260554852556" lon="8.018234356417922"><ele>225.0</ele><time>2026-04-19T11:31:58.999Z</time></trkpt><trkpt lat="44.862667890827076" lon="8.018383832075472"><ele>225.0</ele><time>2026-04-19T11:31:59.999Z</time></trkpt><trkpt lat="44.86272807780085" lon="8.018493802537606"><ele>225.0</ele><time>2026-04-19T11:32:00.999Z</time></trkpt><trkpt lat="44.86277466280464" lon="8.018582691579097"><ele>225.0</ele><time>2026-04-19T11:32:02Z</time></trkpt><trkpt lat="44.86281114985855" lon="8.01867113838761"><ele>227.66666666666666</ele><time>2026-04-19T11:32:03Z</time></trkpt><trkpt lat="44.862834994658364" lon="8.018780296877535"><ele>230.33333333333331</ele><time>2026-04-19T11:32:05Z</time></trkpt><trkpt lat="44.86283861680503" lon="8.018871465518218"><ele>233.0</ele><time>2026-04-19T11:32:06Z</time></trkpt><trkpt lat="44.862846209982216" lon="8.018989003749983"><ele>235.66666666666666</ele><time>2026-04-19T11:32:07Z</time></trkpt><trkpt lat="44.862844332288184" lon="8.019094937024152"><ele>238.33333333333331</ele><time>2026-04-19T11:32:08Z</time></trkpt><trkpt lat="44.86280958403859" lon="8.0192750123364"><ele>241.0</ele><time>2026-04-19T11:32:10Z</time></trkpt><trkpt lat="44.86275852137246" lon="8.019410206832596"><ele>241.0</ele><time>2026-04-19T11:32:11Z</time></trkpt><trkpt lat="44.862741628448525" lon="8.01954051374388"><ele>241.00000000000003</ele><time>2026-04-19T11:32:12Z</time></trkpt><trkpt lat="44.86272561759239" lon="8.019704791874691"><ele>241.00000000000003</ele><time>2026-04-19T11:32:13Z</time></trkpt><trkpt lat="44.86271075236034" lon="8.019852050797144"><ele>241.0</ele><time>2026-04-19T11:32:14Z</time></trkpt><trkpt lat="44.862679473896705" lon="8.019976016610956"><ele>241.0</ele><time>2026-04-19T11:32:15Z</time></trkpt><trkpt lat="44.86264405230406" lon="8.020094938464307"><ele>241.20000000000002</ele><time>2026-04-19T11:32:16Z</time></trkpt><trkpt lat="44.86260458039584" lon="8.020234677407405"><ele>241.40000000000003</ele><time>2026-04-19T11:32:17Z</time></trkpt><trkpt lat="44.862579411132124" lon="8.020361314996633"><ele>241.6</ele><time>2026-04-19T11:32:18Z</time></trkpt><trkpt lat="44.8625488903092" lon="8.020486864814925"><ele>241.8</ele><time>2026-04-19T11:32:19Z</time></trkpt><trkpt lat="44.86251004669728" lon="8.020615328723801"><ele>242.0</ele><time>2026-04-19T11:32:20Z</time></trkpt><trkpt lat="44.86247923772768" lon="8.020759192037282"><ele>242.66666666666669</ele><time>2026-04-19T11:32:21Z</time></trkpt><trkpt lat="44.862460970547396" lon="8.020895488766469"><ele>243.33333333333334</ele><time>2026-04-19T11:32:22Z</time></trkpt><trkpt lat="44.862444503802664" lon="8.021014432115535"><ele>244.0</ele><time>2026-04-19T11:32:23Z</time></trkpt><trkpt lat="44.862461352436355" lon="8.021103407419501"><ele>244.66666666666669</ele><time>2026-04-19T11:32:24Z</time></trkpt><trkpt lat="44.86247676399913" lon="8.021213286308274"><ele>245.33333333333334</ele><time>2026-04-19T11:32:25Z</time></trkpt><trkpt lat="44.86243974142699" lon="8.021332987032874"><ele>246.0</ele><time>2026-04-19T11:32:27Z</time></trkpt><trkpt lat="44.86236283702606" lon="8.021343904067313"><ele>246.0</ele><time>2026-04-19T11:32:28Z</time></trkpt><trkpt lat="44.8622989884276" lon="8.021399884348865"><ele>246.00000000000003</ele><time>2026-04-19T11:32:30Z</time></trkpt><trkpt lat="44.86231407492481" lon="8.021589713641383"><ele>246.00000000000003</ele><time>2026-04-19T11:32:32Z</time></trkpt><trkpt lat="44.86228519805835" lon="8.021729736637662"><ele>246.0</ele><time>2026-04-19T11:32:33Z</time></trkpt><trkpt lat="44.86225686171809" lon="8.021878995760522"><ele>246.0</ele><time>2026-04-19T11:32:34Z</time></trkpt><trkpt lat="44.86222482301752" lon="8.021983943514769"><ele>246.83333333333334</ele><time>2026-04-19T11:32:35Z</time></trkpt><trkpt lat="44.8622479481461" lon="8.02210903741369"><ele>247.66666666666669</ele><time>2026-04-19T11:32:37Z</time></trkpt><trkpt lat="44.862249036516864" lon="8.022200107020492"><ele>248.5</ele><time>2026-04-19T11:32:38Z</time></trkpt><trkpt lat="44.8622476849364" lon="8.022392554964163"><ele>249.33333333333334</ele><time>2026-04-19T11:32:40Z</time></trkpt><trkpt lat="44.86224746695402" lon="8.022492898075773"><ele>250.16666666666669</ele><time>2026-04-19T11:32:41Z</time></trkpt><trkpt lat="44.86220600722482" lon="8.02257433968144"><ele>251.0</ele><time>2026-04-19T11:32:42Z</time></trkpt><trkpt lat="44.86213295138779" lon="8.022642899962996"><ele>252.50000000000003</ele><time>2026-04-19T11:32:43Z</time></trkpt><trkpt lat="44.862088590463024" lon="8.022724409722704"><ele>254.0</ele><time>2026-04-19T11:32:44Z</time></trkpt><trkpt lat="44.86205248166265" lon="8.022801646915534"><ele>255.5</ele><time>2026-04-19T11:32:45Z</time></trkpt><trkpt lat="44.862000946277156" lon="8.022899051326537"><ele>257.0</ele><time>2026-04-19T11:32:47Z</time></trkpt><trkpt lat="44.86191908034313" lon="8.022994285075196"><ele>258.5</ele><time>2026-04-19T11:32:49Z</time></trkpt><trkpt lat="44.861894140333796" lon="8.023079757690713"><ele>260.0</ele><time>2026-04-19T11:32:50Z</time></trkpt><trkpt lat="44.8618583264771" lon="8.02321327480272"><ele>260.00000000000006</ele><time>2026-04-19T11:32:52Z</time></trkpt><trkpt lat="44.86187163068345" lon="8.023309218576365"><ele>260.0</ele><time>2026-04-19T11:32:54Z</time></trkpt><trkpt lat="44.86189384605088" lon="8.023408384536635"><ele>260.0</ele><time>2026-04-19T11:32:56Z</time></trkpt><trkpt lat="44.86189443527263" lon="8.023512626391122"><ele>260.0</ele><time>2026-04-19T11:32:59Z</time></trkpt><trkpt lat="44.86183769542936" lon="8.023601903076601"><ele>260.0</ele><time>2026-04-19T11:33:03Z</time></trkpt><trkpt lat="44.861772067965184" lon="8.02363523586856"><ele>260.00000000000006</ele><time>2026-04-19T11:33:05Z</time></trkpt><trkpt lat="44.86170435164005" lon="8.023672028297172"><ele>260.0</ele><time>2026-04-19T11:33:07Z</time></trkpt><trkpt lat="44.861598385539814" lon="8.023663740284265"><ele>261.0</ele><time>2026-04-19T11:33:59Z</time></trkpt><trkpt lat="44.861548161461236" lon="8.023605054704475"><ele>262.0</ele><time>2026-04-19T11:34:00Z</time></trkpt><trkpt lat="44.86144533208723" lon="8.023501850732812"><ele>263.0</ele><time>2026-04-19T11:34:02Z</time></trkpt><trkpt lat="44.861369309753336" lon="8.023431099905896"><ele>264.0</ele><time>2026-04-19T11:34:04Z</time></trkpt><trkpt lat="44.86133131154321" lon="8.02334887334878"><ele>265.0</ele><time>2026-04-19T11:34:05Z</time></trkpt><trkpt lat="44.86130378111637" lon="8.023265710232463"><ele>266.0</ele><time>2026-04-19T11:34:05.999Z</time></trkpt><trkpt lat="44.861193936815575" lon="8.023189008312004"><ele>266.0</ele><time>2026-04-19T11:34:08Z</time></trkpt><trkpt lat="44.861131196763516" lon="8.023152588157373"><ele>266.0</ele><time>2026-04-19T11:34:09Z</time></trkpt><trkpt lat="44.86102411809955" lon="8.023133575394402"><ele>266.0</ele><time>2026-04-19T11:34:11Z</time></trkpt><trkpt lat="44.8609754936999" lon="8.023206861905148"><ele>266.0</ele><time>2026-04-19T11:34:12Z</time></trkpt><trkpt lat="44.860923035123555" lon="8.023325892597159"><ele>266.0</ele><time>2026-04-19T11:34:14Z</time></trkpt><trkpt lat="44.86086504890621" lon="8.023377899101193"><ele>266.0</ele><time>2026-04-19T11:34:15Z</time></trkpt><trkpt lat="44.86079452964937" lon="8.023455794420757"><ele>270.6</ele><time>2026-04-19T11:34:16Z</time></trkpt><trkpt lat="44.86074394685069" lon="8.023561573791637"><ele>275.20000000000005</ele><time>2026-04-19T11:34:17Z</time></trkpt><trkpt lat="44.860700809972485" lon="8.023694760641288"><ele>279.79999999999995</ele><time>2026-04-19T11:34:18Z</time></trkpt><trkpt lat="44.860662846779476" lon="8.023818757956096"><ele>284.4</ele><time>2026-04-19T11:34:19Z</time></trkpt><trkpt lat="44.86062476587576" lon="8.02391834254356"><ele>289.0</ele><time>2026-04-19T11:34:20Z</time></trkpt><trkpt lat="44.86057146528335" lon="8.02401407888047"><ele>289.0</ele><time>2026-04-19T11:34:21Z</time></trkpt><trkpt lat="44.86053657207572" lon="8.024097877334695"><ele>289.0</ele><time>2026-04-19T11:34:22Z</time></trkpt><trkpt lat="44.86053399245616" lon="8.02420206028062"><ele>289.0</ele><time>2026-04-19T11:34:23Z</time></trkpt><trkpt lat="44.86057410589977" lon="8.024292325757493"><ele>289.0</ele><time>2026-04-19T11:34:24Z</time></trkpt><trkpt lat="44.86062497793485" lon="8.024355298512692"><ele>289.0</ele><time>2026-04-19T11:34:25Z</time></trkpt><trkpt lat="44.8606813390684" lon="8.02439543144865"><ele>289.0</ele><time>2026-04-19T11:34:26Z</time></trkpt><trkpt lat="44.86077891355885" lon="8.024474639690192"><ele>289.5</ele><time>2026-04-19T11:34:28Z</time></trkpt><trkpt lat="44.86079344425944" lon="8.024563082042185"><ele>290.0</ele><time>2026-04-19T11:34:29Z</time></trkpt><trkpt lat="44.86078661654633" lon="8.02467423681355"><ele>290.5</ele><time>2026-04-19T11:34:30Z</time></trkpt><trkpt lat="44.86076267847159" lon="8.024800585960628"><ele>291.0</ele><time>2026-04-19T11:34:31Z</time></trkpt><trkpt lat="44.86072043919939" lon="8.024915406465034"><ele>291.5</ele><time>2026-04-19T11:34:32Z</time></trkpt><trkpt lat="44.8606672794965" lon="8.024993813565798"><ele>292.0</ele><time>2026-04-19T11:34:33Z</time></trkpt><trkpt lat="44.86058693787416" lon="8.025065334915311"><ele>292.0</ele><time>2026-04-19T11:34:34Z</time></trkpt><trkpt lat="44.860495445257726" lon="8.025153820811566"><ele>292.0</ele><time>2026-04-19T11:34:35Z</time></trkpt><trkpt lat="44.860416861111716" lon="8.025250842889331"><ele>292.0</ele><time>2026-04-19T11:34:36Z</time></trkpt><trkpt lat="44.86033199135256" lon="8.025379498003842"><ele>292.0</ele><time>2026-04-19T11:34:37Z</time></trkpt><trkpt lat="44.86025387180203" lon="8.025496759718262"><ele>292.0</ele><time>2026-04-19T11:34:38Z</time></trkpt><trkpt lat="44.860172077559554" lon="8.025613133395447"><ele>292.0</ele><time>2026-04-19T11:34:39Z</time></trkpt><trkpt lat="44.86009913408838" lon="8.025726616472378"><ele>292.0</ele><time>2026-04-19T11:34:40Z</time></trkpt><trkpt lat="44.86002817254807" lon="8.025819105309866"><ele>292.0</ele><time>2026-04-19T11:34:41Z</time></trkpt><trkpt lat="44.85996202883199" lon="8.025911139701847"><ele>292.0</ele><time>2026-04-19T11:34:42Z</time></trkpt><trkpt lat="44.85988890072364" lon="8.025987602158862"><ele>292.8</ele><time>2026-04-19T11:34:43Z</time></trkpt><trkpt lat="44.85980110487339" lon="8.026050707434061"><ele>293.6</ele><time>2026-04-19T11:34:44Z</time></trkpt><trkpt lat="44.85970248645215" lon="8.026107088617906"><ele>294.40000000000003</ele><time>2026-04-19T11:34:45Z</time></trkpt><trkpt lat="44.8596072677668" lon="8.02616582176739"><ele>295.2</ele><time>2026-04-19T11:34:46Z</time></trkpt><trkpt lat="44.859520878848045" lon="8.026226345914438"><ele>296.0</ele><time>2026-04-19T11:34:47Z</time></trkpt><trkpt lat="44.85943264014308" lon="8.026319569160966"><ele>296.0</ele><time>2026-04-19T11:34:48Z</time></trkpt><trkpt lat="44.85934491279824" lon="8.026394092095606"><ele>296.0</ele><time>2026-04-19T11:34:49Z</time></trkpt><trkpt lat="44.85927356679675" lon="8.026462626627564"><ele>296.0</ele><time>2026-04-19T11:34:50Z</time></trkpt><trkpt lat="44.85919221037583" lon="8.026522899794927"><ele>296.0</ele><time>2026-04-19T11:34:51Z</time></trkpt><trkpt lat="44.85909515134192" lon="8.026599159884471"><ele>296.0</ele><time>2026-04-19T11:34:52Z</time></trkpt><trkpt lat="44.85900340568412" lon="8.026676451290987"><ele>296.6</ele><time>2026-04-19T11:34:53Z</time></trkpt><trkpt lat="44.85891422505478" lon="8.02674525044468"><ele>297.20000000000005</ele><time>2026-04-19T11:34:54Z</time></trkpt><trkpt lat="44.85883268779915" lon="8.026810702718187"><ele>297.79999999999995</ele><time>2026-04-19T11:34:55Z</time></trkpt><trkpt lat="44.85876305327718" lon="8.026877583086808"><ele>298.4</ele><time>2026-04-19T11:34:56Z</time></trkpt><trkpt lat="44.85867868100091" lon="8.026967607920733"><ele>299.0</ele><time>2026-04-19T11:34:57Z</time></trkpt><trkpt lat="44.85860272231682" lon="8.027054494045784"><ele>299.0</ele><time>2026-04-19T11:34:58Z</time></trkpt><trkpt lat="44.85853263895108" lon="8.027150477419726"><ele>299.0</ele><time>2026-04-19T11:34:59Z</time></trkpt><trkpt lat="44.85846396999011" lon="8.027257816523932"><ele>299.0</ele><time>2026-04-19T11:35:00Z</time></trkpt><trkpt lat="44.85839142692158" lon="8.027370684984017"><ele>299.0</ele><time>2026-04-19T11:35:01Z</time></trkpt><trkpt lat="44.85832046951956" lon="8.027488146295745"><ele>299.0</ele><time>2026-04-19T11:35:02Z</time></trkpt><trkpt lat="44.85824546350023" lon="8.027604039619405"><ele>297.59999999999997</ele><time>2026-04-19T11:35:03Z</time></trkpt><trkpt lat="44.858166062093794" lon="8.027726196740952"><ele>296.2</ele><time>2026-04-19T11:35:04Z</time></trkpt><trkpt lat="44.85808431498001" lon="8.027835870945587"><ele>294.79999999999995</ele><time>2026-04-19T11:35:05Z</time></trkpt><trkpt lat="44.85800666929941" lon="8.027912935627226"><ele>293.4</ele><time>2026-04-19T11:35:06Z</time></trkpt><trkpt lat="44.85793601666067" lon="8.027951683017182"><ele>292.0</ele><time>2026-04-19T11:35:07Z</time></trkpt><trkpt lat="44.85786381108327" lon="8.027973352813039"><ele>292.0</ele><time>2026-04-19T11:35:08Z</time></trkpt><trkpt lat="44.857775324388044" lon="8.02797438431261"><ele>292.0</ele><time>2026-04-19T11:35:09Z</time></trkpt><trkpt lat="44.85769252231508" lon="8.027960112256721"><ele>292.0</ele><time>2026-04-19T11:35:10Z</time></trkpt><trkpt lat="44.85761549289291" lon="8.027933986430018"><ele>292.0</ele><time>2026-04-19T11:35:11Z</time></trkpt><trkpt lat="44.857540589282046" lon="8.027877784357418"><ele>292.0</ele><time>2026-04-19T11:35:12Z</time></trkpt><trkpt lat="44.85747295792647" lon="8.02778905145499"><ele>292.0</ele><time>2026-04-19T11:35:13Z</time></trkpt><trkpt lat="44.85738394415643" lon="8.027704050158654"><ele>290.6</ele><time>2026-04-19T11:35:14Z</time></trkpt><trkpt lat="44.85729632190583" lon="8.027631433149214"><ele>289.2</ele><time>2026-04-19T11:35:15Z</time></trkpt><trkpt lat="44.85720427092788" lon="8.027566089859214"><ele>287.8</ele><time>2026-04-19T11:35:16Z</time></trkpt><trkpt lat="44.857130149249755" lon="8.027525518014743"><ele>286.4</ele><time>2026-04-19T11:35:17Z</time></trkpt><trkpt lat="44.85704532802703" lon="8.027511060621428"><ele>285.0</ele><time>2026-04-19T11:35:18Z</time></trkpt><trkpt lat="44.85696636626357" lon="8.027484273042111"><ele>284.1666666666667</ele><time>2026-04-19T11:35:19Z</time></trkpt><trkpt lat="44.85689243292701" lon="8.0274562613856"><ele>283.3333333333333</ele><time>2026-04-19T11:35:21Z</time></trkpt><trkpt lat="44.85687486959235" lon="8.027365684351897"><ele>282.5</ele><time>2026-04-19T11:35:27Z</time></trkpt><trkpt lat="44.85688417410167" lon="8.027271505186759"><ele>281.66666666666663</ele><time>2026-04-19T11:35:28Z</time></trkpt><trkpt lat="44.856894846307355" lon="8.027170591053123"><ele>280.8333333333333</ele><time>2026-04-19T11:35:29Z</time></trkpt><trkpt lat="44.85690743355697" lon="8.027038919111817"><ele>280.0</ele><time>2026-04-19T11:35:30Z</time></trkpt><trkpt lat="44.856923279754675" lon="8.02687384204051"><ele>280.0</ele><time>2026-04-19T11:35:31Z</time></trkpt><trkpt lat="44.8569297122645" lon="8.02672502578655"><ele>280.0</ele><time>2026-04-19T11:35:32Z</time></trkpt><trkpt lat="44.85693454837815" lon="8.026580553257405"><ele>280.0</ele><time>2026-04-19T11:35:33Z</time></trkpt><trkpt lat="44.85693480476208" lon="8.026426247261208"><ele>280.0</ele><time>2026-04-19T11:35:34Z</time></trkpt><trkpt lat="44.85692075018944" lon="8.026258790774815"><ele>280.0</ele><time>2026-04-19T11:35:35Z</time></trkpt><trkpt lat="44.856892608665135" lon="8.026116802905971"><ele>279.8</ele><time>2026-04-19T11:35:36Z</time></trkpt><trkpt lat="44.8568511667624" lon="8.0260045912574"><ele>279.6</ele><time>2026-04-19T11:35:37Z</time></trkpt><trkpt lat="44.8567761480086" lon="8.025902591769778"><ele>279.4</ele><time>2026-04-19T11:35:38Z</time></trkpt><trkpt lat="44.8566791722335" lon="8.025801929987571"><ele>279.2</ele><time>2026-04-19T11:35:39Z</time></trkpt><trkpt lat="44.85657584458836" lon="8.025716781531372"><ele>279.0</ele><time>2026-04-19T11:35:40Z</time></trkpt><trkpt lat="44.856497311686596" lon="8.025667490041839"><ele>282.3333333333333</ele><time>2026-04-19T11:35:41Z</time></trkpt><trkpt lat="44.8564294958229" lon="8.025657528323492"><ele>285.6666666666667</ele><time>2026-04-19T11:35:42Z</time></trkpt><trkpt lat="44.856346121589866" lon="8.025688807187123"><ele>289.0</ele><time>2026-04-19T11:35:43Z</time></trkpt><trkpt lat="44.85626553675486" lon="8.02570069605979"><ele>292.33333333333337</ele><time>2026-04-19T11:35:44Z</time></trkpt><trkpt lat="44.85618394459483" lon="8.025695202026306"><ele>295.6666666666667</ele><time>2026-04-19T11:35:45Z</time></trkpt><trkpt lat="44.856108010501536" lon="8.025696146192432"><ele>299.0</ele><time>2026-04-19T11:35:46Z</time></trkpt><trkpt lat="44.85601887089177" lon="8.025710937661504"><ele>298.33333333333337</ele><time>2026-04-19T11:35:47Z</time></trkpt><trkpt lat="44.85592242380879" lon="8.025729007593624"><ele>297.6666666666667</ele><time>2026-04-19T11:35:48Z</time></trkpt><trkpt lat="44.85584630473807" lon="8.02573916577777"><ele>297.0</ele><time>2026-04-19T11:35:49Z</time></trkpt><trkpt lat="44.855760365650355" lon="8.025703465929032"><ele>296.3333333333333</ele><time>2026-04-19T11:35:50Z</time></trkpt><trkpt lat="44.85568752705998" lon="8.025635742001917"><ele>295.66666666666663</ele><time>2026-04-19T11:35:51Z</time></trkpt><trkpt lat="44.85562448745386" lon="8.025553082967345"><ele>295.0</ele><time>2026-04-19T11:35:52Z</time></trkpt><trkpt lat="44.855559924311926" lon="8.025487627188559"><ele>295.0</ele><time>2026-04-19T11:35:53Z</time></trkpt><trkpt lat="44.855476696487436" lon="8.025439289703334"><ele>295.0</ele><time>2026-04-19T11:35:54Z</time></trkpt><trkpt lat="44.85538221067141" lon="8.02540199317429"><ele>295.0</ele><time>2026-04-19T11:35:55Z</time></trkpt><trkpt lat="44.855286825109" lon="8.025368214662503"><ele>295.0</ele><time>2026-04-19T11:35:56Z</time></trkpt><trkpt lat="44.8551908844372" lon="8.025332361226226"><ele>295.0</ele><time>2026-04-19T11:35:57Z</time></trkpt><trkpt lat="44.855097158140964" lon="8.02530134451759"><ele>293.0</ele><time>2026-04-19T11:35:58Z</time></trkpt><trkpt lat="44.855003647607205" lon="8.02526566421484"><ele>291.0</ele><time>2026-04-19T11:35:59Z</time></trkpt><trkpt lat="44.85491132985151" lon="8.025230481539419"><ele>289.0</ele><time>2026-04-19T11:35:59.999Z</time></trkpt><trkpt lat="44.8548158408709" lon="8.025196814789751"><ele>287.0</ele><time>2026-04-19T11:36:00.999Z</time></trkpt><trkpt lat="44.85472825021076" lon="8.025174417472378"><ele>285.0</ele><time>2026-04-19T11:36:01.999Z</time></trkpt><trkpt lat="44.85465707680218" lon="8.025144108041543"><ele>285.0</ele><time>2026-04-19T11:36:02.999Z</time></trkpt><trkpt lat="44.85459797379721" lon="8.025097873685334"><ele>285.0</ele><time>2026-04-19T11:36:03.999Z</time></trkpt><trkpt lat="44.85454952017173" lon="8.025023301082781"><ele>285.0</ele><time>2026-04-19T11:36:04.999Z</time></trkpt><trkpt lat="44.85451324056047" lon="8.02491924544633"><ele>285.0</ele><time>2026-04-19T11:36:05.999Z</time></trkpt><trkpt lat="44.85448992073681" lon="8.024797949569875"><ele>285.0</ele><time>2026-04-19T11:36:06.999Z</time></trkpt><trkpt lat="44.85445977599189" lon="8.024668322225619"><ele>285.0</ele><time>2026-04-19T11:36:07.999Z</time></trkpt><trkpt lat="44.854408707244765" lon="8.024560549713645"><ele>284.4</ele><time>2026-04-19T11:36:08.999Z</time></trkpt><trkpt lat="44.85433573490317" lon="8.024469713952758"><ele>283.8</ele><time>2026-04-19T11:36:09.999Z</time></trkpt><trkpt lat="44.85424893857058" lon="8.024393237323181"><ele>283.2</ele><time>2026-04-19T11:36:10.999Z</time></trkpt><trkpt lat="44.85415440833633" lon="8.024335312231504"><ele>282.6</ele><time>2026-04-19T11:36:11.999Z</time></trkpt><trkpt lat="44.85406532331987" lon="8.024275120857295"><ele>282.0</ele><time>2026-04-19T11:36:12.999Z</time></trkpt><trkpt lat="44.85398078174453" lon="8.024216897244994"><ele>281.8</ele><time>2026-04-19T11:36:14Z</time></trkpt><trkpt lat="44.85389664261851" lon="8.024159670873361"><ele>281.6</ele><time>2026-04-19T11:36:15Z</time></trkpt><trkpt lat="44.85381472447936" lon="8.024096746634713"><ele>281.40000000000003</ele><time>2026-04-19T11:36:16Z</time></trkpt><trkpt lat="44.853728157892974" lon="8.02403461163512"><ele>281.2</ele><time>2026-04-19T11:36:17Z</time></trkpt><trkpt lat="44.85364042094835" lon="8.02397938744082"><ele>281.0</ele><time>2026-04-19T11:36:18Z</time></trkpt><trkpt lat="44.85355299839913" lon="8.023921298148805"><ele>280.6666666666667</ele><time>2026-04-19T11:36:19Z</time></trkpt><trkpt lat="44.8534821293545" lon="8.023866585489966"><ele>280.33333333333337</ele><time>2026-04-19T11:36:20Z</time></trkpt><trkpt lat="44.85340844033178" lon="8.023798847673197"><ele>280.0</ele><time>2026-04-19T11:36:21Z</time></trkpt><trkpt lat="44.853345379045436" lon="8.023727988284703"><ele>279.6666666666667</ele><time>2026-04-19T11:36:22Z</time></trkpt><trkpt lat="44.853279003494514" lon="8.023656557995517"><ele>279.3333333333333</ele><time>2026-04-19T11:36:23Z</time></trkpt><trkpt lat="44.853212814555434" lon="8.023571024831627"><ele>279.0</ele><time>2026-04-19T11:36:24Z</time></trkpt><trkpt lat="44.85314273391363" lon="8.02348409237237"><ele>279.0</ele><time>2026-04-19T11:36:25Z</time></trkpt><trkpt lat="44.85306851866318" lon="8.023403290160816"><ele>279.0</ele><time>2026-04-19T11:36:26Z</time></trkpt><trkpt lat="44.85299254920274" lon="8.023319609933079"><ele>279.0</ele><time>2026-04-19T11:36:27Z</time></trkpt><trkpt lat="44.85291148253944" lon="8.023234058267423"><ele>279.0</ele><time>2026-04-19T11:36:28Z</time></trkpt><trkpt lat="44.85282742677498" lon="8.023153110401399"><ele>279.0</ele><time>2026-04-19T11:36:29Z</time></trkpt><trkpt lat="44.85274360481305" lon="8.02307389723785"><ele>277.59999999999997</ele><time>2026-04-19T11:36:30Z</time></trkpt><trkpt lat="44.8526728736937" lon="8.023003743917096"><ele>276.2</ele><time>2026-04-19T11:36:31Z</time></trkpt><trkpt lat="44.852615985569315" lon="8.022943441489675"><ele>274.79999999999995</ele><time>2026-04-19T11:36:32Z</time></trkpt><trkpt lat="44.852560990132645" lon="8.022885581219"><ele>273.4</ele><time>2026-04-19T11:36:33Z</time></trkpt><trkpt lat="44.85249706112462" lon="8.02277822475012"><ele>272.0</ele><time>2026-04-19T11:36:35Z</time></trkpt><trkpt lat="44.85251888251312" lon="8.02260502129372"><ele>272.0</ele><time>2026-04-19T11:36:37Z</time></trkpt><trkpt lat="44.8525982605089" lon="8.022487957045165"><ele>272.0</ele><time>2026-04-19T11:36:39Z</time></trkpt><trkpt lat="44.85268145595765" lon="8.022377819688558"><ele>272.0</ele><time>2026-04-19T11:36:41Z</time></trkpt><trkpt lat="44.85276252412265" lon="8.022401040887187"><ele>272.0</ele><time>2026-04-19T11:36:42Z</time></trkpt><trkpt lat="44.852812116081175" lon="8.02246211443979"><ele>272.0</ele><time>2026-04-19T11:36:43Z</time></trkpt><trkpt lat="44.85284679789065" lon="8.022565519635483"><ele>271.85714285714283</ele><time>2026-04-19T11:36:44Z</time></trkpt><trkpt lat="44.85285940514263" lon="8.022666417873461"><ele>271.7142857142857</ele><time>2026-04-19T11:36:45Z</time></trkpt><trkpt lat="44.852918383926465" lon="8.022704540628569"><ele>271.57142857142856</ele><time>2026-04-19T11:36:46Z</time></trkpt><trkpt lat="44.85298500410126" lon="8.022739963892374"><ele>271.42857142857144</ele><time>2026-04-19T11:36:47Z</time></trkpt><trkpt lat="44.853059142891574" lon="8.02273143660697"><ele>271.2857142857143</ele><time>2026-04-19T11:36:48Z</time></trkpt><trkpt lat="44.853131206072135" lon="8.022731462365146"><ele>271.1428571428571</ele><time>2026-04-19T11:36:49Z</time></trkpt><trkpt lat="44.853203896061636" lon="8.022747557879455"><ele>271.0</ele><time>2026-04-19T11:36:50Z</time></trkpt><trkpt lat="44.853273733583755" lon="8.02278826567099"><ele>271.0</ele><time>2026-04-19T11:36:51Z</time></trkpt><trkpt lat="44.853334773596785" lon="8.022820819437886"><ele>271.0</ele><time>2026-04-19T11:36:52Z</time></trkpt><trkpt lat="44.85342394438549" lon="8.022787255454153"><ele>271.0</ele><time>2026-04-19T11:36:53Z</time></trkpt><trkpt lat="44.853493592689574" lon="8.02271907792262"><ele>271.0</ele><time>2026-04-19T11:36:54Z</time></trkpt><trkpt lat="44.853557791153825" lon="8.022672421274054"><ele>271.0</ele><time>2026-04-19T11:36:55Z</time></trkpt><trkpt lat="44.853627512267856" lon="8.022650523663263"><ele>271.0</ele><time>2026-04-19T11:36:56Z</time></trkpt><trkpt lat="44.85368973077096" lon="8.02267167524188"><ele>269.85714285714283</ele><time>2026-04-19T11:36:57Z</time></trkpt><trkpt lat="44.853741002377475" lon="8.022726766315627"><ele>268.7142857142857</ele><time>2026-04-19T11:36:58Z</time></trkpt><trkpt lat="44.85381306457214" lon="8.022734264742542"><ele>267.57142857142856</ele><time>2026-04-19T11:36:59Z</time></trkpt><trkpt lat="44.85388267879981" lon="8.022727767745018"><ele>266.42857142857144</ele><time>2026-04-19T11:37:00Z</time></trkpt><trkpt lat="44.853951388214135" lon="8.022714429263695"><ele>265.2857142857143</ele><time>2026-04-19T11:37:01Z</time></trkpt><trkpt lat="44.85403770205843" lon="8.022703726543122"><ele>264.1428571428571</ele><time>2026-04-19T11:37:02Z</time></trkpt><trkpt lat="44.854117479791384" lon="8.022678571007887"><ele>263.0</ele><time>2026-04-19T11:37:03Z</time></trkpt><trkpt lat="44.854197652432724" lon="8.022668954449786"><ele>263.0</ele><time>2026-04-19T11:37:04Z</time></trkpt><trkpt lat="44.85428588768215" lon="8.02265543123048"><ele>263.0</ele><time>2026-04-19T11:37:05Z</time></trkpt><trkpt lat="44.85437836906502" lon="8.022651659837171"><ele>263.0</ele><time>2026-04-19T11:37:06Z</time></trkpt><trkpt lat="44.85445499173434" lon="8.022661467280754"><ele>263.0</ele><time>2026-04-19T11:37:07Z</time></trkpt><trkpt lat="44.85454639627182" lon="8.022642424972496"><ele>263.0</ele><time>2026-04-19T11:37:08Z</time></trkpt><trkpt lat="44.85462251169389" lon="8.022590418908546"><ele>263.0</ele><time>2026-04-19T11:37:09Z</time></trkpt><trkpt lat="44.854706014993766" lon="8.022554449398571"><ele>263.1666666666667</ele><time>2026-04-19T11:37:10Z</time></trkpt><trkpt lat="44.85479252827622" lon="8.022530211399967"><ele>263.33333333333337</ele><time>2026-04-19T11:37:11Z</time></trkpt><trkpt lat="44.85487974639358" lon="8.022513182366621"><ele>263.5</ele><time>2026-04-19T11:37:12Z</time></trkpt><trkpt lat="44.85496625596078" lon="8.022497801152072"><ele>263.6666666666667</ele><time>2026-04-19T11:37:13Z</time></trkpt><trkpt lat="44.85503077233671" lon="8.022438158764796"><ele>263.8333333333333</ele><time>2026-04-19T11:37:14Z</time></trkpt><trkpt lat="44.855088299159156" lon="8.022349170970509"><ele>264.0</ele><time>2026-04-19T11:37:15Z</time></trkpt><trkpt lat="44.85515535430716" lon="8.022254456885635"><ele>262.2</ele><time>2026-04-19T11:37:16Z</time></trkpt><trkpt lat="44.855222677147104" lon="8.02216906179319"><ele>260.4</ele><time>2026-04-19T11:37:17Z</time></trkpt><trkpt lat="44.855301890203535" lon="8.022116686279826"><ele>258.6</ele><time>2026-04-19T11:37:18Z</time></trkpt><trkpt lat="44.85536324701876" lon="8.022050358606526"><ele>256.8</ele><time>2026-04-19T11:37:19Z</time></trkpt><trkpt lat="44.85543655964226" lon="8.021975139556863"><ele>255.0</ele><time>2026-04-19T11:37:20Z</time></trkpt><trkpt lat="44.855523751132104" lon="8.021892554218235"><ele>255.0</ele><time>2026-04-19T11:37:21Z</time></trkpt><trkpt lat="44.855600725773954" lon="8.021796520313277"><ele>255.0</ele><time>2026-04-19T11:37:22Z</time></trkpt><trkpt lat="44.85568308630643" lon="8.021678137989793"><ele>255.0</ele><time>2026-04-19T11:37:23Z</time></trkpt><trkpt lat="44.855737669439264" lon="8.021571622019296"><ele>255.0</ele><time>2026-04-19T11:37:24Z</time></trkpt><trkpt lat="44.855804022460106" lon="8.021475076279929"><ele>255.0</ele><time>2026-04-19T11:37:25Z</time></trkpt><trkpt lat="44.85586540356812" lon="8.021378295408317"><ele>255.2</ele><time>2026-04-19T11:37:26Z</time></trkpt><trkpt lat="44.85593990909217" lon="8.021312601656595"><ele>255.4</ele><time>2026-04-19T11:37:27Z</time></trkpt><trkpt lat="44.85601772633712" lon="8.021238513575705"><ele>255.60000000000002</ele><time>2026-04-19T11:37:28Z</time></trkpt><trkpt lat="44.85610263728561" lon="8.021185544591377"><ele>255.8</ele><time>2026-04-19T11:37:29Z</time></trkpt><trkpt lat="44.85617427132592" lon="8.02112966112695"><ele>256.0</ele><time>2026-04-19T11:37:30Z</time></trkpt><trkpt lat="44.85626304238002" lon="8.021057909467533"><ele>255.4</ele><time>2026-04-19T11:37:31Z</time></trkpt><trkpt lat="44.85634870348219" lon="8.02097751485868"><ele>254.8</ele><time>2026-04-19T11:37:32Z</time></trkpt><trkpt lat="44.856426472726845" lon="8.020887115986497"><ele>254.20000000000002</ele><time>2026-04-19T11:37:33Z</time></trkpt><trkpt lat="44.85651453014534" lon="8.020804935272464"><ele>253.60000000000002</ele><time>2026-04-19T11:37:34Z</time></trkpt><trkpt lat="44.85658130678949" lon="8.020725533023475"><ele>253.0</ele><time>2026-04-19T11:37:35Z</time></trkpt><trkpt lat="44.85666304572675" lon="8.020655324575477"><ele>253.0</ele><time>2026-04-19T11:37:36Z</time></trkpt><trkpt lat="44.85673238431332" lon="8.020595211385336"><ele>253.0</ele><time>2026-04-19T11:37:37Z</time></trkpt><trkpt lat="44.85683444456362" lon="8.02054255412947"><ele>253.0</ele><time>2026-04-19T11:37:38Z</time></trkpt><trkpt lat="44.8569238022041" lon="8.020492085613032"><ele>253.0</ele><time>2026-04-19T11:37:39Z</time></trkpt><trkpt lat="44.857042661896585" lon="8.02044335112749"><ele>253.0</ele><time>2026-04-19T11:37:40Z</time></trkpt><trkpt lat="44.85716768561597" lon="8.020413467457782"><ele>251.60000000000002</ele><time>2026-04-19T11:37:41Z</time></trkpt><trkpt lat="44.857288778262024" lon="8.02036577126665"><ele>250.20000000000002</ele><time>2026-04-19T11:37:42Z</time></trkpt><trkpt lat="44.857394389160675" lon="8.020327764259212"><ele>248.8</ele><time>2026-04-19T11:37:43Z</time></trkpt><trkpt lat="44.85749167369578" lon="8.020284846283241"><ele>247.4</ele><time>2026-04-19T11:37:44Z</time></trkpt><trkpt lat="44.85759106803802" lon="8.020241816520866"><ele>246.0</ele><time>2026-04-19T11:37:45Z</time></trkpt><trkpt lat="44.85769337554562" lon="8.02021491164067"><ele>245.8</ele><time>2026-04-19T11:37:46Z</time></trkpt><trkpt lat="44.85780270927296" lon="8.020204940299202"><ele>245.60000000000002</ele><time>2026-04-19T11:37:47Z</time></trkpt><trkpt lat="44.8579182355945" lon="8.020207426065571"><ele>245.4</ele><time>2026-04-19T11:37:48Z</time></trkpt><trkpt lat="44.858020114827845" lon="8.020226148669344"><ele>245.2</ele><time>2026-04-19T11:37:49Z</time></trkpt><trkpt lat="44.85812987417439" lon="8.020236732983264"><ele>245.0</ele><time>2026-04-19T11:37:50Z</time></trkpt><trkpt lat="44.858236546134556" lon="8.020247083975017"><ele>245.0</ele><time>2026-04-19T11:37:51Z</time></trkpt><trkpt lat="44.85834438967748" lon="8.0202734400341"><ele>245.0</ele><time>2026-04-19T11:37:52Z</time></trkpt><trkpt lat="44.858436708912315" lon="8.020292365146979"><ele>245.0</ele><time>2026-04-19T11:37:53Z</time></trkpt><trkpt lat="44.858522192614394" lon="8.020300228880313"><ele>245.0</ele><time>2026-04-19T11:37:54Z</time></trkpt><trkpt lat="44.858604304085056" lon="8.02032710130213"><ele>245.0</ele><time>2026-04-19T11:37:55Z</time></trkpt><trkpt lat="44.85870038568885" lon="8.020393077792086"><ele>244.33333333333334</ele><time>2026-04-19T11:37:57Z</time></trkpt><trkpt lat="44.85880069589145" lon="8.020409781668434"><ele>243.66666666666669</ele><time>2026-04-19T11:37:59Z</time></trkpt><trkpt lat="44.85886298251241" lon="8.020352831145399"><ele>243.0</ele><time>2026-04-19T11:38:00Z</time></trkpt><trkpt lat="44.85891084186393" lon="8.020287962492784"><ele>242.33333333333331</ele><time>2026-04-19T11:38:01Z</time></trkpt><trkpt lat="44.858949310950386" lon="8.02019800132316"><ele>241.66666666666666</ele><time>2026-04-19T11:38:02Z</time></trkpt><trkpt lat="44.858994160252635" lon="8.020131481753715"><ele>241.0</ele><time>2026-04-19T11:38:04Z</time></trkpt><trkpt lat="44.85914976684999" lon="8.019970168980523"><ele>241.0</ele><time>2026-04-19T11:38:14.999Z</time></trkpt><trkpt lat="44.85923991379553" lon="8.01984918276039"><ele>241.00000000000003</ele><time>2026-04-19T11:38:16.999Z</time></trkpt><trkpt lat="44.85930743403904" lon="8.019787750642069"><ele>241.00000000000003</ele><time>2026-04-19T11:38:17.999Z</time></trkpt><trkpt lat="44.85936005907738" lon="8.01971057326224"><ele>241.0</ele><time>2026-04-19T11:38:19Z</time></trkpt><trkpt lat="44.859411180805424" lon="8.01960472127078"><ele>241.0</ele><time>2026-04-19T11:38:20Z</time></trkpt><trkpt lat="44.85946755276618" lon="8.019493580426985"><ele>239.16666666666666</ele><time>2026-04-19T11:38:21Z</time></trkpt><trkpt lat="44.859517178345214" lon="8.01939412574308"><ele>237.33333333333331</ele><time>2026-04-19T11:38:22Z</time></trkpt><trkpt lat="44.859575675487136" lon="8.019304024290753"><ele>235.5</ele><time>2026-04-19T11:38:23Z</time></trkpt><trkpt lat="44.859615780700636" lon="8.019213614103473"><ele>233.66666666666669</ele><time>2026-04-19T11:38:24Z</time></trkpt><trkpt lat="44.85960467548792" lon="8.019044266009045"><ele>231.83333333333334</ele><time>2026-04-19T11:38:26Z</time></trkpt><trkpt lat="44.85958322682395" lon="8.01893585321581"><ele>230.0</ele><time>2026-04-19T11:38:27Z</time></trkpt><trkpt lat="44.85958537650697" lon="8.018818293915983"><ele>230.0</ele><time>2026-04-19T11:38:28Z</time></trkpt><trkpt lat="44.85960580491908" lon="8.018688816267158"><ele>230.0</ele><time>2026-04-19T11:38:29Z</time></trkpt><trkpt lat="44.85965360422322" lon="8.018559006416083"><ele>230.0</ele><time>2026-04-19T11:38:30Z</time></trkpt><trkpt lat="44.85969853565559" lon="8.018441485630401"><ele>230.0</ele><time>2026-04-19T11:38:31Z</time></trkpt><trkpt lat="44.85973736980956" lon="8.018357349245738"><ele>230.0</ele><time>2026-04-19T11:38:32Z</time></trkpt><trkpt lat="44.85980373644155" lon="8.018260811885577"><ele>231.00000000000003</ele><time>2026-04-19T11:38:33Z</time></trkpt><trkpt lat="44.859902569802955" lon="8.018160258048782"><ele>232.0</ele><time>2026-04-19T11:38:34Z</time></trkpt><trkpt lat="44.85998202084714" lon="8.018071149035183"><ele>233.0</ele><time>2026-04-19T11:38:35Z</time></trkpt><trkpt lat="44.86003530939888" lon="8.017991353172146"><ele>234.0</ele><time>2026-04-19T11:38:36Z</time></trkpt><trkpt lat="44.86006968286254" lon="8.017905728782665"><ele>235.00000000000003</ele><time>2026-04-19T11:38:37Z</time></trkpt><trkpt lat="44.86005544359568" lon="8.017797272895457"><ele>236.0</ele><time>2026-04-19T11:38:39Z</time></trkpt><trkpt lat="44.86001454534876" lon="8.017697514812825"><ele>236.0</ele><time>2026-04-19T11:38:41Z</time></trkpt><trkpt lat="44.859998183715355" lon="8.017566997041921"><ele>236.00000000000003</ele><time>2026-04-19T11:38:44Z</time></trkpt><trkpt lat="44.85993908959264" lon="8.01737342730018"><ele>236.00000000000003</ele><time>2026-04-19T11:38:46Z</time></trkpt><trkpt lat="44.85988622112566" lon="8.017281185863158"><ele>236.0</ele><time>2026-04-19T11:38:47Z</time></trkpt><trkpt lat="44.85982619329055" lon="8.017217673380562"><ele>236.0</ele><time>2026-04-19T11:38:48Z</time></trkpt><trkpt lat="44.85976260679838" lon="8.01718029734142"><ele>236.33333333333334</ele><time>2026-04-19T11:38:49Z</time></trkpt><trkpt lat="44.859686532444904" lon="8.017174347362223"><ele>236.66666666666669</ele><time>2026-04-19T11:38:50Z</time></trkpt><trkpt lat="44.85961582727395" lon="8.017177069713961"><ele>237.0</ele><time>2026-04-19T11:38:51Z</time></trkpt><trkpt lat="44.85954049113204" lon="8.017174964995151"><ele>237.33333333333331</ele><time>2026-04-19T11:38:52Z</time></trkpt><trkpt lat="44.859468875609146" lon="8.017146041258936"><ele>237.66666666666666</ele><time>2026-04-19T11:38:53Z</time></trkpt><trkpt lat="44.859391415971565" lon="8.017165103945759"><ele>238.0</ele><time>2026-04-19T11:38:54Z</time></trkpt><trkpt lat="44.85932072372856" lon="8.017223006182453"><ele>238.60000000000002</ele><time>2026-04-19T11:38:55Z</time></trkpt><trkpt lat="44.85923928298842" lon="8.017275780113962"><ele>239.20000000000002</ele><time>2026-04-19T11:38:56Z</time></trkpt><trkpt lat="44.85915055550886" lon="8.017313226632398"><ele>239.8</ele><time>2026-04-19T11:38:57Z</time></trkpt><trkpt lat="44.859047579955536" lon="8.017364390195294"><ele>240.4</ele><time>2026-04-19T11:38:58Z</time></trkpt><trkpt lat="44.85893634739746" lon="8.017430354150585"><ele>241.0</ele><time>2026-04-19T11:38:59Z</time></trkpt><trkpt lat="44.85881622181686" lon="8.017490507094479"><ele>242.20000000000002</ele><time>2026-04-19T11:39:00Z</time></trkpt><trkpt lat="44.85871501499856" lon="8.017554552937904"><ele>243.40000000000003</ele><time>2026-04-19T11:39:01Z</time></trkpt><trkpt lat="44.858628375356965" lon="8.017624264813161"><ele>244.6</ele><time>2026-04-19T11:39:02Z</time></trkpt><trkpt lat="44.85856337610148" lon="8.017724954300522"><ele>245.8</ele><time>2026-04-19T11:39:03Z</time></trkpt><trkpt lat="44.85850616753818" lon="8.01783323449909"><ele>247.0</ele><time>2026-04-19T11:39:04Z</time></trkpt><trkpt lat="44.8584506366001" lon="8.017921211549337"><ele>248.39999999999998</ele><time>2026-04-19T11:39:05Z</time></trkpt><trkpt lat="44.85835233156356" lon="8.017871404155185"><ele>249.79999999999998</ele><time>2026-04-19T11:39:08Z</time></trkpt><trkpt lat="44.858232628700776" lon="8.017925373521061"><ele>251.2</ele><time>2026-04-19T11:39:10Z</time></trkpt><trkpt lat="44.858157383377446" lon="8.017915537927117"><ele>252.6</ele><time>2026-04-19T11:39:11Z</time></trkpt><trkpt lat="44.858110516598124" lon="8.017817943201178"><ele>254.0</ele><time>2026-04-19T11:39:13Z</time></trkpt><trkpt lat="44.85812580903129" lon="8.01773086896497"><ele>254.0</ele><time>2026-04-19T11:39:14Z</time></trkpt><trkpt lat="44.858195394341195" lon="8.017638632660601"><ele>253.99999999999997</ele><time>2026-04-19T11:39:16Z</time></trkpt><trkpt lat="44.85821783394243" lon="8.017502462488721"><ele>253.99999999999997</ele><time>2026-04-19T11:39:18Z</time></trkpt><trkpt lat="44.858208875947504" lon="8.01740016106733"><ele>254.0</ele><time>2026-04-19T11:39:19Z</time></trkpt><trkpt lat="44.85822917730079" lon="8.01729670388901"><ele>254.0</ele><time>2026-04-19T11:39:20Z</time></trkpt><trkpt lat="44.85826539268164" lon="8.01714594107449"><ele>253.6</ele><time>2026-04-19T11:39:22Z</time></trkpt><trkpt lat="44.858315498688405" lon="8.01702586661279"><ele>253.2</ele><time>2026-04-19T11:39:24Z</time></trkpt><trkpt lat="44.8584085024174" lon="8.016965171091037"><ele>252.79999999999998</ele><time>2026-04-19T11:39:26Z</time></trkpt><trkpt lat="44.85851247525618" lon="8.016955358818992"><ele>252.39999999999998</ele><time>2026-04-19T11:39:28Z</time></trkpt><trkpt lat="44.858606167021364" lon="8.016911719651953"><ele>252.0</ele><time>2026-04-19T11:39:30Z</time></trkpt><trkpt lat="44.85865651238146" lon="8.01685447936139"><ele>250.83333333333334</ele><time>2026-04-19T11:39:31Z</time></trkpt><trkpt lat="44.85875121736639" lon="8.016804459510402"><ele>249.66666666666669</ele><time>2026-04-19T11:39:33Z</time></trkpt><trkpt lat="44.85875380172866" lon="8.01668737817764"><ele>248.5</ele><time>2026-04-19T11:39:35Z</time></trkpt><trkpt lat="44.85875473379731" lon="8.016572672701706"><ele>247.33333333333334</ele><time>2026-04-19T11:39:36Z</time></trkpt><trkpt lat="44.85873375080704" lon="8.016487095996386"><ele>246.16666666666669</ele><time>2026-04-19T11:39:37Z</time></trkpt><trkpt lat="44.85874403335407" lon="8.01637531683233"><ele>245.0</ele><time>2026-04-19T11:39:40Z</time></trkpt><trkpt lat="44.85874142947391" lon="8.0162710293977"><ele>245.0</ele><time>2026-04-19T11:39:44Z</time></trkpt><trkpt lat="44.858692389735175" lon="8.016209247036992"><ele>245.0</ele><time>2026-04-19T11:39:46Z</time></trkpt><trkpt lat="44.85862542437868" lon="8.016242017682048"><ele>245.0</ele><time>2026-04-19T11:39:48Z</time></trkpt><trkpt lat="44.85852472797821" lon="8.016187675274256"><ele>245.0</ele><time>2026-04-19T11:39:52Z</time></trkpt><trkpt lat="44.85842684051573" lon="8.016206196630726"><ele>245.0</ele><time>2026-04-19T11:39:54Z</time></trkpt><trkpt lat="44.85830011950762" lon="8.016203895707463"><ele>246.50000000000003</ele><time>2026-04-19T11:39:56Z</time></trkpt><trkpt lat="44.858228876324226" lon="8.016153752390226"><ele>248.0</ele><time>2026-04-19T11:39:58Z</time></trkpt><trkpt lat="44.85813335791154" lon="8.016136090718609"><ele>249.5</ele><time>2026-04-19T11:40:00Z</time></trkpt><trkpt lat="44.85802112996575" lon="8.01604652978799"><ele>251.0</ele><time>2026-04-19T11:40:02Z</time></trkpt><trkpt lat="44.85795599079682" lon="8.016024607468385"><ele>252.50000000000003</ele><time>2026-04-19T11:40:04Z</time></trkpt><trkpt lat="44.857892333504005" lon="8.016049756328758"><ele>254.0</ele><time>2026-04-19T11:40:05Z</time></trkpt><trkpt lat="44.85783538613038" lon="8.016113474001207"><ele>254.00000000000003</ele><time>2026-04-19T11:40:07Z</time></trkpt><trkpt lat="44.85781390505523" lon="8.016009332296253"><ele>254.0</ele><time>2026-04-19T11:40:10Z</time></trkpt><trkpt lat="44.85779105839376" lon="8.015918203773635"><ele>254.0</ele><time>2026-04-19T11:40:11.999Z</time></trkpt><trkpt lat="44.857707282565386" lon="8.01589666107137"><ele>254.0</ele><time>2026-04-19T11:40:13.999Z</time></trkpt><trkpt lat="44.85761227524626" lon="8.015829002037552"><ele>254.00000000000003</ele><time>2026-04-19T11:40:15.999Z</time></trkpt><trkpt lat="44.85752130931146" lon="8.015743930573413"><ele>254.0</ele><time>2026-04-19T11:40:17.999Z</time></trkpt><trkpt lat="44.85744503397723" lon="8.015684161491672"><ele>253.0</ele><time>2026-04-19T11:40:19.999Z</time></trkpt><trkpt lat="44.85743205078097" lon="8.015545342895752"><ele>251.99999999999997</ele><time>2026-04-19T11:40:21.999Z</time></trkpt><trkpt lat="44.85742102694967" lon="8.015398491820985"><ele>250.99999999999997</ele><time>2026-04-19T11:40:23.999Z</time></trkpt><trkpt lat="44.85744691025842" lon="8.015271959280533"><ele>250.0</ele><time>2026-04-19T11:40:26Z</time></trkpt><trkpt lat="44.85741418308419" lon="8.015195873752932"><ele>249.0</ele><time>2026-04-19T11:40:28Z</time></trkpt><trkpt lat="44.85737494226645" lon="8.01505575571356"><ele>246.2</ele><time>2026-04-19T11:40:30Z</time></trkpt><trkpt lat="44.85729639023807" lon="8.014980277294091"><ele>243.39999999999998</ele><time>2026-04-19T11:40:33Z</time></trkpt><trkpt lat="44.85717673491709" lon="8.01494438872486"><ele>240.6</ele><time>2026-04-19T11:40:36Z</time></trkpt><trkpt lat="44.8571143550011" lon="8.014889129077845"><ele>237.8</ele><time>2026-04-19T11:40:37Z</time></trkpt><trkpt lat="44.85706049304672" lon="8.014774514521863"><ele>235.0</ele><time>2026-04-19T11:40:39Z</time></trkpt><trkpt lat="44.85699951188577" lon="8.014681324239948"><ele>234.99999999999997</ele><time>2026-04-19T11:40:41Z</time></trkpt><trkpt lat="44.85690629384181" lon="8.014653838320728"><ele>235.0</ele><time>2026-04-19T11:40:44Z</time></trkpt><trkpt lat="44.85681729457942" lon="8.0146617526227"><ele>235.0</ele><time>2026-04-19T11:40:46Z</time></trkpt><trkpt lat="44.85675850840326" lon="8.014547112804456"><ele>235.0</ele><time>2026-04-19T11:40:48Z</time></trkpt><trkpt lat="44.856801735129174" lon="8.014477524033348"><ele>234.99999999999997</ele><time>2026-04-19T11:40:50Z</time></trkpt><trkpt lat="44.856858202948075" lon="8.014431872681644"><ele>235.0</ele><time>2026-04-19T11:40:53Z</time></trkpt><trkpt lat="44.856916372353965" lon="8.014283232787566"><ele>235.0</ele><time>2026-04-19T11:41:01Z</time></trkpt><trkpt lat="44.856951425177066" lon="8.01420124039942"><ele>234.99999999999997</ele><time>2026-04-19T11:41:02Z</time></trkpt><trkpt lat="44.85698940981337" lon="8.014115227533257"><ele>235.0</ele><time>2026-04-19T11:41:03Z</time></trkpt><trkpt lat="44.85701970310628" lon="8.01403301584584"><ele>235.0</ele><time>2026-04-19T11:41:04Z</time></trkpt><trkpt lat="44.85703134471418" lon="8.013926830834672"><ele>234.99999999999997</ele><time>2026-04-19T11:41:06Z</time></trkpt><trkpt lat="44.85696776838809" lon="8.013979261550421"><ele>235.0</ele><time>2026-04-19T11:41:08Z</time></trkpt><trkpt lat="44.85691756719349" lon="8.014046222829002"><ele>235.0</ele><time>2026-04-19T11:41:09Z</time></trkpt><trkpt lat="44.85683575770391" lon="8.014111398085005"><ele>235.66666666666666</ele><time>2026-04-19T11:41:10Z</time></trkpt><trkpt lat="44.85674461299236" lon="8.014178208806598"><ele>236.33333333333331</ele><time>2026-04-19T11:41:11Z</time></trkpt><trkpt lat="44.856667992102935" lon="8.014228776861087"><ele>237.0</ele><time>2026-04-19T11:41:12Z</time></trkpt><trkpt lat="44.85660431316767" lon="8.014275037404852"><ele>237.66666666666669</ele><time>2026-04-19T11:41:13Z</time></trkpt><trkpt lat="44.8565318608338" lon="8.014306642977996"><ele>238.33333333333334</ele><time>2026-04-19T11:41:14Z</time></trkpt><trkpt lat="44.85645140957708" lon="8.01433233842149"><ele>239.0</ele><time>2026-04-19T11:41:15Z</time></trkpt><trkpt lat="44.8563650425512" lon="8.01436448533644"><ele>239.0</ele><time>2026-04-19T11:41:16Z</time></trkpt><trkpt lat="44.856277337652784" lon="8.01440252781931"><ele>238.99999999999997</ele><time>2026-04-19T11:41:17Z</time></trkpt><trkpt lat="44.856177208262544" lon="8.014443459289843"><ele>238.99999999999997</ele><time>2026-04-19T11:41:18Z</time></trkpt><trkpt lat="44.85607713664045" lon="8.01450335677189"><ele>239.0</ele><time>2026-04-19T11:41:19Z</time></trkpt><trkpt lat="44.85598081620334" lon="8.014565605252038"><ele>239.0</ele><time>2026-04-19T11:41:20Z</time></trkpt><trkpt lat="44.85590701853509" lon="8.014599583217736"><ele>240.66666666666669</ele><time>2026-04-19T11:41:21Z</time></trkpt><trkpt lat="44.855829670945866" lon="8.01463282696702"><ele>242.33333333333334</ele><time>2026-04-19T11:41:22Z</time></trkpt><trkpt lat="44.8557432381435" lon="8.014663037920506"><ele>244.0</ele><time>2026-04-19T11:41:23Z</time></trkpt><trkpt lat="44.855650990599905" lon="8.01469109748731"><ele>245.66666666666669</ele><time>2026-04-19T11:41:24Z</time></trkpt><trkpt lat="44.855560989879066" lon="8.014716279607939"><ele>247.33333333333334</ele><time>2026-04-19T11:41:25Z</time></trkpt><trkpt lat="44.85548938567303" lon="8.014734214110215"><ele>249.0</ele><time>2026-04-19T11:41:26Z</time></trkpt><trkpt lat="44.85540189551846" lon="8.014729477018728"><ele>249.0</ele><time>2026-04-19T11:41:27Z</time></trkpt><trkpt lat="44.85531570119736" lon="8.01475956571561"><ele>249.0</ele><time>2026-04-19T11:41:28Z</time></trkpt><trkpt lat="44.85522521373332" lon="8.01478596909735"><ele>249.0</ele><time>2026-04-19T11:41:29Z</time></trkpt><trkpt lat="44.85512807505478" lon="8.014798716196909"><ele>249.0</ele><time>2026-04-19T11:41:30Z</time></trkpt><trkpt lat="44.85505558116668" lon="8.01482105177904"><ele>249.0</ele><time>2026-04-19T11:41:31Z</time></trkpt><trkpt lat="44.854977729054916" lon="8.014880286192223"><ele>249.0</ele><time>2026-04-19T11:41:32Z</time></trkpt><trkpt lat="44.85489839555922" lon="8.014921141417398"><ele>248.0</ele><time>2026-04-19T11:41:33Z</time></trkpt><trkpt lat="44.854808143319715" lon="8.014984204830718"><ele>247.0</ele><time>2026-04-19T11:41:35Z</time></trkpt><trkpt lat="44.854723931229636" lon="8.015033350884702"><ele>246.0</ele><time>2026-04-19T11:41:37Z</time></trkpt><trkpt lat="44.85460930014336" lon="8.015089581439643"><ele>245.0</ele><time>2026-04-19T11:41:39Z</time></trkpt><trkpt lat="44.85447498833009" lon="8.015134276663272"><ele>246.8</ele><time>2026-04-19T11:41:41Z</time></trkpt><trkpt lat="44.85439989164764" lon="8.015176459494906"><ele>248.6</ele><time>2026-04-19T11:41:42Z</time></trkpt><trkpt lat="44.854301150104014" lon="8.015251163650698"><ele>250.39999999999998</ele><time>2026-04-19T11:41:43Z</time></trkpt><trkpt lat="44.85419440979059" lon="8.015334948706894"><ele>252.2</ele><time>2026-04-19T11:41:44Z</time></trkpt><trkpt lat="44.85409183921656" lon="8.015425833278071"><ele>254.0</ele><time>2026-04-19T11:41:45Z</time></trkpt><trkpt lat="44.85399579648869" lon="8.015521950565425"><ele>254.0</ele><time>2026-04-19T11:41:46Z</time></trkpt><trkpt lat="44.853904571517454" lon="8.015624216965225"><ele>253.99999999999997</ele><time>2026-04-19T11:41:47Z</time></trkpt><trkpt lat="44.85382829814008" lon="8.015713425279307"><ele>253.99999999999997</ele><time>2026-04-19T11:41:48Z</time></trkpt><trkpt lat="44.8537488920086" lon="8.015809820499479"><ele>254.0</ele><time>2026-04-19T11:41:49Z</time></trkpt><trkpt lat="44.85366092794865" lon="8.015894143875544"><ele>254.0</ele><time>2026-04-19T11:41:50Z</time></trkpt><trkpt lat="44.853578884162495" lon="8.01595965691443"><ele>254.0</ele><time>2026-04-19T11:41:51Z</time></trkpt><trkpt lat="44.85350186543608" lon="8.016008953937128"><ele>253.99999999999997</ele><time>2026-04-19T11:41:52Z</time></trkpt><trkpt lat="44.85358930045813" lon="8.015913600370972"><ele>253.99999999999997</ele><time>2026-04-19T11:42:10.999Z</time></trkpt><trkpt lat="44.85366069914662" lon="8.015792367526592"><ele>254.0</ele><time>2026-04-19T11:42:12.999Z</time></trkpt><trkpt lat="44.85372574988411" lon="8.01565825318441"><ele>254.0</ele><time>2026-04-19T11:42:14.999Z</time></trkpt><trkpt lat="44.853838728119214" lon="8.015568780464251"><ele>254.0</ele><time>2026-04-19T11:42:16.999Z</time></trkpt><trkpt lat="44.85390258764423" lon="8.01550773796988"><ele>253.99999999999997</ele><time>2026-04-19T11:42:17.999Z</time></trkpt><trkpt lat="44.853972963394874" lon="8.015373361579195"><ele>253.99999999999997</ele><time>2026-04-19T11:42:19.999Z</time></trkpt><trkpt lat="44.85405403788826" lon="8.015250982363977"><ele>254.0</ele><time>2026-04-19T11:42:21.999Z</time></trkpt><trkpt lat="44.854095394058575" lon="8.015182148550723"><ele>254.0</ele><time>2026-04-19T11:42:22.999Z</time></trkpt><trkpt lat="44.85416089583611" lon="8.015133166119151"><ele>254.00000000000003</ele><time>2026-04-19T11:42:23.999Z</time></trkpt><trkpt lat="44.85422058511667" lon="8.015087562377031"><ele>254.0</ele><time>2026-04-19T11:42:24.999Z</time></trkpt><trkpt lat="44.85431634549271" lon="8.014978578940475"><ele>254.0</ele><time>2026-04-19T11:42:26.999Z</time></trkpt><trkpt lat="44.854367502272424" lon="8.01491663601155"><ele>254.0</ele><time>2026-04-19T11:42:27.999Z</time></trkpt><trkpt lat="44.854407691757295" lon="8.01484528311447"><ele>254.00000000000003</ele><time>2026-04-19T11:42:28.999Z</time></trkpt><trkpt lat="44.85447643777116" lon="8.014702210429155"><ele>254.0</ele><time>2026-04-19T11:42:31Z</time></trkpt><trkpt lat="44.85455397551041" lon="8.01458367538605"><ele>252.50000000000003</ele><time>2026-04-19T11:42:33Z</time></trkpt><trkpt lat="44.85463058551423" lon="8.01447098207372"><ele>251.0</ele><time>2026-04-19T11:42:35Z</time></trkpt><trkpt lat="44.85467993781892" lon="8.014415645085155"><ele>249.5</ele><time>2026-04-19T11:42:36Z</time></trkpt><trkpt lat="44.854778756676254" lon="8.014348182656786"><ele>248.0</ele><time>2026-04-19T11:42:38Z</time></trkpt><trkpt lat="44.85484174531756" lon="8.014308154555552"><ele>246.50000000000003</ele><time>2026-04-19T11:42:39Z</time></trkpt><trkpt lat="44.85489754025554" lon="8.014266822221797"><ele>245.0</ele><time>2026-04-19T11:42:40Z</time></trkpt><trkpt lat="44.85496105876183" lon="8.014222561305521"><ele>245.00000000000003</ele><time>2026-04-19T11:42:41Z</time></trkpt><trkpt lat="44.85503009513433" lon="8.014207008473122"><ele>245.0</ele><time>2026-04-19T11:42:42Z</time></trkpt><trkpt lat="44.8550933854226" lon="8.014198795484473"><ele>245.0</ele><time>2026-04-19T11:42:43Z</time></trkpt><trkpt lat="44.855151187222596" lon="8.014145956778417"><ele>245.0</ele><time>2026-04-19T11:42:44Z</time></trkpt><trkpt lat="44.85519124569506" lon="8.014075955484767"><ele>245.00000000000003</ele><time>2026-04-19T11:42:45Z</time></trkpt><trkpt lat="44.85523370984829" lon="8.01393322697483"><ele>245.0</ele><time>2026-04-19T11:42:47Z</time></trkpt><trkpt lat="44.85521323545468" lon="8.01376964760862"><ele>243.8</ele><time>2026-04-19T11:42:49Z</time></trkpt><trkpt lat="44.85516282084838" lon="8.013685783117714"><ele>242.6</ele><time>2026-04-19T11:42:50Z</time></trkpt><trkpt lat="44.855123457805234" lon="8.013613377178169"><ele>241.39999999999998</ele><time>2026-04-19T11:42:51Z</time></trkpt><trkpt lat="44.8551657631021" lon="8.013462330223316"><ele>240.2</ele><time>2026-04-19T11:42:53Z</time></trkpt><trkpt lat="44.85524761816812" lon="8.01335144754311"><ele>239.0</ele><time>2026-04-19T11:42:54Z</time></trkpt><trkpt lat="44.85533163126241" lon="8.01326645212248"><ele>239.00000000000003</ele><time>2026-04-19T11:42:55Z</time></trkpt><trkpt lat="44.855413955439715" lon="8.013181882022621"><ele>239.0</ele><time>2026-04-19T11:42:56Z</time></trkpt><trkpt lat="44.85547763158661" lon="8.013107631238114"><ele>239.0</ele><time>2026-04-19T11:42:57Z</time></trkpt><trkpt lat="44.85552513343573" lon="8.013045225762392"><ele>239.0</ele><time>2026-04-19T11:42:58Z</time></trkpt><trkpt lat="44.85558003490409" lon="8.012984146726776"><ele>239.00000000000003</ele><time>2026-04-19T11:42:59Z</time></trkpt><trkpt lat="44.85564087823914" lon="8.012913096226798"><ele>239.0</ele><time>2026-04-19T11:43:00Z</time></trkpt><trkpt lat="44.85570419225832" lon="8.012813906879856"><ele>239.0</ele><time>2026-04-19T11:43:02Z</time></trkpt><trkpt lat="44.85577065234833" lon="8.012703169815142"><ele>238.99999999999997</ele><time>2026-04-19T11:43:04Z</time></trkpt><trkpt lat="44.85578297558516" lon="8.012568420609677"><ele>238.99999999999997</ele><time>2026-04-19T11:43:06Z</time></trkpt><trkpt lat="44.8557412262644" lon="8.012393987429233"><ele>239.0</ele><time>2026-04-19T11:43:08Z</time></trkpt><trkpt lat="44.85569587516069" lon="8.01230409242238"><ele>239.0</ele><time>2026-04-19T11:43:09Z</time></trkpt><trkpt lat="44.85564353021783" lon="8.012214841006648"><ele>241.2</ele><time>2026-04-19T11:43:10Z</time></trkpt><trkpt lat="44.85559451587894" lon="8.012108335632346"><ele>243.39999999999998</ele><time>2026-04-19T11:43:11Z</time></trkpt><trkpt lat="44.855542159063376" lon="8.012003240394439"><ele>245.6</ele><time>2026-04-19T11:43:12Z</time></trkpt><trkpt lat="44.8554928413968" lon="8.011896069227742"><ele>247.8</ele><time>2026-04-19T11:43:13Z</time></trkpt><trkpt lat="44.85542902943759" lon="8.011805790395194"><ele>250.0</ele><time>2026-04-19T11:43:14Z</time></trkpt><trkpt lat="44.855353688074885" lon="8.011725876978593"><ele>250.4</ele><time>2026-04-19T11:43:15Z</time></trkpt><trkpt lat="44.8552729601542" lon="8.011640667778869"><ele>250.8</ele><time>2026-04-19T11:43:16Z</time></trkpt><trkpt lat="44.85520577971877" lon="8.01151991219569"><ele>251.2</ele><time>2026-04-19T11:43:17Z</time></trkpt><trkpt lat="44.85514102061668" lon="8.011410388815609"><ele>251.6</ele><time>2026-04-19T11:43:18Z</time></trkpt><trkpt lat="44.85507144286437" lon="8.011305305163331"><ele>252.0</ele><time>2026-04-19T11:43:19Z</time></trkpt><trkpt lat="44.85500879817116" lon="8.011211111759923"><ele>252.0</ele><time>2026-04-19T11:43:20Z</time></trkpt><trkpt lat="44.85494540695449" lon="8.011141420214791"><ele>252.0</ele><time>2026-04-19T11:43:21Z</time></trkpt><trkpt lat="44.854865443925036" lon="8.011089132110005"><ele>252.0</ele><time>2026-04-19T11:43:22Z</time></trkpt><trkpt lat="44.85477024543508" lon="8.01106847369752"><ele>252.0</ele><time>2026-04-19T11:43:23Z</time></trkpt><trkpt lat="44.85467571157293" lon="8.011062518573425"><ele>252.0</ele><time>2026-04-19T11:43:24Z</time></trkpt><trkpt lat="44.85457817446876" lon="8.011036837909153"><ele>252.0</ele><time>2026-04-19T11:43:25Z</time></trkpt><trkpt lat="44.85448542705546" lon="8.010998007855294"><ele>252.0</ele><time>2026-04-19T11:43:26Z</time></trkpt><trkpt lat="44.85439247016283" lon="8.01093127457475"><ele>252.0</ele><time>2026-04-19T11:43:27Z</time></trkpt><trkpt lat="44.85429777990917" lon="8.010871371525633"><ele>252.0</ele><time>2026-04-19T11:43:28Z</time></trkpt><trkpt lat="44.85421140320182" lon="8.010808312958272"><ele>252.0</ele><time>2026-04-19T11:43:29Z</time></trkpt><trkpt lat="44.85412902939451" lon="8.010763613174712"><ele>253.8</ele><time>2026-04-19T11:43:30Z</time></trkpt><trkpt lat="44.85405478683717" lon="8.010737818607018"><ele>255.6</ele><time>2026-04-19T11:43:31Z</time></trkpt><trkpt lat="44.85396406023309" lon="8.010717430538007"><ele>257.40000000000003</ele><time>2026-04-19T11:43:32Z</time></trkpt><trkpt lat="44.85385914875023" lon="8.010683440753128"><ele>259.2</ele><time>2026-04-19T11:43:33Z</time></trkpt><trkpt lat="44.85376786432318" lon="8.010640443176388"><ele>261.0</ele><time>2026-04-19T11:43:34Z</time></trkpt><trkpt lat="44.85368409682847" lon="8.010566585509348"><ele>261.0</ele><time>2026-04-19T11:43:35Z</time></trkpt><trkpt lat="44.853607280152396" lon="8.010480528117643"><ele>261.0</ele><time>2026-04-19T11:43:36Z</time></trkpt><trkpt lat="44.85352499685262" lon="8.010387666797124"><ele>261.0</ele><time>2026-04-19T11:43:37Z</time></trkpt><trkpt lat="44.85344846288777" lon="8.010307370903758"><ele>261.0</ele><time>2026-04-19T11:43:38Z</time></trkpt><trkpt lat="44.853369276701976" lon="8.010241401458506"><ele>261.0</ele><time>2026-04-19T11:43:39Z</time></trkpt><trkpt lat="44.853274017419444" lon="8.010199568503607"><ele>260.5</ele><time>2026-04-19T11:43:40Z</time></trkpt><trkpt lat="44.85321246565603" lon="8.010166127609551"><ele>260.0</ele><time>2026-04-19T11:43:41Z</time></trkpt><trkpt lat="44.853148714125446" lon="8.010188427185112"><ele>259.5</ele><time>2026-04-19T11:43:42Z</time></trkpt><trkpt lat="44.853088313233684" lon="8.010284733393574"><ele>259.0</ele><time>2026-04-19T11:43:43Z</time></trkpt><trkpt lat="44.853012859255585" lon="8.010348030626902"><ele>258.5</ele><time>2026-04-19T11:43:44Z</time></trkpt><trkpt lat="44.852919996062994" lon="8.010218529792635"><ele>258.0</ele><time>2026-04-19T11:43:46Z</time></trkpt><trkpt lat="44.852842497146895" lon="8.010150652660775"><ele>258.0</ele><time>2026-04-19T11:43:47Z</time></trkpt><trkpt lat="44.85274459794106" lon="8.010137277225919"><ele>258.0</ele><time>2026-04-19T11:43:48Z</time></trkpt><trkpt lat="44.8526831461657" lon="8.010110685173837"><ele>258.0</ele><time>2026-04-19T11:43:49Z</time></trkpt><trkpt lat="44.85259047566836" lon="8.009966591830029"><ele>258.0</ele><time>2026-04-19T11:43:51Z</time></trkpt><trkpt lat="44.85251528198509" lon="8.009998924680444"><ele>258.0</ele><time>2026-04-19T11:43:52Z</time></trkpt><trkpt lat="44.8524034596737" lon="8.010045972321386"><ele>257.2</ele><time>2026-04-19T11:43:53Z</time></trkpt><trkpt lat="44.85232002744321" lon="8.010105590845622"><ele>256.4</ele><time>2026-04-19T11:43:54Z</time></trkpt><trkpt lat="44.85222644241101" lon="8.010184374128851"><ele>255.59999999999997</ele><time>2026-04-19T11:43:55Z</time></trkpt><trkpt lat="44.852124190211065" lon="8.010220155973634"><ele>254.79999999999998</ele><time>2026-04-19T11:43:56Z</time></trkpt><trkpt lat="44.852051056182525" lon="8.010185969978407"><ele>254.0</ele><time>2026-04-19T11:43:57Z</time></trkpt><trkpt lat="44.85189164069565" lon="8.010179329641241"><ele>254.0</ele><time>2026-04-19T11:43:59Z</time></trkpt><trkpt lat="44.851802014146955" lon="8.010244219788385"><ele>253.99999999999997</ele><time>2026-04-19T11:44:00Z</time></trkpt><trkpt lat="44.85171384320654" lon="8.01033659502127"><ele>253.99999999999997</ele><time>2026-04-19T11:44:01Z</time></trkpt><trkpt lat="44.85161777309031" lon="8.0103873724443"><ele>254.0</ele><time>2026-04-19T11:44:02Z</time></trkpt><trkpt lat="44.851532077144114" lon="8.010410029919809"><ele>254.0</ele><time>2026-04-19T11:44:03Z</time></trkpt><trkpt lat="44.851426024722414" lon="8.010426711234409"><ele>253.79999999999998</ele><time>2026-04-19T11:44:04Z</time></trkpt><trkpt lat="44.85133252943234" lon="8.01043824528774"><ele>253.59999999999997</ele><time>2026-04-19T11:44:05Z</time></trkpt><trkpt lat="44.85123205398679" lon="8.010464209708184"><ele>253.4</ele><time>2026-04-19T11:44:06Z</time></trkpt><trkpt lat="44.851125417224395" lon="8.010487627885228"><ele>253.2</ele><time>2026-04-19T11:44:07Z</time></trkpt><trkpt lat="44.8510210199762" lon="8.010484863607548"><ele>253.0</ele><time>2026-04-19T11:44:08Z</time></trkpt><trkpt lat="44.85093002505038" lon="8.010501183379116"><ele>254.0</ele><time>2026-04-19T11:44:09Z</time></trkpt><trkpt lat="44.850845003906834" lon="8.010532726644296"><ele>255.0</ele><time>2026-04-19T11:44:09.999Z</time></trkpt><trkpt lat="44.85074993058077" lon="8.010587247270113"><ele>256.0</ele><time>2026-04-19T11:44:10.999Z</time></trkpt><trkpt lat="44.8506608571497" lon="8.010642369284142"><ele>257.0</ele><time>2026-04-19T11:44:11.999Z</time></trkpt><trkpt lat="44.850575098902695" lon="8.01071024411494"><ele>258.0</ele><time>2026-04-19T11:44:12.999Z</time></trkpt><trkpt lat="44.85049105055346" lon="8.01078485496405"><ele>257.6</ele><time>2026-04-19T11:44:13.999Z</time></trkpt><trkpt lat="44.85041681075787" lon="8.010847899207867"><ele>257.20000000000005</ele><time>2026-04-19T11:44:14.999Z</time></trkpt><trkpt lat="44.85035958910915" lon="8.010928536455923"><ele>256.8</ele><time>2026-04-19T11:44:15.999Z</time></trkpt><trkpt lat="44.85028325284636" lon="8.010991924932078"><ele>256.40000000000003</ele><time>2026-04-19T11:44:16.999Z</time></trkpt><trkpt lat="44.850180934306096" lon="8.011021672258236"><ele>256.0</ele><time>2026-04-19T11:44:17.999Z</time></trkpt><trkpt lat="44.850088727550514" lon="8.011061203216421"><ele>256.8333333333333</ele><time>2026-04-19T11:44:18.999Z</time></trkpt><trkpt lat="44.85001658855604" lon="8.011120386816012"><ele>257.66666666666663</ele><time>2026-04-19T11:44:19.999Z</time></trkpt><trkpt lat="44.849984247303546" lon="8.011203227893457"><ele>258.5</ele><time>2026-04-19T11:44:20.999Z</time></trkpt><trkpt lat="44.84997311741192" lon="8.011317904078322"><ele>259.3333333333333</ele><time>2026-04-19T11:44:21.999Z</time></trkpt><trkpt lat="44.849937807252104" lon="8.011411459370313"><ele>260.1666666666667</ele><time>2026-04-19T11:44:22.999Z</time></trkpt><trkpt lat="44.84990459060986" lon="8.011525205813765"><ele>261.0</ele><time>2026-04-19T11:44:23.999Z</time></trkpt><trkpt lat="44.84986011413121" lon="8.011629047564155"><ele>260.8</ele><time>2026-04-19T11:44:24.999Z</time></trkpt><trkpt lat="44.84982048882423" lon="8.01174119405135"><ele>260.6</ele><time>2026-04-19T11:44:25.999Z</time></trkpt><trkpt lat="44.849780714877774" lon="8.011856214735984"><ele>260.4</ele><time>2026-04-19T11:44:26.999Z</time></trkpt><trkpt lat="44.84974130032472" lon="8.011953800284155"><ele>260.2</ele><time>2026-04-19T11:44:27.999Z</time></trkpt><trkpt lat="44.84975160454165" lon="8.012153793325934"><ele>260.0</ele><time>2026-04-19T11:44:29.999Z</time></trkpt><trkpt lat="44.84974064738691" lon="8.012273281923862"><ele>260.0</ele><time>2026-04-19T11:44:30.999Z</time></trkpt><trkpt lat="44.84969501163788" lon="8.012359681636637"><ele>260.0</ele><time>2026-04-19T11:44:31.999Z</time></trkpt><trkpt lat="44.849612819124" lon="8.012384621365296"><ele>260.0</ele><time>2026-04-19T11:44:32.999Z</time></trkpt><trkpt lat="44.849517035395635" lon="8.01236673428616"><ele>260.0</ele><time>2026-04-19T11:44:33.999Z</time></trkpt><trkpt lat="44.84942601264294" lon="8.012356530444276"><ele>260.0</ele><time>2026-04-19T11:44:34.999Z</time></trkpt><trkpt lat="44.84936185553506" lon="8.01237808883387"><ele>260.0</ele><time>2026-04-19T11:44:35.999Z</time></trkpt><trkpt lat="44.849323406657156" lon="8.012473406843949"><ele>261.6</ele><time>2026-04-19T11:44:37Z</time></trkpt><trkpt lat="44.84929560655407" lon="8.012616747364913"><ele>263.2</ele><time>2026-04-19T11:44:38Z</time></trkpt><trkpt lat="44.84923129828821" lon="8.012746459479132"><ele>264.8</ele><time>2026-04-19T11:44:39Z</time></trkpt><trkpt lat="44.84917793746158" lon="8.01285050033626"><ele>266.4</ele><time>2026-04-19T11:44:40Z</time></trkpt><trkpt lat="44.849108227805395" lon="8.012937075185363"><ele>268.0</ele><time>2026-04-19T11:44:41Z</time></trkpt><trkpt lat="44.84902923718888" lon="8.013032597361427"><ele>268.0</ele><time>2026-04-19T11:44:42Z</time></trkpt><trkpt lat="44.84895544972789" lon="8.013128031163287"><ele>268.0</ele><time>2026-04-19T11:44:43Z</time></trkpt><trkpt lat="44.84888834661762" lon="8.01320000431082"><ele>268.0</ele><time>2026-04-19T11:44:44Z</time></trkpt><trkpt lat="44.84878741812897" lon="8.013242859449978"><ele>268.0</ele><time>2026-04-19T11:44:45Z</time></trkpt><trkpt lat="44.84870182825108" lon="8.013315446538746"><ele>268.0</ele><time>2026-04-19T11:44:46Z</time></trkpt><trkpt lat="44.84863375107781" lon="8.013404748874642"><ele>268.16666666666663</ele><time>2026-04-19T11:44:47Z</time></trkpt><trkpt lat="44.84855461848011" lon="8.013436540276935"><ele>268.3333333333333</ele><time>2026-04-19T11:44:48Z</time></trkpt><trkpt lat="44.84846374605505" lon="8.013471917145745"><ele>268.5</ele><time>2026-04-19T11:44:49Z</time></trkpt><trkpt lat="44.848401652188265" lon="8.01355245335475"><ele>268.6666666666667</ele><time>2026-04-19T11:44:51Z</time></trkpt><trkpt lat="44.84846536958872" lon="8.013513427305924"><ele>268.83333333333337</ele><time>2026-04-19T11:45:15Z</time></trkpt><trkpt lat="44.848383947896366" lon="8.013589484124513"><ele>269.0</ele><time>2026-04-19T11:45:53Z</time></trkpt><trkpt lat="44.848306667362095" lon="8.013658722732554"><ele>269.59999999999997</ele><time>2026-04-19T11:45:54Z</time></trkpt><trkpt lat="44.84824428029813" lon="8.013728801938386"><ele>270.2</ele><time>2026-04-19T11:45:55Z</time></trkpt><trkpt lat="44.84817125385004" lon="8.013785154684477"><ele>270.79999999999995</ele><time>2026-04-19T11:45:56Z</time></trkpt><trkpt lat="44.84807367300542" lon="8.013836728391142"><ele>271.4</ele><time>2026-04-19T11:45:57Z</time></trkpt><trkpt lat="44.84797990973424" lon="8.013897215516554"><ele>272.0</ele><time>2026-04-19T11:45:58Z</time></trkpt><trkpt lat="44.84789474022304" lon="8.013941713083648"><ele>272.0</ele><time>2026-04-19T11:45:59Z</time></trkpt><trkpt lat="44.84783557832661" lon="8.013989498554217"><ele>272.0</ele><time>2026-04-19T11:46:00Z</time></trkpt><trkpt lat="44.847751227350706" lon="8.014028464719338"><ele>272.0</ele><time>2026-04-19T11:46:02Z</time></trkpt><trkpt lat="44.847673431015245" lon="8.014014461865898"><ele>272.0</ele><time>2026-04-19T11:46:04Z</time></trkpt><trkpt lat="44.847601304402176" lon="8.014013804532182"><ele>272.0</ele><time>2026-04-19T11:46:06Z</time></trkpt><trkpt lat="44.84748229434884" lon="8.014113238290188"><ele>272.0</ele><time>2026-04-19T11:46:08Z</time></trkpt><trkpt lat="44.84741985192756" lon="8.014173084712622"><ele>272.8</ele><time>2026-04-19T11:46:09Z</time></trkpt><trkpt lat="44.84728729746767" lon="8.014260370300875"><ele>273.6</ele><time>2026-04-19T11:46:11Z</time></trkpt><trkpt lat="44.847185995363716" lon="8.014312269038232"><ele>274.40000000000003</ele><time>2026-04-19T11:46:12Z</time></trkpt><trkpt lat="44.847097032514334" lon="8.014339416718196"><ele>275.2</ele><time>2026-04-19T11:46:13Z</time></trkpt><trkpt lat="44.84702793002316" lon="8.014355779002715"><ele>276.0</ele><time>2026-04-19T11:46:14Z</time></trkpt><trkpt lat="44.84695273722188" lon="8.014463503374099"><ele>276.0</ele><time>2026-04-19T11:46:16Z</time></trkpt><trkpt lat="44.8468937973958" lon="8.014550375346268"><ele>276.0</ele><time>2026-04-19T11:46:17Z</time></trkpt><trkpt lat="44.84681039962436" lon="8.014644846526172"><ele>276.0</ele><time>2026-04-19T11:46:18Z</time></trkpt><trkpt lat="44.84672205086998" lon="8.014712340712263"><ele>276.0</ele><time>2026-04-19T11:46:19Z</time></trkpt><trkpt lat="44.846640377537405" lon="8.014786555347719"><ele>276.0</ele><time>2026-04-19T11:46:20Z</time></trkpt><trkpt lat="44.84658168484175" lon="8.014872039132637"><ele>277.0</ele><time>2026-04-19T11:46:21Z</time></trkpt><trkpt lat="44.846514664351446" lon="8.014972733841384"><ele>278.0</ele><time>2026-04-19T11:46:22Z</time></trkpt><trkpt lat="44.84644440298127" lon="8.015069412615182"><ele>279.0</ele><time>2026-04-19T11:46:22.999Z</time></trkpt><trkpt lat="44.846406516975705" lon="8.01518025739168"><ele>280.0</ele><time>2026-04-19T11:46:23.999Z</time></trkpt><trkpt lat="44.84636125340725" lon="8.01528314026851"><ele>281.0</ele><time>2026-04-19T11:46:24.999Z</time></trkpt><trkpt lat="44.846289636921405" lon="8.015352962607276"><ele>281.0</ele><time>2026-04-19T11:46:25.999Z</time></trkpt><trkpt lat="44.846199470130976" lon="8.015410709789247"><ele>281.0</ele><time>2026-04-19T11:46:26.999Z</time></trkpt><trkpt lat="44.84611525275584" lon="8.01547768029317"><ele>281.0</ele><time>2026-04-19T11:46:27.999Z</time></trkpt><trkpt lat="44.84603929624123" lon="8.015563049401964"><ele>281.0</ele><time>2026-04-19T11:46:28.999Z</time></trkpt><trkpt lat="44.84596418693328" lon="8.01562623596924"><ele>281.0</ele><time>2026-04-19T11:46:29.999Z</time></trkpt><trkpt lat="44.84590282582398" lon="8.015700472024887"><ele>281.6</ele><time>2026-04-19T11:46:30.999Z</time></trkpt><trkpt lat="44.845827722698964" lon="8.015762617972733"><ele>282.20000000000005</ele><time>2026-04-19T11:46:31.999Z</time></trkpt><trkpt lat="44.84573773966503" lon="8.015789771027533"><ele>282.79999999999995</ele><time>2026-04-19T11:46:32.999Z</time></trkpt><trkpt lat="44.84563640800153" lon="8.015817394574531"><ele>283.4</ele><time>2026-04-19T11:46:33.999Z</time></trkpt><trkpt lat="44.84553745204237" lon="8.015861064545211"><ele>284.0</ele><time>2026-04-19T11:46:34.999Z</time></trkpt><trkpt lat="44.84544893080147" lon="8.015906469923726"><ele>284.0</ele><time>2026-04-19T11:46:35.999Z</time></trkpt><trkpt lat="44.84536670695834" lon="8.015926258038503"><ele>284.0</ele><time>2026-04-19T11:46:36.999Z</time></trkpt><trkpt lat="44.84528366070888" lon="8.015915930537885"><ele>284.0</ele><time>2026-04-19T11:46:37.999Z</time></trkpt><trkpt lat="44.84521660156618" lon="8.01589273671094"><ele>284.0</ele><time>2026-04-19T11:46:38.999Z</time></trkpt><trkpt lat="44.845125702949254" lon="8.015869862322134"><ele>284.0</ele><time>2026-04-19T11:46:39.999Z</time></trkpt><trkpt lat="44.84501586834127" lon="8.015905938645174"><ele>284.0</ele><time>2026-04-19T11:46:40.999Z</time></trkpt><trkpt lat="44.8449076512028" lon="8.01594343935098"><ele>285.0</ele><time>2026-04-19T11:46:41.999Z</time></trkpt><trkpt lat="44.844824384275455" lon="8.015966470428326"><ele>286.0</ele><time>2026-04-19T11:46:43Z</time></trkpt><trkpt lat="44.84475650518207" lon="8.015943385331989"><ele>287.0</ele><time>2026-04-19T11:46:44Z</time></trkpt><trkpt lat="44.8446938215672" lon="8.015858151726626"><ele>288.0</ele><time>2026-04-19T11:46:45Z</time></trkpt><trkpt lat="44.84464128481076" lon="8.015727545339743"><ele>289.0</ele><time>2026-04-19T11:46:46Z</time></trkpt><trkpt lat="44.84457249808451" lon="8.015608162186446"><ele>290.59999999999997</ele><time>2026-04-19T11:46:47Z</time></trkpt><trkpt lat="44.84449702128049" lon="8.015536952781257"><ele>292.2</ele><time>2026-04-19T11:46:48Z</time></trkpt><trkpt lat="44.84440116476496" lon="8.01546043676198"><ele>293.79999999999995</ele><time>2026-04-19T11:46:49Z</time></trkpt><trkpt lat="44.84428770632581" lon="8.015416201172384"><ele>295.4</ele><time>2026-04-19T11:46:50Z</time></trkpt><trkpt lat="44.844184265626446" lon="8.015386172335482"><ele>297.0</ele><time>2026-04-19T11:46:51Z</time></trkpt><trkpt lat="44.84409835895352" lon="8.015331375276785"><ele>297.0</ele><time>2026-04-19T11:46:52Z</time></trkpt><trkpt lat="44.84402607010045" lon="8.015259162162774"><ele>297.0</ele><time>2026-04-19T11:46:53Z</time></trkpt><trkpt lat="44.84396130380345" lon="8.015176544485348"><ele>297.0</ele><time>2026-04-19T11:46:54Z</time></trkpt><trkpt lat="44.84389235911965" lon="8.015120438550602"><ele>297.0</ele><time>2026-04-19T11:46:55Z</time></trkpt><trkpt lat="44.84380487671491" lon="8.015111797547062"><ele>297.0</ele><time>2026-04-19T11:46:56Z</time></trkpt><trkpt lat="44.843705927280084" lon="8.015134452259934"><ele>297.0</ele><time>2026-04-19T11:46:57Z</time></trkpt><trkpt lat="44.84359797928528" lon="8.015159298591945"><ele>297.0</ele><time>2026-04-19T11:46:58Z</time></trkpt><trkpt lat="44.84348478961671" lon="8.015196966984323"><ele>297.0</ele><time>2026-04-19T11:46:59Z</time></trkpt><trkpt lat="44.84340119358816" lon="8.015207309752384"><ele>297.0</ele><time>2026-04-19T11:47:00Z</time></trkpt><trkpt lat="44.843315985534836" lon="8.015185706267049"><ele>297.0</ele><time>2026-04-19T11:47:01Z</time></trkpt><trkpt lat="44.84323639887422" lon="8.015132289028138"><ele>297.0</ele><time>2026-04-19T11:47:02Z</time></trkpt><trkpt lat="44.843143212535004" lon="8.015049609071847"><ele>297.6</ele><time>2026-04-19T11:47:03Z</time></trkpt><trkpt lat="44.84303471350965" lon="8.014962245293994"><ele>298.2</ele><time>2026-04-19T11:47:04Z</time></trkpt><trkpt lat="44.84296417424814" lon="8.014887339812171"><ele>298.8</ele><time>2026-04-19T11:47:05Z</time></trkpt><trkpt lat="44.84288767677452" lon="8.014843544639676"><ele>299.4</ele><time>2026-04-19T11:47:06Z</time></trkpt><trkpt lat="44.84280435611774" lon="8.014826514525193"><ele>300.0</ele><time>2026-04-19T11:47:08Z</time></trkpt><trkpt lat="44.84275613619417" lon="8.015018565313442"><ele>300.0</ele><time>2026-04-19T11:47:10Z</time></trkpt><trkpt lat="44.84271390360477" lon="8.01512952008548"><ele>300.0</ele><time>2026-04-19T11:47:11Z</time></trkpt><trkpt lat="44.84265781486147" lon="8.015241548101713"><ele>300.0</ele><time>2026-04-19T11:47:12Z</time></trkpt><trkpt lat="44.84262178698604" lon="8.015320730499731"><ele>300.0</ele><time>2026-04-19T11:47:14Z</time></trkpt><trkpt lat="44.84260364459027" lon="8.015444563884397"><ele>300.0</ele><time>2026-04-19T11:47:17Z</time></trkpt><trkpt lat="44.84261138370515" lon="8.01561843081483"><ele>298.8</ele><time>2026-04-19T11:47:19Z</time></trkpt><trkpt lat="44.84262144685764" lon="8.015707746769932"><ele>297.6</ele><time>2026-04-19T11:47:20Z</time></trkpt><trkpt lat="44.84263613845723" lon="8.015880593370138"><ele>296.4</ele><time>2026-04-19T11:47:22Z</time></trkpt><trkpt lat="44.8426411560177" lon="8.016045183129622"><ele>295.2</ele><time>2026-04-19T11:47:24Z</time></trkpt><trkpt lat="44.842645336104745" lon="8.016212358921035"><ele>294.0</ele><time>2026-04-19T11:47:26Z</time></trkpt><trkpt lat="44.84263315061851" lon="8.01630877321726"><ele>293.8333333333333</ele><time>2026-04-19T11:47:27Z</time></trkpt><trkpt lat="44.84261312538585" lon="8.016398070811082"><ele>293.6666666666667</ele><time>2026-04-19T11:47:28Z</time></trkpt><trkpt lat="44.84257225996326" lon="8.01655834064778"><ele>293.5</ele><time>2026-04-19T11:47:30Z</time></trkpt><trkpt lat="44.84255830977409" lon="8.01665194141891"><ele>293.33333333333337</ele><time>2026-04-19T11:47:31Z</time></trkpt><trkpt lat="44.84254966616004" lon="8.016749478653352"><ele>293.1666666666667</ele><time>2026-04-19T11:47:32Z</time></trkpt><trkpt lat="44.842557126931766" lon="8.016843013127199"><ele>293.0</ele><time>2026-04-19T11:47:33Z</time></trkpt><trkpt lat="44.8425818270095" lon="8.016937851902325"><ele>292.4</ele><time>2026-04-19T11:47:34Z</time></trkpt><trkpt lat="44.84261324416418" lon="8.017015442343228"><ele>291.8</ele><time>2026-04-19T11:47:35Z</time></trkpt><trkpt lat="44.842667552413616" lon="8.017139003573927"><ele>291.2</ele><time>2026-04-19T11:47:37Z</time></trkpt><trkpt lat="44.84269805937188" lon="8.017286562557217"><ele>290.6</ele><time>2026-04-19T11:47:39Z</time></trkpt><trkpt lat="44.842754355310696" lon="8.017417232295887"><ele>290.0</ele><time>2026-04-19T11:47:41Z</time></trkpt><trkpt lat="44.84279850569635" lon="8.017551094181579"><ele>290.0</ele><time>2026-04-19T11:47:43Z</time></trkpt><trkpt lat="44.84271323057854" lon="8.017558653012838"><ele>290.0</ele><time>2026-04-19T11:47:48Z</time></trkpt><trkpt lat="44.842633959543825" lon="8.017450299383356"><ele>290.0</ele><time>2026-04-19T11:47:50Z</time></trkpt><trkpt lat="44.84258199493652" lon="8.017390396406405"><ele>290.0</ele><time>2026-04-19T11:47:51Z</time></trkpt><trkpt lat="44.84251838085307" lon="8.017334681673537"><ele>290.0</ele><time>2026-04-19T11:47:52Z</time></trkpt><trkpt lat="44.842412689203094" lon="8.017238809167928"><ele>290.0</ele><time>2026-04-19T11:47:54Z</time></trkpt><trkpt lat="44.84235068377726" lon="8.01719249993667"><ele>290.0</ele><time>2026-04-19T11:47:55Z</time></trkpt><trkpt lat="44.84224638981152" lon="8.017130664684892"><ele>290.0</ele><time>2026-04-19T11:47:57Z</time></trkpt><trkpt lat="44.84219817327612" lon="8.01704660780599"><ele>290.0</ele><time>2026-04-19T11:47:58Z</time></trkpt><trkpt lat="44.84210685785336" lon="8.016905402707103"><ele>290.0</ele><time>2026-04-19T11:48:00Z</time></trkpt><trkpt lat="44.84206425161967" lon="8.016836641583774"><ele>290.0</ele><time>2026-04-19T11:48:01Z</time></trkpt><trkpt lat="44.84201452859992" lon="8.016780165437348"><ele>290.0</ele><time>2026-04-19T11:48:02Z</time></trkpt><trkpt lat="44.84192826499656" lon="8.016671494458468"><ele>290.0</ele><time>2026-04-19T11:48:04Z</time></trkpt><trkpt lat="44.84187999954822" lon="8.016506673486427"><ele>290.0</ele><time>2026-04-19T11:48:06Z</time></trkpt><trkpt lat="44.841843943716086" lon="8.01634494845501"><ele>290.0</ele><time>2026-04-19T11:48:08Z</time></trkpt><trkpt lat="44.841803256949255" lon="8.016270732367062"><ele>285.2857142857143</ele><time>2026-04-19T11:48:09Z</time></trkpt><trkpt lat="44.84174679766444" lon="8.016196149042894"><ele>280.5714285714286</ele><time>2026-04-19T11:48:10Z</time></trkpt><trkpt lat="44.841687490624835" lon="8.016129125637153"><ele>275.8571428571429</ele><time>2026-04-19T11:48:11Z</time></trkpt><trkpt lat="44.8416263411637" lon="8.016097228403254"><ele>271.14285714285717</ele><time>2026-04-19T11:48:12Z</time></trkpt><trkpt lat="44.8415582937222" lon="8.016115132812905"><ele>266.42857142857144</ele><time>2026-04-19T11:48:13Z</time></trkpt><trkpt lat="44.841484924857326" lon="8.016141935224871"><ele>261.7142857142857</ele><time>2026-04-19T11:48:14Z</time></trkpt><trkpt lat="44.841405480035384" lon="8.016153937095247"><ele>257.0</ele><time>2026-04-19T11:48:15Z</time></trkpt><trkpt lat="44.8413299584597" lon="8.016161773983184"><ele>257.0</ele><time>2026-04-19T11:48:16Z</time></trkpt><trkpt lat="44.84124227632898" lon="8.01617563513939"><ele>257.0</ele><time>2026-04-19T11:48:17Z</time></trkpt><trkpt lat="44.84116025735145" lon="8.016205063447138"><ele>257.0</ele><time>2026-04-19T11:48:18Z</time></trkpt><trkpt lat="44.84108842537886" lon="8.016214411603166"><ele>257.0</ele><time>2026-04-19T11:48:20Z</time></trkpt><trkpt lat="44.84102668091943" lon="8.016185145074159"><ele>257.0</ele><time>2026-04-19T11:49:39Z</time></trkpt><trkpt lat="44.8409454553993" lon="8.01615501571809"><ele>257.0</ele><time>2026-04-19T11:49:41Z</time></trkpt><trkpt lat="44.840982474101516" lon="8.01606790030294"><ele>257.0</ele><time>2026-04-19T11:49:51Z</time></trkpt><trkpt lat="44.84108120454355" lon="8.015970917945376"><ele>257.0</ele><time>2026-04-19T11:49:53Z</time></trkpt><trkpt lat="44.841129980174166" lon="8.015887994513063"><ele>257.0</ele><time>2026-04-19T11:49:55Z</time></trkpt><trkpt lat="44.841084925403365" lon="8.015740938567522"><ele>257.0</ele><time>2026-04-19T11:49:57Z</time></trkpt><trkpt lat="44.84102258798299" lon="8.015641048490682"><ele>257.0</ele><time>2026-04-19T11:49:59Z</time></trkpt><trkpt lat="44.8409397173526" lon="8.015529846764833"><ele>255.83333333333334</ele><time>2026-04-19T11:50:01Z</time></trkpt><trkpt lat="44.84084878302495" lon="8.015621734273568"><ele>254.66666666666669</ele><time>2026-04-19T11:50:03Z</time></trkpt><trkpt lat="44.84082294484633" lon="8.015707604320427"><ele>253.5</ele><time>2026-04-19T11:50:04Z</time></trkpt><trkpt lat="44.84078925774539" lon="8.01579285623718"><ele>252.33333333333331</ele><time>2026-04-19T11:50:05Z</time></trkpt><trkpt lat="44.84075409198481" lon="8.015886018457723"><ele>251.16666666666666</ele><time>2026-04-19T11:50:06Z</time></trkpt><trkpt lat="44.840706889908994" lon="8.015978289848066"><ele>250.0</ele><time>2026-04-19T11:50:07Z</time></trkpt><trkpt lat="44.840660820669804" lon="8.016060221072667"><ele>246.99999999999997</ele><time>2026-04-19T11:50:08Z</time></trkpt><trkpt lat="44.84061455805955" lon="8.01613611379476"><ele>244.0</ele><time>2026-04-19T11:50:09Z</time></trkpt><trkpt lat="44.84056402856581" lon="8.016215093348503"><ele>241.0</ele><time>2026-04-19T11:50:10Z</time></trkpt><trkpt lat="44.84051395196988" lon="8.016284749863036"><ele>238.0</ele><time>2026-04-19T11:50:11Z</time></trkpt><trkpt lat="44.840464087902035" lon="8.016424924760422"><ele>234.99999999999997</ele><time>2026-04-19T11:50:13Z</time></trkpt><trkpt lat="44.8403892066115" lon="8.01655080741706"><ele>232.0</ele><time>2026-04-19T11:50:15Z</time></trkpt><trkpt lat="44.84034009319559" lon="8.016625939032492"><ele>231.16666666666666</ele><time>2026-04-19T11:50:16Z</time></trkpt><trkpt lat="44.84029567180511" lon="8.016702064174318"><ele>230.33333333333331</ele><time>2026-04-19T11:50:17Z</time></trkpt><trkpt lat="44.840236349610336" lon="8.016760188070526"><ele>229.5</ele><time>2026-04-19T11:50:18Z</time></trkpt><trkpt lat="44.84017652588822" lon="8.016805862395472"><ele>228.66666666666669</ele><time>2026-04-19T11:50:19Z</time></trkpt><trkpt lat="44.8400621699651" lon="8.01686008569435"><ele>227.83333333333334</ele><time>2026-04-19T11:50:21Z</time></trkpt><trkpt lat="44.83999533965607" lon="8.016856576375451"><ele>227.0</ele><time>2026-04-19T11:50:22Z</time></trkpt><trkpt lat="44.83992115553885" lon="8.016832293013431"><ele>225.16666666666669</ele><time>2026-04-19T11:50:23Z</time></trkpt><trkpt lat="44.83983619569747" lon="8.016807565361981"><ele>223.33333333333334</ele><time>2026-04-19T11:50:24Z</time></trkpt><trkpt lat="44.83974525987755" lon="8.016798690079044"><ele>221.5</ele><time>2026-04-19T11:50:25Z</time></trkpt><trkpt lat="44.839657947682724" lon="8.016791450091457"><ele>219.66666666666669</ele><time>2026-04-19T11:50:26Z</time></trkpt><trkpt lat="44.83957938014277" lon="8.016802713408914"><ele>217.83333333333334</ele><time>2026-04-19T11:50:27Z</time></trkpt><trkpt lat="44.83948933407638" lon="8.016807670181194"><ele>216.0</ele><time>2026-04-19T11:50:28Z</time></trkpt><trkpt lat="44.839411503757795" lon="8.01681349270289"><ele>216.0</ele><time>2026-04-19T11:50:29Z</time></trkpt><trkpt lat="44.839342119996594" lon="8.016820230962614"><ele>216.00000000000003</ele><time>2026-04-19T11:50:30Z</time></trkpt><trkpt lat="44.83920982817753" lon="8.016824801082313"><ele>216.00000000000003</ele><time>2026-04-19T11:50:32Z</time></trkpt><trkpt lat="44.83912966454182" lon="8.016861755929888"><ele>216.0</ele><time>2026-04-19T11:50:33Z</time></trkpt><trkpt lat="44.83904664736371" lon="8.016906701861773"><ele>216.0</ele><time>2026-04-19T11:50:34Z</time></trkpt><trkpt lat="44.83896746921182" lon="8.01694465890519"><ele>215.0</ele><time>2026-04-19T11:50:35Z</time></trkpt><trkpt lat="44.83889345843205" lon="8.016975927299098"><ele>214.0</ele><time>2026-04-19T11:50:36Z</time></trkpt><trkpt lat="44.838815074064314" lon="8.01702139500097"><ele>213.0</ele><time>2026-04-19T11:50:37Z</time></trkpt><trkpt lat="44.83873023222981" lon="8.017066066852088"><ele>212.0</ele><time>2026-04-19T11:50:38Z</time></trkpt><trkpt lat="44.8386398374292" lon="8.017096732476858"><ele>211.0</ele><time>2026-04-19T11:50:39Z</time></trkpt><trkpt lat="44.838550463329874" lon="8.017135436640908"><ele>210.0</ele><time>2026-04-19T11:50:40Z</time></trkpt><trkpt lat="44.83844699830315" lon="8.01717190572931"><ele>209.8</ele><time>2026-04-19T11:50:41Z</time></trkpt><trkpt lat="44.83834867053654" lon="8.017197012663894"><ele>209.6</ele><time>2026-04-19T11:50:42Z</time></trkpt><trkpt lat="44.83825039111503" lon="8.017214839467458"><ele>209.39999999999998</ele><time>2026-04-19T11:50:43Z</time></trkpt><trkpt lat="44.838150108390465" lon="8.017225417460066"><ele>209.2</ele><time>2026-04-19T11:50:44Z</time></trkpt><trkpt lat="44.838049589959105" lon="8.017232936257932"><ele>209.0</ele><time>2026-04-19T11:50:45Z</time></trkpt><trkpt lat="44.83795469325252" lon="8.017248524789927"><ele>209.0</ele><time>2026-04-19T11:50:46Z</time></trkpt><trkpt lat="44.83785531390031" lon="8.017268587218435"><ele>209.0</ele><time>2026-04-19T11:50:47Z</time></trkpt><trkpt lat="44.837775964769996" lon="8.017283233512115"><ele>209.0</ele><time>2026-04-19T11:50:48Z</time></trkpt><trkpt lat="44.837677292558205" lon="8.017291204268616"><ele>209.0</ele><time>2026-04-19T11:50:50Z</time></trkpt><trkpt lat="44.83757043555119" lon="8.0173638397888"><ele>209.0</ele><time>2026-04-19T11:50:52Z</time></trkpt><trkpt lat="44.83751500622557" lon="8.017431546386774"><ele>207.66666666666669</ele><time>2026-04-19T11:50:53Z</time></trkpt><trkpt lat="44.83745139881209" lon="8.01750251794566"><ele>206.33333333333334</ele><time>2026-04-19T11:50:54Z</time></trkpt><trkpt lat="44.83737921249709" lon="8.017570338138036"><ele>205.0</ele><time>2026-04-19T11:50:55Z</time></trkpt><trkpt lat="44.83730111972331" lon="8.017638550881323"><ele>203.66666666666669</ele><time>2026-04-19T11:50:56Z</time></trkpt><trkpt lat="44.837228882008326" lon="8.017710558414333"><ele>202.33333333333334</ele><time>2026-04-19T11:50:57Z</time></trkpt><trkpt lat="44.83716000955542" lon="8.017791192459905"><ele>201.0</ele><time>2026-04-19T11:50:58Z</time></trkpt><trkpt lat="44.83709127468999" lon="8.01786392269522"><ele>201.0</ele><time>2026-04-19T11:50:59Z</time></trkpt><trkpt lat="44.83702821459366" lon="8.017944964967146"><ele>201.0</ele><time>2026-04-19T11:51:00Z</time></trkpt><trkpt lat="44.836964948226" lon="8.018026325893162"><ele>201.0</ele><time>2026-04-19T11:51:01Z</time></trkpt><trkpt lat="44.83690281814314" lon="8.018095611846784"><ele>201.0</ele><time>2026-04-19T11:51:02Z</time></trkpt><trkpt lat="44.83683750523106" lon="8.018153044372616"><ele>201.0</ele><time>2026-04-19T11:51:03Z</time></trkpt><trkpt lat="44.836776535565605" lon="8.018198286375577"><ele>201.0</ele><time>2026-04-19T11:51:04Z</time></trkpt><trkpt lat="44.836718218010446" lon="8.018232550876066"><ele>200.60000000000002</ele><time>2026-04-19T11:51:05Z</time></trkpt><trkpt lat="44.836614768772606" lon="8.018314051577297"><ele>200.2</ele><time>2026-04-19T11:51:07Z</time></trkpt><trkpt lat="44.836497587355815" lon="8.018403752390102"><ele>199.8</ele><time>2026-04-19T11:51:09Z</time></trkpt><trkpt lat="44.83642312747251" lon="8.018446757170484"><ele>199.39999999999998</ele><time>2026-04-19T11:51:10Z</time></trkpt><trkpt lat="44.836338821758616" lon="8.018482634663878"><ele>199.0</ele><time>2026-04-19T11:51:11Z</time></trkpt><trkpt lat="44.83625883580403" lon="8.018504364906214"><ele>198.85714285714283</ele><time>2026-04-19T11:51:12Z</time></trkpt><trkpt lat="44.83619147091212" lon="8.018520920008767"><ele>198.71428571428572</ele><time>2026-04-19T11:51:13Z</time></trkpt><trkpt lat="44.83612758331962" lon="8.018546608915035"><ele>198.57142857142856</ele><time>2026-04-19T11:51:16Z</time></trkpt><trkpt lat="44.836053842645896" lon="8.018586726824195"><ele>198.42857142857142</ele><time>2026-04-19T11:51:18Z</time></trkpt><trkpt lat="44.83595267256636" lon="8.018597474467475"><ele>198.28571428571428</ele><time>2026-04-19T11:51:20Z</time></trkpt><trkpt lat="44.835889327392245" lon="8.018597389043178"><ele>198.14285714285714</ele><time>2026-04-19T11:51:21Z</time></trkpt><trkpt lat="44.8358223231951" lon="8.018606796473872"><ele>198.0</ele><time>2026-04-19T11:51:22Z</time></trkpt><trkpt lat="44.83575112391214" lon="8.01862551621856"><ele>197.66666666666666</ele><time>2026-04-19T11:51:23Z</time></trkpt><trkpt lat="44.835676891238386" lon="8.018654861720627"><ele>197.33333333333331</ele><time>2026-04-19T11:51:24Z</time></trkpt><trkpt lat="44.83560106596067" lon="8.018696503139722"><ele>197.0</ele><time>2026-04-19T11:51:25Z</time></trkpt><trkpt lat="44.83552648144975" lon="8.01876302375628"><ele>196.66666666666666</ele><time>2026-04-19T11:51:26Z</time></trkpt><trkpt lat="44.8354600281973" lon="8.018849349611854"><ele>196.33333333333331</ele><time>2026-04-19T11:51:27Z</time></trkpt><trkpt lat="44.835404182032796" lon="8.018948511537022"><ele>196.0</ele><time>2026-04-19T11:51:28Z</time></trkpt><trkpt lat="44.83535748562423" lon="8.019047836610826"><ele>195.99999999999997</ele><time>2026-04-19T11:51:29Z</time></trkpt><trkpt lat="44.83530901510156" lon="8.01914149011731"><ele>196.0</ele><time>2026-04-19T11:51:30Z</time></trkpt><trkpt lat="44.83525192571519" lon="8.019236528220619"><ele>196.0</ele><time>2026-04-19T11:51:31Z</time></trkpt><trkpt lat="44.83519783708389" lon="8.019328328301256"><ele>196.0</ele><time>2026-04-19T11:51:32Z</time></trkpt><trkpt lat="44.83514265818541" lon="8.01942158834864"><ele>195.99999999999997</ele><time>2026-04-19T11:51:33Z</time></trkpt><trkpt lat="44.83509335998437" lon="8.01951260104232"><ele>196.0</ele><time>2026-04-19T11:51:34Z</time></trkpt><trkpt lat="44.83505324636751" lon="8.019606190848988"><ele>195.16666666666666</ele><time>2026-04-19T11:51:35Z</time></trkpt><trkpt lat="44.83501185019816" lon="8.019710842014346"><ele>194.33333333333331</ele><time>2026-04-19T11:51:36Z</time></trkpt><trkpt lat="44.834969694550665" lon="8.019809720284437"><ele>193.5</ele><time>2026-04-19T11:51:37Z</time></trkpt><trkpt lat="44.83492477314052" lon="8.01990987511913"><ele>192.66666666666666</ele><time>2026-04-19T11:51:38Z</time></trkpt><trkpt lat="44.834876572713725" lon="8.020016744398921"><ele>191.83333333333331</ele><time>2026-04-19T11:51:39Z</time></trkpt><trkpt lat="44.834828075815935" lon="8.02012478487553"><ele>191.0</ele><time>2026-04-19T11:51:40Z</time></trkpt><trkpt lat="44.834778773919865" lon="8.020235195204716"><ele>190.83333333333331</ele><time>2026-04-19T11:51:41Z</time></trkpt><trkpt lat="44.83472971392169" lon="8.020345562216953"><ele>190.66666666666666</ele><time>2026-04-19T11:51:42Z</time></trkpt><trkpt lat="44.8346828392074" lon="8.020454837773672"><ele>190.5</ele><time>2026-04-19T11:51:43Z</time></trkpt><trkpt lat="44.83463663366249" lon="8.020559466224341"><ele>190.33333333333334</ele><time>2026-04-19T11:51:44Z</time></trkpt><trkpt lat="44.83459419611952" lon="8.020657511283346"><ele>190.16666666666669</ele><time>2026-04-19T11:51:45Z</time></trkpt><trkpt lat="44.834563463770074" lon="8.020748741781016"><ele>190.0</ele><time>2026-04-19T11:51:46Z</time></trkpt><trkpt lat="44.834537316133066" lon="8.020864749372999"><ele>190.0</ele><time>2026-04-19T11:51:48Z</time></trkpt><trkpt lat="44.83464191893816" lon="8.020970329555826"><ele>190.0</ele><time>2026-04-19T11:55:22.999Z</time></trkpt><trkpt lat="44.834717372038845" lon="8.02098279542573"><ele>190.0</ele><time>2026-04-19T11:55:23.999Z</time></trkpt><trkpt lat="44.83479775383348" lon="8.021003178889309"><ele>190.0</ele><time>2026-04-19T11:55:24.999Z</time></trkpt><trkpt lat="44.834882745195" lon="8.021035709348094"><ele>190.0</ele><time>2026-04-19T11:55:25.999Z</time></trkpt><trkpt lat="44.83496761875008" lon="8.021088539447979"><ele>190.0</ele><time>2026-04-19T11:55:26.999Z</time></trkpt><trkpt lat="44.83504182573582" lon="8.021160538987212"><ele>190.0</ele><time>2026-04-19T11:55:27.999Z</time></trkpt><trkpt lat="44.835108010404795" lon="8.021250275368082"><ele>190.0</ele><time>2026-04-19T11:55:28.999Z</time></trkpt><trkpt lat="44.83517435820476" lon="8.021353623824076"><ele>190.0</ele><time>2026-04-19T11:55:29.999Z</time></trkpt><trkpt lat="44.8352407917937" lon="8.021460701391945"><ele>190.0</ele><time>2026-04-19T11:55:31Z</time></trkpt><trkpt lat="44.83529187265793" lon="8.021557767100186"><ele>191.16666666666669</ele><time>2026-04-19T11:55:32Z</time></trkpt><trkpt lat="44.83533944190553" lon="8.02164468769385"><ele>192.33333333333334</ele><time>2026-04-19T11:55:33Z</time></trkpt><trkpt lat="44.835382751583964" lon="8.02171825752134"><ele>193.5</ele><time>2026-04-19T11:55:34Z</time></trkpt><trkpt lat="44.83539181208774" lon="8.0218288537504"><ele>194.66666666666669</ele><time>2026-04-19T11:55:36Z</time></trkpt><trkpt lat="44.83529581294965" lon="8.021949996623837"><ele>195.83333333333334</ele><time>2026-04-19T11:55:38Z</time></trkpt><trkpt lat="44.83523223359412" lon="8.022037294166497"><ele>197.0</ele><time>2026-04-19T11:55:39Z</time></trkpt><trkpt lat="44.835171900131144" lon="8.022117458281688"><ele>197.0</ele><time>2026-04-19T11:55:40Z</time></trkpt><trkpt lat="44.83513922761993" lon="8.02220029389055"><ele>197.0</ele><time>2026-04-19T11:55:41Z</time></trkpt><trkpt lat="44.83516814315564" lon="8.022328588968115"><ele>197.0</ele><time>2026-04-19T11:55:43Z</time></trkpt><trkpt lat="44.835217829858586" lon="8.02241436101627"><ele>197.0</ele><time>2026-04-19T11:55:46Z</time></trkpt><trkpt lat="44.83528069172922" lon="8.022527673282301"><ele>197.0</ele><time>2026-04-19T11:55:48Z</time></trkpt><trkpt lat="44.835358556264545" lon="8.02265538736185"><ele>196.00000000000003</ele><time>2026-04-19T11:55:50Z</time></trkpt><trkpt lat="44.835400257351964" lon="8.022736074198791"><ele>195.0</ele><time>2026-04-19T11:55:51Z</time></trkpt><trkpt lat="44.835439747183266" lon="8.022815818488615"><ele>194.0</ele><time>2026-04-19T11:55:52Z</time></trkpt><trkpt lat="44.835484954020735" lon="8.022900155357512"><ele>193.0</ele><time>2026-04-19T11:55:53Z</time></trkpt><trkpt lat="44.83554831316672" lon="8.023024974509243"><ele>192.0</ele><time>2026-04-19T11:55:55Z</time></trkpt><trkpt lat="44.835584424995055" lon="8.023104619632608"><ele>191.0</ele><time>2026-04-19T11:55:56Z</time></trkpt><trkpt lat="44.83562534941433" lon="8.023203687883752"><ele>191.0</ele><time>2026-04-19T11:55:57Z</time></trkpt><trkpt lat="44.83565256084051" lon="8.02329359216959"><ele>191.0</ele><time>2026-04-19T11:55:58Z</time></trkpt><trkpt lat="44.83566754923298" lon="8.023385326152551"><ele>191.0</ele><time>2026-04-19T11:55:59Z</time></trkpt><trkpt lat="44.83568019762822" lon="8.023499449505202"><ele>191.0</ele><time>2026-04-19T11:56:00Z</time></trkpt><trkpt lat="44.83568822339998" lon="8.023636543286823"><ele>191.0</ele><time>2026-04-19T11:56:01Z</time></trkpt><trkpt lat="44.83568760902103" lon="8.023765735537026"><ele>191.0</ele><time>2026-04-19T11:56:02Z</time></trkpt><trkpt lat="44.83566862017462" lon="8.023889184423089"><ele>190.16666666666666</ele><time>2026-04-19T11:56:03Z</time></trkpt><trkpt lat="44.83563383499981" lon="8.024012874214984"><ele>189.33333333333331</ele><time>2026-04-19T11:56:04Z</time></trkpt><trkpt lat="44.83559687993844" lon="8.024134967197718"><ele>188.5</ele><time>2026-04-19T11:56:05Z</time></trkpt><trkpt lat="44.8355641120593" lon="8.024240526956232"><ele>187.66666666666666</ele><time>2026-04-19T11:56:06Z</time></trkpt><trkpt lat="44.83552979309193" lon="8.024325361766415"><ele>186.83333333333334</ele><time>2026-04-19T11:56:07Z</time></trkpt><trkpt lat="44.83547775884822" lon="8.024382197913754"><ele>186.0</ele><time>2026-04-19T11:56:08Z</time></trkpt><trkpt lat="44.835413209450586" lon="8.024422172611676"><ele>186.0</ele><time>2026-04-19T11:56:09Z</time></trkpt><trkpt lat="44.8353433300159" lon="8.024482342264246"><ele>186.0</ele><time>2026-04-19T11:56:10Z</time></trkpt><trkpt lat="44.83527344065814" lon="8.024565760325029"><ele>186.0</ele><time>2026-04-19T11:56:11Z</time></trkpt><trkpt lat="44.83521114642593" lon="8.024648082005758"><ele>186.0</ele><time>2026-04-19T11:56:12Z</time></trkpt><trkpt lat="44.83514830025541" lon="8.024739400561032"><ele>186.0</ele><time>2026-04-19T11:56:13Z</time></trkpt><trkpt lat="44.835083584024375" lon="8.0248364481744"><ele>186.0</ele><time>2026-04-19T11:56:14Z</time></trkpt><trkpt lat="44.83501811590869" lon="8.024931349018622"><ele>186.4</ele><time>2026-04-19T11:56:15Z</time></trkpt><trkpt lat="44.83495729754126" lon="8.025024895095376"><ele>186.8</ele><time>2026-04-19T11:56:16Z</time></trkpt><trkpt lat="44.83489758023041" lon="8.025119702839987"><ele>187.20000000000002</ele><time>2026-04-19T11:56:17Z</time></trkpt><trkpt lat="44.83483421385993" lon="8.025211302490897"><ele>187.60000000000002</ele><time>2026-04-19T11:56:18Z</time></trkpt><trkpt lat="44.83475924489624" lon="8.025291104095285"><ele>188.0</ele><time>2026-04-19T11:56:19Z</time></trkpt><trkpt lat="44.83468437632241" lon="8.025361142821584"><ele>188.0</ele><time>2026-04-19T11:56:20Z</time></trkpt><trkpt lat="44.83461812231754" lon="8.02544055445502"><ele>188.0</ele><time>2026-04-19T11:56:21Z</time></trkpt><trkpt lat="44.83455806555901" lon="8.025510732244788"><ele>188.0</ele><time>2026-04-19T11:56:22Z</time></trkpt><trkpt lat="44.83450415609961" lon="8.02559602532407"><ele>188.0</ele><time>2026-04-19T11:56:23Z</time></trkpt><trkpt lat="44.83444483298673" lon="8.025665173772003"><ele>188.0</ele><time>2026-04-19T11:56:24Z</time></trkpt><trkpt lat="44.834385475328716" lon="8.02571846229469"><ele>188.0</ele><time>2026-04-19T11:56:25Z</time></trkpt><trkpt lat="44.834328008572" lon="8.025771923429605"><ele>189.28571428571428</ele><time>2026-04-19T11:56:26Z</time></trkpt><trkpt lat="44.83427655037535" lon="8.025845887362529"><ele>190.57142857142856</ele><time>2026-04-19T11:56:27Z</time></trkpt><trkpt lat="44.83422534415694" lon="8.025902212344542"><ele>191.85714285714286</ele><time>2026-04-19T11:56:28Z</time></trkpt><trkpt lat="44.83415804884168" lon="8.025948566906132"><ele>193.14285714285714</ele><time>2026-04-19T11:56:29Z</time></trkpt><trkpt lat="44.83408207027499" lon="8.026001209601112"><ele>194.42857142857144</ele><time>2026-04-19T11:56:30Z</time></trkpt><trkpt lat="44.834016757694414" lon="8.026057547330264"><ele>195.71428571428572</ele><time>2026-04-19T11:56:31Z</time></trkpt><trkpt lat="44.83394694153172" lon="8.026095447996603"><ele>197.0</ele><time>2026-04-19T11:56:32Z</time></trkpt><trkpt lat="44.83387542453765" lon="8.026145005113614"><ele>197.00000000000003</ele><time>2026-04-19T11:56:33Z</time></trkpt><trkpt lat="44.83379691267101" lon="8.026191344199153"><ele>197.0</ele><time>2026-04-19T11:56:34Z</time></trkpt><trkpt lat="44.83372495099459" lon="8.026247334363362"><ele>197.0</ele><time>2026-04-19T11:56:35Z</time></trkpt><trkpt lat="44.8336589349931" lon="8.026292385246782"><ele>197.0</ele><time>2026-04-19T11:56:36Z</time></trkpt><trkpt lat="44.833585622743655" lon="8.026320943534577"><ele>197.00000000000003</ele><time>2026-04-19T11:56:37Z</time></trkpt><trkpt lat="44.83350923615247" lon="8.026358177693043"><ele>197.0</ele><time>2026-04-19T11:56:38Z</time></trkpt><trkpt lat="44.83343184761228" lon="8.026397442930106"><ele>197.50000000000003</ele><time>2026-04-19T11:56:39Z</time></trkpt><trkpt lat="44.83335106185229" lon="8.026436496292078"><ele>198.0</ele><time>2026-04-19T11:56:40Z</time></trkpt><trkpt lat="44.83328900611602" lon="8.026477893986094"><ele>198.5</ele><time>2026-04-19T11:56:41Z</time></trkpt><trkpt lat="44.83319592751653" lon="8.026524926053925"><ele>199.0</ele><time>2026-04-19T11:56:42Z</time></trkpt><trkpt lat="44.833106690208" lon="8.026565513889025"><ele>199.50000000000003</ele><time>2026-04-19T11:56:43Z</time></trkpt><trkpt lat="44.83301996068902" lon="8.026614388018574"><ele>200.0</ele><time>2026-04-19T11:56:44Z</time></trkpt><trkpt lat="44.8329480928057" lon="8.02664865430248"><ele>200.33333333333334</ele><time>2026-04-19T11:56:45Z</time></trkpt><trkpt lat="44.832873354447294" lon="8.026698544330689"><ele>200.66666666666669</ele><time>2026-04-19T11:56:46Z</time></trkpt><trkpt lat="44.832808754511056" lon="8.026753238856832"><ele>201.0</ele><time>2026-04-19T11:56:47Z</time></trkpt><trkpt lat="44.83274250577942" lon="8.026821855743858"><ele>201.33333333333331</ele><time>2026-04-19T11:56:48Z</time></trkpt><trkpt lat="44.83269837502574" lon="8.02690244957034"><ele>201.66666666666666</ele><time>2026-04-19T11:56:49Z</time></trkpt><trkpt lat="44.83267445043702" lon="8.027021764135478"><ele>202.0</ele><time>2026-04-19T11:56:50Z</time></trkpt><trkpt lat="44.83265435226525" lon="8.027165303478975"><ele>203.8</ele><time>2026-04-19T11:56:51Z</time></trkpt><trkpt lat="44.83262695753225" lon="8.027312691577709"><ele>205.6</ele><time>2026-04-19T11:56:52Z</time></trkpt><trkpt lat="44.832616672246864" lon="8.027463394743998"><ele>207.4</ele><time>2026-04-19T11:56:53Z</time></trkpt><trkpt lat="44.83262238513216" lon="8.027601851512834"><ele>209.20000000000002</ele><time>2026-04-19T11:56:54Z</time></trkpt><trkpt lat="44.83260568197277" lon="8.027747960960115"><ele>211.0</ele><time>2026-04-19T11:56:56Z</time></trkpt><trkpt lat="44.83251933033842" lon="8.027745885997186"><ele>211.0</ele><time>2026-04-19T11:56:58Z</time></trkpt><trkpt lat="44.83244927284611" lon="8.027670603443063"><ele>211.0</ele><time>2026-04-19T11:57:00Z</time></trkpt><trkpt lat="44.83238438645534" lon="8.027632229081227"><ele>211.0</ele><time>2026-04-19T11:57:02Z</time></trkpt><trkpt lat="44.832285056283105" lon="8.027535392626733"><ele>211.0</ele><time>2026-04-19T11:57:04Z</time></trkpt><trkpt lat="44.83221884365394" lon="8.027462805018553"><ele>211.0</ele><time>2026-04-19T11:57:05Z</time></trkpt><trkpt lat="44.832140132340456" lon="8.027383341055506"><ele>210.99999999999997</ele><time>2026-04-19T11:57:06Z</time></trkpt><trkpt lat="44.83206164534088" lon="8.027317396523921"><ele>211.0</ele><time>2026-04-19T11:57:07Z</time></trkpt><trkpt lat="44.83197891318458" lon="8.027284236901776"><ele>211.0</ele><time>2026-04-19T11:57:08Z</time></trkpt><trkpt lat="44.831893071575415" lon="8.027266845916072"><ele>211.0</ele><time>2026-04-19T11:57:09Z</time></trkpt><trkpt lat="44.83181417382658" lon="8.027271328404057"><ele>210.99999999999997</ele><time>2026-04-19T11:57:10Z</time></trkpt><trkpt lat="44.831743545656145" lon="8.027263760588497"><ele>211.0</ele><time>2026-04-19T11:57:11Z</time></trkpt><trkpt lat="44.83167780220027" lon="8.027230031175055"><ele>213.49999999999997</ele><time>2026-04-19T11:57:12Z</time></trkpt><trkpt lat="44.831632969100816" lon="8.027155079219595"><ele>216.0</ele><time>2026-04-19T11:57:13Z</time></trkpt><trkpt lat="44.8316043991812" lon="8.027048997177133"><ele>218.5</ele><time>2026-04-19T11:57:14Z</time></trkpt><trkpt lat="44.83157222172768" lon="8.026942080330642"><ele>221.0</ele><time>2026-04-19T11:57:15Z</time></trkpt><trkpt lat="44.83151994729853" lon="8.02686017333974"><ele>223.49999999999997</ele><time>2026-04-19T11:57:16Z</time></trkpt><trkpt lat="44.83145344705657" lon="8.026784791490476"><ele>226.0</ele><time>2026-04-19T11:57:17Z</time></trkpt><trkpt lat="44.83137330138106" lon="8.026719537870422"><ele>226.0</ele><time>2026-04-19T11:57:18Z</time></trkpt><trkpt lat="44.83130032094183" lon="8.026649243724618"><ele>226.00000000000003</ele><time>2026-04-19T11:57:19Z</time></trkpt><trkpt lat="44.831226576952766" lon="8.026580447883768"><ele>226.00000000000003</ele><time>2026-04-19T11:57:20Z</time></trkpt><trkpt lat="44.83115365977946" lon="8.026504980103617"><ele>226.0</ele><time>2026-04-19T11:57:21Z</time></trkpt><trkpt lat="44.83107761032764" lon="8.026430830391055"><ele>226.0</ele><time>2026-04-19T11:57:22Z</time></trkpt><trkpt lat="44.83100336872969" lon="8.026357977054325"><ele>228.20000000000002</ele><time>2026-04-19T11:57:23Z</time></trkpt><trkpt lat="44.830933463165245" lon="8.026282508741087"><ele>230.40000000000003</ele><time>2026-04-19T11:57:24Z</time></trkpt><trkpt lat="44.83086108471797" lon="8.026205444157318"><ele>232.6</ele><time>2026-04-19T11:57:25Z</time></trkpt><trkpt lat="44.83078674203514" lon="8.026128727544483"><ele>234.8</ele><time>2026-04-19T11:57:26Z</time></trkpt><trkpt lat="44.83070961590647" lon="8.02605184618983"><ele>237.0</ele><time>2026-04-19T11:57:27Z</time></trkpt><trkpt lat="44.830634004012694" lon="8.025986337275762"><ele>237.0</ele><time>2026-04-19T11:57:28Z</time></trkpt><trkpt lat="44.83055351312955" lon="8.025935464809416"><ele>237.0</ele><time>2026-04-19T11:57:29Z</time></trkpt><trkpt lat="44.83046482989977" lon="8.025894140059608"><ele>237.0</ele><time>2026-04-19T11:57:30Z</time></trkpt><trkpt lat="44.83036962324742" lon="8.025864256671554"><ele>237.0</ele><time>2026-04-19T11:57:31Z</time></trkpt><trkpt lat="44.830281122259464" lon="8.025837260826188"><ele>237.0</ele><time>2026-04-19T11:57:32Z</time></trkpt><trkpt lat="44.83019103510902" lon="8.025816888817419"><ele>236.0</ele><time>2026-04-19T11:57:33Z</time></trkpt><trkpt lat="44.83010906909512" lon="8.025805078097305"><ele>235.0</ele><time>2026-04-19T11:57:34Z</time></trkpt><trkpt lat="44.83003987012123" lon="8.025792284426947"><ele>234.0</ele><time>2026-04-19T11:57:35Z</time></trkpt><trkpt lat="44.82991138713437" lon="8.025747624848757"><ele>233.0</ele><time>2026-04-19T11:57:37Z</time></trkpt><trkpt lat="44.82980881205137" lon="8.025722573930784"><ele>232.0</ele><time>2026-04-19T11:57:38Z</time></trkpt><trkpt lat="44.82968669948538" lon="8.025682837242089"><ele>232.0</ele><time>2026-04-19T11:57:39Z</time></trkpt><trkpt lat="44.82956129506544" lon="8.025623606780508"><ele>232.0</ele><time>2026-04-19T11:57:40Z</time></trkpt><trkpt lat="44.82945411412578" lon="8.02556692812305"><ele>232.0</ele><time>2026-04-19T11:57:41Z</time></trkpt><trkpt lat="44.8293622019703" lon="8.02551901135463"><ele>232.0</ele><time>2026-04-19T11:57:42Z</time></trkpt><trkpt lat="44.82926199647558" lon="8.025474817019484"><ele>231.75</ele><time>2026-04-19T11:57:43Z</time></trkpt><trkpt lat="44.82915010819765" lon="8.025435269635905"><ele>231.5</ele><time>2026-04-19T11:57:44Z</time></trkpt><trkpt lat="44.829036854245594" lon="8.025409747702495"><ele>231.25</ele><time>2026-04-19T11:57:45Z</time></trkpt><trkpt lat="44.8289238219802" lon="8.025402264340892"><ele>231.0</ele><time>2026-04-19T11:57:46Z</time></trkpt><trkpt lat="44.828804124537704" lon="8.02538527554235"><ele>231.0</ele><time>2026-04-19T11:57:47Z</time></trkpt><trkpt lat="44.82868429342405" lon="8.025369531011652"><ele>231.0</ele><time>2026-04-19T11:57:48Z</time></trkpt><trkpt lat="44.82855997450558" lon="8.025365774144804"><ele>231.0</ele><time>2026-04-19T11:57:49Z</time></trkpt><trkpt lat="44.828432065655804" lon="8.025372604928695"><ele>231.0</ele><time>2026-04-19T11:57:50Z</time></trkpt><trkpt lat="44.828310234613056" lon="8.025383569076016"><ele>231.83333333333334</ele><time>2026-04-19T11:57:51Z</time></trkpt><trkpt lat="44.82820978152173" lon="8.02539428371754"><ele>232.66666666666669</ele><time>2026-04-19T11:57:52Z</time></trkpt><trkpt lat="44.82812720710805" lon="8.025415198233325"><ele>233.5</ele><time>2026-04-19T11:57:53Z</time></trkpt><trkpt lat="44.828053126756" lon="8.025445957222074"><ele>234.33333333333334</ele><time>2026-04-19T11:57:54Z</time></trkpt><trkpt lat="44.82798115287809" lon="8.025498555703853"><ele>235.16666666666669</ele><time>2026-04-19T11:57:55Z</time></trkpt><trkpt lat="44.827915412905334" lon="8.02556142076593"><ele>236.0</ele><time>2026-04-19T11:57:56Z</time></trkpt><trkpt lat="44.82784542351833" lon="8.025636049553063"><ele>236.0</ele><time>2026-04-19T11:57:57Z</time></trkpt><trkpt lat="44.82777451396544" lon="8.02572732024591"><ele>236.00000000000003</ele><time>2026-04-19T11:57:58Z</time></trkpt><trkpt lat="44.82770601522204" lon="8.025824795478394"><ele>236.00000000000003</ele><time>2026-04-19T11:57:59Z</time></trkpt><trkpt lat="44.827643179561306" lon="8.025911074830892"><ele>236.0</ele><time>2026-04-19T11:58:00Z</time></trkpt><trkpt lat="44.827580862918445" lon="8.025994235042393"><ele>236.0</ele><time>2026-04-19T11:58:01Z</time></trkpt><trkpt lat="44.827510624781084" lon="8.026086842077985"><ele>237.83333333333334</ele><time>2026-04-19T11:58:02Z</time></trkpt><trkpt lat="44.827437476672216" lon="8.026178947324786"><ele>239.66666666666669</ele><time>2026-04-19T11:58:03Z</time></trkpt><trkpt lat="44.82738084662715" lon="8.026261978696832"><ele>241.5</ele><time>2026-04-19T11:58:04Z</time></trkpt><trkpt lat="44.82734917629452" lon="8.026339286712808"><ele>243.33333333333331</ele><time>2026-04-19T11:58:05Z</time></trkpt><trkpt lat="44.827275361321895" lon="8.026389437177162"><ele>245.16666666666666</ele><time>2026-04-19T11:58:07Z</time></trkpt><trkpt lat="44.82721108490347" lon="8.026362390917699"><ele>247.0</ele><time>2026-04-19T11:58:08Z</time></trkpt><trkpt lat="44.8271326434539" lon="8.026332227973082"><ele>247.0</ele><time>2026-04-19T11:58:09Z</time></trkpt><trkpt lat="44.82704648174608" lon="8.026307061247305"><ele>247.0</ele><time>2026-04-19T11:58:10Z</time></trkpt><trkpt lat="44.82695148363903" lon="8.026274950746803"><ele>247.0</ele><time>2026-04-19T11:58:11Z</time></trkpt><trkpt lat="44.82685781565364" lon="8.02624166763834"><ele>247.0</ele><time>2026-04-19T11:58:12Z</time></trkpt><trkpt lat="44.8267593131695" lon="8.026203259266456"><ele>247.0</ele><time>2026-04-19T11:58:13Z</time></trkpt><trkpt lat="44.82666474305882" lon="8.026160144869507"><ele>246.6</ele><time>2026-04-19T11:58:14Z</time></trkpt><trkpt lat="44.826569440448196" lon="8.026116112187925"><ele>246.2</ele><time>2026-04-19T11:58:15Z</time></trkpt><trkpt lat="44.826470633406416" lon="8.026070276164292"><ele>245.8</ele><time>2026-04-19T11:58:16Z</time></trkpt><trkpt lat="44.826362815733674" lon="8.02601274677584"><ele>245.4</ele><time>2026-04-19T11:58:17Z</time></trkpt><trkpt lat="44.82624193100835" lon="8.0259489093921"><ele>245.0</ele><time>2026-04-19T11:58:18Z</time></trkpt><trkpt lat="44.82612972897835" lon="8.025894361846255"><ele>245.0</ele><time>2026-04-19T11:58:19Z</time></trkpt><trkpt lat="44.82603149477426" lon="8.025847621411566"><ele>245.0</ele><time>2026-04-19T11:58:20Z</time></trkpt><trkpt lat="44.82593722511568" lon="8.025798320071589"><ele>245.0</ele><time>2026-04-19T11:58:21Z</time></trkpt><trkpt lat="44.825845924851706" lon="8.025746390848287"><ele>245.0</ele><time>2026-04-19T11:58:22Z</time></trkpt><trkpt lat="44.825760242371075" lon="8.025684770899428"><ele>245.0</ele><time>2026-04-19T11:58:23Z</time></trkpt><trkpt lat="44.82567910857804" lon="8.025612423320862"><ele>244.2</ele><time>2026-04-19T11:58:24Z</time></trkpt><trkpt lat="44.82559824996436" lon="8.025535601656198"><ele>243.4</ele><time>2026-04-19T11:58:25Z</time></trkpt><trkpt lat="44.82551386490316" lon="8.025458782337218"><ele>242.60000000000002</ele><time>2026-04-19T11:58:26Z</time></trkpt><trkpt lat="44.825424122224874" lon="8.025383224686625"><ele>241.8</ele><time>2026-04-19T11:58:27Z</time></trkpt><trkpt lat="44.825332430333106" lon="8.025306642935181"><ele>241.0</ele><time>2026-04-19T11:58:28Z</time></trkpt><trkpt lat="44.825250205866055" lon="8.025231911753034"><ele>240.99999999999997</ele><time>2026-04-19T11:58:29Z</time></trkpt><trkpt lat="44.825180376077675" lon="8.025161352249826"><ele>241.0</ele><time>2026-04-19T11:58:30Z</time></trkpt><trkpt lat="44.82511679070381" lon="8.025084223774515"><ele>241.0</ele><time>2026-04-19T11:58:31Z</time></trkpt><trkpt lat="44.825051597176916" lon="8.025000816691296"><ele>241.0</ele><time>2026-04-19T11:58:32Z</time></trkpt><trkpt lat="44.824980550142435" lon="8.024923342067392"><ele>240.99999999999997</ele><time>2026-04-19T11:58:33Z</time></trkpt><trkpt lat="44.824911528419676" lon="8.024848174069591"><ele>241.0</ele><time>2026-04-19T11:58:34Z</time></trkpt><trkpt lat="44.82484244372309" lon="8.02476369429587"><ele>243.8</ele><time>2026-04-19T11:58:35Z</time></trkpt><trkpt lat="44.82476887304516" lon="8.024676588835137"><ele>246.60000000000002</ele><time>2026-04-19T11:58:36Z</time></trkpt><trkpt lat="44.82468803027256" lon="8.02458998137036"><ele>249.4</ele><time>2026-04-19T11:58:37Z</time></trkpt><trkpt lat="44.824601615721335" lon="8.024495012550943"><ele>252.2</ele><time>2026-04-19T11:58:38Z</time></trkpt><trkpt lat="44.824514639778755" lon="8.024398308840142"><ele>255.0</ele><time>2026-04-19T11:58:39Z</time></trkpt><trkpt lat="44.82443143610203" lon="8.024309259926815"><ele>255.0</ele><time>2026-04-19T11:58:40Z</time></trkpt><trkpt lat="44.8243462008944" lon="8.02421273326991"><ele>255.0</ele><time>2026-04-19T11:58:41Z</time></trkpt><trkpt lat="44.824259506230604" lon="8.024114971124842"><ele>255.0</ele><time>2026-04-19T11:58:42Z</time></trkpt><trkpt lat="44.82417192079671" lon="8.024022638309432"><ele>255.0</ele><time>2026-04-19T11:58:43Z</time></trkpt><trkpt lat="44.8240840197787" lon="8.02392797586338"><ele>255.0</ele><time>2026-04-19T11:58:44Z</time></trkpt><trkpt lat="44.82400084828867" lon="8.023837154428305"><ele>257.4</ele><time>2026-04-19T11:58:45Z</time></trkpt><trkpt lat="44.82391484196441" lon="8.023749650191998"><ele>259.8</ele><time>2026-04-19T11:58:46Z</time></trkpt><trkpt lat="44.82382761292134" lon="8.023658843242721"><ele>262.2</ele><time>2026-04-19T11:58:47Z</time></trkpt><trkpt lat="44.82374644471044" lon="8.023588498359093"><ele>264.6</ele><time>2026-04-19T11:58:48Z</time></trkpt><trkpt lat="44.82367730506651" lon="8.023526793656595"><ele>267.0</ele><time>2026-04-19T11:58:49Z</time></trkpt><trkpt lat="44.823616844475794" lon="8.023459141405704"><ele>267.0</ele><time>2026-04-19T11:58:50Z</time></trkpt><trkpt lat="44.82355517470419" lon="8.023391090581631"><ele>267.0</ele><time>2026-04-19T11:58:51Z</time></trkpt><trkpt lat="44.823481995709685" lon="8.023306087325132"><ele>267.0</ele><time>2026-04-19T11:58:52Z</time></trkpt><trkpt lat="44.82341497470544" lon="8.023204339964673"><ele>267.0</ele><time>2026-04-19T11:58:53Z</time></trkpt><trkpt lat="44.823361650918045" lon="8.023108224958028"><ele>267.0</ele><time>2026-04-19T11:58:54Z</time></trkpt><trkpt lat="44.82330667326598" lon="8.023022924124374"><ele>267.0</ele><time>2026-04-19T11:58:55Z</time></trkpt><trkpt lat="44.8232430229327" lon="8.022938452935138"><ele>266.6</ele><time>2026-04-19T11:58:56Z</time></trkpt><trkpt lat="44.82317931269952" lon="8.02285756625852"><ele>266.2</ele><time>2026-04-19T11:58:57Z</time></trkpt><trkpt lat="44.8231147520133" lon="8.022772516580838"><ele>265.8</ele><time>2026-04-19T11:58:58Z</time></trkpt><trkpt lat="44.82304503285633" lon="8.022677242980047"><ele>265.4</ele><time>2026-04-19T11:58:59Z</time></trkpt><trkpt lat="44.82296893555682" lon="8.022581768467571"><ele>265.0</ele><time>2026-04-19T11:59:00Z</time></trkpt><trkpt lat="44.82288999514539" lon="8.022471769938383"><ele>265.0</ele><time>2026-04-19T11:59:01Z</time></trkpt><trkpt lat="44.82281269554756" lon="8.022360157877731"><ele>265.0</ele><time>2026-04-19T11:59:02Z</time></trkpt><trkpt lat="44.82273526956091" lon="8.022243574384943"><ele>265.0</ele><time>2026-04-19T11:59:03Z</time></trkpt><trkpt lat="44.822652256659865" lon="8.022135166323492"><ele>265.0</ele><time>2026-04-19T11:59:04Z</time></trkpt><trkpt lat="44.82256164694385" lon="8.022031553638366"><ele>267.6</ele><time>2026-04-19T11:59:05Z</time></trkpt><trkpt lat="44.822478774493" lon="8.021921121835945"><ele>270.2</ele><time>2026-04-19T11:59:06Z</time></trkpt><trkpt lat="44.82240951382116" lon="8.021800254145452"><ele>272.8</ele><time>2026-04-19T11:59:07Z</time></trkpt><trkpt lat="44.82235271480223" lon="8.021678000688366"><ele>275.4</ele><time>2026-04-19T11:59:08Z</time></trkpt><trkpt lat="44.82229958604752" lon="8.021533457264889"><ele>278.0</ele><time>2026-04-19T11:59:09Z</time></trkpt><trkpt lat="44.82223503657394" lon="8.021382642083463"><ele>281.0</ele><time>2026-04-19T11:59:10Z</time></trkpt><trkpt lat="44.82215304631599" lon="8.021241238774582"><ele>284.0</ele><time>2026-04-19T11:59:11Z</time></trkpt><trkpt lat="44.82206659447257" lon="8.021117856732245"><ele>287.0</ele><time>2026-04-19T11:59:12Z</time></trkpt><trkpt lat="44.82197134634266" lon="8.02101418300267"><ele>290.0</ele><time>2026-04-19T11:59:13Z</time></trkpt><trkpt lat="44.82186641274926" lon="8.020945177749681"><ele>289.0</ele><time>2026-04-19T11:59:14Z</time></trkpt><trkpt lat="44.82176681869313" lon="8.020865765903112"><ele>288.0</ele><time>2026-04-19T11:59:15Z</time></trkpt><trkpt lat="44.82167480721042" lon="8.02078333787117"><ele>287.0</ele><time>2026-04-19T11:59:16Z</time></trkpt><trkpt lat="44.8215812380048" lon="8.020699077788567"><ele>286.0</ele><time>2026-04-19T11:59:17Z</time></trkpt><trkpt lat="44.82149332416269" lon="8.020629485853153"><ele>285.0</ele><time>2026-04-19T11:59:18Z</time></trkpt><trkpt lat="44.82140668527322" lon="8.020574009916587"><ele>285.0</ele><time>2026-04-19T11:59:19Z</time></trkpt><trkpt lat="44.82131618403991" lon="8.020532225069202"><ele>285.0</ele><time>2026-04-19T11:59:20Z</time></trkpt><trkpt lat="44.82123079901428" lon="8.020456275255272"><ele>285.0</ele><time>2026-04-19T11:59:21Z</time></trkpt><trkpt lat="44.82113497164718" lon="8.020396879431587"><ele>285.0</ele><time>2026-04-19T11:59:22Z</time></trkpt><trkpt lat="44.821037085369994" lon="8.02033390860069"><ele>285.0</ele><time>2026-04-19T11:59:23Z</time></trkpt><trkpt lat="44.82094086755807" lon="8.020257096740554"><ele>282.8</ele><time>2026-04-19T11:59:24Z</time></trkpt><trkpt lat="44.8208528209366" lon="8.020160984209884"><ele>280.6</ele><time>2026-04-19T11:59:25Z</time></trkpt><trkpt lat="44.82078199115051" lon="8.020058540278557"><ele>278.4</ele><time>2026-04-19T11:59:26Z</time></trkpt><trkpt lat="44.820685443324265" lon="8.02000863474428"><ele>276.2</ele><time>2026-04-19T11:59:28Z</time></trkpt><trkpt lat="44.82061011051783" lon="8.020061341310317"><ele>274.0</ele><time>2026-04-19T11:59:29Z</time></trkpt><trkpt lat="44.820519230468356" lon="8.02008708001427"><ele>274.0</ele><time>2026-04-19T11:59:30Z</time></trkpt><trkpt lat="44.82041269562458" lon="8.020086320926868"><ele>274.0</ele><time>2026-04-19T11:59:31Z</time></trkpt><trkpt lat="44.820299702499234" lon="8.02009085445506"><ele>274.0</ele><time>2026-04-19T11:59:32Z</time></trkpt><trkpt lat="44.82018342879066" lon="8.020102128518422"><ele>274.0</ele><time>2026-04-19T11:59:33Z</time></trkpt><trkpt lat="44.82007802821913" lon="8.020114536772777"><ele>274.0</ele><time>2026-04-19T11:59:34Z</time></trkpt><trkpt lat="44.81997817359075" lon="8.020116482084234"><ele>274.0</ele><time>2026-04-19T11:59:35Z</time></trkpt><trkpt lat="44.81987201591088" lon="8.02011043990877"><ele>274.0</ele><time>2026-04-19T11:59:36Z</time></trkpt><trkpt lat="44.819772697560886" lon="8.020107556099935"><ele>274.0</ele><time>2026-04-19T11:59:37Z</time></trkpt><trkpt lat="44.81967727687023" lon="8.02011261219693"><ele>274.0</ele><time>2026-04-19T11:59:38Z</time></trkpt><trkpt lat="44.81957946008518" lon="8.020116913410439"><ele>274.0</ele><time>2026-04-19T11:59:39Z</time></trkpt><trkpt lat="44.819481804815986" lon="8.020106932264127"><ele>274.0</ele><time>2026-04-19T11:59:40Z</time></trkpt><trkpt lat="44.819386630778645" lon="8.020079738537186"><ele>274.0</ele><time>2026-04-19T11:59:41Z</time></trkpt><trkpt lat="44.81929655571495" lon="8.020039265176887"><ele>274.0</ele><time>2026-04-19T11:59:42Z</time></trkpt><trkpt lat="44.819198725405066" lon="8.020000764627804"><ele>274.0</ele><time>2026-04-19T11:59:43Z</time></trkpt><trkpt lat="44.819109792725015" lon="8.019956494997388"><ele>274.0</ele><time>2026-04-19T11:59:44Z</time></trkpt><trkpt lat="44.81902443131948" lon="8.01989984466554"><ele>273.8</ele><time>2026-04-19T11:59:45Z</time></trkpt><trkpt lat="44.81893618558512" lon="8.019827399197768"><ele>273.59999999999997</ele><time>2026-04-19T11:59:46Z</time></trkpt><trkpt lat="44.81884099561037" lon="8.01975946212977"><ele>273.4</ele><time>2026-04-19T11:59:47Z</time></trkpt><trkpt lat="44.818732237985785" lon="8.019689433676632"><ele>273.2</ele><time>2026-04-19T11:59:48Z</time></trkpt><trkpt lat="44.81863852615341" lon="8.019631537340498"><ele>273.0</ele><time>2026-04-19T11:59:49Z</time></trkpt><trkpt lat="44.81855265954314" lon="8.019576763136042"><ele>273.0</ele><time>2026-04-19T11:59:50Z</time></trkpt><trkpt lat="44.81847425068387" lon="8.019530678620383"><ele>273.0</ele><time>2026-04-19T11:59:51Z</time></trkpt><trkpt lat="44.81838369050587" lon="8.019478279904233"><ele>273.0</ele><time>2026-04-19T11:59:52Z</time></trkpt><trkpt lat="44.81829572871637" lon="8.019425779564287"><ele>273.0</ele><time>2026-04-19T11:59:53Z</time></trkpt><trkpt lat="44.81820524405551" lon="8.019394092093146"><ele>273.0</ele><time>2026-04-19T11:59:54Z</time></trkpt><trkpt lat="44.818111116836725" lon="8.019387744611974"><ele>273.0</ele><time>2026-04-19T11:59:55Z</time></trkpt><trkpt lat="44.81801622223265" lon="8.019398323863784"><ele>273.0</ele><time>2026-04-19T11:59:56Z</time></trkpt><trkpt lat="44.817918649587526" lon="8.019420025509243"><ele>273.0</ele><time>2026-04-19T11:59:57Z</time></trkpt><trkpt lat="44.81781765514354" lon="8.01946635920432"><ele>273.0</ele><time>2026-04-19T11:59:58Z</time></trkpt><trkpt lat="44.81773045590054" lon="8.019503879407628"><ele>273.0</ele><time>2026-04-19T11:59:59Z</time></trkpt><trkpt lat="44.81766761220149" lon="8.019526336311797"><ele>273.5</ele><time>2026-04-19T12:00:00Z</time></trkpt><trkpt lat="44.81760086959354" lon="8.01955366381241"><ele>274.0</ele><time>2026-04-19T12:00:01Z</time></trkpt><trkpt lat="44.81752593071116" lon="8.019598267683039"><ele>274.5</ele><time>2026-04-19T12:00:02Z</time></trkpt><trkpt lat="44.817446392907314" lon="8.019659903647643"><ele>275.0</ele><time>2026-04-19T12:00:03Z</time></trkpt><trkpt lat="44.817384421541725" lon="8.01972765239009"><ele>275.5</ele><time>2026-04-19T12:00:04Z</time></trkpt><trkpt lat="44.817336832920745" lon="8.019821079678511"><ele>276.0</ele><time>2026-04-19T12:00:05Z</time></trkpt><trkpt lat="44.81730475473086" lon="8.019934630531298"><ele>276.8333333333333</ele><time>2026-04-19T12:00:06Z</time></trkpt><trkpt lat="44.81728815709788" lon="8.020052264699498"><ele>277.6666666666667</ele><time>2026-04-19T12:00:07Z</time></trkpt><trkpt lat="44.81728593128501" lon="8.020181456375232"><ele>278.5</ele><time>2026-04-19T12:00:08Z</time></trkpt><trkpt lat="44.81728423833343" lon="8.020299572899253"><ele>279.33333333333337</ele><time>2026-04-19T12:00:09Z</time></trkpt><trkpt lat="44.817289110584035" lon="8.020399944809316"><ele>280.1666666666667</ele><time>2026-04-19T12:00:10Z</time></trkpt><trkpt lat="44.817309164975775" lon="8.020530610107524"><ele>281.0</ele><time>2026-04-19T12:00:13Z</time></trkpt><trkpt lat="44.817318162670055" lon="8.020719403832945"><ele>281.2</ele><time>2026-04-19T12:00:15Z</time></trkpt><trkpt lat="44.81732229538227" lon="8.020836386485374"><ele>281.40000000000003</ele><time>2026-04-19T12:00:16Z</time></trkpt><trkpt lat="44.817346009298895" lon="8.020937408991607"><ele>281.6</ele><time>2026-04-19T12:00:17Z</time></trkpt><trkpt lat="44.81738053323748" lon="8.021100151238365"><ele>281.8</ele><time>2026-04-19T12:00:19Z</time></trkpt><trkpt lat="44.817349861260794" lon="8.021265869862589"><ele>282.0</ele><time>2026-04-19T12:00:21Z</time></trkpt><trkpt lat="44.81733121439789" lon="8.021377938371065"><ele>282.0</ele><time>2026-04-19T12:00:23Z</time></trkpt><trkpt lat="44.81727797868689" lon="8.02151794565229"><ele>282.0</ele><time>2026-04-19T12:00:25Z</time></trkpt><trkpt lat="44.817232340319066" lon="8.021680320848402"><ele>282.0</ele><time>2026-04-19T12:00:27Z</time></trkpt><trkpt lat="44.8172384747424" lon="8.02178030169172"><ele>282.0</ele><time>2026-04-19T12:00:28Z</time></trkpt><trkpt lat="44.81725114189099" lon="8.021884072332595"><ele>282.0</ele><time>2026-04-19T12:00:29Z</time></trkpt><trkpt lat="44.81727345642989" lon="8.022017765901634"><ele>282.5</ele><time>2026-04-19T12:00:31Z</time></trkpt><trkpt lat="44.81727995886238" lon="8.022117907136282"><ele>283.0</ele><time>2026-04-19T12:00:48Z</time></trkpt><trkpt lat="44.81728785411739" lon="8.02226992860126"><ele>283.5</ele><time>2026-04-19T12:00:50Z</time></trkpt><trkpt lat="44.8172764221704" lon="8.022364902439914"><ele>284.0</ele><time>2026-04-19T12:00:51Z</time></trkpt><trkpt lat="44.8172668058105" lon="8.02248338775167"><ele>284.5</ele><time>2026-04-19T12:00:52Z</time></trkpt><trkpt lat="44.81724649244777" lon="8.022612678845567"><ele>285.0</ele><time>2026-04-19T12:00:53Z</time></trkpt><trkpt lat="44.817220637798634" lon="8.022738243048089"><ele>285.8</ele><time>2026-04-19T12:00:54Z</time></trkpt><trkpt lat="44.81719852503841" lon="8.022873836902603"><ele>286.6</ele><time>2026-04-19T12:00:55Z</time></trkpt><trkpt lat="44.81715691676329" lon="8.022994740618612"><ele>287.4</ele><time>2026-04-19T12:00:56Z</time></trkpt><trkpt lat="44.81712036699356" lon="8.02315702430667"><ele>288.2</ele><time>2026-04-19T12:00:57Z</time></trkpt><trkpt lat="44.81707480087905" lon="8.023292275015805"><ele>289.0</ele><time>2026-04-19T12:00:58Z</time></trkpt><trkpt lat="44.81703685638752" lon="8.023425266406095"><ele>290.59999999999997</ele><time>2026-04-19T12:00:59Z</time></trkpt><trkpt lat="44.81700710498859" lon="8.023554613887281"><ele>292.2</ele><time>2026-04-19T12:01:00Z</time></trkpt><trkpt lat="44.81696203511866" lon="8.023702235155058"><ele>293.79999999999995</ele><time>2026-04-19T12:01:01Z</time></trkpt><trkpt lat="44.81692068441333" lon="8.023824811660754"><ele>295.4</ele><time>2026-04-19T12:01:02Z</time></trkpt><trkpt lat="44.816869085245145" lon="8.023929732190263"><ele>297.0</ele><time>2026-04-19T12:01:03Z</time></trkpt><trkpt lat="44.816801689855616" lon="8.024032068537867"><ele>294.4</ele><time>2026-04-19T12:01:04Z</time></trkpt><trkpt lat="44.81673187082141" lon="8.024134041710198"><ele>291.79999999999995</ele><time>2026-04-19T12:01:05Z</time></trkpt><trkpt lat="44.81665526788625" lon="8.024239262332125"><ele>289.2</ele><time>2026-04-19T12:01:06Z</time></trkpt><trkpt lat="44.816586182227084" lon="8.024347685368182"><ele>286.59999999999997</ele><time>2026-04-19T12:01:07Z</time></trkpt><trkpt lat="44.81653378781975" lon="8.024458056467093"><ele>284.0</ele><time>2026-04-19T12:01:08Z</time></trkpt><trkpt lat="44.81650651182826" lon="8.024550400861935"><ele>284.0</ele><time>2026-04-19T12:01:09Z</time></trkpt><trkpt lat="44.81648863915671" lon="8.024657757231587"><ele>284.0</ele><time>2026-04-19T12:01:10Z</time></trkpt><trkpt lat="44.816497786552" lon="8.024784856791621"><ele>284.0</ele><time>2026-04-19T12:01:11Z</time></trkpt><trkpt lat="44.81650850032523" lon="8.024919636042585"><ele>284.0</ele><time>2026-04-19T12:01:12Z</time></trkpt><trkpt lat="44.816519747174624" lon="8.02503653514369"><ele>284.0</ele><time>2026-04-19T12:01:13Z</time></trkpt><trkpt lat="44.81651972809279" lon="8.025159280258535"><ele>284.0</ele><time>2026-04-19T12:01:14Z</time></trkpt><trkpt lat="44.81649392163194" lon="8.025280509311788"><ele>284.59999999999997</ele><time>2026-04-19T12:01:15Z</time></trkpt><trkpt lat="44.8164498287131" lon="8.025398171974798"><ele>285.2</ele><time>2026-04-19T12:01:16Z</time></trkpt><trkpt lat="44.81639464047421" lon="8.025521767078695"><ele>285.79999999999995</ele><time>2026-04-19T12:01:17Z</time></trkpt><trkpt lat="44.81633883775535" lon="8.025643267758564"><ele>286.4</ele><time>2026-04-19T12:01:18Z</time></trkpt><trkpt lat="44.81629336222054" lon="8.025759854414183"><ele>287.0</ele><time>2026-04-19T12:01:19Z</time></trkpt><trkpt lat="44.81624780987149" lon="8.025878327109343"><ele>286.0</ele><time>2026-04-19T12:01:20Z</time></trkpt><trkpt lat="44.816210344931285" lon="8.025988567870382"><ele>285.0</ele><time>2026-04-19T12:01:21Z</time></trkpt><trkpt lat="44.816161028239634" lon="8.026084482463814"><ele>284.0</ele><time>2026-04-19T12:01:22Z</time></trkpt><trkpt lat="44.81608751724576" lon="8.026160045037333"><ele>283.0</ele><time>2026-04-19T12:01:23Z</time></trkpt><trkpt lat="44.81601241850697" lon="8.026231762932662"><ele>282.0</ele><time>2026-04-19T12:01:24Z</time></trkpt><trkpt lat="44.81592379097538" lon="8.026286512793643"><ele>281.0</ele><time>2026-04-19T12:01:25Z</time></trkpt><trkpt lat="44.81582728876713" lon="8.02635234762448"><ele>278.2</ele><time>2026-04-19T12:01:26Z</time></trkpt><trkpt lat="44.81573243172401" lon="8.026425785358528"><ele>275.40000000000003</ele><time>2026-04-19T12:01:27Z</time></trkpt><trkpt lat="44.815633988752985" lon="8.026492847862233"><ele>272.6</ele><time>2026-04-19T12:01:28Z</time></trkpt><trkpt lat="44.815536854004606" lon="8.026556857066575"><ele>269.8</ele><time>2026-04-19T12:01:29Z</time></trkpt><trkpt lat="44.8154396277111" lon="8.026618349484163"><ele>267.0</ele><time>2026-04-19T12:01:30Z</time></trkpt><trkpt lat="44.81534660756107" lon="8.026690998852528"><ele>267.0</ele><time>2026-04-19T12:01:31Z</time></trkpt><trkpt lat="44.81524876437901" lon="8.026761455727971"><ele>267.0</ele><time>2026-04-19T12:01:32Z</time></trkpt><trkpt lat="44.81515722379677" lon="8.026824462278283"><ele>267.0</ele><time>2026-04-19T12:01:33Z</time></trkpt><trkpt lat="44.81508513943743" lon="8.0268886078168"><ele>267.0</ele><time>2026-04-19T12:01:34Z</time></trkpt><trkpt lat="44.81501842204892" lon="8.026951340012008"><ele>267.0</ele><time>2026-04-19T12:01:35Z</time></trkpt><trkpt lat="44.81496228070218" lon="8.027022371943831"><ele>265.8333333333333</ele><time>2026-04-19T12:01:36Z</time></trkpt><trkpt lat="44.814920770904216" lon="8.027122816567164"><ele>264.6666666666667</ele><time>2026-04-19T12:01:37Z</time></trkpt><trkpt lat="44.81489679245989" lon="8.027233043510815"><ele>263.5</ele><time>2026-04-19T12:01:38Z</time></trkpt><trkpt lat="44.81489289907631" lon="8.027359194440459"><ele>262.33333333333337</ele><time>2026-04-19T12:01:39Z</time></trkpt><trkpt lat="44.814909896346144" lon="8.02748293229121"><ele>261.1666666666667</ele><time>2026-04-19T12:01:40Z</time></trkpt><trkpt lat="44.81493164268994" lon="8.027597557730278"><ele>260.0</ele><time>2026-04-19T12:01:41Z</time></trkpt><trkpt lat="44.814959290010385" lon="8.027715191552948"><ele>259.2</ele><time>2026-04-19T12:01:42Z</time></trkpt><trkpt lat="44.81498697018185" lon="8.027834775326221"><ele>258.4</ele><time>2026-04-19T12:01:43Z</time></trkpt><trkpt lat="44.81501869555674" lon="8.027964594784002"><ele>257.6</ele><time>2026-04-19T12:01:44Z</time></trkpt><trkpt lat="44.81504696258233" lon="8.028104816790215"><ele>256.8</ele><time>2026-04-19T12:01:45Z</time></trkpt><trkpt lat="44.81505225880582" lon="8.028262602989878"><ele>256.0</ele><time>2026-04-19T12:01:46Z</time></trkpt><trkpt lat="44.81503810209144" lon="8.028443353299716"><ele>253.75</ele><time>2026-04-19T12:01:47Z</time></trkpt><trkpt lat="44.81502102334055" lon="8.028624865881515"><ele>251.5</ele><time>2026-04-19T12:01:48Z</time></trkpt><trkpt lat="44.81501560231156" lon="8.028802523259518"><ele>249.25</ele><time>2026-04-19T12:01:49Z</time></trkpt><trkpt lat="44.8150193003187" lon="8.02897183004158"><ele>247.0</ele><time>2026-04-19T12:01:50Z</time></trkpt><trkpt lat="44.81502712484074" lon="8.029120272383784"><ele>247.0</ele><time>2026-04-19T12:01:51Z</time></trkpt><trkpt lat="44.81503411867896" lon="8.029262760360453"><ele>247.0</ele><time>2026-04-19T12:01:52Z</time></trkpt><trkpt lat="44.81503916509869" lon="8.029405104245479"><ele>247.0</ele><time>2026-04-19T12:01:53Z</time></trkpt><trkpt lat="44.81504339871809" lon="8.029558170087416"><ele>247.0</ele><time>2026-04-19T12:01:54Z</time></trkpt><trkpt lat="44.81503898958359" lon="8.029718902510126"><ele>247.0</ele><time>2026-04-19T12:01:55Z</time></trkpt><trkpt lat="44.81504443425515" lon="8.029879700844278"><ele>247.0</ele><time>2026-04-19T12:01:56Z</time></trkpt><trkpt lat="44.81504450620354" lon="8.030055777323334"><ele>247.0</ele><time>2026-04-19T12:01:57Z</time></trkpt><trkpt lat="44.81504106195135" lon="8.03022889073919"><ele>247.0</ele><time>2026-04-19T12:01:58Z</time></trkpt><trkpt lat="44.81504040707426" lon="8.030377807774416"><ele>247.0</ele><time>2026-04-19T12:01:59Z</time></trkpt><trkpt lat="44.81504904821848" lon="8.03046748984281"><ele>247.0</ele><time>2026-04-19T12:02:01Z</time></trkpt><trkpt lat="44.81514580255341" lon="8.030433875703755"><ele>245.83333333333331</ele><time>2026-04-19T12:02:06Z</time></trkpt><trkpt lat="44.815265199164905" lon="8.030447907646419"><ele>244.66666666666666</ele><time>2026-04-19T12:02:08Z</time></trkpt><trkpt lat="44.81534546305692" lon="8.030452785341783"><ele>243.5</ele><time>2026-04-19T12:02:09Z</time></trkpt><trkpt lat="44.81541366774588" lon="8.030466784781067"><ele>242.33333333333331</ele><time>2026-04-19T12:02:10Z</time></trkpt><trkpt lat="44.81549566893309" lon="8.030483893214049"><ele>241.16666666666666</ele><time>2026-04-19T12:02:12Z</time></trkpt><trkpt lat="44.81557751366626" lon="8.030470258138488"><ele>240.0</ele><time>2026-04-19T12:02:14Z</time></trkpt><trkpt lat="44.81565012317823" lon="8.030462762355643"><ele>240.0</ele><time>2026-04-19T12:02:16Z</time></trkpt><trkpt lat="44.8157221298151" lon="8.030382405418088"><ele>240.0</ele><time>2026-04-19T12:02:19Z</time></trkpt><trkpt lat="44.81578588308065" lon="8.030307981832921"><ele>240.0</ele><time>2026-04-19T12:02:21Z</time></trkpt><trkpt lat="44.81585835244387" lon="8.030240860571551"><ele>240.0</ele><time>2026-04-19T12:02:23Z</time></trkpt><trkpt lat="44.815921461388385" lon="8.030251844671941"><ele>240.0</ele><time>2026-04-19T12:02:26Z</time></trkpt><trkpt lat="44.81597656578941" lon="8.030345907424257"><ele>240.0</ele><time>2026-04-19T12:02:28Z</time></trkpt><trkpt lat="44.8160360839927" lon="8.0304441740022"><ele>235.8</ele><time>2026-04-19T12:02:30Z</time></trkpt><trkpt lat="44.8161440417043" lon="8.030518401047342"><ele>231.6</ele><time>2026-04-19T12:02:32Z</time></trkpt><trkpt lat="44.816247786067095" lon="8.030601665670941"><ele>227.39999999999998</ele><time>2026-04-19T12:02:34Z</time></trkpt><trkpt lat="44.8163060736101" lon="8.030695939551883"><ele>223.2</ele><time>2026-04-19T12:02:36Z</time></trkpt><trkpt lat="44.81632961091679" lon="8.030808502497417"><ele>219.0</ele><time>2026-04-19T12:02:38Z</time></trkpt><trkpt lat="44.816405311556665" lon="8.030867813337032"><ele>217.83333333333334</ele><time>2026-04-19T12:02:40Z</time></trkpt><trkpt lat="44.81651226439672" lon="8.030831604426576"><ele>216.66666666666669</ele><time>2026-04-19T12:02:42Z</time></trkpt><trkpt lat="44.816574973663" lon="8.030869089844094"><ele>215.5</ele><time>2026-04-19T12:02:44Z</time></trkpt><trkpt lat="44.81661834747406" lon="8.03093724407901"><ele>214.33333333333334</ele><time>2026-04-19T12:02:46Z</time></trkpt><trkpt lat="44.8166382770598" lon="8.031071889011917"><ele>213.16666666666669</ele><time>2026-04-19T12:02:49Z</time></trkpt><trkpt lat="44.816664538133914" lon="8.031205372632579"><ele>212.0</ele><time>2026-04-19T12:02:51Z</time></trkpt><trkpt lat="44.81664352635605" lon="8.03135530073902"><ele>212.00000000000003</ele><time>2026-04-19T12:02:53Z</time></trkpt><trkpt lat="44.81665120097009" lon="8.0314438725386"><ele>212.0</ele><time>2026-04-19T12:02:54Z</time></trkpt><trkpt lat="44.81665111659962" lon="8.031548828541215"><ele>212.0</ele><time>2026-04-19T12:02:55Z</time></trkpt><trkpt lat="44.816646487200416" lon="8.031740056609975"><ele>212.0</ele><time>2026-04-19T12:02:57Z</time></trkpt><trkpt lat="44.81664515970169" lon="8.03184926458285"><ele>212.00000000000003</ele><time>2026-04-19T12:02:58Z</time></trkpt><trkpt lat="44.816651516250076" lon="8.031961482556403"><ele>212.0</ele><time>2026-04-19T12:02:59Z</time></trkpt><trkpt lat="44.81663827251806" lon="8.032067539784325"><ele>212.14285714285714</ele><time>2026-04-19T12:03:00Z</time></trkpt><trkpt lat="44.81663248732307" lon="8.032156983830328"><ele>212.28571428571428</ele><time>2026-04-19T12:03:01Z</time></trkpt><trkpt lat="44.81665465960518" lon="8.032243151229665"><ele>212.42857142857142</ele><time>2026-04-19T12:03:02Z</time></trkpt><trkpt lat="44.81668041978946" lon="8.032346864907955"><ele>212.57142857142856</ele><time>2026-04-19T12:03:03Z</time></trkpt><trkpt lat="44.816698011173564" lon="8.032446920531735"><ele>212.71428571428572</ele><time>2026-04-19T12:03:04Z</time></trkpt><trkpt lat="44.816705750376094" lon="8.032548939539893"><ele>212.85714285714283</ele><time>2026-04-19T12:03:05Z</time></trkpt><trkpt lat="44.81671172633078" lon="8.03266529509289"><ele>213.0</ele><time>2026-04-19T12:03:06Z</time></trkpt><trkpt lat="44.81671044305272" lon="8.032760784494586"><ele>213.8</ele><time>2026-04-19T12:03:07Z</time></trkpt><trkpt lat="44.8167376724052" lon="8.032913750094076"><ele>214.60000000000002</ele><time>2026-04-19T12:03:09Z</time></trkpt><trkpt lat="44.81679151179352" lon="8.033046705222787"><ele>215.39999999999998</ele><time>2026-04-19T12:03:10Z</time></trkpt><trkpt lat="44.81681753134383" lon="8.03315520073557"><ele>216.2</ele><time>2026-04-19T12:03:11Z</time></trkpt><trkpt lat="44.81683730931492" lon="8.033282686105943"><ele>217.0</ele><time>2026-04-19T12:03:12Z</time></trkpt><trkpt lat="44.81688907235463" lon="8.033377391138814"><ele>213.39999999999998</ele><time>2026-04-19T12:03:13Z</time></trkpt><trkpt lat="44.81690739494188" lon="8.03350455911381"><ele>209.79999999999998</ele><time>2026-04-19T12:03:14Z</time></trkpt><trkpt lat="44.81690899372232" lon="8.033649713909373"><ele>206.2</ele><time>2026-04-19T12:03:15Z</time></trkpt><trkpt lat="44.81691321339672" lon="8.033776698185017"><ele>202.6</ele><time>2026-04-19T12:03:16Z</time></trkpt><trkpt lat="44.81692999874008" lon="8.033887881173788"><ele>199.0</ele><time>2026-04-19T12:03:17Z</time></trkpt><trkpt lat="44.81693832264003" lon="8.034015030723273"><ele>198.79999999999998</ele><time>2026-04-19T12:03:18Z</time></trkpt><trkpt lat="44.81695200412586" lon="8.034152549340483"><ele>198.6</ele><time>2026-04-19T12:03:19Z</time></trkpt><trkpt lat="44.81695598963151" lon="8.034288071975853"><ele>198.4</ele><time>2026-04-19T12:03:20Z</time></trkpt><trkpt lat="44.81696693701115" lon="8.034419295195132"><ele>198.2</ele><time>2026-04-19T12:03:21Z</time></trkpt><trkpt lat="44.81697243929213" lon="8.034543836583024"><ele>198.0</ele><time>2026-04-19T12:03:22Z</time></trkpt><trkpt lat="44.81697249888075" lon="8.034669888384622"><ele>198.0</ele><time>2026-04-19T12:03:23Z</time></trkpt><trkpt lat="44.81699091833858" lon="8.034777855953429"><ele>198.0</ele><time>2026-04-19T12:03:24Z</time></trkpt><trkpt lat="44.81699604492104" lon="8.034876480148155"><ele>198.0</ele><time>2026-04-19T12:03:25Z</time></trkpt><trkpt lat="44.81698828661128" lon="8.034968925108924"><ele>198.0</ele><time>2026-04-19T12:03:26Z</time></trkpt><trkpt lat="44.81694760400846" lon="8.035059443684592"><ele>198.0</ele><time>2026-04-19T12:03:27Z</time></trkpt><trkpt lat="44.816908659087524" lon="8.03514716683618"><ele>198.0</ele><time>2026-04-19T12:03:28Z</time></trkpt><trkpt lat="44.81691301613285" lon="8.035310459845414"><ele>198.2</ele><time>2026-04-19T12:03:30Z</time></trkpt><trkpt lat="44.81686307375137" lon="8.03546742420166"><ele>198.4</ele><time>2026-04-19T12:03:32Z</time></trkpt><trkpt lat="44.81681029223693" lon="8.035525887464242"><ele>198.6</ele><time>2026-04-19T12:03:33Z</time></trkpt><trkpt lat="44.816751518670365" lon="8.035589542590591"><ele>198.79999999999998</ele><time>2026-04-19T12:03:34Z</time></trkpt><trkpt lat="44.8166995110594" lon="8.03564863568743"><ele>199.0</ele><time>2026-04-19T12:03:35Z</time></trkpt><trkpt lat="44.81657691367321" lon="8.035703732242004"><ele>201.83333333333331</ele><time>2026-04-19T12:03:37Z</time></trkpt><trkpt lat="44.81650861441764" lon="8.035750367469658"><ele>204.66666666666666</ele><time>2026-04-19T12:03:38Z</time></trkpt><trkpt lat="44.81644142602159" lon="8.035774136596206"><ele>207.5</ele><time>2026-04-19T12:03:39Z</time></trkpt><trkpt lat="44.81637784025782" lon="8.035766533696814"><ele>210.33333333333331</ele><time>2026-04-19T12:03:40Z</time></trkpt><trkpt lat="44.816307566954144" lon="8.0357519328775"><ele>213.16666666666666</ele><time>2026-04-19T12:03:41Z</time></trkpt><trkpt lat="44.81621606215561" lon="8.035743695859814"><ele>216.0</ele><time>2026-04-19T12:03:43Z</time></trkpt><trkpt lat="44.81619967540846" lon="8.035858803706667"><ele>216.0</ele><time>2026-04-19T12:03:45Z</time></trkpt><trkpt lat="44.81620143683793" lon="8.035960886978073"><ele>216.0</ele><time>2026-04-19T12:03:46Z</time></trkpt><trkpt lat="44.81618550176448" lon="8.036062017121465"><ele>216.0</ele><time>2026-04-19T12:03:47Z</time></trkpt><trkpt lat="44.81613289874054" lon="8.036153097474983"><ele>216.0</ele><time>2026-04-19T12:03:48Z</time></trkpt><trkpt lat="44.81605437566965" lon="8.03622473121148"><ele>216.0</ele><time>2026-04-19T12:03:49Z</time></trkpt><trkpt lat="44.81595923412445" lon="8.03627724431852"><ele>216.0</ele><time>2026-04-19T12:03:50Z</time></trkpt><trkpt lat="44.81587429150327" lon="8.036319708581587"><ele>215.33333333333334</ele><time>2026-04-19T12:03:51Z</time></trkpt><trkpt lat="44.81581064531361" lon="8.036361901011205"><ele>214.66666666666669</ele><time>2026-04-19T12:03:52Z</time></trkpt><trkpt lat="44.81578452206742" lon="8.036503312566017"><ele>214.0</ele><time>2026-04-19T12:03:54Z</time></trkpt><trkpt lat="44.815822629734384" lon="8.036584356095366"><ele>213.33333333333334</ele><time>2026-04-19T12:03:55Z</time></trkpt><trkpt lat="44.815904275105304" lon="8.036641682819473"><ele>212.66666666666669</ele><time>2026-04-19T12:03:56Z</time></trkpt><trkpt lat="44.81599201997852" lon="8.03667931662499"><ele>212.0</ele><time>2026-04-19T12:03:57Z</time></trkpt><trkpt lat="44.81607780550078" lon="8.036714352100644"><ele>212.0</ele><time>2026-04-19T12:03:58Z</time></trkpt><trkpt lat="44.816148622563134" lon="8.036754334266035"><ele>212.0</ele><time>2026-04-19T12:03:59Z</time></trkpt><trkpt lat="44.816211378982175" lon="8.036919485045436"><ele>212.0</ele><time>2026-04-19T12:04:01Z</time></trkpt><trkpt lat="44.816216185682926" lon="8.037056645655188"><ele>212.0</ele><time>2026-04-19T12:04:02Z</time></trkpt><trkpt lat="44.81619953191635" lon="8.03721287810649"><ele>212.0</ele><time>2026-04-19T12:04:03Z</time></trkpt><trkpt lat="44.81617426453186" lon="8.037354347595112"><ele>211.0</ele><time>2026-04-19T12:04:04Z</time></trkpt><trkpt lat="44.81615160824962" lon="8.037498969143215"><ele>210.0</ele><time>2026-04-19T12:04:05Z</time></trkpt><trkpt lat="44.81613809275262" lon="8.037658540313387"><ele>209.0</ele><time>2026-04-19T12:04:06Z</time></trkpt><trkpt lat="44.816127751710724" lon="8.037821521998058"><ele>208.0</ele><time>2026-04-19T12:04:07Z</time></trkpt><trkpt lat="44.81611257766458" lon="8.037979061099158"><ele>207.0</ele><time>2026-04-19T12:04:08Z</time></trkpt><trkpt lat="44.81609566664331" lon="8.038138981623321"><ele>207.0</ele><time>2026-04-19T12:04:09Z</time></trkpt><trkpt lat="44.816083913099924" lon="8.038294455315508"><ele>207.0</ele><time>2026-04-19T12:04:10Z</time></trkpt><trkpt lat="44.816078403499986" lon="8.03844776236365"><ele>207.0</ele><time>2026-04-19T12:04:11Z</time></trkpt><trkpt lat="44.816082809406375" lon="8.03859741325479"><ele>207.0</ele><time>2026-04-19T12:04:12Z</time></trkpt><trkpt lat="44.816095182952736" lon="8.038733341477954"><ele>207.0</ele><time>2026-04-19T12:04:13Z</time></trkpt><trkpt lat="44.816122387962736" lon="8.038872767221106"><ele>205.6</ele><time>2026-04-19T12:04:14Z</time></trkpt><trkpt lat="44.81614222515111" lon="8.038994804153921"><ele>204.2</ele><time>2026-04-19T12:04:15Z</time></trkpt><trkpt lat="44.816157623533954" lon="8.039117834579917"><ele>202.8</ele><time>2026-04-19T12:04:16Z</time></trkpt><trkpt lat="44.81616810288417" lon="8.039246862349255"><ele>201.4</ele><time>2026-04-19T12:04:17Z</time></trkpt><trkpt lat="44.81615834126021" lon="8.039374894786738"><ele>200.0</ele><time>2026-04-19T12:04:18Z</time></trkpt><trkpt lat="44.81613661163297" lon="8.039497173351556"><ele>199.16666666666669</ele><time>2026-04-19T12:04:19Z</time></trkpt><trkpt lat="44.81610844707508" lon="8.039617380403904"><ele>198.33333333333334</ele><time>2026-04-19T12:04:20Z</time></trkpt><trkpt lat="44.8160746758354" lon="8.039734392795719"><ele>197.5</ele><time>2026-04-19T12:04:21Z</time></trkpt><trkpt lat="44.816049949985675" lon="8.039850417106075"><ele>196.66666666666669</ele><time>2026-04-19T12:04:22Z</time></trkpt><trkpt lat="44.81603516954792" lon="8.039960569306674"><ele>195.83333333333334</ele><time>2026-04-19T12:04:23Z</time></trkpt><trkpt lat="44.81600928510131" lon="8.040044310128756"><ele>195.0</ele><time>2026-04-19T12:04:24Z</time></trkpt><trkpt lat="44.81595451443637" lon="8.040103264686989"><ele>193.0</ele><time>2026-04-19T12:04:25Z</time></trkpt><trkpt lat="44.81586649972961" lon="8.04013500055219"><ele>191.0</ele><time>2026-04-19T12:04:26Z</time></trkpt><trkpt lat="44.81577657279488" lon="8.040163365531338"><ele>189.0</ele><time>2026-04-19T12:04:27Z</time></trkpt><trkpt lat="44.815684970452644" lon="8.040192278796265"><ele>187.0</ele><time>2026-04-19T12:04:28Z</time></trkpt><trkpt lat="44.81559661347035" lon="8.040226657875323"><ele>185.0</ele><time>2026-04-19T12:04:29Z</time></trkpt><trkpt lat="44.81552742589651" lon="8.04026421676357"><ele>183.0</ele><time>2026-04-19T12:04:30Z</time></trkpt><trkpt lat="44.815461370852326" lon="8.040329089836087"><ele>183.0</ele><time>2026-04-19T12:04:32Z</time></trkpt><trkpt lat="44.81545458462416" lon="8.040461205067212"><ele>183.0</ele><time>2026-04-19T12:04:34Z</time></trkpt><trkpt lat="44.81546546796616" lon="8.040567598386316"><ele>183.0</ele><time>2026-04-19T12:04:35Z</time></trkpt><trkpt lat="44.81547804253402" lon="8.040669377377903"><ele>183.0</ele><time>2026-04-19T12:04:36Z</time></trkpt><trkpt lat="44.81549904317959" lon="8.040768166273171"><ele>183.0</ele><time>2026-04-19T12:04:37Z</time></trkpt><trkpt lat="44.81552374624642" lon="8.040876784233733"><ele>183.0</ele><time>2026-04-19T12:04:38Z</time></trkpt><trkpt lat="44.815551095696094" lon="8.040999066221975"><ele>182.0</ele><time>2026-04-19T12:04:39Z</time></trkpt><trkpt lat="44.81558020997298" lon="8.04112664523239"><ele>181.0</ele><time>2026-04-19T12:04:40Z</time></trkpt><trkpt lat="44.815614035579046" lon="8.04125676304494"><ele>180.0</ele><time>2026-04-19T12:04:41Z</time></trkpt><trkpt lat="44.815644898666484" lon="8.041391021593347"><ele>179.0</ele><time>2026-04-19T12:04:42Z</time></trkpt><trkpt lat="44.8156622180408" lon="8.041526027232708"><ele>178.0</ele><time>2026-04-19T12:04:43Z</time></trkpt><trkpt lat="44.81568319519768" lon="8.041645209049443"><ele>177.83333333333334</ele><time>2026-04-19T12:04:44Z</time></trkpt><trkpt lat="44.81571191354296" lon="8.041748630574219"><ele>177.66666666666669</ele><time>2026-04-19T12:04:45Z</time></trkpt><trkpt lat="44.815737745165755" lon="8.041830221759126"><ele>177.5</ele><time>2026-04-19T12:04:46Z</time></trkpt><trkpt lat="44.81578022545469" lon="8.041916731657858"><ele>177.33333333333334</ele><time>2026-04-19T12:04:57Z</time></trkpt><trkpt lat="44.81586159190621" lon="8.042056555076682"><ele>177.16666666666666</ele><time>2026-04-19T12:04:59Z</time></trkpt><trkpt lat="44.815914981523115" lon="8.042157555344643"><ele>177.0</ele><time>2026-04-19T12:05:00Z</time></trkpt><trkpt lat="44.815944973780056" lon="8.04226296120697"><ele>177.0</ele><time>2026-04-19T12:05:01Z</time></trkpt><trkpt lat="44.815955303538814" lon="8.042380254908974"><ele>177.0</ele><time>2026-04-19T12:05:02Z</time></trkpt><trkpt lat="44.815932516176595" lon="8.042501898890846"><ele>177.0</ele><time>2026-04-19T12:05:03Z</time></trkpt><trkpt lat="44.81587676861863" lon="8.042613349761467"><ele>177.0</ele><time>2026-04-19T12:05:04Z</time></trkpt><trkpt lat="44.81580417525999" lon="8.042707324531138"><ele>177.0</ele><time>2026-04-19T12:05:05Z</time></trkpt><trkpt lat="44.815730665082185" lon="8.042787067459708"><ele>176.0</ele><time>2026-04-19T12:05:06Z</time></trkpt><trkpt lat="44.81565824119762" lon="8.042877710162598"><ele>175.0</ele><time>2026-04-19T12:05:07Z</time></trkpt><trkpt lat="44.81558691079093" lon="8.04298654128594"><ele>174.0</ele><time>2026-04-19T12:05:08Z</time></trkpt><trkpt lat="44.815519168523934" lon="8.043116249460699"><ele>173.0</ele><time>2026-04-19T12:05:09Z</time></trkpt><trkpt lat="44.81545005422158" lon="8.04326065427376"><ele>172.0</ele><time>2026-04-19T12:05:10Z</time></trkpt><trkpt lat="44.81538322129041" lon="8.043421967925914"><ele>172.0</ele><time>2026-04-19T12:05:11Z</time></trkpt><trkpt lat="44.815329625905626" lon="8.043584719515303"><ele>172.0</ele><time>2026-04-19T12:05:12Z</time></trkpt><trkpt lat="44.81528786926306" lon="8.043737339077367"><ele>172.0</ele><time>2026-04-19T12:05:13Z</time></trkpt><trkpt lat="44.8152514490329" lon="8.043876010917563"><ele>172.0</ele><time>2026-04-19T12:05:14Z</time></trkpt><trkpt lat="44.81521372521152" lon="8.044003278091235"><ele>172.0</ele><time>2026-04-19T12:05:15Z</time></trkpt><trkpt lat="44.81518639523175" lon="8.044102675563723"><ele>172.16666666666669</ele><time>2026-04-19T12:05:16Z</time></trkpt><trkpt lat="44.81516015079827" lon="8.044189880698449"><ele>172.33333333333334</ele><time>2026-04-19T12:05:17Z</time></trkpt><trkpt lat="44.81511941045479" lon="8.044313353082806"><ele>172.5</ele><time>2026-04-19T12:05:19Z</time></trkpt><trkpt lat="44.81511585648685" lon="8.04441128051145"><ele>172.66666666666666</ele><time>2026-04-19T12:05:21Z</time></trkpt><trkpt lat="44.815189502068506" lon="8.04454986617764"><ele>172.83333333333331</ele><time>2026-04-19T12:05:23Z</time></trkpt><trkpt lat="44.81526338420974" lon="8.044603342117714"><ele>173.0</ele><time>2026-04-19T12:05:24Z</time></trkpt><trkpt lat="44.81534727241385" lon="8.044683271208427"><ele>173.0</ele><time>2026-04-19T12:05:25Z</time></trkpt><trkpt lat="44.815432602966524" lon="8.044785347374278"><ele>173.0</ele><time>2026-04-19T12:05:26Z</time></trkpt><trkpt lat="44.815509916361954" lon="8.044882571668223"><ele>173.0</ele><time>2026-04-19T12:05:27Z</time></trkpt><trkpt lat="44.81558719445554" lon="8.044986073662269"><ele>173.0</ele><time>2026-04-19T12:05:28Z</time></trkpt><trkpt lat="44.81567205177359" lon="8.045101174078331"><ele>173.0</ele><time>2026-04-19T12:05:29Z</time></trkpt><trkpt lat="44.81576671333959" lon="8.045230204363635"><ele>173.5</ele><time>2026-04-19T12:05:30Z</time></trkpt><trkpt lat="44.81586676221375" lon="8.045364033018014"><ele>174.0</ele><time>2026-04-19T12:05:31Z</time></trkpt><trkpt lat="44.815958117946295" lon="8.045486776590348"><ele>174.5</ele><time>2026-04-19T12:05:32Z</time></trkpt><trkpt lat="44.816044940204726" lon="8.04560370129707"><ele>175.0</ele><time>2026-04-19T12:05:33Z</time></trkpt><trkpt lat="44.816134626055145" lon="8.045733936709066"><ele>174.5</ele><time>2026-04-19T12:05:34Z</time></trkpt><trkpt lat="44.81623518311586" lon="8.045885945924157"><ele>174.0</ele><time>2026-04-19T12:05:35Z</time></trkpt><trkpt lat="44.81632979000807" lon="8.046052359023836"><ele>173.5</ele><time>2026-04-19T12:05:36Z</time></trkpt><trkpt lat="44.81641462775818" lon="8.046227565203962"><ele>173.0</ele><time>2026-04-19T12:05:37Z</time></trkpt><trkpt lat="44.81649000419237" lon="8.046400926668086"><ele>173.0</ele><time>2026-04-19T12:05:38Z</time></trkpt><trkpt lat="44.81656358758317" lon="8.04656907409394"><ele>173.0</ele><time>2026-04-19T12:05:39Z</time></trkpt><trkpt lat="44.816644743803685" lon="8.046726757258103"><ele>173.0</ele><time>2026-04-19T12:05:40Z</time></trkpt><trkpt lat="44.81673272878366" lon="8.046877218537428"><ele>173.0</ele><time>2026-04-19T12:05:41Z</time></trkpt><trkpt lat="44.81682931725532" lon="8.04701619870048"><ele>172.75</ele><time>2026-04-19T12:05:42Z</time></trkpt><trkpt lat="44.81692907175618" lon="8.04714993743694"><ele>172.5</ele><time>2026-04-19T12:05:43Z</time></trkpt><trkpt lat="44.81702838805951" lon="8.047284977880757"><ele>172.25</ele><time>2026-04-19T12:05:44Z</time></trkpt><trkpt lat="44.81712641905331" lon="8.047419416999945"><ele>172.0</ele><time>2026-04-19T12:05:45Z</time></trkpt><trkpt lat="44.81722544788127" lon="8.047552886399878"><ele>171.25</ele><time>2026-04-19T12:05:46Z</time></trkpt><trkpt lat="44.81732668750298" lon="8.04768714933944"><ele>170.5</ele><time>2026-04-19T12:05:47Z</time></trkpt><trkpt lat="44.81742412558334" lon="8.04782447786734"><ele>169.75</ele><time>2026-04-19T12:05:48Z</time></trkpt><trkpt lat="44.81752534718637" lon="8.047959184106178"><ele>169.0</ele><time>2026-04-19T12:05:49Z</time></trkpt><trkpt lat="44.817629308742326" lon="8.048095113225589"><ele>170.0</ele><time>2026-04-19T12:05:50Z</time></trkpt><trkpt lat="44.81773212335325" lon="8.048230502621543"><ele>171.0</ele><time>2026-04-19T12:05:51Z</time></trkpt><trkpt lat="44.81782263819722" lon="8.048384870328249"><ele>172.0</ele><time>2026-04-19T12:05:52Z</time></trkpt><trkpt lat="44.81791160792233" lon="8.048543131873327"><ele>173.0</ele><time>2026-04-19T12:05:53Z</time></trkpt><trkpt lat="44.818000726142834" lon="8.048700859975064"><ele>173.0</ele><time>2026-04-19T12:05:54Z</time></trkpt><trkpt lat="44.81808956502784" lon="8.048848106531127"><ele>173.0</ele><time>2026-04-19T12:05:55Z</time></trkpt><trkpt lat="44.81817528214099" lon="8.048993616922784"><ele>173.0</ele><time>2026-04-19T12:05:56Z</time></trkpt><trkpt lat="44.818261268301576" lon="8.04913597247388"><ele>173.0</ele><time>2026-04-19T12:05:57Z</time></trkpt><trkpt lat="44.81834544760841" lon="8.049278741021492"><ele>173.25</ele><time>2026-04-19T12:05:58Z</time></trkpt><trkpt lat="44.8184311352859" lon="8.04941804680744"><ele>173.5</ele><time>2026-04-19T12:05:59Z</time></trkpt><trkpt lat="44.81851675908708" lon="8.049551028055992"><ele>173.75</ele><time>2026-04-19T12:06:00Z</time></trkpt><trkpt lat="44.818596894140455" lon="8.049670388694002"><ele>174.0</ele><time>2026-04-19T12:06:01Z</time></trkpt><trkpt lat="44.81867652022233" lon="8.04977397263925"><ele>174.0</ele><time>2026-04-19T12:06:02Z</time></trkpt><trkpt lat="44.81875526601529" lon="8.049863672488897"><ele>174.0</ele><time>2026-04-19T12:06:03Z</time></trkpt><trkpt lat="44.81882970446034" lon="8.049945040117024"><ele>174.0</ele><time>2026-04-19T12:06:04Z</time></trkpt><trkpt lat="44.81889786821956" lon="8.05002233815883"><ele>174.0</ele><time>2026-04-19T12:06:05Z</time></trkpt><trkpt lat="44.818954543994884" lon="8.050101561527544"><ele>174.0</ele><time>2026-04-19T12:06:06Z</time></trkpt><trkpt lat="44.818996060299746" lon="8.050188142934251"><ele>174.0</ele><time>2026-04-19T12:06:07Z</time></trkpt><trkpt lat="44.81901685867106" lon="8.050280744264684"><ele>173.71428571428572</ele><time>2026-04-19T12:06:08Z</time></trkpt><trkpt lat="44.819021250039924" lon="8.05037608773758"><ele>173.42857142857144</ele><time>2026-04-19T12:06:09Z</time></trkpt><trkpt lat="44.819026210900894" lon="8.05047361551798"><ele>173.14285714285717</ele><time>2026-04-19T12:06:10Z</time></trkpt><trkpt lat="44.819046903215046" lon="8.05056962425446"><ele>172.85714285714286</ele><time>2026-04-19T12:06:11Z</time></trkpt><trkpt lat="44.81908329116388" lon="8.050660533244077"><ele>172.57142857142858</ele><time>2026-04-19T12:06:12Z</time></trkpt><trkpt lat="44.81911208478763" lon="8.05075396805246"><ele>172.2857142857143</ele><time>2026-04-19T12:06:13Z</time></trkpt><trkpt lat="44.8191165267398" lon="8.050857676824709"><ele>172.0</ele><time>2026-04-19T12:06:14Z</time></trkpt><trkpt lat="44.81909371520952" lon="8.0509542617682"><ele>171.5</ele><time>2026-04-19T12:06:15Z</time></trkpt><trkpt lat="44.819052156790065" lon="8.051047064496913"><ele>171.0</ele><time>2026-04-19T12:06:16Z</time></trkpt><trkpt lat="44.81900119373405" lon="8.05114012928349"><ele>170.5</ele><time>2026-04-19T12:06:17Z</time></trkpt><trkpt lat="44.81895655454325" lon="8.051238885962341"><ele>170.0</ele><time>2026-04-19T12:06:18Z</time></trkpt><trkpt lat="44.81891801853103" lon="8.051342474995657"><ele>169.5</ele><time>2026-04-19T12:06:19Z</time></trkpt><trkpt lat="44.81888442308323" lon="8.051448121831617"><ele>169.0</ele><time>2026-04-19T12:06:20Z</time></trkpt><trkpt lat="44.8188574687468" lon="8.051553034970015"><ele>168.66666666666669</ele><time>2026-04-19T12:06:21Z</time></trkpt><trkpt lat="44.81883790822396" lon="8.051657903638965"><ele>168.33333333333334</ele><time>2026-04-19T12:06:22Z</time></trkpt><trkpt lat="44.81882819641979" lon="8.051760651242423"><ele>168.0</ele><time>2026-04-19T12:06:23Z</time></trkpt><trkpt lat="44.81882527030858" lon="8.05186804222098"><ele>167.66666666666666</ele><time>2026-04-19T12:06:24Z</time></trkpt><trkpt lat="44.81882036096225" lon="8.05198077885122"><ele>167.33333333333331</ele><time>2026-04-19T12:06:25Z</time></trkpt><trkpt lat="44.81881230864025" lon="8.052096477804108"><ele>167.0</ele><time>2026-04-19T12:06:26Z</time></trkpt><trkpt lat="44.81880368653242" lon="8.052217296677833"><ele>167.0</ele><time>2026-04-19T12:06:27Z</time></trkpt><trkpt lat="44.818793176456396" lon="8.052340185788598"><ele>167.0</ele><time>2026-04-19T12:06:28Z</time></trkpt><trkpt lat="44.81878065777033" lon="8.052466825752383"><ele>167.0</ele><time>2026-04-19T12:06:29Z</time></trkpt><trkpt lat="44.81877521269022" lon="8.05259650207563"><ele>167.0</ele><time>2026-04-19T12:06:30Z</time></trkpt><trkpt lat="44.818766670029326" lon="8.052714634783255"><ele>167.0</ele><time>2026-04-19T12:06:31Z</time></trkpt><trkpt lat="44.81875544321921" lon="8.052813562078779"><ele>167.0</ele><time>2026-04-19T12:06:32Z</time></trkpt><trkpt lat="44.818743547290985" lon="8.052914081129542"><ele>166.66666666666666</ele><time>2026-04-19T12:06:33Z</time></trkpt><trkpt lat="44.81873981379634" lon="8.053022763353987"><ele>166.33333333333331</ele><time>2026-04-19T12:06:34Z</time></trkpt><trkpt lat="44.81873437272488" lon="8.053139440195435"><ele>166.0</ele><time>2026-04-19T12:06:35Z</time></trkpt><trkpt lat="44.81873933342658" lon="8.053255492766244"><ele>165.66666666666666</ele><time>2026-04-19T12:06:36Z</time></trkpt><trkpt lat="44.818754337141435" lon="8.053383036775239"><ele>165.33333333333334</ele><time>2026-04-19T12:06:37Z</time></trkpt><trkpt lat="44.8187751828878" lon="8.053499006250659"><ele>165.0</ele><time>2026-04-19T12:06:38Z</time></trkpt><trkpt lat="44.81879790403298" lon="8.05361317417231"><ele>164.66666666666666</ele><time>2026-04-19T12:06:39Z</time></trkpt><trkpt lat="44.818825101318936" lon="8.053731222233107"><ele>164.33333333333334</ele><time>2026-04-19T12:06:40Z</time></trkpt><trkpt lat="44.81884699734126" lon="8.053847172456571"><ele>164.0</ele><time>2026-04-19T12:06:41Z</time></trkpt><trkpt lat="44.81886814260968" lon="8.053963948032536"><ele>163.66666666666669</ele><time>2026-04-19T12:06:42Z</time></trkpt><trkpt lat="44.81888832545253" lon="8.054082227163889"><ele>163.33333333333334</ele><time>2026-04-19T12:06:43Z</time></trkpt><trkpt lat="44.81891045070495" lon="8.054204383696192"><ele>163.0</ele><time>2026-04-19T12:06:44Z</time></trkpt><trkpt lat="44.818939569609526" lon="8.054323810320666"><ele>162.66666666666669</ele><time>2026-04-19T12:06:45Z</time></trkpt><trkpt lat="44.81897320041049" lon="8.054441690503056"><ele>162.33333333333334</ele><time>2026-04-19T12:06:46Z</time></trkpt><trkpt lat="44.81901153769034" lon="8.05455135156487"><ele>162.0</ele><time>2026-04-19T12:06:47Z</time></trkpt><trkpt lat="44.81905682583776" lon="8.054660963251475"><ele>161.66666666666666</ele><time>2026-04-19T12:06:48Z</time></trkpt><trkpt lat="44.81910482269565" lon="8.054767897517898"><ele>161.33333333333331</ele><time>2026-04-19T12:06:49Z</time></trkpt><trkpt lat="44.81914945939149" lon="8.054874900563586"><ele>161.0</ele><time>2026-04-19T12:06:50Z</time></trkpt><trkpt lat="44.81919042119712" lon="8.054978061374074"><ele>161.0</ele><time>2026-04-19T12:06:51Z</time></trkpt><trkpt lat="44.81923006659392" lon="8.055087480172618"><ele>161.0</ele><time>2026-04-19T12:06:52Z</time></trkpt><trkpt lat="44.819276286755546" lon="8.055198296893483"><ele>161.0</ele><time>2026-04-19T12:06:53Z</time></trkpt><trkpt lat="44.81932960849221" lon="8.055311124658816"><ele>161.0</ele><time>2026-04-19T12:06:54Z</time></trkpt><trkpt lat="44.81938277328869" lon="8.055427144313239"><ele>161.0</ele><time>2026-04-19T12:06:55Z</time></trkpt><trkpt lat="44.819432843914306" lon="8.055549999716819"><ele>161.20000000000002</ele><time>2026-04-19T12:06:56Z</time></trkpt><trkpt lat="44.81948486928243" lon="8.055674536135431"><ele>161.4</ele><time>2026-04-19T12:06:57Z</time></trkpt><trkpt lat="44.81953613252517" lon="8.055796341454682"><ele>161.6</ele><time>2026-04-19T12:06:58Z</time></trkpt><trkpt lat="44.81958637117567" lon="8.05591539996592"><ele>161.8</ele><time>2026-04-19T12:06:59Z</time></trkpt><trkpt lat="44.81963537356546" lon="8.056032762965962"><ele>162.0</ele><time>2026-04-19T12:07:00Z</time></trkpt><trkpt lat="44.81968168459831" lon="8.056151053505008"><ele>162.0</ele><time>2026-04-19T12:07:01Z</time></trkpt><trkpt lat="44.819729163707905" lon="8.056268760890456"><ele>162.0</ele><time>2026-04-19T12:07:02Z</time></trkpt><trkpt lat="44.819773939326836" lon="8.05639450315329"><ele>162.0</ele><time>2026-04-19T12:07:03Z</time></trkpt><trkpt lat="44.81981989307578" lon="8.05651518076017"><ele>162.0</ele><time>2026-04-19T12:07:04Z</time></trkpt><trkpt lat="44.81986850307585" lon="8.05662820078785"><ele>162.0</ele><time>2026-04-19T12:07:05Z</time></trkpt><trkpt lat="44.81990215077907" lon="8.056734558317357"><ele>161.83333333333334</ele><time>2026-04-19T12:07:06Z</time></trkpt><trkpt lat="44.8199441244819" lon="8.056842190501563"><ele>161.66666666666666</ele><time>2026-04-19T12:07:07Z</time></trkpt><trkpt lat="44.81997275396543" lon="8.056927922830157"><ele>161.5</ele><time>2026-04-19T12:07:08Z</time></trkpt><trkpt lat="44.81997015903909" lon="8.057054068688867"><ele>161.33333333333331</ele><time>2026-04-19T12:07:10Z</time></trkpt><trkpt lat="44.81993150412692" lon="8.057156039410824"><ele>161.16666666666666</ele><time>2026-04-19T12:07:12Z</time></trkpt><trkpt lat="44.819943238662574" lon="8.05730886177048"><ele>161.0</ele><time>2026-04-19T12:07:14Z</time></trkpt><trkpt lat="44.8199541366456" lon="8.057400213941225"><ele>161.0</ele><time>2026-04-19T12:07:15Z</time></trkpt><trkpt lat="44.8199614321612" lon="8.05749799564781"><ele>161.0</ele><time>2026-04-19T12:07:16Z</time></trkpt><trkpt lat="44.8199645090325" lon="8.057648785828063"><ele>161.0</ele><time>2026-04-19T12:07:18Z</time></trkpt><trkpt lat="44.819975079319384" lon="8.057777002434104"><ele>161.0</ele><time>2026-04-19T12:07:20Z</time></trkpt><trkpt lat="44.81998809175924" lon="8.05787850928691"><ele>161.0</ele><time>2026-04-19T12:07:22Z</time></trkpt><trkpt lat="44.82000767233348" lon="8.057993597037864"><ele>161.0</ele><time>2026-04-19T12:07:25Z</time></trkpt><trkpt lat="44.81996663797359" lon="8.057919783786916"><ele>161.0</ele><time>2026-04-19T12:11:14Z</time></trkpt><trkpt lat="44.81999349078166" lon="8.05800512526935"><ele>161.0</ele><time>2026-04-19T12:11:53Z</time></trkpt><trkpt lat="44.819987350080794" lon="8.058100737262492"><ele>161.0</ele><time>2026-04-19T12:12:00Z</time></trkpt></trkseg></trk></gpx>